<?xml version='1.0' encoding='UTF-8'?><gpx version="1.1" creator="JPX - https://github.com/jenetics/jpx" xmlns="http://www.topografix.com/GPX/1/1"><trk><trkseg><trkpt lat="45.89603289359861" lon="13.381252130555213"><ele>26.0</ele><time>2026-04-06T05:59:52.005Z</time></trkpt><trkpt lat="45.89596365695903" lon="13.381247683331186"><ele>26.0</ele><time>2026-04-06T05:59:58.129Z</time></trkpt><trkpt lat="45.89602738404068" lon="13.38122416133577"><ele>26.0</ele><time>2026-04-06T06:00:07Z</time></trkpt><trkpt lat="45.89595732231728" lon="13.381210232133586"><ele>26.0</ele><time>2026-04-06T06:01:37.002Z</time></trkpt><trkpt lat="45.89589674087042" lon="13.381261193779206"><ele>26.0</ele><time>2026-04-06T06:02:10.003Z</time></trkpt><trkpt lat="45.89586505577245" lon="13.38134144153445"><ele>26.0</ele><time>2026-04-06T06:02:12.003Z</time></trkpt><trkpt lat="45.89583462901683" lon="13.381463808904774"><ele>26.0</ele><time>2026-04-06T06:02:14.002Z</time></trkpt><trkpt lat="45.89582186872405" lon="13.381560578595257"><ele>26.0</ele><time>2026-04-06T06:02:16.002Z</time></trkpt><trkpt lat="45.895800514609725" lon="13.381660228596534"><ele>26.0</ele><time>2026-04-06T06:02:18.002Z</time></trkpt><trkpt lat="45.895783651631874" lon="13.381757007639385"><ele>26.0</ele><time>2026-04-06T06:02:20.002Z</time></trkpt><trkpt lat="45.89576618446884" lon="13.381857428357824"><ele>26.0</ele><time>2026-04-06T06:02:22.002Z</time></trkpt><trkpt lat="45.895755015096746" lon="13.381953562790907"><ele>26.0</ele><time>2026-04-06T06:02:24.002Z</time></trkpt><trkpt lat="45.89574761288608" lon="13.382048490399248"><ele>26.0</ele><time>2026-04-06T06:02:28.002Z</time></trkpt><trkpt lat="45.89582400312003" lon="13.38207561848205"><ele>26.0</ele><time>2026-04-06T06:02:30.001Z</time></trkpt><trkpt lat="45.89593375044735" lon="13.382006139346588"><ele>26.0</ele><time>2026-04-06T06:02:32.001Z</time></trkpt><trkpt lat="45.8960039575194" lon="13.381974027692925"><ele>26.0</ele><time>2026-04-06T06:02:33.001Z</time></trkpt><trkpt lat="45.89608807555323" lon="13.381940710498005"><ele>26.0</ele><time>2026-04-06T06:02:34.001Z</time></trkpt><trkpt lat="45.89618954081646" lon="13.381899974887174"><ele>26.0</ele><time>2026-04-06T06:02:35.001Z</time></trkpt><trkpt lat="45.896305821453375" lon="13.381847071000006"><ele>26.0</ele><time>2026-04-06T06:02:36.001Z</time></trkpt><trkpt lat="45.89642975057815" lon="13.381787112676008"><ele>26.0</ele><time>2026-04-06T06:02:37.001Z</time></trkpt><trkpt lat="45.896563242078344" lon="13.38172286778227"><ele>26.0</ele><time>2026-04-06T06:02:38.001Z</time></trkpt><trkpt lat="45.89670535645392" lon="13.381653564107594"><ele>26.0</ele><time>2026-04-06T06:02:39.001Z</time></trkpt><trkpt lat="45.8968496365363" lon="13.381586045570465"><ele>26.0</ele><time>2026-04-06T06:02:40.001Z</time></trkpt><trkpt lat="45.89700126070989" lon="13.3815178661301"><ele>26.0</ele><time>2026-04-06T06:02:41.001Z</time></trkpt><trkpt lat="45.897157550676425" lon="13.381449803635165"><ele>26.0</ele><time>2026-04-06T06:02:42.001Z</time></trkpt><trkpt lat="45.897318173357746" lon="13.381380973343314"><ele>26.0</ele><time>2026-04-06T06:02:43.001Z</time></trkpt><trkpt lat="45.89748055066028" lon="13.381311172597176"><ele>26.0</ele><time>2026-04-06T06:02:44.001Z</time></trkpt><trkpt lat="45.897644244335986" lon="13.381254145627596"><ele>26.0</ele><time>2026-04-06T06:02:45.001Z</time></trkpt><trkpt lat="45.89781041806856" lon="13.38118626488012"><ele>26.0</ele><time>2026-04-06T06:02:46.001Z</time></trkpt><trkpt lat="45.8979776725499" lon="13.381118717122016"><ele>26.0</ele><time>2026-04-06T06:02:47.001Z</time></trkpt><trkpt lat="45.89814948601803" lon="13.38105360029829"><ele>26.0</ele><time>2026-04-06T06:02:48.001Z</time></trkpt><trkpt lat="45.89832301802613" lon="13.380978926874983"><ele>26.0</ele><time>2026-04-06T06:02:49.001Z</time></trkpt><trkpt lat="45.898502590385206" lon="13.380908590611465"><ele>25.333333333333332</ele><time>2026-04-06T06:02:50.001Z</time></trkpt><trkpt lat="45.89867960975403" lon="13.380838266692919"><ele>24.666666666666664</ele><time>2026-04-06T06:02:51.001Z</time></trkpt><trkpt lat="45.89885788645143" lon="13.380767331531619"><ele>24.0</ele><time>2026-04-06T06:02:52.001Z</time></trkpt><trkpt lat="45.89903747445515" lon="13.380698943922814"><ele>24.0</ele><time>2026-04-06T06:02:53.001Z</time></trkpt><trkpt lat="45.89921978202124" lon="13.380637333578102"><ele>24.0</ele><time>2026-04-06T06:02:54.001Z</time></trkpt><trkpt lat="45.89940919064493" lon="13.380612445709684"><ele>24.0</ele><time>2026-04-06T06:02:55.001Z</time></trkpt><trkpt lat="45.89959296387777" lon="13.380547893275518"><ele>24.666666666666664</ele><time>2026-04-06T06:02:56.001Z</time></trkpt><trkpt lat="45.8997794859237" lon="13.380512172299577"><ele>25.333333333333332</ele><time>2026-04-06T06:02:57.001Z</time></trkpt><trkpt lat="45.89997127245047" lon="13.380479499241256"><ele>26.0</ele><time>2026-04-06T06:02:58.001Z</time></trkpt><trkpt lat="45.90016220345726" lon="13.380448474647409"><ele>26.0</ele><time>2026-04-06T06:02:59.001Z</time></trkpt><trkpt lat="45.900349858726734" lon="13.380426944205595"><ele>26.0</ele><time>2026-04-06T06:03:00.001Z</time></trkpt><trkpt lat="45.900538842480294" lon="13.38039941879634"><ele>26.0</ele><time>2026-04-06T06:03:01.001Z</time></trkpt><trkpt lat="45.90072607356788" lon="13.380376569080354"><ele>26.0</ele><time>2026-04-06T06:03:02.001Z</time></trkpt><trkpt lat="45.900912903748306" lon="13.38035139721534"><ele>26.0</ele><time>2026-04-06T06:03:03.001Z</time></trkpt><trkpt lat="45.901094906070895" lon="13.380327123926238"><ele>26.0</ele><time>2026-04-06T06:03:04.001Z</time></trkpt><trkpt lat="45.90126654855521" lon="13.380298547889414"><ele>26.0</ele><time>2026-04-06T06:03:05.001Z</time></trkpt><trkpt lat="45.9014463912619" lon="13.380297808366997"><ele>26.0</ele><time>2026-04-06T06:03:06.001Z</time></trkpt><trkpt lat="45.90162728348522" lon="13.380247286307394"><ele>26.0</ele><time>2026-04-06T06:03:07.001Z</time></trkpt><trkpt lat="45.90181730600223" lon="13.380216728990217"><ele>26.0</ele><time>2026-04-06T06:03:08.001Z</time></trkpt><trkpt lat="45.902012785042835" lon="13.38018015405986"><ele>26.0</ele><time>2026-04-06T06:03:09.001Z</time></trkpt><trkpt lat="45.902212863582015" lon="13.380140120595108"><ele>26.0</ele><time>2026-04-06T06:03:10.001Z</time></trkpt><trkpt lat="45.90241817695199" lon="13.380099251986035"><ele>26.333333333333332</ele><time>2026-04-06T06:03:11.001Z</time></trkpt><trkpt lat="45.902628590004575" lon="13.380054093810854"><ele>26.666666666666664</ele><time>2026-04-06T06:03:12.001Z</time></trkpt><trkpt lat="45.90284211456065" lon="13.380005376245002"><ele>27.0</ele><time>2026-04-06T06:03:13.001Z</time></trkpt><trkpt lat="45.903058516644535" lon="13.379955141394564"><ele>27.0</ele><time>2026-04-06T06:03:14.001Z</time></trkpt><trkpt lat="45.90327805125083" lon="13.379901664825823"><ele>27.0</ele><time>2026-04-06T06:03:15.001Z</time></trkpt><trkpt lat="45.903499290632176" lon="13.379850605292475"><ele>27.0</ele><time>2026-04-06T06:03:16.001Z</time></trkpt><trkpt lat="45.903723119789156" lon="13.379804766671285"><ele>27.0</ele><time>2026-04-06T06:03:17.001Z</time></trkpt><trkpt lat="45.9039523046405" lon="13.379758419136595"><ele>27.0</ele><time>2026-04-06T06:03:18.001Z</time></trkpt><trkpt lat="45.90418096066938" lon="13.379710413353651"><ele>26.5</ele><time>2026-04-06T06:03:19.001Z</time></trkpt><trkpt lat="45.90441487056743" lon="13.379660561241563"><ele>26.0</ele><time>2026-04-06T06:03:20.001Z</time></trkpt><trkpt lat="45.90464583017483" lon="13.379614641294738"><ele>26.0</ele><time>2026-04-06T06:03:21.001Z</time></trkpt><trkpt lat="45.904882861263445" lon="13.379581995299015"><ele>26.0</ele><time>2026-04-06T06:03:22.001Z</time></trkpt><trkpt lat="45.90511872953515" lon="13.379549500428114"><ele>27.0</ele><time>2026-04-06T06:03:23.001Z</time></trkpt><trkpt lat="45.90535088625972" lon="13.379523135982067"><ele>28.0</ele><time>2026-04-06T06:03:24.001Z</time></trkpt><trkpt lat="45.90557636761342" lon="13.37950070812817"><ele>28.0</ele><time>2026-04-06T06:03:25.001Z</time></trkpt><trkpt lat="45.90579164625679" lon="13.379478817296489"><ele>28.0</ele><time>2026-04-06T06:03:26.001Z</time></trkpt><trkpt lat="45.90599753523982" lon="13.379466617415511"><ele>28.0</ele><time>2026-04-06T06:03:27.001Z</time></trkpt><trkpt lat="45.90620481209248" lon="13.37943102406695"><ele>28.333333333333336</ele><time>2026-04-06T06:03:28.001Z</time></trkpt><trkpt lat="45.90641099590227" lon="13.379404002089233"><ele>28.666666666666664</ele><time>2026-04-06T06:03:29.001Z</time></trkpt><trkpt lat="45.90661619791452" lon="13.379370746334443"><ele>29.0</ele><time>2026-04-06T06:03:30.001Z</time></trkpt><trkpt lat="45.90682592050775" lon="13.37935328890067"><ele>29.0</ele><time>2026-04-06T06:03:31.001Z</time></trkpt><trkpt lat="45.90702635815918" lon="13.37927047083203"><ele>29.0</ele><time>2026-04-06T06:03:32.001Z</time></trkpt><trkpt lat="45.9072306818321" lon="13.379191985361338"><ele>29.0</ele><time>2026-04-06T06:03:33.001Z</time></trkpt><trkpt lat="45.90743794843332" lon="13.37910509553925"><ele>29.0</ele><time>2026-04-06T06:03:34.001Z</time></trkpt><trkpt lat="45.90764731431367" lon="13.379019984923572"><ele>29.0</ele><time>2026-04-06T06:03:35.001Z</time></trkpt><trkpt lat="45.9078561223382" lon="13.378944645270774"><ele>29.0</ele><time>2026-04-06T06:03:36.001Z</time></trkpt><trkpt lat="45.90805670870703" lon="13.378881851726279"><ele>29.0</ele><time>2026-04-06T06:03:37.001Z</time></trkpt><trkpt lat="45.90825396786339" lon="13.378823818217256"><ele>29.0</ele><time>2026-04-06T06:03:38.001Z</time></trkpt><trkpt lat="45.90844512626134" lon="13.378805266818597"><ele>29.0</ele><time>2026-04-06T06:03:39.001Z</time></trkpt><trkpt lat="45.90862488898055" lon="13.37877465831051"><ele>29.0</ele><time>2026-04-06T06:03:40.001Z</time></trkpt><trkpt lat="45.908806663304006" lon="13.37874550618457"><ele>29.0</ele><time>2026-04-06T06:03:41.001Z</time></trkpt><trkpt lat="45.90899484779084" lon="13.378695882502663"><ele>29.0</ele><time>2026-04-06T06:03:42.001Z</time></trkpt><trkpt lat="45.9091931959818" lon="13.3786741902047"><ele>28.666666666666664</ele><time>2026-04-06T06:03:43.001Z</time></trkpt><trkpt lat="45.90939332889471" lon="13.378656072349273"><ele>28.333333333333336</ele><time>2026-04-06T06:03:44.001Z</time></trkpt><trkpt lat="45.90959540847288" lon="13.378648388859517"><ele>28.0</ele><time>2026-04-06T06:03:45.001Z</time></trkpt><trkpt lat="45.909802869227455" lon="13.378648282383061"><ele>28.0</ele><time>2026-04-06T06:03:46.001Z</time></trkpt><trkpt lat="45.91001787588627" lon="13.378654058273678"><ele>28.0</ele><time>2026-04-06T06:03:47.001Z</time></trkpt><trkpt lat="45.91024231592334" lon="13.378670036631014"><ele>28.0</ele><time>2026-04-06T06:03:48.001Z</time></trkpt><trkpt lat="45.91046360939943" lon="13.378694066641204"><ele>28.666666666666668</ele><time>2026-04-06T06:03:49.001Z</time></trkpt><trkpt lat="45.91068047203541" lon="13.37870929509753"><ele>29.333333333333336</ele><time>2026-04-06T06:03:50.001Z</time></trkpt><trkpt lat="45.91088675109393" lon="13.3786971510302"><ele>30.0</ele><time>2026-04-06T06:03:51.001Z</time></trkpt><trkpt lat="45.91108402495947" lon="13.378651813596841"><ele>30.333333333333336</ele><time>2026-04-06T06:03:52.001Z</time></trkpt><trkpt lat="45.911275232385556" lon="13.37857683164894"><ele>30.666666666666668</ele><time>2026-04-06T06:03:53.001Z</time></trkpt><trkpt lat="45.911464485797296" lon="13.378456357386154"><ele>31.0</ele><time>2026-04-06T06:03:54.001Z</time></trkpt><trkpt lat="45.91165348763681" lon="13.378327239787675"><ele>31.0</ele><time>2026-04-06T06:03:55.001Z</time></trkpt><trkpt lat="45.91183347376845" lon="13.378158878703275"><ele>31.0</ele><time>2026-04-06T06:03:56.001Z</time></trkpt><trkpt lat="45.9120062685623" lon="13.377981503808861"><ele>31.0</ele><time>2026-04-06T06:03:57.001Z</time></trkpt><trkpt lat="45.912153192031106" lon="13.377824239142369"><ele>31.333333333333336</ele><time>2026-04-06T06:03:58.001Z</time></trkpt><trkpt lat="45.91230204329799" lon="13.377700856181205"><ele>31.666666666666664</ele><time>2026-04-06T06:03:59.001Z</time></trkpt><trkpt lat="45.91244526488483" lon="13.377557622547718"><ele>32.0</ele><time>2026-04-06T06:04:00.001Z</time></trkpt><trkpt lat="45.912576639486524" lon="13.377392511906024"><ele>32.33333333333333</ele><time>2026-04-06T06:04:01.001Z</time></trkpt><trkpt lat="45.912711057906265" lon="13.377252488651346"><ele>32.666666666666664</ele><time>2026-04-06T06:04:02.001Z</time></trkpt><trkpt lat="45.91283434284497" lon="13.377122699154835"><ele>33.0</ele><time>2026-04-06T06:04:03.001Z</time></trkpt><trkpt lat="45.91295271123587" lon="13.377010169666791"><ele>33.0</ele><time>2026-04-06T06:04:04.001Z</time></trkpt><trkpt lat="45.91307666356423" lon="13.376916107656026"><ele>33.0</ele><time>2026-04-06T06:04:05.001Z</time></trkpt><trkpt lat="45.91321717473189" lon="13.376853929491457"><ele>33.0</ele><time>2026-04-06T06:04:06.001Z</time></trkpt><trkpt lat="45.913361975331604" lon="13.37680402612936"><ele>33.0</ele><time>2026-04-06T06:04:07.001Z</time></trkpt><trkpt lat="45.913511054454254" lon="13.376747685610935"><ele>33.0</ele><time>2026-04-06T06:04:08.001Z</time></trkpt><trkpt lat="45.913657817993" lon="13.376683258173312"><ele>33.0</ele><time>2026-04-06T06:04:09.002Z</time></trkpt><trkpt lat="45.91381163855" lon="13.37661755784725"><ele>33.0</ele><time>2026-04-06T06:04:10.002Z</time></trkpt><trkpt lat="45.913966781744776" lon="13.376551906416037"><ele>33.0</ele><time>2026-04-06T06:04:11.002Z</time></trkpt><trkpt lat="45.914125780745465" lon="13.376491289759185"><ele>33.0</ele><time>2026-04-06T06:04:12.002Z</time></trkpt><trkpt lat="45.91429160391744" lon="13.376466610488103"><ele>33.0</ele><time>2026-04-06T06:04:13.002Z</time></trkpt><trkpt lat="45.914456753427864" lon="13.37642697903554"><ele>33.0</ele><time>2026-04-06T06:04:14.002Z</time></trkpt><trkpt lat="45.914627264460485" lon="13.376393444636653"><ele>33.0</ele><time>2026-04-06T06:04:15.002Z</time></trkpt><trkpt lat="45.91479790006599" lon="13.376363792056607"><ele>33.0</ele><time>2026-04-06T06:04:16.002Z</time></trkpt><trkpt lat="45.914968703605105" lon="13.376334112252941"><ele>33.333333333333336</ele><time>2026-04-06T06:04:17.002Z</time></trkpt><trkpt lat="45.91514116420476" lon="13.37630157008188"><ele>33.66666666666667</ele><time>2026-04-06T06:04:18.002Z</time></trkpt><trkpt lat="45.91531207849477" lon="13.376268850626598"><ele>34.0</ele><time>2026-04-06T06:04:19.002Z</time></trkpt><trkpt lat="45.91548394534879" lon="13.376238899638848"><ele>34.0</ele><time>2026-04-06T06:04:20.002Z</time></trkpt><trkpt lat="45.91565629328071" lon="13.37621403357488"><ele>34.0</ele><time>2026-04-06T06:04:21.002Z</time></trkpt><trkpt lat="45.91583016200249" lon="13.37620253682039"><ele>34.0</ele><time>2026-04-06T06:04:22.002Z</time></trkpt><trkpt lat="45.9160109623558" lon="13.376198238817715"><ele>33.66666666666667</ele><time>2026-04-06T06:04:23.002Z</time></trkpt><trkpt lat="45.9161936250202" lon="13.376197562393761"><ele>33.333333333333336</ele><time>2026-04-06T06:04:24.002Z</time></trkpt><trkpt lat="45.91638008721087" lon="13.376196866454258"><ele>33.0</ele><time>2026-04-06T06:04:25.002Z</time></trkpt><trkpt lat="45.916569733520475" lon="13.376192892340155"><ele>32.0</ele><time>2026-04-06T06:04:26.001Z</time></trkpt><trkpt lat="45.916764386514146" lon="13.376176827149587"><ele>31.0</ele><time>2026-04-06T06:04:27.001Z</time></trkpt><trkpt lat="45.916961470414506" lon="13.376142119008936"><ele>30.0</ele><time>2026-04-06T06:04:28.001Z</time></trkpt><trkpt lat="45.917165254941416" lon="13.37610438566437"><ele>30.0</ele><time>2026-04-06T06:04:29.001Z</time></trkpt><trkpt lat="45.91737137661313" lon="13.37606641550018"><ele>30.0</ele><time>2026-04-06T06:04:30.001Z</time></trkpt><trkpt lat="45.91758035239712" lon="13.376029042714542"><ele>30.0</ele><time>2026-04-06T06:04:31.001Z</time></trkpt><trkpt lat="45.91779177620721" lon="13.375991172269712"><ele>30.666666666666664</ele><time>2026-04-06T06:04:32.001Z</time></trkpt><trkpt lat="45.91800603049757" lon="13.375951442388038"><ele>31.333333333333332</ele><time>2026-04-06T06:04:33.001Z</time></trkpt><trkpt lat="45.91821852312456" lon="13.37591203919653"><ele>32.0</ele><time>2026-04-06T06:04:34.001Z</time></trkpt><trkpt lat="45.91842779176659" lon="13.37584221919355"><ele>32.0</ele><time>2026-04-06T06:04:35.001Z</time></trkpt><trkpt lat="45.918634598106415" lon="13.375773320526108"><ele>32.0</ele><time>2026-04-06T06:04:36.001Z</time></trkpt><trkpt lat="45.918834067684834" lon="13.375676048963351"><ele>32.0</ele><time>2026-04-06T06:04:37.001Z</time></trkpt><trkpt lat="45.91902201546431" lon="13.375543520596649"><ele>31.666666666666664</ele><time>2026-04-06T06:04:38.001Z</time></trkpt><trkpt lat="45.91920380669401" lon="13.375390184291986"><ele>31.333333333333336</ele><time>2026-04-06T06:04:39.001Z</time></trkpt><trkpt lat="45.9193803261785" lon="13.375215024623696"><ele>31.0</ele><time>2026-04-06T06:04:40.001Z</time></trkpt><trkpt lat="45.91956636851089" lon="13.37504508518459"><ele>31.0</ele><time>2026-04-06T06:04:41.001Z</time></trkpt><trkpt lat="45.919746456274616" lon="13.374854724146461"><ele>31.0</ele><time>2026-04-06T06:04:42.001Z</time></trkpt><trkpt lat="45.91993046526809" lon="13.374664687225563"><ele>31.5</ele><time>2026-04-06T06:04:43.001Z</time></trkpt><trkpt lat="45.92011597957013" lon="13.374476534951402"><ele>32.0</ele><time>2026-04-06T06:04:44.001Z</time></trkpt><trkpt lat="45.92030295621769" lon="13.374297808284606"><ele>32.0</ele><time>2026-04-06T06:04:45.001Z</time></trkpt><trkpt lat="45.92048555443727" lon="13.37412797171536"><ele>32.0</ele><time>2026-04-06T06:04:46.001Z</time></trkpt><trkpt lat="45.920665391647496" lon="13.37397480001733"><ele>32.0</ele><time>2026-04-06T06:04:47.001Z</time></trkpt><trkpt lat="45.92081625948656" lon="13.373806350953604"><ele>32.0</ele><time>2026-04-06T06:04:48.001Z</time></trkpt><trkpt lat="45.92095611930594" lon="13.37368691697494"><ele>32.0</ele><time>2026-04-06T06:04:49.001Z</time></trkpt><trkpt lat="45.92107489212236" lon="13.373587776004719"><ele>32.0</ele><time>2026-04-06T06:04:50.001Z</time></trkpt><trkpt lat="45.921175815114765" lon="13.373518094462751"><ele>32.0</ele><time>2026-04-06T06:04:51.001Z</time></trkpt><trkpt lat="45.9212753924154" lon="13.37347778995551"><ele>32.0</ele><time>2026-04-06T06:04:52.001Z</time></trkpt><trkpt lat="45.921367906596195" lon="13.373460980512782"><ele>32.0</ele><time>2026-04-06T06:04:53.001Z</time></trkpt><trkpt lat="45.92145933240066" lon="13.37347770390217"><ele>32.0</ele><time>2026-04-06T06:04:54.001Z</time></trkpt><trkpt lat="45.92154957847951" lon="13.373476728227194"><ele>32.0</ele><time>2026-04-06T06:04:55.001Z</time></trkpt><trkpt lat="45.92164326259784" lon="13.373465068625466"><ele>32.0</ele><time>2026-04-06T06:04:56.001Z</time></trkpt><trkpt lat="45.92170602836949" lon="13.373313450546423"><ele>32.25</ele><time>2026-04-06T06:04:57.001Z</time></trkpt><trkpt lat="45.92174462546415" lon="13.373145076651548"><ele>32.5</ele><time>2026-04-06T06:04:58.001Z</time></trkpt><trkpt lat="45.92182538137964" lon="13.372987882275249"><ele>32.75</ele><time>2026-04-06T06:04:59.001Z</time></trkpt><trkpt lat="45.921942800839155" lon="13.37284167174887"><ele>33.0</ele><time>2026-04-06T06:05:00.001Z</time></trkpt><trkpt lat="45.92209588149536" lon="13.372710640660998"><ele>33.333333333333336</ele><time>2026-04-06T06:05:01.001Z</time></trkpt><trkpt lat="45.922262276717305" lon="13.37256497058835"><ele>33.66666666666667</ele><time>2026-04-06T06:05:02.001Z</time></trkpt><trkpt lat="45.9224403637481" lon="13.372407498649125"><ele>34.0</ele><time>2026-04-06T06:05:03.001Z</time></trkpt><trkpt lat="45.92262827797343" lon="13.37224178834654"><ele>33.5</ele><time>2026-04-06T06:05:04.001Z</time></trkpt><trkpt lat="45.92283612558812" lon="13.372086934964674"><ele>33.0</ele><time>2026-04-06T06:05:05.001Z</time></trkpt><trkpt lat="45.92304320611729" lon="13.371906305118896"><ele>33.0</ele><time>2026-04-06T06:05:06.001Z</time></trkpt><trkpt lat="45.923257617276775" lon="13.371714520256411"><ele>33.0</ele><time>2026-04-06T06:05:07.001Z</time></trkpt><trkpt lat="45.92346853232234" lon="13.371500456239803"><ele>33.0</ele><time>2026-04-06T06:05:08.001Z</time></trkpt><trkpt lat="45.923696169356646" lon="13.371301458002655"><ele>33.0</ele><time>2026-04-06T06:05:09Z</time></trkpt><trkpt lat="45.92393008497855" lon="13.371098082438868"><ele>33.0</ele><time>2026-04-06T06:05:10Z</time></trkpt><trkpt lat="45.924167830160236" lon="13.370890802797637"><ele>33.0</ele><time>2026-04-06T06:05:11Z</time></trkpt><trkpt lat="45.92441633154099" lon="13.37070163243638"><ele>33.0</ele><time>2026-04-06T06:05:12Z</time></trkpt><trkpt lat="45.92466105351259" lon="13.370487780150725"><ele>33.0</ele><time>2026-04-06T06:05:13Z</time></trkpt><trkpt lat="45.92489999030112" lon="13.370251291746099"><ele>33.5</ele><time>2026-04-06T06:05:14Z</time></trkpt><trkpt lat="45.92515028575436" lon="13.37003301727436"><ele>34.0</ele><time>2026-04-06T06:05:15Z</time></trkpt><trkpt lat="45.92540093945349" lon="13.369810976252968"><ele>34.0</ele><time>2026-04-06T06:05:16Z</time></trkpt><trkpt lat="45.92564957404521" lon="13.369589444589227"><ele>34.0</ele><time>2026-04-06T06:05:17Z</time></trkpt><trkpt lat="45.92589829018484" lon="13.369366561523695"><ele>34.0</ele><time>2026-04-06T06:05:18Z</time></trkpt><trkpt lat="45.926157052199095" lon="13.369162473686726"><ele>34.0</ele><time>2026-04-06T06:05:19Z</time></trkpt><trkpt lat="45.926406553405016" lon="13.36893520603932"><ele>34.0</ele><time>2026-04-06T06:05:20Z</time></trkpt><trkpt lat="45.92665413847323" lon="13.368703004290978"><ele>34.0</ele><time>2026-04-06T06:05:21Z</time></trkpt><trkpt lat="45.92690015983634" lon="13.368469611780538"><ele>34.0</ele><time>2026-04-06T06:05:22Z</time></trkpt><trkpt lat="45.92714579271338" lon="13.36823686311956"><ele>34.0</ele><time>2026-04-06T06:05:23Z</time></trkpt><trkpt lat="45.92738894751554" lon="13.368006876554517"><ele>34.0</ele><time>2026-04-06T06:05:24Z</time></trkpt><trkpt lat="45.927623297074106" lon="13.367763326407237"><ele>34.0</ele><time>2026-04-06T06:05:25Z</time></trkpt><trkpt lat="45.92787316194891" lon="13.367563070908139"><ele>34.0</ele><time>2026-04-06T06:05:26Z</time></trkpt><trkpt lat="45.928132643251786" lon="13.367396682599194"><ele>34.0</ele><time>2026-04-06T06:05:27Z</time></trkpt><trkpt lat="45.92839948599434" lon="13.36725736313163"><ele>34.0</ele><time>2026-04-06T06:05:28Z</time></trkpt><trkpt lat="45.92867403265453" lon="13.367149770939731"><ele>34.0</ele><time>2026-04-06T06:05:29Z</time></trkpt><trkpt lat="45.928945027972986" lon="13.367029063758034"><ele>34.0</ele><time>2026-04-06T06:05:30Z</time></trkpt><trkpt lat="45.929215024875596" lon="13.366908801290542"><ele>34.0</ele><time>2026-04-06T06:05:31Z</time></trkpt><trkpt lat="45.929485323119316" lon="13.366788404634708"><ele>34.5</ele><time>2026-04-06T06:05:32Z</time></trkpt><trkpt lat="45.92975639862771" lon="13.366669362935767"><ele>35.0</ele><time>2026-04-06T06:05:33Z</time></trkpt><trkpt lat="45.93003034928546" lon="13.366549207326925"><ele>35.0</ele><time>2026-04-06T06:05:34Z</time></trkpt><trkpt lat="45.93029928757497" lon="13.366406224743816"><ele>35.0</ele><time>2026-04-06T06:05:35Z</time></trkpt><trkpt lat="45.93057328125323" lon="13.366284002645843"><ele>35.0</ele><time>2026-04-06T06:05:36Z</time></trkpt><trkpt lat="45.93084687334369" lon="13.366161011794432"><ele>35.0</ele><time>2026-04-06T06:05:37Z</time></trkpt><trkpt lat="45.93112251577029" lon="13.366037006567284"><ele>35.0</ele><time>2026-04-06T06:05:38Z</time></trkpt><trkpt lat="45.931397329499895" lon="13.365913591545853"><ele>35.0</ele><time>2026-04-06T06:05:39Z</time></trkpt><trkpt lat="45.93167338680398" lon="13.365792484325617"><ele>36.0</ele><time>2026-04-06T06:05:40Z</time></trkpt><trkpt lat="45.93195035573164" lon="13.365677240468038"><ele>37.0</ele><time>2026-04-06T06:05:41Z</time></trkpt><trkpt lat="45.93223029810916" lon="13.365577136917365"><ele>36.0</ele><time>2026-04-06T06:05:42Z</time></trkpt><trkpt lat="45.93251713442027" lon="13.365510698885306"><ele>35.0</ele><time>2026-04-06T06:05:43Z</time></trkpt><trkpt lat="45.93280992360886" lon="13.365457267331273"><ele>35.0</ele><time>2026-04-06T06:05:44Z</time></trkpt><trkpt lat="45.933106921592035" lon="13.365403236309447"><ele>35.0</ele><time>2026-04-06T06:05:45Z</time></trkpt><trkpt lat="45.933404245333165" lon="13.365351743821696"><ele>36.0</ele><time>2026-04-06T06:05:46Z</time></trkpt><trkpt lat="45.93370049954581" lon="13.365301502521236"><ele>37.0</ele><time>2026-04-06T06:05:47Z</time></trkpt><trkpt lat="45.93399589965725" lon="13.365250003173784"><ele>37.0</ele><time>2026-04-06T06:05:48Z</time></trkpt><trkpt lat="45.934291527734906" lon="13.365194622070117"><ele>37.0</ele><time>2026-04-06T06:05:49Z</time></trkpt><trkpt lat="45.93458721974626" lon="13.365141739033996"><ele>37.0</ele><time>2026-04-06T06:05:50Z</time></trkpt><trkpt lat="45.9348797211648" lon="13.36509032796516"><ele>37.0</ele><time>2026-04-06T06:05:51Z</time></trkpt><trkpt lat="45.93516855179574" lon="13.36504080698015"><ele>36.5</ele><time>2026-04-06T06:05:52Z</time></trkpt><trkpt lat="45.93542690482925" lon="13.364994426422415"><ele>36.0</ele><time>2026-04-06T06:05:53Z</time></trkpt><trkpt lat="45.93566489087994" lon="13.364953110787498"><ele>36.0</ele><time>2026-04-06T06:05:54Z</time></trkpt><trkpt lat="45.93588062228408" lon="13.364914028989674"><ele>36.0</ele><time>2026-04-06T06:05:55Z</time></trkpt><trkpt lat="45.936085488232486" lon="13.364876659060808"><ele>36.0</ele><time>2026-04-06T06:05:56Z</time></trkpt><trkpt lat="45.93627806770405" lon="13.364841078821243"><ele>36.666666666666664</ele><time>2026-04-06T06:05:57Z</time></trkpt><trkpt lat="45.93645186065105" lon="13.36480664160451"><ele>37.33333333333333</ele><time>2026-04-06T06:05:58Z</time></trkpt><trkpt lat="45.936622174847294" lon="13.36474832029323"><ele>38.0</ele><time>2026-04-06T06:05:59Z</time></trkpt><trkpt lat="45.93678496329208" lon="13.36464993948239"><ele>39.0</ele><time>2026-04-06T06:06:00Z</time></trkpt><trkpt lat="45.9369335909621" lon="13.364500728720916"><ele>40.0</ele><time>2026-04-06T06:06:01Z</time></trkpt><trkpt lat="45.93706607728163" lon="13.364319484604215"><ele>41.0</ele><time>2026-04-06T06:06:02Z</time></trkpt><trkpt lat="45.93717423339579" lon="13.364100731845191"><ele>40.0</ele><time>2026-04-06T06:06:03Z</time></trkpt><trkpt lat="45.937257869641186" lon="13.363851015500659"><ele>39.0</ele><time>2026-04-06T06:06:04Z</time></trkpt><trkpt lat="45.93731990859234" lon="13.36358364238294"><ele>38.0</ele><time>2026-04-06T06:06:05Z</time></trkpt><trkpt lat="45.93737026058846" lon="13.363301898297925"><ele>38.0</ele><time>2026-04-06T06:06:06Z</time></trkpt><trkpt lat="45.937425161027775" lon="13.363011645421611"><ele>38.0</ele><time>2026-04-06T06:06:07Z</time></trkpt><trkpt lat="45.93748654679898" lon="13.362712465852704"><ele>38.0</ele><time>2026-04-06T06:06:08Z</time></trkpt><trkpt lat="45.93754639000556" lon="13.362393873296318"><ele>38.0</ele><time>2026-04-06T06:06:09Z</time></trkpt><trkpt lat="45.93760788172397" lon="13.362066117457582"><ele>38.0</ele><time>2026-04-06T06:06:10Z</time></trkpt><trkpt lat="45.93767260038392" lon="13.361727857667542"><ele>38.0</ele><time>2026-04-06T06:06:11Z</time></trkpt><trkpt lat="45.93773795027751" lon="13.36138097802762"><ele>38.0</ele><time>2026-04-06T06:06:12Z</time></trkpt><trkpt lat="45.937807259129535" lon="13.36102806074355"><ele>38.0</ele><time>2026-04-06T06:06:13Z</time></trkpt><trkpt lat="45.937890147459235" lon="13.360672964412693"><ele>38.0</ele><time>2026-04-06T06:06:14Z</time></trkpt><trkpt lat="45.937990707854055" lon="13.36031876733966"><ele>38.0</ele><time>2026-04-06T06:06:15.001Z</time></trkpt><trkpt lat="45.93810094531874" lon="13.359968864995166"><ele>38.0</ele><time>2026-04-06T06:06:16.001Z</time></trkpt><trkpt lat="45.938217819844205" lon="13.359617581193438"><ele>38.0</ele><time>2026-04-06T06:06:17.001Z</time></trkpt><trkpt lat="45.93833483276182" lon="13.359260942565443"><ele>38.0</ele><time>2026-04-06T06:06:18.001Z</time></trkpt><trkpt lat="45.938450088993065" lon="13.358899246075191"><ele>38.5</ele><time>2026-04-06T06:06:19.001Z</time></trkpt><trkpt lat="45.93856280406241" lon="13.358542180731241"><ele>39.0</ele><time>2026-04-06T06:06:20.001Z</time></trkpt><trkpt lat="45.93867133276722" lon="13.358196280992454"><ele>38.5</ele><time>2026-04-06T06:06:21.001Z</time></trkpt><trkpt lat="45.93877773519654" lon="13.35787236189411"><ele>38.0</ele><time>2026-04-06T06:06:22.001Z</time></trkpt><trkpt lat="45.93889498132409" lon="13.3575713926968"><ele>38.0</ele><time>2026-04-06T06:06:23.001Z</time></trkpt><trkpt lat="45.93903601088656" lon="13.357294404922502"><ele>38.0</ele><time>2026-04-06T06:06:24.001Z</time></trkpt><trkpt lat="45.93920136303276" lon="13.357037857936442"><ele>38.5</ele><time>2026-04-06T06:06:25.001Z</time></trkpt><trkpt lat="45.93938506482216" lon="13.356805572407078"><ele>39.0</ele><time>2026-04-06T06:06:26.001Z</time></trkpt><trkpt lat="45.93958517240087" lon="13.356596017689043"><ele>39.0</ele><time>2026-04-06T06:06:27.001Z</time></trkpt><trkpt lat="45.939790281640846" lon="13.356390368714855"><ele>39.0</ele><time>2026-04-06T06:06:28.001Z</time></trkpt><trkpt lat="45.93998715140738" lon="13.356169908765532"><ele>39.0</ele><time>2026-04-06T06:06:29.001Z</time></trkpt><trkpt lat="45.94016086359746" lon="13.355925151213102"><ele>39.0</ele><time>2026-04-06T06:06:30.001Z</time></trkpt><trkpt lat="45.940311666183405" lon="13.355638734200332"><ele>38.5</ele><time>2026-04-06T06:06:31.001Z</time></trkpt><trkpt lat="45.940446083835035" lon="13.355328867028767"><ele>38.0</ele><time>2026-04-06T06:06:32.001Z</time></trkpt><trkpt lat="45.94057664703317" lon="13.355007459269356"><ele>38.0</ele><time>2026-04-06T06:06:33.001Z</time></trkpt><trkpt lat="45.94071149010464" lon="13.354687424642135"><ele>38.0</ele><time>2026-04-06T06:06:34.001Z</time></trkpt><trkpt lat="45.9408441742359" lon="13.354362840437977"><ele>38.5</ele><time>2026-04-06T06:06:35.001Z</time></trkpt><trkpt lat="45.94097820348187" lon="13.354036431289707"><ele>39.0</ele><time>2026-04-06T06:06:36.001Z</time></trkpt><trkpt lat="45.94105606791329" lon="13.35367139004705"><ele>39.0</ele><time>2026-04-06T06:06:37.001Z</time></trkpt><trkpt lat="45.941126164770004" lon="13.353300139280167"><ele>39.0</ele><time>2026-04-06T06:06:38.001Z</time></trkpt><trkpt lat="45.94118947907517" lon="13.352924404935099"><ele>39.5</ele><time>2026-04-06T06:06:39.001Z</time></trkpt><trkpt lat="45.94124977852389" lon="13.352545501729024"><ele>40.0</ele><time>2026-04-06T06:06:40.001Z</time></trkpt><trkpt lat="45.94131211776665" lon="13.352172349771587"><ele>40.5</ele><time>2026-04-06T06:06:41.001Z</time></trkpt><trkpt lat="45.94137732339609" lon="13.351800147337286"><ele>41.0</ele><time>2026-04-06T06:06:42.001Z</time></trkpt><trkpt lat="45.941438253556164" lon="13.351429977319182"><ele>40.5</ele><time>2026-04-06T06:06:43.001Z</time></trkpt><trkpt lat="45.941501148712064" lon="13.35106798064092"><ele>40.0</ele><time>2026-04-06T06:06:44Z</time></trkpt><trkpt lat="45.94156094129861" lon="13.350716531984848"><ele>39.5</ele><time>2026-04-06T06:06:45Z</time></trkpt><trkpt lat="45.94161742456817" lon="13.350383555787085"><ele>39.0</ele><time>2026-04-06T06:06:46Z</time></trkpt><trkpt lat="45.94167086876811" lon="13.35007938411597"><ele>39.0</ele><time>2026-04-06T06:06:47Z</time></trkpt><trkpt lat="45.94173079365561" lon="13.349800032375784"><ele>39.0</ele><time>2026-04-06T06:06:48Z</time></trkpt><trkpt lat="45.941815612260235" lon="13.349533604761065"><ele>39.0</ele><time>2026-04-06T06:06:49Z</time></trkpt><trkpt lat="45.94192549128687" lon="13.349286062701244"><ele>39.0</ele><time>2026-04-06T06:06:50Z</time></trkpt><trkpt lat="45.94205985850589" lon="13.349064393407085"><ele>39.0</ele><time>2026-04-06T06:06:51Z</time></trkpt><trkpt lat="45.94221263535091" lon="13.348867878236442"><ele>39.0</ele><time>2026-04-06T06:06:52Z</time></trkpt><trkpt lat="45.94238536198608" lon="13.348700076430704"><ele>39.666666666666664</ele><time>2026-04-06T06:06:53Z</time></trkpt><trkpt lat="45.942585507733504" lon="13.348570007250952"><ele>40.33333333333333</ele><time>2026-04-06T06:06:54Z</time></trkpt><trkpt lat="45.942797837675215" lon="13.348458211281121"><ele>41.0</ele><time>2026-04-06T06:06:55Z</time></trkpt><trkpt lat="45.94302589793064" lon="13.348351333291559"><ele>41.0</ele><time>2026-04-06T06:06:56Z</time></trkpt><trkpt lat="45.94326162226137" lon="13.348235853873373"><ele>41.0</ele><time>2026-04-06T06:06:57Z</time></trkpt><trkpt lat="45.943507299616236" lon="13.34811909944573"><ele>41.5</ele><time>2026-04-06T06:06:58Z</time></trkpt><trkpt lat="45.943761778247385" lon="13.34799644669243"><ele>42.0</ele><time>2026-04-06T06:06:59Z</time></trkpt><trkpt lat="45.94402014427205" lon="13.347868757255139"><ele>42.0</ele><time>2026-04-06T06:07:00Z</time></trkpt><trkpt lat="45.94428562321867" lon="13.347737268480486"><ele>42.0</ele><time>2026-04-06T06:07:01Z</time></trkpt><trkpt lat="45.94455368657336" lon="13.34760694929498"><ele>42.0</ele><time>2026-04-06T06:07:02Z</time></trkpt><trkpt lat="45.94482407871576" lon="13.34747494424048"><ele>42.0</ele><time>2026-04-06T06:07:03Z</time></trkpt><trkpt lat="45.94509438435332" lon="13.347344159595664"><ele>42.0</ele><time>2026-04-06T06:07:04Z</time></trkpt><trkpt lat="45.945365180619504" lon="13.34721341181691"><ele>42.0</ele><time>2026-04-06T06:07:05Z</time></trkpt><trkpt lat="45.9456343243706" lon="13.347080949933861"><ele>42.0</ele><time>2026-04-06T06:07:06Z</time></trkpt><trkpt lat="45.94590009134203" lon="13.346949951314912"><ele>42.0</ele><time>2026-04-06T06:07:07Z</time></trkpt><trkpt lat="45.94615847529936" lon="13.346822069458115"><ele>42.0</ele><time>2026-04-06T06:07:08Z</time></trkpt><trkpt lat="45.94640641772852" lon="13.346702592182028"><ele>42.0</ele><time>2026-04-06T06:07:09Z</time></trkpt><trkpt lat="45.9466441312014" lon="13.346591260942274"><ele>42.0</ele><time>2026-04-06T06:07:10Z</time></trkpt><trkpt lat="45.94686989597611" lon="13.346477263258468"><ele>42.0</ele><time>2026-04-06T06:07:11Z</time></trkpt><trkpt lat="45.947093799665936" lon="13.346363786783584"><ele>41.5</ele><time>2026-04-06T06:07:12Z</time></trkpt><trkpt lat="45.94729598385332" lon="13.346190540524473"><ele>41.0</ele><time>2026-04-06T06:07:13Z</time></trkpt><trkpt lat="45.94746774631384" lon="13.345961915810182"><ele>41.0</ele><time>2026-04-06T06:07:14Z</time></trkpt><trkpt lat="45.94762998468401" lon="13.345720206978209"><ele>41.0</ele><time>2026-04-06T06:07:15Z</time></trkpt><trkpt lat="45.94777709887207" lon="13.345449751359507"><ele>41.5</ele><time>2026-04-06T06:07:16Z</time></trkpt><trkpt lat="45.947921468886356" lon="13.345163002187217"><ele>42.0</ele><time>2026-04-06T06:07:17Z</time></trkpt><trkpt lat="45.94806989345339" lon="13.344872040348319"><ele>43.0</ele><time>2026-04-06T06:07:18Z</time></trkpt><trkpt lat="45.94822415158809" lon="13.344579483886708"><ele>44.0</ele><time>2026-04-06T06:07:19Z</time></trkpt><trkpt lat="45.94837888544502" lon="13.3442821603419"><ele>44.0</ele><time>2026-04-06T06:07:20Z</time></trkpt><trkpt lat="45.94853426347754" lon="13.343985041885512"><ele>44.0</ele><time>2026-04-06T06:07:21Z</time></trkpt><trkpt lat="45.948690811619095" lon="13.343689755376312"><ele>43.5</ele><time>2026-04-06T06:07:22Z</time></trkpt><trkpt lat="45.94884642046579" lon="13.343399382481818"><ele>43.0</ele><time>2026-04-06T06:07:23Z</time></trkpt><trkpt lat="45.94899211045072" lon="13.343113899601622"><ele>43.0</ele><time>2026-04-06T06:07:24Z</time></trkpt><trkpt lat="45.949134065420346" lon="13.342842279998345"><ele>43.0</ele><time>2026-04-06T06:07:25Z</time></trkpt><trkpt lat="45.94928802985694" lon="13.342592105256372"><ele>44.0</ele><time>2026-04-06T06:07:26Z</time></trkpt><trkpt lat="45.949453394197484" lon="13.342359832916133"><ele>45.0</ele><time>2026-04-06T06:07:27Z</time></trkpt><trkpt lat="45.94962596974237" lon="13.342140328291002"><ele>45.0</ele><time>2026-04-06T06:07:28Z</time></trkpt><trkpt lat="45.94980445831195" lon="13.341934819410142"><ele>45.0</ele><time>2026-04-06T06:07:29Z</time></trkpt><trkpt lat="45.94998513548104" lon="13.341741090068645"><ele>45.5</ele><time>2026-04-06T06:07:30Z</time></trkpt><trkpt lat="45.9501667704877" lon="13.341549086510486"><ele>46.0</ele><time>2026-04-06T06:07:31Z</time></trkpt><trkpt lat="45.95034867273027" lon="13.341360780032279"><ele>46.0</ele><time>2026-04-06T06:07:32Z</time></trkpt><trkpt lat="45.95052980668435" lon="13.341170721687638"><ele>46.0</ele><time>2026-04-06T06:07:33Z</time></trkpt><trkpt lat="45.950711327222315" lon="13.340984234870104"><ele>46.0</ele><time>2026-04-06T06:07:34Z</time></trkpt><trkpt lat="45.95089718231573" lon="13.34081057357625"><ele>46.0</ele><time>2026-04-06T06:07:35Z</time></trkpt><trkpt lat="45.9510878830721" lon="13.340652282568493"><ele>46.0</ele><time>2026-04-06T06:07:36Z</time></trkpt><trkpt lat="45.95128065439074" lon="13.340498336373292"><ele>46.0</ele><time>2026-04-06T06:07:37Z</time></trkpt><trkpt lat="45.95147522938213" lon="13.340347798019463"><ele>46.0</ele><time>2026-04-06T06:07:38Z</time></trkpt><trkpt lat="45.95167224665799" lon="13.340202387217206"><ele>46.0</ele><time>2026-04-06T06:07:39Z</time></trkpt><trkpt lat="45.95187391366244" lon="13.34006148732772"><ele>46.0</ele><time>2026-04-06T06:07:40Z</time></trkpt><trkpt lat="45.952075447695115" lon="13.339922231903609"><ele>46.0</ele><time>2026-04-06T06:07:41Z</time></trkpt><trkpt lat="45.95227798653549" lon="13.339779923373532"><ele>46.0</ele><time>2026-04-06T06:07:42Z</time></trkpt><trkpt lat="45.95248210540667" lon="13.339638308620502"><ele>46.5</ele><time>2026-04-06T06:07:43Z</time></trkpt><trkpt lat="45.952688127885715" lon="13.339495773684755"><ele>47.0</ele><time>2026-04-06T06:07:44Z</time></trkpt><trkpt lat="45.952896895764184" lon="13.339351093914983"><ele>47.0</ele><time>2026-04-06T06:07:45Z</time></trkpt><trkpt lat="45.9531070576503" lon="13.339206027362508"><ele>47.0</ele><time>2026-04-06T06:07:46Z</time></trkpt><trkpt lat="45.95331812239165" lon="13.339057274331413"><ele>47.0</ele><time>2026-04-06T06:07:47Z</time></trkpt><trkpt lat="45.95353045759437" lon="13.338906713271141"><ele>47.0</ele><time>2026-04-06T06:07:48Z</time></trkpt><trkpt lat="45.953744629930334" lon="13.338757813285396"><ele>47.0</ele><time>2026-04-06T06:07:49Z</time></trkpt><trkpt lat="45.95396119610726" lon="13.338608269003412"><ele>47.0</ele><time>2026-04-06T06:07:50Z</time></trkpt><trkpt lat="45.954178275870994" lon="13.338456837497501"><ele>46.0</ele><time>2026-04-06T06:07:51Z</time></trkpt><trkpt lat="45.95440470639978" lon="13.338325751589249"><ele>45.0</ele><time>2026-04-06T06:07:52Z</time></trkpt><trkpt lat="45.95462599799845" lon="13.338171982221656"><ele>45.5</ele><time>2026-04-06T06:07:53Z</time></trkpt><trkpt lat="45.95484854825874" lon="13.338017338247857"><ele>46.0</ele><time>2026-04-06T06:07:54Z</time></trkpt><trkpt lat="45.95507222198568" lon="13.337861913606826"><ele>46.5</ele><time>2026-04-06T06:07:55Z</time></trkpt><trkpt lat="45.95529721190006" lon="13.337705150089334"><ele>47.0</ele><time>2026-04-06T06:07:56Z</time></trkpt><trkpt lat="45.955523932291435" lon="13.337547114678104"><ele>47.0</ele><time>2026-04-06T06:07:57Z</time></trkpt><trkpt lat="45.95575266185675" lon="13.337388531292289"><ele>47.0</ele><time>2026-04-06T06:07:58Z</time></trkpt><trkpt lat="45.95598262784948" lon="13.337228695673495"><ele>47.0</ele><time>2026-04-06T06:07:59Z</time></trkpt><trkpt lat="45.95620792500073" lon="13.337047964680975"><ele>47.0</ele><time>2026-04-06T06:08:00Z</time></trkpt><trkpt lat="45.95644268637484" lon="13.33688637243189"><ele>47.0</ele><time>2026-04-06T06:08:01Z</time></trkpt><trkpt lat="45.95667922391479" lon="13.336725082552679"><ele>47.0</ele><time>2026-04-06T06:08:02Z</time></trkpt><trkpt lat="45.95691729933854" lon="13.336562219610583"><ele>47.5</ele><time>2026-04-06T06:08:03Z</time></trkpt><trkpt lat="45.957153505069144" lon="13.336398946144381"><ele>48.0</ele><time>2026-04-06T06:08:04Z</time></trkpt><trkpt lat="45.957388090184864" lon="13.336239955669063"><ele>47.5</ele><time>2026-04-06T06:08:05Z</time></trkpt><trkpt lat="45.95762003244502" lon="13.336085450303758"><ele>47.0</ele><time>2026-04-06T06:08:06Z</time></trkpt><trkpt lat="45.95785039918018" lon="13.335936745257651"><ele>47.0</ele><time>2026-04-06T06:08:07Z</time></trkpt><trkpt lat="45.958083957757566" lon="13.335819280266081"><ele>47.0</ele><time>2026-04-06T06:08:08Z</time></trkpt><trkpt lat="45.95830949782034" lon="13.33568880530036"><ele>46.0</ele><time>2026-04-06T06:08:09Z</time></trkpt><trkpt lat="45.958534699138276" lon="13.335591791556029"><ele>45.0</ele><time>2026-04-06T06:08:10Z</time></trkpt><trkpt lat="45.9587641592947" lon="13.335521052740887"><ele>45.0</ele><time>2026-04-06T06:08:11Z</time></trkpt><trkpt lat="45.95899671854999" lon="13.335452905117878"><ele>45.0</ele><time>2026-04-06T06:08:12Z</time></trkpt><trkpt lat="45.95922683756037" lon="13.335385614830427"><ele>45.5</ele><time>2026-04-06T06:08:13Z</time></trkpt><trkpt lat="45.95945885995876" lon="13.335317767960548"><ele>46.0</ele><time>2026-04-06T06:08:14Z</time></trkpt><trkpt lat="45.959686381951954" lon="13.335227069192376"><ele>46.0</ele><time>2026-04-06T06:08:15Z</time></trkpt><trkpt lat="45.959916737147495" lon="13.33515962642925"><ele>46.0</ele><time>2026-04-06T06:08:16Z</time></trkpt><trkpt lat="45.96014503162246" lon="13.335093201380326"><ele>47.5</ele><time>2026-04-06T06:08:17Z</time></trkpt><trkpt lat="45.96037394622152" lon="13.335028111176513"><ele>49.0</ele><time>2026-04-06T06:08:18Z</time></trkpt><trkpt lat="45.960603333601945" lon="13.334962551703187"><ele>49.0</ele><time>2026-04-06T06:08:19Z</time></trkpt><trkpt lat="45.96083272307066" lon="13.334894458000408"><ele>49.0</ele><time>2026-04-06T06:08:20Z</time></trkpt><trkpt lat="45.961062237066315" lon="13.334822633883832"><ele>48.5</ele><time>2026-04-06T06:08:21.001Z</time></trkpt><trkpt lat="45.96129549320742" lon="13.334758019058034"><ele>48.0</ele><time>2026-04-06T06:08:22.001Z</time></trkpt><trkpt lat="45.961523571548476" lon="13.334645283120922"><ele>47.5</ele><time>2026-04-06T06:08:23.001Z</time></trkpt><trkpt lat="45.96174628837208" lon="13.334510319243142"><ele>47.0</ele><time>2026-04-06T06:08:24.001Z</time></trkpt><trkpt lat="45.9619710446581" lon="13.334371200497136"><ele>47.0</ele><time>2026-04-06T06:08:25.001Z</time></trkpt><trkpt lat="45.962197522242164" lon="13.334228811365596"><ele>47.0</ele><time>2026-04-06T06:08:26.001Z</time></trkpt><trkpt lat="45.962424971461694" lon="13.33408332886291"><ele>48.0</ele><time>2026-04-06T06:08:27.001Z</time></trkpt><trkpt lat="45.96265194181193" lon="13.333940318676396"><ele>49.0</ele><time>2026-04-06T06:08:28.001Z</time></trkpt><trkpt lat="45.96287232975383" lon="13.333775107566334"><ele>49.0</ele><time>2026-04-06T06:08:29.001Z</time></trkpt><trkpt lat="45.96309840863509" lon="13.333632365082494"><ele>49.0</ele><time>2026-04-06T06:08:30.001Z</time></trkpt><trkpt lat="45.963320675190616" lon="13.333493710898157"><ele>49.0</ele><time>2026-04-06T06:08:31.001Z</time></trkpt><trkpt lat="45.963542513233904" lon="13.333357883111734"><ele>49.0</ele><time>2026-04-06T06:08:32Z</time></trkpt><trkpt lat="45.9637646123733" lon="13.333220911140497"><ele>49.0</ele><time>2026-04-06T06:08:33Z</time></trkpt><trkpt lat="45.963987049034756" lon="13.333081247574167"><ele>49.0</ele><time>2026-04-06T06:08:34Z</time></trkpt><trkpt lat="45.9642101031835" lon="13.33294103923507"><ele>50.5</ele><time>2026-04-06T06:08:35Z</time></trkpt><trkpt lat="45.96443276525272" lon="13.332801958921522"><ele>52.0</ele><time>2026-04-06T06:08:36Z</time></trkpt><trkpt lat="45.96465442534526" lon="13.33265940177397"><ele>52.0</ele><time>2026-04-06T06:08:37Z</time></trkpt><trkpt lat="45.96487557033621" lon="13.332516709741776"><ele>52.0</ele><time>2026-04-06T06:08:38Z</time></trkpt><trkpt lat="45.96509654643716" lon="13.33237463290057"><ele>51.5</ele><time>2026-04-06T06:08:39Z</time></trkpt><trkpt lat="45.965317770218554" lon="13.33223349379597"><ele>51.0</ele><time>2026-04-06T06:08:40Z</time></trkpt><trkpt lat="45.965540371347096" lon="13.332096416472286"><ele>51.0</ele><time>2026-04-06T06:08:41Z</time></trkpt><trkpt lat="45.96576792360666" lon="13.33197107449957"><ele>51.0</ele><time>2026-04-06T06:08:42Z</time></trkpt><trkpt lat="45.966001069294215" lon="13.331864111430587"><ele>51.0</ele><time>2026-04-06T06:08:43Z</time></trkpt><trkpt lat="45.966238817908554" lon="13.331780313320444"><ele>51.0</ele><time>2026-04-06T06:08:44Z</time></trkpt><trkpt lat="45.966479862258836" lon="13.331713921576442"><ele>51.5</ele><time>2026-04-06T06:08:45Z</time></trkpt><trkpt lat="45.96672092906372" lon="13.331651725296691"><ele>52.0</ele><time>2026-04-06T06:08:46Z</time></trkpt><trkpt lat="45.966962625792426" lon="13.331587391250723"><ele>52.0</ele><time>2026-04-06T06:08:47Z</time></trkpt><trkpt lat="45.96720550909595" lon="13.331526832328816"><ele>52.0</ele><time>2026-04-06T06:08:48Z</time></trkpt><trkpt lat="45.96745012707588" lon="13.331463373439867"><ele>52.0</ele><time>2026-04-06T06:08:49Z</time></trkpt><trkpt lat="45.96769508996707" lon="13.331398500962663"><ele>52.0</ele><time>2026-04-06T06:08:50Z</time></trkpt><trkpt lat="45.96794071010683" lon="13.331334723495637"><ele>52.5</ele><time>2026-04-06T06:08:51Z</time></trkpt><trkpt lat="45.968185360340705" lon="13.33127076847155"><ele>53.0</ele><time>2026-04-06T06:08:52Z</time></trkpt><trkpt lat="45.96843129270185" lon="13.331208090015854"><ele>53.0</ele><time>2026-04-06T06:08:53Z</time></trkpt><trkpt lat="45.968677101190934" lon="13.331145417893245"><ele>53.0</ele><time>2026-04-06T06:08:54Z</time></trkpt><trkpt lat="45.96892332003828" lon="13.331080739931329"><ele>53.0</ele><time>2026-04-06T06:08:55Z</time></trkpt><trkpt lat="45.96916883403896" lon="13.331014692410298"><ele>53.0</ele><time>2026-04-06T06:08:56Z</time></trkpt><trkpt lat="45.96941640143957" lon="13.330951205514332"><ele>53.0</ele><time>2026-04-06T06:08:57Z</time></trkpt><trkpt lat="45.96966407383831" lon="13.33088989662465"><ele>53.0</ele><time>2026-04-06T06:08:58Z</time></trkpt><trkpt lat="45.96991176521265" lon="13.330827491791716"><ele>53.5</ele><time>2026-04-06T06:08:59Z</time></trkpt><trkpt lat="45.97015933781097" lon="13.330761159126535"><ele>54.0</ele><time>2026-04-06T06:09:00Z</time></trkpt><trkpt lat="45.970405857500026" lon="13.330695140714177"><ele>54.0</ele><time>2026-04-06T06:09:01Z</time></trkpt><trkpt lat="45.970648999193386" lon="13.33063236139922"><ele>54.0</ele><time>2026-04-06T06:09:02Z</time></trkpt><trkpt lat="45.970886741582795" lon="13.330571548476339"><ele>54.33333333333333</ele><time>2026-04-06T06:09:03Z</time></trkpt><trkpt lat="45.97111083751404" lon="13.330512364029051"><ele>54.666666666666664</ele><time>2026-04-06T06:09:04Z</time></trkpt><trkpt lat="45.9713190590505" lon="13.330466482998546"><ele>55.0</ele><time>2026-04-06T06:09:05Z</time></trkpt><trkpt lat="45.97151320456521" lon="13.330389635238074"><ele>55.33333333333333</ele><time>2026-04-06T06:09:06Z</time></trkpt><trkpt lat="45.97169279552351" lon="13.330263511646674"><ele>55.66666666666667</ele><time>2026-04-06T06:09:07Z</time></trkpt><trkpt lat="45.971872500056534" lon="13.330149133998447"><ele>56.0</ele><time>2026-04-06T06:09:08Z</time></trkpt><trkpt lat="45.97205174793459" lon="13.330030776204444"><ele>56.0</ele><time>2026-04-06T06:09:09Z</time></trkpt><trkpt lat="45.97222618327796" lon="13.329913851875574"><ele>56.0</ele><time>2026-04-06T06:09:10Z</time></trkpt><trkpt lat="45.97240508384053" lon="13.329792600090292"><ele>56.0</ele><time>2026-04-06T06:09:11Z</time></trkpt><trkpt lat="45.972590220158516" lon="13.32966624915986"><ele>55.333333333333336</ele><time>2026-04-06T06:09:12Z</time></trkpt><trkpt lat="45.97277954881173" lon="13.329542447825865"><ele>54.66666666666667</ele><time>2026-04-06T06:09:13Z</time></trkpt><trkpt lat="45.97296935051075" lon="13.329416164437227"><ele>54.0</ele><time>2026-04-06T06:09:14Z</time></trkpt><trkpt lat="45.97315822056871" lon="13.32928647247487"><ele>54.0</ele><time>2026-04-06T06:09:15Z</time></trkpt><trkpt lat="45.97334524588064" lon="13.329156609984533"><ele>54.0</ele><time>2026-04-06T06:09:16Z</time></trkpt><trkpt lat="45.9735299178601" lon="13.329030036638752"><ele>54.0</ele><time>2026-04-06T06:09:17Z</time></trkpt><trkpt lat="45.97371046828276" lon="13.328908432522233"><ele>54.66666666666667</ele><time>2026-04-06T06:09:18Z</time></trkpt><trkpt lat="45.97388567835386" lon="13.3287891123118"><ele>55.333333333333336</ele><time>2026-04-06T06:09:19Z</time></trkpt><trkpt lat="45.974055426177856" lon="13.328674432151324"><ele>56.0</ele><time>2026-04-06T06:09:20Z</time></trkpt><trkpt lat="45.97422010558765" lon="13.32856489138084"><ele>56.333333333333336</ele><time>2026-04-06T06:09:21Z</time></trkpt><trkpt lat="45.97437892881757" lon="13.328453022258907"><ele>56.66666666666667</ele><time>2026-04-06T06:09:22Z</time></trkpt><trkpt lat="45.97454370335692" lon="13.328367456728083"><ele>57.0</ele><time>2026-04-06T06:09:23Z</time></trkpt><trkpt lat="45.97467905742208" lon="13.328252697770717"><ele>57.0</ele><time>2026-04-06T06:09:24Z</time></trkpt><trkpt lat="45.97482272534278" lon="13.328155647448222"><ele>57.0</ele><time>2026-04-06T06:09:25Z</time></trkpt><trkpt lat="45.97496887837384" lon="13.328054210851555"><ele>57.0</ele><time>2026-04-06T06:09:26Z</time></trkpt><trkpt lat="45.975115284439106" lon="13.327962569325114"><ele>57.75</ele><time>2026-04-06T06:09:27Z</time></trkpt><trkpt lat="45.97525534497752" lon="13.327892645576958"><ele>58.5</ele><time>2026-04-06T06:09:28Z</time></trkpt><trkpt lat="45.975386983856026" lon="13.327843429964165"><ele>59.25</ele><time>2026-04-06T06:09:29Z</time></trkpt><trkpt lat="45.97546727051079" lon="13.327701472174693"><ele>60.0</ele><time>2026-04-06T06:09:30Z</time></trkpt><trkpt lat="45.97561078339175" lon="13.327826736105397"><ele>60.0</ele><time>2026-04-06T06:09:31Z</time></trkpt><trkpt lat="45.97569538786293" lon="13.327851665989739"><ele>60.0</ele><time>2026-04-06T06:09:32Z</time></trkpt><trkpt lat="45.97577015017577" lon="13.32787818243525"><ele>60.0</ele><time>2026-04-06T06:09:33Z</time></trkpt><trkpt lat="45.97584204425911" lon="13.327874382602806"><ele>60.0</ele><time>2026-04-06T06:09:34Z</time></trkpt><trkpt lat="45.97589759787375" lon="13.327921331269591"><ele>60.0</ele><time>2026-04-06T06:09:35Z</time></trkpt><trkpt lat="45.97598849106608" lon="13.327702311886831"><ele>59.8</ele><time>2026-04-06T06:09:37Z</time></trkpt><trkpt lat="45.97592663784478" lon="13.327567239784505"><ele>59.6</ele><time>2026-04-06T06:09:38Z</time></trkpt><trkpt lat="45.97589754011574" lon="13.327445397187013"><ele>59.400000000000006</ele><time>2026-04-06T06:09:39Z</time></trkpt><trkpt lat="45.975868662420055" lon="13.327294276859806"><ele>59.2</ele><time>2026-04-06T06:09:40Z</time></trkpt><trkpt lat="45.97583221280041" lon="13.327125274861016"><ele>59.0</ele><time>2026-04-06T06:09:41Z</time></trkpt><trkpt lat="45.97578033931598" lon="13.326934487917237"><ele>59.0</ele><time>2026-04-06T06:09:42Z</time></trkpt><trkpt lat="45.97572333756106" lon="13.326727486012116"><ele>59.0</ele><time>2026-04-06T06:09:43Z</time></trkpt><trkpt lat="45.97566112554583" lon="13.326511263901356"><ele>59.0</ele><time>2026-04-06T06:09:44Z</time></trkpt><trkpt lat="45.975598704761815" lon="13.326290825286934"><ele>58.333333333333336</ele><time>2026-04-06T06:09:45Z</time></trkpt><trkpt lat="45.975535266743776" lon="13.326069163291619"><ele>57.66666666666667</ele><time>2026-04-06T06:09:46Z</time></trkpt><trkpt lat="45.97547113071955" lon="13.32584860544035"><ele>57.0</ele><time>2026-04-06T06:09:47Z</time></trkpt><trkpt lat="45.97541305663811" lon="13.325627320787813"><ele>57.0</ele><time>2026-04-06T06:09:48Z</time></trkpt><trkpt lat="45.975360943592385" lon="13.325407739328227"><ele>57.0</ele><time>2026-04-06T06:09:49Z</time></trkpt><trkpt lat="45.97530359905169" lon="13.325194072964239"><ele>57.0</ele><time>2026-04-06T06:09:50Z</time></trkpt><trkpt lat="45.97524254780322" lon="13.324981347125846"><ele>57.0</ele><time>2026-04-06T06:09:51Z</time></trkpt><trkpt lat="45.97518358929586" lon="13.324771721759221"><ele>57.0</ele><time>2026-04-06T06:09:52Z</time></trkpt><trkpt lat="45.97512661325183" lon="13.324578444694772"><ele>57.0</ele><time>2026-04-06T06:09:53Z</time></trkpt><trkpt lat="45.97506840210086" lon="13.324389437201102"><ele>57.0</ele><time>2026-04-06T06:09:54Z</time></trkpt><trkpt lat="45.97501048152026" lon="13.32420445744365"><ele>57.25</ele><time>2026-04-06T06:09:55Z</time></trkpt><trkpt lat="45.97495531873073" lon="13.324018184878113"><ele>57.5</ele><time>2026-04-06T06:09:56Z</time></trkpt><trkpt lat="45.97490079505118" lon="13.32383227212611"><ele>57.75</ele><time>2026-04-06T06:09:57Z</time></trkpt><trkpt lat="45.97484226432726" lon="13.323646617895994"><ele>58.0</ele><time>2026-04-06T06:09:58Z</time></trkpt><trkpt lat="45.97477945913623" lon="13.323458824193501"><ele>58.0</ele><time>2026-04-06T06:09:59Z</time></trkpt><trkpt lat="45.97472202416152" lon="13.323269627015211"><ele>58.0</ele><time>2026-04-06T06:10:00Z</time></trkpt><trkpt lat="45.974668404101905" lon="13.32308051502461"><ele>58.0</ele><time>2026-04-06T06:10:00.999Z</time></trkpt><trkpt lat="45.97461613667794" lon="13.322892316263824"><ele>58.0</ele><time>2026-04-06T06:10:01.999Z</time></trkpt><trkpt lat="45.974562000712716" lon="13.322705496470805"><ele>58.0</ele><time>2026-04-06T06:10:02.999Z</time></trkpt><trkpt lat="45.97451803728669" lon="13.32251829533664"><ele>58.0</ele><time>2026-04-06T06:10:03.999Z</time></trkpt><trkpt lat="45.974488514398175" lon="13.322320833071842"><ele>58.0</ele><time>2026-04-06T06:10:04.999Z</time></trkpt><trkpt lat="45.974485021481115" lon="13.322119660855902"><ele>58.0</ele><time>2026-04-06T06:10:05.999Z</time></trkpt><trkpt lat="45.974496592395546" lon="13.321917384861957"><ele>58.0</ele><time>2026-04-06T06:10:06.999Z</time></trkpt><trkpt lat="45.97452281096403" lon="13.321712896999191"><ele>58.0</ele><time>2026-04-06T06:10:07.999Z</time></trkpt><trkpt lat="45.97455041487136" lon="13.321512333997262"><ele>58.0</ele><time>2026-04-06T06:10:08.999Z</time></trkpt><trkpt lat="45.97458840708939" lon="13.32132760853669"><ele>58.0</ele><time>2026-04-06T06:10:09.999Z</time></trkpt><trkpt lat="45.97464742197075" lon="13.321181974157613"><ele>58.25</ele><time>2026-04-06T06:10:10.999Z</time></trkpt><trkpt lat="45.97471753393852" lon="13.321074033372971"><ele>58.5</ele><time>2026-04-06T06:10:11.999Z</time></trkpt><trkpt lat="45.97480154721827" lon="13.320993384352134"><ele>58.75</ele><time>2026-04-06T06:10:12.999Z</time></trkpt><trkpt lat="45.97490550227778" lon="13.32091481693736"><ele>59.0</ele><time>2026-04-06T06:10:13.999Z</time></trkpt><trkpt lat="45.975029568534175" lon="13.320847585547371"><ele>59.0</ele><time>2026-04-06T06:10:14.999Z</time></trkpt><trkpt lat="45.97516776464816" lon="13.320780802530397"><ele>59.0</ele><time>2026-04-06T06:10:15.999Z</time></trkpt><trkpt lat="45.975319653291564" lon="13.320700296985233"><ele>59.0</ele><time>2026-04-06T06:10:16.999Z</time></trkpt><trkpt lat="45.97548316303547" lon="13.320615812877474"><ele>58.66666666666667</ele><time>2026-04-06T06:10:17.999Z</time></trkpt><trkpt lat="45.975658762107436" lon="13.320527364893454"><ele>58.33333333333333</ele><time>2026-04-06T06:10:18.999Z</time></trkpt><trkpt lat="45.97584388829062" lon="13.32042674342853"><ele>58.0</ele><time>2026-04-06T06:10:19.999Z</time></trkpt><trkpt lat="45.976035228167405" lon="13.32032772802839"><ele>57.666666666666664</ele><time>2026-04-06T06:10:20.999Z</time></trkpt><trkpt lat="45.97622558946279" lon="13.320245688322816"><ele>57.33333333333333</ele><time>2026-04-06T06:10:21.999Z</time></trkpt><trkpt lat="45.97638788353868" lon="13.32011717355083"><ele>57.0</ele><time>2026-04-06T06:10:22.999Z</time></trkpt><trkpt lat="45.97654768027414" lon="13.320010333264626"><ele>57.33333333333333</ele><time>2026-04-06T06:10:23.999Z</time></trkpt><trkpt lat="45.976707070505086" lon="13.319926430009959"><ele>57.666666666666664</ele><time>2026-04-06T06:10:24.999Z</time></trkpt><trkpt lat="45.976863983621946" lon="13.319819420908036"><ele>58.0</ele><time>2026-04-06T06:10:25.999Z</time></trkpt><trkpt lat="45.97703105426744" lon="13.31970329423465"><ele>58.0</ele><time>2026-04-06T06:10:27Z</time></trkpt><trkpt lat="45.977196845342384" lon="13.319557236523888"><ele>58.0</ele><time>2026-04-06T06:10:28Z</time></trkpt><trkpt lat="45.97738247206033" lon="13.319434899145827"><ele>58.0</ele><time>2026-04-06T06:10:29Z</time></trkpt><trkpt lat="45.97756740789083" lon="13.319279317540344"><ele>58.33333333333333</ele><time>2026-04-06T06:10:30Z</time></trkpt><trkpt lat="45.97775448825453" lon="13.319115776577009"><ele>58.66666666666667</ele><time>2026-04-06T06:10:31Z</time></trkpt><trkpt lat="45.97794755544738" lon="13.318936770451913"><ele>59.0</ele><time>2026-04-06T06:10:32Z</time></trkpt><trkpt lat="45.978141198329524" lon="13.31874302902693"><ele>59.0</ele><time>2026-04-06T06:10:33Z</time></trkpt><trkpt lat="45.97833347094169" lon="13.318539839532868"><ele>59.0</ele><time>2026-04-06T06:10:34Z</time></trkpt><trkpt lat="45.978518937694595" lon="13.318343842364197"><ele>58.66666666666667</ele><time>2026-04-06T06:10:35Z</time></trkpt><trkpt lat="45.97869583174867" lon="13.318145164572307"><ele>58.33333333333333</ele><time>2026-04-06T06:10:36Z</time></trkpt><trkpt lat="45.97888902980751" lon="13.317997365953122"><ele>58.0</ele><time>2026-04-06T06:10:37Z</time></trkpt><trkpt lat="45.979086305906556" lon="13.317880829151365"><ele>58.33333333333333</ele><time>2026-04-06T06:10:38Z</time></trkpt><trkpt lat="45.979289421910536" lon="13.317810178985564"><ele>58.66666666666667</ele><time>2026-04-06T06:10:39Z</time></trkpt><trkpt lat="45.97948906008894" lon="13.317700990771796"><ele>59.0</ele><time>2026-04-06T06:10:40Z</time></trkpt><trkpt lat="45.97969640924754" lon="13.31755419769489"><ele>59.0</ele><time>2026-04-06T06:10:41Z</time></trkpt><trkpt lat="45.979917195166436" lon="13.317385027607672"><ele>59.0</ele><time>2026-04-06T06:10:42Z</time></trkpt><trkpt lat="45.98015476683038" lon="13.31719746973066"><ele>59.0</ele><time>2026-04-06T06:10:43Z</time></trkpt><trkpt lat="45.980402284749175" lon="13.317001846179815"><ele>59.0</ele><time>2026-04-06T06:10:44Z</time></trkpt><trkpt lat="45.980656619268366" lon="13.316786452972796"><ele>59.0</ele><time>2026-04-06T06:10:45Z</time></trkpt><trkpt lat="45.980897358737685" lon="13.316542021856398"><ele>59.0</ele><time>2026-04-06T06:10:46Z</time></trkpt><trkpt lat="45.981153486514195" lon="13.316332258440674"><ele>59.0</ele><time>2026-04-06T06:10:47Z</time></trkpt><trkpt lat="45.98142351613464" lon="13.31616938326001"><ele>59.0</ele><time>2026-04-06T06:10:48Z</time></trkpt><trkpt lat="45.981679866991804" lon="13.315979144901164"><ele>59.0</ele><time>2026-04-06T06:10:49Z</time></trkpt><trkpt lat="45.98193734440134" lon="13.315806570671322"><ele>59.0</ele><time>2026-04-06T06:10:50Z</time></trkpt><trkpt lat="45.982188297636384" lon="13.315633002875806"><ele>59.0</ele><time>2026-04-06T06:10:51Z</time></trkpt><trkpt lat="45.98243227448984" lon="13.315459073866156"><ele>59.0</ele><time>2026-04-06T06:10:52Z</time></trkpt><trkpt lat="45.982669324687734" lon="13.315283725103404"><ele>59.0</ele><time>2026-04-06T06:10:53Z</time></trkpt><trkpt lat="45.982897294263104" lon="13.31510819644683"><ele>59.0</ele><time>2026-04-06T06:10:54Z</time></trkpt><trkpt lat="45.98311677806972" lon="13.314937229115522"><ele>59.0</ele><time>2026-04-06T06:10:55Z</time></trkpt><trkpt lat="45.98332829093547" lon="13.31476691419594"><ele>59.0</ele><time>2026-04-06T06:10:56Z</time></trkpt><trkpt lat="45.983528432423135" lon="13.314595325311487"><ele>60.0</ele><time>2026-04-06T06:10:57Z</time></trkpt><trkpt lat="45.98371935761782" lon="13.314402793528897"><ele>61.0</ele><time>2026-04-06T06:10:58Z</time></trkpt><trkpt lat="45.98389713205763" lon="13.314175632349983"><ele>61.0</ele><time>2026-04-06T06:10:59Z</time></trkpt><trkpt lat="45.98406497230875" lon="13.313923630345293"><ele>61.0</ele><time>2026-04-06T06:11:00Z</time></trkpt><trkpt lat="45.98423659603559" lon="13.313672789889068"><ele>60.5</ele><time>2026-04-06T06:11:01Z</time></trkpt><trkpt lat="45.984425965017294" lon="13.31344612903413"><ele>60.0</ele><time>2026-04-06T06:11:02Z</time></trkpt><trkpt lat="45.98462863559417" lon="13.313242299481029"><ele>60.0</ele><time>2026-04-06T06:11:03Z</time></trkpt><trkpt lat="45.9848484272573" lon="13.31307360400397"><ele>60.0</ele><time>2026-04-06T06:11:04Z</time></trkpt><trkpt lat="45.98507812356534" lon="13.312923825115396"><ele>61.0</ele><time>2026-04-06T06:11:05Z</time></trkpt><trkpt lat="45.9853189136912" lon="13.312793986102687"><ele>62.0</ele><time>2026-04-06T06:11:06Z</time></trkpt><trkpt lat="45.98556037880404" lon="13.312663472760425"><ele>62.0</ele><time>2026-04-06T06:11:07Z</time></trkpt><trkpt lat="45.98580053073527" lon="13.312516922710103"><ele>62.0</ele><time>2026-04-06T06:11:08Z</time></trkpt><trkpt lat="45.986033905429004" lon="13.312339432928118"><ele>61.5</ele><time>2026-04-06T06:11:09Z</time></trkpt><trkpt lat="45.9862612585843" lon="13.312139219114025"><ele>61.0</ele><time>2026-04-06T06:11:10Z</time></trkpt><trkpt lat="45.98649585514545" lon="13.31194931383275"><ele>62.0</ele><time>2026-04-06T06:11:11Z</time></trkpt><trkpt lat="45.98671456849827" lon="13.311716757127568"><ele>63.0</ele><time>2026-04-06T06:11:12Z</time></trkpt><trkpt lat="45.986943240407285" lon="13.311506413137199"><ele>63.5</ele><time>2026-04-06T06:11:13Z</time></trkpt><trkpt lat="45.987169539066024" lon="13.311295097566363"><ele>64.0</ele><time>2026-04-06T06:11:14Z</time></trkpt><trkpt lat="45.987392543283285" lon="13.311081076417075"><ele>64.0</ele><time>2026-04-06T06:11:15Z</time></trkpt><trkpt lat="45.987612439942964" lon="13.310870826756451"><ele>64.0</ele><time>2026-04-06T06:11:16Z</time></trkpt><trkpt lat="45.98782889985883" lon="13.310659355391453"><ele>62.5</ele><time>2026-04-06T06:11:17Z</time></trkpt><trkpt lat="45.98804238733581" lon="13.310452460314995"><ele>61.0</ele><time>2026-04-06T06:11:18Z</time></trkpt><trkpt lat="45.98825677982663" lon="13.310256071110901"><ele>63.0</ele><time>2026-04-06T06:11:19Z</time></trkpt><trkpt lat="45.98847374113075" lon="13.310066277040384"><ele>65.0</ele><time>2026-04-06T06:11:20Z</time></trkpt><trkpt lat="45.98869125305082" lon="13.30988492025599"><ele>63.5</ele><time>2026-04-06T06:11:21Z</time></trkpt><trkpt lat="45.98890617440597" lon="13.309705531903724"><ele>62.0</ele><time>2026-04-06T06:11:22Z</time></trkpt><trkpt lat="45.98911631245884" lon="13.309527066610968"><ele>62.0</ele><time>2026-04-06T06:11:23Z</time></trkpt><trkpt lat="45.98932335894378" lon="13.309347115323426"><ele>62.0</ele><time>2026-04-06T06:11:24Z</time></trkpt><trkpt lat="45.98952795384968" lon="13.309167078366125"><ele>62.0</ele><time>2026-04-06T06:11:25Z</time></trkpt><trkpt lat="45.98973255539786" lon="13.308993855536587"><ele>62.0</ele><time>2026-04-06T06:11:26Z</time></trkpt><trkpt lat="45.989937106995306" lon="13.308827522602874"><ele>62.0</ele><time>2026-04-06T06:11:27Z</time></trkpt><trkpt lat="45.990140589480205" lon="13.308664414098565"><ele>62.0</ele><time>2026-04-06T06:11:28Z</time></trkpt><trkpt lat="45.99033996813556" lon="13.308505711230996"><ele>62.0</ele><time>2026-04-06T06:11:29Z</time></trkpt><trkpt lat="45.99053404118555" lon="13.308348304881655"><ele>62.0</ele><time>2026-04-06T06:11:30Z</time></trkpt><trkpt lat="45.99072361038538" lon="13.308182205400154"><ele>62.0</ele><time>2026-04-06T06:11:31Z</time></trkpt><trkpt lat="45.9909216180859" lon="13.308030348252652"><ele>62.66666666666667</ele><time>2026-04-06T06:11:32Z</time></trkpt><trkpt lat="45.991105353379766" lon="13.307849718653454"><ele>63.33333333333333</ele><time>2026-04-06T06:11:33Z</time></trkpt><trkpt lat="45.99128179679174" lon="13.30767737185617"><ele>64.0</ele><time>2026-04-06T06:11:34Z</time></trkpt><trkpt lat="45.99145472752557" lon="13.30752023493682"><ele>64.0</ele><time>2026-04-06T06:11:35Z</time></trkpt><trkpt lat="45.99161882043792" lon="13.30737611393245"><ele>64.0</ele><time>2026-04-06T06:11:36Z</time></trkpt><trkpt lat="45.99179699511036" lon="13.30728743086034"><ele>64.0</ele><time>2026-04-06T06:11:37Z</time></trkpt><trkpt lat="45.99198663631115" lon="13.307275844105957"><ele>64.66666666666666</ele><time>2026-04-06T06:11:38Z</time></trkpt><trkpt lat="45.99218350612275" lon="13.307260221681357"><ele>65.33333333333333</ele><time>2026-04-06T06:11:39Z</time></trkpt><trkpt lat="45.9923700398329" lon="13.307278049300766"><ele>66.0</ele><time>2026-04-06T06:11:40Z</time></trkpt><trkpt lat="45.99253599816711" lon="13.307285265528732"><ele>66.0</ele><time>2026-04-06T06:11:41Z</time></trkpt><trkpt lat="45.99268946138611" lon="13.307285770372916"><ele>66.0</ele><time>2026-04-06T06:11:42Z</time></trkpt><trkpt lat="45.9928281248112" lon="13.307269208414027"><ele>66.0</ele><time>2026-04-06T06:11:43Z</time></trkpt><trkpt lat="45.992969380916314" lon="13.307256093240898"><ele>66.0</ele><time>2026-04-06T06:11:44Z</time></trkpt><trkpt lat="45.99310443167175" lon="13.30710228613915"><ele>66.33333333333333</ele><time>2026-04-06T06:11:45Z</time></trkpt><trkpt lat="45.99323954464372" lon="13.30695015875815"><ele>66.66666666666666</ele><time>2026-04-06T06:11:46Z</time></trkpt><trkpt lat="45.9933863029801" lon="13.306777518502495"><ele>67.0</ele><time>2026-04-06T06:11:47Z</time></trkpt><trkpt lat="45.993539065503235" lon="13.30661015850642"><ele>67.0</ele><time>2026-04-06T06:11:48Z</time></trkpt><trkpt lat="45.99369363217579" lon="13.306466417895942"><ele>67.0</ele><time>2026-04-06T06:11:49Z</time></trkpt><trkpt lat="45.993870289175554" lon="13.306355393462002"><ele>67.0</ele><time>2026-04-06T06:11:49.999Z</time></trkpt><trkpt lat="45.994065593203466" lon="13.30626012527071"><ele>67.0</ele><time>2026-04-06T06:11:50.999Z</time></trkpt><trkpt lat="45.994265873424446" lon="13.306132816698462"><ele>67.0</ele><time>2026-04-06T06:11:51.999Z</time></trkpt><trkpt lat="45.994452905035835" lon="13.305990104958974"><ele>67.0</ele><time>2026-04-06T06:11:52.999Z</time></trkpt><trkpt lat="45.994612021662746" lon="13.305853175541023"><ele>67.0</ele><time>2026-04-06T06:11:53.999Z</time></trkpt><trkpt lat="45.99475087312425" lon="13.305713454951446"><ele>67.0</ele><time>2026-04-06T06:11:54.999Z</time></trkpt><trkpt lat="45.99489713306397" lon="13.305588053688062"><ele>67.0</ele><time>2026-04-06T06:11:55.999Z</time></trkpt><trkpt lat="45.995050921151446" lon="13.305487976550358"><ele>67.0</ele><time>2026-04-06T06:11:56.999Z</time></trkpt><trkpt lat="45.99520836520486" lon="13.305407061940665"><ele>67.0</ele><time>2026-04-06T06:11:57.999Z</time></trkpt><trkpt lat="45.99534722455992" lon="13.305385601613482"><ele>67.0</ele><time>2026-04-06T06:11:58.999Z</time></trkpt><trkpt lat="45.99547037284631" lon="13.305349363200968"><ele>67.0</ele><time>2026-04-06T06:11:59.999Z</time></trkpt><trkpt lat="45.99557615936077" lon="13.305318015917884"><ele>67.0</ele><time>2026-04-06T06:12:00.999Z</time></trkpt><trkpt lat="45.995664260132045" lon="13.305290843071687"><ele>67.0</ele><time>2026-04-06T06:12:01.999Z</time></trkpt><trkpt lat="45.995744416278825" lon="13.305262551656732"><ele>67.0</ele><time>2026-04-06T06:12:02.999Z</time></trkpt><trkpt lat="45.99580991019592" lon="13.30520936130887"><ele>67.0</ele><time>2026-04-06T06:12:03.999Z</time></trkpt><trkpt lat="45.99586316277805" lon="13.305123761040342"><ele>67.0</ele><time>2026-04-06T06:12:04.999Z</time></trkpt><trkpt lat="45.995842727731414" lon="13.304957783837223"><ele>67.0</ele><time>2026-04-06T06:12:05.999Z</time></trkpt><trkpt lat="45.99583014097659" lon="13.304817075044538"><ele>66.75</ele><time>2026-04-06T06:12:06.999Z</time></trkpt><trkpt lat="45.9958255244582" lon="13.304643895837533"><ele>66.5</ele><time>2026-04-06T06:12:07.999Z</time></trkpt><trkpt lat="45.99582571410598" lon="13.304444162358676"><ele>66.25</ele><time>2026-04-06T06:12:08.999Z</time></trkpt><trkpt lat="45.99582017554009" lon="13.304216738423932"><ele>66.0</ele><time>2026-04-06T06:12:09.999Z</time></trkpt><trkpt lat="45.99581601420421" lon="13.30396617883467"><ele>66.0</ele><time>2026-04-06T06:12:10.999Z</time></trkpt><trkpt lat="45.99581900576102" lon="13.303712082971908"><ele>66.0</ele><time>2026-04-06T06:12:11.999Z</time></trkpt><trkpt lat="45.995811700310426" lon="13.303505650076733"><ele>66.0</ele><time>2026-04-06T06:12:12.999Z</time></trkpt><trkpt lat="45.99581107559482" lon="13.30333410075256"><ele>66.0</ele><time>2026-04-06T06:12:13.999Z</time></trkpt><trkpt lat="45.99582718228492" lon="13.303181282085815"><ele>66.6</ele><time>2026-04-06T06:12:14.999Z</time></trkpt><trkpt lat="45.995892219239536" lon="13.303058164512382"><ele>67.19999999999999</ele><time>2026-04-06T06:12:15.999Z</time></trkpt><trkpt lat="45.995951539287134" lon="13.3029334044822"><ele>67.80000000000001</ele><time>2026-04-06T06:12:16.999Z</time></trkpt><trkpt lat="45.996021743838014" lon="13.302822972523478"><ele>68.4</ele><time>2026-04-06T06:12:17.999Z</time></trkpt><trkpt lat="45.99612919708301" lon="13.302750797773436"><ele>69.0</ele><time>2026-04-06T06:12:18.999Z</time></trkpt><trkpt lat="45.99625553218982" lon="13.302714007385552"><ele>69.0</ele><time>2026-04-06T06:12:19.999Z</time></trkpt><trkpt lat="45.996387669392476" lon="13.302705882947642"><ele>69.0</ele><time>2026-04-06T06:12:20.999Z</time></trkpt><trkpt lat="45.99651713341481" lon="13.302757911956308"><ele>69.0</ele><time>2026-04-06T06:12:21.999Z</time></trkpt><trkpt lat="45.99666268489199" lon="13.302787395606313"><ele>69.0</ele><time>2026-04-06T06:12:22.999Z</time></trkpt><trkpt lat="45.996807971473764" lon="13.302890208055864"><ele>68.0</ele><time>2026-04-06T06:12:23.999Z</time></trkpt><trkpt lat="45.99695064178432" lon="13.303031147768603"><ele>67.0</ele><time>2026-04-06T06:12:24.999Z</time></trkpt><trkpt lat="45.99708698767043" lon="13.303175466911386"><ele>66.0</ele><time>2026-04-06T06:12:25.999Z</time></trkpt><trkpt lat="45.99721930282423" lon="13.303257902389717"><ele>66.0</ele><time>2026-04-06T06:12:26.999Z</time></trkpt><trkpt lat="45.997363890712776" lon="13.303304455118765"><ele>66.0</ele><time>2026-04-06T06:12:27.999Z</time></trkpt><trkpt lat="45.997515681444646" lon="13.303329560638026"><ele>66.0</ele><time>2026-04-06T06:12:28.999Z</time></trkpt><trkpt lat="45.99765722930245" lon="13.30334691550313"><ele>66.0</ele><time>2026-04-06T06:12:29.999Z</time></trkpt><trkpt lat="45.997769956610114" lon="13.303355110854998"><ele>66.25</ele><time>2026-04-06T06:12:30.999Z</time></trkpt><trkpt lat="45.99786817571659" lon="13.30336484774778"><ele>66.5</ele><time>2026-04-06T06:12:31.999Z</time></trkpt><trkpt lat="45.997970366582905" lon="13.303304854818025"><ele>66.75</ele><time>2026-04-06T06:12:33Z</time></trkpt><trkpt lat="45.99804175070691" lon="13.30316640514033"><ele>67.0</ele><time>2026-04-06T06:12:34Z</time></trkpt><trkpt lat="45.998074344355764" lon="13.302977429253476"><ele>67.0</ele><time>2026-04-06T06:12:35Z</time></trkpt><trkpt lat="45.99813167139638" lon="13.302769037162532"><ele>67.0</ele><time>2026-04-06T06:12:36Z</time></trkpt><trkpt lat="45.99819033831065" lon="13.302522905967264"><ele>67.0</ele><time>2026-04-06T06:12:37Z</time></trkpt><trkpt lat="45.998252353923284" lon="13.302251045753886"><ele>67.33333333333333</ele><time>2026-04-06T06:12:38Z</time></trkpt><trkpt lat="45.99828572024931" lon="13.301945405666713"><ele>67.66666666666667</ele><time>2026-04-06T06:12:39Z</time></trkpt><trkpt lat="45.99834099373962" lon="13.301634809566725"><ele>68.0</ele><time>2026-04-06T06:12:40Z</time></trkpt><trkpt lat="45.99839386063643" lon="13.301328093345754"><ele>68.33333333333334</ele><time>2026-04-06T06:12:41Z</time></trkpt><trkpt lat="45.998441575442776" lon="13.301049611102714"><ele>68.66666666666667</ele><time>2026-04-06T06:12:42Z</time></trkpt><trkpt lat="45.998515373923084" lon="13.300805665026212"><ele>69.0</ele><time>2026-04-06T06:12:43Z</time></trkpt><trkpt lat="45.998587948925106" lon="13.30057388973359"><ele>68.33333333333333</ele><time>2026-04-06T06:12:44Z</time></trkpt><trkpt lat="45.998687727736275" lon="13.300369380970135"><ele>67.66666666666666</ele><time>2026-04-06T06:12:45Z</time></trkpt><trkpt lat="45.99880186483411" lon="13.30016607798377"><ele>67.0</ele><time>2026-04-06T06:12:46Z</time></trkpt><trkpt lat="45.99891022140885" lon="13.299944446832312"><ele>67.33333333333333</ele><time>2026-04-06T06:12:47Z</time></trkpt><trkpt lat="45.99898939176416" lon="13.29968829226916"><ele>67.66666666666667</ele><time>2026-04-06T06:12:48Z</time></trkpt><trkpt lat="45.99905578837912" lon="13.299402492482903"><ele>68.0</ele><time>2026-04-06T06:12:49Z</time></trkpt><trkpt lat="45.999129822043955" lon="13.299081633255112"><ele>67.5</ele><time>2026-04-06T06:12:50Z</time></trkpt><trkpt lat="45.999210365532456" lon="13.298731406157023"><ele>67.0</ele><time>2026-04-06T06:12:51Z</time></trkpt><trkpt lat="45.99929458027766" lon="13.298354582961556"><ele>66.0</ele><time>2026-04-06T06:12:52Z</time></trkpt><trkpt lat="45.99938313750553" lon="13.29796636325206"><ele>65.0</ele><time>2026-04-06T06:12:53Z</time></trkpt><trkpt lat="45.9994765032235" lon="13.297563721107206"><ele>66.0</ele><time>2026-04-06T06:12:54Z</time></trkpt><trkpt lat="45.999572796676844" lon="13.297148453011864"><ele>67.0</ele><time>2026-04-06T06:12:55Z</time></trkpt><trkpt lat="45.99966549978309" lon="13.29672083123027"><ele>67.0</ele><time>2026-04-06T06:12:56Z</time></trkpt><trkpt lat="45.99975623930918" lon="13.296289808513192"><ele>67.0</ele><time>2026-04-06T06:12:57Z</time></trkpt><trkpt lat="45.999847700130715" lon="13.295854393320804"><ele>66.0</ele><time>2026-04-06T06:12:58Z</time></trkpt><trkpt lat="45.999937964350245" lon="13.295415663312166"><ele>65.0</ele><time>2026-04-06T06:12:59Z</time></trkpt><trkpt lat="46.00002584315378" lon="13.294988527625403"><ele>65.5</ele><time>2026-04-06T06:13:00Z</time></trkpt><trkpt lat="46.00009727070025" lon="13.294563529205696"><ele>66.0</ele><time>2026-04-06T06:13:01Z</time></trkpt><trkpt lat="46.00018230859019" lon="13.294159603337942"><ele>67.0</ele><time>2026-04-06T06:13:02Z</time></trkpt><trkpt lat="46.00025817584223" lon="13.293814220331276"><ele>68.0</ele><time>2026-04-06T06:13:03Z</time></trkpt><trkpt lat="46.000342154562475" lon="13.293507306539054"><ele>68.0</ele><time>2026-04-06T06:13:04Z</time></trkpt><trkpt lat="46.00044769821515" lon="13.29323000761333"><ele>68.0</ele><time>2026-04-06T06:13:05Z</time></trkpt><trkpt lat="46.00058052380554" lon="13.292974606040259"><ele>68.0</ele><time>2026-04-06T06:13:06Z</time></trkpt><trkpt lat="46.00074333454602" lon="13.292733851845076"><ele>67.5</ele><time>2026-04-06T06:13:07Z</time></trkpt><trkpt lat="46.00093177372418" lon="13.292510293894434"><ele>67.0</ele><time>2026-04-06T06:13:08Z</time></trkpt><trkpt lat="46.001139774301485" lon="13.292285657721957"><ele>67.5</ele><time>2026-04-06T06:13:09Z</time></trkpt><trkpt lat="46.001349878175226" lon="13.29204244906022"><ele>68.0</ele><time>2026-04-06T06:13:10Z</time></trkpt><trkpt lat="46.00156553363471" lon="13.291789471991606"><ele>68.0</ele><time>2026-04-06T06:13:11Z</time></trkpt><trkpt lat="46.001787157696576" lon="13.2915372934471"><ele>68.0</ele><time>2026-04-06T06:13:12Z</time></trkpt><trkpt lat="46.00199955125423" lon="13.291293014755253"><ele>68.5</ele><time>2026-04-06T06:13:13Z</time></trkpt><trkpt lat="46.00220432527474" lon="13.291055431125358"><ele>69.0</ele><time>2026-04-06T06:13:14Z</time></trkpt><trkpt lat="46.0023979267661" lon="13.290822215787337"><ele>68.0</ele><time>2026-04-06T06:13:15Z</time></trkpt><trkpt lat="46.00258331699519" lon="13.290578070601738"><ele>67.0</ele><time>2026-04-06T06:13:16Z</time></trkpt><trkpt lat="46.00276085096668" lon="13.290310648743002"><ele>67.0</ele><time>2026-04-06T06:13:17Z</time></trkpt><trkpt lat="46.002932916716965" lon="13.290026598744303"><ele>67.0</ele><time>2026-04-06T06:13:18Z</time></trkpt><trkpt lat="46.00310574521509" lon="13.289731588562281"><ele>67.0</ele><time>2026-04-06T06:13:19Z</time></trkpt><trkpt lat="46.00328407579004" lon="13.289434179106692"><ele>67.0</ele><time>2026-04-06T06:13:20Z</time></trkpt><trkpt lat="46.003466359683294" lon="13.28913158865723"><ele>68.0</ele><time>2026-04-06T06:13:21Z</time></trkpt><trkpt lat="46.00364845893718" lon="13.288823837920102"><ele>69.0</ele><time>2026-04-06T06:13:22Z</time></trkpt><trkpt lat="46.00383220636531" lon="13.288512183234436"><ele>69.0</ele><time>2026-04-06T06:13:23Z</time></trkpt><trkpt lat="46.004030471504805" lon="13.288215044923398"><ele>69.0</ele><time>2026-04-06T06:13:24Z</time></trkpt><trkpt lat="46.0042166961431" lon="13.287899953666516"><ele>68.5</ele><time>2026-04-06T06:13:25Z</time></trkpt><trkpt lat="46.00440230289708" lon="13.28758969688286"><ele>68.0</ele><time>2026-04-06T06:13:26Z</time></trkpt><trkpt lat="46.00457600541485" lon="13.287266550847445"><ele>67.5</ele><time>2026-04-06T06:13:27Z</time></trkpt><trkpt lat="46.004759893948986" lon="13.286969552872742"><ele>67.0</ele><time>2026-04-06T06:13:28Z</time></trkpt><trkpt lat="46.00494706342579" lon="13.286680813410376"><ele>68.5</ele><time>2026-04-06T06:13:29Z</time></trkpt><trkpt lat="46.00515319576494" lon="13.286421696062199"><ele>70.0</ele><time>2026-04-06T06:13:30Z</time></trkpt><trkpt lat="46.00534964540613" lon="13.286155771475498"><ele>70.0</ele><time>2026-04-06T06:13:31Z</time></trkpt><trkpt lat="46.00553493361223" lon="13.285880865466149"><ele>70.0</ele><time>2026-04-06T06:13:32Z</time></trkpt><trkpt lat="46.00572776736281" lon="13.285623257368446"><ele>69.5</ele><time>2026-04-06T06:13:33Z</time></trkpt><trkpt lat="46.0059176281986" lon="13.28536754469902"><ele>69.0</ele><time>2026-04-06T06:13:34Z</time></trkpt><trkpt lat="46.00610785461549" lon="13.285111222598822"><ele>69.0</ele><time>2026-04-06T06:13:35Z</time></trkpt><trkpt lat="46.006296709563166" lon="13.28485457909972"><ele>69.0</ele><time>2026-04-06T06:13:36Z</time></trkpt><trkpt lat="46.006489888120846" lon="13.284608900971536"><ele>69.5</ele><time>2026-04-06T06:13:37Z</time></trkpt><trkpt lat="46.006659345732515" lon="13.284311148796027"><ele>70.0</ele><time>2026-04-06T06:13:38Z</time></trkpt><trkpt lat="46.00680666067024" lon="13.283965965191195"><ele>70.5</ele><time>2026-04-06T06:13:39Z</time></trkpt><trkpt lat="46.00696137733877" lon="13.283597651808394"><ele>71.0</ele><time>2026-04-06T06:13:40Z</time></trkpt><trkpt lat="46.00712166178282" lon="13.283216525330252"><ele>71.0</ele><time>2026-04-06T06:13:41Z</time></trkpt><trkpt lat="46.00728613447888" lon="13.282825716282634"><ele>71.0</ele><time>2026-04-06T06:13:42Z</time></trkpt><trkpt lat="46.00745295197342" lon="13.28242895120537"><ele>72.5</ele><time>2026-04-06T06:13:43Z</time></trkpt><trkpt lat="46.007615075980866" lon="13.282040964719883"><ele>74.0</ele><time>2026-04-06T06:13:44Z</time></trkpt><trkpt lat="46.007771663102815" lon="13.281666228865845"><ele>73.5</ele><time>2026-04-06T06:13:45Z</time></trkpt><trkpt lat="46.00790578132953" lon="13.281301874405523"><ele>73.0</ele><time>2026-04-06T06:13:45.999Z</time></trkpt><trkpt lat="46.00804885262408" lon="13.281000547916202"><ele>73.0</ele><time>2026-04-06T06:13:46.999Z</time></trkpt><trkpt lat="46.00816133122552" lon="13.280695354914418"><ele>73.0</ele><time>2026-04-06T06:13:47.999Z</time></trkpt><trkpt lat="46.0082557731884" lon="13.280376188630587"><ele>73.0</ele><time>2026-04-06T06:13:48.999Z</time></trkpt><trkpt lat="46.00832559844581" lon="13.28004139932035"><ele>73.0</ele><time>2026-04-06T06:13:49.999Z</time></trkpt><trkpt lat="46.008368131854844" lon="13.27969572342519"><ele>73.0</ele><time>2026-04-06T06:13:50.999Z</time></trkpt><trkpt lat="46.00838641906781" lon="13.279379515995696"><ele>73.0</ele><time>2026-04-06T06:13:51.999Z</time></trkpt><trkpt lat="46.008402229068444" lon="13.279098549649008"><ele>73.0</ele><time>2026-04-06T06:13:52.999Z</time></trkpt><trkpt lat="46.008411000781365" lon="13.278843940911202"><ele>74.0</ele><time>2026-04-06T06:13:53.999Z</time></trkpt><trkpt lat="46.00846209611195" lon="13.278611949015959"><ele>75.0</ele><time>2026-04-06T06:13:54.999Z</time></trkpt><trkpt lat="46.00854831040015" lon="13.278391048303886"><ele>76.0</ele><time>2026-04-06T06:13:55.999Z</time></trkpt><trkpt lat="46.00866208241224" lon="13.278197018949779"><ele>76.0</ele><time>2026-04-06T06:13:56.999Z</time></trkpt><trkpt lat="46.00880758660479" lon="13.278036661877527"><ele>76.0</ele><time>2026-04-06T06:13:57.999Z</time></trkpt><trkpt lat="46.008996432304286" lon="13.277929403342766"><ele>76.0</ele><time>2026-04-06T06:13:58.999Z</time></trkpt><trkpt lat="46.009192644631426" lon="13.277789925334968"><ele>76.0</ele><time>2026-04-06T06:13:59.999Z</time></trkpt><trkpt lat="46.00940487071529" lon="13.277662154648977"><ele>76.0</ele><time>2026-04-06T06:14:00.999Z</time></trkpt><trkpt lat="46.00962481233465" lon="13.27752607916587"><ele>76.0</ele><time>2026-04-06T06:14:01.999Z</time></trkpt><trkpt lat="46.00984494237984" lon="13.277371102513328"><ele>76.0</ele><time>2026-04-06T06:14:02.999Z</time></trkpt><trkpt lat="46.01007193309457" lon="13.277213540600739"><ele>75.0</ele><time>2026-04-06T06:14:03.999Z</time></trkpt><trkpt lat="46.0102841010646" lon="13.27699800607503"><ele>74.0</ele><time>2026-04-06T06:14:04.999Z</time></trkpt><trkpt lat="46.010467562636784" lon="13.276733396052176"><ele>74.0</ele><time>2026-04-06T06:14:05.999Z</time></trkpt><trkpt lat="46.01066375935476" lon="13.276481409177602"><ele>74.0</ele><time>2026-04-06T06:14:06.999Z</time></trkpt><trkpt lat="46.01087001325977" lon="13.276256354905936"><ele>75.0</ele><time>2026-04-06T06:14:07.999Z</time></trkpt><trkpt lat="46.01107883346609" lon="13.276052661247412"><ele>76.0</ele><time>2026-04-06T06:14:08.999Z</time></trkpt><trkpt lat="46.01128292231067" lon="13.275862710395327"><ele>76.0</ele><time>2026-04-06T06:14:09.999Z</time></trkpt><trkpt lat="46.01147710441373" lon="13.275674176126158"><ele>76.0</ele><time>2026-04-06T06:14:10.999Z</time></trkpt><trkpt lat="46.011664538354005" lon="13.27549281383832"><ele>76.0</ele><time>2026-04-06T06:14:11.999Z</time></trkpt><trkpt lat="46.01185983323713" lon="13.275339945161381"><ele>76.0</ele><time>2026-04-06T06:14:12.999Z</time></trkpt><trkpt lat="46.012029150052165" lon="13.275155714920906"><ele>76.0</ele><time>2026-04-06T06:14:13.999Z</time></trkpt><trkpt lat="46.012191835734804" lon="13.275013855457875"><ele>76.0</ele><time>2026-04-06T06:14:14.999Z</time></trkpt><trkpt lat="46.012345626331424" lon="13.274869434959555"><ele>76.0</ele><time>2026-04-06T06:14:15.999Z</time></trkpt><trkpt lat="46.01248949054962" lon="13.274715754327106"><ele>76.0</ele><time>2026-04-06T06:14:16.999Z</time></trkpt><trkpt lat="46.01261100389448" lon="13.274540566761775"><ele>76.33333333333333</ele><time>2026-04-06T06:14:17.999Z</time></trkpt><trkpt lat="46.01270985877764" lon="13.274338662909063"><ele>76.66666666666667</ele><time>2026-04-06T06:14:18.999Z</time></trkpt><trkpt lat="46.01278670150819" lon="13.274109516471302"><ele>77.0</ele><time>2026-04-06T06:14:19.999Z</time></trkpt><trkpt lat="46.012840621909945" lon="13.273848565146293"><ele>77.0</ele><time>2026-04-06T06:14:20.999Z</time></trkpt><trkpt lat="46.012868978326466" lon="13.273562456027102"><ele>77.0</ele><time>2026-04-06T06:14:21.999Z</time></trkpt><trkpt lat="46.012871611376156" lon="13.273238988651133"><ele>77.0</ele><time>2026-04-06T06:14:22.999Z</time></trkpt><trkpt lat="46.012868891914586" lon="13.27287956011304"><ele>77.5</ele><time>2026-04-06T06:14:23.999Z</time></trkpt><trkpt lat="46.01289305668642" lon="13.272502592545251"><ele>78.0</ele><time>2026-04-06T06:14:24.999Z</time></trkpt><trkpt lat="46.01288550071794" lon="13.27218367028834"><ele>77.33333333333333</ele><time>2026-04-06T06:14:25.999Z</time></trkpt><trkpt lat="46.012899059444536" lon="13.271918135766626"><ele>76.66666666666666</ele><time>2026-04-06T06:14:26.999Z</time></trkpt><trkpt lat="46.012921858865745" lon="13.271710571769326"><ele>76.0</ele><time>2026-04-06T06:14:27.999Z</time></trkpt><trkpt lat="46.01296194364574" lon="13.271507750692452"><ele>75.66666666666666</ele><time>2026-04-06T06:14:28.999Z</time></trkpt><trkpt lat="46.01303388401683" lon="13.271316323129025"><ele>75.33333333333333</ele><time>2026-04-06T06:14:29.999Z</time></trkpt><trkpt lat="46.01313780673868" lon="13.271118783006767"><ele>75.0</ele><time>2026-04-06T06:14:30.999Z</time></trkpt><trkpt lat="46.01323662244078" lon="13.270921772706409"><ele>75.33333333333333</ele><time>2026-04-06T06:14:31.999Z</time></trkpt><trkpt lat="46.013341346347794" lon="13.270744872641378"><ele>75.66666666666666</ele><time>2026-04-06T06:14:32.999Z</time></trkpt><trkpt lat="46.01345539156951" lon="13.270589190345753"><ele>76.0</ele><time>2026-04-06T06:14:33.999Z</time></trkpt><trkpt lat="46.013593739166865" lon="13.270472126428956"><ele>76.33333333333333</ele><time>2026-04-06T06:14:34.999Z</time></trkpt><trkpt lat="46.01375821282978" lon="13.270400353391313"><ele>76.66666666666667</ele><time>2026-04-06T06:14:35.999Z</time></trkpt><trkpt lat="46.01394309667441" lon="13.270354510815324"><ele>77.0</ele><time>2026-04-06T06:14:36.999Z</time></trkpt><trkpt lat="46.014146471312635" lon="13.270304889852973"><ele>77.5</ele><time>2026-04-06T06:14:38Z</time></trkpt><trkpt lat="46.01437326157515" lon="13.270236966366742"><ele>78.0</ele><time>2026-04-06T06:14:39Z</time></trkpt><trkpt lat="46.01461929542729" lon="13.270169935454305"><ele>78.0</ele><time>2026-04-06T06:14:40Z</time></trkpt><trkpt lat="46.014878885232605" lon="13.270105571267843"><ele>78.0</ele><time>2026-04-06T06:14:41Z</time></trkpt><trkpt lat="46.015142165639496" lon="13.270034811621887"><ele>78.5</ele><time>2026-04-06T06:14:42Z</time></trkpt><trkpt lat="46.01540751290852" lon="13.26996301098072"><ele>79.0</ele><time>2026-04-06T06:14:43Z</time></trkpt><trkpt lat="46.01567245322371" lon="13.269890184268199"><ele>79.0</ele><time>2026-04-06T06:14:44Z</time></trkpt><trkpt lat="46.01593281661591" lon="13.269816628175716"><ele>79.0</ele><time>2026-04-06T06:14:45Z</time></trkpt><trkpt lat="46.01618533610673" lon="13.269745148635018"><ele>79.0</ele><time>2026-04-06T06:14:46Z</time></trkpt><trkpt lat="46.01643184127992" lon="13.269679379382673"><ele>79.0</ele><time>2026-04-06T06:14:47Z</time></trkpt><trkpt lat="46.01666887360904" lon="13.269615709793298"><ele>79.5</ele><time>2026-04-06T06:14:48Z</time></trkpt><trkpt lat="46.01690495087716" lon="13.269549013768417"><ele>80.0</ele><time>2026-04-06T06:14:49Z</time></trkpt><trkpt lat="46.017136238064424" lon="13.269484112859082"><ele>80.0</ele><time>2026-04-06T06:14:50Z</time></trkpt><trkpt lat="46.01736214024788" lon="13.269420725675301"><ele>80.0</ele><time>2026-04-06T06:14:51Z</time></trkpt><trkpt lat="46.01758245246726" lon="13.269358823118711"><ele>79.66666666666667</ele><time>2026-04-06T06:14:52Z</time></trkpt><trkpt lat="46.017789346857676" lon="13.269297130275282"><ele>79.33333333333333</ele><time>2026-04-06T06:14:53Z</time></trkpt><trkpt lat="46.01798497106593" lon="13.26923663557503"><ele>79.0</ele><time>2026-04-06T06:14:54Z</time></trkpt><trkpt lat="46.01816883384201" lon="13.269182227237586"><ele>79.66666666666666</ele><time>2026-04-06T06:14:55Z</time></trkpt><trkpt lat="46.018334173660215" lon="13.269133691138293"><ele>80.33333333333333</ele><time>2026-04-06T06:14:56Z</time></trkpt><trkpt lat="46.01849507143827" lon="13.269087102998576"><ele>81.0</ele><time>2026-04-06T06:14:57Z</time></trkpt><trkpt lat="46.0186387323836" lon="13.269046625596662"><ele>81.0</ele><time>2026-04-06T06:14:58Z</time></trkpt><trkpt lat="46.018767531112786" lon="13.269015389570422"><ele>81.0</ele><time>2026-04-06T06:14:59Z</time></trkpt><trkpt lat="46.018883046869284" lon="13.2689990023096"><ele>81.0</ele><time>2026-04-06T06:15:00Z</time></trkpt><trkpt lat="46.01900473347291" lon="13.26900330419488"><ele>81.0</ele><time>2026-04-06T06:15:01Z</time></trkpt><trkpt lat="46.019144464612076" lon="13.269048096059718"><ele>81.33333333333333</ele><time>2026-04-06T06:15:02Z</time></trkpt><trkpt lat="46.019299109652216" lon="13.269137081181583"><ele>81.66666666666666</ele><time>2026-04-06T06:15:03Z</time></trkpt><trkpt lat="46.01947460542376" lon="13.269254317309672"><ele>82.0</ele><time>2026-04-06T06:15:04Z</time></trkpt><trkpt lat="46.01966823454023" lon="13.269334196784415"><ele>82.0</ele><time>2026-04-06T06:15:05Z</time></trkpt><trkpt lat="46.019868480885215" lon="13.26937520606649"><ele>82.0</ele><time>2026-04-06T06:15:06Z</time></trkpt><trkpt lat="46.020079382816995" lon="13.2693762848822"><ele>82.0</ele><time>2026-04-06T06:15:07Z</time></trkpt><trkpt lat="46.020297605805915" lon="13.2693361502101"><ele>81.66666666666666</ele><time>2026-04-06T06:15:08Z</time></trkpt><trkpt lat="46.020519286847" lon="13.269267683137263"><ele>81.33333333333333</ele><time>2026-04-06T06:15:09Z</time></trkpt><trkpt lat="46.0207247136407" lon="13.269175026799237"><ele>81.0</ele><time>2026-04-06T06:15:10Z</time></trkpt><trkpt lat="46.020910062616366" lon="13.269044877906826"><ele>81.0</ele><time>2026-04-06T06:15:11Z</time></trkpt><trkpt lat="46.021084086436446" lon="13.268903696621509"><ele>81.0</ele><time>2026-04-06T06:15:12Z</time></trkpt><trkpt lat="46.0212441439908" lon="13.268750362249973"><ele>81.0</ele><time>2026-04-06T06:15:13Z</time></trkpt><trkpt lat="46.021385467448255" lon="13.268584480752551"><ele>81.0</ele><time>2026-04-06T06:15:14Z</time></trkpt><trkpt lat="46.02149934266075" lon="13.268412271222658"><ele>81.0</ele><time>2026-04-06T06:15:15Z</time></trkpt><trkpt lat="46.02158512797693" lon="13.26822148938698"><ele>81.0</ele><time>2026-04-06T06:15:16Z</time></trkpt><trkpt lat="46.02163816647501" lon="13.268010322502747"><ele>81.66666666666667</ele><time>2026-04-06T06:15:17Z</time></trkpt><trkpt lat="46.02166053734573" lon="13.267778766290578"><ele>82.33333333333334</ele><time>2026-04-06T06:15:18Z</time></trkpt><trkpt lat="46.02164725654499" lon="13.267540424980531"><ele>83.0</ele><time>2026-04-06T06:15:19Z</time></trkpt><trkpt lat="46.0215911802076" lon="13.267315291746696"><ele>82.66666666666667</ele><time>2026-04-06T06:15:20Z</time></trkpt><trkpt lat="46.02153383460006" lon="13.267097946268827"><ele>82.33333333333333</ele><time>2026-04-06T06:15:21Z</time></trkpt><trkpt lat="46.021378393690675" lon="13.26693674731289"><ele>82.0</ele><time>2026-04-06T06:15:22Z</time></trkpt><trkpt lat="46.021220955050566" lon="13.266804976215782"><ele>82.0</ele><time>2026-04-06T06:15:23Z</time></trkpt><trkpt lat="46.021042593143356" lon="13.26673307904179"><ele>82.0</ele><time>2026-04-06T06:15:24Z</time></trkpt><trkpt lat="46.02085220754002" lon="13.26671095423336"><ele>82.0</ele><time>2026-04-06T06:15:25Z</time></trkpt><trkpt lat="46.02065919838153" lon="13.266718878760658"><ele>82.0</ele><time>2026-04-06T06:15:26Z</time></trkpt><trkpt lat="46.020484546314535" lon="13.266735852970763"><ele>82.0</ele><time>2026-04-06T06:15:27Z</time></trkpt><trkpt lat="46.020341774627525" lon="13.266738843049781"><ele>82.0</ele><time>2026-04-06T06:15:28Z</time></trkpt><trkpt lat="46.02020860785566" lon="13.266699635720887"><ele>82.0</ele><time>2026-04-06T06:15:29Z</time></trkpt><trkpt lat="46.02006863254362" lon="13.266620352895691"><ele>82.0</ele><time>2026-04-06T06:15:30Z</time></trkpt><trkpt lat="46.01994054957066" lon="13.266489274350004"><ele>82.0</ele><time>2026-04-06T06:15:31Z</time></trkpt><trkpt lat="46.01982818517968" lon="13.266302783193273"><ele>81.33333333333333</ele><time>2026-04-06T06:15:32Z</time></trkpt><trkpt lat="46.019726773463" lon="13.26607190326744"><ele>80.66666666666667</ele><time>2026-04-06T06:15:33Z</time></trkpt><trkpt lat="46.01961244368845" lon="13.265798530714147"><ele>80.0</ele><time>2026-04-06T06:15:34Z</time></trkpt><trkpt lat="46.01947779090529" lon="13.265488764174734"><ele>80.0</ele><time>2026-04-06T06:15:35Z</time></trkpt><trkpt lat="46.01933619888501" lon="13.265164365063594"><ele>80.0</ele><time>2026-04-06T06:15:36Z</time></trkpt><trkpt lat="46.01918787139996" lon="13.264820695939376"><ele>80.5</ele><time>2026-04-06T06:15:37Z</time></trkpt><trkpt lat="46.019038016496346" lon="13.2644601573768"><ele>81.0</ele><time>2026-04-06T06:15:38Z</time></trkpt><trkpt lat="46.018891656033894" lon="13.26408830807613"><ele>80.5</ele><time>2026-04-06T06:15:39Z</time></trkpt><trkpt lat="46.01874790280208" lon="13.263708867001167"><ele>80.0</ele><time>2026-04-06T06:15:40Z</time></trkpt><trkpt lat="46.01860466802715" lon="13.263327800215492"><ele>80.0</ele><time>2026-04-06T06:15:41Z</time></trkpt><trkpt lat="46.01845701000225" lon="13.262941378755343"><ele>80.0</ele><time>2026-04-06T06:15:42Z</time></trkpt><trkpt lat="46.01830798911033" lon="13.262551195721207"><ele>79.0</ele><time>2026-04-06T06:15:43Z</time></trkpt><trkpt lat="46.01815965205187" lon="13.262163589165022"><ele>78.0</ele><time>2026-04-06T06:15:44Z</time></trkpt><trkpt lat="46.01801313049731" lon="13.261772629262211"><ele>78.0</ele><time>2026-04-06T06:15:45Z</time></trkpt><trkpt lat="46.01786496779122" lon="13.261380406363541"><ele>78.0</ele><time>2026-04-06T06:15:46Z</time></trkpt><trkpt lat="46.017717864513784" lon="13.26098827662483"><ele>78.0</ele><time>2026-04-06T06:15:46.999Z</time></trkpt><trkpt lat="46.017570523517456" lon="13.260595073423298"><ele>78.0</ele><time>2026-04-06T06:15:47.999Z</time></trkpt><trkpt lat="46.01742421446374" lon="13.260204927101679"><ele>78.5</ele><time>2026-04-06T06:15:48.999Z</time></trkpt><trkpt lat="46.017279322848154" lon="13.259813560036545"><ele>79.0</ele><time>2026-04-06T06:15:49.999Z</time></trkpt><trkpt lat="46.01713858256814" lon="13.259422082848376"><ele>79.0</ele><time>2026-04-06T06:15:50.999Z</time></trkpt><trkpt lat="46.01700075404593" lon="13.259028622635508"><ele>79.0</ele><time>2026-04-06T06:15:51.999Z</time></trkpt><trkpt lat="46.016867724860205" lon="13.258635171069184"><ele>79.0</ele><time>2026-04-06T06:15:52.999Z</time></trkpt><trkpt lat="46.016738082347544" lon="13.258245078429164"><ele>79.0</ele><time>2026-04-06T06:15:53.999Z</time></trkpt><trkpt lat="46.0166134234502" lon="13.257856607046827"><ele>78.5</ele><time>2026-04-06T06:15:54.999Z</time></trkpt><trkpt lat="46.016493106273" lon="13.257467947818997"><ele>78.0</ele><time>2026-04-06T06:15:55.999Z</time></trkpt><trkpt lat="46.01637802963066" lon="13.257079228558815"><ele>77.5</ele><time>2026-04-06T06:15:56.999Z</time></trkpt><trkpt lat="46.01626965845795" lon="13.256691650198979"><ele>77.0</ele><time>2026-04-06T06:15:57.999Z</time></trkpt><trkpt lat="46.016169363755274" lon="13.256303082343415"><ele>75.5</ele><time>2026-04-06T06:15:58.999Z</time></trkpt><trkpt lat="46.01607458648269" lon="13.25591395626873"><ele>74.0</ele><time>2026-04-06T06:15:59.999Z</time></trkpt><trkpt lat="46.01598572360956" lon="13.25552339082439"><ele>73.5</ele><time>2026-04-06T06:16:00.999Z</time></trkpt><trkpt lat="46.015902564259264" lon="13.2551303205097"><ele>73.0</ele><time>2026-04-06T06:16:01.999Z</time></trkpt><trkpt lat="46.01582499628757" lon="13.254729201720693"><ele>74.0</ele><time>2026-04-06T06:16:02.999Z</time></trkpt><trkpt lat="46.01575457482627" lon="13.254321893113401"><ele>75.0</ele><time>2026-04-06T06:16:03.999Z</time></trkpt><trkpt lat="46.01569124087688" lon="13.253909587458594"><ele>75.5</ele><time>2026-04-06T06:16:04.999Z</time></trkpt><trkpt lat="46.0156335178294" lon="13.253491426401798"><ele>76.0</ele><time>2026-04-06T06:16:05.999Z</time></trkpt><trkpt lat="46.01558247699191" lon="13.253071444082442"><ele>76.0</ele><time>2026-04-06T06:16:06.999Z</time></trkpt><trkpt lat="46.01553959935489" lon="13.252649594987615"><ele>76.0</ele><time>2026-04-06T06:16:07.999Z</time></trkpt><trkpt lat="46.01550402519849" lon="13.252225445371977"><ele>75.5</ele><time>2026-04-06T06:16:08.999Z</time></trkpt><trkpt lat="46.01547471659921" lon="13.251800942483495"><ele>75.0</ele><time>2026-04-06T06:16:09.999Z</time></trkpt><trkpt lat="46.01545278994729" lon="13.251375348860547"><ele>75.0</ele><time>2026-04-06T06:16:10.999Z</time></trkpt><trkpt lat="46.015443846854964" lon="13.250947188210121"><ele>75.0</ele><time>2026-04-06T06:16:11.999Z</time></trkpt><trkpt lat="46.01544301539056" lon="13.250520527287609"><ele>75.5</ele><time>2026-04-06T06:16:12.999Z</time></trkpt><trkpt lat="46.01544889408714" lon="13.250089249352547"><ele>76.0</ele><time>2026-04-06T06:16:13.999Z</time></trkpt><trkpt lat="46.0154477328911" lon="13.249655558876825"><ele>76.0</ele><time>2026-04-06T06:16:14.999Z</time></trkpt><trkpt lat="46.01545309794549" lon="13.249220899722278"><ele>76.0</ele><time>2026-04-06T06:16:15.999Z</time></trkpt><trkpt lat="46.015474002162186" lon="13.248807868431598"><ele>75.5</ele><time>2026-04-06T06:16:16.999Z</time></trkpt><trkpt lat="46.01553187051298" lon="13.24839275247732"><ele>75.0</ele><time>2026-04-06T06:16:17.999Z</time></trkpt><trkpt lat="46.01557887984454" lon="13.24797956681556"><ele>74.0</ele><time>2026-04-06T06:16:18.999Z</time></trkpt><trkpt lat="46.015623743760976" lon="13.247563430256129"><ele>73.0</ele><time>2026-04-06T06:16:19.999Z</time></trkpt><trkpt lat="46.01567250482479" lon="13.247158223900835"><ele>75.0</ele><time>2026-04-06T06:16:20.999Z</time></trkpt><trkpt lat="46.01572479634004" lon="13.246748244934968"><ele>77.0</ele><time>2026-04-06T06:16:21.999Z</time></trkpt><trkpt lat="46.01578474460379" lon="13.246329301479888"><ele>76.0</ele><time>2026-04-06T06:16:22.999Z</time></trkpt><trkpt lat="46.01585167511294" lon="13.245908691983955"><ele>75.0</ele><time>2026-04-06T06:16:23.999Z</time></trkpt><trkpt lat="46.01592058337415" lon="13.2454902683531"><ele>75.0</ele><time>2026-04-06T06:16:24.999Z</time></trkpt><trkpt lat="46.015990943770895" lon="13.245071469043063"><ele>75.0</ele><time>2026-04-06T06:16:25.999Z</time></trkpt><trkpt lat="46.016062866317064" lon="13.24465500630628"><ele>76.0</ele><time>2026-04-06T06:16:26.999Z</time></trkpt><trkpt lat="46.01613483575247" lon="13.244236592444596"><ele>77.0</ele><time>2026-04-06T06:16:27.999Z</time></trkpt><trkpt lat="46.016203439717565" lon="13.243817054548789"><ele>77.0</ele><time>2026-04-06T06:16:28.999Z</time></trkpt><trkpt lat="46.0162742155643" lon="13.243397782388946"><ele>77.0</ele><time>2026-04-06T06:16:29.999Z</time></trkpt><trkpt lat="46.01634844041117" lon="13.242979128585466"><ele>77.5</ele><time>2026-04-06T06:16:30.999Z</time></trkpt><trkpt lat="46.01642324462088" lon="13.242555672487828"><ele>78.0</ele><time>2026-04-06T06:16:31.999Z</time></trkpt><trkpt lat="46.01649974092591" lon="13.242136958431923"><ele>78.0</ele><time>2026-04-06T06:16:32.999Z</time></trkpt><trkpt lat="46.016576892978726" lon="13.241722160347052"><ele>78.0</ele><time>2026-04-06T06:16:33.999Z</time></trkpt><trkpt lat="46.01665649926029" lon="13.241310013555868"><ele>78.0</ele><time>2026-04-06T06:16:34.999Z</time></trkpt><trkpt lat="46.016737568634056" lon="13.240898475969008"><ele>78.0</ele><time>2026-04-06T06:16:35.999Z</time></trkpt><trkpt lat="46.01682092819766" lon="13.240485595050222"><ele>78.0</ele><time>2026-04-06T06:16:36.999Z</time></trkpt><trkpt lat="46.016903759458486" lon="13.240071004631728"><ele>78.0</ele><time>2026-04-06T06:16:37.999Z</time></trkpt><trkpt lat="46.0169833172392" lon="13.239653394313796"><ele>77.5</ele><time>2026-04-06T06:16:38.999Z</time></trkpt><trkpt lat="46.01706029552215" lon="13.239236652410234"><ele>77.0</ele><time>2026-04-06T06:16:39.999Z</time></trkpt><trkpt lat="46.017135765171126" lon="13.238818113450577"><ele>77.0</ele><time>2026-04-06T06:16:40.999Z</time></trkpt><trkpt lat="46.01721424409943" lon="13.238399183926647"><ele>77.0</ele><time>2026-04-06T06:16:41.999Z</time></trkpt><trkpt lat="46.01729522458226" lon="13.23798030297409"><ele>77.0</ele><time>2026-04-06T06:16:43Z</time></trkpt><trkpt lat="46.01737503587468" lon="13.237560163916058"><ele>77.0</ele><time>2026-04-06T06:16:44Z</time></trkpt><trkpt lat="46.017454710453144" lon="13.237139208263164"><ele>78.0</ele><time>2026-04-06T06:16:45Z</time></trkpt><trkpt lat="46.01753219387512" lon="13.236719709960903"><ele>79.0</ele><time>2026-04-06T06:16:46Z</time></trkpt><trkpt lat="46.01760671299776" lon="13.236299412418106"><ele>79.0</ele><time>2026-04-06T06:16:47Z</time></trkpt><trkpt lat="46.01767908569761" lon="13.235873058640639"><ele>79.0</ele><time>2026-04-06T06:16:48Z</time></trkpt><trkpt lat="46.0177401747305" lon="13.235439163396437"><ele>78.5</ele><time>2026-04-06T06:16:49Z</time></trkpt><trkpt lat="46.01778510446615" lon="13.235000081428238"><ele>78.0</ele><time>2026-04-06T06:16:50Z</time></trkpt><trkpt lat="46.017819544159046" lon="13.234555743380444"><ele>78.0</ele><time>2026-04-06T06:16:51Z</time></trkpt><trkpt lat="46.01784115044327" lon="13.23410818011124"><ele>78.0</ele><time>2026-04-06T06:16:52Z</time></trkpt><trkpt lat="46.01785540419162" lon="13.23365936484336"><ele>78.0</ele><time>2026-04-06T06:16:53Z</time></trkpt><trkpt lat="46.0178596181686" lon="13.233209326281951"><ele>78.0</ele><time>2026-04-06T06:16:54Z</time></trkpt><trkpt lat="46.017847206046056" lon="13.232760268301174"><ele>78.0</ele><time>2026-04-06T06:16:55Z</time></trkpt><trkpt lat="46.01781968932697" lon="13.232313904477225"><ele>78.0</ele><time>2026-04-06T06:16:56Z</time></trkpt><trkpt lat="46.01777675519955" lon="13.231869926242405"><ele>78.0</ele><time>2026-04-06T06:16:57Z</time></trkpt><trkpt lat="46.017719697691305" lon="13.2314304858063"><ele>78.0</ele><time>2026-04-06T06:16:58Z</time></trkpt><trkpt lat="46.01765610178404" lon="13.230997919109242"><ele>78.5</ele><time>2026-04-06T06:16:59Z</time></trkpt><trkpt lat="46.0175867959196" lon="13.230568799249227"><ele>79.0</ele><time>2026-04-06T06:17:00Z</time></trkpt><trkpt lat="46.01750859718928" lon="13.230152235046818"><ele>78.5</ele><time>2026-04-06T06:17:01Z</time></trkpt><trkpt lat="46.01741906636881" lon="13.229749342552342"><ele>78.0</ele><time>2026-04-06T06:17:02Z</time></trkpt><trkpt lat="46.0173203573773" lon="13.229364675253226"><ele>78.0</ele><time>2026-04-06T06:17:03Z</time></trkpt><trkpt lat="46.01721649438582" lon="13.228997433760073"><ele>78.0</ele><time>2026-04-06T06:17:04Z</time></trkpt><trkpt lat="46.017115435371494" lon="13.228635336776321"><ele>78.5</ele><time>2026-04-06T06:17:05Z</time></trkpt><trkpt lat="46.0170365543051" lon="13.228286310860469"><ele>79.0</ele><time>2026-04-06T06:17:06Z</time></trkpt><trkpt lat="46.01698618538898" lon="13.227956822352379"><ele>79.33333333333333</ele><time>2026-04-06T06:17:07Z</time></trkpt><trkpt lat="46.01695687178586" lon="13.22764365086666"><ele>79.66666666666667</ele><time>2026-04-06T06:17:08Z</time></trkpt><trkpt lat="46.01694747740647" lon="13.227342793243835"><ele>80.0</ele><time>2026-04-06T06:17:09Z</time></trkpt><trkpt lat="46.016959911721514" lon="13.227031818612812"><ele>80.0</ele><time>2026-04-06T06:17:10Z</time></trkpt><trkpt lat="46.01700033745926" lon="13.226704301001277"><ele>80.0</ele><time>2026-04-06T06:17:11Z</time></trkpt><trkpt lat="46.01705129399004" lon="13.226373953625073"><ele>80.0</ele><time>2026-04-06T06:17:12Z</time></trkpt><trkpt lat="46.017096238758185" lon="13.226037521131992"><ele>80.0</ele><time>2026-04-06T06:17:13Z</time></trkpt><trkpt lat="46.01711411790473" lon="13.22571275677352"><ele>79.33333333333334</ele><time>2026-04-06T06:17:14Z</time></trkpt><trkpt lat="46.01711405555383" lon="13.22539387055588"><ele>78.66666666666667</ele><time>2026-04-06T06:17:15Z</time></trkpt><trkpt lat="46.01709681179193" lon="13.225069554818937"><ele>78.0</ele><time>2026-04-06T06:17:16Z</time></trkpt><trkpt lat="46.01705243197795" lon="13.224741436612579"><ele>78.0</ele><time>2026-04-06T06:17:17Z</time></trkpt><trkpt lat="46.0169796076443" lon="13.224413529607189"><ele>78.0</ele><time>2026-04-06T06:17:18Z</time></trkpt><trkpt lat="46.01689973082212" lon="13.224086631843537"><ele>78.0</ele><time>2026-04-06T06:17:19Z</time></trkpt><trkpt lat="46.01683473733376" lon="13.223774636501954"><ele>78.0</ele><time>2026-04-06T06:17:20Z</time></trkpt><trkpt lat="46.016793587347664" lon="13.223468689322972"><ele>78.0</ele><time>2026-04-06T06:17:21Z</time></trkpt><trkpt lat="46.016773365361225" lon="13.223169883519537"><ele>78.0</ele><time>2026-04-06T06:17:22Z</time></trkpt><trkpt lat="46.01677162861075" lon="13.222880019445352"><ele>78.0</ele><time>2026-04-06T06:17:23Z</time></trkpt><trkpt lat="46.016787992631535" lon="13.222589881551794"><ele>78.0</ele><time>2026-04-06T06:17:24Z</time></trkpt><trkpt lat="46.01683162867096" lon="13.2222924205623"><ele>78.0</ele><time>2026-04-06T06:17:25Z</time></trkpt><trkpt lat="46.01688592370916" lon="13.222007133692651"><ele>78.0</ele><time>2026-04-06T06:17:26Z</time></trkpt><trkpt lat="46.01694586795619" lon="13.221708720876109"><ele>78.0</ele><time>2026-04-06T06:17:27Z</time></trkpt><trkpt lat="46.01700453344462" lon="13.221412256036132"><ele>78.0</ele><time>2026-04-06T06:17:28Z</time></trkpt><trkpt lat="46.01706566899024" lon="13.221109271534964"><ele>78.0</ele><time>2026-04-06T06:17:29Z</time></trkpt><trkpt lat="46.01712115682331" lon="13.220793487436717"><ele>78.0</ele><time>2026-04-06T06:17:30Z</time></trkpt><trkpt lat="46.01718727607799" lon="13.22046778461155"><ele>78.0</ele><time>2026-04-06T06:17:31Z</time></trkpt><trkpt lat="46.0172616183573" lon="13.220142305518598"><ele>78.0</ele><time>2026-04-06T06:17:32Z</time></trkpt><trkpt lat="46.01734132829652" lon="13.219819451173485"><ele>79.0</ele><time>2026-04-06T06:17:33Z</time></trkpt><trkpt lat="46.01742452792194" lon="13.219496818702204"><ele>80.0</ele><time>2026-04-06T06:17:34Z</time></trkpt><trkpt lat="46.01752244604889" lon="13.219177022395817"><ele>81.0</ele><time>2026-04-06T06:17:35Z</time></trkpt><trkpt lat="46.01763488170272" lon="13.21886136177591"><ele>82.0</ele><time>2026-04-06T06:17:36Z</time></trkpt><trkpt lat="46.017761882613044" lon="13.218551251576402"><ele>82.0</ele><time>2026-04-06T06:17:37Z</time></trkpt><trkpt lat="46.017901051474254" lon="13.218245732212182"><ele>82.0</ele><time>2026-04-06T06:17:38Z</time></trkpt><trkpt lat="46.01804427167273" lon="13.217946701432497"><ele>82.0</ele><time>2026-04-06T06:17:39Z</time></trkpt><trkpt lat="46.018198108915286" lon="13.217657072773582"><ele>82.0</ele><time>2026-04-06T06:17:40Z</time></trkpt><trkpt lat="46.01837370324732" lon="13.217387298169367"><ele>81.5</ele><time>2026-04-06T06:17:41Z</time></trkpt><trkpt lat="46.018566597097255" lon="13.217138090906943"><ele>81.0</ele><time>2026-04-06T06:17:42Z</time></trkpt><trkpt lat="46.018768155067065" lon="13.216899221813518"><ele>81.0</ele><time>2026-04-06T06:17:43Z</time></trkpt><trkpt lat="46.018976669572474" lon="13.216664259340762"><ele>81.0</ele><time>2026-04-06T06:17:44Z</time></trkpt><trkpt lat="46.019194027337136" lon="13.216446977169308"><ele>80.0</ele><time>2026-04-06T06:17:45Z</time></trkpt><trkpt lat="46.01941661655162" lon="13.21623800610831"><ele>79.0</ele><time>2026-04-06T06:17:46Z</time></trkpt><trkpt lat="46.019642241227096" lon="13.216034416275269"><ele>79.0</ele><time>2026-04-06T06:17:46.999Z</time></trkpt><trkpt lat="46.019869737716085" lon="13.215834300329659"><ele>79.0</ele><time>2026-04-06T06:17:47.999Z</time></trkpt><trkpt lat="46.02009975268752" lon="13.215633998532061"><ele>79.0</ele><time>2026-04-06T06:17:48.999Z</time></trkpt><trkpt lat="46.02033462944334" lon="13.215433286004842"><ele>79.0</ele><time>2026-04-06T06:17:49.999Z</time></trkpt><trkpt lat="46.02057380772027" lon="13.215229558966819"><ele>79.0</ele><time>2026-04-06T06:17:50.999Z</time></trkpt><trkpt lat="46.020817073571685" lon="13.215021531983409"><ele>79.0</ele><time>2026-04-06T06:17:51.999Z</time></trkpt><trkpt lat="46.02105470931309" lon="13.214819761528119"><ele>79.5</ele><time>2026-04-06T06:17:52.999Z</time></trkpt><trkpt lat="46.021281238118966" lon="13.214627212113813"><ele>80.0</ele><time>2026-04-06T06:17:53.999Z</time></trkpt><trkpt lat="46.02150141266844" lon="13.214444269816646"><ele>81.0</ele><time>2026-04-06T06:17:54.999Z</time></trkpt><trkpt lat="46.021715487261915" lon="13.214265314541665"><ele>82.0</ele><time>2026-04-06T06:17:55.999Z</time></trkpt><trkpt lat="46.02192404275291" lon="13.21408930208542"><ele>81.5</ele><time>2026-04-06T06:17:56.999Z</time></trkpt><trkpt lat="46.02212957413143" lon="13.213913576387508"><ele>81.0</ele><time>2026-04-06T06:17:57.999Z</time></trkpt><trkpt lat="46.02233387260105" lon="13.213739666348731"><ele>80.5</ele><time>2026-04-06T06:17:58.999Z</time></trkpt><trkpt lat="46.02253593163528" lon="13.213568853177064"><ele>80.0</ele><time>2026-04-06T06:17:59.999Z</time></trkpt><trkpt lat="46.022745466633296" lon="13.213402378980431"><ele>80.0</ele><time>2026-04-06T06:18:00.999Z</time></trkpt><trkpt lat="46.02296140208988" lon="13.21325580252339"><ele>80.0</ele><time>2026-04-06T06:18:01.999Z</time></trkpt><trkpt lat="46.02318296070904" lon="13.213131362600903"><ele>79.5</ele><time>2026-04-06T06:18:02.999Z</time></trkpt><trkpt lat="46.023406790844724" lon="13.213012104811957"><ele>79.0</ele><time>2026-04-06T06:18:03.999Z</time></trkpt><trkpt lat="46.02363713645661" lon="13.212911117336683"><ele>79.0</ele><time>2026-04-06T06:18:04.999Z</time></trkpt><trkpt lat="46.023870882971316" lon="13.212827068481795"><ele>79.0</ele><time>2026-04-06T06:18:05.999Z</time></trkpt><trkpt lat="46.024108389991326" lon="13.212758708226861"><ele>79.0</ele><time>2026-04-06T06:18:06.999Z</time></trkpt><trkpt lat="46.024349891340705" lon="13.212712122385811"><ele>79.0</ele><time>2026-04-06T06:18:07.999Z</time></trkpt><trkpt lat="46.02459318191386" lon="13.21267982056214"><ele>79.0</ele><time>2026-04-06T06:18:08.999Z</time></trkpt><trkpt lat="46.024838456325355" lon="13.212664975112178"><ele>79.0</ele><time>2026-04-06T06:18:09.999Z</time></trkpt><trkpt lat="46.02508409110605" lon="13.212668176850922"><ele>78.5</ele><time>2026-04-06T06:18:10.999Z</time></trkpt><trkpt lat="46.02533032373559" lon="13.212681736879617"><ele>78.0</ele><time>2026-04-06T06:18:11.999Z</time></trkpt><trkpt lat="46.025576743043736" lon="13.212699737745552"><ele>78.0</ele><time>2026-04-06T06:18:12.999Z</time></trkpt><trkpt lat="46.02582411965269" lon="13.212723902147687"><ele>78.0</ele><time>2026-04-06T06:18:13.999Z</time></trkpt><trkpt lat="46.02607226361279" lon="13.212755279758687"><ele>78.0</ele><time>2026-04-06T06:18:14.999Z</time></trkpt><trkpt lat="46.02631948081487" lon="13.21279277511023"><ele>78.0</ele><time>2026-04-06T06:18:15.999Z</time></trkpt><trkpt lat="46.026566112783435" lon="13.212837382669022"><ele>77.5</ele><time>2026-04-06T06:18:16.999Z</time></trkpt><trkpt lat="46.026813304343584" lon="13.212885688031617"><ele>77.0</ele><time>2026-04-06T06:18:17.999Z</time></trkpt><trkpt lat="46.027061826424394" lon="13.212933729312446"><ele>77.0</ele><time>2026-04-06T06:18:18.999Z</time></trkpt><trkpt lat="46.02730273357042" lon="13.213133776915306"><ele>77.0</ele><time>2026-04-06T06:18:19.999Z</time></trkpt><trkpt lat="46.02755872433083" lon="13.213167115180086"><ele>78.5</ele><time>2026-04-06T06:18:20.999Z</time></trkpt><trkpt lat="46.02782085720843" lon="13.213194173558085"><ele>80.0</ele><time>2026-04-06T06:18:21.999Z</time></trkpt><trkpt lat="46.02809644787013" lon="13.213094612647149"><ele>81.5</ele><time>2026-04-06T06:18:22.999Z</time></trkpt><trkpt lat="46.028368626161964" lon="13.213121732606979"><ele>83.0</ele><time>2026-04-06T06:18:23.999Z</time></trkpt><trkpt lat="46.02864545394172" lon="13.21313652262946"><ele>83.0</ele><time>2026-04-06T06:18:24.999Z</time></trkpt><trkpt lat="46.028926565076375" lon="13.213140300129853"><ele>83.0</ele><time>2026-04-06T06:18:25.999Z</time></trkpt><trkpt lat="46.029206218478436" lon="13.213133244899407"><ele>82.0</ele><time>2026-04-06T06:18:26.999Z</time></trkpt><trkpt lat="46.02948465708056" lon="13.213118831893873"><ele>81.0</ele><time>2026-04-06T06:18:27.999Z</time></trkpt><trkpt lat="46.029763850409864" lon="13.213105456659896"><ele>82.5</ele><time>2026-04-06T06:18:28.999Z</time></trkpt><trkpt lat="46.03003799461316" lon="13.213085217944363"><ele>84.0</ele><time>2026-04-06T06:18:29.999Z</time></trkpt><trkpt lat="46.03030951078435" lon="13.213077642673413"><ele>84.0</ele><time>2026-04-06T06:18:30.999Z</time></trkpt><trkpt lat="46.03057817693219" lon="13.213067989124486"><ele>84.0</ele><time>2026-04-06T06:18:31.999Z</time></trkpt><trkpt lat="46.030840818378955" lon="13.213054755590814"><ele>84.5</ele><time>2026-04-06T06:18:32.999Z</time></trkpt><trkpt lat="46.03110604368807" lon="13.213035608374232"><ele>85.0</ele><time>2026-04-06T06:18:33.999Z</time></trkpt><trkpt lat="46.031372490598514" lon="13.213011550572352"><ele>85.5</ele><time>2026-04-06T06:18:34.999Z</time></trkpt><trkpt lat="46.03164440107995" lon="13.212993676951816"><ele>86.0</ele><time>2026-04-06T06:18:35.999Z</time></trkpt><trkpt lat="46.03192143920494" lon="13.212985183549476"><ele>86.0</ele><time>2026-04-06T06:18:36.999Z</time></trkpt><trkpt lat="46.032203358384734" lon="13.21297672347935"><ele>86.0</ele><time>2026-04-06T06:18:37.999Z</time></trkpt><trkpt lat="46.03248641155366" lon="13.212964237858227"><ele>86.0</ele><time>2026-04-06T06:18:38.999Z</time></trkpt><trkpt lat="46.032770797524506" lon="13.212945556889887"><ele>86.0</ele><time>2026-04-06T06:18:39.999Z</time></trkpt><trkpt lat="46.03305538677743" lon="13.212928413142098"><ele>86.5</ele><time>2026-04-06T06:18:40.999Z</time></trkpt><trkpt lat="46.03333820667067" lon="13.21290969157706"><ele>87.0</ele><time>2026-04-06T06:18:41.999Z</time></trkpt><trkpt lat="46.03361589248468" lon="13.212888915950384"><ele>87.0</ele><time>2026-04-06T06:18:42.999Z</time></trkpt><trkpt lat="46.03388699749963" lon="13.212863151052549"><ele>87.0</ele><time>2026-04-06T06:18:43.999Z</time></trkpt><trkpt lat="46.03415439893877" lon="13.212842501738342"><ele>86.5</ele><time>2026-04-06T06:18:44.999Z</time></trkpt><trkpt lat="46.03441745755264" lon="13.212832252631415"><ele>86.0</ele><time>2026-04-06T06:18:45.999Z</time></trkpt><trkpt lat="46.03467498234045" lon="13.212842273515502"><ele>86.0</ele><time>2026-04-06T06:18:46.999Z</time></trkpt><trkpt lat="46.03492836634343" lon="13.212876949961709"><ele>86.0</ele><time>2026-04-06T06:18:48Z</time></trkpt><trkpt lat="46.03517592596628" lon="13.212944618097815"><ele>86.0</ele><time>2026-04-06T06:18:49Z</time></trkpt><trkpt lat="46.035420019869484" lon="13.213033884344215"><ele>86.0</ele><time>2026-04-06T06:18:50Z</time></trkpt><trkpt lat="46.035662469785926" lon="13.213139995585266"><ele>87.5</ele><time>2026-04-06T06:18:51Z</time></trkpt><trkpt lat="46.035904032875585" lon="13.21324803167194"><ele>89.0</ele><time>2026-04-06T06:18:52Z</time></trkpt><trkpt lat="46.03614466504523" lon="13.21335244801537"><ele>89.0</ele><time>2026-04-06T06:18:53Z</time></trkpt><trkpt lat="46.03638314420544" lon="13.213454656011157"><ele>89.0</ele><time>2026-04-06T06:18:54Z</time></trkpt><trkpt lat="46.036619499042246" lon="13.213551040283894"><ele>88.0</ele><time>2026-04-06T06:18:55Z</time></trkpt><trkpt lat="46.0368548912562" lon="13.213632256538833"><ele>87.0</ele><time>2026-04-06T06:18:56Z</time></trkpt><trkpt lat="46.03708949363777" lon="13.21368880810659"><ele>87.0</ele><time>2026-04-06T06:18:57Z</time></trkpt><trkpt lat="46.03732547670331" lon="13.213719612289704"><ele>87.0</ele><time>2026-04-06T06:18:58Z</time></trkpt><trkpt lat="46.0375602484854" lon="13.213727124360444"><ele>87.5</ele><time>2026-04-06T06:18:59Z</time></trkpt><trkpt lat="46.03779285100073" lon="13.21371457787073"><ele>88.0</ele><time>2026-04-06T06:19:00Z</time></trkpt><trkpt lat="46.03802490243081" lon="13.21367948088918"><ele>88.0</ele><time>2026-04-06T06:19:01Z</time></trkpt><trkpt lat="46.03825447970742" lon="13.213618363590202"><ele>88.0</ele><time>2026-04-06T06:19:02Z</time></trkpt><trkpt lat="46.03848306765527" lon="13.21352618015166"><ele>89.0</ele><time>2026-04-06T06:19:03Z</time></trkpt><trkpt lat="46.03870947813768" lon="13.213404551826367"><ele>90.0</ele><time>2026-04-06T06:19:04Z</time></trkpt><trkpt lat="46.03893486558476" lon="13.213266086814125"><ele>91.0</ele><time>2026-04-06T06:19:05Z</time></trkpt><trkpt lat="46.03916241660526" lon="13.213124748183372"><ele>92.0</ele><time>2026-04-06T06:19:06Z</time></trkpt><trkpt lat="46.039393437148206" lon="13.212985022620765"><ele>92.0</ele><time>2026-04-06T06:19:07Z</time></trkpt><trkpt lat="46.03962744915563" lon="13.212842637568235"><ele>92.0</ele><time>2026-04-06T06:19:08Z</time></trkpt><trkpt lat="46.039864533524934" lon="13.212702841929115"><ele>90.0</ele><time>2026-04-06T06:19:09Z</time></trkpt><trkpt lat="46.04010668379519" lon="13.212570952823569"><ele>88.0</ele><time>2026-04-06T06:19:10Z</time></trkpt><trkpt lat="46.040353368965526" lon="13.212454258442278"><ele>88.0</ele><time>2026-04-06T06:19:11Z</time></trkpt><trkpt lat="46.040603709188964" lon="13.212358284994835"><ele>88.0</ele><time>2026-04-06T06:19:12Z</time></trkpt><trkpt lat="46.04085296785253" lon="13.212273758581823"><ele>88.5</ele><time>2026-04-06T06:19:13Z</time></trkpt><trkpt lat="46.04110226893406" lon="13.212198645799178"><ele>89.0</ele><time>2026-04-06T06:19:14Z</time></trkpt><trkpt lat="46.04135241894295" lon="13.21212524690345"><ele>89.0</ele><time>2026-04-06T06:19:15Z</time></trkpt><trkpt lat="46.04160030286331" lon="13.212051719047778"><ele>89.0</ele><time>2026-04-06T06:19:16Z</time></trkpt><trkpt lat="46.04184734585836" lon="13.211974691744754"><ele>89.5</ele><time>2026-04-06T06:19:17Z</time></trkpt><trkpt lat="46.0420927988422" lon="13.211896929822442"><ele>90.0</ele><time>2026-04-06T06:19:18Z</time></trkpt><trkpt lat="46.042338888985135" lon="13.211818005695502"><ele>89.5</ele><time>2026-04-06T06:19:19Z</time></trkpt><trkpt lat="46.04258564382644" lon="13.211730508102447"><ele>89.0</ele><time>2026-04-06T06:19:20Z</time></trkpt><trkpt lat="46.0428289384602" lon="13.211626362774924"><ele>89.0</ele><time>2026-04-06T06:19:21Z</time></trkpt><trkpt lat="46.04307068997182" lon="13.211512603370725"><ele>89.0</ele><time>2026-04-06T06:19:22Z</time></trkpt><trkpt lat="46.04331271815079" lon="13.21139603999046"><ele>88.5</ele><time>2026-04-06T06:19:23Z</time></trkpt><trkpt lat="46.043554065929655" lon="13.211275363119466"><ele>88.0</ele><time>2026-04-06T06:19:24Z</time></trkpt><trkpt lat="46.04379362049619" lon="13.211145029876388"><ele>88.0</ele><time>2026-04-06T06:19:25Z</time></trkpt><trkpt lat="46.04403416764074" lon="13.211008339369407"><ele>88.0</ele><time>2026-04-06T06:19:26Z</time></trkpt><trkpt lat="46.04427312087034" lon="13.210867687516219"><ele>89.5</ele><time>2026-04-06T06:19:27Z</time></trkpt><trkpt lat="46.04450909070357" lon="13.210718799532561"><ele>91.0</ele><time>2026-04-06T06:19:28Z</time></trkpt><trkpt lat="46.04474229723956" lon="13.210559748693504"><ele>93.5</ele><time>2026-04-06T06:19:29Z</time></trkpt><trkpt lat="46.04497426139055" lon="13.210393834607078"><ele>96.0</ele><time>2026-04-06T06:19:30Z</time></trkpt><trkpt lat="46.0452042828978" lon="13.21022059476469"><ele>96.0</ele><time>2026-04-06T06:19:31Z</time></trkpt><trkpt lat="46.04543194772804" lon="13.210041532640572"><ele>96.0</ele><time>2026-04-06T06:19:32Z</time></trkpt><trkpt lat="46.04565822003783" lon="13.20985557524738"><ele>94.5</ele><time>2026-04-06T06:19:33Z</time></trkpt><trkpt lat="46.04588037528831" lon="13.209661200500324"><ele>93.0</ele><time>2026-04-06T06:19:34Z</time></trkpt><trkpt lat="46.04610168651671" lon="13.20946594358748"><ele>93.0</ele><time>2026-04-06T06:19:35Z</time></trkpt><trkpt lat="46.046323966535645" lon="13.209267497346136"><ele>93.0</ele><time>2026-04-06T06:19:36Z</time></trkpt><trkpt lat="46.046546363316956" lon="13.209067782698948"><ele>93.5</ele><time>2026-04-06T06:19:37Z</time></trkpt><trkpt lat="46.04676875696402" lon="13.20887052886868"><ele>94.0</ele><time>2026-04-06T06:19:38Z</time></trkpt><trkpt lat="46.046992203533556" lon="13.208672623457895"><ele>94.0</ele><time>2026-04-06T06:19:39Z</time></trkpt><trkpt lat="46.04721424681884" lon="13.20847036063888"><ele>94.0</ele><time>2026-04-06T06:19:40Z</time></trkpt><trkpt lat="46.04743272646164" lon="13.208256412550563"><ele>92.0</ele><time>2026-04-06T06:19:41Z</time></trkpt><trkpt lat="46.04764412884384" lon="13.208027212537903"><ele>90.0</ele><time>2026-04-06T06:19:42Z</time></trkpt><trkpt lat="46.04785416318913" lon="13.207785101079667"><ele>90.0</ele><time>2026-04-06T06:19:43Z</time></trkpt><trkpt lat="46.04804854644382" lon="13.20751868897986"><ele>90.0</ele><time>2026-04-06T06:19:44Z</time></trkpt><trkpt lat="46.048236635572465" lon="13.207248605983507"><ele>90.5</ele><time>2026-04-06T06:19:45Z</time></trkpt><trkpt lat="46.048422368695434" lon="13.2069724383139"><ele>91.0</ele><time>2026-04-06T06:19:46Z</time></trkpt><trkpt lat="46.04861289994405" lon="13.206697175288168"><ele>90.5</ele><time>2026-04-06T06:19:47Z</time></trkpt><trkpt lat="46.048804850503885" lon="13.20642361031687"><ele>90.0</ele><time>2026-04-06T06:19:48Z</time></trkpt><trkpt lat="46.04900042121799" lon="13.206157830621981"><ele>91.0</ele><time>2026-04-06T06:19:48.999Z</time></trkpt><trkpt lat="46.04920211516798" lon="13.205905699379143"><ele>92.0</ele><time>2026-04-06T06:19:49.999Z</time></trkpt><trkpt lat="46.049416735689725" lon="13.205675209111199"><ele>92.0</ele><time>2026-04-06T06:19:50.999Z</time></trkpt><trkpt lat="46.04963981181551" lon="13.205462367615604"><ele>92.0</ele><time>2026-04-06T06:19:51.999Z</time></trkpt><trkpt lat="46.04987037823981" lon="13.205267267399686"><ele>93.0</ele><time>2026-04-06T06:19:52.999Z</time></trkpt><trkpt lat="46.05010656195901" lon="13.205082338460347"><ele>94.0</ele><time>2026-04-06T06:19:53.999Z</time></trkpt><trkpt lat="46.050349923178594" lon="13.204906520483421"><ele>94.0</ele><time>2026-04-06T06:19:54.999Z</time></trkpt><trkpt lat="46.050593317391176" lon="13.204727943634401"><ele>94.0</ele><time>2026-04-06T06:19:55.999Z</time></trkpt><trkpt lat="46.05083842714083" lon="13.204543729148508"><ele>94.0</ele><time>2026-04-06T06:19:56.999Z</time></trkpt><trkpt lat="46.05108366425885" lon="13.204364187476633"><ele>94.0</ele><time>2026-04-06T06:19:57.999Z</time></trkpt><trkpt lat="46.051329698398206" lon="13.204186374813341"><ele>94.0</ele><time>2026-04-06T06:19:58.999Z</time></trkpt><trkpt lat="46.051576377950475" lon="13.204009135074953"><ele>94.0</ele><time>2026-04-06T06:19:59.999Z</time></trkpt><trkpt lat="46.051821401039874" lon="13.203828085808384"><ele>95.0</ele><time>2026-04-06T06:20:00.999Z</time></trkpt><trkpt lat="46.05206766781313" lon="13.203649893097145"><ele>96.0</ele><time>2026-04-06T06:20:01.999Z</time></trkpt><trkpt lat="46.052312964658114" lon="13.203471420570178"><ele>95.0</ele><time>2026-04-06T06:20:02.999Z</time></trkpt><trkpt lat="46.0525573540697" lon="13.203291685201638"><ele>94.0</ele><time>2026-04-06T06:20:03.999Z</time></trkpt><trkpt lat="46.0528019153197" lon="13.203115889985149"><ele>96.5</ele><time>2026-04-06T06:20:04.999Z</time></trkpt><trkpt lat="46.05304835474707" lon="13.20294422085497"><ele>99.0</ele><time>2026-04-06T06:20:05.999Z</time></trkpt><trkpt lat="46.0532950060245" lon="13.202770950270356"><ele>99.0</ele><time>2026-04-06T06:20:06.999Z</time></trkpt><trkpt lat="46.053540312711746" lon="13.202595798540491"><ele>99.0</ele><time>2026-04-06T06:20:07.999Z</time></trkpt><trkpt lat="46.05378395368129" lon="13.202423332650392"><ele>99.5</ele><time>2026-04-06T06:20:08.999Z</time></trkpt><trkpt lat="46.05402613054296" lon="13.202247928084388"><ele>100.0</ele><time>2026-04-06T06:20:09.999Z</time></trkpt><trkpt lat="46.054267789694556" lon="13.202068469002525"><ele>100.0</ele><time>2026-04-06T06:20:10.999Z</time></trkpt><trkpt lat="46.05451050722796" lon="13.201889363536045"><ele>100.0</ele><time>2026-04-06T06:20:11.999Z</time></trkpt><trkpt lat="46.05475387229174" lon="13.201711395760142"><ele>100.0</ele><time>2026-04-06T06:20:12.999Z</time></trkpt><trkpt lat="46.0549982578862" lon="13.20153527898978"><ele>100.0</ele><time>2026-04-06T06:20:13.999Z</time></trkpt><trkpt lat="46.05524017710016" lon="13.20135905872422"><ele>100.0</ele><time>2026-04-06T06:20:14.999Z</time></trkpt><trkpt lat="46.055480494037724" lon="13.201183086403178"><ele>100.0</ele><time>2026-04-06T06:20:15.999Z</time></trkpt><trkpt lat="46.05572194147648" lon="13.201008011700273"><ele>101.0</ele><time>2026-04-06T06:20:16.999Z</time></trkpt><trkpt lat="46.055962167195304" lon="13.200832930017068"><ele>102.0</ele><time>2026-04-06T06:20:17.999Z</time></trkpt><trkpt lat="46.05620206156379" lon="13.20065958866666"><ele>103.0</ele><time>2026-04-06T06:20:18.999Z</time></trkpt><trkpt lat="46.056441797483814" lon="13.20048967543973"><ele>104.0</ele><time>2026-04-06T06:20:19.999Z</time></trkpt><trkpt lat="46.05668195267796" lon="13.200321847772013"><ele>104.0</ele><time>2026-04-06T06:20:20.999Z</time></trkpt><trkpt lat="46.056921250128056" lon="13.200156388770047"><ele>104.0</ele><time>2026-04-06T06:20:21.999Z</time></trkpt><trkpt lat="46.057164449937424" lon="13.199996860627248"><ele>104.0</ele><time>2026-04-06T06:20:22.999Z</time></trkpt><trkpt lat="46.05740968429561" lon="13.19984657087817"><ele>104.0</ele><time>2026-04-06T06:20:23.999Z</time></trkpt><trkpt lat="46.057657112569785" lon="13.199705175318675"><ele>104.0</ele><time>2026-04-06T06:20:24.999Z</time></trkpt><trkpt lat="46.057906572560206" lon="13.199573478141291"><ele>104.0</ele><time>2026-04-06T06:20:25.999Z</time></trkpt><trkpt lat="46.05815727014238" lon="13.199448159712833"><ele>103.5</ele><time>2026-04-06T06:20:26.999Z</time></trkpt><trkpt lat="46.058409472684666" lon="13.199330045062323"><ele>103.0</ele><time>2026-04-06T06:20:27.999Z</time></trkpt><trkpt lat="46.05866799799313" lon="13.19922486351737"><ele>103.0</ele><time>2026-04-06T06:20:28.999Z</time></trkpt><trkpt lat="46.05892951469567" lon="13.199124021629569"><ele>103.0</ele><time>2026-04-06T06:20:29.999Z</time></trkpt><trkpt lat="46.059193007445344" lon="13.199033278868344"><ele>104.5</ele><time>2026-04-06T06:20:30.999Z</time></trkpt><trkpt lat="46.05945784044344" lon="13.198952752592984"><ele>106.0</ele><time>2026-04-06T06:20:31.999Z</time></trkpt><trkpt lat="46.05972528941307" lon="13.198876351473633"><ele>106.0</ele><time>2026-04-06T06:20:32.999Z</time></trkpt><trkpt lat="46.05999680598675" lon="13.198810241736124"><ele>106.0</ele><time>2026-04-06T06:20:33.999Z</time></trkpt><trkpt lat="46.0602709125858" lon="13.198758293089748"><ele>106.0</ele><time>2026-04-06T06:20:34.999Z</time></trkpt><trkpt lat="46.06054736233986" lon="13.198717299098577"><ele>106.0</ele><time>2026-04-06T06:20:35.999Z</time></trkpt><trkpt lat="46.06082354952745" lon="13.198680812165616"><ele>104.0</ele><time>2026-04-06T06:20:36.999Z</time></trkpt><trkpt lat="46.06109936477301" lon="13.198643249271884"><ele>102.0</ele><time>2026-04-06T06:20:37.999Z</time></trkpt><trkpt lat="46.06137709999961" lon="13.198606911369724"><ele>101.0</ele><time>2026-04-06T06:20:38.999Z</time></trkpt><trkpt lat="46.06165342671928" lon="13.198571705950002"><ele>100.0</ele><time>2026-04-06T06:20:39.999Z</time></trkpt><trkpt lat="46.061931310949305" lon="13.198538200229367"><ele>100.0</ele><time>2026-04-06T06:20:40.999Z</time></trkpt><trkpt lat="46.06220867582763" lon="13.19850625005344"><ele>100.0</ele><time>2026-04-06T06:20:41.999Z</time></trkpt><trkpt lat="46.06248290309823" lon="13.198468194416662"><ele>102.5</ele><time>2026-04-06T06:20:42.999Z</time></trkpt><trkpt lat="46.06275598464471" lon="13.198431028683006"><ele>105.0</ele><time>2026-04-06T06:20:43.999Z</time></trkpt><trkpt lat="46.063028216540815" lon="13.198399696244577"><ele>105.0</ele><time>2026-04-06T06:20:44.999Z</time></trkpt><trkpt lat="46.06330133303643" lon="13.19837639781376"><ele>105.0</ele><time>2026-04-06T06:20:45.999Z</time></trkpt><trkpt lat="46.06357350767664" lon="13.198352518095483"><ele>105.0</ele><time>2026-04-06T06:20:46.999Z</time></trkpt><trkpt lat="46.06384592914583" lon="13.198317384492105"><ele>105.0</ele><time>2026-04-06T06:20:47.999Z</time></trkpt><trkpt lat="46.064118403541805" lon="13.19828306942763"><ele>104.5</ele><time>2026-04-06T06:20:48.999Z</time></trkpt><trkpt lat="46.06439083077509" lon="13.19824909956502"><ele>104.0</ele><time>2026-04-06T06:20:49.999Z</time></trkpt><trkpt lat="46.064664549180286" lon="13.198214140289002"><ele>104.0</ele><time>2026-04-06T06:20:50.999Z</time></trkpt><trkpt lat="46.064938899750985" lon="13.198179072127106"><ele>104.0</ele><time>2026-04-06T06:20:51.999Z</time></trkpt><trkpt lat="46.06521412870043" lon="13.198147173554482"><ele>105.0</ele><time>2026-04-06T06:20:52.999Z</time></trkpt><trkpt lat="46.065490052257246" lon="13.198112613787572"><ele>106.0</ele><time>2026-04-06T06:20:54Z</time></trkpt><trkpt lat="46.06576602906978" lon="13.198075830726879"><ele>105.5</ele><time>2026-04-06T06:20:55Z</time></trkpt><trkpt lat="46.06604391724143" lon="13.19803724303322"><ele>105.0</ele><time>2026-04-06T06:20:56Z</time></trkpt><trkpt lat="46.0663232093147" lon="13.197998711560553"><ele>105.0</ele><time>2026-04-06T06:20:57Z</time></trkpt><trkpt lat="46.066605110520065" lon="13.19796379735477"><ele>105.0</ele><time>2026-04-06T06:20:58Z</time></trkpt><trkpt lat="46.06688703960042" lon="13.197927806521687"><ele>106.0</ele><time>2026-04-06T06:20:59Z</time></trkpt><trkpt lat="46.06717041615093" lon="13.197891571589249"><ele>107.0</ele><time>2026-04-06T06:21:00Z</time></trkpt><trkpt lat="46.067455121202975" lon="13.197857669600355"><ele>108.0</ele><time>2026-04-06T06:21:01Z</time></trkpt><trkpt lat="46.0677397028947" lon="13.197820878178655"><ele>109.0</ele><time>2026-04-06T06:21:02Z</time></trkpt><trkpt lat="46.06802627689011" lon="13.19778008540071"><ele>108.0</ele><time>2026-04-06T06:21:03Z</time></trkpt><trkpt lat="46.068314646025456" lon="13.197741958608294"><ele>107.0</ele><time>2026-04-06T06:21:04Z</time></trkpt><trkpt lat="46.068603916596224" lon="13.19770471805485"><ele>107.0</ele><time>2026-04-06T06:21:05Z</time></trkpt><trkpt lat="46.0688944181323" lon="13.197669869715932"><ele>107.0</ele><time>2026-04-06T06:21:06Z</time></trkpt><trkpt lat="46.06918571789666" lon="13.19763281834481"><ele>108.0</ele><time>2026-04-06T06:21:07Z</time></trkpt><trkpt lat="46.06947677236525" lon="13.197594311671246"><ele>109.0</ele><time>2026-04-06T06:21:08Z</time></trkpt><trkpt lat="46.06976689055891" lon="13.197553380080075"><ele>108.0</ele><time>2026-04-06T06:21:09Z</time></trkpt><trkpt lat="46.07006091748489" lon="13.197513963922724"><ele>107.0</ele><time>2026-04-06T06:21:10Z</time></trkpt><trkpt lat="46.07035181936198" lon="13.197474455873497"><ele>107.0</ele><time>2026-04-06T06:21:11Z</time></trkpt><trkpt lat="46.07064387514692" lon="13.197433379065899"><ele>107.0</ele><time>2026-04-06T06:21:12Z</time></trkpt><trkpt lat="46.070938112537284" lon="13.197396601036402"><ele>107.0</ele><time>2026-04-06T06:21:13Z</time></trkpt><trkpt lat="46.0712322994787" lon="13.197357350213037"><ele>107.0</ele><time>2026-04-06T06:21:14Z</time></trkpt><trkpt lat="46.07152781543361" lon="13.197319893020167"><ele>108.0</ele><time>2026-04-06T06:21:15Z</time></trkpt><trkpt lat="46.071824138999204" lon="13.197283681505626"><ele>109.0</ele><time>2026-04-06T06:21:16Z</time></trkpt><trkpt lat="46.07211969686781" lon="13.197243660965905"><ele>109.0</ele><time>2026-04-06T06:21:17Z</time></trkpt><trkpt lat="46.072417311537556" lon="13.197197220640305"><ele>109.0</ele><time>2026-04-06T06:21:18Z</time></trkpt><trkpt lat="46.07271449296322" lon="13.197146643048184"><ele>110.5</ele><time>2026-04-06T06:21:19Z</time></trkpt><trkpt lat="46.07301044493016" lon="13.197084571819623"><ele>112.0</ele><time>2026-04-06T06:21:20Z</time></trkpt><trkpt lat="46.07330614686293" lon="13.197009882928798"><ele>112.0</ele><time>2026-04-06T06:21:21Z</time></trkpt><trkpt lat="46.073598879047196" lon="13.196913935306428"><ele>112.0</ele><time>2026-04-06T06:21:22Z</time></trkpt><trkpt lat="46.073888694533885" lon="13.196800568485271"><ele>110.5</ele><time>2026-04-06T06:21:23Z</time></trkpt><trkpt lat="46.07417617877679" lon="13.196670441724894"><ele>109.0</ele><time>2026-04-06T06:21:24Z</time></trkpt><trkpt lat="46.07446059209026" lon="13.19652238381777"><ele>109.5</ele><time>2026-04-06T06:21:25Z</time></trkpt><trkpt lat="46.07474370990345" lon="13.19635824539905"><ele>110.0</ele><time>2026-04-06T06:21:26Z</time></trkpt><trkpt lat="46.07502698051473" lon="13.196178573116658"><ele>110.0</ele><time>2026-04-06T06:21:27Z</time></trkpt><trkpt lat="46.07530417928939" lon="13.195980878249284"><ele>110.0</ele><time>2026-04-06T06:21:28Z</time></trkpt><trkpt lat="46.07557194493323" lon="13.195764509915094"><ele>111.0</ele><time>2026-04-06T06:21:29Z</time></trkpt><trkpt lat="46.075835526679086" lon="13.195529511832397"><ele>112.0</ele><time>2026-04-06T06:21:30Z</time></trkpt><trkpt lat="46.07609597918924" lon="13.19528417805322"><ele>112.0</ele><time>2026-04-06T06:21:31Z</time></trkpt><trkpt lat="46.07635638247053" lon="13.195028714538207"><ele>112.0</ele><time>2026-04-06T06:21:32Z</time></trkpt><trkpt lat="46.0766157745179" lon="13.194773603639693"><ele>111.0</ele><time>2026-04-06T06:21:33Z</time></trkpt><trkpt lat="46.076877416380825" lon="13.194519613628234"><ele>110.0</ele><time>2026-04-06T06:21:34Z</time></trkpt><trkpt lat="46.07713829234511" lon="13.194266911874086"><ele>110.0</ele><time>2026-04-06T06:21:35Z</time></trkpt><trkpt lat="46.077399645394614" lon="13.194012134105117"><ele>110.0</ele><time>2026-04-06T06:21:36Z</time></trkpt><trkpt lat="46.07765991286296" lon="13.193761136735802"><ele>109.0</ele><time>2026-04-06T06:21:37Z</time></trkpt><trkpt lat="46.07791902142516" lon="13.193510083053578"><ele>108.0</ele><time>2026-04-06T06:21:38Z</time></trkpt><trkpt lat="46.07817574947716" lon="13.19325437629064"><ele>108.5</ele><time>2026-04-06T06:21:39Z</time></trkpt><trkpt lat="46.07843645206995" lon="13.193005484163926"><ele>109.0</ele><time>2026-04-06T06:21:40Z</time></trkpt><trkpt lat="46.07870336197711" lon="13.19277208731244"><ele>109.0</ele><time>2026-04-06T06:21:41Z</time></trkpt><trkpt lat="46.07898048175778" lon="13.192565262844179"><ele>109.0</ele><time>2026-04-06T06:21:42Z</time></trkpt><trkpt lat="46.07926425333448" lon="13.192380541241254"><ele>107.5</ele><time>2026-04-06T06:21:43Z</time></trkpt><trkpt lat="46.07955419029278" lon="13.192214254341652"><ele>106.0</ele><time>2026-04-06T06:21:44Z</time></trkpt><trkpt lat="46.07984936781293" lon="13.192067157727918"><ele>106.5</ele><time>2026-04-06T06:21:45Z</time></trkpt><trkpt lat="46.08014727066861" lon="13.191942468016883"><ele>107.0</ele><time>2026-04-06T06:21:46Z</time></trkpt><trkpt lat="46.0804490673353" lon="13.191836765528368"><ele>107.0</ele><time>2026-04-06T06:21:47Z</time></trkpt><trkpt lat="46.080753154602434" lon="13.191751611121635"><ele>107.0</ele><time>2026-04-06T06:21:48Z</time></trkpt><trkpt lat="46.08105698705921" lon="13.19168916456379"><ele>109.0</ele><time>2026-04-06T06:21:49Z</time></trkpt><trkpt lat="46.081362160508625" lon="13.191647981049892"><ele>111.0</ele><time>2026-04-06T06:21:50Z</time></trkpt><trkpt lat="46.08166695939305" lon="13.19162851404082"><ele>111.0</ele><time>2026-04-06T06:21:51Z</time></trkpt><trkpt lat="46.081971507028854" lon="13.191628522455192"><ele>111.0</ele><time>2026-04-06T06:21:51.999Z</time></trkpt><trkpt lat="46.08227416495554" lon="13.191648210009214"><ele>113.5</ele><time>2026-04-06T06:21:52.999Z</time></trkpt><trkpt lat="46.08257390769492" lon="13.191686161197484"><ele>116.0</ele><time>2026-04-06T06:21:53.999Z</time></trkpt><trkpt lat="46.08287198343617" lon="13.191743203700934"><ele>116.0</ele><time>2026-04-06T06:21:54.999Z</time></trkpt><trkpt lat="46.0831669751393" lon="13.191816266045821"><ele>116.0</ele><time>2026-04-06T06:21:55.999Z</time></trkpt><trkpt lat="46.08345637460993" lon="13.191913538097001"><ele>117.0</ele><time>2026-04-06T06:21:56.999Z</time></trkpt><trkpt lat="46.083744283409125" lon="13.192025838047972"><ele>118.0</ele><time>2026-04-06T06:21:57.999Z</time></trkpt><trkpt lat="46.08403075311531" lon="13.192152274789642"><ele>117.5</ele><time>2026-04-06T06:21:58.999Z</time></trkpt><trkpt lat="46.08431475162387" lon="13.192292123635484"><ele>117.0</ele><time>2026-04-06T06:21:59.999Z</time></trkpt><trkpt lat="46.08459871194315" lon="13.192433723250955"><ele>116.5</ele><time>2026-04-06T06:22:00.999Z</time></trkpt><trkpt lat="46.084883408925975" lon="13.192568768873066"><ele>116.0</ele><time>2026-04-06T06:22:01.999Z</time></trkpt><trkpt lat="46.08516829950404" lon="13.192703232641737"><ele>115.0</ele><time>2026-04-06T06:22:02.999Z</time></trkpt><trkpt lat="46.08545325580434" lon="13.192839874621825"><ele>114.0</ele><time>2026-04-06T06:22:03.999Z</time></trkpt><trkpt lat="46.08573795136705" lon="13.192976374676464"><ele>113.5</ele><time>2026-04-06T06:22:04.999Z</time></trkpt><trkpt lat="46.08602352907789" lon="13.193112480099481"><ele>113.0</ele><time>2026-04-06T06:22:05.999Z</time></trkpt><trkpt lat="46.08630835847687" lon="13.193246515498268"><ele>115.0</ele><time>2026-04-06T06:22:06.999Z</time></trkpt><trkpt lat="46.08659137067813" lon="13.193381333075925"><ele>117.0</ele><time>2026-04-06T06:22:07.999Z</time></trkpt><trkpt lat="46.086871857131555" lon="13.193516983851438"><ele>117.0</ele><time>2026-04-06T06:22:08.999Z</time></trkpt><trkpt lat="46.08715233634238" lon="13.193652519230639"><ele>117.0</ele><time>2026-04-06T06:22:09.999Z</time></trkpt><trkpt lat="46.087432649621036" lon="13.193788104427924"><ele>117.5</ele><time>2026-04-06T06:22:10.999Z</time></trkpt><trkpt lat="46.087713198646625" lon="13.193922701753833"><ele>118.0</ele><time>2026-04-06T06:22:11.999Z</time></trkpt><trkpt lat="46.0879931722677" lon="13.19405884187788"><ele>118.5</ele><time>2026-04-06T06:22:12.999Z</time></trkpt><trkpt lat="46.08827446388582" lon="13.19419204635095"><ele>119.0</ele><time>2026-04-06T06:22:13.999Z</time></trkpt><trkpt lat="46.08855969734678" lon="13.194323841313699"><ele>119.0</ele><time>2026-04-06T06:22:14.999Z</time></trkpt><trkpt lat="46.08884513294196" lon="13.19445779853317"><ele>119.0</ele><time>2026-04-06T06:22:15.999Z</time></trkpt><trkpt lat="46.08913116665476" lon="13.194595624029064"><ele>119.0</ele><time>2026-04-06T06:22:16.999Z</time></trkpt><trkpt lat="46.089417480174895" lon="13.194737867916004"><ele>119.0</ele><time>2026-04-06T06:22:17.999Z</time></trkpt><trkpt lat="46.08970665736251" lon="13.1948790357927"><ele>119.5</ele><time>2026-04-06T06:22:18.999Z</time></trkpt><trkpt lat="46.08999731704559" lon="13.195015417224866"><ele>120.0</ele><time>2026-04-06T06:22:19.999Z</time></trkpt><trkpt lat="46.09028781720549" lon="13.19515271359373"><ele>120.0</ele><time>2026-04-06T06:22:20.999Z</time></trkpt><trkpt lat="46.09057699493319" lon="13.195292012642092"><ele>120.0</ele><time>2026-04-06T06:22:21.999Z</time></trkpt><trkpt lat="46.0908670197492" lon="13.195432194875586"><ele>119.5</ele><time>2026-04-06T06:22:22.999Z</time></trkpt><trkpt lat="46.09115690025412" lon="13.195570414616535"><ele>119.0</ele><time>2026-04-06T06:22:23.999Z</time></trkpt><trkpt lat="46.091448982583394" lon="13.195705306489005"><ele>120.5</ele><time>2026-04-06T06:22:24.999Z</time></trkpt><trkpt lat="46.09173965024973" lon="13.19584212121874"><ele>122.0</ele><time>2026-04-06T06:22:25.999Z</time></trkpt><trkpt lat="46.09203034559502" lon="13.195982674617142"><ele>122.0</ele><time>2026-04-06T06:22:26.999Z</time></trkpt><trkpt lat="46.09232074827224" lon="13.196123736191387"><ele>122.0</ele><time>2026-04-06T06:22:27.999Z</time></trkpt><trkpt lat="46.09261357485289" lon="13.196264914766042"><ele>121.5</ele><time>2026-04-06T06:22:28.999Z</time></trkpt><trkpt lat="46.09290705414743" lon="13.196403987379918"><ele>121.0</ele><time>2026-04-06T06:22:29.999Z</time></trkpt><trkpt lat="46.09320027364589" lon="13.196542339241613"><ele>120.5</ele><time>2026-04-06T06:22:30.999Z</time></trkpt><trkpt lat="46.09349349167956" lon="13.196682291280775"><ele>120.0</ele><time>2026-04-06T06:22:31.999Z</time></trkpt><trkpt lat="46.09378875180437" lon="13.19682406584559"><ele>120.0</ele><time>2026-04-06T06:22:32.999Z</time></trkpt><trkpt lat="46.094082678990254" lon="13.196963253886201"><ele>120.0</ele><time>2026-04-06T06:22:33.999Z</time></trkpt><trkpt lat="46.094376640449156" lon="13.197101705190974"><ele>120.0</ele><time>2026-04-06T06:22:34.999Z</time></trkpt><trkpt lat="46.094670849739046" lon="13.197243890802385"><ele>120.0</ele><time>2026-04-06T06:22:35.999Z</time></trkpt><trkpt lat="46.0949656347246" lon="13.197387232888643"><ele>120.0</ele><time>2026-04-06T06:22:36.999Z</time></trkpt><trkpt lat="46.095261683918864" lon="13.197529905795474"><ele>120.0</ele><time>2026-04-06T06:22:37.999Z</time></trkpt><trkpt lat="46.09555754797706" lon="13.197671643565801"><ele>121.0</ele><time>2026-04-06T06:22:38.999Z</time></trkpt><trkpt lat="46.0958527206855" lon="13.197812780624172"><ele>122.0</ele><time>2026-04-06T06:22:39.999Z</time></trkpt><trkpt lat="46.09614841354163" lon="13.197952110590409"><ele>122.0</ele><time>2026-04-06T06:22:40.999Z</time></trkpt><trkpt lat="46.09644397816263" lon="13.198091394457117"><ele>122.0</ele><time>2026-04-06T06:22:41.999Z</time></trkpt><trkpt lat="46.09673887444177" lon="13.198231552598957"><ele>121.5</ele><time>2026-04-06T06:22:42.999Z</time></trkpt><trkpt lat="46.097030470501615" lon="13.198371843161452"><ele>121.0</ele><time>2026-04-06T06:22:43.999Z</time></trkpt><trkpt lat="46.097320369090625" lon="13.198511996185356"><ele>122.5</ele><time>2026-04-06T06:22:44.999Z</time></trkpt><trkpt lat="46.09760756300833" lon="13.19865307209221"><ele>124.0</ele><time>2026-04-06T06:22:45.999Z</time></trkpt><trkpt lat="46.097893249072456" lon="13.19879339004527"><ele>124.0</ele><time>2026-04-06T06:22:46.999Z</time></trkpt><trkpt lat="46.098180502938924" lon="13.198929298836756"><ele>124.0</ele><time>2026-04-06T06:22:47.999Z</time></trkpt><trkpt lat="46.098465183466836" lon="13.199064045773666"><ele>123.5</ele><time>2026-04-06T06:22:48.999Z</time></trkpt><trkpt lat="46.09874925673854" lon="13.199200345822023"><ele>123.0</ele><time>2026-04-06T06:22:49.999Z</time></trkpt><trkpt lat="46.0990329881004" lon="13.19933688834796"><ele>122.0</ele><time>2026-04-06T06:22:50.999Z</time></trkpt><trkpt lat="46.09931624704433" lon="13.199472679555312"><ele>121.0</ele><time>2026-04-06T06:22:51.999Z</time></trkpt><trkpt lat="46.09959838265388" lon="13.199607811870422"><ele>121.0</ele><time>2026-04-06T06:22:52.999Z</time></trkpt><trkpt lat="46.09987580912285" lon="13.199740271886172"><ele>121.0</ele><time>2026-04-06T06:22:53.999Z</time></trkpt><trkpt lat="46.10012972888641" lon="13.199862665831146"><ele>122.0</ele><time>2026-04-06T06:22:54.999Z</time></trkpt><trkpt lat="46.100366512446165" lon="13.199975688337027"><ele>123.0</ele><time>2026-04-06T06:22:55.999Z</time></trkpt><trkpt lat="46.10058259096698" lon="13.200081590101886"><ele>123.66666666666666</ele><time>2026-04-06T06:22:56.999Z</time></trkpt><trkpt lat="46.100787720802884" lon="13.200188474307568"><ele>124.33333333333333</ele><time>2026-04-06T06:22:57.999Z</time></trkpt><trkpt lat="46.10098100532382" lon="13.200294895685191"><ele>125.0</ele><time>2026-04-06T06:22:58.999Z</time></trkpt><trkpt lat="46.10115876632261" lon="13.200385971459902"><ele>125.0</ele><time>2026-04-06T06:23:00Z</time></trkpt><trkpt lat="46.10131900654698" lon="13.20046501307683"><ele>125.0</ele><time>2026-04-06T06:23:01Z</time></trkpt><trkpt lat="46.10146989834184" lon="13.200535354314358"><ele>125.0</ele><time>2026-04-06T06:23:02Z</time></trkpt><trkpt lat="46.10162789626974" lon="13.20061433285959"><ele>124.33333333333333</ele><time>2026-04-06T06:23:03Z</time></trkpt><trkpt lat="46.10177553659902" lon="13.200691229241846"><ele>123.66666666666666</ele><time>2026-04-06T06:23:04Z</time></trkpt><trkpt lat="46.10191365864841" lon="13.20076999306696"><ele>123.0</ele><time>2026-04-06T06:23:05Z</time></trkpt><trkpt lat="46.10203809076002" lon="13.200881231636922"><ele>123.0</ele><time>2026-04-06T06:23:06Z</time></trkpt><trkpt lat="46.1021466018915" lon="13.2010372191864"><ele>123.0</ele><time>2026-04-06T06:23:07Z</time></trkpt><trkpt lat="46.10223162506207" lon="13.20123144116512"><ele>123.0</ele><time>2026-04-06T06:23:08Z</time></trkpt><trkpt lat="46.10228382699448" lon="13.201450485485509"><ele>123.0</ele><time>2026-04-06T06:23:09Z</time></trkpt><trkpt lat="46.1022989311416" lon="13.201674087070645"><ele>123.0</ele><time>2026-04-06T06:23:10Z</time></trkpt><trkpt lat="46.10228175545768" lon="13.201909653806904"><ele>123.0</ele><time>2026-04-06T06:23:11Z</time></trkpt><trkpt lat="46.10224860341138" lon="13.202153333440606"><ele>123.25</ele><time>2026-04-06T06:23:12Z</time></trkpt><trkpt lat="46.10223082200566" lon="13.202374235646642"><ele>123.5</ele><time>2026-04-06T06:23:13Z</time></trkpt><trkpt lat="46.1022154820474" lon="13.202570929146765"><ele>123.75</ele><time>2026-04-06T06:23:14Z</time></trkpt><trkpt lat="46.10220459541071" lon="13.20273284362818"><ele>124.0</ele><time>2026-04-06T06:23:15Z</time></trkpt><trkpt lat="46.10220008200436" lon="13.202877640945122"><ele>124.00000000000001</ele><time>2026-04-06T06:23:16Z</time></trkpt><trkpt lat="46.102213472603246" lon="13.203004118674299"><ele>124.0</ele><time>2026-04-06T06:23:17Z</time></trkpt><trkpt lat="46.10223166104624" lon="13.2031152278208"><ele>124.0</ele><time>2026-04-06T06:23:18Z</time></trkpt><trkpt lat="46.10224915363356" lon="13.203206785292217"><ele>124.0</ele><time>2026-04-06T06:23:19Z</time></trkpt><trkpt lat="46.102285215415286" lon="13.203358114101677"><ele>124.00000000000001</ele><time>2026-04-06T06:23:21Z</time></trkpt><trkpt lat="46.1023438952728" lon="13.203473439610873"><ele>124.0</ele><time>2026-04-06T06:23:23Z</time></trkpt><trkpt lat="46.102396840514544" lon="13.203558339138732"><ele>124.6</ele><time>2026-04-06T06:23:25Z</time></trkpt><trkpt lat="46.10246116238833" lon="13.20365353305916"><ele>125.2</ele><time>2026-04-06T06:23:27Z</time></trkpt><trkpt lat="46.1026050796224" lon="13.203554708324665"><ele>125.79999999999998</ele><time>2026-04-06T06:23:29Z</time></trkpt><trkpt lat="46.10266997576967" lon="13.20347401912202"><ele>126.39999999999999</ele><time>2026-04-06T06:23:30Z</time></trkpt><trkpt lat="46.102738361764025" lon="13.203388375329997"><ele>127.0</ele><time>2026-04-06T06:23:31Z</time></trkpt><trkpt lat="46.10281348056532" lon="13.203285717595842"><ele>127.0</ele><time>2026-04-06T06:23:32Z</time></trkpt><trkpt lat="46.102901291225194" lon="13.203202287012962"><ele>126.99999999999999</ele><time>2026-04-06T06:23:33Z</time></trkpt><trkpt lat="46.102978829498795" lon="13.203104729873981"><ele>126.99999999999999</ele><time>2026-04-06T06:23:34Z</time></trkpt><trkpt lat="46.10306071041412" lon="13.203001494085857"><ele>127.0</ele><time>2026-04-06T06:23:35Z</time></trkpt><trkpt lat="46.10314914456274" lon="13.20288976905276"><ele>127.0</ele><time>2026-04-06T06:23:36Z</time></trkpt><trkpt lat="46.10324818600772" lon="13.202764635780074"><ele>127.25</ele><time>2026-04-06T06:23:37Z</time></trkpt><trkpt lat="46.10334143583261" lon="13.202606265813355"><ele>127.5</ele><time>2026-04-06T06:23:38Z</time></trkpt><trkpt lat="46.10345153213005" lon="13.20245932309974"><ele>127.75</ele><time>2026-04-06T06:23:39Z</time></trkpt><trkpt lat="46.103559592346336" lon="13.202320811122188"><ele>128.0</ele><time>2026-04-06T06:23:40Z</time></trkpt><trkpt lat="46.10366269968315" lon="13.202191109304373"><ele>127.75</ele><time>2026-04-06T06:23:41Z</time></trkpt><trkpt lat="46.103764290746" lon="13.202060831677924"><ele>127.5</ele><time>2026-04-06T06:23:42Z</time></trkpt><trkpt lat="46.103886286735" lon="13.201952471107113"><ele>127.25</ele><time>2026-04-06T06:23:43Z</time></trkpt><trkpt lat="46.10401104238437" lon="13.201791036702495"><ele>127.0</ele><time>2026-04-06T06:23:44Z</time></trkpt><trkpt lat="46.10415176566337" lon="13.201610338425963"><ele>127.0</ele><time>2026-04-06T06:23:45Z</time></trkpt><trkpt lat="46.10429103240361" lon="13.2014295326739"><ele>127.0</ele><time>2026-04-06T06:23:46Z</time></trkpt><trkpt lat="46.10446370333912" lon="13.201207059537367"><ele>127.0</ele><time>2026-04-06T06:23:47Z</time></trkpt><trkpt lat="46.104629495120854" lon="13.200992276997574"><ele>127.0</ele><time>2026-04-06T06:23:48Z</time></trkpt><trkpt lat="46.104798859557114" lon="13.200774649295479"><ele>127.0</ele><time>2026-04-06T06:23:49Z</time></trkpt><trkpt lat="46.10497314870626" lon="13.200552369126843"><ele>128.0</ele><time>2026-04-06T06:23:50Z</time></trkpt><trkpt lat="46.10515369405101" lon="13.20032202518205"><ele>129.0</ele><time>2026-04-06T06:23:51Z</time></trkpt><trkpt lat="46.105361185253955" lon="13.200057231875995"><ele>128.5</ele><time>2026-04-06T06:23:52Z</time></trkpt><trkpt lat="46.10560761176683" lon="13.199741041778685"><ele>128.0</ele><time>2026-04-06T06:23:53Z</time></trkpt><trkpt lat="46.10587475589771" lon="13.199399333165113"><ele>128.0</ele><time>2026-04-06T06:23:54Z</time></trkpt><trkpt lat="46.10614195445183" lon="13.199052991936105"><ele>128.0</ele><time>2026-04-06T06:23:55Z</time></trkpt><trkpt lat="46.10640684268985" lon="13.198715666080107"><ele>128.0</ele><time>2026-04-06T06:23:55.999Z</time></trkpt><trkpt lat="46.10666639183541" lon="13.198387718323133"><ele>128.0</ele><time>2026-04-06T06:23:56.999Z</time></trkpt><trkpt lat="46.106903169019134" lon="13.19808120106324"><ele>128.0</ele><time>2026-04-06T06:23:57.999Z</time></trkpt><trkpt lat="46.107118774969244" lon="13.197796639704464"><ele>128.0</ele><time>2026-04-06T06:23:58.999Z</time></trkpt><trkpt lat="46.10731884531187" lon="13.197540730810859"><ele>128.0</ele><time>2026-04-06T06:23:59.999Z</time></trkpt><trkpt lat="46.10751137424198" lon="13.197320944226693"><ele>128.0</ele><time>2026-04-06T06:24:00.999Z</time></trkpt><trkpt lat="46.107706460086376" lon="13.197138210176126"><ele>128.0</ele><time>2026-04-06T06:24:01.999Z</time></trkpt><trkpt lat="46.10791158927354" lon="13.196991477735718"><ele>128.0</ele><time>2026-04-06T06:24:02.999Z</time></trkpt><trkpt lat="46.10812097805871" lon="13.196878807630005"><ele>129.0</ele><time>2026-04-06T06:24:03.999Z</time></trkpt><trkpt lat="46.108343126294315" lon="13.196793775464865"><ele>130.0</ele><time>2026-04-06T06:24:04.999Z</time></trkpt><trkpt lat="46.108572636725185" lon="13.196737731009152"><ele>130.0</ele><time>2026-04-06T06:24:05.999Z</time></trkpt><trkpt lat="46.108805948063264" lon="13.196715290766578"><ele>130.0</ele><time>2026-04-06T06:24:06.999Z</time></trkpt><trkpt lat="46.109036579975374" lon="13.196732897217863"><ele>129.66666666666669</ele><time>2026-04-06T06:24:07.999Z</time></trkpt><trkpt lat="46.10925746015421" lon="13.19678438736064"><ele>129.33333333333334</ele><time>2026-04-06T06:24:08.999Z</time></trkpt><trkpt lat="46.10946691622694" lon="13.19685083795945"><ele>129.0</ele><time>2026-04-06T06:24:09.999Z</time></trkpt><trkpt lat="46.109666691292766" lon="13.196920715105058"><ele>129.0</ele><time>2026-04-06T06:24:10.999Z</time></trkpt><trkpt lat="46.10985979964536" lon="13.19699220452882"><ele>129.0</ele><time>2026-04-06T06:24:11.999Z</time></trkpt><trkpt lat="46.110051172154336" lon="13.197062507892928"><ele>129.0</ele><time>2026-04-06T06:24:12.999Z</time></trkpt><trkpt lat="46.110240278653535" lon="13.197129155390412"><ele>128.66666666666666</ele><time>2026-04-06T06:24:13.999Z</time></trkpt><trkpt lat="46.11042595113548" lon="13.197196321018938"><ele>128.33333333333331</ele><time>2026-04-06T06:24:14.999Z</time></trkpt><trkpt lat="46.110607240969635" lon="13.19726118943164"><ele>128.0</ele><time>2026-04-06T06:24:15.999Z</time></trkpt><trkpt lat="46.11078642623023" lon="13.197324394104117"><ele>128.66666666666666</ele><time>2026-04-06T06:24:16.999Z</time></trkpt><trkpt lat="46.11096432655063" lon="13.197388964737119"><ele>129.33333333333334</ele><time>2026-04-06T06:24:17.999Z</time></trkpt><trkpt lat="46.111140320906074" lon="13.197450817895367"><ele>130.0</ele><time>2026-04-06T06:24:18.999Z</time></trkpt><trkpt lat="46.11131597352827" lon="13.197509791861492"><ele>130.0</ele><time>2026-04-06T06:24:19.999Z</time></trkpt><trkpt lat="46.11149392033563" lon="13.197571159452485"><ele>130.0</ele><time>2026-04-06T06:24:20.999Z</time></trkpt><trkpt lat="46.111672293315" lon="13.197634657321851"><ele>130.0</ele><time>2026-04-06T06:24:21.999Z</time></trkpt><trkpt lat="46.1118491855802" lon="13.197711755162661"><ele>130.0</ele><time>2026-04-06T06:24:22.999Z</time></trkpt><trkpt lat="46.1120367036195" lon="13.19772036106566"><ele>130.0</ele><time>2026-04-06T06:24:23.999Z</time></trkpt><trkpt lat="46.11222318582818" lon="13.197729601209717"><ele>130.0</ele><time>2026-04-06T06:24:24.999Z</time></trkpt><trkpt lat="46.11240522424659" lon="13.197719231922319"><ele>129.66666666666669</ele><time>2026-04-06T06:24:25.999Z</time></trkpt><trkpt lat="46.11258714599935" lon="13.197694494091202"><ele>129.33333333333334</ele><time>2026-04-06T06:24:26.999Z</time></trkpt><trkpt lat="46.11276860237264" lon="13.197645333980619"><ele>129.0</ele><time>2026-04-06T06:24:27.999Z</time></trkpt><trkpt lat="46.11294559676376" lon="13.19756469185915"><ele>129.0</ele><time>2026-04-06T06:24:28.999Z</time></trkpt><trkpt lat="46.11311928734098" lon="13.197459902532835"><ele>129.0</ele><time>2026-04-06T06:24:29.999Z</time></trkpt><trkpt lat="46.11328987041123" lon="13.197332935255353"><ele>129.0</ele><time>2026-04-06T06:24:30.999Z</time></trkpt><trkpt lat="46.11345283326748" lon="13.197175162708346"><ele>129.33333333333334</ele><time>2026-04-06T06:24:31.999Z</time></trkpt><trkpt lat="46.1136054051788" lon="13.196995819795076"><ele>129.66666666666669</ele><time>2026-04-06T06:24:32.999Z</time></trkpt><trkpt lat="46.11375460737455" lon="13.196824031874145"><ele>130.0</ele><time>2026-04-06T06:24:33.999Z</time></trkpt><trkpt lat="46.11390684016164" lon="13.196676740825353"><ele>130.0</ele><time>2026-04-06T06:24:34.999Z</time></trkpt><trkpt lat="46.11405944907903" lon="13.196520432120236"><ele>130.0</ele><time>2026-04-06T06:24:35.999Z</time></trkpt><trkpt lat="46.114200631709025" lon="13.19637415941573"><ele>130.0</ele><time>2026-04-06T06:24:36.999Z</time></trkpt><trkpt lat="46.114347832325514" lon="13.19622521199216"><ele>128.33333333333334</ele><time>2026-04-06T06:24:37.999Z</time></trkpt><trkpt lat="46.114499162818724" lon="13.196056707957522"><ele>126.66666666666666</ele><time>2026-04-06T06:24:38.999Z</time></trkpt><trkpt lat="46.114660614194484" lon="13.19587213833022"><ele>125.0</ele><time>2026-04-06T06:24:39.999Z</time></trkpt><trkpt lat="46.11484271006263" lon="13.195692892195272"><ele>125.0</ele><time>2026-04-06T06:24:40.999Z</time></trkpt><trkpt lat="46.11503635924244" lon="13.195511887012355"><ele>125.0</ele><time>2026-04-06T06:24:41.999Z</time></trkpt><trkpt lat="46.11522864086885" lon="13.195327643050183"><ele>125.0</ele><time>2026-04-06T06:24:42.999Z</time></trkpt><trkpt lat="46.11540734123792" lon="13.195144394233987"><ele>125.0</ele><time>2026-04-06T06:24:43.999Z</time></trkpt><trkpt lat="46.115578131149455" lon="13.194967559132621"><ele>125.0</ele><time>2026-04-06T06:24:44.999Z</time></trkpt><trkpt lat="46.11574294810679" lon="13.194799391844596"><ele>130.33333333333331</ele><time>2026-04-06T06:24:45.999Z</time></trkpt><trkpt lat="46.11590183044843" lon="13.194640717207779"><ele>135.66666666666666</ele><time>2026-04-06T06:24:46.999Z</time></trkpt><trkpt lat="46.116057299458085" lon="13.194484509737688"><ele>141.0</ele><time>2026-04-06T06:24:47.999Z</time></trkpt><trkpt lat="46.11621130028339" lon="13.194330582982568"><ele>141.0</ele><time>2026-04-06T06:24:48.999Z</time></trkpt><trkpt lat="46.11636593863829" lon="13.194182508184776"><ele>141.0</ele><time>2026-04-06T06:24:49.999Z</time></trkpt><trkpt lat="46.11652444385877" lon="13.19404585243411"><ele>141.0</ele><time>2026-04-06T06:24:50.999Z</time></trkpt><trkpt lat="46.116686700653204" lon="13.19391934602227"><ele>143.0</ele><time>2026-04-06T06:24:51.999Z</time></trkpt><trkpt lat="46.11685262978389" lon="13.193795783835911"><ele>145.0</ele><time>2026-04-06T06:24:52.999Z</time></trkpt><trkpt lat="46.117021706236535" lon="13.193673156889218"><ele>147.0</ele><time>2026-04-06T06:24:53.999Z</time></trkpt><trkpt lat="46.117191753751925" lon="13.19355209278558"><ele>147.0</ele><time>2026-04-06T06:24:54.999Z</time></trkpt><trkpt lat="46.1173646514988" lon="13.193426258218128"><ele>147.0</ele><time>2026-04-06T06:24:55.999Z</time></trkpt><trkpt lat="46.11754018613532" lon="13.193297386318742"><ele>147.0</ele><time>2026-04-06T06:24:56.999Z</time></trkpt><trkpt lat="46.117716541052516" lon="13.193167829145505"><ele>146.66666666666666</ele><time>2026-04-06T06:24:57.999Z</time></trkpt><trkpt lat="46.117893562431185" lon="13.193038727466837"><ele>146.33333333333331</ele><time>2026-04-06T06:24:58.999Z</time></trkpt><trkpt lat="46.118072137826275" lon="13.192910355874126"><ele>146.0</ele><time>2026-04-06T06:24:59.999Z</time></trkpt><trkpt lat="46.1182489683398" lon="13.192782581349364"><ele>146.0</ele><time>2026-04-06T06:25:00.999Z</time></trkpt><trkpt lat="46.11842561393696" lon="13.192657008231855"><ele>146.0</ele><time>2026-04-06T06:25:01.999Z</time></trkpt><trkpt lat="46.11859992727808" lon="13.192535433599975"><ele>146.0</ele><time>2026-04-06T06:25:02.999Z</time></trkpt><trkpt lat="46.118772244904534" lon="13.192411394840429"><ele>148.0</ele><time>2026-04-06T06:25:03.999Z</time></trkpt><trkpt lat="46.11894189933846" lon="13.19228950868174"><ele>150.0</ele><time>2026-04-06T06:25:04.999Z</time></trkpt><trkpt lat="46.11911058440442" lon="13.192171629705818"><ele>152.0</ele><time>2026-04-06T06:25:06Z</time></trkpt><trkpt lat="46.11927767191421" lon="13.192056284447556"><ele>154.33333333333331</ele><time>2026-04-06T06:25:07Z</time></trkpt><trkpt lat="46.119443627450536" lon="13.191936581270399"><ele>156.66666666666666</ele><time>2026-04-06T06:25:08Z</time></trkpt><trkpt lat="46.119607724102366" lon="13.191814363395547"><ele>159.0</ele><time>2026-04-06T06:25:09Z</time></trkpt><trkpt lat="46.119766868795665" lon="13.191682580203578"><ele>158.33333333333334</ele><time>2026-04-06T06:25:10Z</time></trkpt><trkpt lat="46.119920920969804" lon="13.191538755157765"><ele>157.66666666666669</ele><time>2026-04-06T06:25:11Z</time></trkpt><trkpt lat="46.12006804627251" lon="13.191380907373546"><ele>157.0</ele><time>2026-04-06T06:25:12Z</time></trkpt><trkpt lat="46.12020883024631" lon="13.191215328113948"><ele>157.0</ele><time>2026-04-06T06:25:13Z</time></trkpt><trkpt lat="46.12034718218502" lon="13.191047454349595"><ele>157.0</ele><time>2026-04-06T06:25:14Z</time></trkpt><trkpt lat="46.12048465097691" lon="13.19087869171194"><ele>157.0</ele><time>2026-04-06T06:25:15Z</time></trkpt><trkpt lat="46.12062207862122" lon="13.190712913775071"><ele>157.33333333333334</ele><time>2026-04-06T06:25:16Z</time></trkpt><trkpt lat="46.12075566177251" lon="13.190548136107338"><ele>157.66666666666666</ele><time>2026-04-06T06:25:17Z</time></trkpt><trkpt lat="46.12088535214457" lon="13.190386632804874"><ele>158.0</ele><time>2026-04-06T06:25:18Z</time></trkpt><trkpt lat="46.12100258336756" lon="13.190235296040557"><ele>158.0</ele><time>2026-04-06T06:25:19Z</time></trkpt><trkpt lat="46.1211074624942" lon="13.1900983100345"><ele>158.0</ele><time>2026-04-06T06:25:20Z</time></trkpt><trkpt lat="46.12119774183126" lon="13.189981140187257"><ele>158.0</ele><time>2026-04-06T06:25:21Z</time></trkpt><trkpt lat="46.1212808402553" lon="13.189878169633086"><ele>158.0</ele><time>2026-04-06T06:25:22Z</time></trkpt><trkpt lat="46.121353244244766" lon="13.18979621021216"><ele>158.0</ele><time>2026-04-06T06:25:23Z</time></trkpt><trkpt lat="46.12142799489242" lon="13.189718545952289"><ele>158.0</ele><time>2026-04-06T06:25:24Z</time></trkpt><trkpt lat="46.12151086296541" lon="13.189632559722185"><ele>158.0</ele><time>2026-04-06T06:25:25Z</time></trkpt><trkpt lat="46.121597299280246" lon="13.189526495907991"><ele>158.0</ele><time>2026-04-06T06:25:26Z</time></trkpt><trkpt lat="46.121688275364725" lon="13.189417844490634"><ele>158.0</ele><time>2026-04-06T06:25:27Z</time></trkpt><trkpt lat="46.121810088680796" lon="13.189330648929998"><ele>158.5</ele><time>2026-04-06T06:25:28Z</time></trkpt><trkpt lat="46.12191544833674" lon="13.189198084813322"><ele>159.0</ele><time>2026-04-06T06:25:29Z</time></trkpt><trkpt lat="46.12202512412686" lon="13.189058559189576"><ele>159.5</ele><time>2026-04-06T06:25:30Z</time></trkpt><trkpt lat="46.122139216587556" lon="13.188913414788146"><ele>160.0</ele><time>2026-04-06T06:25:31Z</time></trkpt><trkpt lat="46.122259977904136" lon="13.188764756548684"><ele>160.0</ele><time>2026-04-06T06:25:32Z</time></trkpt><trkpt lat="46.12238762552115" lon="13.188612291904478"><ele>160.0</ele><time>2026-04-06T06:25:33Z</time></trkpt><trkpt lat="46.12251662462997" lon="13.188458213015862"><ele>160.0</ele><time>2026-04-06T06:25:34Z</time></trkpt><trkpt lat="46.12264518034733" lon="13.188303796875628"><ele>161.0</ele><time>2026-04-06T06:25:35Z</time></trkpt><trkpt lat="46.12277285388412" lon="13.188149921698434"><ele>162.0</ele><time>2026-04-06T06:25:36Z</time></trkpt><trkpt lat="46.122887188079766" lon="13.187982201468948"><ele>163.0</ele><time>2026-04-06T06:25:37Z</time></trkpt><trkpt lat="46.12301027473563" lon="13.187841700864158"><ele>163.0</ele><time>2026-04-06T06:25:38Z</time></trkpt><trkpt lat="46.12313298133303" lon="13.18770719485111"><ele>163.0</ele><time>2026-04-06T06:25:39Z</time></trkpt><trkpt lat="46.12325831860116" lon="13.187587706355359"><ele>163.0</ele><time>2026-04-06T06:25:40Z</time></trkpt><trkpt lat="46.1233861608475" lon="13.187489905282403"><ele>163.0</ele><time>2026-04-06T06:25:41Z</time></trkpt><trkpt lat="46.12351674100519" lon="13.1874147331995"><ele>163.25</ele><time>2026-04-06T06:25:42Z</time></trkpt><trkpt lat="46.123644996434074" lon="13.187359830462816"><ele>163.5</ele><time>2026-04-06T06:25:43Z</time></trkpt><trkpt lat="46.12376444919714" lon="13.187308269371993"><ele>163.75</ele><time>2026-04-06T06:25:44Z</time></trkpt><trkpt lat="46.123867765161314" lon="13.187256685848533"><ele>164.0</ele><time>2026-04-06T06:25:45Z</time></trkpt><trkpt lat="46.123951009141834" lon="13.18720858813151"><ele>164.0</ele><time>2026-04-06T06:25:46Z</time></trkpt><trkpt lat="46.12401989874055" lon="13.187166552782182"><ele>164.0</ele><time>2026-04-06T06:25:47Z</time></trkpt><trkpt lat="46.12408342094665" lon="13.187133059914654"><ele>164.0</ele><time>2026-04-06T06:25:48Z</time></trkpt><trkpt lat="46.12421303516528" lon="13.187102249576938"><ele>164.0</ele><time>2026-04-06T06:25:50Z</time></trkpt><trkpt lat="46.12429459079031" lon="13.18711395970772"><ele>164.0</ele><time>2026-04-06T06:25:51Z</time></trkpt><trkpt lat="46.12436297685511" lon="13.18703311485126"><ele>164.0</ele><time>2026-04-06T06:25:52Z</time></trkpt><trkpt lat="46.12439850803931" lon="13.186893107727748"><ele>164.25</ele><time>2026-04-06T06:25:53Z</time></trkpt><trkpt lat="46.124429205944686" lon="13.186738979663234"><ele>164.5</ele><time>2026-04-06T06:25:54Z</time></trkpt><trkpt lat="46.12451145106661" lon="13.186607989049712"><ele>164.75</ele><time>2026-04-06T06:25:55Z</time></trkpt><trkpt lat="46.12462556215095" lon="13.186489323594166"><ele>165.0</ele><time>2026-04-06T06:25:56Z</time></trkpt><trkpt lat="46.1247315151644" lon="13.186335760279315"><ele>165.0</ele><time>2026-04-06T06:25:57Z</time></trkpt><trkpt lat="46.12483002502129" lon="13.186155137202677"><ele>165.0</ele><time>2026-04-06T06:25:58Z</time></trkpt><trkpt lat="46.124942188596364" lon="13.185984613057421"><ele>165.0</ele><time>2026-04-06T06:25:59Z</time></trkpt><trkpt lat="46.125035413983575" lon="13.185800819390582"><ele>164.33333333333334</ele><time>2026-04-06T06:26:00Z</time></trkpt><trkpt lat="46.12511001897018" lon="13.185594635529924"><ele>163.66666666666669</ele><time>2026-04-06T06:26:01Z</time></trkpt><trkpt lat="46.12519990422116" lon="13.185384301828247"><ele>163.0</ele><time>2026-04-06T06:26:01.999Z</time></trkpt><trkpt lat="46.12526281664463" lon="13.185151870462061"><ele>163.0</ele><time>2026-04-06T06:26:02.999Z</time></trkpt><trkpt lat="46.125312505180034" lon="13.18490607966392"><ele>163.0</ele><time>2026-04-06T06:26:03.999Z</time></trkpt><trkpt lat="46.12539994292874" lon="13.18467233353374"><ele>163.0</ele><time>2026-04-06T06:26:04.999Z</time></trkpt><trkpt lat="46.12548902543261" lon="13.184443131878263"><ele>163.0</ele><time>2026-04-06T06:26:05.999Z</time></trkpt><trkpt lat="46.125583541608115" lon="13.1842100969417"><ele>163.0</ele><time>2026-04-06T06:26:06.999Z</time></trkpt><trkpt lat="46.125684195860295" lon="13.183965878285473"><ele>163.0</ele><time>2026-04-06T06:26:07.999Z</time></trkpt><trkpt lat="46.125787941161285" lon="13.1837141588998"><ele>163.66666666666669</ele><time>2026-04-06T06:26:08.999Z</time></trkpt><trkpt lat="46.12587994252831" lon="13.183444873679282"><ele>164.33333333333334</ele><time>2026-04-06T06:26:09.999Z</time></trkpt><trkpt lat="46.125989651846645" lon="13.183179931163586"><ele>165.0</ele><time>2026-04-06T06:26:10.999Z</time></trkpt><trkpt lat="46.1261150524983" lon="13.182921305169359"><ele>165.33333333333334</ele><time>2026-04-06T06:26:11.999Z</time></trkpt><trkpt lat="46.12622823599927" lon="13.182645503586397"><ele>165.66666666666669</ele><time>2026-04-06T06:26:12.999Z</time></trkpt><trkpt lat="46.12634208089941" lon="13.182367032926999"><ele>166.0</ele><time>2026-04-06T06:26:13.999Z</time></trkpt><trkpt lat="46.126456004496106" lon="13.182088369759413"><ele>168.5</ele><time>2026-04-06T06:26:14.999Z</time></trkpt><trkpt lat="46.1265715878055" lon="13.181803641475591"><ele>171.0</ele><time>2026-04-06T06:26:15.999Z</time></trkpt><trkpt lat="46.1266717918245" lon="13.18151393644149"><ele>171.33333333333334</ele><time>2026-04-06T06:26:16.999Z</time></trkpt><trkpt lat="46.126785287096304" lon="13.181242783720515"><ele>171.66666666666669</ele><time>2026-04-06T06:26:17.999Z</time></trkpt><trkpt lat="46.126897427856775" lon="13.18097833692683"><ele>172.0</ele><time>2026-04-06T06:26:18.999Z</time></trkpt><trkpt lat="46.12700848331787" lon="13.180724927764315"><ele>172.66666666666669</ele><time>2026-04-06T06:26:19.999Z</time></trkpt><trkpt lat="46.12711601031963" lon="13.180470213735246"><ele>173.33333333333334</ele><time>2026-04-06T06:26:20.999Z</time></trkpt><trkpt lat="46.127218610746326" lon="13.180213663818808"><ele>174.0</ele><time>2026-04-06T06:26:21.999Z</time></trkpt><trkpt lat="46.12731898999095" lon="13.17995762324769"><ele>175.66666666666666</ele><time>2026-04-06T06:26:22.999Z</time></trkpt><trkpt lat="46.12742126132259" lon="13.179702186285803"><ele>177.33333333333331</ele><time>2026-04-06T06:26:23.999Z</time></trkpt><trkpt lat="46.127525699310915" lon="13.179446822848204"><ele>179.0</ele><time>2026-04-06T06:26:24.999Z</time></trkpt><trkpt lat="46.12763168867992" lon="13.17919053466719"><ele>180.66666666666666</ele><time>2026-04-06T06:26:25.999Z</time></trkpt><trkpt lat="46.12773909315065" lon="13.17893340230205"><ele>182.33333333333334</ele><time>2026-04-06T06:26:26.999Z</time></trkpt><trkpt lat="46.127843552442016" lon="13.178671885702231"><ele>184.0</ele><time>2026-04-06T06:26:27.999Z</time></trkpt><trkpt lat="46.12794935905679" lon="13.178406889707963"><ele>185.0</ele><time>2026-04-06T06:26:28.999Z</time></trkpt><trkpt lat="46.12805898423876" lon="13.178140494548433"><ele>186.0</ele><time>2026-04-06T06:26:29.999Z</time></trkpt><trkpt lat="46.12817018745281" lon="13.177868554116564"><ele>187.0</ele><time>2026-04-06T06:26:30.999Z</time></trkpt><trkpt lat="46.12828290173326" lon="13.177588872032105"><ele>189.0</ele><time>2026-04-06T06:26:31.999Z</time></trkpt><trkpt lat="46.128412466072476" lon="13.177316852488262"><ele>191.0</ele><time>2026-04-06T06:26:32.999Z</time></trkpt><trkpt lat="46.12851424900027" lon="13.177011292541236"><ele>191.0</ele><time>2026-04-06T06:26:33.999Z</time></trkpt><trkpt lat="46.12863429067535" lon="13.176722477276117"><ele>191.0</ele><time>2026-04-06T06:26:34.999Z</time></trkpt><trkpt lat="46.1287636213081" lon="13.176455304821173"><ele>192.5</ele><time>2026-04-06T06:26:35.999Z</time></trkpt><trkpt lat="46.12891169484961" lon="13.176203197694836"><ele>194.0</ele><time>2026-04-06T06:26:36.999Z</time></trkpt><trkpt lat="46.12907279863628" lon="13.175959891091495"><ele>194.5</ele><time>2026-04-06T06:26:37.999Z</time></trkpt><trkpt lat="46.12924358141169" lon="13.175735172883567"><ele>195.0</ele><time>2026-04-06T06:26:38.999Z</time></trkpt><trkpt lat="46.1294312211206" lon="13.17554088526886"><ele>195.0</ele><time>2026-04-06T06:26:39.999Z</time></trkpt><trkpt lat="46.12962294669125" lon="13.175370486370525"><ele>195.0</ele><time>2026-04-06T06:26:40.999Z</time></trkpt><trkpt lat="46.129828466205424" lon="13.175252782088146"><ele>195.0</ele><time>2026-04-06T06:26:41.999Z</time></trkpt><trkpt lat="46.130031457955226" lon="13.175121560654217"><ele>195.33333333333331</ele><time>2026-04-06T06:26:42.999Z</time></trkpt><trkpt lat="46.13024731457633" lon="13.17502926109632"><ele>195.66666666666666</ele><time>2026-04-06T06:26:43.999Z</time></trkpt><trkpt lat="46.13046738666228" lon="13.174967400502544"><ele>196.0</ele><time>2026-04-06T06:26:44.999Z</time></trkpt><trkpt lat="46.13068658059062" lon="13.174941912634807"><ele>197.0</ele><time>2026-04-06T06:26:45.999Z</time></trkpt><trkpt lat="46.130902251155504" lon="13.174941183728238"><ele>198.0</ele><time>2026-04-06T06:26:46.999Z</time></trkpt><trkpt lat="46.13111118980503" lon="13.174942398516373"><ele>199.0</ele><time>2026-04-06T06:26:47.999Z</time></trkpt><trkpt lat="46.131312904854205" lon="13.174931681105383"><ele>199.0</ele><time>2026-04-06T06:26:48.999Z</time></trkpt><trkpt lat="46.131506607629085" lon="13.174941037734872"><ele>199.0</ele><time>2026-04-06T06:26:49.999Z</time></trkpt><trkpt lat="46.1316975804555" lon="13.174877273953587"><ele>199.0</ele><time>2026-04-06T06:26:50.999Z</time></trkpt><trkpt lat="46.13188463897452" lon="13.17483062139001"><ele>199.33333333333331</ele><time>2026-04-06T06:26:51.999Z</time></trkpt><trkpt lat="46.13205167567242" lon="13.174781021920586"><ele>199.66666666666669</ele><time>2026-04-06T06:26:52.999Z</time></trkpt><trkpt lat="46.13220510092332" lon="13.174732648642733"><ele>200.0</ele><time>2026-04-06T06:26:53.999Z</time></trkpt><trkpt lat="46.13234399136327" lon="13.174683029798647"><ele>200.66666666666669</ele><time>2026-04-06T06:26:54.999Z</time></trkpt><trkpt lat="46.13248085474854" lon="13.174610678923358"><ele>201.33333333333331</ele><time>2026-04-06T06:26:55.999Z</time></trkpt><trkpt lat="46.13261286267647" lon="13.174491478748386"><ele>202.0</ele><time>2026-04-06T06:26:56.999Z</time></trkpt><trkpt lat="46.13273234175685" lon="13.1743267899698"><ele>202.0</ele><time>2026-04-06T06:26:57.999Z</time></trkpt><trkpt lat="46.13283760625545" lon="13.174123409176438"><ele>202.0</ele><time>2026-04-06T06:26:58.999Z</time></trkpt><trkpt lat="46.13294202881442" lon="13.173908620740853"><ele>202.0</ele><time>2026-04-06T06:26:59.999Z</time></trkpt><trkpt lat="46.133054131855864" lon="13.173694518740138"><ele>200.66666666666666</ele><time>2026-04-06T06:27:00.999Z</time></trkpt><trkpt lat="46.133161824487864" lon="13.173478972637476"><ele>199.33333333333331</ele><time>2026-04-06T06:27:01.999Z</time></trkpt><trkpt lat="46.13326893070293" lon="13.173258113218626"><ele>198.0</ele><time>2026-04-06T06:27:02.999Z</time></trkpt><trkpt lat="46.13338166174278" lon="13.173037227284743"><ele>197.0</ele><time>2026-04-06T06:27:03.999Z</time></trkpt><trkpt lat="46.13349757936974" lon="13.172814145595904"><ele>196.0</ele><time>2026-04-06T06:27:04.999Z</time></trkpt><trkpt lat="46.133613335100414" lon="13.172598465573238"><ele>195.0</ele><time>2026-04-06T06:27:05.999Z</time></trkpt><trkpt lat="46.13372445334364" lon="13.172397570530624"><ele>195.0</ele><time>2026-04-06T06:27:06.999Z</time></trkpt><trkpt lat="46.13384252999187" lon="13.172210501360935"><ele>195.0</ele><time>2026-04-06T06:27:07.999Z</time></trkpt><trkpt lat="46.13397278578961" lon="13.172035135695106"><ele>195.0</ele><time>2026-04-06T06:27:08.999Z</time></trkpt><trkpt lat="46.134116315569855" lon="13.171870115209686"><ele>194.66666666666669</ele><time>2026-04-06T06:27:09.999Z</time></trkpt><trkpt lat="46.134269413173016" lon="13.171707973143942"><ele>194.33333333333334</ele><time>2026-04-06T06:27:10.999Z</time></trkpt><trkpt lat="46.13443805564925" lon="13.171558616464978"><ele>194.0</ele><time>2026-04-06T06:27:12Z</time></trkpt><trkpt lat="46.13461634043431" lon="13.171419562610408"><ele>194.66666666666669</ele><time>2026-04-06T06:27:13Z</time></trkpt><trkpt lat="46.1348002273112" lon="13.171288764180494"><ele>195.33333333333331</ele><time>2026-04-06T06:27:14Z</time></trkpt><trkpt lat="46.13499079558381" lon="13.171155702712653"><ele>196.0</ele><time>2026-04-06T06:27:15Z</time></trkpt><trkpt lat="46.13518934493954" lon="13.171015838742111"><ele>194.0</ele><time>2026-04-06T06:27:16Z</time></trkpt><trkpt lat="46.13539375293061" lon="13.170871868314821"><ele>192.0</ele><time>2026-04-06T06:27:17Z</time></trkpt><trkpt lat="46.13560016120258" lon="13.170727286161206"><ele>192.0</ele><time>2026-04-06T06:27:18Z</time></trkpt><trkpt lat="46.135803669851875" lon="13.170583602267872"><ele>192.0</ele><time>2026-04-06T06:27:19Z</time></trkpt><trkpt lat="46.136005221819104" lon="13.170443757334954"><ele>192.0</ele><time>2026-04-06T06:27:20Z</time></trkpt><trkpt lat="46.136200785152624" lon="13.1703045685711"><ele>192.0</ele><time>2026-04-06T06:27:21Z</time></trkpt><trkpt lat="46.1363872634788" lon="13.170166809100037"><ele>192.0</ele><time>2026-04-06T06:27:22Z</time></trkpt><trkpt lat="46.136563339210646" lon="13.170021765583686"><ele>190.66666666666666</ele><time>2026-04-06T06:27:23Z</time></trkpt><trkpt lat="46.1367257365862" lon="13.169858705781275"><ele>189.33333333333331</ele><time>2026-04-06T06:27:24Z</time></trkpt><trkpt lat="46.13686631676223" lon="13.169658057228673"><ele>188.0</ele><time>2026-04-06T06:27:25Z</time></trkpt><trkpt lat="46.13698623082425" lon="13.169423291576118"><ele>188.0</ele><time>2026-04-06T06:27:26Z</time></trkpt><trkpt lat="46.13708939121596" lon="13.169164891059374"><ele>188.0</ele><time>2026-04-06T06:27:27Z</time></trkpt><trkpt lat="46.13718091493984" lon="13.168888461461162"><ele>188.0</ele><time>2026-04-06T06:27:28Z</time></trkpt><trkpt lat="46.137269493301716" lon="13.168601935594484"><ele>187.66666666666666</ele><time>2026-04-06T06:27:29Z</time></trkpt><trkpt lat="46.137366715109174" lon="13.168321467569998"><ele>187.33333333333334</ele><time>2026-04-06T06:27:30Z</time></trkpt><trkpt lat="46.13747753278745" lon="13.168052215429457"><ele>187.0</ele><time>2026-04-06T06:27:31Z</time></trkpt><trkpt lat="46.13760177982504" lon="13.167791813689396"><ele>187.0</ele><time>2026-04-06T06:27:32Z</time></trkpt><trkpt lat="46.13773785741992" lon="13.16754508021831"><ele>187.0</ele><time>2026-04-06T06:27:33Z</time></trkpt><trkpt lat="46.13788509963655" lon="13.167313001666187"><ele>187.0</ele><time>2026-04-06T06:27:34Z</time></trkpt><trkpt lat="46.13803400833739" lon="13.167092190527228"><ele>187.66666666666669</ele><time>2026-04-06T06:27:35Z</time></trkpt><trkpt lat="46.13818469239426" lon="13.16687986990199"><ele>188.33333333333334</ele><time>2026-04-06T06:27:36Z</time></trkpt><trkpt lat="46.138343611510535" lon="13.16668123901539"><ele>189.0</ele><time>2026-04-06T06:27:37Z</time></trkpt><trkpt lat="46.138514231037234" lon="13.166504942834933"><ele>187.33333333333334</ele><time>2026-04-06T06:27:38Z</time></trkpt><trkpt lat="46.13869012916924" lon="13.166358996033935"><ele>185.66666666666669</ele><time>2026-04-06T06:27:39Z</time></trkpt><trkpt lat="46.13885970485912" lon="13.166228051161802"><ele>184.0</ele><time>2026-04-06T06:27:40Z</time></trkpt><trkpt lat="46.139022050984835" lon="13.16609093392479"><ele>183.0</ele><time>2026-04-06T06:27:41Z</time></trkpt><trkpt lat="46.13917921980056" lon="13.165940565550923"><ele>182.0</ele><time>2026-04-06T06:27:42Z</time></trkpt><trkpt lat="46.139327257275276" lon="13.165762507643041"><ele>181.0</ele><time>2026-04-06T06:27:43Z</time></trkpt><trkpt lat="46.13946163014602" lon="13.16555811272678"><ele>181.0</ele><time>2026-04-06T06:27:44Z</time></trkpt><trkpt lat="46.13957928982515" lon="13.165327870279588"><ele>181.0</ele><time>2026-04-06T06:27:45Z</time></trkpt><trkpt lat="46.13968158609798" lon="13.165078894534581"><ele>181.0</ele><time>2026-04-06T06:27:46Z</time></trkpt><trkpt lat="46.13978012291812" lon="13.164824999820008"><ele>180.33333333333334</ele><time>2026-04-06T06:27:47Z</time></trkpt><trkpt lat="46.13987902893147" lon="13.164572867198684"><ele>179.66666666666666</ele><time>2026-04-06T06:27:48Z</time></trkpt><trkpt lat="46.139978515877914" lon="13.164323365676264"><ele>179.0</ele><time>2026-04-06T06:27:49Z</time></trkpt><trkpt lat="46.14009403729426" lon="13.164090982900504"><ele>179.33333333333331</ele><time>2026-04-06T06:27:50Z</time></trkpt><trkpt lat="46.140231799633405" lon="13.16387462188424"><ele>179.66666666666666</ele><time>2026-04-06T06:27:51Z</time></trkpt><trkpt lat="46.140384983769394" lon="13.163674972724147"><ele>180.0</ele><time>2026-04-06T06:27:52Z</time></trkpt><trkpt lat="46.140553437850514" lon="13.16349524316839"><ele>180.33333333333334</ele><time>2026-04-06T06:27:53Z</time></trkpt><trkpt lat="46.140734731601675" lon="13.163324088940136"><ele>180.66666666666669</ele><time>2026-04-06T06:27:54Z</time></trkpt><trkpt lat="46.140920924610214" lon="13.163144335689575"><ele>181.0</ele><time>2026-04-06T06:27:55Z</time></trkpt><trkpt lat="46.14111308641839" lon="13.162960847703996"><ele>181.0</ele><time>2026-04-06T06:27:56Z</time></trkpt><trkpt lat="46.1413100639978" lon="13.162770694528426"><ele>181.0</ele><time>2026-04-06T06:27:57Z</time></trkpt><trkpt lat="46.141511691338465" lon="13.162574118329102"><ele>181.0</ele><time>2026-04-06T06:27:58Z</time></trkpt><trkpt lat="46.14171679362568" lon="13.162377887305338"><ele>181.0</ele><time>2026-04-06T06:27:59Z</time></trkpt><trkpt lat="46.14192942073095" lon="13.162203285810381"><ele>181.0</ele><time>2026-04-06T06:28:00Z</time></trkpt><trkpt lat="46.14213245758873" lon="13.162009173775123"><ele>181.0</ele><time>2026-04-06T06:28:01Z</time></trkpt><trkpt lat="46.142333667304484" lon="13.161815813389817"><ele>182.5</ele><time>2026-04-06T06:28:02Z</time></trkpt><trkpt lat="46.142527017350595" lon="13.161603751104368"><ele>184.0</ele><time>2026-04-06T06:28:03Z</time></trkpt><trkpt lat="46.142731052113454" lon="13.161413813207085"><ele>184.0</ele><time>2026-04-06T06:28:04Z</time></trkpt><trkpt lat="46.14293311047151" lon="13.16122293016095"><ele>184.0</ele><time>2026-04-06T06:28:04.999Z</time></trkpt><trkpt lat="46.143134872180646" lon="13.161029030402425"><ele>184.0</ele><time>2026-04-06T06:28:05.999Z</time></trkpt><trkpt lat="46.14333825601665" lon="13.160834919927481"><ele>184.0</ele><time>2026-04-06T06:28:06.999Z</time></trkpt><trkpt lat="46.1435431153546" lon="13.160640430809332"><ele>184.0</ele><time>2026-04-06T06:28:07.999Z</time></trkpt><trkpt lat="46.143748980420504" lon="13.160445293171742"><ele>184.0</ele><time>2026-04-06T06:28:08.999Z</time></trkpt><trkpt lat="46.143955875764895" lon="13.160250758546125"><ele>184.0</ele><time>2026-04-06T06:28:09.999Z</time></trkpt><trkpt lat="46.14416268689376" lon="13.16005574202811"><ele>184.0</ele><time>2026-04-06T06:28:10.999Z</time></trkpt><trkpt lat="46.144368677217535" lon="13.159859671044714"><ele>184.0</ele><time>2026-04-06T06:28:11.999Z</time></trkpt><trkpt lat="46.14457419678716" lon="13.159663140174194"><ele>184.0</ele><time>2026-04-06T06:28:12.999Z</time></trkpt><trkpt lat="46.14478001066659" lon="13.159468691930464"><ele>185.0</ele><time>2026-04-06T06:28:13.999Z</time></trkpt><trkpt lat="46.14498509898556" lon="13.159274920745046"><ele>186.0</ele><time>2026-04-06T06:28:14.999Z</time></trkpt><trkpt lat="46.14518954661393" lon="13.159081393597912"><ele>186.0</ele><time>2026-04-06T06:28:15.999Z</time></trkpt><trkpt lat="46.14539441841454" lon="13.158888216236003"><ele>186.0</ele><time>2026-04-06T06:28:16.999Z</time></trkpt><trkpt lat="46.14559894941685" lon="13.158695339140884"><ele>185.5</ele><time>2026-04-06T06:28:17.999Z</time></trkpt><trkpt lat="46.14580343891904" lon="13.15850224051343"><ele>185.0</ele><time>2026-04-06T06:28:18.999Z</time></trkpt><trkpt lat="46.14600852776207" lon="13.15830530783732"><ele>185.0</ele><time>2026-04-06T06:28:19.999Z</time></trkpt><trkpt lat="46.146212450340556" lon="13.158109875198212"><ele>185.0</ele><time>2026-04-06T06:28:20.999Z</time></trkpt><trkpt lat="46.14641647259948" lon="13.157916302889037"><ele>185.5</ele><time>2026-04-06T06:28:21.999Z</time></trkpt><trkpt lat="46.14661915198213" lon="13.15772482191625"><ele>186.0</ele><time>2026-04-06T06:28:22.999Z</time></trkpt><trkpt lat="46.146822420891446" lon="13.157534895082513"><ele>185.5</ele><time>2026-04-06T06:28:23.999Z</time></trkpt><trkpt lat="46.14702783732258" lon="13.157347190437338"><ele>185.0</ele><time>2026-04-06T06:28:24.999Z</time></trkpt><trkpt lat="46.14723223428836" lon="13.157158446705713"><ele>183.0</ele><time>2026-04-06T06:28:25.999Z</time></trkpt><trkpt lat="46.14743550729099" lon="13.156964453432089"><ele>181.0</ele><time>2026-04-06T06:28:26.999Z</time></trkpt><trkpt lat="46.1476386631351" lon="13.156770026504747"><ele>181.0</ele><time>2026-04-06T06:28:27.999Z</time></trkpt><trkpt lat="46.1478408089114" lon="13.156577147544764"><ele>181.0</ele><time>2026-04-06T06:28:28.999Z</time></trkpt><trkpt lat="46.14804448309462" lon="13.156384394288944"><ele>181.5</ele><time>2026-04-06T06:28:29.999Z</time></trkpt><trkpt lat="46.14824552082478" lon="13.156190429854723"><ele>182.0</ele><time>2026-04-06T06:28:30.999Z</time></trkpt><trkpt lat="46.148440974327514" lon="13.155987680651151"><ele>182.0</ele><time>2026-04-06T06:28:31.999Z</time></trkpt><trkpt lat="46.14863261710607" lon="13.155777975651516"><ele>182.0</ele><time>2026-04-06T06:28:32.999Z</time></trkpt><trkpt lat="46.14883586957767" lon="13.155595376170877"><ele>182.5</ele><time>2026-04-06T06:28:33.999Z</time></trkpt><trkpt lat="46.14902909877212" lon="13.155396665673928"><ele>183.0</ele><time>2026-04-06T06:28:34.999Z</time></trkpt><trkpt lat="46.14921996610677" lon="13.155195473301399"><ele>182.5</ele><time>2026-04-06T06:28:35.999Z</time></trkpt><trkpt lat="46.14936551728953" lon="13.15490762304871"><ele>182.0</ele><time>2026-04-06T06:28:36.999Z</time></trkpt><trkpt lat="46.149535586952965" lon="13.154673717991367"><ele>182.0</ele><time>2026-04-06T06:28:37.999Z</time></trkpt><trkpt lat="46.14970133231116" lon="13.15443545506345"><ele>182.0</ele><time>2026-04-06T06:28:38.999Z</time></trkpt><trkpt lat="46.14986181687553" lon="13.154186877799106"><ele>181.5</ele><time>2026-04-06T06:28:39.999Z</time></trkpt><trkpt lat="46.15001592041432" lon="13.153929822555778"><ele>181.0</ele><time>2026-04-06T06:28:40.999Z</time></trkpt><trkpt lat="46.15016463149669" lon="13.153667053864476"><ele>181.0</ele><time>2026-04-06T06:28:41.999Z</time></trkpt><trkpt lat="46.15030868203414" lon="13.153397920928535"><ele>181.0</ele><time>2026-04-06T06:28:42.999Z</time></trkpt><trkpt lat="46.15044846423653" lon="13.153126356357927"><ele>180.5</ele><time>2026-04-06T06:28:43.999Z</time></trkpt><trkpt lat="46.15058108664404" lon="13.152850648578447"><ele>180.0</ele><time>2026-04-06T06:28:44.999Z</time></trkpt><trkpt lat="46.150709869910244" lon="13.152567956537336"><ele>179.0</ele><time>2026-04-06T06:28:45.999Z</time></trkpt><trkpt lat="46.15083441133823" lon="13.152278072003153"><ele>178.0</ele><time>2026-04-06T06:28:46.999Z</time></trkpt><trkpt lat="46.15095731566769" lon="13.151982945345921"><ele>178.0</ele><time>2026-04-06T06:28:47.999Z</time></trkpt><trkpt lat="46.151076768803975" lon="13.151684206966232"><ele>178.0</ele><time>2026-04-06T06:28:48.999Z</time></trkpt><trkpt lat="46.15119058379883" lon="13.151380026022341"><ele>178.5</ele><time>2026-04-06T06:28:49.999Z</time></trkpt><trkpt lat="46.151296422280694" lon="13.151064139107584"><ele>179.0</ele><time>2026-04-06T06:28:50.999Z</time></trkpt><trkpt lat="46.151397693355534" lon="13.150740145389396"><ele>179.0</ele><time>2026-04-06T06:28:51.999Z</time></trkpt><trkpt lat="46.151495006973946" lon="13.150409277502897"><ele>179.0</ele><time>2026-04-06T06:28:52.999Z</time></trkpt><trkpt lat="46.15159275277111" lon="13.150070828390131"><ele>181.0</ele><time>2026-04-06T06:28:53.999Z</time></trkpt><trkpt lat="46.151689760446935" lon="13.149729048216802"><ele>183.0</ele><time>2026-04-06T06:28:54.999Z</time></trkpt><trkpt lat="46.151783931754245" lon="13.149384818691786"><ele>184.0</ele><time>2026-04-06T06:28:55.999Z</time></trkpt><trkpt lat="46.1518794279753" lon="13.14904068020955"><ele>185.0</ele><time>2026-04-06T06:28:56.999Z</time></trkpt><trkpt lat="46.15197618805173" lon="13.148695844136546"><ele>185.0</ele><time>2026-04-06T06:28:57.999Z</time></trkpt><trkpt lat="46.152072695154544" lon="13.148348626819372"><ele>185.0</ele><time>2026-04-06T06:28:58.999Z</time></trkpt><trkpt lat="46.152169604922754" lon="13.148000753173868"><ele>184.5</ele><time>2026-04-06T06:28:59.999Z</time></trkpt><trkpt lat="46.152265685166604" lon="13.147651770038912"><ele>184.0</ele><time>2026-04-06T06:29:00.999Z</time></trkpt><trkpt lat="46.152362275069066" lon="13.147302284301336"><ele>184.0</ele><time>2026-04-06T06:29:01.999Z</time></trkpt><trkpt lat="46.152458787337736" lon="13.146951468319667"><ele>184.0</ele><time>2026-04-06T06:29:02.999Z</time></trkpt><trkpt lat="46.15255573168748" lon="13.146600895723086"><ele>184.5</ele><time>2026-04-06T06:29:03.999Z</time></trkpt><trkpt lat="46.152650991323625" lon="13.14624739045914"><ele>185.0</ele><time>2026-04-06T06:29:04.999Z</time></trkpt><trkpt lat="46.15274870684191" lon="13.145893144635235"><ele>186.5</ele><time>2026-04-06T06:29:05.999Z</time></trkpt><trkpt lat="46.152846397862874" lon="13.145537515085467"><ele>188.0</ele><time>2026-04-06T06:29:06.999Z</time></trkpt><trkpt lat="46.15294336356827" lon="13.145184704390793"><ele>190.0</ele><time>2026-04-06T06:29:07.999Z</time></trkpt><trkpt lat="46.15303895665879" lon="13.144831131668587"><ele>192.0</ele><time>2026-04-06T06:29:08.999Z</time></trkpt><trkpt lat="46.15313512273567" lon="13.144477675150947"><ele>189.0</ele><time>2026-04-06T06:29:09.999Z</time></trkpt><trkpt lat="46.15323267539968" lon="13.144125123370832"><ele>186.0</ele><time>2026-04-06T06:29:10.999Z</time></trkpt><trkpt lat="46.15333080262029" lon="13.143774081490722"><ele>186.0</ele><time>2026-04-06T06:29:11.999Z</time></trkpt><trkpt lat="46.153428644337055" lon="13.143422505031156"><ele>186.0</ele><time>2026-04-06T06:29:12.999Z</time></trkpt><trkpt lat="46.15352552814597" lon="13.143072434526342"><ele>186.0</ele><time>2026-04-06T06:29:13.999Z</time></trkpt><trkpt lat="46.153622713051924" lon="13.142721515613417"><ele>186.0</ele><time>2026-04-06T06:29:14.999Z</time></trkpt><trkpt lat="46.1537205389737" lon="13.142370358768817"><ele>188.0</ele><time>2026-04-06T06:29:15.999Z</time></trkpt><trkpt lat="46.15381834502249" lon="13.142019146700765"><ele>190.0</ele><time>2026-04-06T06:29:17Z</time></trkpt><trkpt lat="46.15391553584744" lon="13.141667574398992"><ele>189.0</ele><time>2026-04-06T06:29:18Z</time></trkpt><trkpt lat="46.15401482638523" lon="13.1413180323245"><ele>188.0</ele><time>2026-04-06T06:29:19Z</time></trkpt><trkpt lat="46.15411904262922" lon="13.140971058333292"><ele>184.5</ele><time>2026-04-06T06:29:20Z</time></trkpt><trkpt lat="46.15423221767558" lon="13.14063069423704"><ele>181.0</ele><time>2026-04-06T06:29:21Z</time></trkpt><trkpt lat="46.15435398711014" lon="13.14029680450168"><ele>181.0</ele><time>2026-04-06T06:29:22Z</time></trkpt><trkpt lat="46.154483037191376" lon="13.139971923644167"><ele>181.0</ele><time>2026-04-06T06:29:23Z</time></trkpt><trkpt lat="46.154617556798364" lon="13.139650830293517"><ele>180.5</ele><time>2026-04-06T06:29:24Z</time></trkpt><trkpt lat="46.15475686738162" lon="13.139334498446459"><ele>180.0</ele><time>2026-04-06T06:29:25Z</time></trkpt><trkpt lat="46.154903654392115" lon="13.139025357005906"><ele>180.0</ele><time>2026-04-06T06:29:26Z</time></trkpt><trkpt lat="46.15505422181457" lon="13.138722422041369"><ele>180.0</ele><time>2026-04-06T06:29:27Z</time></trkpt><trkpt lat="46.15520975959034" lon="13.138433164919975"><ele>180.5</ele><time>2026-04-06T06:29:28Z</time></trkpt><trkpt lat="46.15536594719738" lon="13.138154134362187"><ele>181.0</ele><time>2026-04-06T06:29:29Z</time></trkpt><trkpt lat="46.15552371270355" lon="13.137885914046654"><ele>181.0</ele><time>2026-04-06T06:29:30Z</time></trkpt><trkpt lat="46.15568271031824" lon="13.137625494696954"><ele>181.0</ele><time>2026-04-06T06:29:31Z</time></trkpt><trkpt lat="46.15584483770427" lon="13.137375040793964"><ele>181.0</ele><time>2026-04-06T06:29:32Z</time></trkpt><trkpt lat="46.15601240306426" lon="13.137136044325654"><ele>181.0</ele><time>2026-04-06T06:29:33Z</time></trkpt><trkpt lat="46.156180629990445" lon="13.136904587730998"><ele>181.0</ele><time>2026-04-06T06:29:34Z</time></trkpt><trkpt lat="46.15634916218066" lon="13.136682936040408"><ele>181.0</ele><time>2026-04-06T06:29:35Z</time></trkpt><trkpt lat="46.15651688575174" lon="13.136470486627905"><ele>181.0</ele><time>2026-04-06T06:29:36Z</time></trkpt><trkpt lat="46.156688081936046" lon="13.136271461891404"><ele>181.0</ele><time>2026-04-06T06:29:37Z</time></trkpt><trkpt lat="46.156860472308736" lon="13.136083672304276"><ele>181.0</ele><time>2026-04-06T06:29:38Z</time></trkpt><trkpt lat="46.157035489920645" lon="13.135906151085207"><ele>181.0</ele><time>2026-04-06T06:29:39Z</time></trkpt><trkpt lat="46.15721326153155" lon="13.135731799980098"><ele>181.0</ele><time>2026-04-06T06:29:40Z</time></trkpt><trkpt lat="46.157392028325624" lon="13.1355623214143"><ele>181.0</ele><time>2026-04-06T06:29:41Z</time></trkpt><trkpt lat="46.15757009236264" lon="13.135403410494789"><ele>181.66666666666669</ele><time>2026-04-06T06:29:42Z</time></trkpt><trkpt lat="46.15775090550768" lon="13.13527669252354"><ele>182.33333333333334</ele><time>2026-04-06T06:29:43Z</time></trkpt><trkpt lat="46.157918830949704" lon="13.13514151826983"><ele>183.0</ele><time>2026-04-06T06:29:44Z</time></trkpt><trkpt lat="46.158081334129" lon="13.135015768423798"><ele>183.66666666666666</ele><time>2026-04-06T06:29:45Z</time></trkpt><trkpt lat="46.158242053915025" lon="13.13489935001597"><ele>184.33333333333331</ele><time>2026-04-06T06:29:46Z</time></trkpt><trkpt lat="46.15840037521425" lon="13.13478951034221"><ele>185.0</ele><time>2026-04-06T06:29:47Z</time></trkpt><trkpt lat="46.158556937754" lon="13.134686683473115"><ele>185.33333333333331</ele><time>2026-04-06T06:29:48Z</time></trkpt><trkpt lat="46.15871219313157" lon="13.134589107488218"><ele>185.66666666666666</ele><time>2026-04-06T06:29:49Z</time></trkpt><trkpt lat="46.15886557382496" lon="13.134497049609429"><ele>186.0</ele><time>2026-04-06T06:29:50Z</time></trkpt><trkpt lat="46.15901962001654" lon="13.134406827942936"><ele>187.66666666666666</ele><time>2026-04-06T06:29:51Z</time></trkpt><trkpt lat="46.15917438754492" lon="13.134322768261402"><ele>189.33333333333331</ele><time>2026-04-06T06:29:52Z</time></trkpt><trkpt lat="46.15933174411046" lon="13.134242628213444"><ele>191.0</ele><time>2026-04-06T06:29:53Z</time></trkpt><trkpt lat="46.15949123460403" lon="13.134167437318213"><ele>191.0</ele><time>2026-04-06T06:29:54Z</time></trkpt><trkpt lat="46.15965200945183" lon="13.134095604525754"><ele>191.0</ele><time>2026-04-06T06:29:55Z</time></trkpt><trkpt lat="46.159816749303985" lon="13.134024483203204"><ele>191.0</ele><time>2026-04-06T06:29:56Z</time></trkpt><trkpt lat="46.159982363647956" lon="13.133959051852438"><ele>192.66666666666666</ele><time>2026-04-06T06:29:57Z</time></trkpt><trkpt lat="46.160150678477194" lon="13.133897575014243"><ele>194.33333333333331</ele><time>2026-04-06T06:29:58Z</time></trkpt><trkpt lat="46.160320286648194" lon="13.1338419566581"><ele>196.0</ele><time>2026-04-06T06:29:59Z</time></trkpt><trkpt lat="46.160494072164425" lon="13.13378918561994"><ele>196.0</ele><time>2026-04-06T06:30:00Z</time></trkpt><trkpt lat="46.16067134525443" lon="13.133741129135602"><ele>196.0</ele><time>2026-04-06T06:30:01Z</time></trkpt><trkpt lat="46.160853549520375" lon="13.1336972491129"><ele>196.0</ele><time>2026-04-06T06:30:02Z</time></trkpt><trkpt lat="46.16103699840531" lon="13.133657076670273"><ele>196.0</ele><time>2026-04-06T06:30:03Z</time></trkpt><trkpt lat="46.16122064014436" lon="13.13359568736312"><ele>196.0</ele><time>2026-04-06T06:30:04Z</time></trkpt><trkpt lat="46.16140809622436" lon="13.133568589284083"><ele>196.0</ele><time>2026-04-06T06:30:05Z</time></trkpt><trkpt lat="46.161597457063614" lon="13.133548740914488"><ele>194.66666666666666</ele><time>2026-04-06T06:30:05.999Z</time></trkpt><trkpt lat="46.16178987786841" lon="13.133532929370443"><ele>193.33333333333331</ele><time>2026-04-06T06:30:06.999Z</time></trkpt><trkpt lat="46.161985106381096" lon="13.133522776336928"><ele>192.0</ele><time>2026-04-06T06:30:07.999Z</time></trkpt><trkpt lat="46.162182693210326" lon="13.133519896264279"><ele>192.0</ele><time>2026-04-06T06:30:08.999Z</time></trkpt><trkpt lat="46.1623801919728" lon="13.133519125850343"><ele>192.0</ele><time>2026-04-06T06:30:09.999Z</time></trkpt><trkpt lat="46.1625793069595" lon="13.133522087498465"><ele>192.0</ele><time>2026-04-06T06:30:10.999Z</time></trkpt><trkpt lat="46.16277842285437" lon="13.133529165739414"><ele>192.0</ele><time>2026-04-06T06:30:11.999Z</time></trkpt><trkpt lat="46.162980857763316" lon="13.133536688364591"><ele>192.0</ele><time>2026-04-06T06:30:12.999Z</time></trkpt><trkpt lat="46.16318590348735" lon="13.133543121028215"><ele>192.0</ele><time>2026-04-06T06:30:13.999Z</time></trkpt><trkpt lat="46.163394381811706" lon="13.133547244067463"><ele>191.66666666666666</ele><time>2026-04-06T06:30:14.999Z</time></trkpt><trkpt lat="46.163603916434354" lon="13.133557784131076"><ele>191.33333333333331</ele><time>2026-04-06T06:30:15.999Z</time></trkpt><trkpt lat="46.16381466564784" lon="13.133567062525621"><ele>191.0</ele><time>2026-04-06T06:30:16.999Z</time></trkpt><trkpt lat="46.16402515113463" lon="13.133573491518924"><ele>190.0</ele><time>2026-04-06T06:30:17.999Z</time></trkpt><trkpt lat="46.16423538682652" lon="13.13357960401333"><ele>189.0</ele><time>2026-04-06T06:30:18.999Z</time></trkpt><trkpt lat="46.16444625416609" lon="13.133587245603517"><ele>188.0</ele><time>2026-04-06T06:30:19.999Z</time></trkpt><trkpt lat="46.16465688618987" lon="13.133594401604977"><ele>188.66666666666666</ele><time>2026-04-06T06:30:20.999Z</time></trkpt><trkpt lat="46.16486687907904" lon="13.133604585417508"><ele>189.33333333333334</ele><time>2026-04-06T06:30:21.999Z</time></trkpt><trkpt lat="46.165074722581494" lon="13.133613249191304"><ele>190.0</ele><time>2026-04-06T06:30:22.999Z</time></trkpt><trkpt lat="46.1652800330645" lon="13.133617173909434"><ele>190.0</ele><time>2026-04-06T06:30:23.999Z</time></trkpt><trkpt lat="46.16548176203526" lon="13.13362000318376"><ele>190.0</ele><time>2026-04-06T06:30:24.999Z</time></trkpt><trkpt lat="46.165681485451415" lon="13.1336240083208"><ele>190.0</ele><time>2026-04-06T06:30:25.999Z</time></trkpt><trkpt lat="46.16588040690707" lon="13.133631197165272"><ele>190.33333333333334</ele><time>2026-04-06T06:30:26.999Z</time></trkpt><trkpt lat="46.16607860356548" lon="13.13363461627521"><ele>190.66666666666666</ele><time>2026-04-06T06:30:27.999Z</time></trkpt><trkpt lat="46.16627551806278" lon="13.133636333041359"><ele>191.0</ele><time>2026-04-06T06:30:28.999Z</time></trkpt><trkpt lat="46.16647079964492" lon="13.133641099664947"><ele>194.0</ele><time>2026-04-06T06:30:29.999Z</time></trkpt><trkpt lat="46.1666650789323" lon="13.13364860700699"><ele>197.0</ele><time>2026-04-06T06:30:30.999Z</time></trkpt><trkpt lat="46.16686026608896" lon="13.13365472827931"><ele>200.0</ele><time>2026-04-06T06:30:31.999Z</time></trkpt><trkpt lat="46.16705741109062" lon="13.133654695850812"><ele>200.0</ele><time>2026-04-06T06:30:32.999Z</time></trkpt><trkpt lat="46.16725401209007" lon="13.133645765332284"><ele>200.0</ele><time>2026-04-06T06:30:33.999Z</time></trkpt><trkpt lat="46.16745057488712" lon="13.133627341206715"><ele>200.0</ele><time>2026-04-06T06:30:34.999Z</time></trkpt><trkpt lat="46.16764456926143" lon="13.133629638860484"><ele>200.66666666666669</ele><time>2026-04-06T06:30:35.999Z</time></trkpt><trkpt lat="46.16783881562807" lon="13.133600587030111"><ele>201.33333333333331</ele><time>2026-04-06T06:30:36.999Z</time></trkpt><trkpt lat="46.16802784113894" lon="13.13353815801165"><ele>202.0</ele><time>2026-04-06T06:30:37.999Z</time></trkpt><trkpt lat="46.16821657853532" lon="13.133495756428296"><ele>200.66666666666666</ele><time>2026-04-06T06:30:38.999Z</time></trkpt><trkpt lat="46.16840443426924" lon="13.133445993533021"><ele>199.33333333333331</ele><time>2026-04-06T06:30:39.999Z</time></trkpt><trkpt lat="46.16859219405908" lon="13.133392744539758"><ele>198.0</ele><time>2026-04-06T06:30:40.999Z</time></trkpt><trkpt lat="46.168778970932955" lon="13.133329318002655"><ele>198.0</ele><time>2026-04-06T06:30:41.999Z</time></trkpt><trkpt lat="46.168963708268336" lon="13.133255079391748"><ele>198.0</ele><time>2026-04-06T06:30:42.999Z</time></trkpt><trkpt lat="46.1691493208715" lon="13.133176789056742"><ele>198.0</ele><time>2026-04-06T06:30:43.999Z</time></trkpt><trkpt lat="46.16933699947685" lon="13.133092415396144"><ele>194.66666666666666</ele><time>2026-04-06T06:30:44.999Z</time></trkpt><trkpt lat="46.16952715122362" lon="13.132995536846073"><ele>191.33333333333331</ele><time>2026-04-06T06:30:45.999Z</time></trkpt><trkpt lat="46.16972034929907" lon="13.132891944184726"><ele>188.0</ele><time>2026-04-06T06:30:46.999Z</time></trkpt><trkpt lat="46.16991898606176" lon="13.132779924962373"><ele>188.0</ele><time>2026-04-06T06:30:47.999Z</time></trkpt><trkpt lat="46.17012276801474" lon="13.132655698398308"><ele>188.0</ele><time>2026-04-06T06:30:48.999Z</time></trkpt><trkpt lat="46.17032760538454" lon="13.132520742395084"><ele>188.0</ele><time>2026-04-06T06:30:49.999Z</time></trkpt><trkpt lat="46.17053136825922" lon="13.132386767724741"><ele>187.33333333333331</ele><time>2026-04-06T06:30:50.999Z</time></trkpt><trkpt lat="46.17073356031749" lon="13.13225459011453"><ele>186.66666666666666</ele><time>2026-04-06T06:30:51.999Z</time></trkpt><trkpt lat="46.170933986263655" lon="13.132123994229358"><ele>186.0</ele><time>2026-04-06T06:30:52.999Z</time></trkpt><trkpt lat="46.17113862158601" lon="13.13201571391584"><ele>186.0</ele><time>2026-04-06T06:30:53.999Z</time></trkpt><trkpt lat="46.171334187608664" lon="13.131888569319544"><ele>186.0</ele><time>2026-04-06T06:30:54.999Z</time></trkpt><trkpt lat="46.17153081357429" lon="13.131761304719902"><ele>186.0</ele><time>2026-04-06T06:30:55.999Z</time></trkpt><trkpt lat="46.171717050512044" lon="13.1316162107584"><ele>185.0</ele><time>2026-04-06T06:30:56.999Z</time></trkpt><trkpt lat="46.17190849693972" lon="13.131492832967316"><ele>184.0</ele><time>2026-04-06T06:30:57.999Z</time></trkpt><trkpt lat="46.1720973628091" lon="13.131368749394445"><ele>183.0</ele><time>2026-04-06T06:30:58.999Z</time></trkpt><trkpt lat="46.172294651188224" lon="13.13126707797618"><ele>184.0</ele><time>2026-04-06T06:30:59.999Z</time></trkpt><trkpt lat="46.172476717271905" lon="13.13112358468471"><ele>185.0</ele><time>2026-04-06T06:31:00.999Z</time></trkpt><trkpt lat="46.172670894534036" lon="13.131024295604307"><ele>186.0</ele><time>2026-04-06T06:31:01.999Z</time></trkpt><trkpt lat="46.172850153321725" lon="13.130881170695428"><ele>186.0</ele><time>2026-04-06T06:31:02.999Z</time></trkpt><trkpt lat="46.17303569397822" lon="13.130762179966851"><ele>186.0</ele><time>2026-04-06T06:31:03.999Z</time></trkpt><trkpt lat="46.17321912760925" lon="13.130642501722326"><ele>186.0</ele><time>2026-04-06T06:31:04.999Z</time></trkpt><trkpt lat="46.17340712905997" lon="13.130546806906999"><ele>187.0</ele><time>2026-04-06T06:31:05.999Z</time></trkpt><trkpt lat="46.17358462977901" lon="13.130432081932726"><ele>188.0</ele><time>2026-04-06T06:31:06.999Z</time></trkpt><trkpt lat="46.17375245208699" lon="13.130299398122853"><ele>189.0</ele><time>2026-04-06T06:31:07.999Z</time></trkpt><trkpt lat="46.17392438524388" lon="13.130190869038588"><ele>188.66666666666666</ele><time>2026-04-06T06:31:08.999Z</time></trkpt><trkpt lat="46.17409344349824" lon="13.13008261974571"><ele>188.33333333333331</ele><time>2026-04-06T06:31:09.999Z</time></trkpt><trkpt lat="46.17426227326084" lon="13.129974345097326"><ele>188.0</ele><time>2026-04-06T06:31:10.999Z</time></trkpt><trkpt lat="46.17443091351745" lon="13.12986522933277"><ele>188.66666666666666</ele><time>2026-04-06T06:31:11.999Z</time></trkpt><trkpt lat="46.17459886989804" lon="13.129755088501875"><ele>189.33333333333334</ele><time>2026-04-06T06:31:12.999Z</time></trkpt><trkpt lat="46.1747697396381" lon="13.129645252995841"><ele>190.0</ele><time>2026-04-06T06:31:13.999Z</time></trkpt><trkpt lat="46.17494227115023" lon="13.129535780669894"><ele>191.33333333333334</ele><time>2026-04-06T06:31:14.999Z</time></trkpt><trkpt lat="46.17511564749482" lon="13.129422664856156"><ele>192.66666666666669</ele><time>2026-04-06T06:31:15.999Z</time></trkpt><trkpt lat="46.175290176293714" lon="13.129308236043324"><ele>194.0</ele><time>2026-04-06T06:31:16.999Z</time></trkpt><trkpt lat="46.175463404804695" lon="13.129195091432651"><ele>194.0</ele><time>2026-04-06T06:31:17.999Z</time></trkpt><trkpt lat="46.17563652475779" lon="13.129084365889126"><ele>194.0</ele><time>2026-04-06T06:31:18.999Z</time></trkpt><trkpt lat="46.17580843484711" lon="13.128973149167551"><ele>194.0</ele><time>2026-04-06T06:31:19.999Z</time></trkpt><trkpt lat="46.17597742421223" lon="13.128862900626672"><ele>193.66666666666669</ele><time>2026-04-06T06:31:20.999Z</time></trkpt><trkpt lat="46.17613469970046" lon="13.128759189440567"><ele>193.33333333333331</ele><time>2026-04-06T06:31:21.999Z</time></trkpt><trkpt lat="46.176280123701" lon="13.12866154149331"><ele>193.0</ele><time>2026-04-06T06:31:23Z</time></trkpt><trkpt lat="46.17641581851977" lon="13.128599489121425"><ele>192.60000000000002</ele><time>2026-04-06T06:31:24Z</time></trkpt><trkpt lat="46.176526345003744" lon="13.128528170952993"><ele>192.20000000000002</ele><time>2026-04-06T06:31:25Z</time></trkpt><trkpt lat="46.17662950506444" lon="13.128461606087102"><ele>191.8</ele><time>2026-04-06T06:31:26Z</time></trkpt><trkpt lat="46.176720063016084" lon="13.128398667675933"><ele>191.4</ele><time>2026-04-06T06:31:27Z</time></trkpt><trkpt lat="46.17679027434954" lon="13.128314098605674"><ele>191.0</ele><time>2026-04-06T06:31:28Z</time></trkpt><trkpt lat="46.176861153324474" lon="13.128256742168734"><ele>190.5</ele><time>2026-04-06T06:31:29Z</time></trkpt><trkpt lat="46.17693273843097" lon="13.128207066458923"><ele>190.0</ele><time>2026-04-06T06:31:30Z</time></trkpt><trkpt lat="46.17701206482936" lon="13.128185219263917"><ele>189.5</ele><time>2026-04-06T06:31:31Z</time></trkpt><trkpt lat="46.17709641632933" lon="13.128166745502426"><ele>189.0</ele><time>2026-04-06T06:31:32Z</time></trkpt><trkpt lat="46.17718452433174" lon="13.12814632946482"><ele>188.5</ele><time>2026-04-06T06:31:33Z</time></trkpt><trkpt lat="46.17726337098987" lon="13.12805437008203"><ele>188.0</ele><time>2026-04-06T06:31:34Z</time></trkpt><trkpt lat="46.17736814348894" lon="13.127976202427597"><ele>187.25</ele><time>2026-04-06T06:31:35Z</time></trkpt><trkpt lat="46.17748668502862" lon="13.127889954014075"><ele>186.5</ele><time>2026-04-06T06:31:36Z</time></trkpt><trkpt lat="46.1776176079339" lon="13.12780347825027"><ele>185.75</ele><time>2026-04-06T06:31:37Z</time></trkpt><trkpt lat="46.17776090035911" lon="13.127715314206048"><ele>185.0</ele><time>2026-04-06T06:31:38Z</time></trkpt><trkpt lat="46.177921727011345" lon="13.127615284216851"><ele>185.0</ele><time>2026-04-06T06:31:39Z</time></trkpt><trkpt lat="46.17809106204911" lon="13.127501256926406"><ele>185.0</ele><time>2026-04-06T06:31:40Z</time></trkpt><trkpt lat="46.17827115690452" lon="13.127380855159215"><ele>185.0</ele><time>2026-04-06T06:31:41Z</time></trkpt><trkpt lat="46.178451212586126" lon="13.12726608060029"><ele>184.66666666666666</ele><time>2026-04-06T06:31:42Z</time></trkpt><trkpt lat="46.17862844597099" lon="13.12714873314893"><ele>184.33333333333334</ele><time>2026-04-06T06:31:43Z</time></trkpt><trkpt lat="46.178806274214644" lon="13.127029640897424"><ele>184.0</ele><time>2026-04-06T06:31:44Z</time></trkpt><trkpt lat="46.17898786341492" lon="13.126913343267063"><ele>184.0</ele><time>2026-04-06T06:31:45Z</time></trkpt><trkpt lat="46.17917323132658" lon="13.126795285212774"><ele>184.0</ele><time>2026-04-06T06:31:46Z</time></trkpt><trkpt lat="46.17936216090475" lon="13.126676871187035"><ele>184.0</ele><time>2026-04-06T06:31:47Z</time></trkpt><trkpt lat="46.17954867358628" lon="13.126555239537813"><ele>184.0</ele><time>2026-04-06T06:31:48Z</time></trkpt><trkpt lat="46.17973676803966" lon="13.126435657163658"><ele>184.0</ele><time>2026-04-06T06:31:49Z</time></trkpt><trkpt lat="46.179925402756" lon="13.126314118615063"><ele>184.0</ele><time>2026-04-06T06:31:50Z</time></trkpt><trkpt lat="46.18011329101136" lon="13.12619571517678"><ele>183.66666666666669</ele><time>2026-04-06T06:31:51Z</time></trkpt><trkpt lat="46.18029840553518" lon="13.126074802418419"><ele>183.33333333333334</ele><time>2026-04-06T06:31:52Z</time></trkpt><trkpt lat="46.180482666162135" lon="13.125954015967464"><ele>183.0</ele><time>2026-04-06T06:31:53Z</time></trkpt><trkpt lat="46.180664163434336" lon="13.125836714206413"><ele>182.66666666666666</ele><time>2026-04-06T06:31:54Z</time></trkpt><trkpt lat="46.18084520680368" lon="13.125723452895652"><ele>182.33333333333331</ele><time>2026-04-06T06:31:55Z</time></trkpt><trkpt lat="46.18102511002058" lon="13.125609719721375"><ele>182.0</ele><time>2026-04-06T06:31:56Z</time></trkpt><trkpt lat="46.18120199707739" lon="13.125494542892794"><ele>182.0</ele><time>2026-04-06T06:31:57Z</time></trkpt><trkpt lat="46.18137781359598" lon="13.12537840792325"><ele>182.0</ele><time>2026-04-06T06:31:58Z</time></trkpt><trkpt lat="46.18155357261322" lon="13.125262048760773"><ele>182.0</ele><time>2026-04-06T06:31:59Z</time></trkpt><trkpt lat="46.18173205726638" lon="13.125145684537264"><ele>181.66666666666666</ele><time>2026-04-06T06:32:00Z</time></trkpt><trkpt lat="46.18191349006248" lon="13.125028283616173"><ele>181.33333333333334</ele><time>2026-04-06T06:32:01Z</time></trkpt><trkpt lat="46.18209806429245" lon="13.12491363900621"><ele>181.0</ele><time>2026-04-06T06:32:02Z</time></trkpt><trkpt lat="46.18228436983332" lon="13.124793917280083"><ele>179.33333333333334</ele><time>2026-04-06T06:32:03Z</time></trkpt><trkpt lat="46.182471405085195" lon="13.124671007655177"><ele>177.66666666666666</ele><time>2026-04-06T06:32:04Z</time></trkpt><trkpt lat="46.18265852157236" lon="13.124549051909487"><ele>176.0</ele><time>2026-04-06T06:32:05Z</time></trkpt><trkpt lat="46.18284689016224" lon="13.12442770743407"><ele>176.0</ele><time>2026-04-06T06:32:06Z</time></trkpt><trkpt lat="46.18303337854865" lon="13.124306654071844"><ele>176.0</ele><time>2026-04-06T06:32:07Z</time></trkpt><trkpt lat="46.18321884362357" lon="13.12418537591761"><ele>176.0</ele><time>2026-04-06T06:32:08Z</time></trkpt><trkpt lat="46.183400260737535" lon="13.124066551177721"><ele>176.33333333333331</ele><time>2026-04-06T06:32:09Z</time></trkpt><trkpt lat="46.183581688286516" lon="13.123944405731917"><ele>176.66666666666666</ele><time>2026-04-06T06:32:10Z</time></trkpt><trkpt lat="46.18376827013247" lon="13.123824086462553"><ele>177.0</ele><time>2026-04-06T06:32:11Z</time></trkpt><trkpt lat="46.18395807614059" lon="13.123707131012019"><ele>177.33333333333334</ele><time>2026-04-06T06:32:11.999Z</time></trkpt><trkpt lat="46.184138349134706" lon="13.123585650185053"><ele>177.66666666666669</ele><time>2026-04-06T06:32:12.999Z</time></trkpt><trkpt lat="46.18431102831432" lon="13.123468106738928"><ele>178.0</ele><time>2026-04-06T06:32:13.999Z</time></trkpt><trkpt lat="46.18447865082315" lon="13.123356701277736"><ele>178.0</ele><time>2026-04-06T06:32:14.999Z</time></trkpt><trkpt lat="46.1846512219304" lon="13.1232702271028"><ele>178.0</ele><time>2026-04-06T06:32:15.999Z</time></trkpt><trkpt lat="46.18481329568876" lon="13.123164926169393"><ele>178.0</ele><time>2026-04-06T06:32:16.999Z</time></trkpt><trkpt lat="46.18497675140718" lon="13.123058911360443"><ele>176.33333333333334</ele><time>2026-04-06T06:32:17.999Z</time></trkpt><trkpt lat="46.18513984524493" lon="13.122953022055151"><ele>174.66666666666666</ele><time>2026-04-06T06:32:18.999Z</time></trkpt><trkpt lat="46.185303082987" lon="13.12284621312295"><ele>173.0</ele><time>2026-04-06T06:32:19.999Z</time></trkpt><trkpt lat="46.185469526982494" lon="13.12273731551282"><ele>173.0</ele><time>2026-04-06T06:32:20.999Z</time></trkpt><trkpt lat="46.18563882274297" lon="13.12262788226564"><ele>173.0</ele><time>2026-04-06T06:32:21.999Z</time></trkpt><trkpt lat="46.1858114078043" lon="13.122516322823248"><ele>173.0</ele><time>2026-04-06T06:32:22.999Z</time></trkpt><trkpt lat="46.18598659651044" lon="13.122403080395907"><ele>172.33333333333331</ele><time>2026-04-06T06:32:23.999Z</time></trkpt><trkpt lat="46.18616377974713" lon="13.122288548595234"><ele>171.66666666666666</ele><time>2026-04-06T06:32:24.999Z</time></trkpt><trkpt lat="46.18634422053904" lon="13.122171911158553"><ele>171.0</ele><time>2026-04-06T06:32:25.999Z</time></trkpt><trkpt lat="46.18652584411064" lon="13.12205450924523"><ele>171.0</ele><time>2026-04-06T06:32:26.999Z</time></trkpt><trkpt lat="46.18670617272939" lon="13.121915656484717"><ele>171.0</ele><time>2026-04-06T06:32:27.999Z</time></trkpt><trkpt lat="46.186898371734664" lon="13.121792284582806"><ele>171.0</ele><time>2026-04-06T06:32:28.999Z</time></trkpt><trkpt lat="46.187089067254554" lon="13.121665583621704"><ele>171.66666666666666</ele><time>2026-04-06T06:32:29.999Z</time></trkpt><trkpt lat="46.187279253135166" lon="13.121542816287416"><ele>172.33333333333331</ele><time>2026-04-06T06:32:30.999Z</time></trkpt><trkpt lat="46.1874695041263" lon="13.12142415078876"><ele>173.0</ele><time>2026-04-06T06:32:31.999Z</time></trkpt><trkpt lat="46.18765819702439" lon="13.121302288068295"><ele>173.0</ele><time>2026-04-06T06:32:32.999Z</time></trkpt><trkpt lat="46.18784684881438" lon="13.121181318818312"><ele>173.0</ele><time>2026-04-06T06:32:33.999Z</time></trkpt><trkpt lat="46.188036126304816" lon="13.12106256491444"><ele>173.0</ele><time>2026-04-06T06:32:34.999Z</time></trkpt><trkpt lat="46.18822700114924" lon="13.120948503053649"><ele>173.0</ele><time>2026-04-06T06:32:35.999Z</time></trkpt><trkpt lat="46.18842025533052" lon="13.120838250308799"><ele>173.0</ele><time>2026-04-06T06:32:36.999Z</time></trkpt><trkpt lat="46.18861771744397" lon="13.120739740792605"><ele>173.0</ele><time>2026-04-06T06:32:37.999Z</time></trkpt><trkpt lat="46.18881899683978" lon="13.12065192558493"><ele>172.0</ele><time>2026-04-06T06:32:38.999Z</time></trkpt><trkpt lat="46.18902319326637" lon="13.120574189880609"><ele>171.0</ele><time>2026-04-06T06:32:39.999Z</time></trkpt><trkpt lat="46.18923160468323" lon="13.120499014650353"><ele>170.0</ele><time>2026-04-06T06:32:40.999Z</time></trkpt><trkpt lat="46.189440485634066" lon="13.12043106021084"><ele>170.0</ele><time>2026-04-06T06:32:41.999Z</time></trkpt><trkpt lat="46.18965373758604" lon="13.120366221739657"><ele>170.0</ele><time>2026-04-06T06:32:42.999Z</time></trkpt><trkpt lat="46.18986890607631" lon="13.120312449997844"><ele>170.0</ele><time>2026-04-06T06:32:43.999Z</time></trkpt><trkpt lat="46.190087534318614" lon="13.120270854833056"><ele>168.66666666666666</ele><time>2026-04-06T06:32:44.999Z</time></trkpt><trkpt lat="46.1903065570154" lon="13.120243311194164"><ele>167.33333333333334</ele><time>2026-04-06T06:32:45.999Z</time></trkpt><trkpt lat="46.190525505056804" lon="13.120229007104383"><ele>166.0</ele><time>2026-04-06T06:32:46.999Z</time></trkpt><trkpt lat="46.19074399874726" lon="13.120219138723437"><ele>165.66666666666669</ele><time>2026-04-06T06:32:47.999Z</time></trkpt><trkpt lat="46.190961876062296" lon="13.120221199445787"><ele>165.33333333333334</ele><time>2026-04-06T06:32:48.999Z</time></trkpt><trkpt lat="46.19117677757587" lon="13.120228948530178"><ele>165.0</ele><time>2026-04-06T06:32:49.999Z</time></trkpt><trkpt lat="46.19138771314364" lon="13.120240862598788"><ele>165.0</ele><time>2026-04-06T06:32:50.999Z</time></trkpt><trkpt lat="46.1915953963823" lon="13.120261099350024"><ele>165.0</ele><time>2026-04-06T06:32:51.999Z</time></trkpt><trkpt lat="46.19179991729481" lon="13.1202955951596"><ele>165.0</ele><time>2026-04-06T06:32:52.999Z</time></trkpt><trkpt lat="46.19199953004073" lon="13.12033751349868"><ele>165.0</ele><time>2026-04-06T06:32:53.999Z</time></trkpt><trkpt lat="46.19219086032832" lon="13.120383320256238"><ele>165.0</ele><time>2026-04-06T06:32:54.999Z</time></trkpt><trkpt lat="46.19237637134154" lon="13.120424919808443"><ele>165.0</ele><time>2026-04-06T06:32:55.999Z</time></trkpt><trkpt lat="46.19255584383514" lon="13.120467431911706"><ele>165.33333333333334</ele><time>2026-04-06T06:32:56.999Z</time></trkpt><trkpt lat="46.19273326661595" lon="13.120506714641536"><ele>165.66666666666669</ele><time>2026-04-06T06:32:57.999Z</time></trkpt><trkpt lat="46.19290715441832" lon="13.120546256489183"><ele>166.0</ele><time>2026-04-06T06:32:58.999Z</time></trkpt><trkpt lat="46.19307714970906" lon="13.120582525911653"><ele>166.66666666666669</ele><time>2026-04-06T06:32:59.999Z</time></trkpt><trkpt lat="46.19324314124949" lon="13.120617509888193"><ele>167.33333333333334</ele><time>2026-04-06T06:33:00.999Z</time></trkpt><trkpt lat="46.19340627364461" lon="13.120655897670245"><ele>168.0</ele><time>2026-04-06T06:33:01.999Z</time></trkpt><trkpt lat="46.19356919272738" lon="13.120691801044979"><ele>168.0</ele><time>2026-04-06T06:33:02.999Z</time></trkpt><trkpt lat="46.19372998695011" lon="13.120727592350239"><ele>168.0</ele><time>2026-04-06T06:33:03.999Z</time></trkpt><trkpt lat="46.19388703742539" lon="13.12076359753376"><ele>168.0</ele><time>2026-04-06T06:33:04.999Z</time></trkpt><trkpt lat="46.19404016332089" lon="13.120796504577863"><ele>167.66666666666666</ele><time>2026-04-06T06:33:05.999Z</time></trkpt><trkpt lat="46.194192071556" lon="13.120828098599826"><ele>167.33333333333331</ele><time>2026-04-06T06:33:06.999Z</time></trkpt><trkpt lat="46.194344814810904" lon="13.120862874584368"><ele>167.0</ele><time>2026-04-06T06:33:07.999Z</time></trkpt><trkpt lat="46.19450204912773" lon="13.12089908603916"><ele>167.0</ele><time>2026-04-06T06:33:08.999Z</time></trkpt><trkpt lat="46.19466532498163" lon="13.120938974330372"><ele>167.0</ele><time>2026-04-06T06:33:09.999Z</time></trkpt><trkpt lat="46.19483036643428" lon="13.1209785046342"><ele>167.0</ele><time>2026-04-06T06:33:10.999Z</time></trkpt><trkpt lat="46.19499538862045" lon="13.121015281052644"><ele>168.0</ele><time>2026-04-06T06:33:11.999Z</time></trkpt><trkpt lat="46.195160253699626" lon="13.12104895611416"><ele>169.0</ele><time>2026-04-06T06:33:12.999Z</time></trkpt><trkpt lat="46.19532472418318" lon="13.12108849006053"><ele>170.0</ele><time>2026-04-06T06:33:13.999Z</time></trkpt><trkpt lat="46.195488238114486" lon="13.121126505859834"><ele>170.0</ele><time>2026-04-06T06:33:14.999Z</time></trkpt><trkpt lat="46.1956528271861" lon="13.121165421420242"><ele>170.0</ele><time>2026-04-06T06:33:15.999Z</time></trkpt><trkpt lat="46.19581743144494" lon="13.121204996166027"><ele>170.0</ele><time>2026-04-06T06:33:16.999Z</time></trkpt><trkpt lat="46.195980727614106" lon="13.12124220162333"><ele>171.66666666666666</ele><time>2026-04-06T06:33:17.999Z</time></trkpt><trkpt lat="46.19614435901122" lon="13.121279209211375"><ele>173.33333333333334</ele><time>2026-04-06T06:33:18.999Z</time></trkpt><trkpt lat="46.196307672680156" lon="13.121317688452729"><ele>175.0</ele><time>2026-04-06T06:33:19.999Z</time></trkpt><trkpt lat="46.196470328429214" lon="13.121356585279978"><ele>176.0</ele><time>2026-04-06T06:33:20.999Z</time></trkpt><trkpt lat="46.196635597884956" lon="13.121393266572998"><ele>177.0</ele><time>2026-04-06T06:33:21.999Z</time></trkpt><trkpt lat="46.19679952368184" lon="13.121431267307653"><ele>178.0</ele><time>2026-04-06T06:33:22.999Z</time></trkpt><trkpt lat="46.19696689700901" lon="13.121469110540708"><ele>178.0</ele><time>2026-04-06T06:33:23.999Z</time></trkpt><trkpt lat="46.19713398989461" lon="13.12150975637654"><ele>178.0</ele><time>2026-04-06T06:33:24.999Z</time></trkpt><trkpt lat="46.19730095767532" lon="13.121548931619492"><ele>178.0</ele><time>2026-04-06T06:33:25.999Z</time></trkpt><trkpt lat="46.197471927195245" lon="13.121589093148827"><ele>176.33333333333334</ele><time>2026-04-06T06:33:26.999Z</time></trkpt><trkpt lat="46.19764441211965" lon="13.121627261746358"><ele>174.66666666666666</ele><time>2026-04-06T06:33:28Z</time></trkpt><trkpt lat="46.19781910263608" lon="13.121659176821597"><ele>173.0</ele><time>2026-04-06T06:33:29Z</time></trkpt><trkpt lat="46.19799510081226" lon="13.121685058533073"><ele>173.0</ele><time>2026-04-06T06:33:30Z</time></trkpt><trkpt lat="46.19817061853804" lon="13.12170498981365"><ele>173.0</ele><time>2026-04-06T06:33:31Z</time></trkpt><trkpt lat="46.19834624781549" lon="13.121718393333918"><ele>173.0</ele><time>2026-04-06T06:33:32Z</time></trkpt><trkpt lat="46.198519738545755" lon="13.121717538002471"><ele>173.0</ele><time>2026-04-06T06:33:33Z</time></trkpt><trkpt lat="46.19869436323084" lon="13.121704647716827"><ele>173.0</ele><time>2026-04-06T06:33:34Z</time></trkpt><trkpt lat="46.19886725250747" lon="13.12168749638639"><ele>173.0</ele><time>2026-04-06T06:33:35Z</time></trkpt><trkpt lat="46.19904186700582" lon="13.121660793808534"><ele>173.0</ele><time>2026-04-06T06:33:36Z</time></trkpt><trkpt lat="46.19921657096792" lon="13.121631467977199"><ele>173.0</ele><time>2026-04-06T06:33:37Z</time></trkpt><trkpt lat="46.19939272545373" lon="13.1215975334015"><ele>173.0</ele><time>2026-04-06T06:33:38Z</time></trkpt><trkpt lat="46.19956683384728" lon="13.121552213237676"><ele>173.33333333333331</ele><time>2026-04-06T06:33:39Z</time></trkpt><trkpt lat="46.19974175179607" lon="13.121488731504911"><ele>173.66666666666666</ele><time>2026-04-06T06:33:40Z</time></trkpt><trkpt lat="46.19991912749241" lon="13.121420460299829"><ele>174.0</ele><time>2026-04-06T06:33:41Z</time></trkpt><trkpt lat="46.200094018226125" lon="13.121342400096864"><ele>174.66666666666666</ele><time>2026-04-06T06:33:42Z</time></trkpt><trkpt lat="46.2002709093441" lon="13.121253407854978"><ele>175.33333333333331</ele><time>2026-04-06T06:33:43Z</time></trkpt><trkpt lat="46.20044719685313" lon="13.121155716491927"><ele>176.0</ele><time>2026-04-06T06:33:44Z</time></trkpt><trkpt lat="46.2006202860782" lon="13.121053307173824"><ele>176.33333333333331</ele><time>2026-04-06T06:33:45Z</time></trkpt><trkpt lat="46.20078911714004" lon="13.12094490618247"><ele>176.66666666666666</ele><time>2026-04-06T06:33:46Z</time></trkpt><trkpt lat="46.200956934275126" lon="13.12083062938727"><ele>177.0</ele><time>2026-04-06T06:33:47Z</time></trkpt><trkpt lat="46.20111944408204" lon="13.120706606946246"><ele>177.33333333333334</ele><time>2026-04-06T06:33:48Z</time></trkpt><trkpt lat="46.2012766382688" lon="13.120570745698132"><ele>177.66666666666669</ele><time>2026-04-06T06:33:49Z</time></trkpt><trkpt lat="46.20143162830122" lon="13.120432169316103"><ele>178.0</ele><time>2026-04-06T06:33:50Z</time></trkpt><trkpt lat="46.201581524619996" lon="13.120295386754607"><ele>178.0</ele><time>2026-04-06T06:33:51Z</time></trkpt><trkpt lat="46.2017161025274" lon="13.120152233380953"><ele>178.0</ele><time>2026-04-06T06:33:52Z</time></trkpt><trkpt lat="46.20184460814935" lon="13.120010481125172"><ele>178.0</ele><time>2026-04-06T06:33:53Z</time></trkpt><trkpt lat="46.201965482884425" lon="13.119869983767007"><ele>178.0</ele><time>2026-04-06T06:33:54Z</time></trkpt><trkpt lat="46.202069094775595" lon="13.119738159371138"><ele>178.0</ele><time>2026-04-06T06:33:55Z</time></trkpt><trkpt lat="46.202156567777614" lon="13.119624774560098"><ele>178.0</ele><time>2026-04-06T06:33:56Z</time></trkpt><trkpt lat="46.202230692110305" lon="13.119524764615372"><ele>178.0</ele><time>2026-04-06T06:33:57Z</time></trkpt><trkpt lat="46.20229432738714" lon="13.119433120903564"><ele>178.0</ele><time>2026-04-06T06:33:58Z</time></trkpt><trkpt lat="46.202349365799634" lon="13.119360476301543"><ele>177.66666666666669</ele><time>2026-04-06T06:33:59Z</time></trkpt><trkpt lat="46.2024049238428" lon="13.119294362729352"><ele>177.33333333333334</ele><time>2026-04-06T06:34:00Z</time></trkpt><trkpt lat="46.20246989019512" lon="13.119244658273644"><ele>177.0</ele><time>2026-04-06T06:34:01Z</time></trkpt><trkpt lat="46.202546715916945" lon="13.119232000035778"><ele>176.66666666666666</ele><time>2026-04-06T06:34:02Z</time></trkpt><trkpt lat="46.20263001406622" lon="13.119279489484759"><ele>176.33333333333331</ele><time>2026-04-06T06:34:03Z</time></trkpt><trkpt lat="46.20269991466831" lon="13.119355166951946"><ele>176.0</ele><time>2026-04-06T06:34:04Z</time></trkpt><trkpt lat="46.202759060561704" lon="13.119458671630479"><ele>176.0</ele><time>2026-04-06T06:34:05Z</time></trkpt><trkpt lat="46.20281326357558" lon="13.119573415964421"><ele>176.0</ele><time>2026-04-06T06:34:06Z</time></trkpt><trkpt lat="46.20287570066574" lon="13.119687774790112"><ele>176.0</ele><time>2026-04-06T06:34:07Z</time></trkpt><trkpt lat="46.202939978704265" lon="13.119803634573573"><ele>176.0</ele><time>2026-04-06T06:34:08Z</time></trkpt><trkpt lat="46.203004908704976" lon="13.119921798804224"><ele>176.0</ele><time>2026-04-06T06:34:09Z</time></trkpt><trkpt lat="46.203070978075594" lon="13.120041460756692"><ele>175.60000000000002</ele><time>2026-04-06T06:34:10Z</time></trkpt><trkpt lat="46.20313385818384" lon="13.12016356437071"><ele>175.2</ele><time>2026-04-06T06:34:11Z</time></trkpt><trkpt lat="46.203195138216245" lon="13.120281013696975"><ele>174.8</ele><time>2026-04-06T06:34:12Z</time></trkpt><trkpt lat="46.20325603241536" lon="13.120387430399699"><ele>174.39999999999998</ele><time>2026-04-06T06:34:12.999Z</time></trkpt><trkpt lat="46.20331337968525" lon="13.120488858124837"><ele>174.0</ele><time>2026-04-06T06:34:13.999Z</time></trkpt><trkpt lat="46.20336388836633" lon="13.120578515883658"><ele>174.0</ele><time>2026-04-06T06:34:14.999Z</time></trkpt><trkpt lat="46.20340967670803" lon="13.120656932723833"><ele>174.0</ele><time>2026-04-06T06:34:15.999Z</time></trkpt><trkpt lat="46.20348970665948" lon="13.120761181749653"><ele>174.0</ele><time>2026-04-06T06:34:17.999Z</time></trkpt><trkpt lat="46.20355030966084" lon="13.12071849150289"><ele>174.0</ele><time>2026-04-06T06:34:21.999Z</time></trkpt><trkpt lat="46.203616446250386" lon="13.120717838907483"><ele>174.0</ele><time>2026-04-06T06:34:26.999Z</time></trkpt><trkpt lat="46.20368973411646" lon="13.12054293648295"><ele>174.0</ele><time>2026-04-06T06:34:30.999Z</time></trkpt><trkpt lat="46.20361093328223" lon="13.120590563721217"><ele>174.0</ele><time>2026-04-06T06:34:32.999Z</time></trkpt><trkpt lat="46.203499968213364" lon="13.120433887840495"><ele>174.0</ele><time>2026-04-06T06:41:44.999Z</time></trkpt><trkpt lat="46.20341044478292" lon="13.12037899804249"><ele>174.0</ele><time>2026-04-06T06:41:46.999Z</time></trkpt><trkpt lat="46.20334746948159" lon="13.120321831090363"><ele>174.0</ele><time>2026-04-06T06:41:49.999Z</time></trkpt><trkpt lat="46.203283332596115" lon="13.120292601893492"><ele>174.0</ele><time>2026-04-06T06:41:54Z</time></trkpt><trkpt lat="46.20320194397812" lon="13.120207174516725"><ele>174.0</ele><time>2026-04-06T06:41:56Z</time></trkpt><trkpt lat="46.20312615000801" lon="13.120054678352798"><ele>174.0</ele><time>2026-04-06T06:41:58Z</time></trkpt><trkpt lat="46.20308002015438" lon="13.11997296577119"><ele>174.0</ele><time>2026-04-06T06:41:59Z</time></trkpt><trkpt lat="46.203011099118505" lon="13.119850505070776"><ele>174.0</ele><time>2026-04-06T06:42:01Z</time></trkpt><trkpt lat="46.20300610602155" lon="13.119746410706453"><ele>176.0</ele><time>2026-04-06T06:42:05Z</time></trkpt><trkpt lat="46.20297552478176" lon="13.11966284812418"><ele>176.0</ele><time>2026-04-06T06:42:07Z</time></trkpt><trkpt lat="46.20294747911555" lon="13.119579909821661"><ele>176.0</ele><time>2026-04-06T06:42:10Z</time></trkpt><trkpt lat="46.20291410469002" lon="13.119483839945056"><ele>176.0</ele><time>2026-04-06T06:42:21Z</time></trkpt><trkpt lat="46.20287173800467" lon="13.119397310631014"><ele>176.0</ele><time>2026-04-06T06:42:24Z</time></trkpt><trkpt lat="46.202918126538286" lon="13.119320510263366"><ele>176.0</ele><time>2026-04-06T06:42:30.999Z</time></trkpt></trkseg><trkseg><trkpt lat="46.202855250270936" lon="13.119403170109933"><ele>176.0</ele><time>2026-04-06T07:38:48.606Z</time></trkpt><trkpt lat="46.20296672456652" lon="13.119356810102952"><ele>176.0</ele><time>2026-04-06T07:38:49.606Z</time></trkpt><trkpt lat="46.20302496484225" lon="13.119322254906336"><ele>176.0</ele><time>2026-04-06T07:38:58.998Z</time></trkpt><trkpt lat="46.202966928037995" lon="13.119363058326654"><ele>176.0</ele><time>2026-04-06T07:39:20.999Z</time></trkpt><trkpt lat="46.20290369357001" lon="13.119410128621245"><ele>176.0</ele><time>2026-04-06T07:39:28.999Z</time></trkpt><trkpt lat="46.20286417665451" lon="13.119336715104568"><ele>176.0</ele><time>2026-04-06T07:39:33.999Z</time></trkpt><trkpt lat="46.20292534028299" lon="13.119365253323675"><ele>176.0</ele><time>2026-04-06T07:42:14.999Z</time></trkpt><trkpt lat="46.202929321391665" lon="13.119462123370424"><ele>176.0</ele><time>2026-04-06T07:42:16.999Z</time></trkpt><trkpt lat="46.20298658310864" lon="13.119561093354003"><ele>176.0</ele><time>2026-04-06T07:42:19.999Z</time></trkpt><trkpt lat="46.20302747425599" lon="13.119656175382438"><ele>176.0</ele><time>2026-04-06T07:42:23.999Z</time></trkpt><trkpt lat="46.203027434184726" lon="13.119753953637456"><ele>176.0</ele><time>2026-04-06T07:42:27.999Z</time></trkpt><trkpt lat="46.20297196383421" lon="13.11980906429455"><ele>176.0</ele><time>2026-04-06T07:42:35.999Z</time></trkpt><trkpt lat="46.20290022928914" lon="13.11970869614394"><ele>176.0</ele><time>2026-04-06T07:42:37.999Z</time></trkpt><trkpt lat="46.202863903010034" lon="13.11962740063991"><ele>176.0</ele><time>2026-04-06T07:42:38.999Z</time></trkpt><trkpt lat="46.2028223473535" lon="13.119540835084889"><ele>176.0</ele><time>2026-04-06T07:42:39.999Z</time></trkpt><trkpt lat="46.20277970420382" lon="13.119449818662432"><ele>176.0</ele><time>2026-04-06T07:42:40.999Z</time></trkpt><trkpt lat="46.20274284001825" lon="13.11936297939261"><ele>176.0</ele><time>2026-04-06T07:42:41.999Z</time></trkpt><trkpt lat="46.202695074145694" lon="13.119213272499362"><ele>176.0</ele><time>2026-04-06T07:42:43.999Z</time></trkpt><trkpt lat="46.20269030952329" lon="13.119119244154355"><ele>176.0</ele><time>2026-04-06T07:42:44.999Z</time></trkpt><trkpt lat="46.20268774421571" lon="13.119004409438526"><ele>176.0</ele><time>2026-04-06T07:42:45.999Z</time></trkpt><trkpt lat="46.202663016774736" lon="13.118886654639537"><ele>176.0</ele><time>2026-04-06T07:42:46.999Z</time></trkpt><trkpt lat="46.20261067306723" lon="13.118795532161622"><ele>176.0</ele><time>2026-04-06T07:42:47.999Z</time></trkpt><trkpt lat="46.202530280326954" lon="13.118734843734057"><ele>176.0</ele><time>2026-04-06T07:42:48.999Z</time></trkpt><trkpt lat="46.20243265810798" lon="13.118679001783162"><ele>176.0</ele><time>2026-04-06T07:42:49.999Z</time></trkpt><trkpt lat="46.202338079789726" lon="13.1185736952711"><ele>175.60000000000002</ele><time>2026-04-06T07:42:50.999Z</time></trkpt><trkpt lat="46.20226399405125" lon="13.118427818060043"><ele>175.2</ele><time>2026-04-06T07:42:51.999Z</time></trkpt><trkpt lat="46.20220681440738" lon="13.118285321685407"><ele>174.8</ele><time>2026-04-06T07:42:52.999Z</time></trkpt><trkpt lat="46.202154717205595" lon="13.118154554548335"><ele>174.39999999999998</ele><time>2026-04-06T07:42:53.999Z</time></trkpt><trkpt lat="46.20210500369992" lon="13.118028070700653"><ele>174.0</ele><time>2026-04-06T07:42:54.999Z</time></trkpt><trkpt lat="46.20204830890345" lon="13.117900770381937"><ele>174.0</ele><time>2026-04-06T07:42:55.999Z</time></trkpt><trkpt lat="46.20198770281404" lon="13.117757597722598"><ele>174.0</ele><time>2026-04-06T07:42:56.999Z</time></trkpt><trkpt lat="46.201928247545496" lon="13.117619145314004"><ele>174.0</ele><time>2026-04-06T07:42:57.999Z</time></trkpt><trkpt lat="46.201868430193365" lon="13.11749148304426"><ele>174.0</ele><time>2026-04-06T07:42:58.999Z</time></trkpt><trkpt lat="46.20180950000079" lon="13.117366895508924"><ele>174.0</ele><time>2026-04-06T07:42:59.999Z</time></trkpt><trkpt lat="46.20173828713965" lon="13.117246786946886"><ele>174.0</ele><time>2026-04-06T07:43:00.999Z</time></trkpt><trkpt lat="46.20165185592564" lon="13.117128883934338"><ele>174.0</ele><time>2026-04-06T07:43:01.999Z</time></trkpt><trkpt lat="46.20155013591648" lon="13.117014507368372"><ele>174.0</ele><time>2026-04-06T07:43:02.999Z</time></trkpt><trkpt lat="46.20144474738963" lon="13.116900433740284"><ele>174.0</ele><time>2026-04-06T07:43:03.999Z</time></trkpt><trkpt lat="46.20133903777609" lon="13.116785352720004"><ele>174.0</ele><time>2026-04-06T07:43:04.999Z</time></trkpt><trkpt lat="46.20123536472872" lon="13.116672451439795"><ele>174.0</ele><time>2026-04-06T07:43:05.999Z</time></trkpt><trkpt lat="46.201131312335654" lon="13.116562063964764"><ele>174.0</ele><time>2026-04-06T07:43:06.999Z</time></trkpt><trkpt lat="46.201029560700675" lon="13.116454230265653"><ele>174.0</ele><time>2026-04-06T07:43:07.999Z</time></trkpt><trkpt lat="46.200928716559254" lon="13.116345238703204"><ele>174.0</ele><time>2026-04-06T07:43:08.999Z</time></trkpt><trkpt lat="46.20083007807271" lon="13.116234638554653"><ele>174.0</ele><time>2026-04-06T07:43:09.999Z</time></trkpt><trkpt lat="46.200729120366226" lon="13.116122132406026"><ele>174.0</ele><time>2026-04-06T07:43:10.999Z</time></trkpt><trkpt lat="46.200624607506114" lon="13.116012211823481"><ele>174.0</ele><time>2026-04-06T07:43:11.999Z</time></trkpt><trkpt lat="46.20051750885771" lon="13.115896200233133"><ele>173.5</ele><time>2026-04-06T07:43:12.999Z</time></trkpt><trkpt lat="46.20040721406863" lon="13.115776658344897"><ele>173.0</ele><time>2026-04-06T07:43:13.999Z</time></trkpt><trkpt lat="46.20029018954773" lon="13.115649466908916"><ele>172.5</ele><time>2026-04-06T07:43:14.999Z</time></trkpt><trkpt lat="46.20016551817181" lon="13.11551682011608"><ele>172.0</ele><time>2026-04-06T07:43:16Z</time></trkpt><trkpt lat="46.20003778189861" lon="13.115378170650317"><ele>172.0</ele><time>2026-04-06T07:43:17Z</time></trkpt><trkpt lat="46.19990754360079" lon="13.11523879532169"><ele>172.0</ele><time>2026-04-06T07:43:18Z</time></trkpt><trkpt lat="46.19978069559918" lon="13.115106292763432"><ele>172.0</ele><time>2026-04-06T07:43:19Z</time></trkpt><trkpt lat="46.19966795645698" lon="13.114983722778979"><ele>172.0</ele><time>2026-04-06T07:43:20Z</time></trkpt><trkpt lat="46.19956579276602" lon="13.114863251241868"><ele>172.0</ele><time>2026-04-06T07:43:20.999Z</time></trkpt><trkpt lat="46.19947564954356" lon="13.114736442982284"><ele>172.0</ele><time>2026-04-06T07:43:21.999Z</time></trkpt><trkpt lat="46.19937578178051" lon="13.114593890823945"><ele>172.0</ele><time>2026-04-06T07:43:22.999Z</time></trkpt><trkpt lat="46.19929737064781" lon="13.114424832977999"><ele>172.0</ele><time>2026-04-06T07:43:23.999Z</time></trkpt><trkpt lat="46.19920798296664" lon="13.114250624428601"><ele>172.0</ele><time>2026-04-06T07:43:24.999Z</time></trkpt><trkpt lat="46.19910075378923" lon="13.114073369860613"><ele>172.0</ele><time>2026-04-06T07:43:25.999Z</time></trkpt><trkpt lat="46.19900305544878" lon="13.113876910204121"><ele>172.0</ele><time>2026-04-06T07:43:26.999Z</time></trkpt><trkpt lat="46.198908560694875" lon="13.11368193511813"><ele>172.0</ele><time>2026-04-06T07:43:27.999Z</time></trkpt><trkpt lat="46.19881202287592" lon="13.113489388678891"><ele>172.0</ele><time>2026-04-06T07:43:28.999Z</time></trkpt><trkpt lat="46.19872799266872" lon="13.113282241784376"><ele>172.33333333333334</ele><time>2026-04-06T07:43:29.999Z</time></trkpt><trkpt lat="46.19863489101646" lon="13.113091552086003"><ele>172.66666666666666</ele><time>2026-04-06T07:43:30.999Z</time></trkpt><trkpt lat="46.198526172164016" lon="13.112921368897952"><ele>173.0</ele><time>2026-04-06T07:43:31.999Z</time></trkpt><trkpt lat="46.19843375596008" lon="13.112733633349135"><ele>173.0</ele><time>2026-04-06T07:43:32.999Z</time></trkpt><trkpt lat="46.19834034462432" lon="13.112544009443917"><ele>173.0</ele><time>2026-04-06T07:43:33.999Z</time></trkpt><trkpt lat="46.19824989577476" lon="13.1123590685348"><ele>173.0</ele><time>2026-04-06T07:43:34.999Z</time></trkpt><trkpt lat="46.19817608656375" lon="13.11216586473253"><ele>172.75</ele><time>2026-04-06T07:43:35.999Z</time></trkpt><trkpt lat="46.198089279058074" lon="13.111992413760667"><ele>172.5</ele><time>2026-04-06T07:43:36.999Z</time></trkpt><trkpt lat="46.19799211045072" lon="13.111836191459108"><ele>172.25</ele><time>2026-04-06T07:43:37.999Z</time></trkpt><trkpt lat="46.19790948494859" lon="13.111666531076658"><ele>172.0</ele><time>2026-04-06T07:43:38.999Z</time></trkpt><trkpt lat="46.19782189375416" lon="13.11149593017945"><ele>171.66666666666669</ele><time>2026-04-06T07:43:39.999Z</time></trkpt><trkpt lat="46.19772981955582" lon="13.111320340477382"><ele>171.33333333333334</ele><time>2026-04-06T07:43:40.999Z</time></trkpt><trkpt lat="46.197631492196166" lon="13.11113815829158"><ele>171.0</ele><time>2026-04-06T07:43:41.999Z</time></trkpt><trkpt lat="46.197542403451386" lon="13.110936375979579"><ele>171.0</ele><time>2026-04-06T07:43:42.999Z</time></trkpt><trkpt lat="46.19744072902107" lon="13.110751954045856"><ele>171.0</ele><time>2026-04-06T07:43:43.999Z</time></trkpt><trkpt lat="46.19733940683936" lon="13.11056807305817"><ele>171.0</ele><time>2026-04-06T07:43:44.999Z</time></trkpt><trkpt lat="46.19723798013359" lon="13.110385761877374"><ele>171.0</ele><time>2026-04-06T07:43:45.999Z</time></trkpt><trkpt lat="46.19713702575004" lon="13.110206818593612"><ele>171.0</ele><time>2026-04-06T07:43:46.999Z</time></trkpt><trkpt lat="46.1970364043498" lon="13.110028465526044"><ele>171.0</ele><time>2026-04-06T07:43:47.999Z</time></trkpt><trkpt lat="46.19693652792493" lon="13.109851326909316"><ele>170.33333333333334</ele><time>2026-04-06T07:43:48.999Z</time></trkpt><trkpt lat="46.196825560078445" lon="13.109690249279128"><ele>169.66666666666669</ele><time>2026-04-06T07:43:49.999Z</time></trkpt><trkpt lat="46.19673000947914" lon="13.109516835819813"><ele>169.0</ele><time>2026-04-06T07:43:50.999Z</time></trkpt><trkpt lat="46.19663621558011" lon="13.109339256425603"><ele>169.0</ele><time>2026-04-06T07:43:51.999Z</time></trkpt><trkpt lat="46.19654616476056" lon="13.109156005123191"><ele>169.0</ele><time>2026-04-06T07:43:52.999Z</time></trkpt><trkpt lat="46.19648404033914" lon="13.108950567111297"><ele>169.0</ele><time>2026-04-06T07:43:53.999Z</time></trkpt><trkpt lat="46.196429157444854" lon="13.108743151754174"><ele>169.66666666666669</ele><time>2026-04-06T07:43:54.999Z</time></trkpt><trkpt lat="46.19639098789196" lon="13.108531494194763"><ele>170.33333333333334</ele><time>2026-04-06T07:43:55.999Z</time></trkpt><trkpt lat="46.196375432805084" lon="13.10830715805754"><ele>171.0</ele><time>2026-04-06T07:43:56.999Z</time></trkpt><trkpt lat="46.196367948665184" lon="13.108064106880501"><ele>171.0</ele><time>2026-04-06T07:43:57.999Z</time></trkpt><trkpt lat="46.19636668945035" lon="13.107809472558987"><ele>171.0</ele><time>2026-04-06T07:43:58.999Z</time></trkpt><trkpt lat="46.19636630203645" lon="13.107557460086245"><ele>171.0</ele><time>2026-04-06T07:43:59.999Z</time></trkpt><trkpt lat="46.19636592287092" lon="13.10731081046996"><ele>170.66666666666666</ele><time>2026-04-06T07:44:00.999Z</time></trkpt><trkpt lat="46.19636521491122" lon="13.10706725772572"><ele>170.33333333333331</ele><time>2026-04-06T07:44:01.999Z</time></trkpt><trkpt lat="46.19636453807388" lon="13.106828709941954"><ele>170.0</ele><time>2026-04-06T07:44:02.999Z</time></trkpt><trkpt lat="46.19636348583029" lon="13.106589443563315"><ele>169.66666666666666</ele><time>2026-04-06T07:44:03.999Z</time></trkpt><trkpt lat="46.19636190675044" lon="13.106349277623297"><ele>169.33333333333334</ele><time>2026-04-06T07:44:04.999Z</time></trkpt><trkpt lat="46.19636031229312" lon="13.106106772823868"><ele>169.0</ele><time>2026-04-06T07:44:05.999Z</time></trkpt><trkpt lat="46.1963586993903" lon="13.105861462555653"><ele>168.66666666666669</ele><time>2026-04-06T07:44:06.999Z</time></trkpt><trkpt lat="46.196357064773665" lon="13.105612847934562"><ele>168.33333333333334</ele><time>2026-04-06T07:44:07.999Z</time></trkpt><trkpt lat="46.19635604217885" lon="13.105359637443348"><ele>168.0</ele><time>2026-04-06T07:44:08.999Z</time></trkpt><trkpt lat="46.19635482594283" lon="13.105100414512734"><ele>167.33333333333334</ele><time>2026-04-06T07:44:09.999Z</time></trkpt><trkpt lat="46.196353314315715" lon="13.104835557770185"><ele>166.66666666666669</ele><time>2026-04-06T07:44:10.999Z</time></trkpt><trkpt lat="46.196351089210445" lon="13.104564426229379"><ele>166.0</ele><time>2026-04-06T07:44:11.999Z</time></trkpt><trkpt lat="46.19634894464489" lon="13.10428862563492"><ele>166.33333333333334</ele><time>2026-04-06T07:44:12.999Z</time></trkpt><trkpt lat="46.19634730491813" lon="13.104008993484047"><ele>166.66666666666666</ele><time>2026-04-06T07:44:13.999Z</time></trkpt><trkpt lat="46.19634572181146" lon="13.103735568742707"><ele>167.0</ele><time>2026-04-06T07:44:14.999Z</time></trkpt><trkpt lat="46.196344191826995" lon="13.103467329624662"><ele>166.33333333333331</ele><time>2026-04-06T07:44:15.999Z</time></trkpt><trkpt lat="46.19634684488364" lon="13.103207561104993"><ele>165.66666666666666</ele><time>2026-04-06T07:44:16.999Z</time></trkpt><trkpt lat="46.19636501951973" lon="13.102954745359476"><ele>165.0</ele><time>2026-04-06T07:44:17.999Z</time></trkpt><trkpt lat="46.19639657573923" lon="13.10270310805517"><ele>165.0</ele><time>2026-04-06T07:44:18.999Z</time></trkpt><trkpt lat="46.19643609104821" lon="13.102442830827597"><ele>165.0</ele><time>2026-04-06T07:44:19.999Z</time></trkpt><trkpt lat="46.19648551829352" lon="13.102185727659363"><ele>165.0</ele><time>2026-04-06T07:44:20.999Z</time></trkpt><trkpt lat="46.196539934758704" lon="13.101916110171139"><ele>166.0</ele><time>2026-04-06T07:44:21.999Z</time></trkpt><trkpt lat="46.196593934085435" lon="13.101649922517275"><ele>167.0</ele><time>2026-04-06T07:44:22.999Z</time></trkpt><trkpt lat="46.19665094319297" lon="13.10138210095335"><ele>168.0</ele><time>2026-04-06T07:44:23.999Z</time></trkpt><trkpt lat="46.19670827415568" lon="13.10110971979471"><ele>168.0</ele><time>2026-04-06T07:44:24.999Z</time></trkpt><trkpt lat="46.196764765951514" lon="13.100841325557354"><ele>168.0</ele><time>2026-04-06T07:44:25.999Z</time></trkpt><trkpt lat="46.19682135793163" lon="13.10057245532629"><ele>168.0</ele><time>2026-04-06T07:44:26.999Z</time></trkpt><trkpt lat="46.19687933159122" lon="13.100297020691759"><ele>168.0</ele><time>2026-04-06T07:44:27.999Z</time></trkpt><trkpt lat="46.196937354293766" lon="13.100021353065353"><ele>168.0</ele><time>2026-04-06T07:44:28.999Z</time></trkpt><trkpt lat="46.19699500078151" lon="13.099746412876195"><ele>168.0</ele><time>2026-04-06T07:44:29.999Z</time></trkpt><trkpt lat="46.19705556678835" lon="13.0994574768206"><ele>168.0</ele><time>2026-04-06T07:44:30.999Z</time></trkpt><trkpt lat="46.1971205672341" lon="13.099147385843837"><ele>168.0</ele><time>2026-04-06T07:44:31.999Z</time></trkpt><trkpt lat="46.19719069038636" lon="13.09881285648456"><ele>167.0</ele><time>2026-04-06T07:44:32.999Z</time></trkpt><trkpt lat="46.19726683970532" lon="13.098449578701075"><ele>166.0</ele><time>2026-04-06T07:44:33.999Z</time></trkpt><trkpt lat="46.19734966217627" lon="13.098054861783261"><ele>166.0</ele><time>2026-04-06T07:44:34.999Z</time></trkpt><trkpt lat="46.19743406806066" lon="13.097653087768542"><ele>166.0</ele><time>2026-04-06T07:44:35.999Z</time></trkpt><trkpt lat="46.197521836136204" lon="13.097232699333386"><ele>166.0</ele><time>2026-04-06T07:44:36.999Z</time></trkpt><trkpt lat="46.19760539831045" lon="13.096829808897455"><ele>166.0</ele><time>2026-04-06T07:44:37.999Z</time></trkpt><trkpt lat="46.19767923321613" lon="13.096473817923682"><ele>167.0</ele><time>2026-04-06T07:44:38.999Z</time></trkpt><trkpt lat="46.197748100182295" lon="13.096144651865664"><ele>168.0</ele><time>2026-04-06T07:44:39.999Z</time></trkpt><trkpt lat="46.197801919830134" lon="13.095828479785137"><ele>168.0</ele><time>2026-04-06T07:44:40.999Z</time></trkpt><trkpt lat="46.19783960461964" lon="13.095516593136"><ele>168.0</ele><time>2026-04-06T07:44:41.999Z</time></trkpt><trkpt lat="46.19784672899691" lon="13.095196294769936"><ele>168.0</ele><time>2026-04-06T07:44:42.999Z</time></trkpt><trkpt lat="46.19783134607745" lon="13.094860656419145"><ele>166.5</ele><time>2026-04-06T07:44:43.999Z</time></trkpt><trkpt lat="46.197790630612516" lon="13.094517718694634"><ele>165.0</ele><time>2026-04-06T07:44:44.999Z</time></trkpt><trkpt lat="46.19771788672743" lon="13.094176035403981"><ele>164.5</ele><time>2026-04-06T07:44:45.999Z</time></trkpt><trkpt lat="46.197639524333" lon="13.09384014689996"><ele>164.0</ele><time>2026-04-06T07:44:46.999Z</time></trkpt><trkpt lat="46.19756760488664" lon="13.093542241400085"><ele>164.0</ele><time>2026-04-06T07:44:47.999Z</time></trkpt><trkpt lat="46.19749822539476" lon="13.093262064262879"><ele>164.0</ele><time>2026-04-06T07:44:48.999Z</time></trkpt><trkpt lat="46.1974309242961" lon="13.092991137922747"><ele>164.0</ele><time>2026-04-06T07:44:49.999Z</time></trkpt><trkpt lat="46.197364021283796" lon="13.092721814078446"><ele>164.33333333333331</ele><time>2026-04-06T07:44:50.999Z</time></trkpt><trkpt lat="46.197296389649885" lon="13.092449557095591"><ele>164.66666666666666</ele><time>2026-04-06T07:44:51.999Z</time></trkpt><trkpt lat="46.19722784704248" lon="13.092173632952644"><ele>165.0</ele><time>2026-04-06T07:44:52.999Z</time></trkpt><trkpt lat="46.19715657249653" lon="13.091886711149876"><ele>164.33333333333334</ele><time>2026-04-06T07:44:53.999Z</time></trkpt><trkpt lat="46.19708352600326" lon="13.091592656183655"><ele>163.66666666666669</ele><time>2026-04-06T07:44:54.999Z</time></trkpt><trkpt lat="46.19701208668744" lon="13.091305071066031"><ele>163.0</ele><time>2026-04-06T07:44:55.999Z</time></trkpt><trkpt lat="46.19694563798579" lon="13.091037576098918"><ele>163.0</ele><time>2026-04-06T07:44:56.999Z</time></trkpt><trkpt lat="46.1968858911378" lon="13.090795716791206"><ele>163.0</ele><time>2026-04-06T07:44:57.999Z</time></trkpt><trkpt lat="46.196832220609366" lon="13.090571073641051"><ele>163.0</ele><time>2026-04-06T07:44:58.999Z</time></trkpt><trkpt lat="46.19678266245253" lon="13.09035627602897"><ele>162.66666666666669</ele><time>2026-04-06T07:44:59.999Z</time></trkpt><trkpt lat="46.1967310038842" lon="13.090143447367923"><ele>162.33333333333334</ele><time>2026-04-06T07:45:00.999Z</time></trkpt><trkpt lat="46.19667652363489" lon="13.089927601393581"><ele>162.0</ele><time>2026-04-06T07:45:01.999Z</time></trkpt><trkpt lat="46.19662488826822" lon="13.089724768738867"><ele>162.0</ele><time>2026-04-06T07:45:02.999Z</time></trkpt><trkpt lat="46.196575467056014" lon="13.089530633648057"><ele>162.0</ele><time>2026-04-06T07:45:03.999Z</time></trkpt><trkpt lat="46.19653010420182" lon="13.089349507165805"><ele>162.0</ele><time>2026-04-06T07:45:04.999Z</time></trkpt><trkpt lat="46.196488052861" lon="13.089178592179326"><ele>162.0</ele><time>2026-04-06T07:45:05.999Z</time></trkpt><trkpt lat="46.196448429990156" lon="13.089014048144795"><ele>162.25</ele><time>2026-04-06T07:45:06.999Z</time></trkpt><trkpt lat="46.196410851025114" lon="13.088854716337538"><ele>162.5</ele><time>2026-04-06T07:45:07.999Z</time></trkpt><trkpt lat="46.19637364080904" lon="13.088697341372919"><ele>162.75</ele><time>2026-04-06T07:45:09Z</time></trkpt><trkpt lat="46.19633605366567" lon="13.088542654449167"><ele>163.0</ele><time>2026-04-06T07:45:10Z</time></trkpt><trkpt lat="46.196298096991626" lon="13.088395450833843"><ele>163.0</ele><time>2026-04-06T07:45:11Z</time></trkpt><trkpt lat="46.19625745436957" lon="13.088250049842058"><ele>163.0</ele><time>2026-04-06T07:45:12Z</time></trkpt><trkpt lat="46.19621753530649" lon="13.088109602583028"><ele>163.0</ele><time>2026-04-06T07:45:13Z</time></trkpt><trkpt lat="46.19617274822112" lon="13.087971977809453"><ele>163.0</ele><time>2026-04-06T07:45:14Z</time></trkpt><trkpt lat="46.1961205243574" lon="13.087829043674217"><ele>163.0</ele><time>2026-04-06T07:45:15Z</time></trkpt><trkpt lat="46.19605994500787" lon="13.087680070892553"><ele>163.0</ele><time>2026-04-06T07:45:16Z</time></trkpt><trkpt lat="46.1959898972547" lon="13.087531597048308"><ele>163.0</ele><time>2026-04-06T07:45:17Z</time></trkpt><trkpt lat="46.195910808153826" lon="13.08739273984684"><ele>163.0</ele><time>2026-04-06T07:45:18Z</time></trkpt><trkpt lat="46.195829567633844" lon="13.08726011691579"><ele>163.0</ele><time>2026-04-06T07:45:19Z</time></trkpt><trkpt lat="46.19575203849801" lon="13.08713701765431"><ele>163.4</ele><time>2026-04-06T07:45:20Z</time></trkpt><trkpt lat="46.195666165662566" lon="13.08703595628647"><ele>163.8</ele><time>2026-04-06T07:45:21Z</time></trkpt><trkpt lat="46.19559684181285" lon="13.086917586892165"><ele>164.2</ele><time>2026-04-06T07:45:22Z</time></trkpt><trkpt lat="46.19552879976201" lon="13.086794988414788"><ele>164.6</ele><time>2026-04-06T07:45:23Z</time></trkpt><trkpt lat="46.195466116765786" lon="13.086660812741176"><ele>165.0</ele><time>2026-04-06T07:45:24Z</time></trkpt><trkpt lat="46.1954155386085" lon="13.086516899604378"><ele>165.2</ele><time>2026-04-06T07:45:25Z</time></trkpt><trkpt lat="46.19537579504512" lon="13.08636666710563"><ele>165.4</ele><time>2026-04-06T07:45:26Z</time></trkpt><trkpt lat="46.1953443469547" lon="13.086206154082484"><ele>165.60000000000002</ele><time>2026-04-06T07:45:27Z</time></trkpt><trkpt lat="46.19532365411873" lon="13.086053421169943"><ele>165.8</ele><time>2026-04-06T07:45:28Z</time></trkpt><trkpt lat="46.195307188459935" lon="13.085910599816138"><ele>166.0</ele><time>2026-04-06T07:45:29Z</time></trkpt><trkpt lat="46.19529148662046" lon="13.085766951326697"><ele>166.20000000000002</ele><time>2026-04-06T07:45:30Z</time></trkpt><trkpt lat="46.195277800087396" lon="13.085627332137381"><ele>166.4</ele><time>2026-04-06T07:45:31Z</time></trkpt><trkpt lat="46.19526216710776" lon="13.085488251226176"><ele>166.6</ele><time>2026-04-06T07:45:32Z</time></trkpt><trkpt lat="46.19524372660031" lon="13.085344052089996"><ele>166.8</ele><time>2026-04-06T07:45:33Z</time></trkpt><trkpt lat="46.195223571062066" lon="13.085195436157136"><ele>167.0</ele><time>2026-04-06T07:45:34Z</time></trkpt><trkpt lat="46.19519918354256" lon="13.085042648035513"><ele>167.5</ele><time>2026-04-06T07:45:35Z</time></trkpt><trkpt lat="46.195171016742506" lon="13.084887540999256"><ele>168.0</ele><time>2026-04-06T07:45:36Z</time></trkpt><trkpt lat="46.195138333834024" lon="13.08472819906806"><ele>168.5</ele><time>2026-04-06T07:45:36.999Z</time></trkpt><trkpt lat="46.195105245462116" lon="13.084568303406405"><ele>169.0</ele><time>2026-04-06T07:45:37.999Z</time></trkpt><trkpt lat="46.195069787656465" lon="13.084408798822912"><ele>169.0</ele><time>2026-04-06T07:45:38.999Z</time></trkpt><trkpt lat="46.19503120560201" lon="13.084249383563002"><ele>169.0</ele><time>2026-04-06T07:45:39.999Z</time></trkpt><trkpt lat="46.19499176935221" lon="13.084092105214173"><ele>169.0</ele><time>2026-04-06T07:45:40.999Z</time></trkpt><trkpt lat="46.19495406521254" lon="13.083937336455506"><ele>169.0</ele><time>2026-04-06T07:45:41.999Z</time></trkpt><trkpt lat="46.194919977092475" lon="13.083780687016779"><ele>169.25</ele><time>2026-04-06T07:45:42.999Z</time></trkpt><trkpt lat="46.19489266979083" lon="13.083618274952864"><ele>169.5</ele><time>2026-04-06T07:45:43.999Z</time></trkpt><trkpt lat="46.194871675348" lon="13.083453651682428"><ele>169.75</ele><time>2026-04-06T07:45:44.999Z</time></trkpt><trkpt lat="46.19485239771459" lon="13.083287116798399"><ele>170.0</ele><time>2026-04-06T07:45:45.999Z</time></trkpt><trkpt lat="46.1948347012585" lon="13.08313061600436"><ele>169.6</ele><time>2026-04-06T07:45:46.999Z</time></trkpt><trkpt lat="46.19481785894124" lon="13.082983529943103"><ele>169.2</ele><time>2026-04-06T07:45:47.999Z</time></trkpt><trkpt lat="46.194801021125386" lon="13.08283956347176"><ele>168.8</ele><time>2026-04-06T07:45:48.999Z</time></trkpt><trkpt lat="46.19478341200127" lon="13.08269902594345"><ele>168.4</ele><time>2026-04-06T07:45:49.999Z</time></trkpt><trkpt lat="46.19476297355209" lon="13.082561722287824"><ele>168.0</ele><time>2026-04-06T07:45:50.999Z</time></trkpt><trkpt lat="46.19472441827438" lon="13.082431940463119"><ele>168.4</ele><time>2026-04-06T07:45:51.999Z</time></trkpt><trkpt lat="46.194662610992566" lon="13.08230594128851"><ele>168.8</ele><time>2026-04-06T07:45:52.999Z</time></trkpt><trkpt lat="46.194573548193524" lon="13.082197067814256"><ele>169.2</ele><time>2026-04-06T07:45:53.999Z</time></trkpt><trkpt lat="46.1944837295891" lon="13.082105143026958"><ele>169.6</ele><time>2026-04-06T07:45:54.999Z</time></trkpt><trkpt lat="46.19439731252772" lon="13.082011310680668"><ele>170.0</ele><time>2026-04-06T07:45:55.999Z</time></trkpt><trkpt lat="46.19431217401221" lon="13.081917014417861"><ele>170.0</ele><time>2026-04-06T07:45:56.999Z</time></trkpt><trkpt lat="46.194229602143956" lon="13.081818100742852"><ele>170.0</ele><time>2026-04-06T07:45:57.999Z</time></trkpt><trkpt lat="46.19415179184444" lon="13.08170936493656"><ele>170.0</ele><time>2026-04-06T07:45:58.999Z</time></trkpt><trkpt lat="46.194081709363516" lon="13.08158478993323"><ele>170.0</ele><time>2026-04-06T07:45:59.999Z</time></trkpt><trkpt lat="46.19401425586531" lon="13.08144780708433"><ele>170.0</ele><time>2026-04-06T07:46:00.999Z</time></trkpt><trkpt lat="46.19395248671706" lon="13.081304830796144"><ele>169.0</ele><time>2026-04-06T07:46:01.999Z</time></trkpt><trkpt lat="46.19389063288675" lon="13.081156891257567"><ele>168.0</ele><time>2026-04-06T07:46:02.999Z</time></trkpt><trkpt lat="46.19382585598809" lon="13.081008194998907"><ele>167.0</ele><time>2026-04-06T07:46:03.999Z</time></trkpt><trkpt lat="46.19376140125748" lon="13.080851581155187"><ele>166.0</ele><time>2026-04-06T07:46:04.999Z</time></trkpt><trkpt lat="46.193700063671706" lon="13.080688025500478"><ele>166.0</ele><time>2026-04-06T07:46:05.999Z</time></trkpt><trkpt lat="46.193649121682895" lon="13.080507183338874"><ele>166.0</ele><time>2026-04-06T07:46:06.999Z</time></trkpt><trkpt lat="46.1936013638468" lon="13.08031204195343"><ele>166.0</ele><time>2026-04-06T07:46:07.999Z</time></trkpt><trkpt lat="46.19355403883396" lon="13.08011973828085"><ele>166.0</ele><time>2026-04-06T07:46:08.999Z</time></trkpt><trkpt lat="46.19350949819851" lon="13.079939432263616"><ele>166.25</ele><time>2026-04-06T07:46:09.999Z</time></trkpt><trkpt lat="46.19346782327218" lon="13.079770038832972"><ele>166.5</ele><time>2026-04-06T07:46:10.999Z</time></trkpt><trkpt lat="46.19345178102505" lon="13.079592421382694"><ele>166.75</ele><time>2026-04-06T07:46:11.999Z</time></trkpt><trkpt lat="46.19341118578127" lon="13.079428822578102"><ele>167.0</ele><time>2026-04-06T07:46:12.999Z</time></trkpt><trkpt lat="46.19337000698178" lon="13.079263088295459"><ele>167.5</ele><time>2026-04-06T07:46:13.999Z</time></trkpt><trkpt lat="46.19332741391481" lon="13.079092354035447"><ele>168.0</ele><time>2026-04-06T07:46:14.999Z</time></trkpt><trkpt lat="46.19328488712061" lon="13.078923170941973"><ele>168.5</ele><time>2026-04-06T07:46:15.999Z</time></trkpt><trkpt lat="46.19324291663518" lon="13.07875712872146"><ele>169.0</ele><time>2026-04-06T07:46:16.999Z</time></trkpt><trkpt lat="46.19319970923146" lon="13.078586193049535"><ele>168.75</ele><time>2026-04-06T07:46:17.999Z</time></trkpt><trkpt lat="46.193155216529775" lon="13.0784101717692"><ele>168.5</ele><time>2026-04-06T07:46:18.999Z</time></trkpt><trkpt lat="46.193109577568634" lon="13.078230205575794"><ele>168.25</ele><time>2026-04-06T07:46:19.999Z</time></trkpt><trkpt lat="46.19306013414088" lon="13.078034569337493"><ele>168.0</ele><time>2026-04-06T07:46:20.999Z</time></trkpt><trkpt lat="46.19300644225624" lon="13.077821236736582"><ele>168.0</ele><time>2026-04-06T07:46:21.999Z</time></trkpt><trkpt lat="46.19294622324947" lon="13.077581970124934"><ele>168.0</ele><time>2026-04-06T07:46:22.999Z</time></trkpt><trkpt lat="46.19287958482195" lon="13.07732659950544"><ele>168.0</ele><time>2026-04-06T07:46:23.999Z</time></trkpt><trkpt lat="46.19280205912587" lon="13.077070402329205"><ele>167.66666666666666</ele><time>2026-04-06T07:46:24.999Z</time></trkpt><trkpt lat="46.19271732344707" lon="13.076830870371618"><ele>167.33333333333331</ele><time>2026-04-06T07:46:25.999Z</time></trkpt><trkpt lat="46.19263676555223" lon="13.076588525936042"><ele>167.0</ele><time>2026-04-06T07:46:26.999Z</time></trkpt><trkpt lat="46.19257890358952" lon="13.076312376917352"><ele>167.0</ele><time>2026-04-06T07:46:27.999Z</time></trkpt><trkpt lat="46.192543220792466" lon="13.075991115492977"><ele>167.0</ele><time>2026-04-06T07:46:28.999Z</time></trkpt><trkpt lat="46.1924836656192" lon="13.075617331013818"><ele>168.5</ele><time>2026-04-06T07:46:29.999Z</time></trkpt><trkpt lat="46.19245835637934" lon="13.07526179922298"><ele>170.0</ele><time>2026-04-06T07:46:30.999Z</time></trkpt><trkpt lat="46.192430299574276" lon="13.07495741182528"><ele>170.66666666666666</ele><time>2026-04-06T07:46:31.999Z</time></trkpt><trkpt lat="46.19240698736454" lon="13.074696475978769"><ele>171.33333333333334</ele><time>2026-04-06T07:46:32.999Z</time></trkpt><trkpt lat="46.19241479798503" lon="13.074473007044434"><ele>172.0</ele><time>2026-04-06T07:46:33.999Z</time></trkpt><trkpt lat="46.19239242622114" lon="13.07426856095819"><ele>172.0</ele><time>2026-04-06T07:46:34.999Z</time></trkpt><trkpt lat="46.192351534537956" lon="13.074051521542314"><ele>172.0</ele><time>2026-04-06T07:46:35.999Z</time></trkpt><trkpt lat="46.192296919582525" lon="13.073858123155576"><ele>172.0</ele><time>2026-04-06T07:46:36.999Z</time></trkpt><trkpt lat="46.19222803487003" lon="13.073678198901668"><ele>172.0</ele><time>2026-04-06T07:46:37.999Z</time></trkpt><trkpt lat="46.19214979029227" lon="13.073505659888092"><ele>172.0</ele><time>2026-04-06T07:46:38.999Z</time></trkpt><trkpt lat="46.19207168640193" lon="13.073341110440616"><ele>172.0</ele><time>2026-04-06T07:46:39.999Z</time></trkpt><trkpt lat="46.191992190324434" lon="13.073177837723126"><ele>172.0</ele><time>2026-04-06T07:46:40.999Z</time></trkpt><trkpt lat="46.19191457783543" lon="13.073019315527494"><ele>172.0</ele><time>2026-04-06T07:46:41.999Z</time></trkpt><trkpt lat="46.19182542263144" lon="13.072846363388004"><ele>171.66666666666669</ele><time>2026-04-06T07:46:42.999Z</time></trkpt><trkpt lat="46.19171484754384" lon="13.072645713858009"><ele>171.33333333333334</ele><time>2026-04-06T07:46:43.999Z</time></trkpt><trkpt lat="46.191574856118585" lon="13.072418340500363"><ele>171.0</ele><time>2026-04-06T07:46:44.999Z</time></trkpt><trkpt lat="46.19141467588355" lon="13.072185024600449"><ele>170.5</ele><time>2026-04-06T07:46:45.999Z</time></trkpt><trkpt lat="46.19123803975676" lon="13.071929829037996"><ele>170.0</ele><time>2026-04-06T07:46:46.999Z</time></trkpt><trkpt lat="46.191055866878415" lon="13.07166605102405"><ele>169.5</ele><time>2026-04-06T07:46:47.999Z</time></trkpt><trkpt lat="46.19087107004432" lon="13.071397165506172"><ele>169.0</ele><time>2026-04-06T07:46:48.999Z</time></trkpt><trkpt lat="46.19070691543787" lon="13.071152459410932"><ele>169.5</ele><time>2026-04-06T07:46:49.999Z</time></trkpt><trkpt lat="46.19054309616483" lon="13.07090534116934"><ele>170.0</ele><time>2026-04-06T07:46:50.999Z</time></trkpt><trkpt lat="46.19038063528134" lon="13.07066025133517"><ele>170.0</ele><time>2026-04-06T07:46:51.999Z</time></trkpt><trkpt lat="46.19023382298922" lon="13.070440371335854"><ele>170.0</ele><time>2026-04-06T07:46:52.999Z</time></trkpt><trkpt lat="46.1900991967767" lon="13.07024057318615"><ele>170.0</ele><time>2026-04-06T07:46:53.999Z</time></trkpt><trkpt lat="46.1899763565065" lon="13.070058088534468"><ele>170.25</ele><time>2026-04-06T07:46:54.999Z</time></trkpt><trkpt lat="46.18987450183333" lon="13.069906071369223"><ele>170.5</ele><time>2026-04-06T07:46:55.999Z</time></trkpt><trkpt lat="46.189772514041316" lon="13.069753855609218"><ele>170.75</ele><time>2026-04-06T07:46:56.999Z</time></trkpt><trkpt lat="46.18967407352896" lon="13.069606934132793"><ele>171.0</ele><time>2026-04-06T07:46:57.999Z</time></trkpt><trkpt lat="46.18958762433002" lon="13.06947790954233"><ele>171.20000000000002</ele><time>2026-04-06T07:46:58.999Z</time></trkpt><trkpt lat="46.18950811529784" lon="13.069359243117058"><ele>171.4</ele><time>2026-04-06T07:46:59.999Z</time></trkpt><trkpt lat="46.18942676668992" lon="13.06924332764521"><ele>171.6</ele><time>2026-04-06T07:47:00.999Z</time></trkpt><trkpt lat="46.18933857255026" lon="13.069140559799873"><ele>171.8</ele><time>2026-04-06T07:47:01.999Z</time></trkpt><trkpt lat="46.18927539814397" lon="13.069025460200685"><ele>172.0</ele><time>2026-04-06T07:47:02.999Z</time></trkpt><trkpt lat="46.18922049975046" lon="13.06889359988909"><ele>172.0</ele><time>2026-04-06T07:47:03.999Z</time></trkpt><trkpt lat="46.189169655713144" lon="13.06875659711031"><ele>172.0</ele><time>2026-04-06T07:47:04.999Z</time></trkpt><trkpt lat="46.18908314702699" lon="13.068627994431038"><ele>172.0</ele><time>2026-04-06T07:47:05.999Z</time></trkpt><trkpt lat="46.1889804647104" lon="13.068482972262473"><ele>172.0</ele><time>2026-04-06T07:47:06.999Z</time></trkpt><trkpt lat="46.18888969799041" lon="13.068322078579369"><ele>171.33333333333334</ele><time>2026-04-06T07:47:07.999Z</time></trkpt><trkpt lat="46.18880833168038" lon="13.068150160564104"><ele>170.66666666666666</ele><time>2026-04-06T07:47:08.999Z</time></trkpt><trkpt lat="46.188732951850994" lon="13.067964585990397"><ele>170.0</ele><time>2026-04-06T07:47:09.999Z</time></trkpt><trkpt lat="46.18866957674692" lon="13.067747512241082"><ele>170.0</ele><time>2026-04-06T07:47:10.999Z</time></trkpt><trkpt lat="46.188608174638865" lon="13.067501692558556"><ele>170.0</ele><time>2026-04-06T07:47:11.999Z</time></trkpt><trkpt lat="46.188536698788994" lon="13.067226441877065"><ele>170.0</ele><time>2026-04-06T07:47:12.999Z</time></trkpt><trkpt lat="46.1884690220716" lon="13.066960008302113"><ele>170.0</ele><time>2026-04-06T07:47:13.999Z</time></trkpt><trkpt lat="46.188419086754045" lon="13.066721688227156"><ele>170.0</ele><time>2026-04-06T07:47:15Z</time></trkpt><trkpt lat="46.18839558861283" lon="13.066472192799495"><ele>170.0</ele><time>2026-04-06T07:47:16Z</time></trkpt><trkpt lat="46.18836041278229" lon="13.0662147190809"><ele>170.0</ele><time>2026-04-06T07:47:17Z</time></trkpt><trkpt lat="46.18832023076103" lon="13.065946922119805"><ele>170.0</ele><time>2026-04-06T07:47:18Z</time></trkpt><trkpt lat="46.188270778141224" lon="13.065661784721936"><ele>170.0</ele><time>2026-04-06T07:47:19Z</time></trkpt><trkpt lat="46.18821707216521" lon="13.06537910818269"><ele>171.0</ele><time>2026-04-06T07:47:20Z</time></trkpt><trkpt lat="46.18816787097331" lon="13.065129067447113"><ele>172.0</ele><time>2026-04-06T07:47:21Z</time></trkpt><trkpt lat="46.18811958568785" lon="13.064884725255054"><ele>173.0</ele><time>2026-04-06T07:47:22Z</time></trkpt><trkpt lat="46.18807106125297" lon="13.064637930229429"><ele>173.0</ele><time>2026-04-06T07:47:23Z</time></trkpt><trkpt lat="46.18802084160097" lon="13.06438251331406"><ele>173.0</ele><time>2026-04-06T07:47:24Z</time></trkpt><trkpt lat="46.187971302838115" lon="13.064130559432245"><ele>173.0</ele><time>2026-04-06T07:47:25Z</time></trkpt><trkpt lat="46.1879211372029" lon="13.063875417247395"><ele>173.0</ele><time>2026-04-06T07:47:26Z</time></trkpt><trkpt lat="46.187870771495824" lon="13.063619183689994"><ele>173.0</ele><time>2026-04-06T07:47:27Z</time></trkpt><trkpt lat="46.18781889785755" lon="13.063355056458086"><ele>173.0</ele><time>2026-04-06T07:47:28Z</time></trkpt><trkpt lat="46.187741483459526" lon="13.063095343400608"><ele>171.66666666666666</ele><time>2026-04-06T07:47:29Z</time></trkpt><trkpt lat="46.18768477742321" lon="13.062806932754874"><ele>170.33333333333334</ele><time>2026-04-06T07:47:30Z</time></trkpt><trkpt lat="46.187624662309815" lon="13.062502148453921"><ele>169.0</ele><time>2026-04-06T07:47:31Z</time></trkpt><trkpt lat="46.18756526180617" lon="13.062197479062121"><ele>168.66666666666669</ele><time>2026-04-06T07:47:32Z</time></trkpt><trkpt lat="46.18750846895714" lon="13.061906670465024"><ele>168.33333333333334</ele><time>2026-04-06T07:47:33Z</time></trkpt><trkpt lat="46.18745700723756" lon="13.06164887891135"><ele>168.0</ele><time>2026-04-06T07:47:34Z</time></trkpt><trkpt lat="46.1874331649248" lon="13.061405847225446"><ele>168.0</ele><time>2026-04-06T07:47:35Z</time></trkpt><trkpt lat="46.18738495586706" lon="13.061189708967271"><ele>168.0</ele><time>2026-04-06T07:47:36Z</time></trkpt><trkpt lat="46.18733651231083" lon="13.061001052656877"><ele>168.0</ele><time>2026-04-06T07:47:37Z</time></trkpt><trkpt lat="46.18728264705865" lon="13.060833798388147"><ele>168.0</ele><time>2026-04-06T07:47:38Z</time></trkpt><trkpt lat="46.187223927881476" lon="13.060701038744169"><ele>167.60000000000002</ele><time>2026-04-06T07:47:39Z</time></trkpt><trkpt lat="46.18718150722548" lon="13.060567206827027"><ele>167.20000000000002</ele><time>2026-04-06T07:47:40Z</time></trkpt><trkpt lat="46.187132672731146" lon="13.060459286854964"><ele>166.8</ele><time>2026-04-06T07:47:41Z</time></trkpt><trkpt lat="46.18709241731249" lon="13.060345676906456"><ele>166.4</ele><time>2026-04-06T07:47:42Z</time></trkpt><trkpt lat="46.18699378867025" lon="13.060359185496868"><ele>166.0</ele><time>2026-04-06T07:47:43Z</time></trkpt><trkpt lat="46.18690399271179" lon="13.060369368625668"><ele>166.0</ele><time>2026-04-06T07:47:44Z</time></trkpt><trkpt lat="46.186794183702" lon="13.060382075931024"><ele>166.0</ele><time>2026-04-06T07:47:45Z</time></trkpt><trkpt lat="46.18667881085751" lon="13.060373501333656"><ele>166.0</ele><time>2026-04-06T07:47:46Z</time></trkpt><trkpt lat="46.18654004611724" lon="13.060345126900904"><ele>166.0</ele><time>2026-04-06T07:47:47Z</time></trkpt><trkpt lat="46.186402434821716" lon="13.060308181455168"><ele>166.5</ele><time>2026-04-06T07:47:47.999Z</time></trkpt><trkpt lat="46.18627459804683" lon="13.060272113445684"><ele>167.0</ele><time>2026-04-06T07:47:48.999Z</time></trkpt><trkpt lat="46.18616619928547" lon="13.060243625817334"><ele>167.5</ele><time>2026-04-06T07:47:49.999Z</time></trkpt><trkpt lat="46.18605662809554" lon="13.060208771658342"><ele>168.0</ele><time>2026-04-06T07:47:50.999Z</time></trkpt><trkpt lat="46.185960336440054" lon="13.060177313536617"><ele>168.0</ele><time>2026-04-06T07:47:51.999Z</time></trkpt><trkpt lat="46.18587357318167" lon="13.06014399108547"><ele>168.0</ele><time>2026-04-06T07:47:52.999Z</time></trkpt><trkpt lat="46.18578843756164" lon="13.060102541384278"><ele>168.0</ele><time>2026-04-06T07:47:53.999Z</time></trkpt><trkpt lat="46.1857185521802" lon="13.060050417366204"><ele>168.0</ele><time>2026-04-06T07:47:54.999Z</time></trkpt><trkpt lat="46.18566886515528" lon="13.059976546414903"><ele>168.0</ele><time>2026-04-06T07:47:55.999Z</time></trkpt><trkpt lat="46.1856636182665" lon="13.059753796617148"><ele>168.0</ele><time>2026-04-06T07:47:57.999Z</time></trkpt><trkpt lat="46.185689062451374" lon="13.059583974917828"><ele>168.0</ele><time>2026-04-06T07:47:58.999Z</time></trkpt><trkpt lat="46.185689609155915" lon="13.059386387125082"><ele>168.0</ele><time>2026-04-06T07:47:59.999Z</time></trkpt><trkpt lat="46.185722656125" lon="13.059166893379134"><ele>168.0</ele><time>2026-04-06T07:48:00.999Z</time></trkpt><trkpt lat="46.185760881999116" lon="13.058912927434882"><ele>168.0</ele><time>2026-04-06T07:48:01.999Z</time></trkpt><trkpt lat="46.1858052895787" lon="13.058620422211458"><ele>168.0</ele><time>2026-04-06T07:48:02.999Z</time></trkpt><trkpt lat="46.18585357524294" lon="13.05830064346396"><ele>168.0</ele><time>2026-04-06T07:48:03.999Z</time></trkpt><trkpt lat="46.185904552608335" lon="13.057962559326414"><ele>167.5</ele><time>2026-04-06T07:48:04.999Z</time></trkpt><trkpt lat="46.18598273910576" lon="13.057626797279951"><ele>167.0</ele><time>2026-04-06T07:48:05.999Z</time></trkpt><trkpt lat="46.18603338545237" lon="13.05728889811381"><ele>166.5</ele><time>2026-04-06T07:48:06.999Z</time></trkpt><trkpt lat="46.186082211927165" lon="13.0569594867187"><ele>166.0</ele><time>2026-04-06T07:48:07.999Z</time></trkpt><trkpt lat="46.18612911092794" lon="13.056643218029404"><ele>166.33333333333334</ele><time>2026-04-06T07:48:08.999Z</time></trkpt><trkpt lat="46.18617248512023" lon="13.056347696474662"><ele>166.66666666666666</ele><time>2026-04-06T07:48:09.999Z</time></trkpt><trkpt lat="46.18621212831001" lon="13.05607655272329"><ele>167.0</ele><time>2026-04-06T07:48:10.999Z</time></trkpt><trkpt lat="46.186249079917914" lon="13.055825626141832"><ele>167.66666666666666</ele><time>2026-04-06T07:48:11.999Z</time></trkpt><trkpt lat="46.18628488698319" lon="13.05558002985726"><ele>168.33333333333334</ele><time>2026-04-06T07:48:12.999Z</time></trkpt><trkpt lat="46.1863120441743" lon="13.055330860515987"><ele>169.0</ele><time>2026-04-06T07:48:13.999Z</time></trkpt><trkpt lat="46.186328278513486" lon="13.055075451121489"><ele>169.25</ele><time>2026-04-06T07:48:14.999Z</time></trkpt><trkpt lat="46.18637612852275" lon="13.05485844201439"><ele>169.5</ele><time>2026-04-06T07:48:15.999Z</time></trkpt><trkpt lat="46.18640490142386" lon="13.054665204504923"><ele>169.75</ele><time>2026-04-06T07:48:16.999Z</time></trkpt><trkpt lat="46.186408704668345" lon="13.054481842084734"><ele>170.0</ele><time>2026-04-06T07:48:17.999Z</time></trkpt><trkpt lat="46.186409890366555" lon="13.054326402422202"><ele>170.0</ele><time>2026-04-06T07:48:18.999Z</time></trkpt><trkpt lat="46.18640979370214" lon="13.054210088037575"><ele>170.0</ele><time>2026-04-06T07:48:19.999Z</time></trkpt><trkpt lat="46.186462338492" lon="13.054120005088333"><ele>170.0</ele><time>2026-04-06T07:48:20.999Z</time></trkpt><trkpt lat="46.18647882497529" lon="13.054030613696407"><ele>170.0</ele><time>2026-04-06T07:48:21.999Z</time></trkpt><trkpt lat="46.18651455143735" lon="13.053954135179014"><ele>170.0</ele><time>2026-04-06T07:48:22.999Z</time></trkpt><trkpt lat="46.18652050691135" lon="13.053834032120148"><ele>170.0</ele><time>2026-04-06T07:48:24.999Z</time></trkpt><trkpt lat="46.18636247782081" lon="13.053808720636223"><ele>170.25</ele><time>2026-04-06T07:48:25.999Z</time></trkpt><trkpt lat="46.18627271618567" lon="13.05381591923418"><ele>170.5</ele><time>2026-04-06T07:48:26.999Z</time></trkpt><trkpt lat="46.18615891887645" lon="13.053785043568586"><ele>170.75</ele><time>2026-04-06T07:48:27.999Z</time></trkpt><trkpt lat="46.18601397167757" lon="13.053721068421634"><ele>171.0</ele><time>2026-04-06T07:48:28.999Z</time></trkpt><trkpt lat="46.185827829592355" lon="13.053613512206908"><ele>170.5</ele><time>2026-04-06T07:48:29.999Z</time></trkpt><trkpt lat="46.18561600667986" lon="13.053472208491588"><ele>170.0</ele><time>2026-04-06T07:48:30.999Z</time></trkpt><trkpt lat="46.18539784184272" lon="13.053328208384903"><ele>169.66666666666666</ele><time>2026-04-06T07:48:31.999Z</time></trkpt><trkpt lat="46.18518746237248" lon="13.053196986648762"><ele>169.33333333333334</ele><time>2026-04-06T07:48:32.999Z</time></trkpt><trkpt lat="46.18500225327091" lon="13.05308068456316"><ele>169.0</ele><time>2026-04-06T07:48:33.999Z</time></trkpt><trkpt lat="46.18483204067879" lon="13.052971842740748"><ele>169.0</ele><time>2026-04-06T07:48:34.999Z</time></trkpt><trkpt lat="46.18467606553012" lon="13.05287317387667"><ele>169.0</ele><time>2026-04-06T07:48:35.999Z</time></trkpt><trkpt lat="46.18454107405143" lon="13.052784965502855"><ele>169.0</ele><time>2026-04-06T07:48:36.999Z</time></trkpt><trkpt lat="46.18441939467277" lon="13.052702218265653"><ele>169.0</ele><time>2026-04-06T07:48:37.999Z</time></trkpt><trkpt lat="46.184300602018844" lon="13.052620088036312"><ele>169.0</ele><time>2026-04-06T07:48:38.999Z</time></trkpt><trkpt lat="46.184179318276534" lon="13.052534524596206"><ele>169.0</ele><time>2026-04-06T07:48:39.999Z</time></trkpt><trkpt lat="46.18406019030883" lon="13.052444981144369"><ele>169.0</ele><time>2026-04-06T07:48:40.999Z</time></trkpt><trkpt lat="46.18393811215828" lon="13.052353759653322"><ele>170.0</ele><time>2026-04-06T07:48:41.999Z</time></trkpt><trkpt lat="46.183829463958624" lon="13.052232988772005"><ele>171.0</ele><time>2026-04-06T07:48:42.999Z</time></trkpt><trkpt lat="46.18370907687591" lon="13.052150916053884"><ele>172.0</ele><time>2026-04-06T07:48:43.999Z</time></trkpt><trkpt lat="46.18360405644711" lon="13.052050911671643"><ele>173.0</ele><time>2026-04-06T07:48:44.999Z</time></trkpt><trkpt lat="46.18349719536478" lon="13.051951495557443"><ele>173.0</ele><time>2026-04-06T07:48:45.999Z</time></trkpt><trkpt lat="46.183386553961036" lon="13.05185424270881"><ele>173.0</ele><time>2026-04-06T07:48:46.999Z</time></trkpt><trkpt lat="46.1832780284545" lon="13.051752725344874"><ele>173.0</ele><time>2026-04-06T07:48:47.999Z</time></trkpt><trkpt lat="46.18317353049567" lon="13.051648426996609"><ele>173.0</ele><time>2026-04-06T07:48:48.999Z</time></trkpt><trkpt lat="46.183074567282134" lon="13.051536843980315"><ele>173.25</ele><time>2026-04-06T07:48:49.999Z</time></trkpt><trkpt lat="46.18298322599751" lon="13.051410076359698"><ele>173.5</ele><time>2026-04-06T07:48:50.999Z</time></trkpt><trkpt lat="46.1828988333201" lon="13.051264545012362"><ele>173.75</ele><time>2026-04-06T07:48:51.999Z</time></trkpt><trkpt lat="46.18282520285893" lon="13.051109036152743"><ele>174.0</ele><time>2026-04-06T07:48:52.999Z</time></trkpt><trkpt lat="46.18275933650001" lon="13.050946098988094"><ele>174.6</ele><time>2026-04-06T07:48:53.999Z</time></trkpt><trkpt lat="46.18269788250453" lon="13.050788242286213"><ele>175.2</ele><time>2026-04-06T07:48:54.999Z</time></trkpt><trkpt lat="46.18264332666555" lon="13.050654630828529"><ele>175.79999999999998</ele><time>2026-04-06T07:48:55.999Z</time></trkpt><trkpt lat="46.18258746686177" lon="13.05053126605369"><ele>176.39999999999998</ele><time>2026-04-06T07:48:56.999Z</time></trkpt><trkpt lat="46.182527255576" lon="13.050418461752967"><ele>177.0</ele><time>2026-04-06T07:48:57.999Z</time></trkpt><trkpt lat="46.18246305355757" lon="13.050307949285896"><ele>177.0</ele><time>2026-04-06T07:48:58.999Z</time></trkpt><trkpt lat="46.18241135605007" lon="13.050182009290687"><ele>177.0</ele><time>2026-04-06T07:48:59.999Z</time></trkpt><trkpt lat="46.18233615299487" lon="13.050090663718633"><ele>177.0</ele><time>2026-04-06T07:49:00.999Z</time></trkpt><trkpt lat="46.18228081321246" lon="13.04997959452228"><ele>177.0</ele><time>2026-04-06T07:49:01.999Z</time></trkpt><trkpt lat="46.182231760676125" lon="13.049858817672444"><ele>177.0</ele><time>2026-04-06T07:49:02.999Z</time></trkpt><trkpt lat="46.18219404483499" lon="13.049723112160123"><ele>176.5</ele><time>2026-04-06T07:49:03.999Z</time></trkpt><trkpt lat="46.18218008524873" lon="13.049560938521173"><ele>176.0</ele><time>2026-04-06T07:49:04.999Z</time></trkpt><trkpt lat="46.182158445512634" lon="13.049391602007788"><ele>175.5</ele><time>2026-04-06T07:49:05.999Z</time></trkpt><trkpt lat="46.18214187475119" lon="13.049216817872873"><ele>175.0</ele><time>2026-04-06T07:49:06.999Z</time></trkpt><trkpt lat="46.18212641061996" lon="13.049041926600657"><ele>175.0</ele><time>2026-04-06T07:49:07.999Z</time></trkpt><trkpt lat="46.18208765969309" lon="13.048861495099652"><ele>175.0</ele><time>2026-04-06T07:49:08.999Z</time></trkpt><trkpt lat="46.18203498660336" lon="13.048687434847734"><ele>175.0</ele><time>2026-04-06T07:49:09.999Z</time></trkpt><trkpt lat="46.18196523449173" lon="13.048517483933496"><ele>175.0</ele><time>2026-04-06T07:49:10.999Z</time></trkpt><trkpt lat="46.18189177094461" lon="13.048345972483634"><ele>176.75</ele><time>2026-04-06T07:49:11.999Z</time></trkpt><trkpt lat="46.18181358852264" lon="13.048172321453965"><ele>178.5</ele><time>2026-04-06T07:49:12.999Z</time></trkpt><trkpt lat="46.18173382476281" lon="13.04799766366166"><ele>180.25</ele><time>2026-04-06T07:49:13.999Z</time></trkpt><trkpt lat="46.18165470177524" lon="13.047824407436512"><ele>182.0</ele><time>2026-04-06T07:49:14.999Z</time></trkpt><trkpt lat="46.18158211803189" lon="13.047658196270234"><ele>180.5</ele><time>2026-04-06T07:49:15.999Z</time></trkpt><trkpt lat="46.18149170441836" lon="13.04751151759841"><ele>179.0</ele><time>2026-04-06T07:49:16.999Z</time></trkpt><trkpt lat="46.181414965655286" lon="13.04733897965388"><ele>177.5</ele><time>2026-04-06T07:49:17.999Z</time></trkpt><trkpt lat="46.181333551910114" lon="13.047153953559553"><ele>176.0</ele><time>2026-04-06T07:49:18.999Z</time></trkpt><trkpt lat="46.18124842438917" lon="13.046963987665986"><ele>176.0</ele><time>2026-04-06T07:49:19.999Z</time></trkpt><trkpt lat="46.18117568073592" lon="13.04675457249381"><ele>176.0</ele><time>2026-04-06T07:49:21Z</time></trkpt><trkpt lat="46.18107664501221" lon="13.04654498370797"><ele>176.0</ele><time>2026-04-06T07:49:22Z</time></trkpt><trkpt lat="46.18096596813382" lon="13.046320778335735"><ele>177.0</ele><time>2026-04-06T07:49:23Z</time></trkpt><trkpt lat="46.18085101410275" lon="13.046111499965196"><ele>178.0</ele><time>2026-04-06T07:49:24Z</time></trkpt><trkpt lat="46.18067206743975" lon="13.045814049556972"><ele>176.5</ele><time>2026-04-06T07:49:25Z</time></trkpt><trkpt lat="46.18049272359994" lon="13.045519806616426"><ele>175.0</ele><time>2026-04-06T07:49:26Z</time></trkpt><trkpt lat="46.18030322288497" lon="13.04520932168252"><ele>177.5</ele><time>2026-04-06T07:49:27Z</time></trkpt><trkpt lat="46.180133000147414" lon="13.044930422060864"><ele>180.0</ele><time>2026-04-06T07:49:28Z</time></trkpt><trkpt lat="46.17999571361064" lon="13.044704712393415"><ele>180.0</ele><time>2026-04-06T07:49:29Z</time></trkpt><trkpt lat="46.17988950436232" lon="13.044530169351106"><ele>180.0</ele><time>2026-04-06T07:49:30Z</time></trkpt><trkpt lat="46.17979153296294" lon="13.044369430178302"><ele>180.0</ele><time>2026-04-06T07:49:31Z</time></trkpt><trkpt lat="46.17970236445496" lon="13.04422335304651"><ele>180.0</ele><time>2026-04-06T07:49:32Z</time></trkpt><trkpt lat="46.17962676435568" lon="13.044099503945418"><ele>180.0</ele><time>2026-04-06T07:49:33Z</time></trkpt><trkpt lat="46.179560290208485" lon="13.043990605048537"><ele>180.0</ele><time>2026-04-06T07:49:34Z</time></trkpt><trkpt lat="46.179498431350495" lon="13.043889589623719"><ele>180.0</ele><time>2026-04-06T07:49:35Z</time></trkpt><trkpt lat="46.17944136631149" lon="13.043796566779188"><ele>180.0</ele><time>2026-04-06T07:49:36Z</time></trkpt><trkpt lat="46.179383106380065" lon="13.043701596209619"><ele>180.0</ele><time>2026-04-06T07:49:37Z</time></trkpt><trkpt lat="46.1793248804223" lon="13.043606680971008"><ele>180.0</ele><time>2026-04-06T07:49:38Z</time></trkpt><trkpt lat="46.17927016154465" lon="13.043517482681933"><ele>180.0</ele><time>2026-04-06T07:49:39Z</time></trkpt><trkpt lat="46.179189004664586" lon="13.04344321252417"><ele>180.0</ele><time>2026-04-06T07:49:40Z</time></trkpt><trkpt lat="46.17910400201629" lon="13.043299169840793"><ele>180.0</ele><time>2026-04-06T07:49:41Z</time></trkpt><trkpt lat="46.178999745781915" lon="13.04312276403847"><ele>180.33333333333334</ele><time>2026-04-06T07:49:42Z</time></trkpt><trkpt lat="46.178882964579174" lon="13.042930897421048"><ele>180.66666666666669</ele><time>2026-04-06T07:49:43Z</time></trkpt><trkpt lat="46.178781504713044" lon="13.042719576430692"><ele>181.0</ele><time>2026-04-06T07:49:44Z</time></trkpt><trkpt lat="46.178653074731464" lon="13.042510076323843"><ele>184.5</ele><time>2026-04-06T07:49:45Z</time></trkpt><trkpt lat="46.17850084074113" lon="13.042261505362202"><ele>188.0</ele><time>2026-04-06T07:49:46Z</time></trkpt><trkpt lat="46.178320389622826" lon="13.041966642480803"><ele>185.5</ele><time>2026-04-06T07:49:47Z</time></trkpt><trkpt lat="46.1781431949608" lon="13.041676031646777"><ele>183.0</ele><time>2026-04-06T07:49:48Z</time></trkpt><trkpt lat="46.17797864850157" lon="13.041403956753907"><ele>183.0</ele><time>2026-04-06T07:49:49Z</time></trkpt><trkpt lat="46.1778275821671" lon="13.041154171298118"><ele>183.0</ele><time>2026-04-06T07:49:50Z</time></trkpt><trkpt lat="46.177685764875825" lon="13.040918251225643"><ele>183.0</ele><time>2026-04-06T07:49:51Z</time></trkpt><trkpt lat="46.17755424039883" lon="13.040698280284133"><ele>183.66666666666666</ele><time>2026-04-06T07:49:52Z</time></trkpt><trkpt lat="46.17740633619366" lon="13.040489217030167"><ele>184.33333333333331</ele><time>2026-04-06T07:49:53Z</time></trkpt><trkpt lat="46.17727575399832" lon="13.040270809211128"><ele>185.0</ele><time>2026-04-06T07:49:54Z</time></trkpt><trkpt lat="46.1771707436366" lon="13.040061707792061"><ele>185.0</ele><time>2026-04-06T07:49:55Z</time></trkpt><trkpt lat="46.17705291694452" lon="13.039901287327107"><ele>185.0</ele><time>2026-04-06T07:49:56Z</time></trkpt><trkpt lat="46.17695089134408" lon="13.039729587916778"><ele>185.0</ele><time>2026-04-06T07:49:56.999Z</time></trkpt><trkpt lat="46.17684771370685" lon="13.039561393787944"><ele>185.0</ele><time>2026-04-06T07:49:57.999Z</time></trkpt><trkpt lat="46.17673995423717" lon="13.039383273497231"><ele>185.0</ele><time>2026-04-06T07:49:58.999Z</time></trkpt><trkpt lat="46.17663986360666" lon="13.039178412122176"><ele>185.0</ele><time>2026-04-06T07:49:59.999Z</time></trkpt><trkpt lat="46.176519691629466" lon="13.038961374238092"><ele>185.0</ele><time>2026-04-06T07:50:00.999Z</time></trkpt><trkpt lat="46.17640083882599" lon="13.038717304833211"><ele>185.0</ele><time>2026-04-06T07:50:01.999Z</time></trkpt><trkpt lat="46.17628577408333" lon="13.038418094024935"><ele>185.0</ele><time>2026-04-06T07:50:02.999Z</time></trkpt><trkpt lat="46.17618318127646" lon="13.038085546986547"><ele>185.0</ele><time>2026-04-06T07:50:03.999Z</time></trkpt><trkpt lat="46.17608561607834" lon="13.03771216916657"><ele>185.0</ele><time>2026-04-06T07:50:04.999Z</time></trkpt><trkpt lat="46.17599093252994" lon="13.0373099165295"><ele>183.5</ele><time>2026-04-06T07:50:05.999Z</time></trkpt><trkpt lat="46.17589360733287" lon="13.036901166196348"><ele>182.0</ele><time>2026-04-06T07:50:06.999Z</time></trkpt><trkpt lat="46.175798159817916" lon="13.036501432568173"><ele>180.0</ele><time>2026-04-06T07:50:07.999Z</time></trkpt><trkpt lat="46.175706351380626" lon="13.03611846070393"><ele>178.0</ele><time>2026-04-06T07:50:08.999Z</time></trkpt><trkpt lat="46.17561649258113" lon="13.035744126647444"><ele>178.0</ele><time>2026-04-06T07:50:09.999Z</time></trkpt><trkpt lat="46.17551156309571" lon="13.035379324973324"><ele>178.0</ele><time>2026-04-06T07:50:10.999Z</time></trkpt><trkpt lat="46.17541728176117" lon="13.034986052626643"><ele>178.5</ele><time>2026-04-06T07:50:11.999Z</time></trkpt><trkpt lat="46.175331557567745" lon="13.034553862682523"><ele>179.0</ele><time>2026-04-06T07:50:12.999Z</time></trkpt><trkpt lat="46.17522469259512" lon="13.034108063021414"><ele>179.0</ele><time>2026-04-06T07:50:13.999Z</time></trkpt><trkpt lat="46.17511289112707" lon="13.03364166864227"><ele>179.0</ele><time>2026-04-06T07:50:14.999Z</time></trkpt><trkpt lat="46.17500273219153" lon="13.033182764068867"><ele>179.0</ele><time>2026-04-06T07:50:15.999Z</time></trkpt><trkpt lat="46.17489928278694" lon="13.032751710185021"><ele>179.0</ele><time>2026-04-06T07:50:16.999Z</time></trkpt><trkpt lat="46.17479947383876" lon="13.032337518521002"><ele>178.0</ele><time>2026-04-06T07:50:17.999Z</time></trkpt><trkpt lat="46.1747033758137" lon="13.031938714314395"><ele>177.0</ele><time>2026-04-06T07:50:18.999Z</time></trkpt><trkpt lat="46.17461015723457" lon="13.03155185795316"><ele>176.0</ele><time>2026-04-06T07:50:19.999Z</time></trkpt><trkpt lat="46.17451720071453" lon="13.031169878807123"><ele>175.0</ele><time>2026-04-06T07:50:20.999Z</time></trkpt><trkpt lat="46.17441194296095" lon="13.030807631636218"><ele>175.0</ele><time>2026-04-06T07:50:21.999Z</time></trkpt><trkpt lat="46.17432920221154" lon="13.03046436708775"><ele>175.0</ele><time>2026-04-06T07:50:22.999Z</time></trkpt><trkpt lat="46.17425071679112" lon="13.03013281528597"><ele>175.5</ele><time>2026-04-06T07:50:23.999Z</time></trkpt><trkpt lat="46.174173140177125" lon="13.02981243655887"><ele>176.0</ele><time>2026-04-06T07:50:24.999Z</time></trkpt><trkpt lat="46.17409880095454" lon="13.029501077814526"><ele>176.0</ele><time>2026-04-06T07:50:25.999Z</time></trkpt><trkpt lat="46.17402814386776" lon="13.029205293309184"><ele>176.0</ele><time>2026-04-06T07:50:26.999Z</time></trkpt><trkpt lat="46.17395935589003" lon="13.02891550085136"><ele>176.0</ele><time>2026-04-06T07:50:27.999Z</time></trkpt><trkpt lat="46.17389064097784" lon="13.028628632370467"><ele>175.66666666666666</ele><time>2026-04-06T07:50:28.999Z</time></trkpt><trkpt lat="46.17382257790385" lon="13.028342094595455"><ele>175.33333333333334</ele><time>2026-04-06T07:50:29.999Z</time></trkpt><trkpt lat="46.17375551540308" lon="13.028058261508383"><ele>175.0</ele><time>2026-04-06T07:50:30.999Z</time></trkpt><trkpt lat="46.1736889045963" lon="13.027774210450485"><ele>175.0</ele><time>2026-04-06T07:50:31.999Z</time></trkpt><trkpt lat="46.173620437759965" lon="13.027490190575984"><ele>175.0</ele><time>2026-04-06T07:50:32.999Z</time></trkpt><trkpt lat="46.173552327081154" lon="13.02721167509754"><ele>175.0</ele><time>2026-04-06T07:50:33.999Z</time></trkpt><trkpt lat="46.173487490646764" lon="13.026942365153415"><ele>175.33333333333334</ele><time>2026-04-06T07:50:34.999Z</time></trkpt><trkpt lat="46.17342553190639" lon="13.026677624469428"><ele>175.66666666666666</ele><time>2026-04-06T07:50:35.999Z</time></trkpt><trkpt lat="46.173363519354915" lon="13.026415954435338"><ele>176.0</ele><time>2026-04-06T07:50:36.999Z</time></trkpt><trkpt lat="46.173299447742856" lon="13.026157801717241"><ele>176.33333333333331</ele><time>2026-04-06T07:50:37.999Z</time></trkpt><trkpt lat="46.17323715405543" lon="13.025903928799842"><ele>176.66666666666666</ele><time>2026-04-06T07:50:38.999Z</time></trkpt><trkpt lat="46.1731766848696" lon="13.025652582447293"><ele>177.0</ele><time>2026-04-06T07:50:39.999Z</time></trkpt><trkpt lat="46.17311510006229" lon="13.0253937388002"><ele>176.0</ele><time>2026-04-06T07:50:40.999Z</time></trkpt><trkpt lat="46.17304937242016" lon="13.025120835860251"><ele>175.0</ele><time>2026-04-06T07:50:41.999Z</time></trkpt><trkpt lat="46.17297858850885" lon="13.024832941670033"><ele>174.0</ele><time>2026-04-06T07:50:42.999Z</time></trkpt><trkpt lat="46.17290446756391" lon="13.024520982512323"><ele>174.0</ele><time>2026-04-06T07:50:43.999Z</time></trkpt><trkpt lat="46.17282123997509" lon="13.024172217131236"><ele>174.0</ele><time>2026-04-06T07:50:44.999Z</time></trkpt><trkpt lat="46.17272655042353" lon="13.023784595389296"><ele>174.0</ele><time>2026-04-06T07:50:45.999Z</time></trkpt><trkpt lat="46.17262731186805" lon="13.023370971208536"><ele>174.0</ele><time>2026-04-06T07:50:46.999Z</time></trkpt><trkpt lat="46.17251622658503" lon="13.022904259304793"><ele>174.0</ele><time>2026-04-06T07:50:47.999Z</time></trkpt><trkpt lat="46.172392492301256" lon="13.022392261022208"><ele>174.0</ele><time>2026-04-06T07:50:48.999Z</time></trkpt><trkpt lat="46.17226052586285" lon="13.021836427127967"><ele>176.0</ele><time>2026-04-06T07:50:49.999Z</time></trkpt><trkpt lat="46.17212665705212" lon="13.021274848188748"><ele>178.0</ele><time>2026-04-06T07:50:50.999Z</time></trkpt><trkpt lat="46.17200629945626" lon="13.020772670709112"><ele>180.5</ele><time>2026-04-06T07:50:51.999Z</time></trkpt><trkpt lat="46.17189392753558" lon="13.02030940795084"><ele>183.0</ele><time>2026-04-06T07:50:52.999Z</time></trkpt><trkpt lat="46.17179312489127" lon="13.019887335018375"><ele>184.5</ele><time>2026-04-06T07:50:53.999Z</time></trkpt><trkpt lat="46.171699571327174" lon="13.019500005844797"><ele>186.0</ele><time>2026-04-06T07:50:54.999Z</time></trkpt><trkpt lat="46.171612138409955" lon="13.019133650648566"><ele>186.5</ele><time>2026-04-06T07:50:55.999Z</time></trkpt><trkpt lat="46.171532161208134" lon="13.018791888966003"><ele>187.0</ele><time>2026-04-06T07:50:56.999Z</time></trkpt><trkpt lat="46.17145315111966" lon="13.018454716567964"><ele>185.5</ele><time>2026-04-06T07:50:57.999Z</time></trkpt><trkpt lat="46.171370908114966" lon="13.018112648893092"><ele>184.0</ele><time>2026-04-06T07:50:58.999Z</time></trkpt><trkpt lat="46.171287711994246" lon="13.017770929701017"><ele>185.5</ele><time>2026-04-06T07:50:59.999Z</time></trkpt><trkpt lat="46.17120781339188" lon="13.017437519912406"><ele>187.0</ele><time>2026-04-06T07:51:00.999Z</time></trkpt><trkpt lat="46.171136999105315" lon="13.017127048280784"><ele>187.0</ele><time>2026-04-06T07:51:01.999Z</time></trkpt><trkpt lat="46.17106961128815" lon="13.016839187216698"><ele>187.0</ele><time>2026-04-06T07:51:02.999Z</time></trkpt><trkpt lat="46.17099989974505" lon="13.01657121251369"><ele>187.0</ele><time>2026-04-06T07:51:03.999Z</time></trkpt><trkpt lat="46.170923535120714" lon="13.016315852701167"><ele>188.0</ele><time>2026-04-06T07:51:04.999Z</time></trkpt><trkpt lat="46.17083696413077" lon="13.016061656743238"><ele>189.0</ele><time>2026-04-06T07:51:05.999Z</time></trkpt><trkpt lat="46.17074080248338" lon="13.015798605871302"><ele>190.0</ele><time>2026-04-06T07:51:06.999Z</time></trkpt><trkpt lat="46.17063732649375" lon="13.01554204957283"><ele>190.0</ele><time>2026-04-06T07:51:07.999Z</time></trkpt><trkpt lat="46.17052477635164" lon="13.015292684458029"><ele>190.0</ele><time>2026-04-06T07:51:08.999Z</time></trkpt><trkpt lat="46.17040882189256" lon="13.015047317444997"><ele>190.0</ele><time>2026-04-06T07:51:09.999Z</time></trkpt><trkpt lat="46.17029344112074" lon="13.014808731598805"><ele>190.33333333333334</ele><time>2026-04-06T07:51:10.999Z</time></trkpt><trkpt lat="46.17017906240259" lon="13.014573883559999"><ele>190.66666666666666</ele><time>2026-04-06T07:51:11.999Z</time></trkpt><trkpt lat="46.17006394135373" lon="13.014334787397257"><ele>191.0</ele><time>2026-04-06T07:51:12.999Z</time></trkpt><trkpt lat="46.16994709384492" lon="13.014092110684478"><ele>191.66666666666666</ele><time>2026-04-06T07:51:13.999Z</time></trkpt><trkpt lat="46.169833599130875" lon="13.013850110280707"><ele>192.33333333333331</ele><time>2026-04-06T07:51:14.999Z</time></trkpt><trkpt lat="46.16972169705297" lon="13.013610420017262"><ele>193.0</ele><time>2026-04-06T07:51:15.999Z</time></trkpt><trkpt lat="46.169604414926965" lon="13.013373755075504"><ele>192.33333333333331</ele><time>2026-04-06T07:51:16.999Z</time></trkpt><trkpt lat="46.16948784535213" lon="13.013134631931294"><ele>191.66666666666666</ele><time>2026-04-06T07:51:17.999Z</time></trkpt><trkpt lat="46.16936705556917" lon="13.012873599516396"><ele>191.0</ele><time>2026-04-06T07:51:18.999Z</time></trkpt><trkpt lat="46.169238784717464" lon="13.012604140363427"><ele>190.5</ele><time>2026-04-06T07:51:19.999Z</time></trkpt><trkpt lat="46.16910476144008" lon="13.012336407258744"><ele>190.0</ele><time>2026-04-06T07:51:20.999Z</time></trkpt><trkpt lat="46.16896273264535" lon="13.012082330180185"><ele>190.66666666666669</ele><time>2026-04-06T07:51:21.999Z</time></trkpt><trkpt lat="46.16881045933247" lon="13.011856921368198"><ele>191.33333333333334</ele><time>2026-04-06T07:51:22.999Z</time></trkpt><trkpt lat="46.168642853444716" lon="13.01165256228331"><ele>192.0</ele><time>2026-04-06T07:51:23.999Z</time></trkpt><trkpt lat="46.168456483512664" lon="13.011476407640455"><ele>192.0</ele><time>2026-04-06T07:51:24.999Z</time></trkpt><trkpt lat="46.168264613374205" lon="13.011320456376486"><ele>192.0</ele><time>2026-04-06T07:51:25.999Z</time></trkpt><trkpt lat="46.168078391182355" lon="13.011172888754405"><ele>192.0</ele><time>2026-04-06T07:51:27Z</time></trkpt><trkpt lat="46.16790091882652" lon="13.0110327887533"><ele>192.33333333333331</ele><time>2026-04-06T07:51:28Z</time></trkpt><trkpt lat="46.16773858146645" lon="13.010902519454133"><ele>192.66666666666666</ele><time>2026-04-06T07:51:29Z</time></trkpt><trkpt lat="46.167577489019585" lon="13.010772362515754"><ele>193.0</ele><time>2026-04-06T07:51:30Z</time></trkpt><trkpt lat="46.16741214932555" lon="13.010639854751776"><ele>193.66666666666666</ele><time>2026-04-06T07:51:31Z</time></trkpt><trkpt lat="46.167240594297354" lon="13.010500926544609"><ele>194.33333333333331</ele><time>2026-04-06T07:51:32Z</time></trkpt><trkpt lat="46.16707331250383" lon="13.010366353365162"><ele>195.0</ele><time>2026-04-06T07:51:33Z</time></trkpt><trkpt lat="46.16692274679828" lon="13.010243858083301"><ele>195.0</ele><time>2026-04-06T07:51:34Z</time></trkpt><trkpt lat="46.16676816679269" lon="13.010118502427506"><ele>195.0</ele><time>2026-04-06T07:51:35Z</time></trkpt><trkpt lat="46.166606112264475" lon="13.009986535967334"><ele>195.0</ele><time>2026-04-06T07:51:36Z</time></trkpt><trkpt lat="46.166438127222285" lon="13.009852784891697"><ele>195.66666666666669</ele><time>2026-04-06T07:51:37Z</time></trkpt><trkpt lat="46.16627533862941" lon="13.009720622202662"><ele>196.33333333333334</ele><time>2026-04-06T07:51:38Z</time></trkpt><trkpt lat="46.16612871988668" lon="13.00960120962827"><ele>197.0</ele><time>2026-04-06T07:51:39Z</time></trkpt><trkpt lat="46.16598344813697" lon="13.00947971801932"><ele>197.0</ele><time>2026-04-06T07:51:40Z</time></trkpt><trkpt lat="46.165828440987966" lon="13.009355409965533"><ele>197.0</ele><time>2026-04-06T07:51:41Z</time></trkpt><trkpt lat="46.16567710078987" lon="13.009238884603105"><ele>197.0</ele><time>2026-04-06T07:51:42Z</time></trkpt><trkpt lat="46.16552845754153" lon="13.009122451590322"><ele>197.33333333333334</ele><time>2026-04-06T07:51:43Z</time></trkpt><trkpt lat="46.165380530932026" lon="13.009002685273405"><ele>197.66666666666669</ele><time>2026-04-06T07:51:44Z</time></trkpt><trkpt lat="46.16523143541932" lon="13.008879299493861"><ele>198.0</ele><time>2026-04-06T07:51:45Z</time></trkpt><trkpt lat="46.16508317015352" lon="13.008757963907476"><ele>198.0</ele><time>2026-04-06T07:51:46Z</time></trkpt><trkpt lat="46.16492935287574" lon="13.008634424702189"><ele>198.0</ele><time>2026-04-06T07:51:47Z</time></trkpt><trkpt lat="46.16477381994181" lon="13.008510134018888"><ele>198.0</ele><time>2026-04-06T07:51:48Z</time></trkpt><trkpt lat="46.16461726394293" lon="13.008383833710457"><ele>199.33333333333331</ele><time>2026-04-06T07:51:49Z</time></trkpt><trkpt lat="46.16446180765993" lon="13.008261196328073"><ele>200.66666666666666</ele><time>2026-04-06T07:51:50Z</time></trkpt><trkpt lat="46.16430849979493" lon="13.008137715575469"><ele>202.0</ele><time>2026-04-06T07:51:51Z</time></trkpt><trkpt lat="46.164165430735515" lon="13.008017464751038"><ele>202.0</ele><time>2026-04-06T07:51:52Z</time></trkpt><trkpt lat="46.164031032359524" lon="13.0078908870816"><ele>202.0</ele><time>2026-04-06T07:51:53Z</time></trkpt><trkpt lat="46.163902492408944" lon="13.007747085933921"><ele>202.0</ele><time>2026-04-06T07:51:54Z</time></trkpt><trkpt lat="46.16377940375084" lon="13.007584436239657"><ele>201.33333333333331</ele><time>2026-04-06T07:51:55Z</time></trkpt><trkpt lat="46.1636670778911" lon="13.007405034423487"><ele>200.66666666666669</ele><time>2026-04-06T07:51:56Z</time></trkpt><trkpt lat="46.163557160767205" lon="13.007225050310069"><ele>200.0</ele><time>2026-04-06T07:51:57Z</time></trkpt><trkpt lat="46.163457766372126" lon="13.007035898839705"><ele>200.0</ele><time>2026-04-06T07:51:58Z</time></trkpt><trkpt lat="46.163372341768955" lon="13.006844422106926"><ele>200.0</ele><time>2026-04-06T07:51:59Z</time></trkpt><trkpt lat="46.163297306539555" lon="13.00665220631566"><ele>200.0</ele><time>2026-04-06T07:52:00Z</time></trkpt><trkpt lat="46.1632248455661" lon="13.006454178243414"><ele>200.33333333333334</ele><time>2026-04-06T07:52:01Z</time></trkpt><trkpt lat="46.16315266918357" lon="13.006253864577666"><ele>200.66666666666669</ele><time>2026-04-06T07:52:02Z</time></trkpt><trkpt lat="46.163080773967884" lon="13.006057484526872"><ele>201.0</ele><time>2026-04-06T07:52:03Z</time></trkpt><trkpt lat="46.163013959324" lon="13.005872241617817"><ele>201.0</ele><time>2026-04-06T07:52:04Z</time></trkpt><trkpt lat="46.16294972620586" lon="13.005690721639153"><ele>201.0</ele><time>2026-04-06T07:52:04.999Z</time></trkpt><trkpt lat="46.16288373425035" lon="13.005509296953164"><ele>201.0</ele><time>2026-04-06T07:52:05.999Z</time></trkpt><trkpt lat="46.162822880390266" lon="13.005340860244113"><ele>201.0</ele><time>2026-04-06T07:52:06.999Z</time></trkpt><trkpt lat="46.16276648107073" lon="13.005181282681983"><ele>201.0</ele><time>2026-04-06T07:52:07.999Z</time></trkpt><trkpt lat="46.16271580094701" lon="13.005037838742483"><ele>201.0</ele><time>2026-04-06T07:52:08.999Z</time></trkpt><trkpt lat="46.16267074770427" lon="13.004902934418789"><ele>201.0</ele><time>2026-04-06T07:52:09.999Z</time></trkpt><trkpt lat="46.16263061444603" lon="13.004779325260913"><ele>201.0</ele><time>2026-04-06T07:52:10.999Z</time></trkpt><trkpt lat="46.16259124488539" lon="13.004654825169185"><ele>201.0</ele><time>2026-04-06T07:52:11.999Z</time></trkpt><trkpt lat="46.16255511086157" lon="13.004544743620066"><ele>201.16666666666666</ele><time>2026-04-06T07:52:12.999Z</time></trkpt><trkpt lat="46.16252819255824" lon="13.00445771710803"><ele>201.33333333333331</ele><time>2026-04-06T07:52:13.999Z</time></trkpt><trkpt lat="46.16248898263435" lon="13.004315412109474"><ele>201.5</ele><time>2026-04-06T07:52:15.999Z</time></trkpt><trkpt lat="46.16247226235656" lon="13.004164536781719"><ele>201.66666666666666</ele><time>2026-04-06T07:52:17.999Z</time></trkpt><trkpt lat="46.162484444683734" lon="13.004070120994353"><ele>201.83333333333331</ele><time>2026-04-06T07:52:18.999Z</time></trkpt><trkpt lat="46.16249748064985" lon="13.003957252652405"><ele>202.0</ele><time>2026-04-06T07:52:19.999Z</time></trkpt><trkpt lat="46.16249512249703" lon="13.003834077356933"><ele>202.16666666666666</ele><time>2026-04-06T07:52:20.999Z</time></trkpt><trkpt lat="46.16246446415518" lon="13.003721208384938"><ele>202.33333333333331</ele><time>2026-04-06T07:52:21.999Z</time></trkpt><trkpt lat="46.16241061046412" lon="13.003623457046066"><ele>202.5</ele><time>2026-04-06T07:52:22.999Z</time></trkpt><trkpt lat="46.162334303332166" lon="13.003570063262575"><ele>202.66666666666669</ele><time>2026-04-06T07:52:23.999Z</time></trkpt><trkpt lat="46.16224541142308" lon="13.003563321687565"><ele>202.83333333333334</ele><time>2026-04-06T07:52:24.999Z</time></trkpt><trkpt lat="46.162148045260174" lon="13.003574389833808"><ele>203.0</ele><time>2026-04-06T07:52:25.999Z</time></trkpt><trkpt lat="46.1620429586764" lon="13.003566409539284"><ele>203.0</ele><time>2026-04-06T07:52:26.999Z</time></trkpt><trkpt lat="46.16192605458516" lon="13.003521936429692"><ele>203.0</ele><time>2026-04-06T07:52:27.999Z</time></trkpt><trkpt lat="46.16179520597829" lon="13.003443879616018"><ele>203.0</ele><time>2026-04-06T07:52:28.999Z</time></trkpt><trkpt lat="46.1616640761277" lon="13.003358984694854"><ele>203.0</ele><time>2026-04-06T07:52:29.999Z</time></trkpt><trkpt lat="46.16153380701496" lon="13.003292545287167"><ele>203.75</ele><time>2026-04-06T07:52:30.999Z</time></trkpt><trkpt lat="46.16139703699927" lon="13.003239229938298"><ele>204.5</ele><time>2026-04-06T07:52:31.999Z</time></trkpt><trkpt lat="46.161258082390056" lon="13.003197057644373"><ele>205.25</ele><time>2026-04-06T07:52:32.999Z</time></trkpt><trkpt lat="46.16113087678104" lon="13.003163193237814"><ele>206.0</ele><time>2026-04-06T07:52:33.999Z</time></trkpt><trkpt lat="46.161002743501754" lon="13.003126502596086"><ele>206.0</ele><time>2026-04-06T07:52:34.999Z</time></trkpt><trkpt lat="46.16086563226222" lon="13.003083537643116"><ele>206.0</ele><time>2026-04-06T07:52:35.999Z</time></trkpt><trkpt lat="46.16072679854095" lon="13.003040199823582"><ele>206.0</ele><time>2026-04-06T07:52:36.999Z</time></trkpt><trkpt lat="46.160588135472686" lon="13.00299847348325"><ele>206.0</ele><time>2026-04-06T07:52:37.999Z</time></trkpt><trkpt lat="46.16045246723633" lon="13.00295792040214"><ele>205.5</ele><time>2026-04-06T07:52:38.999Z</time></trkpt><trkpt lat="46.16031816512945" lon="13.002916591751712"><ele>205.0</ele><time>2026-04-06T07:52:39.999Z</time></trkpt><trkpt lat="46.160182832004985" lon="13.002878647670332"><ele>204.5</ele><time>2026-04-06T07:52:40.999Z</time></trkpt><trkpt lat="46.160045760937095" lon="13.00284231729271"><ele>204.0</ele><time>2026-04-06T07:52:41.999Z</time></trkpt><trkpt lat="46.159906022000136" lon="13.002802448778372"><ele>202.5</ele><time>2026-04-06T07:52:42.999Z</time></trkpt><trkpt lat="46.159764495869986" lon="13.002760799330945"><ele>201.0</ele><time>2026-04-06T07:52:43.999Z</time></trkpt><trkpt lat="46.15963557198395" lon="13.002722074861165"><ele>199.5</ele><time>2026-04-06T07:52:44.999Z</time></trkpt><trkpt lat="46.159516150098305" lon="13.002685630038188"><ele>198.0</ele><time>2026-04-06T07:52:45.999Z</time></trkpt><trkpt lat="46.159393902301936" lon="13.002647516858701"><ele>198.0</ele><time>2026-04-06T07:52:46.999Z</time></trkpt><trkpt lat="46.15926628989291" lon="13.002599091561956"><ele>198.0</ele><time>2026-04-06T07:52:47.999Z</time></trkpt><trkpt lat="46.15912718740387" lon="13.00253036009704"><ele>198.0</ele><time>2026-04-06T07:52:48.999Z</time></trkpt><trkpt lat="46.158988247274635" lon="13.002437946534586"><ele>198.0</ele><time>2026-04-06T07:52:49.999Z</time></trkpt><trkpt lat="46.15885497720011" lon="13.002322442992886"><ele>198.0</ele><time>2026-04-06T07:52:50.999Z</time></trkpt><trkpt lat="46.158733435037135" lon="13.002195317487335"><ele>198.0</ele><time>2026-04-06T07:52:51.999Z</time></trkpt><trkpt lat="46.15862330396211" lon="13.002052421369859"><ele>198.0</ele><time>2026-04-06T07:52:52.999Z</time></trkpt><trkpt lat="46.158524794403355" lon="13.001896472676085"><ele>198.0</ele><time>2026-04-06T07:52:53.999Z</time></trkpt><trkpt lat="46.15843207854987" lon="13.001729427936516"><ele>198.0</ele><time>2026-04-06T07:52:54.999Z</time></trkpt><trkpt lat="46.15834160453051" lon="13.001550943367887"><ele>198.0</ele><time>2026-04-06T07:52:55.999Z</time></trkpt><trkpt lat="46.15825529312665" lon="13.001361323285135"><ele>198.0</ele><time>2026-04-06T07:52:56.999Z</time></trkpt><trkpt lat="46.1581700181901" lon="13.001171922074215"><ele>197.0</ele><time>2026-04-06T07:52:57.999Z</time></trkpt><trkpt lat="46.15808382288979" lon="13.000984249903288"><ele>196.0</ele><time>2026-04-06T07:52:58.999Z</time></trkpt><trkpt lat="46.15799472651028" lon="13.000805358721411"><ele>195.0</ele><time>2026-04-06T07:52:59.999Z</time></trkpt><trkpt lat="46.15790471727801" lon="13.000653256545373"><ele>194.0</ele><time>2026-04-06T07:53:00.999Z</time></trkpt><trkpt lat="46.15781193782297" lon="13.000508747687107"><ele>194.0</ele><time>2026-04-06T07:53:01.999Z</time></trkpt><trkpt lat="46.1577110941332" lon="13.00037422743188"><ele>194.0</ele><time>2026-04-06T07:53:02.999Z</time></trkpt><trkpt lat="46.157598954801514" lon="13.000247981170146"><ele>194.0</ele><time>2026-04-06T07:53:03.999Z</time></trkpt><trkpt lat="46.157478992235994" lon="13.000125418635088"><ele>194.0</ele><time>2026-04-06T07:53:04.999Z</time></trkpt><trkpt lat="46.15735824507663" lon="13.000008534742374"><ele>193.25</ele><time>2026-04-06T07:53:05.999Z</time></trkpt><trkpt lat="46.15724744574776" lon="12.999905124161655"><ele>192.5</ele><time>2026-04-06T07:53:06.999Z</time></trkpt><trkpt lat="46.157137759299204" lon="12.999807755534489"><ele>191.75</ele><time>2026-04-06T07:53:07.999Z</time></trkpt><trkpt lat="46.157028762971585" lon="12.999709477222922"><ele>191.0</ele><time>2026-04-06T07:53:08.999Z</time></trkpt><trkpt lat="46.156920429251116" lon="12.9996122495482"><ele>191.0</ele><time>2026-04-06T07:53:09.999Z</time></trkpt><trkpt lat="46.15681331931896" lon="12.999515121738153"><ele>191.0</ele><time>2026-04-06T07:53:10.999Z</time></trkpt><trkpt lat="46.156706153272594" lon="12.99941792172411"><ele>191.0</ele><time>2026-04-06T07:53:11.999Z</time></trkpt><trkpt lat="46.156597319274205" lon="12.99931878797483"><ele>191.0</ele><time>2026-04-06T07:53:12.999Z</time></trkpt><trkpt lat="46.15648374655874" lon="12.999214375285764"><ele>191.25</ele><time>2026-04-06T07:53:13.999Z</time></trkpt><trkpt lat="46.15636757314466" lon="12.999104393467773"><ele>191.5</ele><time>2026-04-06T07:53:14.999Z</time></trkpt><trkpt lat="46.15624623872976" lon="12.998992501907502"><ele>191.75</ele><time>2026-04-06T07:53:15.999Z</time></trkpt><trkpt lat="46.15612057791507" lon="12.998878350458991"><ele>192.0</ele><time>2026-04-06T07:53:16.999Z</time></trkpt><trkpt lat="46.15599247530602" lon="12.998760525773921"><ele>192.0</ele><time>2026-04-06T07:53:17.999Z</time></trkpt><trkpt lat="46.15586199534075" lon="12.998641407707185"><ele>192.0</ele><time>2026-04-06T07:53:18.999Z</time></trkpt><trkpt lat="46.155728041127624" lon="12.998516134789758"><ele>192.0</ele><time>2026-04-06T07:53:19.999Z</time></trkpt><trkpt lat="46.15558915661869" lon="12.998388287897155"><ele>192.0</ele><time>2026-04-06T07:53:20.999Z</time></trkpt><trkpt lat="46.15544920533692" lon="12.998262103782757"><ele>192.0</ele><time>2026-04-06T07:53:21.999Z</time></trkpt><trkpt lat="46.155309523319886" lon="12.998141209119305"><ele>192.0</ele><time>2026-04-06T07:53:22.999Z</time></trkpt><trkpt lat="46.1551710088879" lon="12.998025012170041"><ele>192.0</ele><time>2026-04-06T07:53:23.999Z</time></trkpt><trkpt lat="46.155032190506546" lon="12.997917395672651"><ele>192.0</ele><time>2026-04-06T07:53:24.999Z</time></trkpt><trkpt lat="46.15489511696767" lon="12.9978155282417"><ele>192.0</ele><time>2026-04-06T07:53:25.999Z</time></trkpt><trkpt lat="46.1547571561867" lon="12.997717692131154"><ele>191.66666666666666</ele><time>2026-04-06T07:53:26.999Z</time></trkpt><trkpt lat="46.154614761355234" lon="12.997621439776283"><ele>191.33333333333331</ele><time>2026-04-06T07:53:27.999Z</time></trkpt><trkpt lat="46.15446666775469" lon="12.997523953242908"><ele>191.0</ele><time>2026-04-06T07:53:28.999Z</time></trkpt><trkpt lat="46.1543130086124" lon="12.997423958911504"><ele>190.33333333333331</ele><time>2026-04-06T07:53:29.999Z</time></trkpt><trkpt lat="46.15415654834871" lon="12.997318762123399"><ele>189.66666666666666</ele><time>2026-04-06T07:53:30.999Z</time></trkpt><trkpt lat="46.15399911944965" lon="12.99721426038494"><ele>189.0</ele><time>2026-04-06T07:53:31.999Z</time></trkpt><trkpt lat="46.15383553531081" lon="12.99710702680963"><ele>187.66666666666666</ele><time>2026-04-06T07:53:33Z</time></trkpt><trkpt lat="46.153672868933924" lon="12.997002774435067"><ele>186.33333333333331</ele><time>2026-04-06T07:53:34Z</time></trkpt><trkpt lat="46.153510809041244" lon="12.996900753688506"><ele>185.0</ele><time>2026-04-06T07:53:35Z</time></trkpt><trkpt lat="46.1533496682783" lon="12.996797894780489"><ele>184.33333333333331</ele><time>2026-04-06T07:53:36Z</time></trkpt><trkpt lat="46.153182143321146" lon="12.996688474200615"><ele>183.66666666666666</ele><time>2026-04-06T07:53:37Z</time></trkpt><trkpt lat="46.153007273216765" lon="12.996576198525341"><ele>183.0</ele><time>2026-04-06T07:53:38Z</time></trkpt><trkpt lat="46.15282486538608" lon="12.996461198537272"><ele>183.0</ele><time>2026-04-06T07:53:39Z</time></trkpt><trkpt lat="46.152633856495235" lon="12.996338167082229"><ele>183.0</ele><time>2026-04-06T07:53:40Z</time></trkpt><trkpt lat="46.15243740464591" lon="12.996195779628811"><ele>183.0</ele><time>2026-04-06T07:53:41Z</time></trkpt><trkpt lat="46.15224107886774" lon="12.99603595079041"><ele>182.0</ele><time>2026-04-06T07:53:42Z</time></trkpt><trkpt lat="46.15203994886701" lon="12.995839770745517"><ele>181.0</ele><time>2026-04-06T07:53:43Z</time></trkpt><trkpt lat="46.151837428292" lon="12.995628294435722"><ele>180.66666666666669</ele><time>2026-04-06T07:53:44Z</time></trkpt><trkpt lat="46.15165134421206" lon="12.99543030211086"><ele>180.33333333333334</ele><time>2026-04-06T07:53:45Z</time></trkpt><trkpt lat="46.15148119854951" lon="12.99525209421335"><ele>180.0</ele><time>2026-04-06T07:53:46Z</time></trkpt><trkpt lat="46.15132399564457" lon="12.99508353178882"><ele>179.66666666666666</ele><time>2026-04-06T07:53:47Z</time></trkpt><trkpt lat="46.151178741268566" lon="12.994911476169541"><ele>179.33333333333331</ele><time>2026-04-06T07:53:48Z</time></trkpt><trkpt lat="46.15104802481406" lon="12.994729763193911"><ele>179.0</ele><time>2026-04-06T07:53:49Z</time></trkpt><trkpt lat="46.15092874632449" lon="12.994530446134217"><ele>179.0</ele><time>2026-04-06T07:53:50Z</time></trkpt><trkpt lat="46.15082063987873" lon="12.99429764404893"><ele>179.0</ele><time>2026-04-06T07:53:51Z</time></trkpt><trkpt lat="46.150733181381135" lon="12.994027615304335"><ele>179.0</ele><time>2026-04-06T07:53:52Z</time></trkpt><trkpt lat="46.15067534144171" lon="12.993728841761214"><ele>179.0</ele><time>2026-04-06T07:53:53Z</time></trkpt><trkpt lat="46.1506399618857" lon="12.993416248815945"><ele>179.0</ele><time>2026-04-06T07:53:54Z</time></trkpt><trkpt lat="46.150598971635965" lon="12.993115181586134"><ele>179.0</ele><time>2026-04-06T07:53:55Z</time></trkpt><trkpt lat="46.15053844063342" lon="12.992816496922142"><ele>179.0</ele><time>2026-04-06T07:53:56Z</time></trkpt><trkpt lat="46.150453940602546" lon="12.99252074565371"><ele>179.0</ele><time>2026-04-06T07:53:57Z</time></trkpt><trkpt lat="46.15035204415001" lon="12.992231381406972"><ele>179.0</ele><time>2026-04-06T07:53:58Z</time></trkpt><trkpt lat="46.15024477029424" lon="12.991940039413771"><ele>178.5</ele><time>2026-04-06T07:53:59Z</time></trkpt><trkpt lat="46.15013405789163" lon="12.991637860522047"><ele>178.0</ele><time>2026-04-06T07:54:00Z</time></trkpt><trkpt lat="46.150020568365385" lon="12.991324171810547"><ele>178.0</ele><time>2026-04-06T07:54:01Z</time></trkpt><trkpt lat="46.1499068990532" lon="12.991011606202749"><ele>178.0</ele><time>2026-04-06T07:54:02Z</time></trkpt><trkpt lat="46.14979528609211" lon="12.990708636200084"><ele>176.5</ele><time>2026-04-06T07:54:03Z</time></trkpt><trkpt lat="46.14968445669095" lon="12.990412449403408"><ele>175.0</ele><time>2026-04-06T07:54:04Z</time></trkpt><trkpt lat="46.149573532149674" lon="12.990126939932317"><ele>175.0</ele><time>2026-04-06T07:54:05Z</time></trkpt><trkpt lat="46.14946157041166" lon="12.989852506477966"><ele>175.0</ele><time>2026-04-06T07:54:06Z</time></trkpt><trkpt lat="46.14934608687325" lon="12.989587727615117"><ele>175.0</ele><time>2026-04-06T07:54:07Z</time></trkpt><trkpt lat="46.14922843719448" lon="12.98932828669408"><ele>175.0</ele><time>2026-04-06T07:54:07.999Z</time></trkpt><trkpt lat="46.14911104280829" lon="12.989071908549915"><ele>175.0</ele><time>2026-04-06T07:54:08.999Z</time></trkpt><trkpt lat="46.14899259381555" lon="12.988822126662603"><ele>175.0</ele><time>2026-04-06T07:54:09.999Z</time></trkpt><trkpt lat="46.148885720618125" lon="12.988568930811482"><ele>173.66666666666669</ele><time>2026-04-06T07:54:10.999Z</time></trkpt><trkpt lat="46.14877351389351" lon="12.988330685456289"><ele>172.33333333333334</ele><time>2026-04-06T07:54:11.999Z</time></trkpt><trkpt lat="46.148659300992655" lon="12.988093664653928"><ele>171.0</ele><time>2026-04-06T07:54:12.999Z</time></trkpt><trkpt lat="46.1484972106449" lon="12.987892125708388"><ele>171.0</ele><time>2026-04-06T07:54:13.999Z</time></trkpt><trkpt lat="46.14836576241567" lon="12.987652542297761"><ele>171.0</ele><time>2026-04-06T07:54:14.999Z</time></trkpt><trkpt lat="46.14823501298052" lon="12.987414692734253"><ele>171.0</ele><time>2026-04-06T07:54:15.999Z</time></trkpt><trkpt lat="46.14810972203569" lon="12.987187871458822"><ele>170.33333333333334</ele><time>2026-04-06T07:54:16.999Z</time></trkpt><trkpt lat="46.14799002820447" lon="12.986968343390643"><ele>169.66666666666669</ele><time>2026-04-06T07:54:17.999Z</time></trkpt><trkpt lat="46.14786930131212" lon="12.986751547739589"><ele>169.0</ele><time>2026-04-06T07:54:18.999Z</time></trkpt><trkpt lat="46.147739709976875" lon="12.986543128056622"><ele>168.66666666666669</ele><time>2026-04-06T07:54:19.999Z</time></trkpt><trkpt lat="46.14759559239911" lon="12.986357348256256"><ele>168.33333333333334</ele><time>2026-04-06T07:54:20.999Z</time></trkpt><trkpt lat="46.147441935378566" lon="12.986203519923833"><ele>168.0</ele><time>2026-04-06T07:54:21.999Z</time></trkpt><trkpt lat="46.14728452283515" lon="12.986068823585871"><ele>167.33333333333334</ele><time>2026-04-06T07:54:22.999Z</time></trkpt><trkpt lat="46.14712882366964" lon="12.985945069042545"><ele>166.66666666666669</ele><time>2026-04-06T07:54:23.999Z</time></trkpt><trkpt lat="46.146984664435365" lon="12.98583337877423"><ele>166.0</ele><time>2026-04-06T07:54:24.999Z</time></trkpt><trkpt lat="46.14684453630786" lon="12.985719433130445"><ele>165.66666666666669</ele><time>2026-04-06T07:54:25.999Z</time></trkpt><trkpt lat="46.14669794120254" lon="12.985596907315902"><ele>165.33333333333334</ele><time>2026-04-06T07:54:26.999Z</time></trkpt><trkpt lat="46.146547058970974" lon="12.985466702334001"><ele>165.0</ele><time>2026-04-06T07:54:27.999Z</time></trkpt><trkpt lat="46.146398468576095" lon="12.985324140713185"><ele>164.66666666666666</ele><time>2026-04-06T07:54:28.999Z</time></trkpt><trkpt lat="46.14625423929596" lon="12.985160833555804"><ele>164.33333333333331</ele><time>2026-04-06T07:54:29.999Z</time></trkpt><trkpt lat="46.146118098952314" lon="12.984973396449242"><ele>164.0</ele><time>2026-04-06T07:54:30.999Z</time></trkpt><trkpt lat="46.145987596702426" lon="12.984765107647101"><ele>164.33333333333331</ele><time>2026-04-06T07:54:31.999Z</time></trkpt><trkpt lat="46.145866491916436" lon="12.984536289208048"><ele>164.66666666666666</ele><time>2026-04-06T07:54:32.999Z</time></trkpt><trkpt lat="46.14575815027438" lon="12.984296121254003"><ele>165.0</ele><time>2026-04-06T07:54:33.999Z</time></trkpt><trkpt lat="46.14566490198495" lon="12.984045036896099"><ele>165.0</ele><time>2026-04-06T07:54:34.999Z</time></trkpt><trkpt lat="46.14558934591676" lon="12.98378423981784"><ele>165.0</ele><time>2026-04-06T07:54:35.999Z</time></trkpt><trkpt lat="46.145527787715935" lon="12.98352007592929"><ele>165.0</ele><time>2026-04-06T07:54:36.999Z</time></trkpt><trkpt lat="46.145471750532174" lon="12.983260287050234"><ele>165.0</ele><time>2026-04-06T07:54:37.999Z</time></trkpt><trkpt lat="46.14541777852927" lon="12.983005992534437"><ele>165.0</ele><time>2026-04-06T07:54:38.999Z</time></trkpt><trkpt lat="46.14536444242349" lon="12.982756073289496"><ele>165.0</ele><time>2026-04-06T07:54:39.999Z</time></trkpt><trkpt lat="46.14531043197873" lon="12.982509503446162"><ele>164.66666666666666</ele><time>2026-04-06T07:54:40.999Z</time></trkpt><trkpt lat="46.14525499015097" lon="12.982264642206331"><ele>164.33333333333331</ele><time>2026-04-06T07:54:41.999Z</time></trkpt><trkpt lat="46.14519545271363" lon="12.982014371708544"><ele>164.0</ele><time>2026-04-06T07:54:42.999Z</time></trkpt><trkpt lat="46.145131409214734" lon="12.981757955002715"><ele>164.33333333333331</ele><time>2026-04-06T07:54:43.999Z</time></trkpt><trkpt lat="46.1450611409883" lon="12.981501679457814"><ele>164.66666666666666</ele><time>2026-04-06T07:54:44.999Z</time></trkpt><trkpt lat="46.144984221101765" lon="12.981249987867347"><ele>165.0</ele><time>2026-04-06T07:54:45.999Z</time></trkpt><trkpt lat="46.14489948856095" lon="12.981003921478576"><ele>163.66666666666666</ele><time>2026-04-06T07:54:46.999Z</time></trkpt><trkpt lat="46.14480990843232" lon="12.98076263799669"><ele>162.33333333333331</ele><time>2026-04-06T07:54:47.999Z</time></trkpt><trkpt lat="46.14472099419425" lon="12.9805293720759"><ele>161.0</ele><time>2026-04-06T07:54:48.999Z</time></trkpt><trkpt lat="46.14463369098137" lon="12.980312663520623"><ele>161.0</ele><time>2026-04-06T07:54:49.999Z</time></trkpt><trkpt lat="46.14455102287797" lon="12.980117769935498"><ele>161.0</ele><time>2026-04-06T07:54:50.999Z</time></trkpt><trkpt lat="46.14446526348559" lon="12.979919259785083"><ele>161.0</ele><time>2026-04-06T07:54:51.999Z</time></trkpt><trkpt lat="46.14437428260696" lon="12.979724016404388"><ele>161.0</ele><time>2026-04-06T07:54:52.999Z</time></trkpt><trkpt lat="46.144288109135815" lon="12.979546365118795"><ele>161.0</ele><time>2026-04-06T07:54:53.999Z</time></trkpt><trkpt lat="46.14420447283909" lon="12.979373117403913"><ele>161.0</ele><time>2026-04-06T07:54:54.999Z</time></trkpt><trkpt lat="46.14411837827363" lon="12.979197953926187"><ele>161.0</ele><time>2026-04-06T07:54:55.999Z</time></trkpt><trkpt lat="46.144032869281546" lon="12.979028434367002"><ele>160.66666666666666</ele><time>2026-04-06T07:54:56.999Z</time></trkpt><trkpt lat="46.14394555949907" lon="12.978860675337028"><ele>160.33333333333334</ele><time>2026-04-06T07:54:57.999Z</time></trkpt><trkpt lat="46.14384833898422" lon="12.978689501659987"><ele>160.0</ele><time>2026-04-06T07:54:58.999Z</time></trkpt><trkpt lat="46.14373661657975" lon="12.978522746885915"><ele>160.0</ele><time>2026-04-06T07:54:59.999Z</time></trkpt><trkpt lat="46.14361596047932" lon="12.978364659887536"><ele>160.0</ele><time>2026-04-06T07:55:00.999Z</time></trkpt><trkpt lat="46.143475681716865" lon="12.978219104183632"><ele>160.0</ele><time>2026-04-06T07:55:01.999Z</time></trkpt><trkpt lat="46.14332444306451" lon="12.978081015627218"><ele>160.33333333333334</ele><time>2026-04-06T07:55:02.999Z</time></trkpt><trkpt lat="46.14316925491592" lon="12.977955360438077"><ele>160.66666666666666</ele><time>2026-04-06T07:55:03.999Z</time></trkpt><trkpt lat="46.14301458104047" lon="12.97783449726441"><ele>161.0</ele><time>2026-04-06T07:55:04.999Z</time></trkpt><trkpt lat="46.142865023475395" lon="12.977716203325596"><ele>161.0</ele><time>2026-04-06T07:55:05.999Z</time></trkpt><trkpt lat="46.142727178972386" lon="12.97760810589262"><ele>161.0</ele><time>2026-04-06T07:55:06.999Z</time></trkpt><trkpt lat="46.142597255564326" lon="12.97750031428287"><ele>161.0</ele><time>2026-04-06T07:55:07.999Z</time></trkpt><trkpt lat="46.14247022702298" lon="12.977392561476112"><ele>160.0</ele><time>2026-04-06T07:55:08.999Z</time></trkpt><trkpt lat="46.14233603452378" lon="12.977283443968865"><ele>159.0</ele><time>2026-04-06T07:55:09.999Z</time></trkpt><trkpt lat="46.14219248572697" lon="12.97716302948815"><ele>158.0</ele><time>2026-04-06T07:55:10.999Z</time></trkpt><trkpt lat="46.14204800026898" lon="12.977037806156092"><ele>158.0</ele><time>2026-04-06T07:55:11.999Z</time></trkpt><trkpt lat="46.14190232995185" lon="12.976910322729388"><ele>158.0</ele><time>2026-04-06T07:55:12.999Z</time></trkpt><trkpt lat="46.14175050206457" lon="12.976781707772696"><ele>158.0</ele><time>2026-04-06T07:55:13.999Z</time></trkpt><trkpt lat="46.141588612759406" lon="12.976648180869836"><ele>158.33333333333331</ele><time>2026-04-06T07:55:14.999Z</time></trkpt><trkpt lat="46.14142251782843" lon="12.976512337618596"><ele>158.66666666666666</ele><time>2026-04-06T07:55:15.999Z</time></trkpt><trkpt lat="46.141252462122985" lon="12.97637502263444"><ele>159.0</ele><time>2026-04-06T07:55:16.999Z</time></trkpt><trkpt lat="46.14107466196971" lon="12.976235293888317"><ele>159.0</ele><time>2026-04-06T07:55:17.999Z</time></trkpt><trkpt lat="46.140887137621405" lon="12.976091432541187"><ele>159.0</ele><time>2026-04-06T07:55:18.999Z</time></trkpt><trkpt lat="46.14070668533492" lon="12.975941538671268"><ele>159.0</ele><time>2026-04-06T07:55:19.999Z</time></trkpt><trkpt lat="46.14053572422245" lon="12.97578533530825"><ele>158.0</ele><time>2026-04-06T07:55:20.999Z</time></trkpt><trkpt lat="46.14036867462428" lon="12.975627910917689"><ele>157.0</ele><time>2026-04-06T07:55:21.999Z</time></trkpt><trkpt lat="46.14020570281972" lon="12.9754690708555"><ele>156.0</ele><time>2026-04-06T07:55:22.999Z</time></trkpt><trkpt lat="46.14004446416652" lon="12.975307351845364"><ele>156.0</ele><time>2026-04-06T07:55:23.999Z</time></trkpt><trkpt lat="46.13988122814499" lon="12.975144373521575"><ele>156.0</ele><time>2026-04-06T07:55:24.999Z</time></trkpt><trkpt lat="46.139714013099464" lon="12.974978902863251"><ele>156.0</ele><time>2026-04-06T07:55:25.999Z</time></trkpt><trkpt lat="46.13954525343005" lon="12.97481187474276"><ele>156.0</ele><time>2026-04-06T07:55:26.999Z</time></trkpt><trkpt lat="46.13937981569982" lon="12.974647652942588"><ele>156.0</ele><time>2026-04-06T07:55:27.999Z</time></trkpt><trkpt lat="46.13921511114523" lon="12.97448628039303"><ele>156.0</ele><time>2026-04-06T07:55:28.999Z</time></trkpt><trkpt lat="46.13905209020909" lon="12.97432654284911"><ele>155.0</ele><time>2026-04-06T07:55:29.999Z</time></trkpt><trkpt lat="46.13889365129676" lon="12.974169489692102"><ele>154.0</ele><time>2026-04-06T07:55:30.999Z</time></trkpt><trkpt lat="46.13873313202937" lon="12.974008792335555"><ele>153.0</ele><time>2026-04-06T07:55:31.999Z</time></trkpt><trkpt lat="46.13857118200301" lon="12.973849250372819"><ele>153.0</ele><time>2026-04-06T07:55:32.999Z</time></trkpt><trkpt lat="46.13840727320305" lon="12.973693695698756"><ele>153.0</ele><time>2026-04-06T07:55:33.999Z</time></trkpt><trkpt lat="46.138245916670535" lon="12.97355542507921"><ele>153.0</ele><time>2026-04-06T07:55:34.999Z</time></trkpt><trkpt lat="46.13808915229813" lon="12.97343873494982"><ele>153.66666666666666</ele><time>2026-04-06T07:55:35.999Z</time></trkpt><trkpt lat="46.13794210401385" lon="12.973338621689933"><ele>154.33333333333331</ele><time>2026-04-06T07:55:36.999Z</time></trkpt><trkpt lat="46.13779882109293" lon="12.973244513901157"><ele>155.0</ele><time>2026-04-06T07:55:38Z</time></trkpt><trkpt lat="46.13765715310054" lon="12.973152274712326"><ele>155.0</ele><time>2026-04-06T07:55:39Z</time></trkpt><trkpt lat="46.13751071385761" lon="12.973054541643863"><ele>155.0</ele><time>2026-04-06T07:55:40Z</time></trkpt><trkpt lat="46.13736004685868" lon="12.97295559948181"><ele>155.0</ele><time>2026-04-06T07:55:41Z</time></trkpt><trkpt lat="46.13720262398849" lon="12.972852682496946"><ele>155.0</ele><time>2026-04-06T07:55:42Z</time></trkpt><trkpt lat="46.13704002087461" lon="12.972748131610103"><ele>155.0</ele><time>2026-04-06T07:55:43Z</time></trkpt><trkpt lat="46.13688044003803" lon="12.97264704566009"><ele>155.0</ele><time>2026-04-06T07:55:44Z</time></trkpt><trkpt lat="46.136725219203" lon="12.972551050659208"><ele>155.33333333333331</ele><time>2026-04-06T07:55:45Z</time></trkpt><trkpt lat="46.13657525977171" lon="12.972459056246976"><ele>155.66666666666666</ele><time>2026-04-06T07:55:46Z</time></trkpt><trkpt lat="46.1364325249402" lon="12.972368933050753"><ele>156.0</ele><time>2026-04-06T07:55:47Z</time></trkpt><trkpt lat="46.13629566645497" lon="12.97228584993603"><ele>156.0</ele><time>2026-04-06T07:55:48Z</time></trkpt><trkpt lat="46.13615296648051" lon="12.972199415139992"><ele>156.0</ele><time>2026-04-06T07:55:49Z</time></trkpt><trkpt lat="46.13601235042482" lon="12.972115498251517"><ele>156.0</ele><time>2026-04-06T07:55:50Z</time></trkpt><trkpt lat="46.135872057952284" lon="12.972033352769149"><ele>156.0</ele><time>2026-04-06T07:55:51Z</time></trkpt><trkpt lat="46.13573037697696" lon="12.971951843628041"><ele>156.0</ele><time>2026-04-06T07:55:52Z</time></trkpt><trkpt lat="46.135589886714854" lon="12.971870929008261"><ele>156.0</ele><time>2026-04-06T07:55:53Z</time></trkpt><trkpt lat="46.13545079881219" lon="12.971792562286682"><ele>155.5</ele><time>2026-04-06T07:55:54Z</time></trkpt><trkpt lat="46.13531187609496" lon="12.971717447844167"><ele>155.0</ele><time>2026-04-06T07:55:55Z</time></trkpt><trkpt lat="46.13517338128321" lon="12.971642962067106"><ele>154.5</ele><time>2026-04-06T07:55:56Z</time></trkpt><trkpt lat="46.135033049601184" lon="12.971567634393283"><ele>154.0</ele><time>2026-04-06T07:55:57Z</time></trkpt><trkpt lat="46.13489079441444" lon="12.971493424456188"><ele>153.5</ele><time>2026-04-06T07:55:58Z</time></trkpt><trkpt lat="46.13475014306492" lon="12.971421126038187"><ele>153.0</ele><time>2026-04-06T07:55:59Z</time></trkpt><trkpt lat="46.13461082429801" lon="12.971350199639435"><ele>152.5</ele><time>2026-04-06T07:56:00Z</time></trkpt><trkpt lat="46.13447583193812" lon="12.971283085630768"><ele>152.0</ele><time>2026-04-06T07:56:01Z</time></trkpt><trkpt lat="46.13434352992217" lon="12.971217797304558"><ele>152.0</ele><time>2026-04-06T07:56:02Z</time></trkpt><trkpt lat="46.13421065623914" lon="12.971151520726817"><ele>152.0</ele><time>2026-04-06T07:56:03Z</time></trkpt><trkpt lat="46.13407779197069" lon="12.97108794001871"><ele>152.0</ele><time>2026-04-06T07:56:04Z</time></trkpt><trkpt lat="46.1339384190033" lon="12.971020383876164"><ele>152.0</ele><time>2026-04-06T07:56:05Z</time></trkpt><trkpt lat="46.133789046055426" lon="12.97094849005935"><ele>152.0</ele><time>2026-04-06T07:56:06Z</time></trkpt><trkpt lat="46.13362796311321" lon="12.970873317080045"><ele>152.0</ele><time>2026-04-06T07:56:06.999Z</time></trkpt><trkpt lat="46.13346553626513" lon="12.970796945321236"><ele>152.0</ele><time>2026-04-06T07:56:07.999Z</time></trkpt><trkpt lat="46.1332974186944" lon="12.97071937530183"><ele>152.33333333333331</ele><time>2026-04-06T07:56:08.999Z</time></trkpt><trkpt lat="46.13313103427181" lon="12.970644728247366"><ele>152.66666666666666</ele><time>2026-04-06T07:56:09.999Z</time></trkpt><trkpt lat="46.13298007478891" lon="12.970573981852663"><ele>153.0</ele><time>2026-04-06T07:56:10.999Z</time></trkpt><trkpt lat="46.13282614421475" lon="12.970500693559886"><ele>153.0</ele><time>2026-04-06T07:56:11.999Z</time></trkpt><trkpt lat="46.132667677012705" lon="12.970421645735668"><ele>153.0</ele><time>2026-04-06T07:56:12.999Z</time></trkpt><trkpt lat="46.13250620332485" lon="12.970327877891803"><ele>153.0</ele><time>2026-04-06T07:56:13.999Z</time></trkpt><trkpt lat="46.13234257971328" lon="12.970232076922164"><ele>153.0</ele><time>2026-04-06T07:56:14.999Z</time></trkpt><trkpt lat="46.132175605267996" lon="12.970136747080852"><ele>153.0</ele><time>2026-04-06T07:56:15.999Z</time></trkpt><trkpt lat="46.13200716946039" lon="12.970039982661774"><ele>153.0</ele><time>2026-04-06T07:56:16.999Z</time></trkpt><trkpt lat="46.131841678082544" lon="12.969940814836322"><ele>153.0</ele><time>2026-04-06T07:56:17.999Z</time></trkpt><trkpt lat="46.13167839537303" lon="12.969843696480577"><ele>153.0</ele><time>2026-04-06T07:56:18.999Z</time></trkpt><trkpt lat="46.131516718387836" lon="12.969747762774468"><ele>153.0</ele><time>2026-04-06T07:56:19.999Z</time></trkpt><trkpt lat="46.131356114766916" lon="12.969654347753927"><ele>151.66666666666666</ele><time>2026-04-06T07:56:20.999Z</time></trkpt><trkpt lat="46.13119022023657" lon="12.969555724033201"><ele>150.33333333333331</ele><time>2026-04-06T07:56:21.999Z</time></trkpt><trkpt lat="46.13101417656963" lon="12.969450649598205"><ele>149.0</ele><time>2026-04-06T07:56:22.999Z</time></trkpt><trkpt lat="46.13082918134614" lon="12.969339140987307"><ele>149.0</ele><time>2026-04-06T07:56:23.999Z</time></trkpt><trkpt lat="46.13064258673382" lon="12.9692233120694"><ele>149.0</ele><time>2026-04-06T07:56:24.999Z</time></trkpt><trkpt lat="46.13046222199757" lon="12.969110325767954"><ele>149.0</ele><time>2026-04-06T07:56:25.999Z</time></trkpt><trkpt lat="46.13028466947381" lon="12.968997222701777"><ele>149.0</ele><time>2026-04-06T07:56:26.999Z</time></trkpt><trkpt lat="46.130109955003014" lon="12.968887672923824"><ele>149.0</ele><time>2026-04-06T07:56:27.999Z</time></trkpt><trkpt lat="46.12992772334195" lon="12.968775132057813"><ele>149.0</ele><time>2026-04-06T07:56:28.999Z</time></trkpt><trkpt lat="46.12973784217637" lon="12.968657807354237"><ele>149.0</ele><time>2026-04-06T07:56:29.999Z</time></trkpt><trkpt lat="46.12953905853439" lon="12.968531764094475"><ele>149.0</ele><time>2026-04-06T07:56:30.999Z</time></trkpt><trkpt lat="46.129325109379465" lon="12.968397553395473"><ele>149.5</ele><time>2026-04-06T07:56:31.999Z</time></trkpt><trkpt lat="46.12910372625974" lon="12.96823947960722"><ele>150.0</ele><time>2026-04-06T07:56:32.999Z</time></trkpt><trkpt lat="46.128853598263234" lon="12.968084706093272"><ele>150.0</ele><time>2026-04-06T07:56:33.999Z</time></trkpt><trkpt lat="46.128589448306975" lon="12.9679212561171"><ele>150.0</ele><time>2026-04-06T07:56:34.999Z</time></trkpt><trkpt lat="46.12834114052314" lon="12.967768705144202"><ele>148.5</ele><time>2026-04-06T07:56:35.999Z</time></trkpt><trkpt lat="46.12811607743794" lon="12.967637127107214"><ele>147.0</ele><time>2026-04-06T07:56:36.999Z</time></trkpt><trkpt lat="46.12790787626969" lon="12.967542959669984"><ele>147.0</ele><time>2026-04-06T07:56:37.999Z</time></trkpt><trkpt lat="46.127722381241675" lon="12.96743669713623"><ele>147.0</ele><time>2026-04-06T07:56:38.999Z</time></trkpt><trkpt lat="46.127549913382204" lon="12.967342318687795"><ele>147.0</ele><time>2026-04-06T07:56:39.999Z</time></trkpt><trkpt lat="46.12738000143983" lon="12.967251607421648"><ele>147.66666666666666</ele><time>2026-04-06T07:56:40.999Z</time></trkpt><trkpt lat="46.12723220675816" lon="12.967171532708006"><ele>148.33333333333331</ele><time>2026-04-06T07:56:41.999Z</time></trkpt><trkpt lat="46.12708745887411" lon="12.96709433403842"><ele>149.0</ele><time>2026-04-06T07:56:42.999Z</time></trkpt><trkpt lat="46.12695390234669" lon="12.967024500821235"><ele>149.0</ele><time>2026-04-06T07:56:43.999Z</time></trkpt><trkpt lat="46.12682298105879" lon="12.966952751674594"><ele>149.0</ele><time>2026-04-06T07:56:44.999Z</time></trkpt><trkpt lat="46.12668394041152" lon="12.966876637138096"><ele>149.0</ele><time>2026-04-06T07:56:45.999Z</time></trkpt><trkpt lat="46.126542622409005" lon="12.966799156231396"><ele>149.0</ele><time>2026-04-06T07:56:46.999Z</time></trkpt><trkpt lat="46.12639932945104" lon="12.966721445857976"><ele>148.0</ele><time>2026-04-06T07:56:47.999Z</time></trkpt><trkpt lat="46.126251085837026" lon="12.966641461006276"><ele>147.0</ele><time>2026-04-06T07:56:48.999Z</time></trkpt><trkpt lat="46.12610125122647" lon="12.966556079015902"><ele>146.0</ele><time>2026-04-06T07:56:49.999Z</time></trkpt><trkpt lat="46.12595369915262" lon="12.96646301396126"><ele>146.0</ele><time>2026-04-06T07:56:50.999Z</time></trkpt><trkpt lat="46.125801274056265" lon="12.966361868849432"><ele>146.0</ele><time>2026-04-06T07:56:51.999Z</time></trkpt><trkpt lat="46.12564362467177" lon="12.966247004284726"><ele>146.0</ele><time>2026-04-06T07:56:52.999Z</time></trkpt><trkpt lat="46.12548994985503" lon="12.966081627722074"><ele>145.0</ele><time>2026-04-06T07:56:53.999Z</time></trkpt><trkpt lat="46.125304667462025" lon="12.965878216180382"><ele>144.0</ele><time>2026-04-06T07:56:54.999Z</time></trkpt><trkpt lat="46.12510672975233" lon="12.965623087081536"><ele>144.0</ele><time>2026-04-06T07:56:55.999Z</time></trkpt><trkpt lat="46.12489776012787" lon="12.965326739709118"><ele>144.0</ele><time>2026-04-06T07:56:56.999Z</time></trkpt><trkpt lat="46.12471765492518" lon="12.965068595569994"><ele>143.66666666666666</ele><time>2026-04-06T07:56:57.999Z</time></trkpt><trkpt lat="46.12456046112369" lon="12.964841139686458"><ele>143.33333333333331</ele><time>2026-04-06T07:56:58.999Z</time></trkpt><trkpt lat="46.12443240945264" lon="12.964655851819026"><ele>143.0</ele><time>2026-04-06T07:56:59.999Z</time></trkpt><trkpt lat="46.12431541203787" lon="12.964486559112647"><ele>143.0</ele><time>2026-04-06T07:57:00.999Z</time></trkpt><trkpt lat="46.12419140893071" lon="12.964339504424439"><ele>143.0</ele><time>2026-04-06T07:57:01.999Z</time></trkpt><trkpt lat="46.124075312123" lon="12.96417032219107"><ele>143.0</ele><time>2026-04-06T07:57:02.999Z</time></trkpt><trkpt lat="46.12395520284387" lon="12.96400391945582"><ele>143.66666666666666</ele><time>2026-04-06T07:57:03.999Z</time></trkpt><trkpt lat="46.123829002280274" lon="12.963849129476495"><ele>144.33333333333334</ele><time>2026-04-06T07:57:04.999Z</time></trkpt><trkpt lat="46.12369572520084" lon="12.963708901485317"><ele>145.0</ele><time>2026-04-06T07:57:05.999Z</time></trkpt><trkpt lat="46.12355427945569" lon="12.963579504919048"><ele>145.0</ele><time>2026-04-06T07:57:06.999Z</time></trkpt><trkpt lat="46.12340342963316" lon="12.96345743942431"><ele>145.0</ele><time>2026-04-06T07:57:07.999Z</time></trkpt><trkpt lat="46.123249700779844" lon="12.963349574681613"><ele>145.0</ele><time>2026-04-06T07:57:08.999Z</time></trkpt><trkpt lat="46.12309170048964" lon="12.963252703099135"><ele>145.0</ele><time>2026-04-06T07:57:09.999Z</time></trkpt><trkpt lat="46.12293301990249" lon="12.963160712399375"><ele>145.0</ele><time>2026-04-06T07:57:10.999Z</time></trkpt><trkpt lat="46.122775270374255" lon="12.963066993908946"><ele>145.0</ele><time>2026-04-06T07:57:11.999Z</time></trkpt><trkpt lat="46.12261788371259" lon="12.962976581361414"><ele>145.0</ele><time>2026-04-06T07:57:12.999Z</time></trkpt><trkpt lat="46.122458530395456" lon="12.962886861376138"><ele>145.0</ele><time>2026-04-06T07:57:13.999Z</time></trkpt><trkpt lat="46.12230204036309" lon="12.9627966857825"><ele>145.0</ele><time>2026-04-06T07:57:14.999Z</time></trkpt><trkpt lat="46.122150374322814" lon="12.962708825586338"><ele>144.66666666666669</ele><time>2026-04-06T07:57:15.999Z</time></trkpt><trkpt lat="46.12200161673055" lon="12.962621895368128"><ele>144.33333333333334</ele><time>2026-04-06T07:57:16.999Z</time></trkpt><trkpt lat="46.12185178605743" lon="12.962534266244447"><ele>144.0</ele><time>2026-04-06T07:57:17.999Z</time></trkpt><trkpt lat="46.121693569772226" lon="12.962441509177866"><ele>143.33333333333334</ele><time>2026-04-06T07:57:18.999Z</time></trkpt><trkpt lat="46.12153501291806" lon="12.962348189512584"><ele>142.66666666666669</ele><time>2026-04-06T07:57:19.999Z</time></trkpt><trkpt lat="46.1213743182756" lon="12.96225511986934"><ele>142.0</ele><time>2026-04-06T07:57:20.999Z</time></trkpt><trkpt lat="46.12121763182533" lon="12.962166007452808"><ele>142.0</ele><time>2026-04-06T07:57:21.999Z</time></trkpt><trkpt lat="46.121061588875364" lon="12.962075372862662"><ele>142.0</ele><time>2026-04-06T07:57:22.999Z</time></trkpt><trkpt lat="46.12090344530775" lon="12.961984258386"><ele>142.0</ele><time>2026-04-06T07:57:23.999Z</time></trkpt><trkpt lat="46.12074860428258" lon="12.961896168307426"><ele>141.33333333333334</ele><time>2026-04-06T07:57:24.999Z</time></trkpt><trkpt lat="46.12060197977816" lon="12.961811945201113"><ele>140.66666666666666</ele><time>2026-04-06T07:57:25.999Z</time></trkpt><trkpt lat="46.12046524294759" lon="12.961730499451154"><ele>140.0</ele><time>2026-04-06T07:57:26.999Z</time></trkpt><trkpt lat="46.12033076992383" lon="12.961651544396583"><ele>140.0</ele><time>2026-04-06T07:57:27.999Z</time></trkpt><trkpt lat="46.12019887923525" lon="12.961574032422796"><ele>140.0</ele><time>2026-04-06T07:57:28.999Z</time></trkpt><trkpt lat="46.12007450970311" lon="12.961500358960858"><ele>140.0</ele><time>2026-04-06T07:57:29.999Z</time></trkpt><trkpt lat="46.11996360286802" lon="12.961431548781263"><ele>140.0</ele><time>2026-04-06T07:57:30.999Z</time></trkpt><trkpt lat="46.11986347583223" lon="12.961370418413468"><ele>140.2</ele><time>2026-04-06T07:57:31.999Z</time></trkpt><trkpt lat="46.11977380132032" lon="12.961313821420545"><ele>140.4</ele><time>2026-04-06T07:57:32.999Z</time></trkpt><trkpt lat="46.119696497472816" lon="12.961262771601534"><ele>140.6</ele><time>2026-04-06T07:57:33.999Z</time></trkpt><trkpt lat="46.11963072908285" lon="12.961214696845753"><ele>140.8</ele><time>2026-04-06T07:57:34.999Z</time></trkpt><trkpt lat="46.11957408868574" lon="12.961168579166445"><ele>141.0</ele><time>2026-04-06T07:57:35.999Z</time></trkpt><trkpt lat="46.11948524858925" lon="12.96101907298951"><ele>141.0</ele><time>2026-04-06T07:57:37.999Z</time></trkpt><trkpt lat="46.119425610500016" lon="12.960947021123577"><ele>141.0</ele><time>2026-04-06T07:57:38.999Z</time></trkpt><trkpt lat="46.11934399743727" lon="12.960900273673442"><ele>141.0</ele><time>2026-04-06T07:57:39.999Z</time></trkpt><trkpt lat="46.11923006236465" lon="12.960891318995083"><ele>141.0</ele><time>2026-04-06T07:57:40.999Z</time></trkpt><trkpt lat="46.11910841947604" lon="12.960869025733198"><ele>141.0</ele><time>2026-04-06T07:57:41.999Z</time></trkpt><trkpt lat="46.11898398826098" lon="12.96079356397609"><ele>140.5</ele><time>2026-04-06T07:57:42.999Z</time></trkpt><trkpt lat="46.1188620629419" lon="12.960699637765718"><ele>140.0</ele><time>2026-04-06T07:57:44Z</time></trkpt><trkpt lat="46.11874040981427" lon="12.960607501778231"><ele>139.5</ele><time>2026-04-06T07:57:45Z</time></trkpt><trkpt lat="46.118604713770004" lon="12.9605029445355"><ele>139.0</ele><time>2026-04-06T07:57:46Z</time></trkpt><trkpt lat="46.11846369139683" lon="12.960388385745178"><ele>139.0</ele><time>2026-04-06T07:57:47Z</time></trkpt><trkpt lat="46.1183246596235" lon="12.96026963834066"><ele>139.0</ele><time>2026-04-06T07:57:48Z</time></trkpt><trkpt lat="46.11818181414964" lon="12.960152215162115"><ele>139.0</ele><time>2026-04-06T07:57:49Z</time></trkpt><trkpt lat="46.11804206360825" lon="12.960039578671049"><ele>138.75</ele><time>2026-04-06T07:57:50Z</time></trkpt><trkpt lat="46.11791685251103" lon="12.95993490860679"><ele>138.5</ele><time>2026-04-06T07:57:51Z</time></trkpt><trkpt lat="46.117789213241416" lon="12.959831753227988"><ele>138.25</ele><time>2026-04-06T07:57:52Z</time></trkpt><trkpt lat="46.11765440902069" lon="12.959721490952195"><ele>138.0</ele><time>2026-04-06T07:57:53Z</time></trkpt><trkpt lat="46.117513579397674" lon="12.95960392697345"><ele>138.0</ele><time>2026-04-06T07:57:54Z</time></trkpt><trkpt lat="46.117369217645965" lon="12.959484417952156"><ele>138.0</ele><time>2026-04-06T07:57:55Z</time></trkpt><trkpt lat="46.11722357747488" lon="12.959365352642166"><ele>138.0</ele><time>2026-04-06T07:57:56Z</time></trkpt><trkpt lat="46.117080598394075" lon="12.95925089928738"><ele>138.33333333333334</ele><time>2026-04-06T07:57:57Z</time></trkpt><trkpt lat="46.11694713861591" lon="12.959142370401178"><ele>138.66666666666669</ele><time>2026-04-06T07:57:58Z</time></trkpt><trkpt lat="46.116808797930005" lon="12.959029447157114"><ele>139.0</ele><time>2026-04-06T07:57:59Z</time></trkpt><trkpt lat="46.11666913125443" lon="12.958911684116158"><ele>138.66666666666669</ele><time>2026-04-06T07:58:00Z</time></trkpt><trkpt lat="46.116528480989594" lon="12.958793529261637"><ele>138.33333333333334</ele><time>2026-04-06T07:58:01Z</time></trkpt><trkpt lat="46.11638355717756" lon="12.958674924739286"><ele>138.0</ele><time>2026-04-06T07:58:02Z</time></trkpt><trkpt lat="46.11623399520951" lon="12.95855545816502"><ele>138.0</ele><time>2026-04-06T07:58:03Z</time></trkpt><trkpt lat="46.11607555230862" lon="12.958427943744502"><ele>138.0</ele><time>2026-04-06T07:58:04Z</time></trkpt><trkpt lat="46.11590724330832" lon="12.958289026558118"><ele>138.0</ele><time>2026-04-06T07:58:05Z</time></trkpt><trkpt lat="46.1157428123694" lon="12.958154138674807"><ele>137.33333333333334</ele><time>2026-04-06T07:58:06Z</time></trkpt><trkpt lat="46.11557871201767" lon="12.958020451238859"><ele>136.66666666666669</ele><time>2026-04-06T07:58:07Z</time></trkpt><trkpt lat="46.11541584737223" lon="12.957885503483508"><ele>136.0</ele><time>2026-04-06T07:58:07.999Z</time></trkpt><trkpt lat="46.11525439157663" lon="12.957751858026887"><ele>136.0</ele><time>2026-04-06T07:58:08.999Z</time></trkpt><trkpt lat="46.11508554908225" lon="12.957612965671247"><ele>136.0</ele><time>2026-04-06T07:58:09.999Z</time></trkpt><trkpt lat="46.11490919636969" lon="12.957470691955619"><ele>136.0</ele><time>2026-04-06T07:58:10.999Z</time></trkpt><trkpt lat="46.11473207294141" lon="12.95732369384117"><ele>136.33333333333334</ele><time>2026-04-06T07:58:11.999Z</time></trkpt><trkpt lat="46.114555090853216" lon="12.957176092799093"><ele>136.66666666666666</ele><time>2026-04-06T07:58:12.999Z</time></trkpt><trkpt lat="46.11437774627498" lon="12.957028304450949"><ele>137.0</ele><time>2026-04-06T07:58:13.999Z</time></trkpt><trkpt lat="46.11419991822316" lon="12.956882521605502"><ele>137.0</ele><time>2026-04-06T07:58:14.999Z</time></trkpt><trkpt lat="46.11402648688975" lon="12.956741498232562"><ele>137.0</ele><time>2026-04-06T07:58:15.999Z</time></trkpt><trkpt lat="46.11386076774092" lon="12.95660517443754"><ele>137.0</ele><time>2026-04-06T07:58:16.999Z</time></trkpt><trkpt lat="46.113696971367325" lon="12.956470648293159"><ele>137.0</ele><time>2026-04-06T07:58:17.999Z</time></trkpt><trkpt lat="46.11353104480902" lon="12.956333107342616"><ele>137.0</ele><time>2026-04-06T07:58:18.999Z</time></trkpt><trkpt lat="46.113362374846226" lon="12.956195327959229"><ele>137.0</ele><time>2026-04-06T07:58:19.999Z</time></trkpt><trkpt lat="46.11319256499671" lon="12.956058067050801"><ele>136.66666666666666</ele><time>2026-04-06T07:58:20.999Z</time></trkpt><trkpt lat="46.11302312288583" lon="12.955918602329328"><ele>136.33333333333334</ele><time>2026-04-06T07:58:21.999Z</time></trkpt><trkpt lat="46.112853500443755" lon="12.955777211438614"><ele>136.0</ele><time>2026-04-06T07:58:22.999Z</time></trkpt><trkpt lat="46.11268731111437" lon="12.95563924357889"><ele>136.0</ele><time>2026-04-06T07:58:23.999Z</time></trkpt><trkpt lat="46.11252580734953" lon="12.955506850945293"><ele>136.0</ele><time>2026-04-06T07:58:24.999Z</time></trkpt><trkpt lat="46.11236104292121" lon="12.955370670520596"><ele>136.0</ele><time>2026-04-06T07:58:25.999Z</time></trkpt><trkpt lat="46.11218687480247" lon="12.955227329783554"><ele>135.66666666666669</ele><time>2026-04-06T07:58:26.999Z</time></trkpt><trkpt lat="46.11200305516479" lon="12.955078965220565"><ele>135.33333333333334</ele><time>2026-04-06T07:58:27.999Z</time></trkpt><trkpt lat="46.11180249042983" lon="12.95492579384351"><ele>135.0</ele><time>2026-04-06T07:58:28.999Z</time></trkpt><trkpt lat="46.111588327791814" lon="12.954774418645263"><ele>133.5</ele><time>2026-04-06T07:58:29.999Z</time></trkpt><trkpt lat="46.111363105311696" lon="12.954625239405548"><ele>132.0</ele><time>2026-04-06T07:58:30.999Z</time></trkpt><trkpt lat="46.111134281767065" lon="12.95448322266785"><ele>132.0</ele><time>2026-04-06T07:58:31.999Z</time></trkpt><trkpt lat="46.11090840677039" lon="12.954352524518356"><ele>132.0</ele><time>2026-04-06T07:58:32.999Z</time></trkpt><trkpt lat="46.110683799508294" lon="12.954230786746482"><ele>133.5</ele><time>2026-04-06T07:58:33.999Z</time></trkpt><trkpt lat="46.11046279722021" lon="12.954116842383467"><ele>135.0</ele><time>2026-04-06T07:58:34.999Z</time></trkpt><trkpt lat="46.11024209335228" lon="12.954006976933512"><ele>135.0</ele><time>2026-04-06T07:58:35.999Z</time></trkpt><trkpt lat="46.11001501014976" lon="12.953905595214255"><ele>135.0</ele><time>2026-04-06T07:58:36.999Z</time></trkpt><trkpt lat="46.10977470993228" lon="12.953810674440513"><ele>133.5</ele><time>2026-04-06T07:58:37.999Z</time></trkpt><trkpt lat="46.109527526231275" lon="12.953716237675529"><ele>132.0</ele><time>2026-04-06T07:58:38.999Z</time></trkpt><trkpt lat="46.1092790934346" lon="12.953622427148389"><ele>131.0</ele><time>2026-04-06T07:58:39.999Z</time></trkpt><trkpt lat="46.1090358715413" lon="12.953527539310151"><ele>130.0</ele><time>2026-04-06T07:58:40.999Z</time></trkpt><trkpt lat="46.108802454068496" lon="12.953434139631941"><ele>131.0</ele><time>2026-04-06T07:58:41.999Z</time></trkpt><trkpt lat="46.10857384620743" lon="12.953344099924749"><ele>132.0</ele><time>2026-04-06T07:58:42.999Z</time></trkpt><trkpt lat="46.108348308790205" lon="12.95325832826998"><ele>132.5</ele><time>2026-04-06T07:58:43.999Z</time></trkpt><trkpt lat="46.108120577350796" lon="12.953174800846748"><ele>133.0</ele><time>2026-04-06T07:58:44.999Z</time></trkpt><trkpt lat="46.10789691912999" lon="12.953094363475167"><ele>133.0</ele><time>2026-04-06T07:58:45.999Z</time></trkpt><trkpt lat="46.107676015358756" lon="12.953022944757151"><ele>133.0</ele><time>2026-04-06T07:58:46.999Z</time></trkpt><trkpt lat="46.10744265880345" lon="12.952951973382385"><ele>132.0</ele><time>2026-04-06T07:58:47.999Z</time></trkpt><trkpt lat="46.10718868497556" lon="12.95288253672907"><ele>131.0</ele><time>2026-04-06T07:58:48.999Z</time></trkpt><trkpt lat="46.10691982960467" lon="12.952806653955626"><ele>131.0</ele><time>2026-04-06T07:58:49.999Z</time></trkpt><trkpt lat="46.10664326483615" lon="12.952729845138865"><ele>131.0</ele><time>2026-04-06T07:58:50.999Z</time></trkpt><trkpt lat="46.106379308809956" lon="12.95265831183826"><ele>130.5</ele><time>2026-04-06T07:58:51.999Z</time></trkpt><trkpt lat="46.10612727849773" lon="12.95259780357158"><ele>130.0</ele><time>2026-04-06T07:58:52.999Z</time></trkpt><trkpt lat="46.10588189896687" lon="12.952545862196219"><ele>129.0</ele><time>2026-04-06T07:58:53.999Z</time></trkpt><trkpt lat="46.10563519025376" lon="12.952501314908151"><ele>128.0</ele><time>2026-04-06T07:58:54.999Z</time></trkpt><trkpt lat="46.10539419621854" lon="12.952464023519623"><ele>128.0</ele><time>2026-04-06T07:58:55.999Z</time></trkpt><trkpt lat="46.105156501435346" lon="12.952426529291332"><ele>128.0</ele><time>2026-04-06T07:58:56.999Z</time></trkpt><trkpt lat="46.10491697957066" lon="12.952388889372681"><ele>127.5</ele><time>2026-04-06T07:58:57.999Z</time></trkpt><trkpt lat="46.10465603187601" lon="12.952351475705346"><ele>127.0</ele><time>2026-04-06T07:58:58.999Z</time></trkpt><trkpt lat="46.10436205802168" lon="12.952307704920887"><ele>127.0</ele><time>2026-04-06T07:58:59.999Z</time></trkpt><trkpt lat="46.10406336595555" lon="12.952252390084443"><ele>127.0</ele><time>2026-04-06T07:59:00.999Z</time></trkpt><trkpt lat="46.10376991077381" lon="12.9521920982014"><ele>127.0</ele><time>2026-04-06T07:59:01.999Z</time></trkpt><trkpt lat="46.10346845054177" lon="12.952135833231758"><ele>127.0</ele><time>2026-04-06T07:59:02.999Z</time></trkpt><trkpt lat="46.103125543279354" lon="12.952077203513664"><ele>127.0</ele><time>2026-04-06T07:59:03.999Z</time></trkpt><trkpt lat="46.102749556308716" lon="12.95201546144669"><ele>127.0</ele><time>2026-04-06T07:59:04.999Z</time></trkpt><trkpt lat="46.10233677887682" lon="12.951943663266468"><ele>127.0</ele><time>2026-04-06T07:59:05.999Z</time></trkpt><trkpt lat="46.101904426790114" lon="12.95186796743011"><ele>127.0</ele><time>2026-04-06T07:59:06.999Z</time></trkpt><trkpt lat="46.101457720295095" lon="12.951792530669126"><ele>127.0</ele><time>2026-04-06T07:59:07.999Z</time></trkpt><trkpt lat="46.10102302525189" lon="12.951718216930056"><ele>127.0</ele><time>2026-04-06T07:59:08.999Z</time></trkpt><trkpt lat="46.10061959445924" lon="12.951650624263582"><ele>126.5</ele><time>2026-04-06T07:59:09.999Z</time></trkpt><trkpt lat="46.10024725780609" lon="12.951589749242535"><ele>126.0</ele><time>2026-04-06T07:59:10.999Z</time></trkpt><trkpt lat="46.09989074525606" lon="12.951527518430753"><ele>125.0</ele><time>2026-04-06T07:59:11.999Z</time></trkpt><trkpt lat="46.09955075685689" lon="12.951465576307662"><ele>124.0</ele><time>2026-04-06T07:59:12.999Z</time></trkpt><trkpt lat="46.0992282689595" lon="12.951405441810103"><ele>123.5</ele><time>2026-04-06T07:59:13.999Z</time></trkpt><trkpt lat="46.098921093054685" lon="12.9513530383121"><ele>123.0</ele><time>2026-04-06T07:59:14.999Z</time></trkpt><trkpt lat="46.098631653287526" lon="12.951305674101762"><ele>123.0</ele><time>2026-04-06T07:59:15.999Z</time></trkpt><trkpt lat="46.098357803659475" lon="12.951260151160616"><ele>123.0</ele><time>2026-04-06T07:59:16.999Z</time></trkpt><trkpt lat="46.098101389409145" lon="12.951211874125798"><ele>123.0</ele><time>2026-04-06T07:59:17.999Z</time></trkpt><trkpt lat="46.097862221131095" lon="12.951168088985822"><ele>123.0</ele><time>2026-04-06T07:59:18.999Z</time></trkpt><trkpt lat="46.097623138021675" lon="12.951126055304835"><ele>121.0</ele><time>2026-04-06T07:59:19.999Z</time></trkpt><trkpt lat="46.097372492748164" lon="12.951081413255107"><ele>119.0</ele><time>2026-04-06T07:59:20.999Z</time></trkpt><trkpt lat="46.097107492679626" lon="12.951037983116102"><ele>119.0</ele><time>2026-04-06T07:59:21.999Z</time></trkpt><trkpt lat="46.096836123941166" lon="12.950991655722797"><ele>119.0</ele><time>2026-04-06T07:59:22.999Z</time></trkpt><trkpt lat="46.09656631643871" lon="12.950943480846199"><ele>119.5</ele><time>2026-04-06T07:59:23.999Z</time></trkpt><trkpt lat="46.09629585159865" lon="12.950897607962485"><ele>120.0</ele><time>2026-04-06T07:59:24.999Z</time></trkpt><trkpt lat="46.09602744719424" lon="12.950853911699769"><ele>120.0</ele><time>2026-04-06T07:59:25.999Z</time></trkpt><trkpt lat="46.09576418291447" lon="12.950808233772294"><ele>120.0</ele><time>2026-04-06T07:59:27Z</time></trkpt><trkpt lat="46.09550666559744" lon="12.950765818260122"><ele>118.5</ele><time>2026-04-06T07:59:28Z</time></trkpt><trkpt lat="46.09525462331235" lon="12.950720925219077"><ele>117.0</ele><time>2026-04-06T07:59:29Z</time></trkpt><trkpt lat="46.09500321610226" lon="12.950674632873458"><ele>116.0</ele><time>2026-04-06T07:59:30Z</time></trkpt><trkpt lat="46.094753040534215" lon="12.950633522454527"><ele>115.0</ele><time>2026-04-06T07:59:31Z</time></trkpt><trkpt lat="46.09450371042674" lon="12.950592425228043"><ele>115.0</ele><time>2026-04-06T07:59:32Z</time></trkpt><trkpt lat="46.094259336697114" lon="12.950548668105574"><ele>115.0</ele><time>2026-04-06T07:59:33Z</time></trkpt><trkpt lat="46.0940257212088" lon="12.950509382346745"><ele>114.66666666666667</ele><time>2026-04-06T07:59:34Z</time></trkpt><trkpt lat="46.09380471030321" lon="12.950470844656353"><ele>114.33333333333334</ele><time>2026-04-06T07:59:35Z</time></trkpt><trkpt lat="46.09358278902952" lon="12.950433198739976"><ele>114.0</ele><time>2026-04-06T07:59:36Z</time></trkpt><trkpt lat="46.093358121177125" lon="12.950394776393509"><ele>115.0</ele><time>2026-04-06T07:59:37Z</time></trkpt><trkpt lat="46.093131719806166" lon="12.95035481805644"><ele>116.0</ele><time>2026-04-06T07:59:38Z</time></trkpt><trkpt lat="46.09290278926677" lon="12.950316716999147"><ele>116.0</ele><time>2026-04-06T07:59:39Z</time></trkpt><trkpt lat="46.09266680326725" lon="12.950275973568637"><ele>116.0</ele><time>2026-04-06T07:59:40Z</time></trkpt><trkpt lat="46.09242848617188" lon="12.95023455963474"><ele>114.5</ele><time>2026-04-06T07:59:41Z</time></trkpt><trkpt lat="46.09218616011046" lon="12.950192985369819"><ele>113.0</ele><time>2026-04-06T07:59:42Z</time></trkpt><trkpt lat="46.091946174847344" lon="12.95015321887703"><ele>113.0</ele><time>2026-04-06T07:59:43Z</time></trkpt><trkpt lat="46.091711919345464" lon="12.950114619003276"><ele>113.0</ele><time>2026-04-06T07:59:44Z</time></trkpt><trkpt lat="46.09148201889311" lon="12.950075319634914"><ele>114.0</ele><time>2026-04-06T07:59:45Z</time></trkpt><trkpt lat="46.09125232752629" lon="12.95003703874356"><ele>115.0</ele><time>2026-04-06T07:59:46Z</time></trkpt><trkpt lat="46.091022334081984" lon="12.949997437521587"><ele>115.0</ele><time>2026-04-06T07:59:47Z</time></trkpt><trkpt lat="46.09079580246839" lon="12.949957112159408"><ele>115.0</ele><time>2026-04-06T07:59:48Z</time></trkpt><trkpt lat="46.09056370005349" lon="12.94991810194601"><ele>114.5</ele><time>2026-04-06T07:59:49Z</time></trkpt><trkpt lat="46.09033012308324" lon="12.949877213221649"><ele>114.0</ele><time>2026-04-06T07:59:50.001Z</time></trkpt><trkpt lat="46.09009991003872" lon="12.949838492392454"><ele>113.5</ele><time>2026-04-06T07:59:51.001Z</time></trkpt><trkpt lat="46.08987216921325" lon="12.949798902474619"><ele>113.0</ele><time>2026-04-06T07:59:52.001Z</time></trkpt><trkpt lat="46.08964822848701" lon="12.94975968904875"><ele>113.0</ele><time>2026-04-06T07:59:53.001Z</time></trkpt><trkpt lat="46.0894293750471" lon="12.9497195417734"><ele>113.0</ele><time>2026-04-06T07:59:54.001Z</time></trkpt><trkpt lat="46.08921347603521" lon="12.949679756161595"><ele>113.0</ele><time>2026-04-06T07:59:55.001Z</time></trkpt><trkpt lat="46.08899693817357" lon="12.949641159328165"><ele>113.0</ele><time>2026-04-06T07:59:56.001Z</time></trkpt><trkpt lat="46.088784335641364" lon="12.94960594174713"><ele>113.0</ele><time>2026-04-06T07:59:57.001Z</time></trkpt><trkpt lat="46.08858521886933" lon="12.94957179494167"><ele>113.0</ele><time>2026-04-06T07:59:58.001Z</time></trkpt><trkpt lat="46.088405024200156" lon="12.949543739488599"><ele>112.33333333333333</ele><time>2026-04-06T07:59:59.001Z</time></trkpt><trkpt lat="46.08824249281649" lon="12.94951604886625"><ele>111.66666666666666</ele><time>2026-04-06T08:00:00.001Z</time></trkpt><trkpt lat="46.08808354798977" lon="12.949487236441405"><ele>111.0</ele><time>2026-04-06T08:00:01.001Z</time></trkpt><trkpt lat="46.08791884816679" lon="12.949458630591785"><ele>111.0</ele><time>2026-04-06T08:00:02.001Z</time></trkpt><trkpt lat="46.08775766045752" lon="12.949430104835194"><ele>111.0</ele><time>2026-04-06T08:00:03.001Z</time></trkpt><trkpt lat="46.08760115984734" lon="12.949401520259837"><ele>111.0</ele><time>2026-04-06T08:00:04.001Z</time></trkpt><trkpt lat="46.087449679018206" lon="12.94937249530108"><ele>111.5</ele><time>2026-04-06T08:00:05.001Z</time></trkpt><trkpt lat="46.0873009285216" lon="12.949347595284262"><ele>112.0</ele><time>2026-04-06T08:00:06.001Z</time></trkpt><trkpt lat="46.087162850784274" lon="12.949323653120235"><ele>112.5</ele><time>2026-04-06T08:00:07.001Z</time></trkpt><trkpt lat="46.0870372172748" lon="12.949302276739958"><ele>113.0</ele><time>2026-04-06T08:00:08.001Z</time></trkpt><trkpt lat="46.08691955483292" lon="12.949280761630876"><ele>113.0</ele><time>2026-04-06T08:00:09.001Z</time></trkpt><trkpt lat="46.0867987823677" lon="12.949259149842323"><ele>113.00000000000001</ele><time>2026-04-06T08:00:10.001Z</time></trkpt><trkpt lat="46.08668047611468" lon="12.949239014424922"><ele>113.00000000000001</ele><time>2026-04-06T08:00:11Z</time></trkpt><trkpt lat="46.08657288930617" lon="12.949218352742342"><ele>113.0</ele><time>2026-04-06T08:00:12Z</time></trkpt><trkpt lat="46.08647456997485" lon="12.94919951382176"><ele>113.0</ele><time>2026-04-06T08:00:13Z</time></trkpt><trkpt lat="46.08638133442352" lon="12.949163613576047"><ele>112.80000000000001</ele><time>2026-04-06T08:00:14Z</time></trkpt><trkpt lat="46.08629325147321" lon="12.949094337294614"><ele>112.60000000000001</ele><time>2026-04-06T08:00:15Z</time></trkpt><trkpt lat="46.086217237945206" lon="12.948992940310747"><ele>112.39999999999999</ele><time>2026-04-06T08:00:16Z</time></trkpt><trkpt lat="46.08614729677738" lon="12.948875792383765"><ele>112.19999999999999</ele><time>2026-04-06T08:00:17Z</time></trkpt><trkpt lat="46.08608019038464" lon="12.948755375758031"><ele>112.0</ele><time>2026-04-06T08:00:18Z</time></trkpt><trkpt lat="46.08600806390915" lon="12.948645093558758"><ele>112.0</ele><time>2026-04-06T08:00:19Z</time></trkpt><trkpt lat="46.085921531603354" lon="12.948537598204707"><ele>112.0</ele><time>2026-04-06T08:00:20Z</time></trkpt><trkpt lat="46.08582867624065" lon="12.948402853846149"><ele>112.0</ele><time>2026-04-06T08:00:21Z</time></trkpt><trkpt lat="46.08575864277362" lon="12.94823547871038"><ele>112.0</ele><time>2026-04-06T08:00:22Z</time></trkpt><trkpt lat="46.08572463446599" lon="12.948045434298447"><ele>111.5</ele><time>2026-04-06T08:00:23Z</time></trkpt><trkpt lat="46.085760265818635" lon="12.947844248211856"><ele>111.0</ele><time>2026-04-06T08:00:24Z</time></trkpt><trkpt lat="46.08575110506937" lon="12.947638740051056"><ele>110.5</ele><time>2026-04-06T08:00:25Z</time></trkpt><trkpt lat="46.08577378299501" lon="12.947441132802638"><ele>110.0</ele><time>2026-04-06T08:00:26Z</time></trkpt><trkpt lat="46.085781253342525" lon="12.947235514219757"><ele>110.0</ele><time>2026-04-06T08:00:27Z</time></trkpt><trkpt lat="46.085789219381454" lon="12.94701625187265"><ele>110.0</ele><time>2026-04-06T08:00:28Z</time></trkpt><trkpt lat="46.08579723336218" lon="12.946795669969418"><ele>110.0</ele><time>2026-04-06T08:00:29Z</time></trkpt><trkpt lat="46.085804612390966" lon="12.94657283919536"><ele>110.0</ele><time>2026-04-06T08:00:30Z</time></trkpt><trkpt lat="46.08581109974041" lon="12.946340959289513"><ele>110.0</ele><time>2026-04-06T08:00:31Z</time></trkpt><trkpt lat="46.08581495103731" lon="12.946105192992796"><ele>110.0</ele><time>2026-04-06T08:00:32Z</time></trkpt><trkpt lat="46.0858121859483" lon="12.945863088059763"><ele>110.33333333333333</ele><time>2026-04-06T08:00:33Z</time></trkpt><trkpt lat="46.08580575648963" lon="12.94562970622388"><ele>110.66666666666666</ele><time>2026-04-06T08:00:34Z</time></trkpt><trkpt lat="46.08577879127785" lon="12.945403195898658"><ele>111.0</ele><time>2026-04-06T08:00:35Z</time></trkpt><trkpt lat="46.08576813457846" lon="12.945181346135602"><ele>111.0</ele><time>2026-04-06T08:00:36Z</time></trkpt><trkpt lat="46.08577344881239" lon="12.944963669326176"><ele>111.0</ele><time>2026-04-06T08:00:37Z</time></trkpt><trkpt lat="46.08576232906645" lon="12.944745412587382"><ele>111.0</ele><time>2026-04-06T08:00:38Z</time></trkpt><trkpt lat="46.08573499382663" lon="12.944525750966799"><ele>111.25</ele><time>2026-04-06T08:00:39Z</time></trkpt><trkpt lat="46.08572458294102" lon="12.944301532917805"><ele>111.5</ele><time>2026-04-06T08:00:40Z</time></trkpt><trkpt lat="46.08571447691493" lon="12.944082622403204"><ele>111.75</ele><time>2026-04-06T08:00:41Z</time></trkpt><trkpt lat="46.085720133285434" lon="12.943892035645774"><ele>112.0</ele><time>2026-04-06T08:00:42Z</time></trkpt><trkpt lat="46.08571270139" lon="12.943739176824359"><ele>112.0</ele><time>2026-04-06T08:00:43Z</time></trkpt><trkpt lat="46.08570751804805" lon="12.943632566105196"><ele>111.99999999999999</ele><time>2026-04-06T08:00:44Z</time></trkpt><trkpt lat="46.08568333129675" lon="12.94347754659292"><ele>111.99999999999999</ele><time>2026-04-06T08:00:46Z</time></trkpt><trkpt lat="46.08570326991366" lon="12.94330264540336"><ele>112.0</ele><time>2026-04-06T08:00:48Z</time></trkpt><trkpt lat="46.08568720237044" lon="12.94318827880764"><ele>112.0</ele><time>2026-04-06T08:00:49Z</time></trkpt><trkpt lat="46.085662468003925" lon="12.943037569229077"><ele>112.0</ele><time>2026-04-06T08:00:50Z</time></trkpt><trkpt lat="46.085636217700305" lon="12.942852748018906"><ele>112.0</ele><time>2026-04-06T08:00:51Z</time></trkpt><trkpt lat="46.08560725055132" lon="12.942648547205291"><ele>112.0</ele><time>2026-04-06T08:00:52Z</time></trkpt><trkpt lat="46.085580197493485" lon="12.942453830096728"><ele>112.0</ele><time>2026-04-06T08:00:53Z</time></trkpt><trkpt lat="46.08556858711731" lon="12.942261126963203"><ele>112.0</ele><time>2026-04-06T08:00:54Z</time></trkpt><trkpt lat="46.08553944552119" lon="12.94206289614741"><ele>112.0</ele><time>2026-04-06T08:00:55Z</time></trkpt><trkpt lat="46.085508410692114" lon="12.941861314661669"><ele>112.0</ele><time>2026-04-06T08:00:56Z</time></trkpt><trkpt lat="46.08547118955634" lon="12.941643692602483"><ele>112.0</ele><time>2026-04-06T08:00:57Z</time></trkpt><trkpt lat="46.08542353175982" lon="12.941424447511222"><ele>112.0</ele><time>2026-04-06T08:00:58Z</time></trkpt><trkpt lat="46.085359810831434" lon="12.941221479451878"><ele>112.0</ele><time>2026-04-06T08:00:59Z</time></trkpt><trkpt lat="46.08527480645281" lon="12.94105583086955"><ele>112.0</ele><time>2026-04-06T08:01:00Z</time></trkpt><trkpt lat="46.0851941516047" lon="12.940896630043158"><ele>112.0</ele><time>2026-04-06T08:01:01Z</time></trkpt><trkpt lat="46.08510998134709" lon="12.940749453751875"><ele>112.0</ele><time>2026-04-06T08:01:02Z</time></trkpt><trkpt lat="46.08504444841801" lon="12.940604979993093"><ele>112.0</ele><time>2026-04-06T08:01:03Z</time></trkpt><trkpt lat="46.084973752138104" lon="12.940471246637859"><ele>112.0</ele><time>2026-04-06T08:01:04Z</time></trkpt><trkpt lat="46.08490457527574" lon="12.940320170745693"><ele>112.0</ele><time>2026-04-06T08:01:05Z</time></trkpt><trkpt lat="46.0848655274808" lon="12.940146923572179"><ele>111.25</ele><time>2026-04-06T08:01:06Z</time></trkpt><trkpt lat="46.08484081578684" lon="12.939950340089736"><ele>110.5</ele><time>2026-04-06T08:01:07Z</time></trkpt><trkpt lat="46.08481995297131" lon="12.939737874852694"><ele>109.75</ele><time>2026-04-06T08:01:08Z</time></trkpt><trkpt lat="46.08480647028402" lon="12.9395215548286"><ele>109.0</ele><time>2026-04-06T08:01:09Z</time></trkpt><trkpt lat="46.08480181269962" lon="12.939318294308674"><ele>109.4</ele><time>2026-04-06T08:01:10Z</time></trkpt><trkpt lat="46.084799943426596" lon="12.939150014350624"><ele>109.80000000000001</ele><time>2026-04-06T08:01:11Z</time></trkpt><trkpt lat="46.08480260151918" lon="12.939008546532135"><ele>110.19999999999999</ele><time>2026-04-06T08:01:12Z</time></trkpt><trkpt lat="46.084812044462936" lon="12.938902037694263"><ele>110.6</ele><time>2026-04-06T08:01:13Z</time></trkpt><trkpt lat="46.084844686187644" lon="12.938735763471755"><ele>111.0</ele><time>2026-04-06T08:01:15Z</time></trkpt><trkpt lat="46.08486925638394" lon="12.93862040560269"><ele>111.0</ele><time>2026-04-06T08:01:17Z</time></trkpt><trkpt lat="46.08489870920189" lon="12.938476252021333"><ele>111.0</ele><time>2026-04-06T08:01:27Z</time></trkpt><trkpt lat="46.08491954497718" lon="12.93837026133828"><ele>111.0</ele><time>2026-04-06T08:01:28Z</time></trkpt><trkpt lat="46.08496496950777" lon="12.938251622032434"><ele>111.0</ele><time>2026-04-06T08:01:29Z</time></trkpt><trkpt lat="46.08501641090876" lon="12.938135383482013"><ele>111.0</ele><time>2026-04-06T08:01:30Z</time></trkpt><trkpt lat="46.0850336141879" lon="12.93797219708822"><ele>111.4</ele><time>2026-04-06T08:01:31Z</time></trkpt><trkpt lat="46.08503254342377" lon="12.937826258572787"><ele>111.8</ele><time>2026-04-06T08:01:32Z</time></trkpt><trkpt lat="46.085028998113366" lon="12.937676033961054"><ele>112.20000000000002</ele><time>2026-04-06T08:01:33Z</time></trkpt><trkpt lat="46.08502559220508" lon="12.937515118224855"><ele>112.60000000000001</ele><time>2026-04-06T08:01:34Z</time></trkpt><trkpt lat="46.08502425090221" lon="12.937349269720867"><ele>113.0</ele><time>2026-04-06T08:01:35Z</time></trkpt><trkpt lat="46.08502230933792" lon="12.937185273112563"><ele>113.0</ele><time>2026-04-06T08:01:36Z</time></trkpt><trkpt lat="46.08501817514904" lon="12.937032750979037"><ele>113.0</ele><time>2026-04-06T08:01:37Z</time></trkpt><trkpt lat="46.08499239976927" lon="12.93688720721591"><ele>113.0</ele><time>2026-04-06T08:01:38Z</time></trkpt><trkpt lat="46.084920065686546" lon="12.936748676343965"><ele>113.0</ele><time>2026-04-06T08:01:39Z</time></trkpt><trkpt lat="46.08483484830647" lon="12.936581025151698"><ele>112.0</ele><time>2026-04-06T08:01:40Z</time></trkpt><trkpt lat="46.08473266332341" lon="12.936382069198036"><ele>111.0</ele><time>2026-04-06T08:01:41Z</time></trkpt><trkpt lat="46.084632744890364" lon="12.936188346087143"><ele>110.0</ele><time>2026-04-06T08:01:42Z</time></trkpt><trkpt lat="46.084527260260266" lon="12.935984243089502"><ele>108.0</ele><time>2026-04-06T08:01:43Z</time></trkpt><trkpt lat="46.08440696871196" lon="12.935762435237718"><ele>106.0</ele><time>2026-04-06T08:01:44Z</time></trkpt><trkpt lat="46.08428626914671" lon="12.93553083713565"><ele>104.0</ele><time>2026-04-06T08:01:45Z</time></trkpt><trkpt lat="46.08417546998406" lon="12.935307157738517"><ele>104.0</ele><time>2026-04-06T08:01:46Z</time></trkpt><trkpt lat="46.084098122018545" lon="12.93507247489521"><ele>104.0</ele><time>2026-04-06T08:01:47Z</time></trkpt><trkpt lat="46.08401323748333" lon="12.934835870379919"><ele>104.0</ele><time>2026-04-06T08:01:48Z</time></trkpt><trkpt lat="46.083944422504466" lon="12.934572601155367"><ele>102.33333333333333</ele><time>2026-04-06T08:01:49Z</time></trkpt><trkpt lat="46.08389319833875" lon="12.934301724371982"><ele>100.66666666666666</ele><time>2026-04-06T08:01:50Z</time></trkpt><trkpt lat="46.0838687986177" lon="12.934029607358672"><ele>99.0</ele><time>2026-04-06T08:01:51Z</time></trkpt><trkpt lat="46.083864043453524" lon="12.933766881783262"><ele>97.66666666666667</ele><time>2026-04-06T08:01:52Z</time></trkpt><trkpt lat="46.083869744188334" lon="12.933523725434586"><ele>96.33333333333334</ele><time>2026-04-06T08:01:53Z</time></trkpt><trkpt lat="46.083883116337226" lon="12.933303464989597"><ele>95.0</ele><time>2026-04-06T08:01:54Z</time></trkpt><trkpt lat="46.083898950086315" lon="12.933109366491633"><ele>94.75</ele><time>2026-04-06T08:01:55Z</time></trkpt><trkpt lat="46.08391553444447" lon="12.932931307329024"><ele>94.5</ele><time>2026-04-06T08:01:56.001Z</time></trkpt><trkpt lat="46.083918344056656" lon="12.932764031566359"><ele>94.25</ele><time>2026-04-06T08:01:57.001Z</time></trkpt><trkpt lat="46.083952812721556" lon="12.932608543472833"><ele>94.0</ele><time>2026-04-06T08:01:58.001Z</time></trkpt><trkpt lat="46.08400027672191" lon="12.932457408218866"><ele>94.33333333333333</ele><time>2026-04-06T08:01:59.001Z</time></trkpt><trkpt lat="46.084089134934345" lon="12.93229655012936"><ele>94.66666666666667</ele><time>2026-04-06T08:02:00.001Z</time></trkpt><trkpt lat="46.084107401994046" lon="12.932059974761735"><ele>95.0</ele><time>2026-04-06T08:02:01.001Z</time></trkpt><trkpt lat="46.084169689684536" lon="12.931843853524166"><ele>95.33333333333334</ele><time>2026-04-06T08:02:02.001Z</time></trkpt><trkpt lat="46.08427003244834" lon="12.931624281159994"><ele>95.66666666666667</ele><time>2026-04-06T08:02:03.001Z</time></trkpt><trkpt lat="46.08436272146024" lon="12.931388984262545"><ele>96.0</ele><time>2026-04-06T08:02:04.001Z</time></trkpt><trkpt lat="46.084451657544854" lon="12.931155634804718"><ele>96.0</ele><time>2026-04-06T08:02:05.001Z</time></trkpt><trkpt lat="46.08452864846282" lon="12.930939377925537"><ele>96.0</ele><time>2026-04-06T08:02:06.001Z</time></trkpt><trkpt lat="46.08459814148638" lon="12.930722159762198"><ele>96.0</ele><time>2026-04-06T08:02:07.001Z</time></trkpt><trkpt lat="46.084660726094164" lon="12.930502931922973"><ele>95.66666666666667</ele><time>2026-04-06T08:02:08.001Z</time></trkpt><trkpt lat="46.084722630121874" lon="12.930283910013417"><ele>95.33333333333334</ele><time>2026-04-06T08:02:09.001Z</time></trkpt><trkpt lat="46.08478879838663" lon="12.930054043724517"><ele>95.0</ele><time>2026-04-06T08:02:10.001Z</time></trkpt><trkpt lat="46.0848555703332" lon="12.929822080319642"><ele>94.66666666666667</ele><time>2026-04-06T08:02:11.001Z</time></trkpt><trkpt lat="46.0849253298604" lon="12.92957973815228"><ele>94.33333333333333</ele><time>2026-04-06T08:02:12Z</time></trkpt><trkpt lat="46.08499905943057" lon="12.929323604194423"><ele>94.0</ele><time>2026-04-06T08:02:13Z</time></trkpt><trkpt lat="46.085076069601094" lon="12.929054910458206"><ele>93.0</ele><time>2026-04-06T08:02:14Z</time></trkpt><trkpt lat="46.08515601978364" lon="12.928775818254843"><ele>92.0</ele><time>2026-04-06T08:02:15Z</time></trkpt><trkpt lat="46.08523879624476" lon="12.928486860012892"><ele>91.0</ele><time>2026-04-06T08:02:16Z</time></trkpt><trkpt lat="46.08532376733176" lon="12.928190240853109"><ele>91.0</ele><time>2026-04-06T08:02:17Z</time></trkpt><trkpt lat="46.08540800256002" lon="12.927896190286912"><ele>91.0</ele><time>2026-04-06T08:02:18Z</time></trkpt><trkpt lat="46.08549309552901" lon="12.92759914555795"><ele>91.0</ele><time>2026-04-06T08:02:19Z</time></trkpt><trkpt lat="46.08557793042005" lon="12.927301203722939"><ele>91.0</ele><time>2026-04-06T08:02:20Z</time></trkpt><trkpt lat="46.085663600998544" lon="12.926999924159627"><ele>91.0</ele><time>2026-04-06T08:02:21Z</time></trkpt><trkpt lat="46.08574954943931" lon="12.926697667363685"><ele>90.5</ele><time>2026-04-06T08:02:22Z</time></trkpt><trkpt lat="46.085836101084595" lon="12.926393289297655"><ele>90.0</ele><time>2026-04-06T08:02:23Z</time></trkpt><trkpt lat="46.085923061324834" lon="12.926088003069601"><ele>90.0</ele><time>2026-04-06T08:02:24Z</time></trkpt><trkpt lat="46.08601105758254" lon="12.925780579885444"><ele>90.0</ele><time>2026-04-06T08:02:25Z</time></trkpt><trkpt lat="46.08609791450376" lon="12.925477137128631"><ele>90.0</ele><time>2026-04-06T08:02:26Z</time></trkpt><trkpt lat="46.08618231307265" lon="12.925182282789716"><ele>90.0</ele><time>2026-04-06T08:02:27Z</time></trkpt><trkpt lat="46.086264100756054" lon="12.924896549896756"><ele>90.0</ele><time>2026-04-06T08:02:28Z</time></trkpt><trkpt lat="46.08634325542739" lon="12.924620015543672"><ele>91.0</ele><time>2026-04-06T08:02:29Z</time></trkpt><trkpt lat="46.086421199202206" lon="12.924347711730752"><ele>92.0</ele><time>2026-04-06T08:02:30Z</time></trkpt><trkpt lat="46.08649899197909" lon="12.924075935293873"><ele>93.0</ele><time>2026-04-06T08:02:31Z</time></trkpt><trkpt lat="46.086577036345105" lon="12.92380286732867"><ele>93.0</ele><time>2026-04-06T08:02:32Z</time></trkpt><trkpt lat="46.08665441498535" lon="12.923531670937205"><ele>93.0</ele><time>2026-04-06T08:02:33Z</time></trkpt><trkpt lat="46.0867328386728" lon="12.923256811894152"><ele>93.0</ele><time>2026-04-06T08:02:34Z</time></trkpt><trkpt lat="46.08681073425148" lon="12.922983803648929"><ele>92.66666666666667</ele><time>2026-04-06T08:02:35Z</time></trkpt><trkpt lat="46.086889998477574" lon="12.922705998654843"><ele>92.33333333333334</ele><time>2026-04-06T08:02:36Z</time></trkpt><trkpt lat="46.086970210283994" lon="12.922424872599576"><ele>92.0</ele><time>2026-04-06T08:02:37Z</time></trkpt><trkpt lat="46.08705243100769" lon="12.922136705634413"><ele>92.5</ele><time>2026-04-06T08:02:38Z</time></trkpt><trkpt lat="46.087139028729766" lon="12.921833198288162"><ele>93.0</ele><time>2026-04-06T08:02:39Z</time></trkpt><trkpt lat="46.08723272551091" lon="12.921505561918588"><ele>93.0</ele><time>2026-04-06T08:02:40Z</time></trkpt><trkpt lat="46.08733287386832" lon="12.921156663713587"><ele>93.0</ele><time>2026-04-06T08:02:41Z</time></trkpt><trkpt lat="46.087437553687245" lon="12.920791978701132"><ele>92.5</ele><time>2026-04-06T08:02:42Z</time></trkpt><trkpt lat="46.087546053469936" lon="12.920413985701867"><ele>92.0</ele><time>2026-04-06T08:02:43Z</time></trkpt><trkpt lat="46.087657269667154" lon="12.920023554065468"><ele>92.0</ele><time>2026-04-06T08:02:44Z</time></trkpt><trkpt lat="46.08776924287685" lon="12.919626486928017"><ele>92.0</ele><time>2026-04-06T08:02:45Z</time></trkpt><trkpt lat="46.08788208625331" lon="12.91922762588407"><ele>93.0</ele><time>2026-04-06T08:02:46Z</time></trkpt><trkpt lat="46.08799598409549" lon="12.918830874493022"><ele>94.0</ele><time>2026-04-06T08:02:47Z</time></trkpt><trkpt lat="46.088106647949665" lon="12.918444474728739"><ele>94.5</ele><time>2026-04-06T08:02:48Z</time></trkpt><trkpt lat="46.08821242834869" lon="12.91807324971213"><ele>95.0</ele><time>2026-04-06T08:02:49Z</time></trkpt><trkpt lat="46.08831836318964" lon="12.917701445691224"><ele>95.0</ele><time>2026-04-06T08:02:50Z</time></trkpt><trkpt lat="46.088423912127276" lon="12.917330996082887"><ele>95.0</ele><time>2026-04-06T08:02:51Z</time></trkpt><trkpt lat="46.08852867295712" lon="12.916963501806592"><ele>94.0</ele><time>2026-04-06T08:02:52Z</time></trkpt><trkpt lat="46.088632763527364" lon="12.916598645723012"><ele>93.0</ele><time>2026-04-06T08:02:53Z</time></trkpt><trkpt lat="46.088735239119636" lon="12.916239450391206"><ele>93.0</ele><time>2026-04-06T08:02:54Z</time></trkpt><trkpt lat="46.088836734223655" lon="12.915883691857886"><ele>93.0</ele><time>2026-04-06T08:02:55Z</time></trkpt><trkpt lat="46.08893809988462" lon="12.915528387072538"><ele>93.0</ele><time>2026-04-06T08:02:56Z</time></trkpt><trkpt lat="46.08903916889234" lon="12.91517412207999"><ele>93.0</ele><time>2026-04-06T08:02:57Z</time></trkpt><trkpt lat="46.08913965155711" lon="12.91482191234947"><ele>94.0</ele><time>2026-04-06T08:02:58Z</time></trkpt><trkpt lat="46.08923868528213" lon="12.914474503909336"><ele>95.0</ele><time>2026-04-06T08:02:59Z</time></trkpt><trkpt lat="46.08933670296601" lon="12.914130200897501"><ele>95.0</ele><time>2026-04-06T08:03:00Z</time></trkpt><trkpt lat="46.08943455098618" lon="12.913788937000934"><ele>95.0</ele><time>2026-04-06T08:03:01Z</time></trkpt><trkpt lat="46.08953201321419" lon="12.91344993609664"><ele>95.0</ele><time>2026-04-06T08:03:02Z</time></trkpt><trkpt lat="46.089627399679024" lon="12.913116180799694"><ele>95.0</ele><time>2026-04-06T08:03:03Z</time></trkpt><trkpt lat="46.08972050926318" lon="12.912787099909538"><ele>94.5</ele><time>2026-04-06T08:03:04Z</time></trkpt><trkpt lat="46.08980948193883" lon="12.91245929026563"><ele>94.0</ele><time>2026-04-06T08:03:05Z</time></trkpt><trkpt lat="46.08989189486875" lon="12.912136443100964"><ele>94.0</ele><time>2026-04-06T08:03:06Z</time></trkpt><trkpt lat="46.08995816290242" lon="12.911822801652502"><ele>94.0</ele><time>2026-04-06T08:03:07Z</time></trkpt><trkpt lat="46.09003601371684" lon="12.911540540895448"><ele>94.0</ele><time>2026-04-06T08:03:08Z</time></trkpt><trkpt lat="46.090110522751694" lon="12.911273382829522"><ele>93.66666666666666</ele><time>2026-04-06T08:03:09Z</time></trkpt><trkpt lat="46.0901988669078" lon="12.911043333884214"><ele>93.33333333333333</ele><time>2026-04-06T08:03:10Z</time></trkpt><trkpt lat="46.090274927725424" lon="12.910829419352343"><ele>93.0</ele><time>2026-04-06T08:03:11Z</time></trkpt><trkpt lat="46.09035553710117" lon="12.910618999124381"><ele>92.75</ele><time>2026-04-06T08:03:12Z</time></trkpt><trkpt lat="46.090422472473065" lon="12.910422869321895"><ele>92.5</ele><time>2026-04-06T08:03:13Z</time></trkpt><trkpt lat="46.09050340749759" lon="12.910255342981474"><ele>92.25</ele><time>2026-04-06T08:03:14Z</time></trkpt><trkpt lat="46.0905851073079" lon="12.910105619512905"><ele>92.0</ele><time>2026-04-06T08:03:15Z</time></trkpt><trkpt lat="46.09066811477049" lon="12.909973022940678"><ele>92.75</ele><time>2026-04-06T08:03:16Z</time></trkpt><trkpt lat="46.090752708461885" lon="12.909853126118014"><ele>93.5</ele><time>2026-04-06T08:03:17Z</time></trkpt><trkpt lat="46.0908469788753" lon="12.909725059219376"><ele>94.25</ele><time>2026-04-06T08:03:18Z</time></trkpt><trkpt lat="46.09094795819911" lon="12.909601768722"><ele>95.0</ele><time>2026-04-06T08:03:19Z</time></trkpt><trkpt lat="46.09105339186892" lon="12.9094845805408"><ele>95.5</ele><time>2026-04-06T08:03:20Z</time></trkpt><trkpt lat="46.09116366333148" lon="12.909375588049313"><ele>96.0</ele><time>2026-04-06T08:03:21Z</time></trkpt><trkpt lat="46.09128134949842" lon="12.909270047072527"><ele>96.5</ele><time>2026-04-06T08:03:22Z</time></trkpt><trkpt lat="46.09140420429828" lon="12.90916914515223"><ele>97.0</ele><time>2026-04-06T08:03:23Z</time></trkpt><trkpt lat="46.091530786300694" lon="12.909080299316228"><ele>98.0</ele><time>2026-04-06T08:03:24Z</time></trkpt><trkpt lat="46.09165685264053" lon="12.909000634182812"><ele>99.0</ele><time>2026-04-06T08:03:25Z</time></trkpt><trkpt lat="46.091784995239735" lon="12.90893271903724"><ele>100.0</ele><time>2026-04-06T08:03:26Z</time></trkpt><trkpt lat="46.09191438200731" lon="12.908875826199937"><ele>101.0</ele><time>2026-04-06T08:03:27Z</time></trkpt><trkpt lat="46.092043595611294" lon="12.90882725647737"><ele>101.0</ele><time>2026-04-06T08:03:28Z</time></trkpt><trkpt lat="46.092173035540654" lon="12.908793573499068"><ele>101.0</ele><time>2026-04-06T08:03:29Z</time></trkpt><trkpt lat="46.09230187916079" lon="12.90877140500806"><ele>101.0</ele><time>2026-04-06T08:03:30Z</time></trkpt><trkpt lat="46.09243585985137" lon="12.908758181214498"><ele>101.0</ele><time>2026-04-06T08:03:31Z</time></trkpt><trkpt lat="46.09257185601588" lon="12.908753844953058"><ele>101.5</ele><time>2026-04-06T08:03:32Z</time></trkpt><trkpt lat="46.09270809633752" lon="12.90875447624485"><ele>102.0</ele><time>2026-04-06T08:03:33Z</time></trkpt><trkpt lat="46.092844511306545" lon="12.908755954510104"><ele>102.5</ele><time>2026-04-06T08:03:34Z</time></trkpt><trkpt lat="46.092987942445525" lon="12.908756276087093"><ele>103.0</ele><time>2026-04-06T08:03:35Z</time></trkpt><trkpt lat="46.093133317052164" lon="12.908748257042747"><ele>102.0</ele><time>2026-04-06T08:03:36Z</time></trkpt><trkpt lat="46.09327818236599" lon="12.908722026794292"><ele>101.0</ele><time>2026-04-06T08:03:37Z</time></trkpt><trkpt lat="46.09342777481306" lon="12.90867215758359"><ele>100.0</ele><time>2026-04-06T08:03:38Z</time></trkpt><trkpt lat="46.09358066202159" lon="12.908600945168626"><ele>100.0</ele><time>2026-04-06T08:03:39Z</time></trkpt><trkpt lat="46.09373150990478" lon="12.908513450657008"><ele>100.0</ele><time>2026-04-06T08:03:40Z</time></trkpt><trkpt lat="46.093887685474144" lon="12.908410447614642"><ele>100.0</ele><time>2026-04-06T08:03:41Z</time></trkpt><trkpt lat="46.09405238237646" lon="12.908304907827244"><ele>103.33333333333334</ele><time>2026-04-06T08:03:42Z</time></trkpt><trkpt lat="46.09422421444461" lon="12.908203270556664"><ele>106.66666666666666</ele><time>2026-04-06T08:03:43Z</time></trkpt><trkpt lat="46.09440237778362" lon="12.908115414979516"><ele>110.0</ele><time>2026-04-06T08:03:44Z</time></trkpt><trkpt lat="46.09459488383266" lon="12.908049980787569"><ele>110.0</ele><time>2026-04-06T08:03:45Z</time></trkpt><trkpt lat="46.09478704304722" lon="12.907994578276634"><ele>110.0</ele><time>2026-04-06T08:03:46Z</time></trkpt><trkpt lat="46.09497502467382" lon="12.907943622280989"><ele>110.0</ele><time>2026-04-06T08:03:47Z</time></trkpt><trkpt lat="46.0951561842515" lon="12.907876825694313"><ele>111.66666666666666</ele><time>2026-04-06T08:03:48Z</time></trkpt><trkpt lat="46.09533192541288" lon="12.907791312595652"><ele>113.33333333333334</ele><time>2026-04-06T08:03:49Z</time></trkpt><trkpt lat="46.09550548570334" lon="12.90769209629226"><ele>115.0</ele><time>2026-04-06T08:03:50Z</time></trkpt><trkpt lat="46.09567844587873" lon="12.907567416559017"><ele>114.33333333333334</ele><time>2026-04-06T08:03:51Z</time></trkpt><trkpt lat="46.095844512308446" lon="12.907413228314866"><ele>113.66666666666666</ele><time>2026-04-06T08:03:52Z</time></trkpt><trkpt lat="46.09600979951527" lon="12.907256026570163"><ele>113.0</ele><time>2026-04-06T08:03:53Z</time></trkpt><trkpt lat="46.09617636973631" lon="12.907106951896006"><ele>113.0</ele><time>2026-04-06T08:03:54Z</time></trkpt><trkpt lat="46.09634236007131" lon="12.906973254696508"><ele>113.0</ele><time>2026-04-06T08:03:55Z</time></trkpt><trkpt lat="46.09650729158856" lon="12.906864409538723"><ele>113.0</ele><time>2026-04-06T08:03:56Z</time></trkpt><trkpt lat="46.0966813207733" lon="12.906771106777557"><ele>114.0</ele><time>2026-04-06T08:03:57Z</time></trkpt><trkpt lat="46.09686380778216" lon="12.906686910836902"><ele>115.0</ele><time>2026-04-06T08:03:58Z</time></trkpt><trkpt lat="46.09706144554163" lon="12.906624090189819"><ele>116.0</ele><time>2026-04-06T08:03:59Z</time></trkpt><trkpt lat="46.09727552814202" lon="12.906576541630937"><ele>115.33333333333333</ele><time>2026-04-06T08:03:59.999Z</time></trkpt><trkpt lat="46.09748244686082" lon="12.906538911726338"><ele>114.66666666666666</ele><time>2026-04-06T08:04:01.001Z</time></trkpt><trkpt lat="46.09768125400919" lon="12.906516152989017"><ele>114.0</ele><time>2026-04-06T08:04:02.001Z</time></trkpt><trkpt lat="46.09786995719324" lon="12.906499244383351"><ele>114.0</ele><time>2026-04-06T08:04:03Z</time></trkpt><trkpt lat="46.09805186553466" lon="12.906487448178027"><ele>114.0</ele><time>2026-04-06T08:04:04.001Z</time></trkpt><trkpt lat="46.09822380273493" lon="12.906495041261618"><ele>114.0</ele><time>2026-04-06T08:04:05.001Z</time></trkpt><trkpt lat="46.09839039483374" lon="12.906515201331294"><ele>114.66666666666666</ele><time>2026-04-06T08:04:06Z</time></trkpt><trkpt lat="46.0985590268013" lon="12.906534663544148"><ele>115.33333333333333</ele><time>2026-04-06T08:04:07Z</time></trkpt><trkpt lat="46.098729404788145" lon="12.906551223616649"><ele>116.0</ele><time>2026-04-06T08:04:08Z</time></trkpt><trkpt lat="46.098893407044834" lon="12.906566993851161"><ele>116.0</ele><time>2026-04-06T08:04:09Z</time></trkpt><trkpt lat="46.09905544260077" lon="12.90657674382137"><ele>116.0</ele><time>2026-04-06T08:04:10Z</time></trkpt><trkpt lat="46.099220154207515" lon="12.906578731851404"><ele>116.0</ele><time>2026-04-06T08:04:11Z</time></trkpt><trkpt lat="46.09938780973722" lon="12.906576109688848"><ele>116.66666666666666</ele><time>2026-04-06T08:04:12Z</time></trkpt><trkpt lat="46.099554466892" lon="12.906577741464083"><ele>117.33333333333334</ele><time>2026-04-06T08:04:13Z</time></trkpt><trkpt lat="46.09972502436529" lon="12.906581297925444"><ele>118.0</ele><time>2026-04-06T08:04:14Z</time></trkpt><trkpt lat="46.09989314579362" lon="12.906584425663297"><ele>119.0</ele><time>2026-04-06T08:04:15Z</time></trkpt><trkpt lat="46.10005655999487" lon="12.906587395830732"><ele>120.0</ele><time>2026-04-06T08:04:16Z</time></trkpt><trkpt lat="46.10022056783541" lon="12.906596844948233"><ele>121.0</ele><time>2026-04-06T08:04:17Z</time></trkpt><trkpt lat="46.100374273960675" lon="12.90660942706419"><ele>121.0</ele><time>2026-04-06T08:04:18Z</time></trkpt><trkpt lat="46.10051419842566" lon="12.906620180476839"><ele>121.0</ele><time>2026-04-06T08:04:19Z</time></trkpt><trkpt lat="46.10065081359909" lon="12.906632627284"><ele>121.0</ele><time>2026-04-06T08:04:20Z</time></trkpt><trkpt lat="46.10078953801764" lon="12.906645209504186"><ele>121.0</ele><time>2026-04-06T08:04:21Z</time></trkpt><trkpt lat="46.100915301461086" lon="12.906655550441972"><ele>121.25</ele><time>2026-04-06T08:04:22Z</time></trkpt><trkpt lat="46.10103650972876" lon="12.906665553892044"><ele>121.5</ele><time>2026-04-06T08:04:23Z</time></trkpt><trkpt lat="46.10115896848217" lon="12.906675552056935"><ele>121.75</ele><time>2026-04-06T08:04:24Z</time></trkpt><trkpt lat="46.10127574889763" lon="12.906676819783891"><ele>122.0</ele><time>2026-04-06T08:04:25Z</time></trkpt><trkpt lat="46.10138439581504" lon="12.906672445359309"><ele>122.0</ele><time>2026-04-06T08:04:26Z</time></trkpt><trkpt lat="46.10148670137721" lon="12.906664046733823"><ele>121.99999999999999</ele><time>2026-04-06T08:04:27Z</time></trkpt><trkpt lat="46.101595045365855" lon="12.906645336645418"><ele>121.99999999999999</ele><time>2026-04-06T08:04:28Z</time></trkpt><trkpt lat="46.10170352233707" lon="12.906624521870022"><ele>122.0</ele><time>2026-04-06T08:04:29Z</time></trkpt><trkpt lat="46.101808179562006" lon="12.906595510766639"><ele>122.0</ele><time>2026-04-06T08:04:30Z</time></trkpt><trkpt lat="46.10190696195202" lon="12.906561921272406"><ele>122.39999999999999</ele><time>2026-04-06T08:04:31Z</time></trkpt><trkpt lat="46.10199635880333" lon="12.90652867007701"><ele>122.79999999999998</ele><time>2026-04-06T08:04:32Z</time></trkpt><trkpt lat="46.102079165016484" lon="12.906495992914854"><ele>123.2</ele><time>2026-04-06T08:04:33Z</time></trkpt><trkpt lat="46.10216167304262" lon="12.90646818835838"><ele>123.6</ele><time>2026-04-06T08:04:34Z</time></trkpt><trkpt lat="46.102254925568865" lon="12.906473036754026"><ele>124.0</ele><time>2026-04-06T08:04:35Z</time></trkpt><trkpt lat="46.10234815284773" lon="12.906501043502734"><ele>124.25</ele><time>2026-04-06T08:04:36Z</time></trkpt><trkpt lat="46.10245999873083" lon="12.906514559757145"><ele>124.5</ele><time>2026-04-06T08:04:37Z</time></trkpt><trkpt lat="46.102564192160195" lon="12.906454281067195"><ele>124.75</ele><time>2026-04-06T08:04:38Z</time></trkpt><trkpt lat="46.102650793524994" lon="12.906321882714376"><ele>125.0</ele><time>2026-04-06T08:04:39Z</time></trkpt><trkpt lat="46.10271419230172" lon="12.906131537675819"><ele>125.0</ele><time>2026-04-06T08:04:40Z</time></trkpt><trkpt lat="46.102789731113326" lon="12.905928894600452"><ele>125.0</ele><time>2026-04-06T08:04:41Z</time></trkpt><trkpt lat="46.102909548450974" lon="12.905765397856513"><ele>125.0</ele><time>2026-04-06T08:04:42Z</time></trkpt><trkpt lat="46.10305631866318" lon="12.905605422415704"><ele>124.66666666666666</ele><time>2026-04-06T08:04:43Z</time></trkpt><trkpt lat="46.10318801608566" lon="12.905427804744182"><ele>124.33333333333334</ele><time>2026-04-06T08:04:44Z</time></trkpt><trkpt lat="46.10332027455755" lon="12.905265629345045"><ele>124.0</ele><time>2026-04-06T08:04:45Z</time></trkpt><trkpt lat="46.103430775096626" lon="12.905084645431716"><ele>124.33333333333334</ele><time>2026-04-06T08:04:46Z</time></trkpt><trkpt lat="46.10353333045471" lon="12.904896524774236"><ele>124.66666666666666</ele><time>2026-04-06T08:04:47Z</time></trkpt><trkpt lat="46.10360814516743" lon="12.904680201374253"><ele>125.0</ele><time>2026-04-06T08:04:48Z</time></trkpt><trkpt lat="46.103685362189466" lon="12.904464900068742"><ele>124.66666666666666</ele><time>2026-04-06T08:04:49Z</time></trkpt><trkpt lat="46.10374449468503" lon="12.90423250406053"><ele>124.33333333333334</ele><time>2026-04-06T08:04:50Z</time></trkpt><trkpt lat="46.10380206961568" lon="12.90400057060527"><ele>124.0</ele><time>2026-04-06T08:04:51Z</time></trkpt><trkpt lat="46.10382434831024" lon="12.903763007563349"><ele>124.0</ele><time>2026-04-06T08:04:52Z</time></trkpt><trkpt lat="46.10383499076562" lon="12.903536703404868"><ele>124.0</ele><time>2026-04-06T08:04:53Z</time></trkpt><trkpt lat="46.103843960694725" lon="12.903321323805491"><ele>124.0</ele><time>2026-04-06T08:04:54Z</time></trkpt><trkpt lat="46.10385175752312" lon="12.903126235411225"><ele>124.0</ele><time>2026-04-06T08:04:55Z</time></trkpt><trkpt lat="46.10385877048498" lon="12.902950760309988"><ele>124.0</ele><time>2026-04-06T08:04:56Z</time></trkpt><trkpt lat="46.10384507727814" lon="12.902788113501583"><ele>124.0</ele><time>2026-04-06T08:04:57Z</time></trkpt><trkpt lat="46.10385180045349" lon="12.902637507208572"><ele>124.0</ele><time>2026-04-06T08:04:58Z</time></trkpt><trkpt lat="46.103858545970574" lon="12.90249074778489"><ele>124.0</ele><time>2026-04-06T08:04:59Z</time></trkpt><trkpt lat="46.10386376327742" lon="12.902371774398503"><ele>124.0</ele><time>2026-04-06T08:05:00Z</time></trkpt><trkpt lat="46.10386689246045" lon="12.902273920837107"><ele>124.00000000000001</ele><time>2026-04-06T08:05:01Z</time></trkpt><trkpt lat="46.103874035217906" lon="12.902102985626877"><ele>124.0</ele><time>2026-04-06T08:05:03Z</time></trkpt><trkpt lat="46.10387958225226" lon="12.901977172559493"><ele>124.0</ele><time>2026-04-06T08:05:05Z</time></trkpt><trkpt lat="46.10388447405429" lon="12.901878849096924"><ele>124.0</ele><time>2026-04-06T08:05:07Z</time></trkpt><trkpt lat="46.10388767747321" lon="12.901765608247214"><ele>124.00000000000001</ele><time>2026-04-06T08:05:11Z</time></trkpt><trkpt lat="46.103892060191534" lon="12.901652583342486"><ele>124.0</ele><time>2026-04-06T08:05:16Z</time></trkpt><trkpt lat="46.10389500908821" lon="12.901547417541904"><ele>124.0</ele><time>2026-04-06T08:05:18Z</time></trkpt><trkpt lat="46.103905701907095" lon="12.901367653784236"><ele>124.0</ele><time>2026-04-06T08:05:20Z</time></trkpt><trkpt lat="46.10390834901123" lon="12.901257402818304"><ele>124.0</ele><time>2026-04-06T08:05:21Z</time></trkpt><trkpt lat="46.103912451516535" lon="12.90113643492798"><ele>124.0</ele><time>2026-04-06T08:05:22Z</time></trkpt><trkpt lat="46.10391964052636" lon="12.901009883331286"><ele>124.0</ele><time>2026-04-06T08:05:23Z</time></trkpt><trkpt lat="46.103944120699026" lon="12.900883948537844"><ele>124.0</ele><time>2026-04-06T08:05:24Z</time></trkpt><trkpt lat="46.10394970593735" lon="12.900756975382663"><ele>124.0</ele><time>2026-04-06T08:05:25Z</time></trkpt><trkpt lat="46.10395527661392" lon="12.900629987808138"><ele>124.0</ele><time>2026-04-06T08:05:26Z</time></trkpt><trkpt lat="46.103959720221596" lon="12.90049931812452"><ele>124.0</ele><time>2026-04-06T08:05:27Z</time></trkpt><trkpt lat="46.10396386717211" lon="12.900363628715661"><ele>124.0</ele><time>2026-04-06T08:05:28Z</time></trkpt><trkpt lat="46.103951643229784" lon="12.900229217510034"><ele>124.0</ele><time>2026-04-06T08:05:29Z</time></trkpt><trkpt lat="46.10395737005776" lon="12.900096174713365"><ele>124.0</ele><time>2026-04-06T08:05:30Z</time></trkpt><trkpt lat="46.103979394933766" lon="12.899959393951326"><ele>124.0</ele><time>2026-04-06T08:05:31Z</time></trkpt><trkpt lat="46.10398632720815" lon="12.899812280578441"><ele>124.0</ele><time>2026-04-06T08:05:32Z</time></trkpt><trkpt lat="46.10399374459783" lon="12.899650491986227"><ele>124.0</ele><time>2026-04-06T08:05:33Z</time></trkpt><trkpt lat="46.1039833749659" lon="12.899476047732174"><ele>124.0</ele><time>2026-04-06T08:05:34Z</time></trkpt><trkpt lat="46.104006492531404" lon="12.899297746498366"><ele>124.0</ele><time>2026-04-06T08:05:35Z</time></trkpt><trkpt lat="46.103998172387676" lon="12.899116416595152"><ele>124.0</ele><time>2026-04-06T08:05:36Z</time></trkpt><trkpt lat="46.104024220402046" lon="12.898926725938793"><ele>124.0</ele><time>2026-04-06T08:05:37Z</time></trkpt><trkpt lat="46.104036336759876" lon="12.898733778187717"><ele>124.0</ele><time>2026-04-06T08:05:38Z</time></trkpt><trkpt lat="46.104049293874304" lon="12.898541068294383"><ele>124.0</ele><time>2026-04-06T08:05:39Z</time></trkpt><trkpt lat="46.10406600610946" lon="12.898352100888099"><ele>124.0</ele><time>2026-04-06T08:05:40Z</time></trkpt><trkpt lat="46.10408653420432" lon="12.89816735599599"><ele>124.0</ele><time>2026-04-06T08:05:41Z</time></trkpt><trkpt lat="46.104113035895665" lon="12.897979414085126"><ele>124.0</ele><time>2026-04-06T08:05:42Z</time></trkpt><trkpt lat="46.10414325780097" lon="12.89778892154042"><ele>124.0</ele><time>2026-04-06T08:05:43Z</time></trkpt><trkpt lat="46.104180367177655" lon="12.897595389003614"><ele>124.0</ele><time>2026-04-06T08:05:44Z</time></trkpt><trkpt lat="46.10422211167224" lon="12.897403994923774"><ele>124.0</ele><time>2026-04-06T08:05:45Z</time></trkpt><trkpt lat="46.10426838955912" lon="12.897217298519815"><ele>124.0</ele><time>2026-04-06T08:05:46Z</time></trkpt><trkpt lat="46.1043169859178" lon="12.897039480445894"><ele>124.0</ele><time>2026-04-06T08:05:47Z</time></trkpt><trkpt lat="46.104368986678736" lon="12.896870530813375"><ele>124.0</ele><time>2026-04-06T08:05:48Z</time></trkpt><trkpt lat="46.10442319140455" lon="12.896704838821568"><ele>124.0</ele><time>2026-04-06T08:05:49Z</time></trkpt><trkpt lat="46.10447768938106" lon="12.896541120926512"><ele>124.0</ele><time>2026-04-06T08:05:50Z</time></trkpt><trkpt lat="46.10453162619005" lon="12.896379078725241"><ele>124.0</ele><time>2026-04-06T08:05:51Z</time></trkpt><trkpt lat="46.1045855303516" lon="12.896219170724939"><ele>124.0</ele><time>2026-04-06T08:05:52Z</time></trkpt><trkpt lat="46.10463948672071" lon="12.896059107849018"><ele>124.0</ele><time>2026-04-06T08:05:53Z</time></trkpt><trkpt lat="46.104693184137595" lon="12.895899813161597"><ele>124.25</ele><time>2026-04-06T08:05:54Z</time></trkpt><trkpt lat="46.10474882162896" lon="12.895734763195724"><ele>124.5</ele><time>2026-04-06T08:05:55Z</time></trkpt><trkpt lat="46.104805335122606" lon="12.895567114549028"><ele>124.75</ele><time>2026-04-06T08:05:56Z</time></trkpt><trkpt lat="46.104860242562346" lon="12.895403021920938"><ele>125.0</ele><time>2026-04-06T08:05:57Z</time></trkpt><trkpt lat="46.104916720311344" lon="12.895234045052568"><ele>124.75</ele><time>2026-04-06T08:05:58Z</time></trkpt><trkpt lat="46.10497377960335" lon="12.895065022216373"><ele>124.5</ele><time>2026-04-06T08:05:58.999Z</time></trkpt><trkpt lat="46.105024865927994" lon="12.894913924683244"><ele>124.25</ele><time>2026-04-06T08:05:59.999Z</time></trkpt><trkpt lat="46.10507156711788" lon="12.894775797009634"><ele>124.0</ele><time>2026-04-06T08:06:00.999Z</time></trkpt><trkpt lat="46.105118095292255" lon="12.894638181087497"><ele>124.0</ele><time>2026-04-06T08:06:01.999Z</time></trkpt><trkpt lat="46.105165224967365" lon="12.89449948549755"><ele>124.0</ele><time>2026-04-06T08:06:02.999Z</time></trkpt><trkpt lat="46.10521213884868" lon="12.89435876404355"><ele>124.0</ele><time>2026-04-06T08:06:03.999Z</time></trkpt><trkpt lat="46.10524999247914" lon="12.894231460988467"><ele>124.0</ele><time>2026-04-06T08:06:04.999Z</time></trkpt><trkpt lat="46.105282872099046" lon="12.894116772775444"><ele>124.0</ele><time>2026-04-06T08:06:06Z</time></trkpt><trkpt lat="46.10531422367385" lon="12.89400693109429"><ele>123.80000000000001</ele><time>2026-04-06T08:06:07Z</time></trkpt><trkpt lat="46.10532737280618" lon="12.893902041797118"><ele>123.60000000000001</ele><time>2026-04-06T08:06:08Z</time></trkpt><trkpt lat="46.1053684014281" lon="12.893772264648788"><ele>123.4</ele><time>2026-04-06T08:06:10Z</time></trkpt><trkpt lat="46.105396839819555" lon="12.893688273211222"><ele>123.2</ele><time>2026-04-06T08:06:12Z</time></trkpt><trkpt lat="46.10547195584006" lon="12.893598203085755"><ele>123.0</ele><time>2026-04-06T08:06:14Z</time></trkpt><trkpt lat="46.105585687749716" lon="12.893540187268036"><ele>123.0</ele><time>2026-04-06T08:06:16Z</time></trkpt><trkpt lat="46.105643807474365" lon="12.893503974372829"><ele>123.00000000000001</ele><time>2026-04-06T08:06:17Z</time></trkpt><trkpt lat="46.10564247903981" lon="12.893324346687185"><ele>123.00000000000001</ele><time>2026-04-06T08:06:18Z</time></trkpt><trkpt lat="46.10564491669126" lon="12.893192599221175"><ele>123.0</ele><time>2026-04-06T08:06:19Z</time></trkpt><trkpt lat="46.105645630868196" lon="12.893032260863647"><ele>123.0</ele><time>2026-04-06T08:06:20Z</time></trkpt><trkpt lat="46.10567879937158" lon="12.89287149779471"><ele>123.0</ele><time>2026-04-06T08:06:21Z</time></trkpt><trkpt lat="46.105743011840566" lon="12.892698046427373"><ele>123.0</ele><time>2026-04-06T08:06:22Z</time></trkpt><trkpt lat="46.105825981239114" lon="12.892507473773756"><ele>123.0</ele><time>2026-04-06T08:06:23Z</time></trkpt><trkpt lat="46.10591194662801" lon="12.892282953409959"><ele>123.0</ele><time>2026-04-06T08:06:24Z</time></trkpt><trkpt lat="46.105996767253416" lon="12.892031343236669"><ele>123.0</ele><time>2026-04-06T08:06:25Z</time></trkpt><trkpt lat="46.10607834546622" lon="12.89178935130292"><ele>123.0</ele><time>2026-04-06T08:06:26Z</time></trkpt><trkpt lat="46.106161748823176" lon="12.891541945299277"><ele>123.0</ele><time>2026-04-06T08:06:27Z</time></trkpt><trkpt lat="46.106248475973196" lon="12.891284679661839"><ele>123.0</ele><time>2026-04-06T08:06:28Z</time></trkpt><trkpt lat="46.10634001357407" lon="12.891020066407979"><ele>123.0</ele><time>2026-04-06T08:06:29Z</time></trkpt><trkpt lat="46.10644016771961" lon="12.89075005312843"><ele>123.0</ele><time>2026-04-06T08:06:30Z</time></trkpt><trkpt lat="46.10654998834762" lon="12.890489063723246"><ele>123.0</ele><time>2026-04-06T08:06:31Z</time></trkpt><trkpt lat="46.10667219002375" lon="12.890253124240292"><ele>123.0</ele><time>2026-04-06T08:06:32Z</time></trkpt><trkpt lat="46.106800618057065" lon="12.890041279922274"><ele>123.0</ele><time>2026-04-06T08:06:33Z</time></trkpt><trkpt lat="46.10693497010872" lon="12.889845511588703"><ele>123.0</ele><time>2026-04-06T08:06:34Z</time></trkpt><trkpt lat="46.10706712553851" lon="12.889652746696935"><ele>123.0</ele><time>2026-04-06T08:06:35Z</time></trkpt><trkpt lat="46.1072185748248" lon="12.889491859015914"><ele>123.0</ele><time>2026-04-06T08:06:36Z</time></trkpt><trkpt lat="46.107372209833954" lon="12.889348767604105"><ele>123.0</ele><time>2026-04-06T08:06:37Z</time></trkpt><trkpt lat="46.1075173727049" lon="12.88923054359518"><ele>123.0</ele><time>2026-04-06T08:06:38Z</time></trkpt><trkpt lat="46.10765842310474" lon="12.889132278754428"><ele>123.25</ele><time>2026-04-06T08:06:39Z</time></trkpt><trkpt lat="46.10779856250318" lon="12.889049247946518"><ele>123.5</ele><time>2026-04-06T08:06:40Z</time></trkpt><trkpt lat="46.10793425558618" lon="12.888983140302994"><ele>123.75</ele><time>2026-04-06T08:06:41Z</time></trkpt><trkpt lat="46.1080595813625" lon="12.888930950385644"><ele>124.0</ele><time>2026-04-06T08:06:42Z</time></trkpt><trkpt lat="46.10818705100936" lon="12.888889267307157"><ele>124.5</ele><time>2026-04-06T08:06:43Z</time></trkpt><trkpt lat="46.10831426593353" lon="12.888854590066092"><ele>125.0</ele><time>2026-04-06T08:06:44Z</time></trkpt><trkpt lat="46.108436453610864" lon="12.8888333335685"><ele>125.5</ele><time>2026-04-06T08:06:45Z</time></trkpt><trkpt lat="46.108549290622854" lon="12.888821345989928"><ele>126.0</ele><time>2026-04-06T08:06:46Z</time></trkpt><trkpt lat="46.10865992109655" lon="12.888815009345857"><ele>126.0</ele><time>2026-04-06T08:06:47Z</time></trkpt><trkpt lat="46.1087718580023" lon="12.888813352798081"><ele>126.0</ele><time>2026-04-06T08:06:48Z</time></trkpt><trkpt lat="46.10888306556593" lon="12.888816004171359"><ele>126.0</ele><time>2026-04-06T08:06:49Z</time></trkpt><trkpt lat="46.10899240369464" lon="12.888820195194468"><ele>126.0</ele><time>2026-04-06T08:06:50Z</time></trkpt><trkpt lat="46.10909843757663" lon="12.888824002730145"><ele>126.0</ele><time>2026-04-06T08:06:51Z</time></trkpt><trkpt lat="46.10919643305975" lon="12.888826227431531"><ele>126.5</ele><time>2026-04-06T08:06:52Z</time></trkpt><trkpt lat="46.109289911828746" lon="12.888829082362067"><ele>127.0</ele><time>2026-04-06T08:06:53Z</time></trkpt><trkpt lat="46.109379554903626" lon="12.888833605373225"><ele>127.5</ele><time>2026-04-06T08:06:54Z</time></trkpt><trkpt lat="46.109467780642944" lon="12.888837791102867"><ele>128.0</ele><time>2026-04-06T08:06:55Z</time></trkpt><trkpt lat="46.1095548026776" lon="12.888840683335456"><ele>128.5</ele><time>2026-04-06T08:06:56Z</time></trkpt><trkpt lat="46.10964054433481" lon="12.888844139571672"><ele>129.0</ele><time>2026-04-06T08:06:57Z</time></trkpt><trkpt lat="46.10972107433593" lon="12.888847916906665"><ele>129.0</ele><time>2026-04-06T08:06:58Z</time></trkpt><trkpt lat="46.10978784782655" lon="12.888852029806351"><ele>129.0</ele><time>2026-04-06T08:06:59Z</time></trkpt><trkpt lat="46.109913560750286" lon="12.888859427950786"><ele>129.0</ele><time>2026-04-06T08:07:01Z</time></trkpt><trkpt lat="46.109982917168196" lon="12.88886349353103"><ele>129.0</ele><time>2026-04-06T08:07:02Z</time></trkpt><trkpt lat="46.110052534614105" lon="12.888867328014912"><ele>129.0</ele><time>2026-04-06T08:07:03Z</time></trkpt><trkpt lat="46.11011602141857" lon="12.888872300088002"><ele>129.0</ele><time>2026-04-06T08:07:04Z</time></trkpt><trkpt lat="46.11022887797181" lon="12.888876272493837"><ele>128.8</ele><time>2026-04-06T08:07:06Z</time></trkpt><trkpt lat="46.11034931848663" lon="12.888883995801805"><ele>128.60000000000002</ele><time>2026-04-06T08:07:08Z</time></trkpt><trkpt lat="46.11042121192722" lon="12.888886549546521"><ele>128.4</ele><time>2026-04-06T08:07:09Z</time></trkpt><trkpt lat="46.11050022407357" lon="12.888887910788494"><ele>128.20000000000002</ele><time>2026-04-06T08:07:10Z</time></trkpt><trkpt lat="46.11059108796915" lon="12.888891525069358"><ele>128.0</ele><time>2026-04-06T08:07:11Z</time></trkpt><trkpt lat="46.110692535360364" lon="12.888896907437717"><ele>127.5</ele><time>2026-04-06T08:07:12Z</time></trkpt><trkpt lat="46.11080177534136" lon="12.888901144072204"><ele>127.0</ele><time>2026-04-06T08:07:13Z</time></trkpt><trkpt lat="46.11092713696611" lon="12.888906356126748"><ele>126.5</ele><time>2026-04-06T08:07:14Z</time></trkpt><trkpt lat="46.11106941162577" lon="12.888911090867433"><ele>126.0</ele><time>2026-04-06T08:07:15Z</time></trkpt><trkpt lat="46.111229023766164" lon="12.888915236823312"><ele>126.0</ele><time>2026-04-06T08:07:16Z</time></trkpt><trkpt lat="46.11140260059431" lon="12.888919536289446"><ele>126.0</ele><time>2026-04-06T08:07:17Z</time></trkpt><trkpt lat="46.11157617779902" lon="12.888921778499054"><ele>126.0</ele><time>2026-04-06T08:07:18Z</time></trkpt><trkpt lat="46.11174727559331" lon="12.8889227966808"><ele>126.66666666666666</ele><time>2026-04-06T08:07:19Z</time></trkpt><trkpt lat="46.111913399374465" lon="12.888926043890374"><ele>127.33333333333333</ele><time>2026-04-06T08:07:20Z</time></trkpt><trkpt lat="46.11207760480454" lon="12.8889312990267"><ele>128.0</ele><time>2026-04-06T08:07:21Z</time></trkpt><trkpt lat="46.112239757997365" lon="12.88893733153097"><ele>128.0</ele><time>2026-04-06T08:07:22Z</time></trkpt><trkpt lat="46.11239604295176" lon="12.88894324839199"><ele>128.0</ele><time>2026-04-06T08:07:23Z</time></trkpt><trkpt lat="46.11254668676009" lon="12.888949684879318"><ele>128.0</ele><time>2026-04-06T08:07:24Z</time></trkpt><trkpt lat="46.1126941741788" lon="12.888957443101873"><ele>128.33333333333331</ele><time>2026-04-06T08:07:25Z</time></trkpt><trkpt lat="46.112842064035725" lon="12.888966571533505"><ele>128.66666666666666</ele><time>2026-04-06T08:07:26Z</time></trkpt><trkpt lat="46.11299189606829" lon="12.888981989771247"><ele>129.0</ele><time>2026-04-06T08:07:27Z</time></trkpt><trkpt lat="46.11314324743878" lon="12.889000141588117"><ele>129.33333333333334</ele><time>2026-04-06T08:07:28Z</time></trkpt><trkpt lat="46.11329568846095" lon="12.889024901982973"><ele>129.66666666666669</ele><time>2026-04-06T08:07:29Z</time></trkpt><trkpt lat="46.11345098982093" lon="12.889057030714204"><ele>130.0</ele><time>2026-04-06T08:07:30Z</time></trkpt><trkpt lat="46.11360880890295" lon="12.889094218413922"><ele>130.0</ele><time>2026-04-06T08:07:31Z</time></trkpt><trkpt lat="46.11376687812198" lon="12.889137627022906"><ele>130.0</ele><time>2026-04-06T08:07:32Z</time></trkpt><trkpt lat="46.11392206509603" lon="12.88918532810988"><ele>130.0</ele><time>2026-04-06T08:07:33Z</time></trkpt><trkpt lat="46.11407697230022" lon="12.889237879385686"><ele>130.66666666666669</ele><time>2026-04-06T08:07:34Z</time></trkpt><trkpt lat="46.11423101442301" lon="12.889294355229847"><ele>131.33333333333334</ele><time>2026-04-06T08:07:35Z</time></trkpt><trkpt lat="46.11438236434633" lon="12.889352286119017"><ele>132.0</ele><time>2026-04-06T08:07:36Z</time></trkpt><trkpt lat="46.114531428555004" lon="12.889410993145018"><ele>132.0</ele><time>2026-04-06T08:07:37Z</time></trkpt><trkpt lat="46.11468211454933" lon="12.889470026732992"><ele>132.0</ele><time>2026-04-06T08:07:38Z</time></trkpt><trkpt lat="46.11482798789479" lon="12.88952835762143"><ele>132.0</ele><time>2026-04-06T08:07:39Z</time></trkpt><trkpt lat="46.1149734078011" lon="12.889587515576132"><ele>131.66666666666666</ele><time>2026-04-06T08:07:40Z</time></trkpt><trkpt lat="46.11511997371384" lon="12.889645092845214"><ele>131.33333333333331</ele><time>2026-04-06T08:07:41Z</time></trkpt><trkpt lat="46.11526569236313" lon="12.889703934745793"><ele>131.0</ele><time>2026-04-06T08:07:42Z</time></trkpt><trkpt lat="46.11540736902413" lon="12.889761358463101"><ele>131.0</ele><time>2026-04-06T08:07:43Z</time></trkpt><trkpt lat="46.1155464872928" lon="12.889816015448591"><ele>131.0</ele><time>2026-04-06T08:07:44Z</time></trkpt><trkpt lat="46.11568711356528" lon="12.88987319942339"><ele>131.0</ele><time>2026-04-06T08:07:45Z</time></trkpt><trkpt lat="46.11583286347789" lon="12.889933786754419"><ele>131.0</ele><time>2026-04-06T08:07:46Z</time></trkpt><trkpt lat="46.11598346957033" lon="12.88999368563362"><ele>131.33333333333331</ele><time>2026-04-06T08:07:47Z</time></trkpt><trkpt lat="46.11613478421139" lon="12.890052861264046"><ele>131.66666666666666</ele><time>2026-04-06T08:07:48Z</time></trkpt><trkpt lat="46.11628972690951" lon="12.890116389255727"><ele>132.0</ele><time>2026-04-06T08:07:49Z</time></trkpt><trkpt lat="46.11644654289239" lon="12.890177871377084"><ele>131.33333333333334</ele><time>2026-04-06T08:07:50Z</time></trkpt><trkpt lat="46.11660779705531" lon="12.890239276825216"><ele>130.66666666666669</ele><time>2026-04-06T08:07:51Z</time></trkpt><trkpt lat="46.116768453283115" lon="12.89030419357146"><ele>130.0</ele><time>2026-04-06T08:07:52Z</time></trkpt><trkpt lat="46.116926046151605" lon="12.890368952609352"><ele>130.0</ele><time>2026-04-06T08:07:53Z</time></trkpt><trkpt lat="46.11708174505373" lon="12.890432446324827"><ele>130.0</ele><time>2026-04-06T08:07:54Z</time></trkpt><trkpt lat="46.117234875384256" lon="12.890493549063587"><ele>130.0</ele><time>2026-04-06T08:07:55Z</time></trkpt><trkpt lat="46.11738814379339" lon="12.890554447765641"><ele>130.66666666666669</ele><time>2026-04-06T08:07:56Z</time></trkpt><trkpt lat="46.117540614575375" lon="12.890615456940075"><ele>131.33333333333334</ele><time>2026-04-06T08:07:57Z</time></trkpt><trkpt lat="46.1176969653711" lon="12.890677840277743"><ele>132.0</ele><time>2026-04-06T08:07:58Z</time></trkpt><trkpt lat="46.1178571129774" lon="12.890741057443849"><ele>132.0</ele><time>2026-04-06T08:07:58.999Z</time></trkpt><trkpt lat="46.11801383287976" lon="12.890802700298313"><ele>132.0</ele><time>2026-04-06T08:07:59.999Z</time></trkpt><trkpt lat="46.11816758897482" lon="12.890862838202432"><ele>132.0</ele><time>2026-04-06T08:08:00.999Z</time></trkpt><trkpt lat="46.11831660983169" lon="12.890922110998634"><ele>132.66666666666666</ele><time>2026-04-06T08:08:01.999Z</time></trkpt><trkpt lat="46.11846283658446" lon="12.890981244031849"><ele>133.33333333333331</ele><time>2026-04-06T08:08:02.999Z</time></trkpt><trkpt lat="46.11860935549871" lon="12.891037913324114"><ele>134.0</ele><time>2026-04-06T08:08:03.999Z</time></trkpt><trkpt lat="46.1187552554027" lon="12.891096489270415"><ele>134.0</ele><time>2026-04-06T08:08:04.999Z</time></trkpt><trkpt lat="46.11890375911966" lon="12.891158497763103"><ele>134.0</ele><time>2026-04-06T08:08:05.999Z</time></trkpt><trkpt lat="46.11905489575658" lon="12.89122277813783"><ele>134.0</ele><time>2026-04-06T08:08:06.999Z</time></trkpt><trkpt lat="46.11921105483376" lon="12.891288289751829"><ele>134.0</ele><time>2026-04-06T08:08:07.999Z</time></trkpt><trkpt lat="46.11936895207585" lon="12.89135561708222"><ele>134.0</ele><time>2026-04-06T08:08:08.999Z</time></trkpt><trkpt lat="46.11952674700245" lon="12.891420880257227"><ele>134.0</ele><time>2026-04-06T08:08:09.999Z</time></trkpt><trkpt lat="46.11967948763305" lon="12.89148464174162"><ele>134.0</ele><time>2026-04-06T08:08:11Z</time></trkpt><trkpt lat="46.11983074259795" lon="12.891546657737381"><ele>134.0</ele><time>2026-04-06T08:08:12Z</time></trkpt><trkpt lat="46.11998189017083" lon="12.891608141008108"><ele>134.0</ele><time>2026-04-06T08:08:13Z</time></trkpt><trkpt lat="46.12013558347701" lon="12.891669154304497"><ele>134.66666666666666</ele><time>2026-04-06T08:08:14Z</time></trkpt><trkpt lat="46.12029111789363" lon="12.891729402376752"><ele>135.33333333333334</ele><time>2026-04-06T08:08:15Z</time></trkpt><trkpt lat="46.120451520424346" lon="12.891793093373813"><ele>136.0</ele><time>2026-04-06T08:08:16Z</time></trkpt><trkpt lat="46.12061478146408" lon="12.891856357018156"><ele>135.66666666666669</ele><time>2026-04-06T08:08:17Z</time></trkpt><trkpt lat="46.12078293559963" lon="12.89192128145906"><ele>135.33333333333334</ele><time>2026-04-06T08:08:18Z</time></trkpt><trkpt lat="46.120954465918935" lon="12.891985912776395"><ele>135.0</ele><time>2026-04-06T08:08:19Z</time></trkpt><trkpt lat="46.121121394496356" lon="12.892051370698669"><ele>135.0</ele><time>2026-04-06T08:08:20Z</time></trkpt><trkpt lat="46.12128499182041" lon="12.892113524966454"><ele>135.0</ele><time>2026-04-06T08:08:21Z</time></trkpt><trkpt lat="46.121442567885055" lon="12.89217233162824"><ele>135.0</ele><time>2026-04-06T08:08:22Z</time></trkpt><trkpt lat="46.12159340016967" lon="12.89222910676759"><ele>134.75</ele><time>2026-04-06T08:08:23Z</time></trkpt><trkpt lat="46.121739485199754" lon="12.892276906962405"><ele>134.5</ele><time>2026-04-06T08:08:24Z</time></trkpt><trkpt lat="46.121883216133924" lon="12.892311880397902"><ele>134.25</ele><time>2026-04-06T08:08:25Z</time></trkpt><trkpt lat="46.1220297929334" lon="12.892332286595067"><ele>134.0</ele><time>2026-04-06T08:08:26Z</time></trkpt><trkpt lat="46.12218241231704" lon="12.892334970499881"><ele>134.0</ele><time>2026-04-06T08:08:27Z</time></trkpt><trkpt lat="46.12233777928375" lon="12.89234278892639"><ele>134.0</ele><time>2026-04-06T08:08:28Z</time></trkpt><trkpt lat="46.12249957237831" lon="12.892314216284678"><ele>134.0</ele><time>2026-04-06T08:08:29Z</time></trkpt><trkpt lat="46.12266084322454" lon="12.892250473443978"><ele>134.33333333333331</ele><time>2026-04-06T08:08:30Z</time></trkpt><trkpt lat="46.122821783225056" lon="12.892171047468803"><ele>134.66666666666666</ele><time>2026-04-06T08:08:31Z</time></trkpt><trkpt lat="46.122980380189965" lon="12.892064554489243"><ele>135.0</ele><time>2026-04-06T08:08:32Z</time></trkpt><trkpt lat="46.12313486768068" lon="12.891933112014613"><ele>134.66666666666666</ele><time>2026-04-06T08:08:33Z</time></trkpt><trkpt lat="46.12328413410546" lon="12.89177118290421"><ele>134.33333333333331</ele><time>2026-04-06T08:08:34Z</time></trkpt><trkpt lat="46.12342449470116" lon="12.89158607958677"><ele>134.0</ele><time>2026-04-06T08:08:35Z</time></trkpt><trkpt lat="46.12355637159789" lon="12.891384550539136"><ele>134.0</ele><time>2026-04-06T08:08:36Z</time></trkpt><trkpt lat="46.12366862594193" lon="12.891158478173137"><ele>134.0</ele><time>2026-04-06T08:08:37Z</time></trkpt><trkpt lat="46.123762746710675" lon="12.890933382939881"><ele>134.0</ele><time>2026-04-06T08:08:38Z</time></trkpt><trkpt lat="46.12384074869027" lon="12.890706114560999"><ele>134.0</ele><time>2026-04-06T08:08:39Z</time></trkpt><trkpt lat="46.12391156294965" lon="12.890487712794146"><ele>134.0</ele><time>2026-04-06T08:08:40Z</time></trkpt><trkpt lat="46.12398147603797" lon="12.890272934518947"><ele>134.0</ele><time>2026-04-06T08:08:41Z</time></trkpt><trkpt lat="46.12405023281428" lon="12.890062055779426"><ele>134.25</ele><time>2026-04-06T08:08:42Z</time></trkpt><trkpt lat="46.12411518676881" lon="12.889862840100191"><ele>134.5</ele><time>2026-04-06T08:08:43Z</time></trkpt><trkpt lat="46.124176362980116" lon="12.889676504165278"><ele>134.75</ele><time>2026-04-06T08:08:44Z</time></trkpt><trkpt lat="46.12423844661544" lon="12.889487448205218"><ele>135.0</ele><time>2026-04-06T08:08:45Z</time></trkpt><trkpt lat="46.124302181057345" lon="12.889293365201398"><ele>135.0</ele><time>2026-04-06T08:08:46Z</time></trkpt><trkpt lat="46.12436583684911" lon="12.889099522793483"><ele>135.0</ele><time>2026-04-06T08:08:47Z</time></trkpt><trkpt lat="46.12442897747632" lon="12.888907133502578"><ele>135.0</ele><time>2026-04-06T08:08:48Z</time></trkpt><trkpt lat="46.12449318099288" lon="12.888711455500319"><ele>135.0</ele><time>2026-04-06T08:08:49Z</time></trkpt><trkpt lat="46.12455827847136" lon="12.888513052948376"><ele>134.66666666666666</ele><time>2026-04-06T08:08:50Z</time></trkpt><trkpt lat="46.12462391463234" lon="12.888312974906164"><ele>134.33333333333331</ele><time>2026-04-06T08:08:51Z</time></trkpt><trkpt lat="46.12468927922842" lon="12.888115048602966"><ele>134.0</ele><time>2026-04-06T08:08:52Z</time></trkpt><trkpt lat="46.12475446895017" lon="12.887917652074066"><ele>134.0</ele><time>2026-04-06T08:08:53Z</time></trkpt><trkpt lat="46.124818587622" lon="12.88772230187014"><ele>134.0</ele><time>2026-04-06T08:08:54Z</time></trkpt><trkpt lat="46.12488361629386" lon="12.887524109548504"><ele>134.0</ele><time>2026-04-06T08:08:55Z</time></trkpt><trkpt lat="46.124949315591195" lon="12.887323562275053"><ele>134.0</ele><time>2026-04-06T08:08:56Z</time></trkpt><trkpt lat="46.12501567404868" lon="12.887121270274516"><ele>134.0</ele><time>2026-04-06T08:08:57Z</time></trkpt><trkpt lat="46.12508344079206" lon="12.886914965656278"><ele>134.0</ele><time>2026-04-06T08:08:58Z</time></trkpt><trkpt lat="46.125151969175064" lon="12.886705116676483"><ele>134.33333333333331</ele><time>2026-04-06T08:08:59Z</time></trkpt><trkpt lat="46.125222203118106" lon="12.88649004490564"><ele>134.66666666666666</ele><time>2026-04-06T08:09:00Z</time></trkpt><trkpt lat="46.125294202211705" lon="12.886269567831235"><ele>135.0</ele><time>2026-04-06T08:09:01Z</time></trkpt><trkpt lat="46.12536824258759" lon="12.886042839943995"><ele>135.0</ele><time>2026-04-06T08:09:02Z</time></trkpt><trkpt lat="46.125444163240516" lon="12.885810354204546"><ele>135.0</ele><time>2026-04-06T08:09:03Z</time></trkpt><trkpt lat="46.12552398588689" lon="12.885565786339047"><ele>135.0</ele><time>2026-04-06T08:09:04Z</time></trkpt><trkpt lat="46.1256057042252" lon="12.885315410897999"><ele>135.0</ele><time>2026-04-06T08:09:05Z</time></trkpt><trkpt lat="46.12568613378037" lon="12.885068984144839"><ele>135.0</ele><time>2026-04-06T08:09:06Z</time></trkpt><trkpt lat="46.12576449680271" lon="12.884828889021524"><ele>135.0</ele><time>2026-04-06T08:09:07Z</time></trkpt><trkpt lat="46.125841031379636" lon="12.884594397781894"><ele>136.0</ele><time>2026-04-06T08:09:08Z</time></trkpt><trkpt lat="46.125915735116514" lon="12.884366581768019"><ele>137.0</ele><time>2026-04-06T08:09:09Z</time></trkpt><trkpt lat="46.12598935757024" lon="12.884141439378276"><ele>138.0</ele><time>2026-04-06T08:09:10Z</time></trkpt><trkpt lat="46.126060305837555" lon="12.883924474775641"><ele>138.33333333333334</ele><time>2026-04-06T08:09:11Z</time></trkpt><trkpt lat="46.12613042923844" lon="12.883710032759943"><ele>138.66666666666669</ele><time>2026-04-06T08:09:12Z</time></trkpt><trkpt lat="46.12619981402088" lon="12.883498973765349"><ele>139.0</ele><time>2026-04-06T08:09:13Z</time></trkpt><trkpt lat="46.12626767061879" lon="12.883293002888063"><ele>139.0</ele><time>2026-04-06T08:09:14Z</time></trkpt><trkpt lat="46.12633516381919" lon="12.883088135163213"><ele>139.0</ele><time>2026-04-06T08:09:15Z</time></trkpt><trkpt lat="46.12640237426283" lon="12.882884125705946"><ele>139.0</ele><time>2026-04-06T08:09:16Z</time></trkpt><trkpt lat="46.12646927456709" lon="12.882681057611489"><ele>139.0</ele><time>2026-04-06T08:09:17Z</time></trkpt><trkpt lat="46.12653525293772" lon="12.882480787943466"><ele>139.0</ele><time>2026-04-06T08:09:18Z</time></trkpt><trkpt lat="46.126599793639244" lon="12.882284863607188"><ele>139.0</ele><time>2026-04-06T08:09:19Z</time></trkpt><trkpt lat="46.126662425788204" lon="12.882094710128356"><ele>139.0</ele><time>2026-04-06T08:09:20Z</time></trkpt><trkpt lat="46.12672300488568" lon="12.881910789803374"><ele>139.0</ele><time>2026-04-06T08:09:21Z</time></trkpt><trkpt lat="46.126781480012504" lon="12.881733250478064"><ele>139.0</ele><time>2026-04-06T08:09:22Z</time></trkpt><trkpt lat="46.12683850469064" lon="12.88156010966008"><ele>139.0</ele><time>2026-04-06T08:09:23Z</time></trkpt><trkpt lat="46.12689567472103" lon="12.881386527542757"><ele>139.0</ele><time>2026-04-06T08:09:24Z</time></trkpt><trkpt lat="46.12695401425893" lon="12.88120939452761"><ele>139.0</ele><time>2026-04-06T08:09:25Z</time></trkpt><trkpt lat="46.12701388792868" lon="12.881027603488567"><ele>139.0</ele><time>2026-04-06T08:09:26Z</time></trkpt><trkpt lat="46.12707358090742" lon="12.880846361087613"><ele>139.0</ele><time>2026-04-06T08:09:27Z</time></trkpt><trkpt lat="46.12713573811787" lon="12.880657636659116"><ele>139.0</ele><time>2026-04-06T08:09:28Z</time></trkpt><trkpt lat="46.12719956777042" lon="12.88046383429869"><ele>139.0</ele><time>2026-04-06T08:09:29Z</time></trkpt><trkpt lat="46.12726611147849" lon="12.880261791422528"><ele>139.0</ele><time>2026-04-06T08:09:30Z</time></trkpt><trkpt lat="46.12733458885021" lon="12.880053877447907"><ele>139.66666666666669</ele><time>2026-04-06T08:09:31Z</time></trkpt><trkpt lat="46.1274054760305" lon="12.879838646720012"><ele>140.33333333333334</ele><time>2026-04-06T08:09:32Z</time></trkpt><trkpt lat="46.12747903597558" lon="12.879614924867298"><ele>141.0</ele><time>2026-04-06T08:09:33Z</time></trkpt><trkpt lat="46.127555716151846" lon="12.879381276530298"><ele>140.66666666666666</ele><time>2026-04-06T08:09:34Z</time></trkpt><trkpt lat="46.12763675839188" lon="12.87913433682437"><ele>140.33333333333331</ele><time>2026-04-06T08:09:35Z</time></trkpt><trkpt lat="46.12773000945743" lon="12.878850197223032"><ele>140.0</ele><time>2026-04-06T08:09:36Z</time></trkpt><trkpt lat="46.12782082507055" lon="12.878519440892315"><ele>142.0</ele><time>2026-04-06T08:09:37Z</time></trkpt><trkpt lat="46.127929045620675" lon="12.878244919392069"><ele>144.0</ele><time>2026-04-06T08:09:38Z</time></trkpt><trkpt lat="46.12803740474511" lon="12.877915318691851"><ele>144.0</ele><time>2026-04-06T08:09:39Z</time></trkpt><trkpt lat="46.12812840579834" lon="12.877638516620898"><ele>144.0</ele><time>2026-04-06T08:09:40Z</time></trkpt><trkpt lat="46.12821387309593" lon="12.877378533306763"><ele>144.0</ele><time>2026-04-06T08:09:41Z</time></trkpt><trkpt lat="46.12829362111432" lon="12.877135922318994"><ele>144.33333333333334</ele><time>2026-04-06T08:09:42Z</time></trkpt><trkpt lat="46.12837071571563" lon="12.876901383673818"><ele>144.66666666666669</ele><time>2026-04-06T08:09:43Z</time></trkpt><trkpt lat="46.12844507891411" lon="12.876675154532494"><ele>145.0</ele><time>2026-04-06T08:09:44Z</time></trkpt><trkpt lat="46.1285173269777" lon="12.876455066039215"><ele>146.0</ele><time>2026-04-06T08:09:45Z</time></trkpt><trkpt lat="46.12858832028815" lon="12.876236399572452"><ele>147.0</ele><time>2026-04-06T08:09:46Z</time></trkpt><trkpt lat="46.12865698150499" lon="12.8760249161149"><ele>148.0</ele><time>2026-04-06T08:09:47Z</time></trkpt><trkpt lat="46.12872276026929" lon="12.875822943718543"><ele>148.0</ele><time>2026-04-06T08:09:48Z</time></trkpt><trkpt lat="46.12878732688609" lon="12.875624837368365"><ele>148.0</ele><time>2026-04-06T08:09:49Z</time></trkpt><trkpt lat="46.12885224457339" lon="12.875425653806927"><ele>148.0</ele><time>2026-04-06T08:09:50Z</time></trkpt><trkpt lat="46.128916751326905" lon="12.875227731116324"><ele>147.75</ele><time>2026-04-06T08:09:51Z</time></trkpt><trkpt lat="46.12897958563629" lon="12.875034939932158"><ele>147.5</ele><time>2026-04-06T08:09:52Z</time></trkpt><trkpt lat="46.12904314937466" lon="12.874840243906867"><ele>147.25</ele><time>2026-04-06T08:09:53Z</time></trkpt><trkpt lat="46.12910781219579" lon="12.87464269429011"><ele>147.0</ele><time>2026-04-06T08:09:54Z</time></trkpt><trkpt lat="46.129172793118705" lon="12.874444455857505"><ele>147.0</ele><time>2026-04-06T08:09:55Z</time></trkpt><trkpt lat="46.12923696944439" lon="12.874248672904542"><ele>147.0</ele><time>2026-04-06T08:09:56Z</time></trkpt><trkpt lat="46.12930022348272" lon="12.874053741023669"><ele>147.0</ele><time>2026-04-06T08:09:57Z</time></trkpt><trkpt lat="46.12934763543962" lon="12.873854038867492"><ele>147.0</ele><time>2026-04-06T08:09:58Z</time></trkpt><trkpt lat="46.12941079232762" lon="12.873665271653929"><ele>147.0</ele><time>2026-04-06T08:09:59Z</time></trkpt><trkpt lat="46.12947299313646" lon="12.873465570687042"><ele>147.0</ele><time>2026-04-06T08:10:00Z</time></trkpt><trkpt lat="46.1295384013607" lon="12.87326433113001"><ele>147.0</ele><time>2026-04-06T08:10:01Z</time></trkpt><trkpt lat="46.129607206143874" lon="12.873062731105717"><ele>147.0</ele><time>2026-04-06T08:10:01.999Z</time></trkpt><trkpt lat="46.129677727714636" lon="12.872858229290175"><ele>147.0</ele><time>2026-04-06T08:10:02.999Z</time></trkpt><trkpt lat="46.129749752651804" lon="12.872656354623832"><ele>147.0</ele><time>2026-04-06T08:10:03.999Z</time></trkpt><trkpt lat="46.1298229267066" lon="12.872463948701498"><ele>147.5</ele><time>2026-04-06T08:10:04.999Z</time></trkpt><trkpt lat="46.12989770169568" lon="12.872278860816726"><ele>148.0</ele><time>2026-04-06T08:10:05.999Z</time></trkpt><trkpt lat="46.12997681619411" lon="12.872101675800987"><ele>148.5</ele><time>2026-04-06T08:10:06.999Z</time></trkpt><trkpt lat="46.13006655907974" lon="12.871933681520332"><ele>149.0</ele><time>2026-04-06T08:10:07.999Z</time></trkpt><trkpt lat="46.13016460493963" lon="12.871768300914948"><ele>149.0</ele><time>2026-04-06T08:10:08.999Z</time></trkpt><trkpt lat="46.1302724573113" lon="12.871616368742158"><ele>149.0</ele><time>2026-04-06T08:10:09.999Z</time></trkpt><trkpt lat="46.130382666224016" lon="12.87147247363346"><ele>149.0</ele><time>2026-04-06T08:10:10.999Z</time></trkpt><trkpt lat="46.13049310474266" lon="12.871327001432249"><ele>149.0</ele><time>2026-04-06T08:10:11.999Z</time></trkpt><trkpt lat="46.13060710290805" lon="12.871181221290593"><ele>149.66666666666666</ele><time>2026-04-06T08:10:12.999Z</time></trkpt><trkpt lat="46.13072594415675" lon="12.871034940027856"><ele>150.33333333333334</ele><time>2026-04-06T08:10:13.999Z</time></trkpt><trkpt lat="46.13084685472478" lon="12.870886894484808"><ele>151.0</ele><time>2026-04-06T08:10:14.999Z</time></trkpt><trkpt lat="46.13097401839217" lon="12.87073857138047"><ele>151.0</ele><time>2026-04-06T08:10:15.999Z</time></trkpt><trkpt lat="46.1311125007033" lon="12.870609795723022"><ele>151.0</ele><time>2026-04-06T08:10:17Z</time></trkpt><trkpt lat="46.13123440670154" lon="12.870470075584809"><ele>151.0</ele><time>2026-04-06T08:10:18Z</time></trkpt><trkpt lat="46.13134117058718" lon="12.870318683782545"><ele>151.0</ele><time>2026-04-06T08:10:19Z</time></trkpt><trkpt lat="46.13145519581994" lon="12.870191414184132"><ele>151.0</ele><time>2026-04-06T08:10:20Z</time></trkpt><trkpt lat="46.13156750388769" lon="12.870063424743647"><ele>151.0</ele><time>2026-04-06T08:10:21Z</time></trkpt><trkpt lat="46.13167967581195" lon="12.869938418009642"><ele>151.0</ele><time>2026-04-06T08:10:22Z</time></trkpt><trkpt lat="46.13179216024205" lon="12.869811245376207"><ele>152.0</ele><time>2026-04-06T08:10:23Z</time></trkpt><trkpt lat="46.13190697479494" lon="12.869682228738053"><ele>153.0</ele><time>2026-04-06T08:10:24Z</time></trkpt><trkpt lat="46.13202393457722" lon="12.869554597551959"><ele>154.0</ele><time>2026-04-06T08:10:25Z</time></trkpt><trkpt lat="46.13213941432779" lon="12.869426522627444"><ele>155.0</ele><time>2026-04-06T08:10:26Z</time></trkpt><trkpt lat="46.132252902694376" lon="12.869295463797922"><ele>155.0</ele><time>2026-04-06T08:10:27Z</time></trkpt><trkpt lat="46.132369230644585" lon="12.869162428769824"><ele>155.0</ele><time>2026-04-06T08:10:28Z</time></trkpt><trkpt lat="46.13248920371672" lon="12.869029535862047"><ele>155.0</ele><time>2026-04-06T08:10:29Z</time></trkpt><trkpt lat="46.13261346957359" lon="12.868891464205841"><ele>155.0</ele><time>2026-04-06T08:10:30Z</time></trkpt><trkpt lat="46.13274158615464" lon="12.868754323663966"><ele>155.0</ele><time>2026-04-06T08:10:31Z</time></trkpt><trkpt lat="46.13287363082072" lon="12.868616219771274"><ele>155.0</ele><time>2026-04-06T08:10:32Z</time></trkpt><trkpt lat="46.133009272273526" lon="12.868476232193824"><ele>155.0</ele><time>2026-04-06T08:10:33Z</time></trkpt><trkpt lat="46.133147263218845" lon="12.868331298367057"><ele>155.0</ele><time>2026-04-06T08:10:34Z</time></trkpt><trkpt lat="46.13328308052476" lon="12.868185687876261"><ele>155.0</ele><time>2026-04-06T08:10:35Z</time></trkpt><trkpt lat="46.133417259897826" lon="12.868040304247128"><ele>155.33333333333331</ele><time>2026-04-06T08:10:36Z</time></trkpt><trkpt lat="46.133548561500845" lon="12.867890598708652"><ele>155.66666666666666</ele><time>2026-04-06T08:10:37Z</time></trkpt><trkpt lat="46.13368142013507" lon="12.867737973449069"><ele>156.0</ele><time>2026-04-06T08:10:38Z</time></trkpt><trkpt lat="46.13381570597965" lon="12.867585708503002"><ele>156.33333333333334</ele><time>2026-04-06T08:10:39Z</time></trkpt><trkpt lat="46.13395309774122" lon="12.867430018711257"><ele>156.66666666666669</ele><time>2026-04-06T08:10:40Z</time></trkpt><trkpt lat="46.13409219627078" lon="12.86727332214497"><ele>157.0</ele><time>2026-04-06T08:10:41Z</time></trkpt><trkpt lat="46.134230100649226" lon="12.867116097277098"><ele>157.0</ele><time>2026-04-06T08:10:42Z</time></trkpt><trkpt lat="46.134366302282146" lon="12.866960280519274"><ele>157.0</ele><time>2026-04-06T08:10:43Z</time></trkpt><trkpt lat="46.134499886073854" lon="12.866803100727303"><ele>157.0</ele><time>2026-04-06T08:10:44Z</time></trkpt><trkpt lat="46.13463149747024" lon="12.86664341374413"><ele>157.0</ele><time>2026-04-06T08:10:45Z</time></trkpt><trkpt lat="46.13476126807815" lon="12.866488117734864"><ele>157.0</ele><time>2026-04-06T08:10:46Z</time></trkpt><trkpt lat="46.13490074944926" lon="12.866355461854711"><ele>157.0</ele><time>2026-04-06T08:10:47Z</time></trkpt><trkpt lat="46.13502856779994" lon="12.866207084923484"><ele>157.0</ele><time>2026-04-06T08:10:48Z</time></trkpt><trkpt lat="46.13514754979925" lon="12.866040537127486"><ele>157.0</ele><time>2026-04-06T08:10:49Z</time></trkpt><trkpt lat="46.13527653257776" lon="12.865898263002013"><ele>157.0</ele><time>2026-04-06T08:10:50Z</time></trkpt><trkpt lat="46.13540488971399" lon="12.865754261251576"><ele>157.0</ele><time>2026-04-06T08:10:51Z</time></trkpt><trkpt lat="46.13553078509439" lon="12.865612140163588"><ele>157.0</ele><time>2026-04-06T08:10:52Z</time></trkpt><trkpt lat="46.13565464473994" lon="12.865470875896586"><ele>157.0</ele><time>2026-04-06T08:10:53Z</time></trkpt><trkpt lat="46.13577979653653" lon="12.86532874043929"><ele>158.0</ele><time>2026-04-06T08:10:54Z</time></trkpt><trkpt lat="46.13590501104725" lon="12.865188603529266"><ele>159.0</ele><time>2026-04-06T08:10:55Z</time></trkpt><trkpt lat="46.136027120308235" lon="12.865049625525907"><ele>160.0</ele><time>2026-04-06T08:10:56Z</time></trkpt><trkpt lat="46.136148469042325" lon="12.864911483948584"><ele>160.33333333333334</ele><time>2026-04-06T08:10:57Z</time></trkpt><trkpt lat="46.13627003239037" lon="12.864774990959198"><ele>160.66666666666666</ele><time>2026-04-06T08:10:58Z</time></trkpt><trkpt lat="46.13639175226835" lon="12.86463813542546"><ele>161.0</ele><time>2026-04-06T08:10:59Z</time></trkpt><trkpt lat="46.13651449873254" lon="12.864500109100693"><ele>161.0</ele><time>2026-04-06T08:11:00Z</time></trkpt><trkpt lat="46.13663820410477" lon="12.864361741422883"><ele>161.0</ele><time>2026-04-06T08:11:01Z</time></trkpt><trkpt lat="46.136764599813354" lon="12.864220277823565"><ele>161.0</ele><time>2026-04-06T08:11:02Z</time></trkpt><trkpt lat="46.13690353545699" lon="12.864091896795612"><ele>161.0</ele><time>2026-04-06T08:11:03Z</time></trkpt><trkpt lat="46.13703679940241" lon="12.86394194335391"><ele>161.0</ele><time>2026-04-06T08:11:04Z</time></trkpt><trkpt lat="46.137173317763576" lon="12.863788327888571"><ele>161.0</ele><time>2026-04-06T08:11:05Z</time></trkpt><trkpt lat="46.1373128558247" lon="12.86363131449775"><ele>161.66666666666666</ele><time>2026-04-06T08:11:06Z</time></trkpt><trkpt lat="46.137454838881155" lon="12.863471549998525"><ele>162.33333333333334</ele><time>2026-04-06T08:11:07Z</time></trkpt><trkpt lat="46.137598230160485" lon="12.863310200907517"><ele>163.0</ele><time>2026-04-06T08:11:08Z</time></trkpt><trkpt lat="46.13773027386321" lon="12.863132216020626"><ele>163.66666666666669</ele><time>2026-04-06T08:11:09Z</time></trkpt><trkpt lat="46.13786927608569" lon="12.862975361413898"><ele>164.33333333333334</ele><time>2026-04-06T08:11:10Z</time></trkpt><trkpt lat="46.138007180712215" lon="12.86282037504905"><ele>165.0</ele><time>2026-04-06T08:11:11Z</time></trkpt><trkpt lat="46.13814698607513" lon="12.862666044120225"><ele>164.33333333333334</ele><time>2026-04-06T08:11:12Z</time></trkpt><trkpt lat="46.13828536779768" lon="12.86251025365312"><ele>163.66666666666669</ele><time>2026-04-06T08:11:13Z</time></trkpt><trkpt lat="46.138423837898465" lon="12.862351154059377"><ele>163.0</ele><time>2026-04-06T08:11:14Z</time></trkpt><trkpt lat="46.138574341330866" lon="12.862211844849579"><ele>163.0</ele><time>2026-04-06T08:11:15Z</time></trkpt><trkpt lat="46.13870467896037" lon="12.862035838877997"><ele>163.0</ele><time>2026-04-06T08:11:16Z</time></trkpt><trkpt lat="46.138844964778215" lon="12.861879633741731"><ele>163.0</ele><time>2026-04-06T08:11:17Z</time></trkpt><trkpt lat="46.13898283023333" lon="12.861726319343044"><ele>163.66666666666669</ele><time>2026-04-06T08:11:18Z</time></trkpt><trkpt lat="46.13911682985594" lon="12.861575443955921"><ele>164.33333333333334</ele><time>2026-04-06T08:11:19Z</time></trkpt><trkpt lat="46.139247815581236" lon="12.861429059576134"><ele>165.0</ele><time>2026-04-06T08:11:20Z</time></trkpt><trkpt lat="46.13937690696718" lon="12.861284598102722"><ele>165.0</ele><time>2026-04-06T08:11:21Z</time></trkpt><trkpt lat="46.13950608924601" lon="12.861138712562799"><ele>165.0</ele><time>2026-04-06T08:11:22Z</time></trkpt><trkpt lat="46.13963107481132" lon="12.860996442845622"><ele>165.0</ele><time>2026-04-06T08:11:23Z</time></trkpt><trkpt lat="46.13975310407645" lon="12.860858906458096"><ele>165.0</ele><time>2026-04-06T08:11:24Z</time></trkpt><trkpt lat="46.13987344940414" lon="12.860723532207935"><ele>165.0</ele><time>2026-04-06T08:11:25Z</time></trkpt><trkpt lat="46.139992778778726" lon="12.860592077087484"><ele>165.0</ele><time>2026-04-06T08:11:26Z</time></trkpt><trkpt lat="46.1401100350932" lon="12.860463044033079"><ele>165.0</ele><time>2026-04-06T08:11:27Z</time></trkpt><trkpt lat="46.14022582780204" lon="12.860333079133449"><ele>165.0</ele><time>2026-04-06T08:11:28Z</time></trkpt><trkpt lat="46.1403395666173" lon="12.860201743535923"><ele>165.0</ele><time>2026-04-06T08:11:29Z</time></trkpt><trkpt lat="46.14045340842422" lon="12.860071832741008"><ele>165.0</ele><time>2026-04-06T08:11:30Z</time></trkpt><trkpt lat="46.140568829602906" lon="12.859943407227524"><ele>165.25</ele><time>2026-04-06T08:11:31Z</time></trkpt><trkpt lat="46.14068382294659" lon="12.859813213570956"><ele>165.5</ele><time>2026-04-06T08:11:32Z</time></trkpt><trkpt lat="46.14079850788951" lon="12.859684845037947"><ele>165.75</ele><time>2026-04-06T08:11:33Z</time></trkpt><trkpt lat="46.14091226400721" lon="12.859557482440573"><ele>166.0</ele><time>2026-04-06T08:11:34Z</time></trkpt><trkpt lat="46.14102541283639" lon="12.859427391003818"><ele>166.0</ele><time>2026-04-06T08:11:35Z</time></trkpt><trkpt lat="46.14115137733682" lon="12.859314457252797"><ele>166.0</ele><time>2026-04-06T08:11:36Z</time></trkpt><trkpt lat="46.141268751907624" lon="12.859182498655885"><ele>166.0</ele><time>2026-04-06T08:11:37Z</time></trkpt><trkpt lat="46.141386047716544" lon="12.859050628747987"><ele>166.0</ele><time>2026-04-06T08:11:38Z</time></trkpt><trkpt lat="46.141492539283824" lon="12.858901966267284"><ele>166.5</ele><time>2026-04-06T08:11:39Z</time></trkpt><trkpt lat="46.14160874791842" lon="12.858772742895912"><ele>167.0</ele><time>2026-04-06T08:11:40Z</time></trkpt><trkpt lat="46.1417224752055" lon="12.858643514126603"><ele>167.5</ele><time>2026-04-06T08:11:41Z</time></trkpt><trkpt lat="46.1418340028388" lon="12.858513470348894"><ele>168.0</ele><time>2026-04-06T08:11:42Z</time></trkpt><trkpt lat="46.141945505829284" lon="12.858387559639132"><ele>168.5</ele><time>2026-04-06T08:11:43Z</time></trkpt><trkpt lat="46.14205644823494" lon="12.858265032338927"><ele>169.0</ele><time>2026-04-06T08:11:44Z</time></trkpt><trkpt lat="46.14216102943159" lon="12.858146949624368"><ele>169.5</ele><time>2026-04-06T08:11:45Z</time></trkpt><trkpt lat="46.14226332004071" lon="12.85803202276784"><ele>170.0</ele><time>2026-04-06T08:11:46Z</time></trkpt><trkpt lat="46.14237520573108" lon="12.857936183485204"><ele>170.75</ele><time>2026-04-06T08:11:47Z</time></trkpt><trkpt lat="46.14247635182746" lon="12.857822929059898"><ele>171.5</ele><time>2026-04-06T08:11:48Z</time></trkpt><trkpt lat="46.142571678299994" lon="12.857690406794104"><ele>172.25</ele><time>2026-04-06T08:11:49Z</time></trkpt><trkpt lat="46.14268121952024" lon="12.857570611408619"><ele>173.0</ele><time>2026-04-06T08:11:50Z</time></trkpt><trkpt lat="46.142792066962365" lon="12.857442946840465"><ele>173.33333333333331</ele><time>2026-04-06T08:11:51Z</time></trkpt><trkpt lat="46.14290724726297" lon="12.857312165337325"><ele>173.66666666666666</ele><time>2026-04-06T08:11:52Z</time></trkpt><trkpt lat="46.143037401293576" lon="12.85719812316451"><ele>174.0</ele><time>2026-04-06T08:11:53Z</time></trkpt><trkpt lat="46.14316013186357" lon="12.857060432198214"><ele>173.33333333333334</ele><time>2026-04-06T08:11:54Z</time></trkpt><trkpt lat="46.14327656370887" lon="12.856900361427344"><ele>172.66666666666669</ele><time>2026-04-06T08:11:55Z</time></trkpt><trkpt lat="46.143410387737255" lon="12.856753656546108"><ele>172.0</ele><time>2026-04-06T08:11:56Z</time></trkpt><trkpt lat="46.14354848508454" lon="12.856601584374875"><ele>172.0</ele><time>2026-04-06T08:11:57Z</time></trkpt><trkpt lat="46.143691457875256" lon="12.856442558552212"><ele>172.0</ele><time>2026-04-06T08:11:58Z</time></trkpt><trkpt lat="46.14383333676179" lon="12.856278211584996"><ele>172.0</ele><time>2026-04-06T08:11:59Z</time></trkpt><trkpt lat="46.143972937706444" lon="12.856118734605486"><ele>172.0</ele><time>2026-04-06T08:12:00Z</time></trkpt><trkpt lat="46.14411261432067" lon="12.855962339306053"><ele>172.0</ele><time>2026-04-06T08:12:01Z</time></trkpt><trkpt lat="46.144252443886856" lon="12.855806937372709"><ele>172.0</ele><time>2026-04-06T08:12:02Z</time></trkpt><trkpt lat="46.14439085418236" lon="12.855650081002011"><ele>172.0</ele><time>2026-04-06T08:12:03Z</time></trkpt><trkpt lat="46.14452858153677" lon="12.855493535769396"><ele>172.0</ele><time>2026-04-06T08:12:04Z</time></trkpt><trkpt lat="46.144669960905965" lon="12.855334120785805"><ele>172.0</ele><time>2026-04-06T08:12:04.999Z</time></trkpt><trkpt lat="46.14481461566686" lon="12.855173848566608"><ele>172.33333333333334</ele><time>2026-04-06T08:12:05.999Z</time></trkpt><trkpt lat="46.144963713206565" lon="12.855005405525405"><ele>172.66666666666666</ele><time>2026-04-06T08:12:06.999Z</time></trkpt><trkpt lat="46.14511534910678" lon="12.854836124624798"><ele>173.0</ele><time>2026-04-06T08:12:07.999Z</time></trkpt><trkpt lat="46.14527194668954" lon="12.854660774681443"><ele>173.0</ele><time>2026-04-06T08:12:08.999Z</time></trkpt><trkpt lat="46.145427213132386" lon="12.854485558407747"><ele>173.0</ele><time>2026-04-06T08:12:09.999Z</time></trkpt><trkpt lat="46.14557952490988" lon="12.854313908898067"><ele>173.0</ele><time>2026-04-06T08:12:10.999Z</time></trkpt><trkpt lat="46.14573019242982" lon="12.854142283612587"><ele>174.66666666666666</ele><time>2026-04-06T08:12:11.999Z</time></trkpt><trkpt lat="46.14588469459044" lon="12.853997655138873"><ele>176.33333333333334</ele><time>2026-04-06T08:12:12.999Z</time></trkpt><trkpt lat="46.14602134201269" lon="12.85384410307656"><ele>178.0</ele><time>2026-04-06T08:12:13.999Z</time></trkpt><trkpt lat="46.146153293621495" lon="12.853695827649208"><ele>178.0</ele><time>2026-04-06T08:12:14.999Z</time></trkpt><trkpt lat="46.146279029001" lon="12.853554537551695"><ele>178.0</ele><time>2026-04-06T08:12:15.999Z</time></trkpt><trkpt lat="46.146401566901176" lon="12.853416840471008"><ele>178.0</ele><time>2026-04-06T08:12:16.999Z</time></trkpt><trkpt lat="46.14652854123869" lon="12.853274158110944"><ele>177.66666666666669</ele><time>2026-04-06T08:12:17.999Z</time></trkpt><trkpt lat="46.14665498303173" lon="12.853132074140218"><ele>177.33333333333334</ele><time>2026-04-06T08:12:18.999Z</time></trkpt><trkpt lat="46.14678311947104" lon="12.85298808590519"><ele>177.0</ele><time>2026-04-06T08:12:19.999Z</time></trkpt><trkpt lat="46.14691292534158" lon="12.852841847075736"><ele>177.0</ele><time>2026-04-06T08:12:20.999Z</time></trkpt><trkpt lat="46.14704427430015" lon="12.852693644119292"><ele>177.0</ele><time>2026-04-06T08:12:21.999Z</time></trkpt><trkpt lat="46.14718109759752" lon="12.85253965445636"><ele>177.0</ele><time>2026-04-06T08:12:23Z</time></trkpt><trkpt lat="46.14731892933534" lon="12.85238663970088"><ele>177.33333333333334</ele><time>2026-04-06T08:12:24Z</time></trkpt><trkpt lat="46.14745747916703" lon="12.852232827770873"><ele>177.66666666666669</ele><time>2026-04-06T08:12:25Z</time></trkpt><trkpt lat="46.1475964593592" lon="12.852076613551528"><ele>178.0</ele><time>2026-04-06T08:12:26Z</time></trkpt><trkpt lat="46.14773510865883" lon="12.85192051732448"><ele>178.66666666666669</ele><time>2026-04-06T08:12:27Z</time></trkpt><trkpt lat="46.14787558025766" lon="12.851762369503984"><ele>179.33333333333334</ele><time>2026-04-06T08:12:28Z</time></trkpt><trkpt lat="46.14802079880524" lon="12.85159887742165"><ele>180.0</ele><time>2026-04-06T08:12:29Z</time></trkpt><trkpt lat="46.14817424251913" lon="12.851426126345917"><ele>179.5</ele><time>2026-04-06T08:12:30Z</time></trkpt><trkpt lat="46.14832729587706" lon="12.851252315887265"><ele>179.0</ele><time>2026-04-06T08:12:31Z</time></trkpt><trkpt lat="46.148528316985185" lon="12.851024454444644"><ele>180.0</ele><time>2026-04-06T08:12:32Z</time></trkpt><trkpt lat="46.14874997257669" lon="12.850774706062605"><ele>181.0</ele><time>2026-04-06T08:12:33Z</time></trkpt><trkpt lat="46.14900769970109" lon="12.850484887882148"><ele>181.5</ele><time>2026-04-06T08:12:34Z</time></trkpt><trkpt lat="46.14930474996384" lon="12.850151340202242"><ele>182.0</ele><time>2026-04-06T08:12:35Z</time></trkpt><trkpt lat="46.14963293078453" lon="12.849783337992628"><ele>182.5</ele><time>2026-04-06T08:12:36Z</time></trkpt><trkpt lat="46.149946573274335" lon="12.849366638008938"><ele>183.0</ele><time>2026-04-06T08:12:37Z</time></trkpt><trkpt lat="46.15028543848991" lon="12.849005787192793"><ele>183.5</ele><time>2026-04-06T08:12:38Z</time></trkpt><trkpt lat="46.15062175216247" lon="12.84864305886848"><ele>184.0</ele><time>2026-04-06T08:12:39Z</time></trkpt><trkpt lat="46.15094842679404" lon="12.84827997001362"><ele>185.0</ele><time>2026-04-06T08:12:40Z</time></trkpt><trkpt lat="46.15123715566928" lon="12.847952069244165"><ele>186.0</ele><time>2026-04-06T08:12:41Z</time></trkpt><trkpt lat="46.15149815663667" lon="12.847657761242163"><ele>186.5</ele><time>2026-04-06T08:12:42Z</time></trkpt><trkpt lat="46.15174723993202" lon="12.847379595744671"><ele>187.0</ele><time>2026-04-06T08:12:43Z</time></trkpt><trkpt lat="46.15197873196513" lon="12.847120016828951"><ele>187.0</ele><time>2026-04-06T08:12:44Z</time></trkpt><trkpt lat="46.15219587848979" lon="12.846872465278581"><ele>187.0</ele><time>2026-04-06T08:12:45Z</time></trkpt><trkpt lat="46.15240161807388" lon="12.846640618573936"><ele>188.5</ele><time>2026-04-06T08:12:46Z</time></trkpt><trkpt lat="46.15260160923241" lon="12.84641595722486"><ele>190.0</ele><time>2026-04-06T08:12:47Z</time></trkpt><trkpt lat="46.1528033724211" lon="12.846188554244929"><ele>190.5</ele><time>2026-04-06T08:12:48Z</time></trkpt><trkpt lat="46.15301033308145" lon="12.845956587032562"><ele>191.0</ele><time>2026-04-06T08:12:49Z</time></trkpt><trkpt lat="46.15320975344797" lon="12.845731438039719"><ele>189.5</ele><time>2026-04-06T08:12:50Z</time></trkpt><trkpt lat="46.15340526534677" lon="12.845540569098963"><ele>188.0</ele><time>2026-04-06T08:12:51Z</time></trkpt><trkpt lat="46.15357728205372" lon="12.84534694330831"><ele>188.0</ele><time>2026-04-06T08:12:52Z</time></trkpt><trkpt lat="46.15374073560825" lon="12.84516078716853"><ele>188.0</ele><time>2026-04-06T08:12:53Z</time></trkpt><trkpt lat="46.15389414845541" lon="12.844951058607757"><ele>188.0</ele><time>2026-04-06T08:12:54Z</time></trkpt><trkpt lat="46.15406124485693" lon="12.844765507026155"><ele>189.33333333333331</ele><time>2026-04-06T08:12:55Z</time></trkpt><trkpt lat="46.154230252340874" lon="12.84457814684966"><ele>190.66666666666666</ele><time>2026-04-06T08:12:56Z</time></trkpt><trkpt lat="46.15439372102586" lon="12.844394630921038"><ele>192.0</ele><time>2026-04-06T08:12:57Z</time></trkpt><trkpt lat="46.15455270503711" lon="12.844215877362636"><ele>192.33333333333331</ele><time>2026-04-06T08:12:58Z</time></trkpt><trkpt lat="46.154709401899" lon="12.844040005196407"><ele>192.66666666666666</ele><time>2026-04-06T08:12:59Z</time></trkpt><trkpt lat="46.154868110136356" lon="12.843864430367859"><ele>193.0</ele><time>2026-04-06T08:13:00Z</time></trkpt><trkpt lat="46.15502494114257" lon="12.843689030678725"><ele>193.0</ele><time>2026-04-06T08:13:01Z</time></trkpt><trkpt lat="46.15518638212886" lon="12.843506906253031"><ele>193.0</ele><time>2026-04-06T08:13:02Z</time></trkpt><trkpt lat="46.15535010191908" lon="12.843323930464793"><ele>193.0</ele><time>2026-04-06T08:13:03Z</time></trkpt><trkpt lat="46.15551908901019" lon="12.843137215690234"><ele>193.33333333333331</ele><time>2026-04-06T08:13:04Z</time></trkpt><trkpt lat="46.15569242511824" lon="12.84294536822038"><ele>193.66666666666669</ele><time>2026-04-06T08:13:05Z</time></trkpt><trkpt lat="46.155868667696886" lon="12.84274992864616"><ele>194.0</ele><time>2026-04-06T08:13:06Z</time></trkpt><trkpt lat="46.15604363706819" lon="12.842553724241577"><ele>194.0</ele><time>2026-04-06T08:13:07Z</time></trkpt><trkpt lat="46.156203242953914" lon="12.84237178556029"><ele>194.0</ele><time>2026-04-06T08:13:08Z</time></trkpt><trkpt lat="46.156352481799445" lon="12.842201331770907"><ele>194.0</ele><time>2026-04-06T08:13:09Z</time></trkpt><trkpt lat="46.15649622778041" lon="12.84203827933392"><ele>195.0</ele><time>2026-04-06T08:13:10Z</time></trkpt><trkpt lat="46.15663656884682" lon="12.841882662999987"><ele>196.0</ele><time>2026-04-06T08:13:11Z</time></trkpt><trkpt lat="46.156770749451326" lon="12.841724424359727"><ele>197.0</ele><time>2026-04-06T08:13:12Z</time></trkpt><trkpt lat="46.15689327456568" lon="12.841566189240817"><ele>197.0</ele><time>2026-04-06T08:13:13Z</time></trkpt><trkpt lat="46.157015584773276" lon="12.84140065845777"><ele>197.0</ele><time>2026-04-06T08:13:14Z</time></trkpt><trkpt lat="46.15713283910891" lon="12.841227849596754"><ele>197.0</ele><time>2026-04-06T08:13:15Z</time></trkpt><trkpt lat="46.15724010651227" lon="12.841057258356217"><ele>197.0</ele><time>2026-04-06T08:13:16Z</time></trkpt><trkpt lat="46.1573385346649" lon="12.84089143331022"><ele>197.0</ele><time>2026-04-06T08:13:17Z</time></trkpt><trkpt lat="46.15743418822354" lon="12.840720141649687"><ele>197.0</ele><time>2026-04-06T08:13:18Z</time></trkpt><trkpt lat="46.157522672762134" lon="12.84054961678677"><ele>197.5</ele><time>2026-04-06T08:13:19Z</time></trkpt><trkpt lat="46.15760609455128" lon="12.840377800395927"><ele>198.0</ele><time>2026-04-06T08:13:20Z</time></trkpt><trkpt lat="46.157683607557296" lon="12.840205667324643"><ele>198.5</ele><time>2026-04-06T08:13:21Z</time></trkpt><trkpt lat="46.157758116346926" lon="12.840033674256222"><ele>199.0</ele><time>2026-04-06T08:13:22Z</time></trkpt><trkpt lat="46.157831246897004" lon="12.839859938671141"><ele>199.0</ele><time>2026-04-06T08:13:23Z</time></trkpt><trkpt lat="46.157905267698986" lon="12.839687889680176"><ele>199.0</ele><time>2026-04-06T08:13:24Z</time></trkpt><trkpt lat="46.157981101309566" lon="12.839514138876165"><ele>199.0</ele><time>2026-04-06T08:13:25Z</time></trkpt><trkpt lat="46.15805543413556" lon="12.839346045463838"><ele>199.0</ele><time>2026-04-06T08:13:26Z</time></trkpt><trkpt lat="46.15812120243888" lon="12.839190050296594"><ele>199.0</ele><time>2026-04-06T08:13:27Z</time></trkpt><trkpt lat="46.158183497683055" lon="12.839042652800341"><ele>199.0</ele><time>2026-04-06T08:13:28Z</time></trkpt><trkpt lat="46.15824113884407" lon="12.838906976080693"><ele>199.0</ele><time>2026-04-06T08:13:29Z</time></trkpt><trkpt lat="46.15829868790092" lon="12.838773669794989"><ele>199.0</ele><time>2026-04-06T08:13:30Z</time></trkpt><trkpt lat="46.158359736579804" lon="12.838636704491684"><ele>198.75</ele><time>2026-04-06T08:13:31Z</time></trkpt><trkpt lat="46.15841884871113" lon="12.838496644038452"><ele>198.5</ele><time>2026-04-06T08:13:32Z</time></trkpt><trkpt lat="46.15848016660182" lon="12.838352783098797"><ele>198.25</ele><time>2026-04-06T08:13:33Z</time></trkpt><trkpt lat="46.15854241469198" lon="12.838210070958395"><ele>198.0</ele><time>2026-04-06T08:13:34Z</time></trkpt><trkpt lat="46.158599906029735" lon="12.83807291345228"><ele>198.4</ele><time>2026-04-06T08:13:35Z</time></trkpt><trkpt lat="46.15865536001096" lon="12.837938909976408"><ele>198.8</ele><time>2026-04-06T08:13:36Z</time></trkpt><trkpt lat="46.15871096350826" lon="12.837804930159557"><ele>199.2</ele><time>2026-04-06T08:13:37Z</time></trkpt><trkpt lat="46.15876614231515" lon="12.837670059584614"><ele>199.6</ele><time>2026-04-06T08:13:38Z</time></trkpt><trkpt lat="46.158821133102435" lon="12.83753827296365"><ele>200.0</ele><time>2026-04-06T08:13:39Z</time></trkpt><trkpt lat="46.15887032747043" lon="12.837422200081374"><ele>200.33333333333334</ele><time>2026-04-06T08:13:40Z</time></trkpt><trkpt lat="46.15891335216541" lon="12.83732109726679"><ele>200.66666666666669</ele><time>2026-04-06T08:13:41Z</time></trkpt><trkpt lat="46.158959504112815" lon="12.83723255647352"><ele>201.0</ele><time>2026-04-06T08:13:42Z</time></trkpt><trkpt lat="46.159015310476065" lon="12.837163097713352"><ele>201.33333333333331</ele><time>2026-04-06T08:13:43Z</time></trkpt><trkpt lat="46.15907740399359" lon="12.837116332004324"><ele>201.66666666666666</ele><time>2026-04-06T08:13:44Z</time></trkpt><trkpt lat="46.15914896655732" lon="12.837099679406256"><ele>202.0</ele><time>2026-04-06T08:13:45Z</time></trkpt><trkpt lat="46.15922492113001" lon="12.837113798142092"><ele>202.0</ele><time>2026-04-06T08:13:46Z</time></trkpt><trkpt lat="46.15930718161296" lon="12.837161970465207"><ele>202.0</ele><time>2026-04-06T08:13:47Z</time></trkpt><trkpt lat="46.15938815424372" lon="12.837187188569498"><ele>202.0</ele><time>2026-04-06T08:13:48Z</time></trkpt><trkpt lat="46.159479483676385" lon="12.837168310899342"><ele>202.0</ele><time>2026-04-06T08:13:49Z</time></trkpt><trkpt lat="46.15956122441364" lon="12.837099109770797"><ele>202.0</ele><time>2026-04-06T08:13:50Z</time></trkpt><trkpt lat="46.15961301639495" lon="12.836985505778708"><ele>202.0</ele><time>2026-04-06T08:13:51Z</time></trkpt><trkpt lat="46.159645399818444" lon="12.836850248046442"><ele>202.0</ele><time>2026-04-06T08:13:52Z</time></trkpt><trkpt lat="46.15963943782909" lon="12.836704887940702"><ele>202.0</ele><time>2026-04-06T08:13:53Z</time></trkpt><trkpt lat="46.15959238357724" lon="12.836574528705764"><ele>202.0</ele><time>2026-04-06T08:13:54Z</time></trkpt><trkpt lat="46.159514487327094" lon="12.836478701002301"><ele>202.0</ele><time>2026-04-06T08:13:55Z</time></trkpt><trkpt lat="46.15942598163222" lon="12.836414040225414"><ele>202.2</ele><time>2026-04-06T08:13:56Z</time></trkpt><trkpt lat="46.159329739860574" lon="12.836354251870254"><ele>202.39999999999998</ele><time>2026-04-06T08:13:57Z</time></trkpt><trkpt lat="46.159252776415" lon="12.836254116979264"><ele>202.60000000000002</ele><time>2026-04-06T08:13:58Z</time></trkpt><trkpt lat="46.15919526097455" lon="12.836121469448871"><ele>202.8</ele><time>2026-04-06T08:13:59Z</time></trkpt><trkpt lat="46.159161114972186" lon="12.835954679341038"><ele>203.0</ele><time>2026-04-06T08:14:00Z</time></trkpt><trkpt lat="46.15916356144228" lon="12.83576846037249"><ele>203.5</ele><time>2026-04-06T08:14:01Z</time></trkpt><trkpt lat="46.15918698523708" lon="12.835572402433275"><ele>204.0</ele><time>2026-04-06T08:14:02Z</time></trkpt><trkpt lat="46.15920325290673" lon="12.835363102497169"><ele>204.5</ele><time>2026-04-06T08:14:03Z</time></trkpt><trkpt lat="46.159213473770855" lon="12.835134156482066"><ele>205.0</ele><time>2026-04-06T08:14:04Z</time></trkpt><trkpt lat="46.159217076544294" lon="12.834889195749456"><ele>205.0</ele><time>2026-04-06T08:14:05Z</time></trkpt><trkpt lat="46.15923441619283" lon="12.834635526070565"><ele>205.0</ele><time>2026-04-06T08:14:06Z</time></trkpt><trkpt lat="46.1592222130239" lon="12.834377717133638"><ele>205.0</ele><time>2026-04-06T08:14:07Z</time></trkpt><trkpt lat="46.15918298959245" lon="12.834124972164707"><ele>205.0</ele><time>2026-04-06T08:14:07.999Z</time></trkpt><trkpt lat="46.15917114326503" lon="12.833847161294292"><ele>205.0</ele><time>2026-04-06T08:14:08.999Z</time></trkpt><trkpt lat="46.15914348233857" lon="12.83357154465282"><ele>205.0</ele><time>2026-04-06T08:14:09.999Z</time></trkpt><trkpt lat="46.15911584669839" lon="12.83329844210572"><ele>206.0</ele><time>2026-04-06T08:14:10.999Z</time></trkpt><trkpt lat="46.159086956029824" lon="12.833014782387487"><ele>207.0</ele><time>2026-04-06T08:14:11.999Z</time></trkpt><trkpt lat="46.15905733703703" lon="12.832723971702505"><ele>208.0</ele><time>2026-04-06T08:14:12.999Z</time></trkpt><trkpt lat="46.15901145668604" lon="12.832433467979858"><ele>208.0</ele><time>2026-04-06T08:14:13.999Z</time></trkpt><trkpt lat="46.158980255023586" lon="12.832129478947776"><ele>208.0</ele><time>2026-04-06T08:14:14.999Z</time></trkpt><trkpt lat="46.1589489341414" lon="12.83181336883676"><ele>208.0</ele><time>2026-04-06T08:14:15.999Z</time></trkpt><trkpt lat="46.15891452037673" lon="12.831491263253687"><ele>208.0</ele><time>2026-04-06T08:14:16.999Z</time></trkpt><trkpt lat="46.15889813561764" lon="12.831163481255926"><ele>208.0</ele><time>2026-04-06T08:14:17.999Z</time></trkpt><trkpt lat="46.15885056612413" lon="12.83085372033147"><ele>208.0</ele><time>2026-04-06T08:14:18.999Z</time></trkpt><trkpt lat="46.15882107735505" lon="12.830544961593397"><ele>208.66666666666666</ele><time>2026-04-06T08:14:19.999Z</time></trkpt><trkpt lat="46.15878971441093" lon="12.830232992224795"><ele>209.33333333333331</ele><time>2026-04-06T08:14:20.999Z</time></trkpt><trkpt lat="46.158773927771314" lon="12.82992012874669"><ele>210.0</ele><time>2026-04-06T08:14:21.999Z</time></trkpt><trkpt lat="46.158742460132494" lon="12.829614061041665"><ele>210.66666666666669</ele><time>2026-04-06T08:14:22.999Z</time></trkpt><trkpt lat="46.1586944062106" lon="12.829305539454712"><ele>211.33333333333334</ele><time>2026-04-06T08:14:23.999Z</time></trkpt><trkpt lat="46.1586638402529" lon="12.828986303343106"><ele>212.0</ele><time>2026-04-06T08:14:24.999Z</time></trkpt><trkpt lat="46.158632590442764" lon="12.828666233616454"><ele>212.0</ele><time>2026-04-06T08:14:25.999Z</time></trkpt><trkpt lat="46.158600504780345" lon="12.82834687539068"><ele>212.0</ele><time>2026-04-06T08:14:26.999Z</time></trkpt><trkpt lat="46.15856825623376" lon="12.828030553346906"><ele>212.0</ele><time>2026-04-06T08:14:28Z</time></trkpt><trkpt lat="46.15853527921128" lon="12.82770572413063"><ele>212.5</ele><time>2026-04-06T08:14:29Z</time></trkpt><trkpt lat="46.15849982639561" lon="12.827369698425937"><ele>213.0</ele><time>2026-04-06T08:14:30Z</time></trkpt><trkpt lat="46.15846701931275" lon="12.827022402502912"><ele>213.5</ele><time>2026-04-06T08:14:31Z</time></trkpt><trkpt lat="46.15843708734657" lon="12.826666755111647"><ele>214.0</ele><time>2026-04-06T08:14:32Z</time></trkpt><trkpt lat="46.15841578259932" lon="12.8263083696097"><ele>213.5</ele><time>2026-04-06T08:14:33Z</time></trkpt><trkpt lat="46.158401683455644" lon="12.825950931469587"><ele>213.0</ele><time>2026-04-06T08:14:34Z</time></trkpt><trkpt lat="46.158393520484715" lon="12.825597087536012"><ele>213.0</ele><time>2026-04-06T08:14:35Z</time></trkpt><trkpt lat="46.1583905708169" lon="12.82524319661028"><ele>213.0</ele><time>2026-04-06T08:14:36Z</time></trkpt><trkpt lat="46.15838898877141" lon="12.824892125342911"><ele>213.0</ele><time>2026-04-06T08:14:37Z</time></trkpt><trkpt lat="46.15838898885466" lon="12.82455068195106"><ele>213.0</ele><time>2026-04-06T08:14:38Z</time></trkpt><trkpt lat="46.158384514658714" lon="12.824226121380946"><ele>213.0</ele><time>2026-04-06T08:14:39Z</time></trkpt><trkpt lat="46.15837051871117" lon="12.823921207119666"><ele>213.0</ele><time>2026-04-06T08:14:40Z</time></trkpt><trkpt lat="46.15835332469304" lon="12.823638793473089"><ele>213.0</ele><time>2026-04-06T08:14:41Z</time></trkpt><trkpt lat="46.158333860391465" lon="12.823358401137687"><ele>213.0</ele><time>2026-04-06T08:14:42Z</time></trkpt><trkpt lat="46.1583183891441" lon="12.82308663184194"><ele>213.0</ele><time>2026-04-06T08:14:43Z</time></trkpt><trkpt lat="46.15830911877766" lon="12.822830853336873"><ele>213.0</ele><time>2026-04-06T08:14:44Z</time></trkpt><trkpt lat="46.1583047218193" lon="12.822585780004118"><ele>213.0</ele><time>2026-04-06T08:14:45Z</time></trkpt><trkpt lat="46.1583059558871" lon="12.822359168702842"><ele>213.0</ele><time>2026-04-06T08:14:46Z</time></trkpt><trkpt lat="46.15831536869991" lon="12.822148374609842"><ele>213.0</ele><time>2026-04-06T08:14:47Z</time></trkpt><trkpt lat="46.158352281346396" lon="12.82195127626451"><ele>213.0</ele><time>2026-04-06T08:14:48Z</time></trkpt><trkpt lat="46.15842821610186" lon="12.821771121628133"><ele>211.0</ele><time>2026-04-06T08:14:49Z</time></trkpt><trkpt lat="46.1585311711336" lon="12.821608612138588"><ele>209.0</ele><time>2026-04-06T08:14:50Z</time></trkpt><trkpt lat="46.15866183415974" lon="12.821463135098663"><ele>207.0</ele><time>2026-04-06T08:14:51Z</time></trkpt><trkpt lat="46.1588190450034" lon="12.821342606577565"><ele>207.0</ele><time>2026-04-06T08:14:52Z</time></trkpt><trkpt lat="46.158988733707105" lon="12.821216128319978"><ele>207.0</ele><time>2026-04-06T08:14:53Z</time></trkpt><trkpt lat="46.15915075048338" lon="12.821087775982992"><ele>207.0</ele><time>2026-04-06T08:14:54Z</time></trkpt><trkpt lat="46.159306962310396" lon="12.820966553297326"><ele>207.0</ele><time>2026-04-06T08:14:55Z</time></trkpt><trkpt lat="46.15946382043851" lon="12.820848259616048"><ele>207.0</ele><time>2026-04-06T08:14:56Z</time></trkpt><trkpt lat="46.15962644554982" lon="12.82072397987775"><ele>207.0</ele><time>2026-04-06T08:14:57Z</time></trkpt><trkpt lat="46.15979320346871" lon="12.820600170393854"><ele>213.0</ele><time>2026-04-06T08:14:58Z</time></trkpt><trkpt lat="46.15995742143742" lon="12.820474794651048"><ele>219.0</ele><time>2026-04-06T08:14:59Z</time></trkpt><trkpt lat="46.16011488313172" lon="12.820357005110605"><ele>225.0</ele><time>2026-04-06T08:15:00Z</time></trkpt><trkpt lat="46.16026672529235" lon="12.820248001233832"><ele>218.66666666666669</ele><time>2026-04-06T08:15:01Z</time></trkpt><trkpt lat="46.16041375870194" lon="12.820142173890908"><ele>212.33333333333334</ele><time>2026-04-06T08:15:02Z</time></trkpt><trkpt lat="46.16055659227916" lon="12.820038066889477"><ele>206.0</ele><time>2026-04-06T08:15:03Z</time></trkpt><trkpt lat="46.16069510730036" lon="12.819929608565724"><ele>210.0</ele><time>2026-04-06T08:15:04Z</time></trkpt><trkpt lat="46.16083504587236" lon="12.819827155916462"><ele>214.0</ele><time>2026-04-06T08:15:05Z</time></trkpt><trkpt lat="46.16097669260055" lon="12.819720913551816"><ele>218.0</ele><time>2026-04-06T08:15:06Z</time></trkpt><trkpt lat="46.16111910289834" lon="12.81961648205275"><ele>218.0</ele><time>2026-04-06T08:15:07Z</time></trkpt><trkpt lat="46.16126885514996" lon="12.819519731822492"><ele>218.0</ele><time>2026-04-06T08:15:08Z</time></trkpt><trkpt lat="46.16143707551448" lon="12.819437317097794"><ele>218.0</ele><time>2026-04-06T08:15:09Z</time></trkpt><trkpt lat="46.161620675111735" lon="12.819360963922831"><ele>214.66666666666669</ele><time>2026-04-06T08:15:10Z</time></trkpt><trkpt lat="46.16181705363799" lon="12.819280949623675"><ele>211.33333333333331</ele><time>2026-04-06T08:15:11Z</time></trkpt><trkpt lat="46.16202059320856" lon="12.819202668046312"><ele>208.0</ele><time>2026-04-06T08:15:12Z</time></trkpt><trkpt lat="46.16222024621131" lon="12.819117855981258"><ele>209.66666666666666</ele><time>2026-04-06T08:15:13Z</time></trkpt><trkpt lat="46.16241258255492" lon="12.819005452792391"><ele>211.33333333333331</ele><time>2026-04-06T08:15:14Z</time></trkpt><trkpt lat="46.16259327049399" lon="12.818854550298195"><ele>213.0</ele><time>2026-04-06T08:15:15Z</time></trkpt><trkpt lat="46.16277450477621" lon="12.818675082275938"><ele>213.0</ele><time>2026-04-06T08:15:16Z</time></trkpt><trkpt lat="46.16296285547981" lon="12.818487774087975"><ele>213.0</ele><time>2026-04-06T08:15:17Z</time></trkpt><trkpt lat="46.16315700095846" lon="12.818291763065913"><ele>212.33333333333331</ele><time>2026-04-06T08:15:18Z</time></trkpt><trkpt lat="46.16334342885972" lon="12.818112698675293"><ele>211.66666666666666</ele><time>2026-04-06T08:15:19Z</time></trkpt><trkpt lat="46.163505940758014" lon="12.817956553363391"><ele>211.0</ele><time>2026-04-06T08:15:20Z</time></trkpt><trkpt lat="46.16364164948084" lon="12.817810460372613"><ele>211.0</ele><time>2026-04-06T08:15:21Z</time></trkpt><trkpt lat="46.16375141726904" lon="12.817660508308819"><ele>211.0</ele><time>2026-04-06T08:15:22Z</time></trkpt><trkpt lat="46.16383443360847" lon="12.817486839102765"><ele>211.0</ele><time>2026-04-06T08:15:23Z</time></trkpt><trkpt lat="46.16388539731934" lon="12.817276483325458"><ele>208.66666666666666</ele><time>2026-04-06T08:15:24Z</time></trkpt><trkpt lat="46.163906775664366" lon="12.817051914432344"><ele>206.33333333333331</ele><time>2026-04-06T08:15:25Z</time></trkpt><trkpt lat="46.163892089881955" lon="12.816828570830213"><ele>204.0</ele><time>2026-04-06T08:15:26Z</time></trkpt><trkpt lat="46.16385380903635" lon="12.816636626556429"><ele>203.33333333333331</ele><time>2026-04-06T08:15:27Z</time></trkpt><trkpt lat="46.1638164522703" lon="12.81643903165787"><ele>202.66666666666666</ele><time>2026-04-06T08:15:28Z</time></trkpt><trkpt lat="46.16378207650213" lon="12.816221299569035"><ele>202.0</ele><time>2026-04-06T08:15:29Z</time></trkpt><trkpt lat="46.16374597808578" lon="12.815994987979952"><ele>201.66666666666666</ele><time>2026-04-06T08:15:30Z</time></trkpt><trkpt lat="46.16370861108848" lon="12.815759155794273"><ele>201.33333333333331</ele><time>2026-04-06T08:15:31Z</time></trkpt><trkpt lat="46.16367415180086" lon="12.815528622808054"><ele>201.0</ele><time>2026-04-06T08:15:32Z</time></trkpt><trkpt lat="46.16363781549495" lon="12.815298892491697"><ele>201.5</ele><time>2026-04-06T08:15:33Z</time></trkpt><trkpt lat="46.16360028446428" lon="12.815075199069918"><ele>202.0</ele><time>2026-04-06T08:15:34Z</time></trkpt><trkpt lat="46.16357115152428" lon="12.81488742944846"><ele>202.5</ele><time>2026-04-06T08:15:35Z</time></trkpt><trkpt lat="46.16355006087694" lon="12.814741381503723"><ele>203.0</ele><time>2026-04-06T08:15:36Z</time></trkpt><trkpt lat="46.16352984831168" lon="12.814600161108395"><ele>203.00000000000003</ele><time>2026-04-06T08:15:37Z</time></trkpt><trkpt lat="46.16351199023307" lon="12.814481347206504"><ele>203.0</ele><time>2026-04-06T08:15:38Z</time></trkpt><trkpt lat="46.163497330801135" lon="12.814377810070999"><ele>203.0</ele><time>2026-04-06T08:15:39Z</time></trkpt><trkpt lat="46.16347054816847" lon="12.814277497235526"><ele>203.0</ele><time>2026-04-06T08:15:40Z</time></trkpt><trkpt lat="46.16341478777455" lon="12.814193087219579"><ele>203.00000000000003</ele><time>2026-04-06T08:15:41Z</time></trkpt><trkpt lat="46.16333116766903" lon="12.81413939630502"><ele>203.0</ele><time>2026-04-06T08:15:42Z</time></trkpt><trkpt lat="46.163222423805585" lon="12.81412664158905"><ele>205.5</ele><time>2026-04-06T08:15:43Z</time></trkpt><trkpt lat="46.16311574872989" lon="12.814133086854754"><ele>208.0</ele><time>2026-04-06T08:15:44Z</time></trkpt><trkpt lat="46.16300477896156" lon="12.814136709640874"><ele>210.5</ele><time>2026-04-06T08:15:45Z</time></trkpt><trkpt lat="46.16288853464413" lon="12.814126952858418"><ele>213.0</ele><time>2026-04-06T08:15:46Z</time></trkpt><trkpt lat="46.16276306505151" lon="12.81407136962284"><ele>213.0</ele><time>2026-04-06T08:15:47Z</time></trkpt><trkpt lat="46.162644183626064" lon="12.813980911355348"><ele>213.0</ele><time>2026-04-06T08:15:48Z</time></trkpt><trkpt lat="46.16253891430417" lon="12.813860673215865"><ele>213.0</ele><time>2026-04-06T08:15:49Z</time></trkpt><trkpt lat="46.16244727855862" lon="12.813695085705604"><ele>213.0</ele><time>2026-04-06T08:15:50Z</time></trkpt><trkpt lat="46.16239057136725" lon="12.813481232776079"><ele>211.33333333333331</ele><time>2026-04-06T08:15:51Z</time></trkpt><trkpt lat="46.16231587918962" lon="12.813286144431446"><ele>209.66666666666666</ele><time>2026-04-06T08:15:52Z</time></trkpt><trkpt lat="46.162239434931614" lon="12.813086240921528"><ele>208.0</ele><time>2026-04-06T08:15:53Z</time></trkpt><trkpt lat="46.16216323791012" lon="12.81288558103891"><ele>208.0</ele><time>2026-04-06T08:15:54Z</time></trkpt><trkpt lat="46.162090189216" lon="12.812692460915283"><ele>208.0</ele><time>2026-04-06T08:15:55Z</time></trkpt><trkpt lat="46.16201872176555" lon="12.812504317419029"><ele>208.0</ele><time>2026-04-06T08:15:56Z</time></trkpt><trkpt lat="46.16194824952209" lon="12.812318911046896"><ele>208.0</ele><time>2026-04-06T08:15:57Z</time></trkpt><trkpt lat="46.161880916491945" lon="12.812141763668183"><ele>210.25</ele><time>2026-04-06T08:15:58Z</time></trkpt><trkpt lat="46.16182171659889" lon="12.811986911736044"><ele>212.5</ele><time>2026-04-06T08:15:59Z</time></trkpt><trkpt lat="46.16176153847052" lon="12.81183246353851"><ele>214.75</ele><time>2026-04-06T08:16:00Z</time></trkpt><trkpt lat="46.161702573452814" lon="12.811681281239666"><ele>217.0</ele><time>2026-04-06T08:16:01Z</time></trkpt><trkpt lat="46.16164797298708" lon="12.81152718512143"><ele>218.5</ele><time>2026-04-06T08:16:02Z</time></trkpt><trkpt lat="46.16159631306583" lon="12.811372322421905"><ele>220.0</ele><time>2026-04-06T08:16:03Z</time></trkpt><trkpt lat="46.1615595645018" lon="12.811209475331516"><ele>221.5</ele><time>2026-04-06T08:16:04Z</time></trkpt><trkpt lat="46.16154383995031" lon="12.811036195944714"><ele>223.0</ele><time>2026-04-06T08:16:05Z</time></trkpt><trkpt lat="46.16154260031431" lon="12.810854752070602"><ele>223.5</ele><time>2026-04-06T08:16:06Z</time></trkpt><trkpt lat="46.16156471558412" lon="12.810672682765233"><ele>224.0</ele><time>2026-04-06T08:16:07Z</time></trkpt><trkpt lat="46.161598820805594" lon="12.810488382049412"><ele>224.5</ele><time>2026-04-06T08:16:08Z</time></trkpt><trkpt lat="46.16162860223676" lon="12.810292874718725"><ele>225.0</ele><time>2026-04-06T08:16:09Z</time></trkpt><trkpt lat="46.1616923328173" lon="12.810107917621025"><ele>225.25</ele><time>2026-04-06T08:16:09.999Z</time></trkpt><trkpt lat="46.16173799997473" lon="12.809910527449954"><ele>225.5</ele><time>2026-04-06T08:16:10.999Z</time></trkpt><trkpt lat="46.161776725745256" lon="12.809714730660279"><ele>225.75</ele><time>2026-04-06T08:16:11.999Z</time></trkpt><trkpt lat="46.16180632604332" lon="12.809517652174012"><ele>226.0</ele><time>2026-04-06T08:16:12.999Z</time></trkpt><trkpt lat="46.161830762765405" lon="12.80933807841011"><ele>226.0</ele><time>2026-04-06T08:16:13.999Z</time></trkpt><trkpt lat="46.16185312408522" lon="12.809161895277253"><ele>226.0</ele><time>2026-04-06T08:16:14.999Z</time></trkpt><trkpt lat="46.16187512350343" lon="12.808988563532013"><ele>226.0</ele><time>2026-04-06T08:16:15.999Z</time></trkpt><trkpt lat="46.16189671890591" lon="12.808818415002376"><ele>226.0</ele><time>2026-04-06T08:16:16.999Z</time></trkpt><trkpt lat="46.16191841759962" lon="12.808647452641633"><ele>226.0</ele><time>2026-04-06T08:16:17.999Z</time></trkpt><trkpt lat="46.16194113372936" lon="12.808468473980827"><ele>226.0</ele><time>2026-04-06T08:16:18.999Z</time></trkpt><trkpt lat="46.1619637253433" lon="12.808290476329972"><ele>226.0</ele><time>2026-04-06T08:16:19.999Z</time></trkpt><trkpt lat="46.161986355824375" lon="12.808111407907644"><ele>226.0</ele><time>2026-04-06T08:16:20.999Z</time></trkpt><trkpt lat="46.16201060079701" lon="12.807919783333844"><ele>226.0</ele><time>2026-04-06T08:16:21.999Z</time></trkpt><trkpt lat="46.16203642279577" lon="12.807714920733906"><ele>226.0</ele><time>2026-04-06T08:16:22.999Z</time></trkpt><trkpt lat="46.16206482898432" lon="12.807488283054557"><ele>226.0</ele><time>2026-04-06T08:16:23.999Z</time></trkpt><trkpt lat="46.16209511170664" lon="12.807246673512156"><ele>226.0</ele><time>2026-04-06T08:16:24.999Z</time></trkpt><trkpt lat="46.16212575152582" lon="12.807000822561463"><ele>226.0</ele><time>2026-04-06T08:16:25.999Z</time></trkpt><trkpt lat="46.16215758030317" lon="12.806734475986179"><ele>226.0</ele><time>2026-04-06T08:16:26.999Z</time></trkpt><trkpt lat="46.16218585777901" lon="12.806446708307483"><ele>226.0</ele><time>2026-04-06T08:16:27.999Z</time></trkpt><trkpt lat="46.1622104992382" lon="12.806135157530548"><ele>226.0</ele><time>2026-04-06T08:16:28.999Z</time></trkpt><trkpt lat="46.16222472415702" lon="12.805812975123997"><ele>226.0</ele><time>2026-04-06T08:16:29.999Z</time></trkpt><trkpt lat="46.16223607185672" lon="12.805489049880523"><ele>226.0</ele><time>2026-04-06T08:16:30.999Z</time></trkpt><trkpt lat="46.16224635015508" lon="12.805177786536417"><ele>226.0</ele><time>2026-04-06T08:16:31.999Z</time></trkpt><trkpt lat="46.16225557383764" lon="12.80488412509077"><ele>226.0</ele><time>2026-04-06T08:16:32.999Z</time></trkpt><trkpt lat="46.16226407672109" lon="12.804613412279078"><ele>226.0</ele><time>2026-04-06T08:16:34Z</time></trkpt><trkpt lat="46.16227208241329" lon="12.804358528923656"><ele>226.0</ele><time>2026-04-06T08:16:35Z</time></trkpt><trkpt lat="46.162279699217194" lon="12.804116026900457"><ele>226.0</ele><time>2026-04-06T08:16:36Z</time></trkpt><trkpt lat="46.162287588889846" lon="12.803864837339816"><ele>226.0</ele><time>2026-04-06T08:16:37Z</time></trkpt><trkpt lat="46.16229555526978" lon="12.803611205592908"><ele>226.0</ele><time>2026-04-06T08:16:38Z</time></trkpt><trkpt lat="46.16230375990396" lon="12.803349988346568"><ele>226.0</ele><time>2026-04-06T08:16:39Z</time></trkpt><trkpt lat="46.16231214744951" lon="12.80308294759214"><ele>226.0</ele><time>2026-04-06T08:16:40Z</time></trkpt><trkpt lat="46.16232065683099" lon="12.802816192939638"><ele>226.0</ele><time>2026-04-06T08:16:41Z</time></trkpt><trkpt lat="46.162329186999514" lon="12.802552452015808"><ele>226.0</ele><time>2026-04-06T08:16:42Z</time></trkpt><trkpt lat="46.16232232505239" lon="12.802280246868234"><ele>226.33333333333331</ele><time>2026-04-06T08:16:43Z</time></trkpt><trkpt lat="46.16233042054482" lon="12.80200437011413"><ele>226.66666666666669</ele><time>2026-04-06T08:16:44Z</time></trkpt><trkpt lat="46.16233972579587" lon="12.801720301266126"><ele>227.0</ele><time>2026-04-06T08:16:45Z</time></trkpt><trkpt lat="46.16236494884444" lon="12.801446745646146"><ele>227.66666666666669</ele><time>2026-04-06T08:16:46Z</time></trkpt><trkpt lat="46.16237381531914" lon="12.801172606575165"><ele>228.33333333333331</ele><time>2026-04-06T08:16:47Z</time></trkpt><trkpt lat="46.16238254205464" lon="12.800902788087734"><ele>229.0</ele><time>2026-04-06T08:16:48Z</time></trkpt><trkpt lat="46.162374569307566" lon="12.800630454175774"><ele>229.0</ele><time>2026-04-06T08:16:49Z</time></trkpt><trkpt lat="46.162398980640894" lon="12.800359128390113"><ele>229.0</ele><time>2026-04-06T08:16:50Z</time></trkpt><trkpt lat="46.162393766118434" lon="12.8000861082929"><ele>229.0</ele><time>2026-04-06T08:16:51Z</time></trkpt><trkpt lat="46.16240196222873" lon="12.799823768914273"><ele>228.33333333333331</ele><time>2026-04-06T08:16:52Z</time></trkpt><trkpt lat="46.16241185466111" lon="12.799559425944489"><ele>227.66666666666669</ele><time>2026-04-06T08:16:53Z</time></trkpt><trkpt lat="46.16242417234692" lon="12.799295721762544"><ele>227.0</ele><time>2026-04-06T08:16:54Z</time></trkpt><trkpt lat="46.16244300248677" lon="12.799023882237341"><ele>227.0</ele><time>2026-04-06T08:16:55Z</time></trkpt><trkpt lat="46.162470814910996" lon="12.798741674517352"><ele>227.0</ele><time>2026-04-06T08:16:56Z</time></trkpt><trkpt lat="46.16250235949516" lon="12.798465099804547"><ele>227.0</ele><time>2026-04-06T08:16:57Z</time></trkpt><trkpt lat="46.16254047763179" lon="12.798183757925528"><ele>227.0</ele><time>2026-04-06T08:16:58Z</time></trkpt><trkpt lat="46.162585099932784" lon="12.797907734278553"><ele>227.0</ele><time>2026-04-06T08:16:59Z</time></trkpt><trkpt lat="46.16263423051625" lon="12.797629088668696"><ele>227.0</ele><time>2026-04-06T08:17:00Z</time></trkpt><trkpt lat="46.16268362686277" lon="12.797364580979387"><ele>227.33333333333334</ele><time>2026-04-06T08:17:01Z</time></trkpt><trkpt lat="46.16273272265975" lon="12.797114582842376"><ele>227.66666666666669</ele><time>2026-04-06T08:17:02Z</time></trkpt><trkpt lat="46.162781046172796" lon="12.796868376400502"><ele>228.0</ele><time>2026-04-06T08:17:03Z</time></trkpt><trkpt lat="46.162834338187814" lon="12.7966205486145"><ele>228.66666666666669</ele><time>2026-04-06T08:17:04Z</time></trkpt><trkpt lat="46.16288664359911" lon="12.796354630999689"><ele>229.33333333333334</ele><time>2026-04-06T08:17:05Z</time></trkpt><trkpt lat="46.16294012964504" lon="12.796090390602382"><ele>230.0</ele><time>2026-04-06T08:17:06Z</time></trkpt><trkpt lat="46.162990723236526" lon="12.795837705498865"><ele>230.0</ele><time>2026-04-06T08:17:07Z</time></trkpt><trkpt lat="46.16305410832191" lon="12.795612418093404"><ele>230.0</ele><time>2026-04-06T08:17:08Z</time></trkpt><trkpt lat="46.163103128577134" lon="12.795377413169106"><ele>230.0</ele><time>2026-04-06T08:17:09Z</time></trkpt><trkpt lat="46.16314903757865" lon="12.795154126119703"><ele>230.0</ele><time>2026-04-06T08:17:10Z</time></trkpt><trkpt lat="46.16319591365759" lon="12.794926811171004"><ele>230.0</ele><time>2026-04-06T08:17:11Z</time></trkpt><trkpt lat="46.16324393778846" lon="12.79469392900616"><ele>230.0</ele><time>2026-04-06T08:17:12Z</time></trkpt><trkpt lat="46.16329260315823" lon="12.79445793729509"><ele>230.0</ele><time>2026-04-06T08:17:13Z</time></trkpt><trkpt lat="46.163325548625465" lon="12.794198888269609"><ele>230.0</ele><time>2026-04-06T08:17:14Z</time></trkpt><trkpt lat="46.163379918885084" lon="12.793942985832953"><ele>230.0</ele><time>2026-04-06T08:17:15Z</time></trkpt><trkpt lat="46.163431763491886" lon="12.793696247739398"><ele>230.33333333333334</ele><time>2026-04-06T08:17:16Z</time></trkpt><trkpt lat="46.163483516251034" lon="12.793448960907593"><ele>230.66666666666669</ele><time>2026-04-06T08:17:17Z</time></trkpt><trkpt lat="46.163536146823056" lon="12.793196121475766"><ele>231.0</ele><time>2026-04-06T08:17:18Z</time></trkpt><trkpt lat="46.163587859494065" lon="12.792945248886383"><ele>231.0</ele><time>2026-04-06T08:17:19Z</time></trkpt><trkpt lat="46.16363600167519" lon="12.792703138569838"><ele>231.0</ele><time>2026-04-06T08:17:20Z</time></trkpt><trkpt lat="46.16368459311657" lon="12.792466642615244"><ele>231.0</ele><time>2026-04-06T08:17:21Z</time></trkpt><trkpt lat="46.163732739908056" lon="12.792232688821795"><ele>231.0</ele><time>2026-04-06T08:17:22Z</time></trkpt><trkpt lat="46.16377700829673" lon="12.792008935811218"><ele>231.0</ele><time>2026-04-06T08:17:23Z</time></trkpt><trkpt lat="46.16381990011616" lon="12.791787547776833"><ele>231.0</ele><time>2026-04-06T08:17:24Z</time></trkpt><trkpt lat="46.16387834176021" lon="12.791572420380987"><ele>231.0</ele><time>2026-04-06T08:17:25Z</time></trkpt><trkpt lat="46.16391825637117" lon="12.791355514690487"><ele>231.0</ele><time>2026-04-06T08:17:26Z</time></trkpt><trkpt lat="46.16394158139699" lon="12.791118168313295"><ele>231.0</ele><time>2026-04-06T08:17:27Z</time></trkpt><trkpt lat="46.16397946526892" lon="12.790880725725124"><ele>231.0</ele><time>2026-04-06T08:17:28Z</time></trkpt><trkpt lat="46.16401586219424" lon="12.790636119298847"><ele>231.0</ele><time>2026-04-06T08:17:29Z</time></trkpt><trkpt lat="46.164048634738826" lon="12.790378803814919"><ele>231.0</ele><time>2026-04-06T08:17:30Z</time></trkpt><trkpt lat="46.16408014734169" lon="12.79012225189206"><ele>231.0</ele><time>2026-04-06T08:17:31Z</time></trkpt><trkpt lat="46.16410969544688" lon="12.789862524485319"><ele>231.0</ele><time>2026-04-06T08:17:32Z</time></trkpt><trkpt lat="46.16413640528926" lon="12.789605255163636"><ele>231.0</ele><time>2026-04-06T08:17:33Z</time></trkpt><trkpt lat="46.16416283797604" lon="12.789344169354516"><ele>231.0</ele><time>2026-04-06T08:17:34Z</time></trkpt><trkpt lat="46.16419039075081" lon="12.789077053518584"><ele>231.0</ele><time>2026-04-06T08:17:35Z</time></trkpt><trkpt lat="46.16421807347088" lon="12.788816473535448"><ele>231.0</ele><time>2026-04-06T08:17:36Z</time></trkpt><trkpt lat="46.164247431788695" lon="12.788542701726"><ele>230.66666666666669</ele><time>2026-04-06T08:17:37Z</time></trkpt><trkpt lat="46.16427627590503" lon="12.788264028799333"><ele>230.33333333333334</ele><time>2026-04-06T08:17:38Z</time></trkpt><trkpt lat="46.164305135982616" lon="12.787978495493629"><ele>230.0</ele><time>2026-04-06T08:17:39Z</time></trkpt><trkpt lat="46.1643361201241" lon="12.787693703564928"><ele>230.0</ele><time>2026-04-06T08:17:40Z</time></trkpt><trkpt lat="46.164365205115736" lon="12.787410724997615"><ele>230.0</ele><time>2026-04-06T08:17:41Z</time></trkpt><trkpt lat="46.16439346206979" lon="12.787130687529928"><ele>230.0</ele><time>2026-04-06T08:17:42Z</time></trkpt><trkpt lat="46.164421087970126" lon="12.786851686244619"><ele>230.0</ele><time>2026-04-06T08:17:43Z</time></trkpt><trkpt lat="46.16444859830496" lon="12.786580476709855"><ele>230.0</ele><time>2026-04-06T08:17:44Z</time></trkpt><trkpt lat="46.16447603498629" lon="12.78631174433314"><ele>230.0</ele><time>2026-04-06T08:17:45Z</time></trkpt><trkpt lat="46.16450308556603" lon="12.78604669760521"><ele>230.33333333333334</ele><time>2026-04-06T08:17:46Z</time></trkpt><trkpt lat="46.164547092725904" lon="12.785778668381363"><ele>230.66666666666669</ele><time>2026-04-06T08:17:47Z</time></trkpt><trkpt lat="46.16457460268066" lon="12.785515137877733"><ele>231.0</ele><time>2026-04-06T08:17:48Z</time></trkpt><trkpt lat="46.16460210961478" lon="12.785246126448804"><ele>231.0</ele><time>2026-04-06T08:17:49Z</time></trkpt><trkpt lat="46.16461207037936" lon="12.784977869607653"><ele>231.0</ele><time>2026-04-06T08:17:50Z</time></trkpt><trkpt lat="46.164639328178076" lon="12.784717624582436"><ele>231.0</ele><time>2026-04-06T08:17:51Z</time></trkpt><trkpt lat="46.164666016384864" lon="12.784458441823755"><ele>231.33333333333331</ele><time>2026-04-06T08:17:52Z</time></trkpt><trkpt lat="46.16469396382646" lon="12.78419738941411"><ele>231.66666666666666</ele><time>2026-04-06T08:17:53Z</time></trkpt><trkpt lat="46.16472222975337" lon="12.783935959944731"><ele>232.0</ele><time>2026-04-06T08:17:54Z</time></trkpt><trkpt lat="46.16474940495776" lon="12.783674964743433"><ele>232.0</ele><time>2026-04-06T08:17:55Z</time></trkpt><trkpt lat="46.16477567120258" lon="12.783417410541343"><ele>232.0</ele><time>2026-04-06T08:17:56Z</time></trkpt><trkpt lat="46.164802480624864" lon="12.78316671142042"><ele>232.0</ele><time>2026-04-06T08:17:57Z</time></trkpt><trkpt lat="46.16482896900307" lon="12.782915835957246"><ele>231.66666666666666</ele><time>2026-04-06T08:17:58Z</time></trkpt><trkpt lat="46.16485440767265" lon="12.782660725417067"><ele>231.33333333333331</ele><time>2026-04-06T08:17:59Z</time></trkpt><trkpt lat="46.16488015163002" lon="12.782411392266017"><ele>231.0</ele><time>2026-04-06T08:18:00Z</time></trkpt><trkpt lat="46.16490489556843" lon="12.782166945011797"><ele>231.66666666666669</ele><time>2026-04-06T08:18:01Z</time></trkpt><trkpt lat="46.16494616406963" lon="12.781923639128896"><ele>232.33333333333334</ele><time>2026-04-06T08:18:02Z</time></trkpt><trkpt lat="46.16497223676935" lon="12.781675218261322"><ele>233.0</ele><time>2026-04-06T08:18:03Z</time></trkpt><trkpt lat="46.16499857154488" lon="12.78142430032925"><ele>233.0</ele><time>2026-04-06T08:18:04Z</time></trkpt><trkpt lat="46.16502535094937" lon="12.781169145986794"><ele>233.0</ele><time>2026-04-06T08:18:05Z</time></trkpt><trkpt lat="46.16503481170268" lon="12.780916184591828"><ele>233.0</ele><time>2026-04-06T08:18:06Z</time></trkpt><trkpt lat="46.165061125735775" lon="12.780664140951137"><ele>232.66666666666669</ele><time>2026-04-06T08:18:07Z</time></trkpt><trkpt lat="46.1651027474876" lon="12.780418858015672"><ele>232.33333333333331</ele><time>2026-04-06T08:18:08Z</time></trkpt><trkpt lat="46.16512834379721" lon="12.780170248433809"><ele>232.0</ele><time>2026-04-06T08:18:09Z</time></trkpt><trkpt lat="46.16515531250583" lon="12.779908309092574"><ele>231.66666666666666</ele><time>2026-04-06T08:18:10Z</time></trkpt><trkpt lat="46.16518410587098" lon="12.779628647417125"><ele>231.33333333333331</ele><time>2026-04-06T08:18:11Z</time></trkpt><trkpt lat="46.16521565837216" lon="12.779322187086343"><ele>231.0</ele><time>2026-04-06T08:18:12Z</time></trkpt><trkpt lat="46.16523642059653" lon="12.778985548423854"><ele>231.0</ele><time>2026-04-06T08:18:12.999Z</time></trkpt><trkpt lat="46.165279148843865" lon="12.778614630817863"><ele>231.0</ele><time>2026-04-06T08:18:13.999Z</time></trkpt><trkpt lat="46.16532120795215" lon="12.778232376370477"><ele>231.0</ele><time>2026-04-06T08:18:14.999Z</time></trkpt><trkpt lat="46.165367548955544" lon="12.77781723883932"><ele>231.0</ele><time>2026-04-06T08:18:15.999Z</time></trkpt><trkpt lat="46.16540918375111" lon="12.77746118631319"><ele>231.0</ele><time>2026-04-06T08:18:16.999Z</time></trkpt><trkpt lat="46.16546148759587" lon="12.776960176028483"><ele>231.0</ele><time>2026-04-06T08:18:17.999Z</time></trkpt><trkpt lat="46.16550552384683" lon="12.776538429740626"><ele>231.0</ele><time>2026-04-06T08:18:18.999Z</time></trkpt><trkpt lat="46.16554198151191" lon="12.77618926572612"><ele>231.0</ele><time>2026-04-06T08:18:19.999Z</time></trkpt><trkpt lat="46.1655713853278" lon="12.775907657827965"><ele>231.0</ele><time>2026-04-06T08:18:20.999Z</time></trkpt><trkpt lat="46.16559800395109" lon="12.775658076481704"><ele>231.0</ele><time>2026-04-06T08:18:21.999Z</time></trkpt><trkpt lat="46.16562617239056" lon="12.775395360688522"><ele>231.0</ele><time>2026-04-06T08:18:22.999Z</time></trkpt><trkpt lat="46.16566230424257" lon="12.77504786459974"><ele>231.0</ele><time>2026-04-06T08:18:23.999Z</time></trkpt><trkpt lat="46.16570581832177" lon="12.774624604962298"><ele>231.5</ele><time>2026-04-06T08:18:24.999Z</time></trkpt><trkpt lat="46.16574153972381" lon="12.774138407471085"><ele>232.0</ele><time>2026-04-06T08:18:25.999Z</time></trkpt><trkpt lat="46.16580396127419" lon="12.773690161689467"><ele>232.0</ele><time>2026-04-06T08:18:26.999Z</time></trkpt><trkpt lat="46.16585151773623" lon="12.77327022798052"><ele>232.0</ele><time>2026-04-06T08:18:27.999Z</time></trkpt><trkpt lat="46.16589862135316" lon="12.77289186212694"><ele>232.66666666666666</ele><time>2026-04-06T08:18:28.999Z</time></trkpt><trkpt lat="46.16594205352123" lon="12.772579889628208"><ele>233.33333333333331</ele><time>2026-04-06T08:18:29.999Z</time></trkpt><trkpt lat="46.165981943007274" lon="12.77230546307559"><ele>234.0</ele><time>2026-04-06T08:18:30.999Z</time></trkpt><trkpt lat="46.16600717784494" lon="12.772028455518953"><ele>233.66666666666669</ele><time>2026-04-06T08:18:31.999Z</time></trkpt><trkpt lat="46.16605410970311" lon="12.771763968868498"><ele>233.33333333333334</ele><time>2026-04-06T08:18:32.999Z</time></trkpt><trkpt lat="46.16609913359929" lon="12.771517844324793"><ele>233.0</ele><time>2026-04-06T08:18:33.999Z</time></trkpt><trkpt lat="46.16615119261531" lon="12.771259308773809"><ele>232.66666666666669</ele><time>2026-04-06T08:18:34.999Z</time></trkpt><trkpt lat="46.166211712640184" lon="12.770971379726609"><ele>232.33333333333331</ele><time>2026-04-06T08:18:35.999Z</time></trkpt><trkpt lat="46.166280212988795" lon="12.770658266549932"><ele>232.0</ele><time>2026-04-06T08:18:36.999Z</time></trkpt><trkpt lat="46.166371542390074" lon="12.770334709623151"><ele>231.5</ele><time>2026-04-06T08:18:37.999Z</time></trkpt><trkpt lat="46.16645648248516" lon="12.7699979569723"><ele>231.0</ele><time>2026-04-06T08:18:39Z</time></trkpt><trkpt lat="46.16654983153013" lon="12.769634600005281"><ele>231.5</ele><time>2026-04-06T08:18:40Z</time></trkpt><trkpt lat="46.166654400625156" lon="12.769235708966825"><ele>232.0</ele><time>2026-04-06T08:18:41Z</time></trkpt><trkpt lat="46.166768597628774" lon="12.768791690288454"><ele>232.5</ele><time>2026-04-06T08:18:42Z</time></trkpt><trkpt lat="46.166894876222955" lon="12.76830993458909"><ele>233.0</ele><time>2026-04-06T08:18:43Z</time></trkpt><trkpt lat="46.1670266128509" lon="12.76780491288223"><ele>232.5</ele><time>2026-04-06T08:18:44Z</time></trkpt><trkpt lat="46.16714752437308" lon="12.767334986411912"><ele>232.0</ele><time>2026-04-06T08:18:45Z</time></trkpt><trkpt lat="46.167259496901345" lon="12.76689979418219"><ele>232.5</ele><time>2026-04-06T08:18:46Z</time></trkpt><trkpt lat="46.16736576972762" lon="12.766483012343071"><ele>233.0</ele><time>2026-04-06T08:18:47Z</time></trkpt><trkpt lat="46.16745165951264" lon="12.766083506588995"><ele>233.0</ele><time>2026-04-06T08:18:48Z</time></trkpt><trkpt lat="46.167554017125084" lon="12.765689963673069"><ele>233.0</ele><time>2026-04-06T08:18:49Z</time></trkpt><trkpt lat="46.16765929678405" lon="12.765298765021702"><ele>232.5</ele><time>2026-04-06T08:18:50Z</time></trkpt><trkpt lat="46.167760574616096" lon="12.764911081744042"><ele>232.0</ele><time>2026-04-06T08:18:51Z</time></trkpt><trkpt lat="46.16785732755845" lon="12.764531634050552"><ele>232.5</ele><time>2026-04-06T08:18:52Z</time></trkpt><trkpt lat="46.16795375090141" lon="12.764159967138017"><ele>233.0</ele><time>2026-04-06T08:18:53Z</time></trkpt><trkpt lat="46.16804430778149" lon="12.763810729460019"><ele>232.5</ele><time>2026-04-06T08:18:54Z</time></trkpt><trkpt lat="46.16813054840587" lon="12.763479111846575"><ele>232.0</ele><time>2026-04-06T08:18:55Z</time></trkpt><trkpt lat="46.16821712772668" lon="12.763142427200657"><ele>231.5</ele><time>2026-04-06T08:18:56Z</time></trkpt><trkpt lat="46.16830616492614" lon="12.762809018828476"><ele>231.0</ele><time>2026-04-06T08:18:57Z</time></trkpt><trkpt lat="46.168387377574774" lon="12.76249666321982"><ele>231.0</ele><time>2026-04-06T08:18:58Z</time></trkpt><trkpt lat="46.16846735025802" lon="12.76218423503706"><ele>231.0</ele><time>2026-04-06T08:18:59Z</time></trkpt><trkpt lat="46.1685519395848" lon="12.761862456057026"><ele>230.0</ele><time>2026-04-06T08:19:00Z</time></trkpt><trkpt lat="46.16863744529567" lon="12.761535238816448"><ele>229.0</ele><time>2026-04-06T08:19:01Z</time></trkpt><trkpt lat="46.16872297189437" lon="12.761204989138845"><ele>227.5</ele><time>2026-04-06T08:19:02Z</time></trkpt><trkpt lat="46.16880910974783" lon="12.760871617847355"><ele>226.0</ele><time>2026-04-06T08:19:03Z</time></trkpt><trkpt lat="46.16889751855981" lon="12.760529048135538"><ele>225.5</ele><time>2026-04-06T08:19:04Z</time></trkpt><trkpt lat="46.16898459329523" lon="12.760177340626813"><ele>225.0</ele><time>2026-04-06T08:19:05Z</time></trkpt><trkpt lat="46.16907284586956" lon="12.759816900635055"><ele>228.0</ele><time>2026-04-06T08:19:06Z</time></trkpt><trkpt lat="46.16915415787428" lon="12.759444233644675"><ele>231.0</ele><time>2026-04-06T08:19:07Z</time></trkpt><trkpt lat="46.16923087681621" lon="12.759058118113932"><ele>231.0</ele><time>2026-04-06T08:19:08Z</time></trkpt><trkpt lat="46.16930467381914" lon="12.758655717527626"><ele>231.0</ele><time>2026-04-06T08:19:09Z</time></trkpt><trkpt lat="46.16937247063053" lon="12.758249110797871"><ele>230.5</ele><time>2026-04-06T08:19:10Z</time></trkpt><trkpt lat="46.16943571395797" lon="12.757839081638101"><ele>230.0</ele><time>2026-04-06T08:19:11Z</time></trkpt><trkpt lat="46.16949955315871" lon="12.757430014771295"><ele>229.0</ele><time>2026-04-06T08:19:12Z</time></trkpt><trkpt lat="46.1695662403726" lon="12.757019052498238"><ele>228.0</ele><time>2026-04-06T08:19:13Z</time></trkpt><trkpt lat="46.1696343476967" lon="12.756607450285973"><ele>228.0</ele><time>2026-04-06T08:19:14Z</time></trkpt><trkpt lat="46.16970148597299" lon="12.756200076202994"><ele>228.0</ele><time>2026-04-06T08:19:15Z</time></trkpt><trkpt lat="46.169762191944876" lon="12.7558163853174"><ele>228.5</ele><time>2026-04-06T08:19:16Z</time></trkpt><trkpt lat="46.16981780252444" lon="12.755455492462913"><ele>229.0</ele><time>2026-04-06T08:19:17Z</time></trkpt><trkpt lat="46.16986827846192" lon="12.755118399909387"><ele>230.5</ele><time>2026-04-06T08:19:18Z</time></trkpt><trkpt lat="46.16992056839829" lon="12.754791094671488"><ele>232.0</ele><time>2026-04-06T08:19:19Z</time></trkpt><trkpt lat="46.169970057945065" lon="12.754468327881076"><ele>233.0</ele><time>2026-04-06T08:19:20Z</time></trkpt><trkpt lat="46.17002301246077" lon="12.754146289398005"><ele>234.0</ele><time>2026-04-06T08:19:21Z</time></trkpt><trkpt lat="46.17007772167024" lon="12.753817956906666"><ele>234.0</ele><time>2026-04-06T08:19:22Z</time></trkpt><trkpt lat="46.1701345482121" lon="12.753481114772576"><ele>234.0</ele><time>2026-04-06T08:19:23Z</time></trkpt><trkpt lat="46.17019271545478" lon="12.753142123512106"><ele>234.0</ele><time>2026-04-06T08:19:24Z</time></trkpt><trkpt lat="46.17024625697268" lon="12.752804608496607"><ele>234.0</ele><time>2026-04-06T08:19:25Z</time></trkpt><trkpt lat="46.17029952453332" lon="12.752465493131051"><ele>234.5</ele><time>2026-04-06T08:19:26Z</time></trkpt><trkpt lat="46.170349926738204" lon="12.752111500913776"><ele>235.0</ele><time>2026-04-06T08:19:27Z</time></trkpt><trkpt lat="46.17041577619118" lon="12.751730507812466"><ele>235.0</ele><time>2026-04-06T08:19:28Z</time></trkpt><trkpt lat="46.170481637792186" lon="12.751292752806652"><ele>235.0</ele><time>2026-04-06T08:19:29Z</time></trkpt><trkpt lat="46.170564246861666" lon="12.75082197176835"><ele>235.0</ele><time>2026-04-06T08:19:30Z</time></trkpt><trkpt lat="46.17064562853443" lon="12.750338178332953"><ele>235.0</ele><time>2026-04-06T08:19:31Z</time></trkpt><trkpt lat="46.17071530267791" lon="12.749896856630334"><ele>236.5</ele><time>2026-04-06T08:19:32Z</time></trkpt><trkpt lat="46.17077865831141" lon="12.749493903815917"><ele>238.0</ele><time>2026-04-06T08:19:33Z</time></trkpt><trkpt lat="46.170840168510146" lon="12.749119386500784"><ele>238.0</ele><time>2026-04-06T08:19:34Z</time></trkpt><trkpt lat="46.170898376273804" lon="12.748771480570662"><ele>238.0</ele><time>2026-04-06T08:19:35Z</time></trkpt><trkpt lat="46.1709517218843" lon="12.748439076189282"><ele>238.0</ele><time>2026-04-06T08:19:36Z</time></trkpt><trkpt lat="46.171004667409434" lon="12.748119184645022"><ele>238.0</ele><time>2026-04-06T08:19:37Z</time></trkpt><trkpt lat="46.17105653781169" lon="12.747798644243383"><ele>239.0</ele><time>2026-04-06T08:19:38Z</time></trkpt><trkpt lat="46.17111101273155" lon="12.74746162350567"><ele>240.0</ele><time>2026-04-06T08:19:39Z</time></trkpt><trkpt lat="46.17116627741483" lon="12.74711096332227"><ele>241.0</ele><time>2026-04-06T08:19:40Z</time></trkpt><trkpt lat="46.171225775888324" lon="12.746742460887548"><ele>242.0</ele><time>2026-04-06T08:19:41Z</time></trkpt><trkpt lat="46.17128475434295" lon="12.746364179541368"><ele>242.5</ele><time>2026-04-06T08:19:42Z</time></trkpt><trkpt lat="46.17134465528429" lon="12.745983377582329"><ele>243.0</ele><time>2026-04-06T08:19:43Z</time></trkpt><trkpt lat="46.1714074858112" lon="12.745601849742952"><ele>243.0</ele><time>2026-04-06T08:19:44Z</time></trkpt><trkpt lat="46.17147332243341" lon="12.745210995859782"><ele>243.0</ele><time>2026-04-06T08:19:45Z</time></trkpt><trkpt lat="46.17153774037624" lon="12.744812997867841"><ele>243.0</ele><time>2026-04-06T08:19:46Z</time></trkpt><trkpt lat="46.17160265379971" lon="12.744415183912322"><ele>243.0</ele><time>2026-04-06T08:19:47Z</time></trkpt><trkpt lat="46.17166395893697" lon="12.74402632871757"><ele>243.0</ele><time>2026-04-06T08:19:48Z</time></trkpt><trkpt lat="46.17172433274617" lon="12.743643481901714"><ele>243.0</ele><time>2026-04-06T08:19:49Z</time></trkpt><trkpt lat="46.1717841314542" lon="12.743277395650427"><ele>244.5</ele><time>2026-04-06T08:19:50Z</time></trkpt><trkpt lat="46.171845136048525" lon="12.742922436918015"><ele>246.0</ele><time>2026-04-06T08:19:51Z</time></trkpt><trkpt lat="46.171906333348105" lon="12.742559244001562"><ele>246.0</ele><time>2026-04-06T08:19:52Z</time></trkpt><trkpt lat="46.17196570757301" lon="12.742189447625101"><ele>246.0</ele><time>2026-04-06T08:19:53Z</time></trkpt><trkpt lat="46.17202670981859" lon="12.741819971307889"><ele>246.5</ele><time>2026-04-06T08:19:54Z</time></trkpt><trkpt lat="46.17208875231931" lon="12.741446989307713"><ele>247.0</ele><time>2026-04-06T08:19:55Z</time></trkpt><trkpt lat="46.172149197369905" lon="12.741076111000428"><ele>247.0</ele><time>2026-04-06T08:19:56Z</time></trkpt><trkpt lat="46.17220842436" lon="12.740706370400765"><ele>247.0</ele><time>2026-04-06T08:19:57Z</time></trkpt><trkpt lat="46.17226703928198" lon="12.74033992787259"><ele>246.5</ele><time>2026-04-06T08:19:58Z</time></trkpt><trkpt lat="46.17232637691337" lon="12.739974379064147"><ele>246.0</ele><time>2026-04-06T08:19:59Z</time></trkpt><trkpt lat="46.17238395000461" lon="12.739604921970972"><ele>247.0</ele><time>2026-04-06T08:20:00Z</time></trkpt><trkpt lat="46.1724443800373" lon="12.739227015658356"><ele>248.0</ele><time>2026-04-06T08:20:01Z</time></trkpt><trkpt lat="46.17250538660531" lon="12.73884526073809"><ele>249.0</ele><time>2026-04-06T08:20:02Z</time></trkpt><trkpt lat="46.17256754544757" lon="12.738459491032062"><ele>250.0</ele><time>2026-04-06T08:20:03Z</time></trkpt><trkpt lat="46.1726290907843" lon="12.738069975317604"><ele>250.5</ele><time>2026-04-06T08:20:04Z</time></trkpt><trkpt lat="46.17269246602718" lon="12.737678377540549"><ele>251.0</ele><time>2026-04-06T08:20:05Z</time></trkpt><trkpt lat="46.172759560958426" lon="12.73728032954375"><ele>251.0</ele><time>2026-04-06T08:20:06Z</time></trkpt><trkpt lat="46.172825685455614" lon="12.736883018809284"><ele>251.0</ele><time>2026-04-06T08:20:07Z</time></trkpt><trkpt lat="46.172887781013515" lon="12.736491099255002"><ele>251.0</ele><time>2026-04-06T08:20:08Z</time></trkpt><trkpt lat="46.172950550599595" lon="12.736103281971795"><ele>251.0</ele><time>2026-04-06T08:20:09Z</time></trkpt><trkpt lat="46.17301079537906" lon="12.735726209907256"><ele>252.0</ele><time>2026-04-06T08:20:10Z</time></trkpt><trkpt lat="46.17306918024557" lon="12.735356662751155"><ele>253.0</ele><time>2026-04-06T08:20:11Z</time></trkpt><trkpt lat="46.17312745843738" lon="12.73498820761278"><ele>253.5</ele><time>2026-04-06T08:20:12Z</time></trkpt><trkpt lat="46.17318772123985" lon="12.734620126244893"><ele>254.0</ele><time>2026-04-06T08:20:13Z</time></trkpt><trkpt lat="46.17324734607789" lon="12.734250761075753"><ele>254.0</ele><time>2026-04-06T08:20:13.999Z</time></trkpt><trkpt lat="46.17330771676164" lon="12.73387745666015"><ele>254.0</ele><time>2026-04-06T08:20:14.999Z</time></trkpt><trkpt lat="46.17336880133029" lon="12.733506104406585"><ele>254.5</ele><time>2026-04-06T08:20:15.999Z</time></trkpt><trkpt lat="46.17342740250966" lon="12.733150268317829"><ele>255.0</ele><time>2026-04-06T08:20:16.999Z</time></trkpt><trkpt lat="46.173485633243025" lon="12.732782603471327"><ele>255.0</ele><time>2026-04-06T08:20:17.999Z</time></trkpt><trkpt lat="46.17354530484368" lon="12.732416077778144"><ele>255.0</ele><time>2026-04-06T08:20:18.999Z</time></trkpt><trkpt lat="46.17360218345509" lon="12.732048129098116"><ele>255.5</ele><time>2026-04-06T08:20:19.999Z</time></trkpt><trkpt lat="46.17365972026743" lon="12.731678704261"><ele>256.0</ele><time>2026-04-06T08:20:20.999Z</time></trkpt><trkpt lat="46.173735196369535" lon="12.731312748431769"><ele>257.0</ele><time>2026-04-06T08:20:21.999Z</time></trkpt><trkpt lat="46.173777551985864" lon="12.73094059201641"><ele>258.0</ele><time>2026-04-06T08:20:22.999Z</time></trkpt><trkpt lat="46.173836133542544" lon="12.730577940356497"><ele>258.5</ele><time>2026-04-06T08:20:23.999Z</time></trkpt><trkpt lat="46.17389556671117" lon="12.73021497618506"><ele>259.0</ele><time>2026-04-06T08:20:24.999Z</time></trkpt><trkpt lat="46.17395565444338" lon="12.729847118963146"><ele>259.0</ele><time>2026-04-06T08:20:25.999Z</time></trkpt><trkpt lat="46.174015978765446" lon="12.729473792084757"><ele>259.0</ele><time>2026-04-06T08:20:26.999Z</time></trkpt><trkpt lat="46.174073700850535" lon="12.729103719986087"><ele>260.0</ele><time>2026-04-06T08:20:27.999Z</time></trkpt><trkpt lat="46.17413181112166" lon="12.728747587374835"><ele>261.0</ele><time>2026-04-06T08:20:28.999Z</time></trkpt><trkpt lat="46.174183966214386" lon="12.72841865846657"><ele>261.3333333333333</ele><time>2026-04-06T08:20:29.999Z</time></trkpt><trkpt lat="46.17423447678538" lon="12.728127024019537"><ele>261.66666666666663</ele><time>2026-04-06T08:20:30.999Z</time></trkpt><trkpt lat="46.17430243650802" lon="12.727871095606567"><ele>262.0</ele><time>2026-04-06T08:20:31.999Z</time></trkpt><trkpt lat="46.17438106726356" lon="12.727637206780177"><ele>262.66666666666663</ele><time>2026-04-06T08:20:32.999Z</time></trkpt><trkpt lat="46.17446813340286" lon="12.727428623442297"><ele>263.3333333333333</ele><time>2026-04-06T08:20:33.999Z</time></trkpt><trkpt lat="46.174582948949784" lon="12.727258926354288"><ele>264.0</ele><time>2026-04-06T08:20:34.999Z</time></trkpt><trkpt lat="46.17469136386591" lon="12.727085169954368"><ele>264.0</ele><time>2026-04-06T08:20:35.999Z</time></trkpt><trkpt lat="46.17480244676393" lon="12.726919158314123"><ele>264.0</ele><time>2026-04-06T08:20:36.999Z</time></trkpt><trkpt lat="46.1749037665006" lon="12.726745294748605"><ele>264.0</ele><time>2026-04-06T08:20:37.999Z</time></trkpt><trkpt lat="46.175003234933726" lon="12.72658763008993"><ele>264.0</ele><time>2026-04-06T08:20:38.999Z</time></trkpt><trkpt lat="46.175092972556406" lon="12.726411869290702"><ele>264.0</ele><time>2026-04-06T08:20:39.999Z</time></trkpt><trkpt lat="46.17517787162714" lon="12.726223850604713"><ele>264.0</ele><time>2026-04-06T08:20:40.999Z</time></trkpt><trkpt lat="46.175221248879886" lon="12.72599967360861"><ele>264.3333333333333</ele><time>2026-04-06T08:20:41.999Z</time></trkpt><trkpt lat="46.17522695446173" lon="12.725768946459239"><ele>264.66666666666663</ele><time>2026-04-06T08:20:42.999Z</time></trkpt><trkpt lat="46.17522356834221" lon="12.725545376099618"><ele>265.0</ele><time>2026-04-06T08:20:43.999Z</time></trkpt><trkpt lat="46.17519389568915" lon="12.725325720034332"><ele>264.66666666666663</ele><time>2026-04-06T08:20:45Z</time></trkpt><trkpt lat="46.17515044990405" lon="12.725111545593975"><ele>264.3333333333333</ele><time>2026-04-06T08:20:46Z</time></trkpt><trkpt lat="46.175099715096756" lon="12.724896171303273"><ele>264.0</ele><time>2026-04-06T08:20:47Z</time></trkpt><trkpt lat="46.175044790223616" lon="12.724674804922365"><ele>264.0</ele><time>2026-04-06T08:20:48Z</time></trkpt><trkpt lat="46.17499259481827" lon="12.724462415490116"><ele>264.0</ele><time>2026-04-06T08:20:49Z</time></trkpt><trkpt lat="46.1749418330028" lon="12.72425656914493"><ele>264.0</ele><time>2026-04-06T08:20:50Z</time></trkpt><trkpt lat="46.17489134932813" lon="12.724052715830634"><ele>264.3333333333333</ele><time>2026-04-06T08:20:51Z</time></trkpt><trkpt lat="46.174838606945855" lon="12.72384498714348"><ele>264.66666666666663</ele><time>2026-04-06T08:20:52Z</time></trkpt><trkpt lat="46.17478245249083" lon="12.723626557816878"><ele>265.0</ele><time>2026-04-06T08:20:53Z</time></trkpt><trkpt lat="46.174724898034064" lon="12.723397378796992"><ele>265.0</ele><time>2026-04-06T08:20:54Z</time></trkpt><trkpt lat="46.174667623336184" lon="12.723164298504559"><ele>265.0</ele><time>2026-04-06T08:20:55Z</time></trkpt><trkpt lat="46.17460790089937" lon="12.722929777936786"><ele>265.0</ele><time>2026-04-06T08:20:56Z</time></trkpt><trkpt lat="46.17454973800711" lon="12.722697422822016"><ele>265.3333333333333</ele><time>2026-04-06T08:20:57Z</time></trkpt><trkpt lat="46.174494450988654" lon="12.722477791305518"><ele>265.6666666666667</ele><time>2026-04-06T08:20:58Z</time></trkpt><trkpt lat="46.17444134602344" lon="12.722272359120259"><ele>266.0</ele><time>2026-04-06T08:20:59Z</time></trkpt><trkpt lat="46.174391456877466" lon="12.722080737385157"><ele>266.0</ele><time>2026-04-06T08:21:00Z</time></trkpt><trkpt lat="46.17434547905406" lon="12.721909897501453"><ele>266.0</ele><time>2026-04-06T08:21:01Z</time></trkpt><trkpt lat="46.17430716787071" lon="12.721771277322821"><ele>266.0</ele><time>2026-04-06T08:21:02Z</time></trkpt><trkpt lat="46.1742863498763" lon="12.721671538636794"><ele>266.0</ele><time>2026-04-06T08:21:03Z</time></trkpt><trkpt lat="46.17428225398775" lon="12.72154790853836"><ele>266.0</ele><time>2026-04-06T08:21:05Z</time></trkpt><trkpt lat="46.174304597677754" lon="12.721462738813413"><ele>265.83333333333337</ele><time>2026-04-06T08:21:07Z</time></trkpt><trkpt lat="46.17436961459554" lon="12.721380251700564"><ele>265.6666666666667</ele><time>2026-04-06T08:21:09Z</time></trkpt><trkpt lat="46.17443168149234" lon="12.721350742571367"><ele>265.5</ele><time>2026-04-06T08:21:10Z</time></trkpt><trkpt lat="46.174501213064005" lon="12.721305341979036"><ele>265.3333333333333</ele><time>2026-04-06T08:21:11Z</time></trkpt><trkpt lat="46.1745592288527" lon="12.721215215383607"><ele>265.16666666666663</ele><time>2026-04-06T08:21:12Z</time></trkpt><trkpt lat="46.1745836935359" lon="12.721112031186596"><ele>265.0</ele><time>2026-04-06T08:21:13Z</time></trkpt><trkpt lat="46.17456985479576" lon="12.721000224003003"><ele>264.6</ele><time>2026-04-06T08:21:14Z</time></trkpt><trkpt lat="46.174510598551485" lon="12.720896743807739"><ele>264.2</ele><time>2026-04-06T08:21:15Z</time></trkpt><trkpt lat="46.1744138495343" lon="12.72084126812649"><ele>263.8</ele><time>2026-04-06T08:21:16Z</time></trkpt><trkpt lat="46.17430967461638" lon="12.720856224251996"><ele>263.4</ele><time>2026-04-06T08:21:17Z</time></trkpt><trkpt lat="46.17420466714747" lon="12.720893530181852"><ele>263.0</ele><time>2026-04-06T08:21:18Z</time></trkpt><trkpt lat="46.174104982852185" lon="12.720876857229703"><ele>263.0</ele><time>2026-04-06T08:21:19Z</time></trkpt><trkpt lat="46.17402321534571" lon="12.72081306337588"><ele>263.0</ele><time>2026-04-06T08:21:20Z</time></trkpt><trkpt lat="46.173958442132765" lon="12.720694947563418"><ele>263.0</ele><time>2026-04-06T08:21:21Z</time></trkpt><trkpt lat="46.17390036317576" lon="12.720548032128084"><ele>263.0</ele><time>2026-04-06T08:21:22Z</time></trkpt><trkpt lat="46.17384052018929" lon="12.7203930829285"><ele>263.0</ele><time>2026-04-06T08:21:23Z</time></trkpt><trkpt lat="46.173778192949904" lon="12.720227366093846"><ele>262.25</ele><time>2026-04-06T08:21:24Z</time></trkpt><trkpt lat="46.17371290754141" lon="12.720050180468062"><ele>261.5</ele><time>2026-04-06T08:21:25Z</time></trkpt><trkpt lat="46.17364808908714" lon="12.719869051216637"><ele>260.75</ele><time>2026-04-06T08:21:26Z</time></trkpt><trkpt lat="46.173583057275884" lon="12.71968429700066"><ele>260.0</ele><time>2026-04-06T08:21:27Z</time></trkpt><trkpt lat="46.173516196012905" lon="12.71949084648689"><ele>260.33333333333337</ele><time>2026-04-06T08:21:28Z</time></trkpt><trkpt lat="46.17344613917256" lon="12.71928431735702"><ele>260.6666666666667</ele><time>2026-04-06T08:21:29Z</time></trkpt><trkpt lat="46.17337477068784" lon="12.719068892068524"><ele>261.0</ele><time>2026-04-06T08:21:30Z</time></trkpt><trkpt lat="46.173300182573" lon="12.718852509309434"><ele>261.0</ele><time>2026-04-06T08:21:31Z</time></trkpt><trkpt lat="46.1732267781878" lon="12.718639801409447"><ele>261.0</ele><time>2026-04-06T08:21:32Z</time></trkpt><trkpt lat="46.17315520264382" lon="12.718427994438404"><ele>261.0</ele><time>2026-04-06T08:21:33Z</time></trkpt><trkpt lat="46.17308250192124" lon="12.718211562735215"><ele>261.6666666666667</ele><time>2026-04-06T08:21:34Z</time></trkpt><trkpt lat="46.17300626858953" lon="12.717989968778868"><ele>262.33333333333337</ele><time>2026-04-06T08:21:35Z</time></trkpt><trkpt lat="46.17292821719152" lon="12.717766247000888"><ele>263.0</ele><time>2026-04-06T08:21:36Z</time></trkpt><trkpt lat="46.17284881254279" lon="12.7175466336592"><ele>263.6666666666667</ele><time>2026-04-06T08:21:37Z</time></trkpt><trkpt lat="46.172767410093684" lon="12.717330651136194"><ele>264.3333333333333</ele><time>2026-04-06T08:21:38Z</time></trkpt><trkpt lat="46.172688508428465" lon="12.717119164216392"><ele>265.0</ele><time>2026-04-06T08:21:39Z</time></trkpt><trkpt lat="46.17261717231253" lon="12.716919379073406"><ele>264.5</ele><time>2026-04-06T08:21:40Z</time></trkpt><trkpt lat="46.172547686889025" lon="12.716724656237908"><ele>264.0</ele><time>2026-04-06T08:21:41Z</time></trkpt><trkpt lat="46.1724783166801" lon="12.716538614871924"><ele>263.5</ele><time>2026-04-06T08:21:42Z</time></trkpt><trkpt lat="46.17241358724484" lon="12.716360148743451"><ele>263.0</ele><time>2026-04-06T08:21:43Z</time></trkpt><trkpt lat="46.17234902098195" lon="12.716176059126731"><ele>265.0</ele><time>2026-04-06T08:21:44Z</time></trkpt><trkpt lat="46.172283070132565" lon="12.715984566094654"><ele>267.0</ele><time>2026-04-06T08:21:45Z</time></trkpt><trkpt lat="46.172214549877694" lon="12.715790171514158"><ele>269.0</ele><time>2026-04-06T08:21:46Z</time></trkpt><trkpt lat="46.172144560431626" lon="12.715595803155432"><ele>269.0</ele><time>2026-04-06T08:21:47Z</time></trkpt><trkpt lat="46.17207512410428" lon="12.715397065737108"><ele>269.0</ele><time>2026-04-06T08:21:48Z</time></trkpt><trkpt lat="46.1720042888655" lon="12.715197294822657"><ele>269.0</ele><time>2026-04-06T08:21:49Z</time></trkpt><trkpt lat="46.17193589542572" lon="12.714999419785679"><ele>269.6666666666667</ele><time>2026-04-06T08:21:50Z</time></trkpt><trkpt lat="46.171867101354316" lon="12.71480043889093"><ele>270.3333333333333</ele><time>2026-04-06T08:21:51Z</time></trkpt><trkpt lat="46.17180109619365" lon="12.714604950185297"><ele>271.0</ele><time>2026-04-06T08:21:52Z</time></trkpt><trkpt lat="46.17173249852077" lon="12.714409933357814"><ele>271.25</ele><time>2026-04-06T08:21:53Z</time></trkpt><trkpt lat="46.171661907908934" lon="12.714222241054136"><ele>271.5</ele><time>2026-04-06T08:21:54Z</time></trkpt><trkpt lat="46.17159572185997" lon="12.71403534431125"><ele>271.75</ele><time>2026-04-06T08:21:55Z</time></trkpt><trkpt lat="46.17153192467396" lon="12.71385287672424"><ele>272.0</ele><time>2026-04-06T08:21:56Z</time></trkpt><trkpt lat="46.17147295446487" lon="12.713677077064347"><ele>273.25</ele><time>2026-04-06T08:21:57Z</time></trkpt><trkpt lat="46.17141596750336" lon="12.713513984297812"><ele>274.5</ele><time>2026-04-06T08:21:58Z</time></trkpt><trkpt lat="46.17135971545789" lon="12.713361386614329"><ele>275.75</ele><time>2026-04-06T08:21:59Z</time></trkpt><trkpt lat="46.171307046479185" lon="12.713212081266704"><ele>277.0</ele><time>2026-04-06T08:22:00Z</time></trkpt><trkpt lat="46.17125542915225" lon="12.713065056282058"><ele>277.0</ele><time>2026-04-06T08:22:01Z</time></trkpt><trkpt lat="46.171201296606014" lon="12.712916403327359"><ele>277.0</ele><time>2026-04-06T08:22:02Z</time></trkpt><trkpt lat="46.17114715120643" lon="12.712769261152602"><ele>277.0</ele><time>2026-04-06T08:22:03Z</time></trkpt><trkpt lat="46.171094649516576" lon="12.712626020947383"><ele>277.0</ele><time>2026-04-06T08:22:04Z</time></trkpt><trkpt lat="46.17103827400107" lon="12.712478754314468"><ele>277.0</ele><time>2026-04-06T08:22:05Z</time></trkpt><trkpt lat="46.17098033268162" lon="12.712326779718177"><ele>277.0</ele><time>2026-04-06T08:22:06Z</time></trkpt><trkpt lat="46.170930545964524" lon="12.712174207631383"><ele>277.0</ele><time>2026-04-06T08:22:07Z</time></trkpt><trkpt lat="46.170894363861045" lon="12.712016661707315"><ele>277.0</ele><time>2026-04-06T08:22:08Z</time></trkpt><trkpt lat="46.17087414400639" lon="12.711852329676496"><ele>277.5</ele><time>2026-04-06T08:22:09Z</time></trkpt><trkpt lat="46.17086304429485" lon="12.711714908014399"><ele>278.0</ele><time>2026-04-06T08:22:10Z</time></trkpt><trkpt lat="46.17085427071521" lon="12.711602366619564"><ele>278.5</ele><time>2026-04-06T08:22:11Z</time></trkpt><trkpt lat="46.17085263305665" lon="12.711502772957864"><ele>279.0</ele><time>2026-04-06T08:22:12Z</time></trkpt><trkpt lat="46.17085778214207" lon="12.711326993722226"><ele>279.5</ele><time>2026-04-06T08:22:14Z</time></trkpt><trkpt lat="46.17086635469389" lon="12.71121665147557"><ele>280.0</ele><time>2026-04-06T08:22:16Z</time></trkpt><trkpt lat="46.17087506235074" lon="12.711124072178714"><ele>280.4</ele><time>2026-04-06T08:22:30.999Z</time></trkpt><trkpt lat="46.17088587549388" lon="12.711008195707707"><ele>280.8</ele><time>2026-04-06T08:22:34.999Z</time></trkpt><trkpt lat="46.17091216329068" lon="12.710861974888283"><ele>281.2</ele><time>2026-04-06T08:22:36.999Z</time></trkpt><trkpt lat="46.17092460500791" lon="12.710725615652434"><ele>281.6</ele><time>2026-04-06T08:22:38.999Z</time></trkpt><trkpt lat="46.170937178536846" lon="12.710593283606965"><ele>282.0</ele><time>2026-04-06T08:22:40.999Z</time></trkpt><trkpt lat="46.17076119407582" lon="12.710513022569343"><ele>281.8333333333333</ele><time>2026-04-06T08:22:43.999Z</time></trkpt><trkpt lat="46.17067265583655" lon="12.710536705716587"><ele>281.6666666666667</ele><time>2026-04-06T08:22:45.999Z</time></trkpt><trkpt lat="46.1705858326079" lon="12.710579813344994"><ele>281.5</ele><time>2026-04-06T08:22:47.999Z</time></trkpt><trkpt lat="46.17048133132168" lon="12.710627212290365"><ele>281.33333333333337</ele><time>2026-04-06T08:22:49.999Z</time></trkpt><trkpt lat="46.17041871163052" lon="12.710658014642696"><ele>281.1666666666667</ele><time>2026-04-06T08:22:51Z</time></trkpt><trkpt lat="46.1703467592218" lon="12.710690295690815"><ele>281.0</ele><time>2026-04-06T08:22:52Z</time></trkpt><trkpt lat="46.17027923467631" lon="12.710718813368876"><ele>281.0</ele><time>2026-04-06T08:22:53Z</time></trkpt><trkpt lat="46.170215829454456" lon="12.710746342533563"><ele>281.0</ele><time>2026-04-06T08:22:54Z</time></trkpt><trkpt lat="46.17014648606279" lon="12.710774937490184"><ele>281.0</ele><time>2026-04-06T08:22:55Z</time></trkpt><trkpt lat="46.170071892769926" lon="12.71080559912861"><ele>281.0</ele><time>2026-04-06T08:22:56Z</time></trkpt><trkpt lat="46.169995999043046" lon="12.710835973217874"><ele>281.0</ele><time>2026-04-06T08:22:57Z</time></trkpt><trkpt lat="46.16991412836257" lon="12.710869855695684"><ele>281.0</ele><time>2026-04-06T08:22:58Z</time></trkpt><trkpt lat="46.16981580194279" lon="12.710905208812445"><ele>281.0</ele><time>2026-04-06T08:22:59Z</time></trkpt><trkpt lat="46.169696635101566" lon="12.71095671549593"><ele>281.0</ele><time>2026-04-06T08:23:00Z</time></trkpt><trkpt lat="46.16956089118802" lon="12.711013883942268"><ele>281.0</ele><time>2026-04-06T08:23:01Z</time></trkpt><trkpt lat="46.16943674953228" lon="12.71106783255929"><ele>281.0</ele><time>2026-04-06T08:23:02Z</time></trkpt><trkpt lat="46.16932964008055" lon="12.71111329171273"><ele>280.6</ele><time>2026-04-06T08:23:03Z</time></trkpt><trkpt lat="46.169226794149765" lon="12.711156029124545"><ele>280.20000000000005</ele><time>2026-04-06T08:23:04Z</time></trkpt><trkpt lat="46.16912305746205" lon="12.71120190621422"><ele>279.79999999999995</ele><time>2026-04-06T08:23:05Z</time></trkpt><trkpt lat="46.16901726194894" lon="12.711248180891086"><ele>279.4</ele><time>2026-04-06T08:23:06Z</time></trkpt><trkpt lat="46.168908791422595" lon="12.711290620623227"><ele>279.0</ele><time>2026-04-06T08:23:07Z</time></trkpt><trkpt lat="46.16879934783531" lon="12.711332376938504"><ele>279.0</ele><time>2026-04-06T08:23:08Z</time></trkpt><trkpt lat="46.16868866880035" lon="12.711369864304029"><ele>279.0</ele><time>2026-04-06T08:23:09Z</time></trkpt><trkpt lat="46.16858237883262" lon="12.711393106056075"><ele>279.0</ele><time>2026-04-06T08:23:10Z</time></trkpt><trkpt lat="46.16847777015991" lon="12.71140904584449"><ele>279.0</ele><time>2026-04-06T08:23:11Z</time></trkpt><trkpt lat="46.1683741598068" lon="12.711415282571577"><ele>279.0</ele><time>2026-04-06T08:23:12Z</time></trkpt><trkpt lat="46.168275947783684" lon="12.711410207495765"><ele>278.8333333333333</ele><time>2026-04-06T08:23:13Z</time></trkpt><trkpt lat="46.168181747022146" lon="12.711396355311797"><ele>278.6666666666667</ele><time>2026-04-06T08:23:14Z</time></trkpt><trkpt lat="46.16810052744807" lon="12.711376577076"><ele>278.5</ele><time>2026-04-06T08:23:15Z</time></trkpt><trkpt lat="46.16803152394207" lon="12.711355937251017"><ele>278.33333333333337</ele><time>2026-04-06T08:23:16Z</time></trkpt><trkpt lat="46.16797076152376" lon="12.711330265659269"><ele>278.1666666666667</ele><time>2026-04-06T08:23:17Z</time></trkpt><trkpt lat="46.167868670406996" lon="12.711270585487712"><ele>278.0</ele><time>2026-04-06T08:23:19Z</time></trkpt><trkpt lat="46.16775472117665" lon="12.711192038695428"><ele>278.0</ele><time>2026-04-06T08:23:21Z</time></trkpt><trkpt lat="46.167663184041444" lon="12.711122870822734"><ele>278.0</ele><time>2026-04-06T08:23:22Z</time></trkpt><trkpt lat="46.16754671202233" lon="12.711022321865283"><ele>278.0</ele><time>2026-04-06T08:23:23Z</time></trkpt><trkpt lat="46.167411264801544" lon="12.710906856141003"><ele>278.0</ele><time>2026-04-06T08:23:24Z</time></trkpt><trkpt lat="46.1672647480472" lon="12.710786881525488"><ele>278.33333333333337</ele><time>2026-04-06T08:23:25Z</time></trkpt><trkpt lat="46.167108573019256" lon="12.710653856113508"><ele>278.6666666666667</ele><time>2026-04-06T08:23:26Z</time></trkpt><trkpt lat="46.16695727577979" lon="12.710504509577865"><ele>279.0</ele><time>2026-04-06T08:23:27Z</time></trkpt><trkpt lat="46.166811739929585" lon="12.71034016729781"><ele>279.0</ele><time>2026-04-06T08:23:28Z</time></trkpt><trkpt lat="46.16667458612444" lon="12.710163167031912"><ele>279.0</ele><time>2026-04-06T08:23:29Z</time></trkpt><trkpt lat="46.16655118585448" lon="12.709970581649513"><ele>279.0</ele><time>2026-04-06T08:23:30Z</time></trkpt><trkpt lat="46.16643434940276" lon="12.709766449403118"><ele>279.0</ele><time>2026-04-06T08:23:31Z</time></trkpt><trkpt lat="46.166325240677224" lon="12.709553293480095"><ele>279.0</ele><time>2026-04-06T08:23:32Z</time></trkpt><trkpt lat="46.16622096460611" lon="12.709337179206534"><ele>279.0</ele><time>2026-04-06T08:23:33Z</time></trkpt><trkpt lat="46.166122243205386" lon="12.709131241424732"><ele>279.6666666666667</ele><time>2026-04-06T08:23:34Z</time></trkpt><trkpt lat="46.166027006410545" lon="12.708936463324326"><ele>280.33333333333337</ele><time>2026-04-06T08:23:35Z</time></trkpt><trkpt lat="46.165937053048" lon="12.708748302753989"><ele>281.0</ele><time>2026-04-06T08:23:36Z</time></trkpt><trkpt lat="46.16584246194872" lon="12.708557979702977"><ele>281.25</ele><time>2026-04-06T08:23:37Z</time></trkpt><trkpt lat="46.16575314729698" lon="12.708374602608888"><ele>281.5</ele><time>2026-04-06T08:23:38Z</time></trkpt><trkpt lat="46.165676568560535" lon="12.708215488701688"><ele>281.75</ele><time>2026-04-06T08:23:39Z</time></trkpt><trkpt lat="46.165607828175986" lon="12.708073221486245"><ele>282.0</ele><time>2026-04-06T08:23:40Z</time></trkpt><trkpt lat="46.16554359226425" lon="12.707943966633765"><ele>282.0</ele><time>2026-04-06T08:23:41Z</time></trkpt><trkpt lat="46.16548879209317" lon="12.70783138735005"><ele>282.0</ele><time>2026-04-06T08:23:42Z</time></trkpt><trkpt lat="46.16544031538867" lon="12.707730137394185"><ele>282.0</ele><time>2026-04-06T08:23:43Z</time></trkpt><trkpt lat="46.16539638923937" lon="12.707640088528574"><ele>282.0</ele><time>2026-04-06T08:23:44Z</time></trkpt><trkpt lat="46.165356225115744" lon="12.70755114118306"><ele>282.0</ele><time>2026-04-06T08:23:45Z</time></trkpt><trkpt lat="46.165320817386686" lon="12.707475312973804"><ele>282.0</ele><time>2026-04-06T08:23:46Z</time></trkpt><trkpt lat="46.16526590096511" lon="12.707356775837132"><ele>282.1666666666667</ele><time>2026-04-06T08:23:48Z</time></trkpt><trkpt lat="46.1652197813475" lon="12.70725620266437"><ele>282.3333333333333</ele><time>2026-04-06T08:23:51Z</time></trkpt><trkpt lat="46.165167119986016" lon="12.707162451161919"><ele>282.5</ele><time>2026-04-06T08:24:04Z</time></trkpt><trkpt lat="46.16511236064837" lon="12.707046568722983"><ele>282.66666666666663</ele><time>2026-04-06T08:24:06Z</time></trkpt><trkpt lat="46.1650734090323" lon="12.706963743658742"><ele>282.8333333333333</ele><time>2026-04-06T08:24:07Z</time></trkpt><trkpt lat="46.16502864870401" lon="12.706868450232125"><ele>283.0</ele><time>2026-04-06T08:24:08Z</time></trkpt><trkpt lat="46.16498554561949" lon="12.7067690303469"><ele>283.4</ele><time>2026-04-06T08:24:09Z</time></trkpt><trkpt lat="46.16493777353784" lon="12.706672292354506"><ele>283.8</ele><time>2026-04-06T08:24:10Z</time></trkpt><trkpt lat="46.16488436678735" lon="12.70656658810605"><ele>284.2</ele><time>2026-04-06T08:24:11Z</time></trkpt><trkpt lat="46.16483076570586" lon="12.706443505342135"><ele>284.6</ele><time>2026-04-06T08:24:12Z</time></trkpt><trkpt lat="46.164770688183935" lon="12.70632098565547"><ele>285.0</ele><time>2026-04-06T08:24:13Z</time></trkpt><trkpt lat="46.164703556134306" lon="12.706184214179189"><ele>285.0</ele><time>2026-04-06T08:24:14Z</time></trkpt><trkpt lat="46.16463305825558" lon="12.706031931857883"><ele>285.0</ele><time>2026-04-06T08:24:15Z</time></trkpt><trkpt lat="46.16455896265036" lon="12.705879222748408"><ele>285.0</ele><time>2026-04-06T08:24:16Z</time></trkpt><trkpt lat="46.16448357910255" lon="12.705727754623787"><ele>285.0</ele><time>2026-04-06T08:24:17Z</time></trkpt><trkpt lat="46.16441040262894" lon="12.705578145967994"><ele>285.0</ele><time>2026-04-06T08:24:18Z</time></trkpt><trkpt lat="46.16433648948364" lon="12.705428031880261"><ele>285.0</ele><time>2026-04-06T08:24:19Z</time></trkpt><trkpt lat="46.16426435728109" lon="12.705276164724536"><ele>285.0</ele><time>2026-04-06T08:24:20Z</time></trkpt><trkpt lat="46.1641914917458" lon="12.705126816925935"><ele>285.0</ele><time>2026-04-06T08:24:20.999Z</time></trkpt><trkpt lat="46.16412204384258" lon="12.704980791485863"><ele>285.25</ele><time>2026-04-06T08:24:21.999Z</time></trkpt><trkpt lat="46.16405807375831" lon="12.704836209306517"><ele>285.5</ele><time>2026-04-06T08:24:22.999Z</time></trkpt><trkpt lat="46.16399568539476" lon="12.70468861101678"><ele>285.75</ele><time>2026-04-06T08:24:23.999Z</time></trkpt><trkpt lat="46.163934892848786" lon="12.704528338396793"><ele>286.0</ele><time>2026-04-06T08:24:24.999Z</time></trkpt><trkpt lat="46.163873689348094" lon="12.704351455823337"><ele>286.0</ele><time>2026-04-06T08:24:25.999Z</time></trkpt><trkpt lat="46.16381118865168" lon="12.704168526155891"><ele>286.0</ele><time>2026-04-06T08:24:26.999Z</time></trkpt><trkpt lat="46.16374814241682" lon="12.703985387937442"><ele>286.0</ele><time>2026-04-06T08:24:27.999Z</time></trkpt><trkpt lat="46.16368725018279" lon="12.703802909158952"><ele>286.0</ele><time>2026-04-06T08:24:28.999Z</time></trkpt><trkpt lat="46.163623833590805" lon="12.703617752458591"><ele>286.5</ele><time>2026-04-06T08:24:29.999Z</time></trkpt><trkpt lat="46.1635579307117" lon="12.703427869009273"><ele>287.0</ele><time>2026-04-06T08:24:30.999Z</time></trkpt><trkpt lat="46.163495909973726" lon="12.703233384260821"><ele>287.5</ele><time>2026-04-06T08:24:31.999Z</time></trkpt><trkpt lat="46.16343736476275" lon="12.703043507767951"><ele>288.0</ele><time>2026-04-06T08:24:32.999Z</time></trkpt><trkpt lat="46.16338041839895" lon="12.702857033450538"><ele>288.5</ele><time>2026-04-06T08:24:33.999Z</time></trkpt><trkpt lat="46.16332934171575" lon="12.702670754058976"><ele>289.0</ele><time>2026-04-06T08:24:34.999Z</time></trkpt><trkpt lat="46.16328470587002" lon="12.702482492242677"><ele>289.5</ele><time>2026-04-06T08:24:35.999Z</time></trkpt><trkpt lat="46.163241749133086" lon="12.70229104996389"><ele>290.0</ele><time>2026-04-06T08:24:36.999Z</time></trkpt><trkpt lat="46.163200160399825" lon="12.702090940525336"><ele>290.0</ele><time>2026-04-06T08:24:37.999Z</time></trkpt><trkpt lat="46.16316438551191" lon="12.701892819666366"><ele>290.0</ele><time>2026-04-06T08:24:38.999Z</time></trkpt><trkpt lat="46.163130121119664" lon="12.70170175197276"><ele>290.0</ele><time>2026-04-06T08:24:39.999Z</time></trkpt><trkpt lat="46.16309646940797" lon="12.701509730417296"><ele>290.0</ele><time>2026-04-06T08:24:40.999Z</time></trkpt><trkpt lat="46.163062127408125" lon="12.701310408241412"><ele>290.0</ele><time>2026-04-06T08:24:41.999Z</time></trkpt><trkpt lat="46.16302543658435" lon="12.701101366328599"><ele>290.0</ele><time>2026-04-06T08:24:42.999Z</time></trkpt><trkpt lat="46.16298751234037" lon="12.700875846167035"><ele>290.0</ele><time>2026-04-06T08:24:43.999Z</time></trkpt><trkpt lat="46.16294606499122" lon="12.700626227360187"><ele>290.33333333333337</ele><time>2026-04-06T08:24:44.999Z</time></trkpt><trkpt lat="46.162898698848196" lon="12.70036207907371"><ele>290.6666666666667</ele><time>2026-04-06T08:24:45.999Z</time></trkpt><trkpt lat="46.16284918836938" lon="12.700099059235193"><ele>291.0</ele><time>2026-04-06T08:24:46.999Z</time></trkpt><trkpt lat="46.162802565232305" lon="12.699848656777837"><ele>291.0</ele><time>2026-04-06T08:24:47.999Z</time></trkpt><trkpt lat="46.162760875216605" lon="12.699608531389451"><ele>291.0</ele><time>2026-04-06T08:24:48.999Z</time></trkpt><trkpt lat="46.16272078228344" lon="12.699381010911956"><ele>291.0</ele><time>2026-04-06T08:24:49.999Z</time></trkpt><trkpt lat="46.16267944316441" lon="12.699153254653597"><ele>291.3333333333333</ele><time>2026-04-06T08:24:50.999Z</time></trkpt><trkpt lat="46.16265496545519" lon="12.698913554374267"><ele>291.66666666666663</ele><time>2026-04-06T08:24:51.999Z</time></trkpt><trkpt lat="46.162614588458695" lon="12.698680774492065"><ele>292.0</ele><time>2026-04-06T08:24:52.999Z</time></trkpt><trkpt lat="46.162573519798734" lon="12.698442079892077"><ele>292.3333333333333</ele><time>2026-04-06T08:24:53.999Z</time></trkpt><trkpt lat="46.162530797127815" lon="12.698194288341194"><ele>292.6666666666667</ele><time>2026-04-06T08:24:54.999Z</time></trkpt><trkpt lat="46.16247962396062" lon="12.697897483977508"><ele>293.0</ele><time>2026-04-06T08:24:55.999Z</time></trkpt><trkpt lat="46.16242672947483" lon="12.69759345118881"><ele>294.5</ele><time>2026-04-06T08:24:57Z</time></trkpt><trkpt lat="46.162371603919986" lon="12.697277665941936"><ele>296.0</ele><time>2026-04-06T08:24:58Z</time></trkpt><trkpt lat="46.1623021350464" lon="12.696969074153024"><ele>297.33333333333337</ele><time>2026-04-06T08:24:59Z</time></trkpt><trkpt lat="46.1622513357176" lon="12.69666418832823"><ele>298.6666666666667</ele><time>2026-04-06T08:25:00Z</time></trkpt><trkpt lat="46.162200756669705" lon="12.696368792285734"><ele>300.0</ele><time>2026-04-06T08:25:01Z</time></trkpt><trkpt lat="46.162153103785236" lon="12.696084723060178"><ele>300.0</ele><time>2026-04-06T08:25:02Z</time></trkpt><trkpt lat="46.16210678007803" lon="12.695815305443817"><ele>300.0</ele><time>2026-04-06T08:25:03Z</time></trkpt><trkpt lat="46.16206188530438" lon="12.695556628021919"><ele>300.0</ele><time>2026-04-06T08:25:04Z</time></trkpt><trkpt lat="46.16201729464834" lon="12.69529602582368"><ele>299.6666666666667</ele><time>2026-04-06T08:25:05Z</time></trkpt><trkpt lat="46.16197364417599" lon="12.695033749835762"><ele>299.33333333333337</ele><time>2026-04-06T08:25:06Z</time></trkpt><trkpt lat="46.16192770113709" lon="12.694770868082392"><ele>299.0</ele><time>2026-04-06T08:25:07Z</time></trkpt><trkpt lat="46.16188175790519" lon="12.694503928831237"><ele>299.0</ele><time>2026-04-06T08:25:08Z</time></trkpt><trkpt lat="46.16183750063116" lon="12.694236728268395"><ele>299.0</ele><time>2026-04-06T08:25:09Z</time></trkpt><trkpt lat="46.16179161805642" lon="12.693970183362683"><ele>299.0</ele><time>2026-04-06T08:25:10Z</time></trkpt><trkpt lat="46.16174433464591" lon="12.693701717624613"><ele>299.33333333333337</ele><time>2026-04-06T08:25:11Z</time></trkpt><trkpt lat="46.16169924610012" lon="12.693435751217683"><ele>299.6666666666667</ele><time>2026-04-06T08:25:12Z</time></trkpt><trkpt lat="46.1616529395997" lon="12.693173981089434"><ele>300.0</ele><time>2026-04-06T08:25:13Z</time></trkpt><trkpt lat="46.161607086253255" lon="12.692916737419454"><ele>300.0</ele><time>2026-04-06T08:25:14Z</time></trkpt><trkpt lat="46.16156289941698" lon="12.692659574363248"><ele>300.0</ele><time>2026-04-06T08:25:15Z</time></trkpt><trkpt lat="46.161519297308296" lon="12.692404521998492"><ele>300.0</ele><time>2026-04-06T08:25:16Z</time></trkpt><trkpt lat="46.161474885492616" lon="12.692148964704753"><ele>300.3333333333333</ele><time>2026-04-06T08:25:17Z</time></trkpt><trkpt lat="46.16142977282826" lon="12.691888281320937"><ele>300.66666666666663</ele><time>2026-04-06T08:25:18Z</time></trkpt><trkpt lat="46.16138554617632" lon="12.691626427822767"><ele>301.0</ele><time>2026-04-06T08:25:19Z</time></trkpt><trkpt lat="46.161339547073766" lon="12.691359906874887"><ele>301.0</ele><time>2026-04-06T08:25:20Z</time></trkpt><trkpt lat="46.16129407918965" lon="12.691090915266855"><ele>301.0</ele><time>2026-04-06T08:25:21Z</time></trkpt><trkpt lat="46.161246297879096" lon="12.69082075773834"><ele>301.0</ele><time>2026-04-06T08:25:22Z</time></trkpt><trkpt lat="46.1611991714968" lon="12.690549974123433"><ele>301.0</ele><time>2026-04-06T08:25:23Z</time></trkpt><trkpt lat="46.16115053294318" lon="12.69027103360904"><ele>301.0</ele><time>2026-04-06T08:25:24Z</time></trkpt><trkpt lat="46.16110056749187" lon="12.689985559839686"><ele>301.0</ele><time>2026-04-06T08:25:25Z</time></trkpt><trkpt lat="46.1610495820329" lon="12.689695085088678"><ele>301.3333333333333</ele><time>2026-04-06T08:25:26Z</time></trkpt><trkpt lat="46.16099910378301" lon="12.689404131925047"><ele>301.6666666666667</ele><time>2026-04-06T08:25:27Z</time></trkpt><trkpt lat="46.16094895845024" lon="12.689111837693005"><ele>302.0</ele><time>2026-04-06T08:25:28Z</time></trkpt><trkpt lat="46.16089750971191" lon="12.688819748800586"><ele>302.6666666666667</ele><time>2026-04-06T08:25:29Z</time></trkpt><trkpt lat="46.160847499689176" lon="12.688530472807136"><ele>303.3333333333333</ele><time>2026-04-06T08:25:30Z</time></trkpt><trkpt lat="46.16079794233682" lon="12.6882428758153"><ele>304.0</ele><time>2026-04-06T08:25:31Z</time></trkpt><trkpt lat="46.16074905268562" lon="12.68795530906902"><ele>304.0</ele><time>2026-04-06T08:25:32Z</time></trkpt><trkpt lat="46.16070096121602" lon="12.687677578382813"><ele>304.0</ele><time>2026-04-06T08:25:33Z</time></trkpt><trkpt lat="46.16065520481273" lon="12.687407307979496"><ele>304.0</ele><time>2026-04-06T08:25:34Z</time></trkpt><trkpt lat="46.16061260858895" lon="12.687144171751585"><ele>304.3333333333333</ele><time>2026-04-06T08:25:35Z</time></trkpt><trkpt lat="46.16057325948587" lon="12.686884464663766"><ele>304.6666666666667</ele><time>2026-04-06T08:25:36Z</time></trkpt><trkpt lat="46.16053892949267" lon="12.686622540757348"><ele>305.0</ele><time>2026-04-06T08:25:37Z</time></trkpt><trkpt lat="46.160511794223225" lon="12.686354923493113"><ele>305.6666666666667</ele><time>2026-04-06T08:25:38Z</time></trkpt><trkpt lat="46.16049229484702" lon="12.686079460950035"><ele>306.3333333333333</ele><time>2026-04-06T08:25:39Z</time></trkpt><trkpt lat="46.160479011028656" lon="12.685807451430783"><ele>307.0</ele><time>2026-04-06T08:25:40Z</time></trkpt><trkpt lat="46.16046983578144" lon="12.685532603318837"><ele>306.66666666666663</ele><time>2026-04-06T08:25:41Z</time></trkpt><trkpt lat="46.160466833310664" lon="12.685251599574789"><ele>306.3333333333333</ele><time>2026-04-06T08:25:42Z</time></trkpt><trkpt lat="46.16047212143085" lon="12.684971747506689"><ele>306.0</ele><time>2026-04-06T08:25:43Z</time></trkpt><trkpt lat="46.16048501052861" lon="12.684694033725394"><ele>306.0</ele><time>2026-04-06T08:25:44Z</time></trkpt><trkpt lat="46.160501100011295" lon="12.684415766580216"><ele>306.0</ele><time>2026-04-06T08:25:45Z</time></trkpt><trkpt lat="46.16051922886452" lon="12.684136827123293"><ele>306.0</ele><time>2026-04-06T08:25:46Z</time></trkpt><trkpt lat="46.1605367940091" lon="12.683861235398487"><ele>306.0</ele><time>2026-04-06T08:25:47Z</time></trkpt><trkpt lat="46.16055484972756" lon="12.683591656222282"><ele>306.0</ele><time>2026-04-06T08:25:48Z</time></trkpt><trkpt lat="46.16057209456993" lon="12.683337093978672"><ele>306.0</ele><time>2026-04-06T08:25:49Z</time></trkpt><trkpt lat="46.16060498429706" lon="12.683107756107468"><ele>306.0</ele><time>2026-04-06T08:25:50Z</time></trkpt><trkpt lat="46.16060907642686" lon="12.682870953621801"><ele>306.0</ele><time>2026-04-06T08:25:51Z</time></trkpt><trkpt lat="46.16065345058294" lon="12.68264333906665"><ele>306.0</ele><time>2026-04-06T08:25:52Z</time></trkpt><trkpt lat="46.16068639439716" lon="12.68241787432508"><ele>306.6666666666667</ele><time>2026-04-06T08:25:53Z</time></trkpt><trkpt lat="46.16072538211315" lon="12.682197955155225"><ele>307.33333333333337</ele><time>2026-04-06T08:25:54Z</time></trkpt><trkpt lat="46.1607506302991" lon="12.681975026087636"><ele>308.0</ele><time>2026-04-06T08:25:55Z</time></trkpt><trkpt lat="46.160795390103836" lon="12.681765037134607"><ele>308.0</ele><time>2026-04-06T08:25:56Z</time></trkpt><trkpt lat="46.160859331883195" lon="12.68157373146704"><ele>308.0</ele><time>2026-04-06T08:25:57Z</time></trkpt><trkpt lat="46.16089369426802" lon="12.681377511546046"><ele>308.0</ele><time>2026-04-06T08:25:58Z</time></trkpt><trkpt lat="46.16094196445173" lon="12.681203007949334"><ele>308.0</ele><time>2026-04-06T08:25:59Z</time></trkpt><trkpt lat="46.1610049576934" lon="12.681047306336106"><ele>308.0</ele><time>2026-04-06T08:26:00Z</time></trkpt><trkpt lat="46.16106193215709" lon="12.680872776065257"><ele>308.0</ele><time>2026-04-06T08:26:01Z</time></trkpt><trkpt lat="46.16112563237171" lon="12.68068753351707"><ele>308.0</ele><time>2026-04-06T08:26:02Z</time></trkpt><trkpt lat="46.16118425653505" lon="12.680483827457946"><ele>308.0</ele><time>2026-04-06T08:26:03Z</time></trkpt><trkpt lat="46.161266515111954" lon="12.680273009502423"><ele>307.33333333333337</ele><time>2026-04-06T08:26:04Z</time></trkpt><trkpt lat="46.16136906225691" lon="12.68003918090223"><ele>306.6666666666667</ele><time>2026-04-06T08:26:05Z</time></trkpt><trkpt lat="46.16150551266752" lon="12.679797562991551"><ele>306.0</ele><time>2026-04-06T08:26:06Z</time></trkpt><trkpt lat="46.161638684447325" lon="12.679536648131759"><ele>307.0</ele><time>2026-04-06T08:26:07Z</time></trkpt><trkpt lat="46.161807008784365" lon="12.679206224635077"><ele>308.0</ele><time>2026-04-06T08:26:08Z</time></trkpt><trkpt lat="46.16196308279143" lon="12.678864003352121"><ele>307.0</ele><time>2026-04-06T08:26:09Z</time></trkpt><trkpt lat="46.16211524939346" lon="12.678573318812063"><ele>306.0</ele><time>2026-04-06T08:26:10Z</time></trkpt><trkpt lat="46.162244764000754" lon="12.678310356330886"><ele>307.0</ele><time>2026-04-06T08:26:11Z</time></trkpt><trkpt lat="46.16237202553087" lon="12.678064294768713"><ele>308.0</ele><time>2026-04-06T08:26:12Z</time></trkpt><trkpt lat="46.162495810296704" lon="12.677823375077187"><ele>309.0</ele><time>2026-04-06T08:26:13Z</time></trkpt><trkpt lat="46.162615866864925" lon="12.67758712974391"><ele>309.0</ele><time>2026-04-06T08:26:14Z</time></trkpt><trkpt lat="46.162736189059174" lon="12.677353859542114"><ele>309.0</ele><time>2026-04-06T08:26:15Z</time></trkpt><trkpt lat="46.162855586758894" lon="12.677123152863198"><ele>309.0</ele><time>2026-04-06T08:26:16Z</time></trkpt><trkpt lat="46.16297093483486" lon="12.676896344086552"><ele>308.6666666666667</ele><time>2026-04-06T08:26:17Z</time></trkpt><trkpt lat="46.16308749457911" lon="12.676668132826073"><ele>308.33333333333337</ele><time>2026-04-06T08:26:18Z</time></trkpt><trkpt lat="46.16320297322347" lon="12.676440542682245"><ele>308.0</ele><time>2026-04-06T08:26:19Z</time></trkpt><trkpt lat="46.16331711325645" lon="12.676218137627687"><ele>309.0</ele><time>2026-04-06T08:26:20Z</time></trkpt><trkpt lat="46.16342953221492" lon="12.676000266557665"><ele>310.0</ele><time>2026-04-06T08:26:21Z</time></trkpt><trkpt lat="46.163540320779624" lon="12.675783624520207"><ele>311.0</ele><time>2026-04-06T08:26:22Z</time></trkpt><trkpt lat="46.163651665788606" lon="12.6755712599753"><ele>311.0</ele><time>2026-04-06T08:26:23Z</time></trkpt><trkpt lat="46.163760927346914" lon="12.675360751921158"><ele>311.0</ele><time>2026-04-06T08:26:24Z</time></trkpt><trkpt lat="46.163859653601044" lon="12.67514855690143"><ele>311.0</ele><time>2026-04-06T08:26:24.999Z</time></trkpt><trkpt lat="46.163940973615" lon="12.674916802580487"><ele>312.6666666666667</ele><time>2026-04-06T08:26:25.999Z</time></trkpt><trkpt lat="46.163993959942744" lon="12.674666382823446"><ele>314.3333333333333</ele><time>2026-04-06T08:26:26.999Z</time></trkpt><trkpt lat="46.16404371458114" lon="12.674423490803225"><ele>316.0</ele><time>2026-04-06T08:26:27.999Z</time></trkpt><trkpt lat="46.16411761447678" lon="12.674200227924365"><ele>316.0</ele><time>2026-04-06T08:26:28.999Z</time></trkpt><trkpt lat="46.164205999785196" lon="12.67399417662865"><ele>316.0</ele><time>2026-04-06T08:26:29.999Z</time></trkpt><trkpt lat="46.16430958720342" lon="12.673809636460106"><ele>316.0</ele><time>2026-04-06T08:26:30.999Z</time></trkpt><trkpt lat="46.16442132113217" lon="12.673650742235273"><ele>316.5</ele><time>2026-04-06T08:26:31.999Z</time></trkpt><trkpt lat="46.16453520783415" lon="12.673513154099851"><ele>317.0</ele><time>2026-04-06T08:26:32.999Z</time></trkpt><trkpt lat="46.16466292554544" lon="12.673407675843197"><ele>317.5</ele><time>2026-04-06T08:26:33.999Z</time></trkpt><trkpt lat="46.16480458017506" lon="12.673335360388261"><ele>318.0</ele><time>2026-04-06T08:26:34.999Z</time></trkpt><trkpt lat="46.16495960718441" lon="12.673298875875313"><ele>318.0</ele><time>2026-04-06T08:26:35.999Z</time></trkpt><trkpt lat="46.1651225200702" lon="12.673310506277158"><ele>318.0</ele><time>2026-04-06T08:26:36.999Z</time></trkpt><trkpt lat="46.16527205695587" lon="12.673335775318966"><ele>318.0</ele><time>2026-04-06T08:26:37.999Z</time></trkpt><trkpt lat="46.16541051667529" lon="12.673325917232189"><ele>318.0</ele><time>2026-04-06T08:26:38.999Z</time></trkpt><trkpt lat="46.16554732561582" lon="12.67326706882672"><ele>318.0</ele><time>2026-04-06T08:26:39.999Z</time></trkpt><trkpt lat="46.16568083253" lon="12.673172329365716"><ele>318.0</ele><time>2026-04-06T08:26:40.999Z</time></trkpt><trkpt lat="46.16582002249258" lon="12.673076963103115"><ele>318.0</ele><time>2026-04-06T08:26:41.999Z</time></trkpt><trkpt lat="46.16594604537279" lon="12.672956780344759"><ele>319.3333333333333</ele><time>2026-04-06T08:26:42.999Z</time></trkpt><trkpt lat="46.166075069937904" lon="12.672833735390334"><ele>320.66666666666663</ele><time>2026-04-06T08:26:43.999Z</time></trkpt><trkpt lat="46.16620051751703" lon="12.67269089937063"><ele>322.0</ele><time>2026-04-06T08:26:44.999Z</time></trkpt><trkpt lat="46.166355442538354" lon="12.672604422718718"><ele>319.66666666666663</ele><time>2026-04-06T08:26:45.999Z</time></trkpt><trkpt lat="46.16651101000032" lon="12.672483336421827"><ele>317.3333333333333</ele><time>2026-04-06T08:26:46.999Z</time></trkpt><trkpt lat="46.16668740233071" lon="12.672406346734475"><ele>315.0</ele><time>2026-04-06T08:26:47.999Z</time></trkpt><trkpt lat="46.16686773124661" lon="12.672324110878892"><ele>315.0</ele><time>2026-04-06T08:26:48.999Z</time></trkpt><trkpt lat="46.167041693898184" lon="12.672243305790394"><ele>315.0</ele><time>2026-04-06T08:26:49.999Z</time></trkpt><trkpt lat="46.16721922250494" lon="12.672185809271086"><ele>315.0</ele><time>2026-04-06T08:26:50.999Z</time></trkpt><trkpt lat="46.167393415239715" lon="12.672077056533128"><ele>313.6666666666667</ele><time>2026-04-06T08:26:51.999Z</time></trkpt><trkpt lat="46.16754882267965" lon="12.671915333527503"><ele>312.33333333333337</ele><time>2026-04-06T08:26:52.999Z</time></trkpt><trkpt lat="46.167717187854464" lon="12.67178006746698"><ele>311.0</ele><time>2026-04-06T08:26:53.999Z</time></trkpt><trkpt lat="46.167879962531636" lon="12.67162519027069"><ele>311.0</ele><time>2026-04-06T08:26:54.999Z</time></trkpt><trkpt lat="46.16804264441974" lon="12.671470175791539"><ele>311.0</ele><time>2026-04-06T08:26:55.999Z</time></trkpt><trkpt lat="46.1682040401307" lon="12.671316675089264"><ele>311.0</ele><time>2026-04-06T08:26:56.999Z</time></trkpt><trkpt lat="46.168364167801705" lon="12.671162598476128"><ele>310.33333333333337</ele><time>2026-04-06T08:26:57.999Z</time></trkpt><trkpt lat="46.168522260825625" lon="12.671009099653"><ele>309.6666666666667</ele><time>2026-04-06T08:26:58.999Z</time></trkpt><trkpt lat="46.16867337967441" lon="12.670831036846339"><ele>309.0</ele><time>2026-04-06T08:26:59.999Z</time></trkpt><trkpt lat="46.16880603984179" lon="12.670629172796646"><ele>309.0</ele><time>2026-04-06T08:27:00.999Z</time></trkpt><trkpt lat="46.16893368563759" lon="12.670425263672046"><ele>309.0</ele><time>2026-04-06T08:27:01.999Z</time></trkpt><trkpt lat="46.16907537156713" lon="12.670250488440772"><ele>309.0</ele><time>2026-04-06T08:27:03Z</time></trkpt><trkpt lat="46.16923501819438" lon="12.670091531879997"><ele>309.6666666666667</ele><time>2026-04-06T08:27:04Z</time></trkpt><trkpt lat="46.16939350795113" lon="12.669916752027852"><ele>310.33333333333337</ele><time>2026-04-06T08:27:05Z</time></trkpt><trkpt lat="46.16953728728789" lon="12.669715631263182"><ele>311.0</ele><time>2026-04-06T08:27:06Z</time></trkpt><trkpt lat="46.16967140052113" lon="12.66952006101914"><ele>312.33333333333337</ele><time>2026-04-06T08:27:07Z</time></trkpt><trkpt lat="46.169810425570816" lon="12.669344128559384"><ele>313.6666666666667</ele><time>2026-04-06T08:27:08Z</time></trkpt><trkpt lat="46.16995215313168" lon="12.669179913950794"><ele>315.0</ele><time>2026-04-06T08:27:09Z</time></trkpt><trkpt lat="46.170094469449644" lon="12.669018622651826"><ele>315.0</ele><time>2026-04-06T08:27:10Z</time></trkpt><trkpt lat="46.17022454885024" lon="12.668871546832213"><ele>315.0</ele><time>2026-04-06T08:27:11Z</time></trkpt><trkpt lat="46.17033898263208" lon="12.668746386669374"><ele>315.0</ele><time>2026-04-06T08:27:12Z</time></trkpt><trkpt lat="46.17045473851308" lon="12.668639571834092"><ele>315.0</ele><time>2026-04-06T08:27:13Z</time></trkpt><trkpt lat="46.170581751622734" lon="12.668539451211945"><ele>317.3333333333333</ele><time>2026-04-06T08:27:14Z</time></trkpt><trkpt lat="46.17070929744955" lon="12.668415436116986"><ele>319.66666666666663</ele><time>2026-04-06T08:27:15Z</time></trkpt><trkpt lat="46.17082133144622" lon="12.6682390383307"><ele>322.0</ele><time>2026-04-06T08:27:16Z</time></trkpt><trkpt lat="46.17095560126232" lon="12.668098877360897"><ele>322.0</ele><time>2026-04-06T08:27:17Z</time></trkpt><trkpt lat="46.17108208318269" lon="12.667952803897945"><ele>322.0</ele><time>2026-04-06T08:27:18Z</time></trkpt><trkpt lat="46.17120302886587" lon="12.667781136670484"><ele>322.0</ele><time>2026-04-06T08:27:19Z</time></trkpt><trkpt lat="46.171307101983714" lon="12.667588854600393"><ele>324.0</ele><time>2026-04-06T08:27:20Z</time></trkpt><trkpt lat="46.171453402408176" lon="12.667448116111945"><ele>326.0</ele><time>2026-04-06T08:27:21Z</time></trkpt><trkpt lat="46.17160026693604" lon="12.66728396439899"><ele>328.0</ele><time>2026-04-06T08:27:22Z</time></trkpt><trkpt lat="46.17171680709945" lon="12.667073623756641"><ele>319.66666666666663</ele><time>2026-04-06T08:27:23Z</time></trkpt><trkpt lat="46.171818125739684" lon="12.666863162971946"><ele>311.3333333333333</ele><time>2026-04-06T08:27:24Z</time></trkpt><trkpt lat="46.17194804434418" lon="12.666711030188223"><ele>303.0</ele><time>2026-04-06T08:27:25Z</time></trkpt><trkpt lat="46.1720724600554" lon="12.666551037201717"><ele>303.0</ele><time>2026-04-06T08:27:26Z</time></trkpt><trkpt lat="46.172174428210155" lon="12.666350221784327"><ele>303.0</ele><time>2026-04-06T08:27:27Z</time></trkpt><trkpt lat="46.172262976107525" lon="12.666139235086817"><ele>303.0</ele><time>2026-04-06T08:27:28Z</time></trkpt><trkpt lat="46.17236110867034" lon="12.665948748301735"><ele>309.0</ele><time>2026-04-06T08:27:29Z</time></trkpt><trkpt lat="46.17247522634639" lon="12.665766379738741"><ele>315.0</ele><time>2026-04-06T08:27:30Z</time></trkpt><trkpt lat="46.172585549012425" lon="12.665570650709562"><ele>321.0</ele><time>2026-04-06T08:27:31Z</time></trkpt><trkpt lat="46.17268242035019" lon="12.665375227428711"><ele>313.3333333333333</ele><time>2026-04-06T08:27:32Z</time></trkpt><trkpt lat="46.17277181258115" lon="12.66518601764146"><ele>305.66666666666663</ele><time>2026-04-06T08:27:33Z</time></trkpt><trkpt lat="46.172859440190564" lon="12.664991636968745"><ele>298.0</ele><time>2026-04-06T08:27:34Z</time></trkpt><trkpt lat="46.17293621373153" lon="12.664781479737625"><ele>298.0</ele><time>2026-04-06T08:27:35Z</time></trkpt><trkpt lat="46.17300027420813" lon="12.664559061945452"><ele>298.0</ele><time>2026-04-06T08:27:36Z</time></trkpt><trkpt lat="46.17306289967834" lon="12.664343234993797"><ele>298.0</ele><time>2026-04-06T08:27:37Z</time></trkpt><trkpt lat="46.173121236531955" lon="12.664133765029684"><ele>295.0</ele><time>2026-04-06T08:27:38Z</time></trkpt><trkpt lat="46.17316379197338" lon="12.663916436844428"><ele>292.0</ele><time>2026-04-06T08:27:39Z</time></trkpt><trkpt lat="46.173195187781495" lon="12.663715703588558"><ele>289.0</ele><time>2026-04-06T08:27:40Z</time></trkpt><trkpt lat="46.173227168205244" lon="12.66352938806263"><ele>286.0</ele><time>2026-04-06T08:27:41Z</time></trkpt><trkpt lat="46.17327704569945" lon="12.663364254195873"><ele>293.0</ele><time>2026-04-06T08:27:42Z</time></trkpt><trkpt lat="46.1733410804569" lon="12.663214490387608"><ele>300.0</ele><time>2026-04-06T08:27:43Z</time></trkpt><trkpt lat="46.173403113032165" lon="12.663069248760605"><ele>307.0</ele><time>2026-04-06T08:27:44Z</time></trkpt><trkpt lat="46.173463364648015" lon="12.662933879419665"><ele>314.0</ele><time>2026-04-06T08:27:45Z</time></trkpt><trkpt lat="46.17353980835905" lon="12.662843196271465"><ele>311.2</ele><time>2026-04-06T08:27:46Z</time></trkpt><trkpt lat="46.1736154308771" lon="12.662747386466346"><ele>308.4</ele><time>2026-04-06T08:27:47Z</time></trkpt><trkpt lat="46.17367865405292" lon="12.662607547117531"><ele>305.6</ele><time>2026-04-06T08:27:48Z</time></trkpt><trkpt lat="46.173720067058746" lon="12.662445574510222"><ele>302.8</ele><time>2026-04-06T08:27:49Z</time></trkpt><trkpt lat="46.17375684214424" lon="12.662294898884861"><ele>300.0</ele><time>2026-04-06T08:27:50Z</time></trkpt><trkpt lat="46.173780808109655" lon="12.66214501859557"><ele>300.0</ele><time>2026-04-06T08:27:51Z</time></trkpt><trkpt lat="46.17378887673537" lon="12.661998360371982"><ele>300.0</ele><time>2026-04-06T08:27:52Z</time></trkpt><trkpt lat="46.17378789591322" lon="12.661859891864827"><ele>300.0</ele><time>2026-04-06T08:27:53Z</time></trkpt><trkpt lat="46.17381747348286" lon="12.661741641632327"><ele>300.0</ele><time>2026-04-06T08:27:54Z</time></trkpt><trkpt lat="46.173848324820625" lon="12.661640686518608"><ele>300.0</ele><time>2026-04-06T08:27:55Z</time></trkpt><trkpt lat="46.17387024969637" lon="12.661551035062706"><ele>300.0</ele><time>2026-04-06T08:27:56Z</time></trkpt><trkpt lat="46.173799656343256" lon="12.661424665280304"><ele>298.6</ele><time>2026-04-06T08:27:58Z</time></trkpt><trkpt lat="46.17371355726038" lon="12.661397612166734"><ele>297.2</ele><time>2026-04-06T08:27:59Z</time></trkpt><trkpt lat="46.173622721941896" lon="12.661372691125068"><ele>295.8</ele><time>2026-04-06T08:28:00Z</time></trkpt><trkpt lat="46.173520232363416" lon="12.661324557204797"><ele>294.4</ele><time>2026-04-06T08:28:01Z</time></trkpt><trkpt lat="46.173410767944425" lon="12.661276486562997"><ele>293.0</ele><time>2026-04-06T08:28:02Z</time></trkpt><trkpt lat="46.17331897294298" lon="12.661240104074182"><ele>293.0</ele><time>2026-04-06T08:28:03Z</time></trkpt><trkpt lat="46.17322387415439" lon="12.661198823538365"><ele>293.0</ele><time>2026-04-06T08:28:04Z</time></trkpt><trkpt lat="46.17313080056007" lon="12.661158687610305"><ele>293.0</ele><time>2026-04-06T08:28:05Z</time></trkpt><trkpt lat="46.17304904575962" lon="12.661125163446924"><ele>293.0</ele><time>2026-04-06T08:28:06Z</time></trkpt><trkpt lat="46.17297118233762" lon="12.661103487013706"><ele>293.0</ele><time>2026-04-06T08:28:07Z</time></trkpt><trkpt lat="46.17289283830576" lon="12.661117290748425"><ele>293.0</ele><time>2026-04-06T08:28:08Z</time></trkpt><trkpt lat="46.17282404255949" lon="12.661168315180506"><ele>296.0</ele><time>2026-04-06T08:28:09Z</time></trkpt><trkpt lat="46.172768943664884" lon="12.661249680944339"><ele>299.0</ele><time>2026-04-06T08:28:10Z</time></trkpt><trkpt lat="46.17271598172019" lon="12.661348774944049"><ele>302.0</ele><time>2026-04-06T08:28:11Z</time></trkpt><trkpt lat="46.172636735331835" lon="12.661450547532851"><ele>305.0</ele><time>2026-04-06T08:28:12Z</time></trkpt><trkpt lat="46.172537009614025" lon="12.6615578989309"><ele>308.0</ele><time>2026-04-06T08:28:13Z</time></trkpt><trkpt lat="46.172448210471146" lon="12.661686204862209"><ele>308.0</ele><time>2026-04-06T08:28:14Z</time></trkpt><trkpt lat="46.17238489812192" lon="12.661826397163393"><ele>308.0</ele><time>2026-04-06T08:28:15Z</time></trkpt><trkpt lat="46.17233626729603" lon="12.661970447664594"><ele>308.0</ele><time>2026-04-06T08:28:16Z</time></trkpt><trkpt lat="46.17229029084232" lon="12.662106684337818"><ele>308.0</ele><time>2026-04-06T08:28:17Z</time></trkpt><trkpt lat="46.17222702420604" lon="12.662225237951187"><ele>308.0</ele><time>2026-04-06T08:28:18Z</time></trkpt><trkpt lat="46.17213400874387" lon="12.66231590927728"><ele>309.0</ele><time>2026-04-06T08:28:19Z</time></trkpt><trkpt lat="46.17200738815918" lon="12.6623845856519"><ele>310.0</ele><time>2026-04-06T08:28:20Z</time></trkpt><trkpt lat="46.171880977206804" lon="12.662439928916593"><ele>311.0</ele><time>2026-04-06T08:28:21Z</time></trkpt><trkpt lat="46.17177365639911" lon="12.662494947618244"><ele>312.0</ele><time>2026-04-06T08:28:22Z</time></trkpt><trkpt lat="46.171678015219356" lon="12.66255072188291"><ele>312.0</ele><time>2026-04-06T08:28:23Z</time></trkpt><trkpt lat="46.17158607698163" lon="12.66258984980827"><ele>312.0</ele><time>2026-04-06T08:28:24Z</time></trkpt><trkpt lat="46.171491398536155" lon="12.662608628783547"><ele>312.0</ele><time>2026-04-06T08:28:25Z</time></trkpt><trkpt lat="46.17139103778942" lon="12.66259888943183"><ele>312.0</ele><time>2026-04-06T08:28:26Z</time></trkpt><trkpt lat="46.17130167587801" lon="12.662532591207292"><ele>312.0</ele><time>2026-04-06T08:28:26.999Z</time></trkpt><trkpt lat="46.17120264048756" lon="12.662471520381567"><ele>312.0</ele><time>2026-04-06T08:28:27.999Z</time></trkpt><trkpt lat="46.1710951637736" lon="12.662420698471717"><ele>312.0</ele><time>2026-04-06T08:28:28.999Z</time></trkpt><trkpt lat="46.170986594926006" lon="12.662394039443617"><ele>312.0</ele><time>2026-04-06T08:28:29.999Z</time></trkpt><trkpt lat="46.17089057021199" lon="12.662352282848078"><ele>312.0</ele><time>2026-04-06T08:28:30.999Z</time></trkpt><trkpt lat="46.170789747687124" lon="12.662282728992263"><ele>312.0</ele><time>2026-04-06T08:28:31.999Z</time></trkpt><trkpt lat="46.17068253753244" lon="12.662189230723644"><ele>309.75</ele><time>2026-04-06T08:28:32.999Z</time></trkpt><trkpt lat="46.17057855856601" lon="12.662101780232293"><ele>307.5</ele><time>2026-04-06T08:28:33.999Z</time></trkpt><trkpt lat="46.170485857611666" lon="12.662019759535234"><ele>305.25</ele><time>2026-04-06T08:28:34.999Z</time></trkpt><trkpt lat="46.17039208387039" lon="12.661934992417065"><ele>303.0</ele><time>2026-04-06T08:28:35.999Z</time></trkpt><trkpt lat="46.170293857621175" lon="12.661851983126803"><ele>307.5</ele><time>2026-04-06T08:28:36.999Z</time></trkpt><trkpt lat="46.17018814589542" lon="12.661772643664758"><ele>312.0</ele><time>2026-04-06T08:28:37.999Z</time></trkpt><trkpt lat="46.170065542048995" lon="12.661700918707163"><ele>316.5</ele><time>2026-04-06T08:28:38.999Z</time></trkpt><trkpt lat="46.16992608673027" lon="12.661642782627643"><ele>321.0</ele><time>2026-04-06T08:28:39.999Z</time></trkpt><trkpt lat="46.169773899248995" lon="12.6615943537297"><ele>321.0</ele><time>2026-04-06T08:28:40.999Z</time></trkpt><trkpt lat="46.16959649945037" lon="12.661539130075909"><ele>321.0</ele><time>2026-04-06T08:28:41.999Z</time></trkpt><trkpt lat="46.16939441586234" lon="12.6614771756443"><ele>321.0</ele><time>2026-04-06T08:28:42.999Z</time></trkpt><trkpt lat="46.16916935200871" lon="12.661408176003523"><ele>316.0</ele><time>2026-04-06T08:28:43.999Z</time></trkpt><trkpt lat="46.168918977196384" lon="12.661346453446235"><ele>311.0</ele><time>2026-04-06T08:28:44.999Z</time></trkpt><trkpt lat="46.168688434651784" lon="12.661290831252742"><ele>311.0</ele><time>2026-04-06T08:28:45.999Z</time></trkpt><trkpt lat="46.168481203292274" lon="12.661235990901723"><ele>311.0</ele><time>2026-04-06T08:28:46.999Z</time></trkpt><trkpt lat="46.16828266927687" lon="12.661183452267052"><ele>311.0</ele><time>2026-04-06T08:28:47.999Z</time></trkpt><trkpt lat="46.168097211500196" lon="12.661131252175597"><ele>319.6666666666667</ele><time>2026-04-06T08:28:48.999Z</time></trkpt><trkpt lat="46.16791751260247" lon="12.661079728463651"><ele>328.3333333333333</ele><time>2026-04-06T08:28:49.999Z</time></trkpt><trkpt lat="46.167743333218624" lon="12.661029787159544"><ele>337.0</ele><time>2026-04-06T08:28:50.999Z</time></trkpt><trkpt lat="46.16757585735203" lon="12.660986083071483"><ele>337.0</ele><time>2026-04-06T08:28:51.999Z</time></trkpt><trkpt lat="46.1674173088182" lon="12.66094510488859"><ele>337.0</ele><time>2026-04-06T08:28:52.999Z</time></trkpt><trkpt lat="46.16725192584619" lon="12.660927069980579"><ele>337.0</ele><time>2026-04-06T08:28:53.999Z</time></trkpt><trkpt lat="46.16708025205668" lon="12.66088622198644"><ele>335.3333333333333</ele><time>2026-04-06T08:28:54.999Z</time></trkpt><trkpt lat="46.16690883190113" lon="12.660842758046023"><ele>333.6666666666667</ele><time>2026-04-06T08:28:55.999Z</time></trkpt><trkpt lat="46.166755587027076" lon="12.660808903476875"><ele>332.0</ele><time>2026-04-06T08:28:56.999Z</time></trkpt><trkpt lat="46.16661702051128" lon="12.660781511383902"><ele>331.25</ele><time>2026-04-06T08:28:57.999Z</time></trkpt><trkpt lat="46.16648692127051" lon="12.660759674750917"><ele>330.5</ele><time>2026-04-06T08:28:58.999Z</time></trkpt><trkpt lat="46.16635164211714" lon="12.660746732906441"><ele>329.75</ele><time>2026-04-06T08:28:59.999Z</time></trkpt><trkpt lat="46.166219112007255" lon="12.660759531769568"><ele>329.0</ele><time>2026-04-06T08:29:00.999Z</time></trkpt><trkpt lat="46.16608613067817" lon="12.660803912470794"><ele>329.0</ele><time>2026-04-06T08:29:01.999Z</time></trkpt><trkpt lat="46.1659445092194" lon="12.660869016716383"><ele>329.0</ele><time>2026-04-06T08:29:02.999Z</time></trkpt><trkpt lat="46.16579678575311" lon="12.660933640770725"><ele>329.0</ele><time>2026-04-06T08:29:03.999Z</time></trkpt><trkpt lat="46.16564469262695" lon="12.660995912532737"><ele>327.6666666666667</ele><time>2026-04-06T08:29:04.999Z</time></trkpt><trkpt lat="46.16548885733481" lon="12.661056596540291"><ele>326.3333333333333</ele><time>2026-04-06T08:29:05.999Z</time></trkpt><trkpt lat="46.165329314642484" lon="12.661120903190877"><ele>325.0</ele><time>2026-04-06T08:29:06.999Z</time></trkpt><trkpt lat="46.165175399211016" lon="12.661169677850332"><ele>324.0</ele><time>2026-04-06T08:29:07.999Z</time></trkpt><trkpt lat="46.165023773054905" lon="12.661191200518315"><ele>323.0</ele><time>2026-04-06T08:29:09Z</time></trkpt><trkpt lat="46.16485695377167" lon="12.661183765102237"><ele>322.0</ele><time>2026-04-06T08:29:10Z</time></trkpt><trkpt lat="46.164689485002995" lon="12.661182484660863"><ele>322.0</ele><time>2026-04-06T08:29:11Z</time></trkpt><trkpt lat="46.164526987761654" lon="12.661193030947512"><ele>322.0</ele><time>2026-04-06T08:29:12Z</time></trkpt><trkpt lat="46.16437151403231" lon="12.661211634024767"><ele>322.0</ele><time>2026-04-06T08:29:13Z</time></trkpt><trkpt lat="46.16421910423249" lon="12.661244442961609"><ele>322.0</ele><time>2026-04-06T08:29:14Z</time></trkpt><trkpt lat="46.16407203124529" lon="12.661259518121378"><ele>322.0</ele><time>2026-04-06T08:29:15Z</time></trkpt><trkpt lat="46.163925867311775" lon="12.6612669370287"><ele>322.0</ele><time>2026-04-06T08:29:16Z</time></trkpt><trkpt lat="46.16377332508984" lon="12.661269284646494"><ele>322.0</ele><time>2026-04-06T08:29:17Z</time></trkpt><trkpt lat="46.163635695936165" lon="12.661260527471436"><ele>321.8333333333333</ele><time>2026-04-06T08:29:18Z</time></trkpt><trkpt lat="46.16352374037303" lon="12.661251625150262"><ele>321.66666666666663</ele><time>2026-04-06T08:29:19Z</time></trkpt><trkpt lat="46.16342794575648" lon="12.66124368781093"><ele>321.5</ele><time>2026-04-06T08:29:20Z</time></trkpt><trkpt lat="46.163340043325626" lon="12.661237230268924"><ele>321.3333333333333</ele><time>2026-04-06T08:29:21Z</time></trkpt><trkpt lat="46.16325948070031" lon="12.661229412033224"><ele>321.1666666666667</ele><time>2026-04-06T08:29:22Z</time></trkpt><trkpt lat="46.16319199773595" lon="12.661222287168583"><ele>321.0</ele><time>2026-04-06T08:29:23Z</time></trkpt><trkpt lat="46.16312864157006" lon="12.661211733354952"><ele>320.8</ele><time>2026-04-06T08:29:25Z</time></trkpt><trkpt lat="46.16305660973372" lon="12.66111042271271"><ele>320.6</ele><time>2026-04-06T08:29:28Z</time></trkpt><trkpt lat="46.16307603689797" lon="12.661004358738444"><ele>320.4</ele><time>2026-04-06T08:29:29Z</time></trkpt><trkpt lat="46.163104799009254" lon="12.660893063406194"><ele>320.2</ele><time>2026-04-06T08:29:30Z</time></trkpt><trkpt lat="46.1631212386274" lon="12.660744372429562"><ele>320.0</ele><time>2026-04-06T08:29:31Z</time></trkpt><trkpt lat="46.163148693322874" lon="12.660574750507632"><ele>320.0</ele><time>2026-04-06T08:29:32Z</time></trkpt><trkpt lat="46.16318138837986" lon="12.660390672322148"><ele>320.0</ele><time>2026-04-06T08:29:33Z</time></trkpt><trkpt lat="46.16321250034474" lon="12.660199312674369"><ele>320.0</ele><time>2026-04-06T08:29:34Z</time></trkpt><trkpt lat="46.163242045701466" lon="12.660004131296693"><ele>320.0</ele><time>2026-04-06T08:29:35Z</time></trkpt><trkpt lat="46.16327256879034" lon="12.659816868789019"><ele>320.75</ele><time>2026-04-06T08:29:36Z</time></trkpt><trkpt lat="46.1633018630402" lon="12.65963176636951"><ele>321.5</ele><time>2026-04-06T08:29:37Z</time></trkpt><trkpt lat="46.163329195934566" lon="12.659453164030808"><ele>322.25</ele><time>2026-04-06T08:29:38Z</time></trkpt><trkpt lat="46.163357119687674" lon="12.65928188622877"><ele>323.0</ele><time>2026-04-06T08:29:39Z</time></trkpt><trkpt lat="46.16338266988798" lon="12.659116145012222"><ele>324.5</ele><time>2026-04-06T08:29:40Z</time></trkpt><trkpt lat="46.16340724267843" lon="12.658952547481757"><ele>326.0</ele><time>2026-04-06T08:29:41Z</time></trkpt><trkpt lat="46.163431423981905" lon="12.65878308422653"><ele>327.5</ele><time>2026-04-06T08:29:42Z</time></trkpt><trkpt lat="46.163456275749155" lon="12.658602958941838"><ele>329.0</ele><time>2026-04-06T08:29:43Z</time></trkpt><trkpt lat="46.163476746034526" lon="12.65842414536633"><ele>330.4</ele><time>2026-04-06T08:29:44Z</time></trkpt><trkpt lat="46.163485572777724" lon="12.658256837655362"><ele>331.79999999999995</ele><time>2026-04-06T08:29:45Z</time></trkpt><trkpt lat="46.16348779744758" lon="12.658096940367011"><ele>333.20000000000005</ele><time>2026-04-06T08:29:46Z</time></trkpt><trkpt lat="46.1634827799106" lon="12.657938866708195"><ele>334.6</ele><time>2026-04-06T08:29:47Z</time></trkpt><trkpt lat="46.16346299016779" lon="12.657779287021743"><ele>336.0</ele><time>2026-04-06T08:29:48Z</time></trkpt><trkpt lat="46.16342004973903" lon="12.657647011953292"><ele>335.25</ele><time>2026-04-06T08:29:49Z</time></trkpt><trkpt lat="46.16335614376666" lon="12.657533200526801"><ele>334.5</ele><time>2026-04-06T08:29:50Z</time></trkpt><trkpt lat="46.163276494169565" lon="12.657432498256131"><ele>333.75</ele><time>2026-04-06T08:29:51Z</time></trkpt><trkpt lat="46.16317766785" lon="12.657328260234191"><ele>333.0</ele><time>2026-04-06T08:29:52Z</time></trkpt><trkpt lat="46.16306588588757" lon="12.657224570928202"><ele>333.0</ele><time>2026-04-06T08:29:53Z</time></trkpt><trkpt lat="46.16295781879634" lon="12.657134326045501"><ele>333.0</ele><time>2026-04-06T08:29:54Z</time></trkpt><trkpt lat="46.162863202588554" lon="12.657052679917546"><ele>333.0</ele><time>2026-04-06T08:29:55Z</time></trkpt><trkpt lat="46.16278406435306" lon="12.65698307276361"><ele>333.0</ele><time>2026-04-06T08:29:56Z</time></trkpt><trkpt lat="46.16269616044159" lon="12.6568927618086"><ele>333.0</ele><time>2026-04-06T08:29:57Z</time></trkpt><trkpt lat="46.16263726116424" lon="12.656800230630394"><ele>334.8333333333333</ele><time>2026-04-06T08:29:58Z</time></trkpt><trkpt lat="46.16260762055221" lon="12.656716048993623"><ele>336.6666666666667</ele><time>2026-04-06T08:29:59Z</time></trkpt><trkpt lat="46.16259657614078" lon="12.656624063425108"><ele>338.5</ele><time>2026-04-06T08:30:00Z</time></trkpt><trkpt lat="46.16265875751266" lon="12.656496909904467"><ele>340.33333333333337</ele><time>2026-04-06T08:30:02Z</time></trkpt><trkpt lat="46.162724772621495" lon="12.656476231990933"><ele>342.1666666666667</ele><time>2026-04-06T08:30:03Z</time></trkpt><trkpt lat="46.16280077966015" lon="12.656497724915582"><ele>344.0</ele><time>2026-04-06T08:30:04Z</time></trkpt><trkpt lat="46.16288014553301" lon="12.656531070313346"><ele>344.0</ele><time>2026-04-06T08:30:05Z</time></trkpt><trkpt lat="46.16294939923379" lon="12.6565569643639"><ele>344.0</ele><time>2026-04-06T08:30:06Z</time></trkpt><trkpt lat="46.16302590760154" lon="12.656575821302457"><ele>344.0</ele><time>2026-04-06T08:30:07Z</time></trkpt><trkpt lat="46.163112294662845" lon="12.656580879694262"><ele>344.0</ele><time>2026-04-06T08:30:08Z</time></trkpt><trkpt lat="46.16321030770845" lon="12.656562415506794"><ele>344.0</ele><time>2026-04-06T08:30:09Z</time></trkpt><trkpt lat="46.16331002231925" lon="12.656506779817784"><ele>344.0</ele><time>2026-04-06T08:30:10Z</time></trkpt><trkpt lat="46.16339599515647" lon="12.656420952831402"><ele>348.25</ele><time>2026-04-06T08:30:11Z</time></trkpt><trkpt lat="46.163469466326674" lon="12.656309460415864"><ele>352.5</ele><time>2026-04-06T08:30:12Z</time></trkpt><trkpt lat="46.163535120992705" lon="12.656184997897382"><ele>356.75</ele><time>2026-04-06T08:30:13Z</time></trkpt><trkpt lat="46.163596031769806" lon="12.656035497457108"><ele>361.0</ele><time>2026-04-06T08:30:14Z</time></trkpt><trkpt lat="46.16367059606466" lon="12.655885914333469"><ele>365.75</ele><time>2026-04-06T08:30:15Z</time></trkpt><trkpt lat="46.16373393589279" lon="12.655712474098955"><ele>370.5</ele><time>2026-04-06T08:30:16Z</time></trkpt><trkpt lat="46.1637989513336" lon="12.65553066422193"><ele>375.25</ele><time>2026-04-06T08:30:17Z</time></trkpt><trkpt lat="46.16386291363886" lon="12.655349455673703"><ele>380.0</ele><time>2026-04-06T08:30:18Z</time></trkpt><trkpt lat="46.16392404634225" lon="12.65516723630767"><ele>385.5</ele><time>2026-04-06T08:30:19Z</time></trkpt><trkpt lat="46.16398948029568" lon="12.654983352707703"><ele>391.0</ele><time>2026-04-06T08:30:20Z</time></trkpt><trkpt lat="46.16406292299587" lon="12.654781117800443"><ele>396.5</ele><time>2026-04-06T08:30:21.06Z</time></trkpt><trkpt lat="46.16412968600469" lon="12.654595022976117"><ele>402.0</ele><time>2026-04-06T08:30:22.059Z</time></trkpt><trkpt lat="46.164196408533044" lon="12.654413489457033"><ele>409.0</ele><time>2026-04-06T08:30:23.059Z</time></trkpt><trkpt lat="46.16426507694279" lon="12.654227700977657"><ele>416.0</ele><time>2026-04-06T08:30:24.056Z</time></trkpt><trkpt lat="46.16471483350909" lon="12.65246624511163"><ele>418.75</ele><time>2026-04-06T08:30:34.999Z</time></trkpt><trkpt lat="46.16472719534156" lon="12.652328695644856"><ele>421.5</ele><time>2026-04-06T08:30:35.999Z</time></trkpt><trkpt lat="46.16490911301234" lon="12.65218738452741"><ele>424.25</ele><time>2026-04-06T08:30:36.999Z</time></trkpt><trkpt lat="46.16487817383651" lon="12.651991192842932"><ele>427.0</ele><time>2026-04-06T08:30:37.999Z</time></trkpt><trkpt lat="46.164848026974454" lon="12.651775922930858"><ele>427.0</ele><time>2026-04-06T08:30:38.999Z</time></trkpt><trkpt lat="46.16481921759415" lon="12.651575170080813"><ele>427.0</ele><time>2026-04-06T08:30:39.999Z</time></trkpt><trkpt lat="46.16479614749271" lon="12.651414410320328"><ele>427.0</ele><time>2026-04-06T08:30:40.999Z</time></trkpt><trkpt lat="46.164770055178344" lon="12.65123069870768"><ele>427.0</ele><time>2026-04-06T08:30:41.999Z</time></trkpt><trkpt lat="46.164744794236825" lon="12.651043488749856"><ele>427.0</ele><time>2026-04-06T08:30:42.999Z</time></trkpt><trkpt lat="46.16473062375082" lon="12.65084936578928"><ele>427.0</ele><time>2026-04-06T08:30:43.999Z</time></trkpt><trkpt lat="46.16472838993469" lon="12.650636122908573"><ele>427.0</ele><time>2026-04-06T08:30:44.999Z</time></trkpt><trkpt lat="46.16473197365781" lon="12.650416499993371"><ele>427.0</ele><time>2026-04-06T08:30:45.999Z</time></trkpt><trkpt lat="46.16473961211286" lon="12.650181517169646"><ele>421.5</ele><time>2026-04-06T08:30:46.999Z</time></trkpt><trkpt lat="46.16476047440215" lon="12.649876827168452"><ele>416.0</ele><time>2026-04-06T08:30:47.999Z</time></trkpt><trkpt lat="46.16479923078952" lon="12.64950214374792"><ele>416.0</ele><time>2026-04-06T08:30:48.999Z</time></trkpt><trkpt lat="46.16484356320183" lon="12.649122518427244"><ele>416.0</ele><time>2026-04-06T08:30:49.999Z</time></trkpt><trkpt lat="46.16489107067937" lon="12.648715703868021"><ele>382.0</ele><time>2026-04-06T08:30:50.999Z</time></trkpt><trkpt lat="46.164939872678026" lon="12.648299064297563"><ele>348.0</ele><time>2026-04-06T08:30:51.999Z</time></trkpt><trkpt lat="46.16498731526229" lon="12.647897505089368"><ele>348.5</ele><time>2026-04-06T08:30:52.999Z</time></trkpt><trkpt lat="46.16503554464369" lon="12.647506076009288"><ele>349.0</ele><time>2026-04-06T08:30:53.999Z</time></trkpt><trkpt lat="46.165081956787404" lon="12.647127398972618"><ele>349.0</ele><time>2026-04-06T08:30:54.999Z</time></trkpt><trkpt lat="46.16511838019976" lon="12.646774738748345"><ele>349.0</ele><time>2026-04-06T08:30:55.999Z</time></trkpt><trkpt lat="46.16513033891264" lon="12.646433615768885"><ele>350.66666666666663</ele><time>2026-04-06T08:30:56.999Z</time></trkpt><trkpt lat="46.16512903758831" lon="12.646117674300218"><ele>352.3333333333333</ele><time>2026-04-06T08:30:57.999Z</time></trkpt><trkpt lat="46.16512242841966" lon="12.645833308148505"><ele>354.0</ele><time>2026-04-06T08:30:58.999Z</time></trkpt><trkpt lat="46.165116536661884" lon="12.645553133097073"><ele>354.0</ele><time>2026-04-06T08:30:59.999Z</time></trkpt><trkpt lat="46.165110960917104" lon="12.645287985773116"><ele>354.0</ele><time>2026-04-06T08:31:00.999Z</time></trkpt><trkpt lat="46.165105114321214" lon="12.645036093662814"><ele>354.0</ele><time>2026-04-06T08:31:01.999Z</time></trkpt><trkpt lat="46.165098885787906" lon="12.64478783673981"><ele>354.0</ele><time>2026-04-06T08:31:02.999Z</time></trkpt><trkpt lat="46.16509282085165" lon="12.644546101008261"><ele>354.0</ele><time>2026-04-06T08:31:03.999Z</time></trkpt><trkpt lat="46.16508681813457" lon="12.644305709291505"><ele>354.0</ele><time>2026-04-06T08:31:04.999Z</time></trkpt><trkpt lat="46.165081004207074" lon="12.64407288102812"><ele>352.6666666666667</ele><time>2026-04-06T08:31:05.999Z</time></trkpt><trkpt lat="46.165075294276825" lon="12.643844217222647"><ele>351.33333333333337</ele><time>2026-04-06T08:31:06.999Z</time></trkpt><trkpt lat="46.16506985237021" lon="12.64362005266415"><ele>350.0</ele><time>2026-04-06T08:31:07.999Z</time></trkpt><trkpt lat="46.16506503773242" lon="12.643408251652197"><ele>349.75</ele><time>2026-04-06T08:31:08.999Z</time></trkpt><trkpt lat="46.165060420680575" lon="12.643205143265044"><ele>349.5</ele><time>2026-04-06T08:31:09.999Z</time></trkpt><trkpt lat="46.165055605496" lon="12.643004335335721"><ele>349.25</ele><time>2026-04-06T08:31:10.999Z</time></trkpt><trkpt lat="46.16505014898488" lon="12.642798861465527"><ele>349.0</ele><time>2026-04-06T08:31:11.999Z</time></trkpt><trkpt lat="46.16504526382418" lon="12.642599601401173"><ele>348.75</ele><time>2026-04-06T08:31:12.999Z</time></trkpt><trkpt lat="46.165040587281936" lon="12.642404058508406"><ele>348.5</ele><time>2026-04-06T08:31:13.999Z</time></trkpt><trkpt lat="46.165035656116004" lon="12.642211142697166"><ele>348.25</ele><time>2026-04-06T08:31:15Z</time></trkpt><trkpt lat="46.16503106234303" lon="12.642017915523102"><ele>348.0</ele><time>2026-04-06T08:31:16Z</time></trkpt><trkpt lat="46.165025918727146" lon="12.641824294309222"><ele>348.0</ele><time>2026-04-06T08:31:17Z</time></trkpt><trkpt lat="46.16502087039617" lon="12.641625177197628"><ele>348.0</ele><time>2026-04-06T08:31:18Z</time></trkpt><trkpt lat="46.16501592565645" lon="12.641423061292478"><ele>348.0</ele><time>2026-04-06T08:31:19Z</time></trkpt><trkpt lat="46.165011077974576" lon="12.641224912113662"><ele>348.0</ele><time>2026-04-06T08:31:20Z</time></trkpt><trkpt lat="46.16500656857901" lon="12.641040590497473"><ele>347.59999999999997</ele><time>2026-04-06T08:31:21Z</time></trkpt><trkpt lat="46.16500285819091" lon="12.640888931770098"><ele>347.2</ele><time>2026-04-06T08:31:22Z</time></trkpt><trkpt lat="46.164999450208185" lon="12.640750007645655"><ele>346.8</ele><time>2026-04-06T08:31:23Z</time></trkpt><trkpt lat="46.16499577648882" lon="12.64060012049466"><ele>346.4</ele><time>2026-04-06T08:31:24Z</time></trkpt><trkpt lat="46.1649916225946" lon="12.640425058357035"><ele>346.0</ele><time>2026-04-06T08:31:25Z</time></trkpt><trkpt lat="46.164957639588216" lon="12.640229293092204"><ele>344.66666666666663</ele><time>2026-04-06T08:31:26Z</time></trkpt><trkpt lat="46.16495353008857" lon="12.640024666688843"><ele>343.3333333333333</ele><time>2026-04-06T08:31:27Z</time></trkpt><trkpt lat="46.16494662342904" lon="12.639805873221585"><ele>342.0</ele><time>2026-04-06T08:31:28Z</time></trkpt><trkpt lat="46.164938893455414" lon="12.639564425605426"><ele>337.3333333333333</ele><time>2026-04-06T08:31:29Z</time></trkpt><trkpt lat="46.1649635964236" lon="12.639301039695628"><ele>332.66666666666663</ele><time>2026-04-06T08:31:30Z</time></trkpt><trkpt lat="46.164956583278645" lon="12.639018026696336"><ele>328.0</ele><time>2026-04-06T08:31:31Z</time></trkpt><trkpt lat="46.16494916103721" lon="12.638715360326746"><ele>327.0</ele><time>2026-04-06T08:31:32Z</time></trkpt><trkpt lat="46.164942102534845" lon="12.63839173800103"><ele>326.0</ele><time>2026-04-06T08:31:33Z</time></trkpt><trkpt lat="46.16493507666722" lon="12.638069611886445"><ele>325.0</ele><time>2026-04-06T08:31:34Z</time></trkpt><trkpt lat="46.16492837249677" lon="12.637762235584287"><ele>325.0</ele><time>2026-04-06T08:31:35Z</time></trkpt><trkpt lat="46.16492286518845" lon="12.637487674362673"><ele>325.0</ele><time>2026-04-06T08:31:36Z</time></trkpt><trkpt lat="46.16491917872284" lon="12.637244507875831"><ele>325.0</ele><time>2026-04-06T08:31:37Z</time></trkpt><trkpt lat="46.164919957808785" lon="12.63700319316998"><ele>326.0</ele><time>2026-04-06T08:31:38Z</time></trkpt><trkpt lat="46.16492682812441" lon="12.636762372353077"><ele>327.0</ele><time>2026-04-06T08:31:39Z</time></trkpt><trkpt lat="46.16493753129319" lon="12.636515148208277"><ele>328.0</ele><time>2026-04-06T08:31:40Z</time></trkpt><trkpt lat="46.164920476156766" lon="12.636255423264874"><ele>331.3333333333333</ele><time>2026-04-06T08:31:41Z</time></trkpt><trkpt lat="46.16493438113449" lon="12.635988166208614"><ele>334.6666666666667</ele><time>2026-04-06T08:31:42Z</time></trkpt><trkpt lat="46.16496196925043" lon="12.635677713279096"><ele>338.0</ele><time>2026-04-06T08:31:43Z</time></trkpt><trkpt lat="46.16500050399671" lon="12.635362478531201"><ele>336.5</ele><time>2026-04-06T08:31:44Z</time></trkpt><trkpt lat="46.16508431568532" lon="12.635050356140313"><ele>335.0</ele><time>2026-04-06T08:31:45Z</time></trkpt><trkpt lat="46.16513548323017" lon="12.634731252911436"><ele>328.6666666666667</ele><time>2026-04-06T08:31:46Z</time></trkpt><trkpt lat="46.16519511048484" lon="12.634417564414818"><ele>322.3333333333333</ele><time>2026-04-06T08:31:47Z</time></trkpt><trkpt lat="46.16525163425112" lon="12.634138656416868"><ele>316.0</ele><time>2026-04-06T08:31:48Z</time></trkpt><trkpt lat="46.16530267306186" lon="12.63388681832772"><ele>316.0</ele><time>2026-04-06T08:31:49Z</time></trkpt><trkpt lat="46.16534014586355" lon="12.633660752678484"><ele>316.0</ele><time>2026-04-06T08:31:50Z</time></trkpt><trkpt lat="46.16539687694553" lon="12.633452648588598"><ele>316.0</ele><time>2026-04-06T08:31:51Z</time></trkpt><trkpt lat="46.165454482850066" lon="12.633244373354847"><ele>315.3333333333333</ele><time>2026-04-06T08:31:52Z</time></trkpt><trkpt lat="46.165518648718496" lon="12.633013057086613"><ele>314.6666666666667</ele><time>2026-04-06T08:31:53Z</time></trkpt><trkpt lat="46.165595792853715" lon="12.632759722371132"><ele>314.0</ele><time>2026-04-06T08:31:54Z</time></trkpt><trkpt lat="46.16568236211203" lon="12.632496931180656"><ele>333.33333333333337</ele><time>2026-04-06T08:31:55Z</time></trkpt><trkpt lat="46.165761235987574" lon="12.632254900960348"><ele>352.6666666666667</ele><time>2026-04-06T08:31:56Z</time></trkpt><trkpt lat="46.16583844602037" lon="12.63202768495528"><ele>372.0</ele><time>2026-04-06T08:31:57Z</time></trkpt><trkpt lat="46.16591738726301" lon="12.63179895439786"><ele>375.3333333333333</ele><time>2026-04-06T08:31:58Z</time></trkpt><trkpt lat="46.16599899550335" lon="12.631566069394962"><ele>378.66666666666663</ele><time>2026-04-06T08:31:59Z</time></trkpt><trkpt lat="46.16608048499233" lon="12.631335857588383"><ele>382.0</ele><time>2026-04-06T08:32:00Z</time></trkpt><trkpt lat="46.16616498009797" lon="12.631108236245865"><ele>384.0</ele><time>2026-04-06T08:32:01Z</time></trkpt><trkpt lat="46.16625500707996" lon="12.630860887346827"><ele>386.0</ele><time>2026-04-06T08:32:02.061Z</time></trkpt><trkpt lat="46.16633724908494" lon="12.63064256153831"><ele>388.0</ele><time>2026-04-06T08:32:03.063Z</time></trkpt><trkpt lat="46.166415147179954" lon="12.630446410109654"><ele>388.0</ele><time>2026-04-06T08:32:04.065Z</time></trkpt><trkpt lat="46.166491949521706" lon="12.63025332708896"><ele>388.0</ele><time>2026-04-06T08:32:05.06Z</time></trkpt><trkpt lat="46.19532203547979" lon="12.605728918156567"><ele>397.25</ele><time>2026-04-06T08:35:33.998Z</time></trkpt><trkpt lat="46.1953613320209" lon="12.605541887553679"><ele>406.5</ele><time>2026-04-06T08:35:34.998Z</time></trkpt><trkpt lat="46.19540086208827" lon="12.605391242137953"><ele>415.75</ele><time>2026-04-06T08:35:35.998Z</time></trkpt><trkpt lat="46.195515118854544" lon="12.605214715461072"><ele>425.0</ele><time>2026-04-06T08:35:36.998Z</time></trkpt><trkpt lat="46.19555460769134" lon="12.604988069032174"><ele>425.0</ele><time>2026-04-06T08:35:37.998Z</time></trkpt><trkpt lat="46.19558812723229" lon="12.604773898766053"><ele>425.0</ele><time>2026-04-06T08:35:38.998Z</time></trkpt><trkpt lat="46.19562001806577" lon="12.604563338828905"><ele>425.0</ele><time>2026-04-06T08:35:40Z</time></trkpt><trkpt lat="46.1956339463258" lon="12.604355215851358"><ele>425.0</ele><time>2026-04-06T08:35:41Z</time></trkpt><trkpt lat="46.19567034603127" lon="12.604156963826734"><ele>420.3333333333333</ele><time>2026-04-06T08:35:42Z</time></trkpt><trkpt lat="46.19568335408278" lon="12.603944103966056"><ele>415.66666666666663</ele><time>2026-04-06T08:35:43Z</time></trkpt><trkpt lat="46.195705148900984" lon="12.603718791156044"><ele>411.0</ele><time>2026-04-06T08:35:44Z</time></trkpt><trkpt lat="46.19571363723915" lon="12.603486972552645"><ele>411.0</ele><time>2026-04-06T08:35:45Z</time></trkpt><trkpt lat="46.19572005229094" lon="12.603246411889648"><ele>411.0</ele><time>2026-04-06T08:35:46Z</time></trkpt><trkpt lat="46.195722154761" lon="12.603000626604018"><ele>411.0</ele><time>2026-04-06T08:35:47Z</time></trkpt><trkpt lat="46.195742578154814" lon="12.602751230066264"><ele>411.33333333333337</ele><time>2026-04-06T08:35:48Z</time></trkpt><trkpt lat="46.19574394235439" lon="12.602479801922442"><ele>411.6666666666667</ele><time>2026-04-06T08:35:49Z</time></trkpt><trkpt lat="46.195738000123676" lon="12.602186373546576"><ele>412.0</ele><time>2026-04-06T08:35:50Z</time></trkpt><trkpt lat="46.19572725139554" lon="12.601895659361634"><ele>413.33333333333337</ele><time>2026-04-06T08:35:51Z</time></trkpt><trkpt lat="46.19571105111747" lon="12.601615440392747"><ele>414.66666666666663</ele><time>2026-04-06T08:35:52Z</time></trkpt><trkpt lat="46.19569029491291" lon="12.601343000283538"><ele>416.0</ele><time>2026-04-06T08:35:53Z</time></trkpt><trkpt lat="46.19566384910442" lon="12.60105813923196"><ele>410.0</ele><time>2026-04-06T08:35:54.072Z</time></trkpt><trkpt lat="46.195638705548184" lon="12.600804994192403"><ele>404.0</ele><time>2026-04-06T08:35:55.057Z</time></trkpt><trkpt lat="46.195611991652264" lon="12.600542166166488"><ele>398.0</ele><time>2026-04-06T08:35:56Z</time></trkpt><trkpt lat="46.19557597041461" lon="12.600289885409493"><ele>397.0</ele><time>2026-04-06T08:35:57Z</time></trkpt><trkpt lat="46.19553938962186" lon="12.600027207415696"><ele>396.0</ele><time>2026-04-06T08:35:58Z</time></trkpt><trkpt lat="46.19549643879092" lon="12.599771944663448"><ele>395.0</ele><time>2026-04-06T08:35:59Z</time></trkpt><trkpt lat="46.19544093409285" lon="12.599507849565754"><ele>395.3333333333333</ele><time>2026-04-06T08:36:00Z</time></trkpt><trkpt lat="46.195386882816265" lon="12.599213101273193"><ele>395.66666666666663</ele><time>2026-04-06T08:36:01Z</time></trkpt><trkpt lat="46.19530093312254" lon="12.598900666395409"><ele>396.0</ele><time>2026-04-06T08:36:02Z</time></trkpt><trkpt lat="46.19518203300874" lon="12.598581462326026"><ele>396.0</ele><time>2026-04-06T08:36:03Z</time></trkpt><trkpt lat="46.1950800964148" lon="12.598271003535817"><ele>396.0</ele><time>2026-04-06T08:36:04Z</time></trkpt><trkpt lat="46.1949904180853" lon="12.597996659606832"><ele>396.0</ele><time>2026-04-06T08:36:05Z</time></trkpt><trkpt lat="46.19490861225852" lon="12.597741901441106"><ele>398.66666666666663</ele><time>2026-04-06T08:36:06Z</time></trkpt><trkpt lat="46.19482883108412" lon="12.597491694785981"><ele>401.3333333333333</ele><time>2026-04-06T08:36:07Z</time></trkpt><trkpt lat="46.19474862941724" lon="12.597251822073229"><ele>404.0</ele><time>2026-04-06T08:36:08Z</time></trkpt><trkpt lat="46.194660999133504" lon="12.596992115626819"><ele>404.0</ele><time>2026-04-06T08:36:09Z</time></trkpt><trkpt lat="46.19456410726343" lon="12.596714265864435"><ele>404.0</ele><time>2026-04-06T08:36:10Z</time></trkpt><trkpt lat="46.19446698282447" lon="12.596421244964812"><ele>404.0</ele><time>2026-04-06T08:36:11Z</time></trkpt><trkpt lat="46.19436788772766" lon="12.596120415372392"><ele>403.0</ele><time>2026-04-06T08:36:12Z</time></trkpt><trkpt lat="46.1942699205737" lon="12.59582235490335"><ele>402.0</ele><time>2026-04-06T08:36:13Z</time></trkpt><trkpt lat="46.194181439771896" lon="12.595554890544326"><ele>401.0</ele><time>2026-04-06T08:36:14Z</time></trkpt><trkpt lat="46.19410280828832" lon="12.59531693133165"><ele>399.66666666666663</ele><time>2026-04-06T08:36:15Z</time></trkpt><trkpt lat="46.19402646631645" lon="12.595084331262546"><ele>398.33333333333337</ele><time>2026-04-06T08:36:16Z</time></trkpt><trkpt lat="46.19393967211621" lon="12.594831182629923"><ele>397.0</ele><time>2026-04-06T08:36:17Z</time></trkpt><trkpt lat="46.19386554699035" lon="12.594551438385684"><ele>416.5</ele><time>2026-04-06T08:36:18Z</time></trkpt><trkpt lat="46.193768353912404" lon="12.594257648439951"><ele>436.0</ele><time>2026-04-06T08:36:19Z</time></trkpt><trkpt lat="46.19366311417902" lon="12.593939885361163"><ele>437.0</ele><time>2026-04-06T08:36:20Z</time></trkpt><trkpt lat="46.193549854801375" lon="12.593596298669826"><ele>438.0</ele><time>2026-04-06T08:36:21Z</time></trkpt><trkpt lat="46.19343169215004" lon="12.593238299495377"><ele>438.0</ele><time>2026-04-06T08:36:22Z</time></trkpt><trkpt lat="46.19346360215874" lon="12.593334640345832"><ele>438.0</ele><time>2026-04-06T08:36:23.077Z</time></trkpt><trkpt lat="46.19338259942311" lon="12.593091035724266"><ele>438.0</ele><time>2026-04-06T08:36:24.066Z</time></trkpt><trkpt lat="46.19330101702039" lon="12.592846312463097"><ele>438.0</ele><time>2026-04-06T08:36:25.071Z</time></trkpt><trkpt lat="46.193220725095465" lon="12.592605460263588"><ele>439.66666666666663</ele><time>2026-04-06T08:36:26.063Z</time></trkpt><trkpt lat="46.1931391400307" lon="12.59236072899891"><ele>441.3333333333333</ele><time>2026-04-06T08:36:27.062Z</time></trkpt><trkpt lat="46.19305807455508" lon="12.592116756460252"><ele>443.0</ele><time>2026-04-06T08:36:28.062Z</time></trkpt><trkpt lat="46.19235838719169" lon="12.589420126517092"><ele>478.0</ele><time>2026-04-06T08:36:31.249Z</time></trkpt><trkpt lat="46.19222786099309" lon="12.588537405110372"><ele>473.0</ele><time>2026-04-06T08:36:32.245Z</time></trkpt><trkpt lat="46.19214292694525" lon="12.587635928308371"><ele>470.0</ele><time>2026-04-06T08:36:33.248Z</time></trkpt><trkpt lat="46.19210499621849" lon="12.58672987720112"><ele>409.0</ele><time>2026-04-06T08:36:34.249Z</time></trkpt><trkpt lat="46.1920184569784" lon="12.581897077767744"><ele>409.0</ele><time>2026-04-06T08:37:09.999Z</time></trkpt><trkpt lat="46.19199167139259" lon="12.581713611995154"><ele>409.0</ele><time>2026-04-06T08:37:10.999Z</time></trkpt><trkpt lat="46.191996467199054" lon="12.581515410899087"><ele>409.0</ele><time>2026-04-06T08:37:11.999Z</time></trkpt><trkpt lat="46.19198214019281" lon="12.58132029692584"><ele>409.0</ele><time>2026-04-06T08:37:12.999Z</time></trkpt><trkpt lat="46.19196253141824" lon="12.581127995998234"><ele>408.75</ele><time>2026-04-06T08:37:13.999Z</time></trkpt><trkpt lat="46.19194422886654" lon="12.580930633498017"><ele>408.5</ele><time>2026-04-06T08:37:14.999Z</time></trkpt><trkpt lat="46.191921472846055" lon="12.580724983250493"><ele>408.25</ele><time>2026-04-06T08:37:15.999Z</time></trkpt><trkpt lat="46.19189492395504" lon="12.580516801867153"><ele>408.0</ele><time>2026-04-06T08:37:16.999Z</time></trkpt><trkpt lat="46.191856584450456" lon="12.580298587189128"><ele>408.66666666666663</ele><time>2026-04-06T08:37:17.999Z</time></trkpt><trkpt lat="46.19181833069443" lon="12.580087032243311"><ele>409.3333333333333</ele><time>2026-04-06T08:37:18.999Z</time></trkpt><trkpt lat="46.19177330745818" lon="12.57987373666739"><ele>410.0</ele><time>2026-04-06T08:37:19.999Z</time></trkpt><trkpt lat="46.19172185642125" lon="12.579665137861287"><ele>409.3333333333333</ele><time>2026-04-06T08:37:20.999Z</time></trkpt><trkpt lat="46.19167211310507" lon="12.579443310606653"><ele>408.66666666666663</ele><time>2026-04-06T08:37:21.999Z</time></trkpt><trkpt lat="46.19161150796738" lon="12.579220677999569"><ele>408.0</ele><time>2026-04-06T08:37:22.999Z</time></trkpt><trkpt lat="46.19154348284384" lon="12.579003006100406"><ele>405.66666666666663</ele><time>2026-04-06T08:37:23.999Z</time></trkpt><trkpt lat="46.19147380957555" lon="12.578793275903815"><ele>403.3333333333333</ele><time>2026-04-06T08:37:24.999Z</time></trkpt><trkpt lat="46.191402960443135" lon="12.578601513750757"><ele>401.0</ele><time>2026-04-06T08:37:25.999Z</time></trkpt><trkpt lat="46.191335040355916" lon="12.578413344613487"><ele>401.0</ele><time>2026-04-06T08:37:26.999Z</time></trkpt><trkpt lat="46.19125604246107" lon="12.578217650871206"><ele>401.0</ele><time>2026-04-06T08:37:27.999Z</time></trkpt><trkpt lat="46.191184022959625" lon="12.578013601825335"><ele>401.0</ele><time>2026-04-06T08:37:28.999Z</time></trkpt><trkpt lat="46.191117784104996" lon="12.577866242686852"><ele>401.0</ele><time>2026-04-06T08:37:29.999Z</time></trkpt><trkpt lat="46.19105011248206" lon="12.577731813483421"><ele>401.4</ele><time>2026-04-06T08:37:30.999Z</time></trkpt><trkpt lat="46.1909828408472" lon="12.577583769766722"><ele>401.8</ele><time>2026-04-06T08:37:31.999Z</time></trkpt><trkpt lat="46.19091488666689" lon="12.577455565412768"><ele>402.2</ele><time>2026-04-06T08:37:32.999Z</time></trkpt><trkpt lat="46.190868394626364" lon="12.577340266617005"><ele>402.59999999999997</ele><time>2026-04-06T08:37:33.999Z</time></trkpt><trkpt lat="46.190819852186976" lon="12.577231127515427"><ele>403.0</ele><time>2026-04-06T08:37:34.999Z</time></trkpt><trkpt lat="46.190775242961735" lon="12.577133221176423"><ele>403.0</ele><time>2026-04-06T08:37:35.999Z</time></trkpt><trkpt lat="46.19075418461266" lon="12.577037315959016"><ele>403.0</ele><time>2026-04-06T08:37:36.999Z</time></trkpt><trkpt lat="46.19070569168269" lon="12.57691391711306"><ele>403.0</ele><time>2026-04-06T08:37:38.999Z</time></trkpt><trkpt lat="46.190518816737345" lon="12.577030014184075"><ele>403.0</ele><time>2026-04-06T08:37:40.999Z</time></trkpt><trkpt lat="46.190457781823746" lon="12.577095843196247"><ele>403.0</ele><time>2026-04-06T08:37:42.999Z</time></trkpt><trkpt lat="46.190384242534854" lon="12.577215566903027"><ele>401.83333333333337</ele><time>2026-04-06T08:37:45Z</time></trkpt><trkpt lat="46.19031859810222" lon="12.577266616777445"><ele>400.6666666666667</ele><time>2026-04-06T08:37:46Z</time></trkpt><trkpt lat="46.19024274162335" lon="12.577312642694265"><ele>399.5</ele><time>2026-04-06T08:37:47Z</time></trkpt><trkpt lat="46.190162599801816" lon="12.57736089165725"><ele>398.33333333333337</ele><time>2026-04-06T08:37:48Z</time></trkpt><trkpt lat="46.19008361681641" lon="12.577403158753572"><ele>397.1666666666667</ele><time>2026-04-06T08:37:49Z</time></trkpt><trkpt lat="46.19001675369358" lon="12.57742800932485"><ele>396.0</ele><time>2026-04-06T08:37:50Z</time></trkpt><trkpt lat="46.18993701057296" lon="12.577453610288144"><ele>396.0</ele><time>2026-04-06T08:37:52Z</time></trkpt><trkpt lat="46.18986963435142" lon="12.577469361168024"><ele>396.0</ele><time>2026-04-06T08:37:56Z</time></trkpt><trkpt lat="46.18974608608842" lon="12.577472198627163"><ele>396.0</ele><time>2026-04-06T08:38:45Z</time></trkpt><trkpt lat="46.1896557302057" lon="12.57746099719061"><ele>396.0</ele><time>2026-04-06T08:38:46Z</time></trkpt><trkpt lat="46.1895929593416" lon="12.577431590270344"><ele>396.0</ele><time>2026-04-06T08:38:47Z</time></trkpt><trkpt lat="46.18951030571004" lon="12.577372714937622"><ele>396.0</ele><time>2026-04-06T08:38:49Z</time></trkpt><trkpt lat="46.189438205589674" lon="12.577321338058171"><ele>415.0</ele><time>2026-04-06T08:38:52Z</time></trkpt><trkpt lat="46.18938395182999" lon="12.577381354757856"><ele>415.0</ele><time>2026-04-06T08:38:55Z</time></trkpt><trkpt lat="46.18937115172289" lon="12.577505456993213"><ele>415.0</ele><time>2026-04-06T08:38:58Z</time></trkpt><trkpt lat="46.18935682619246" lon="12.577600890101648"><ele>415.0</ele><time>2026-04-06T08:39:01.999Z</time></trkpt></trkseg><trkseg><trkpt lat="46.18939310991539" lon="12.577720799043995"><ele>415.0</ele><time>2026-04-06T09:32:21.999Z</time></trkpt><trkpt lat="46.18944851659515" lon="12.577802470272237"><ele>415.0</ele><time>2026-04-06T09:32:23.999Z</time></trkpt><trkpt lat="46.189557254685525" lon="12.577740614999351"><ele>415.0</ele><time>2026-04-06T09:32:25.999Z</time></trkpt><trkpt lat="46.189635928891285" lon="12.577686904945493"><ele>415.0</ele><time>2026-04-06T09:32:26.999Z</time></trkpt><trkpt lat="46.18970878239447" lon="12.577640477080912"><ele>415.0</ele><time>2026-04-06T09:32:27.999Z</time></trkpt><trkpt lat="46.189806913501215" lon="12.577591989335103"><ele>411.2</ele><time>2026-04-06T09:32:28.999Z</time></trkpt><trkpt lat="46.18992307605196" lon="12.577519836889401"><ele>407.4</ele><time>2026-04-06T09:32:29.999Z</time></trkpt><trkpt lat="46.19004258795377" lon="12.577455700138847"><ele>403.6</ele><time>2026-04-06T09:32:30.999Z</time></trkpt><trkpt lat="46.1901347339068" lon="12.577411128901682"><ele>399.8</ele><time>2026-04-06T09:32:31.999Z</time></trkpt><trkpt lat="46.19020733030341" lon="12.5773717904331"><ele>396.0</ele><time>2026-04-06T09:32:32.999Z</time></trkpt><trkpt lat="46.190285161054184" lon="12.57732466171344"><ele>396.0</ele><time>2026-04-06T09:32:33.999Z</time></trkpt><trkpt lat="46.1903656209714" lon="12.577277126752305"><ele>396.0</ele><time>2026-04-06T09:32:34.999Z</time></trkpt><trkpt lat="46.19043504338409" lon="12.577227253056016"><ele>396.0</ele><time>2026-04-06T09:32:35.999Z</time></trkpt><trkpt lat="46.19049001297313" lon="12.577172280572873"><ele>396.0</ele><time>2026-04-06T09:32:36.999Z</time></trkpt><trkpt lat="46.19057475522504" lon="12.577087058124789"><ele>396.0</ele><time>2026-04-06T09:32:38.999Z</time></trkpt><trkpt lat="46.190679426574505" lon="12.576971527878404"><ele>395.0</ele><time>2026-04-06T09:33:16.999Z</time></trkpt><trkpt lat="46.19066531702178" lon="12.576838299602532"><ele>394.0</ele><time>2026-04-06T09:33:17.999Z</time></trkpt><trkpt lat="46.19062174374003" lon="12.576691546385232"><ele>393.0</ele><time>2026-04-06T09:33:18.999Z</time></trkpt><trkpt lat="46.190550365785235" lon="12.576500766933558"><ele>392.0</ele><time>2026-04-06T09:33:19.999Z</time></trkpt><trkpt lat="46.19048376938745" lon="12.576274289009552"><ele>391.5</ele><time>2026-04-06T09:33:20.999Z</time></trkpt><trkpt lat="46.19048166472936" lon="12.576068692000806"><ele>391.0</ele><time>2026-04-06T09:33:21.999Z</time></trkpt><trkpt lat="46.19049627766231" lon="12.575907789212836"><ele>390.5</ele><time>2026-04-06T09:33:22.999Z</time></trkpt><trkpt lat="46.190517599289294" lon="12.575730070757258"><ele>390.0</ele><time>2026-04-06T09:33:23.999Z</time></trkpt><trkpt lat="46.19057251237349" lon="12.575553668887123"><ele>390.0</ele><time>2026-04-06T09:33:24.999Z</time></trkpt><trkpt lat="46.19062104981023" lon="12.575386011699749"><ele>390.0</ele><time>2026-04-06T09:33:25.999Z</time></trkpt><trkpt lat="46.1906649900697" lon="12.575242664709208"><ele>390.0</ele><time>2026-04-06T09:33:26.999Z</time></trkpt><trkpt lat="46.19071036250128" lon="12.575092519443832"><ele>390.0</ele><time>2026-04-06T09:33:27.999Z</time></trkpt><trkpt lat="46.190755358534986" lon="12.574938090088335"><ele>393.0</ele><time>2026-04-06T09:33:28.999Z</time></trkpt><trkpt lat="46.190802967584645" lon="12.574789594362231"><ele>396.0</ele><time>2026-04-06T09:33:30Z</time></trkpt><trkpt lat="46.19085246988962" lon="12.574649218190926"><ele>399.0</ele><time>2026-04-06T09:33:31Z</time></trkpt><trkpt lat="46.1909097026402" lon="12.574531773169582"><ele>402.0</ele><time>2026-04-06T09:33:32Z</time></trkpt><trkpt lat="46.19097843223096" lon="12.574432026357831"><ele>405.0</ele><time>2026-04-06T09:33:33Z</time></trkpt><trkpt lat="46.19106685953895" lon="12.574353649528222"><ele>405.0</ele><time>2026-04-06T09:33:34Z</time></trkpt><trkpt lat="46.191165358176555" lon="12.574301875311134"><ele>405.0</ele><time>2026-04-06T09:33:35Z</time></trkpt><trkpt lat="46.191282290976716" lon="12.57427850178467"><ele>405.0</ele><time>2026-04-06T09:33:36Z</time></trkpt><trkpt lat="46.19140368203374" lon="12.574276539625627"><ele>405.0</ele><time>2026-04-06T09:33:37Z</time></trkpt><trkpt lat="46.19150822528452" lon="12.574278501581988"><ele>405.0</ele><time>2026-04-06T09:33:38Z</time></trkpt><trkpt lat="46.19160242949249" lon="12.574251497756496"><ele>407.2</ele><time>2026-04-06T09:33:39Z</time></trkpt><trkpt lat="46.191699559281766" lon="12.574179024729325"><ele>409.4</ele><time>2026-04-06T09:33:40Z</time></trkpt><trkpt lat="46.19177759913365" lon="12.57407285481377"><ele>411.6</ele><time>2026-04-06T09:33:41Z</time></trkpt><trkpt lat="46.191835148801864" lon="12.573952031892281"><ele>413.8</ele><time>2026-04-06T09:33:42Z</time></trkpt><trkpt lat="46.19185962353796" lon="12.573812472994634"><ele>416.0</ele><time>2026-04-06T09:33:43Z</time></trkpt><trkpt lat="46.19187513045631" lon="12.573663682650002"><ele>416.75</ele><time>2026-04-06T09:33:44Z</time></trkpt><trkpt lat="46.19186881576141" lon="12.573501682622439"><ele>417.5</ele><time>2026-04-06T09:33:45Z</time></trkpt><trkpt lat="46.19182483135707" lon="12.573351217594137"><ele>418.25</ele><time>2026-04-06T09:33:46Z</time></trkpt><trkpt lat="46.19174929161863" lon="12.573213967272606"><ele>419.0</ele><time>2026-04-06T09:33:47Z</time></trkpt><trkpt lat="46.191662886307526" lon="12.573128385890012"><ele>419.0</ele><time>2026-04-06T09:33:48Z</time></trkpt><trkpt lat="46.19157714990776" lon="12.573063472273786"><ele>419.0</ele><time>2026-04-06T09:33:49Z</time></trkpt><trkpt lat="46.19149345860562" lon="12.573001506590003"><ele>419.0</ele><time>2026-04-06T09:33:50Z</time></trkpt><trkpt lat="46.19142462202784" lon="12.572943338658664"><ele>419.0</ele><time>2026-04-06T09:33:51Z</time></trkpt><trkpt lat="46.19135392806767" lon="12.572877425044807"><ele>419.0</ele><time>2026-04-06T09:33:52Z</time></trkpt><trkpt lat="46.191253539988004" lon="12.572808312765195"><ele>416.25</ele><time>2026-04-06T09:33:53Z</time></trkpt><trkpt lat="46.19113509357556" lon="12.572714034543496"><ele>413.5</ele><time>2026-04-06T09:33:53.999Z</time></trkpt><trkpt lat="46.191025292668236" lon="12.572591372402474"><ele>410.75</ele><time>2026-04-06T09:33:54.999Z</time></trkpt><trkpt lat="46.190935315092666" lon="12.572424911190394"><ele>408.0</ele><time>2026-04-06T09:33:55.999Z</time></trkpt><trkpt lat="46.19089241312989" lon="12.572217295737675"><ele>408.5</ele><time>2026-04-06T09:33:56.999Z</time></trkpt><trkpt lat="46.19086215697048" lon="12.571995223054918"><ele>409.0</ele><time>2026-04-06T09:33:57.999Z</time></trkpt><trkpt lat="46.19086076302437" lon="12.571777428834254"><ele>409.5</ele><time>2026-04-06T09:33:58.999Z</time></trkpt><trkpt lat="46.19091321375532" lon="12.571600805867066"><ele>410.0</ele><time>2026-04-06T09:33:59.999Z</time></trkpt><trkpt lat="46.1909677708909" lon="12.571416927174042"><ele>410.0</ele><time>2026-04-06T09:34:00.999Z</time></trkpt><trkpt lat="46.19100749973875" lon="12.571256010770611"><ele>410.0</ele><time>2026-04-06T09:34:01.999Z</time></trkpt><trkpt lat="46.19099026180419" lon="12.571080013189365"><ele>410.0</ele><time>2026-04-06T09:34:02.999Z</time></trkpt><trkpt lat="46.19096480772666" lon="12.57093238381272"><ele>410.0</ele><time>2026-04-06T09:34:03.999Z</time></trkpt><trkpt lat="46.19095694078342" lon="12.570770371111864"><ele>409.75</ele><time>2026-04-06T09:34:04.999Z</time></trkpt><trkpt lat="46.190926638100656" lon="12.570620421763204"><ele>409.5</ele><time>2026-04-06T09:34:05.999Z</time></trkpt><trkpt lat="46.1909272600522" lon="12.57046091733871"><ele>409.25</ele><time>2026-04-06T09:34:06.999Z</time></trkpt><trkpt lat="46.190947484920635" lon="12.570301403423684"><ele>409.0</ele><time>2026-04-06T09:34:07.999Z</time></trkpt><trkpt lat="46.19097775946346" lon="12.570122407704417"><ele>408.75</ele><time>2026-04-06T09:34:08.999Z</time></trkpt><trkpt lat="46.191014134047954" lon="12.569928788705731"><ele>408.5</ele><time>2026-04-06T09:34:09.999Z</time></trkpt><trkpt lat="46.19104884880517" lon="12.569743692295528"><ele>408.25</ele><time>2026-04-06T09:34:10.999Z</time></trkpt><trkpt lat="46.19109166809646" lon="12.569581288922171"><ele>408.0</ele><time>2026-04-06T09:34:11.999Z</time></trkpt><trkpt lat="46.19109372045643" lon="12.569414319198538"><ele>407.79999999999995</ele><time>2026-04-06T09:34:12.999Z</time></trkpt><trkpt lat="46.191101771667654" lon="12.569267125243853"><ele>407.6</ele><time>2026-04-06T09:34:13.999Z</time></trkpt><trkpt lat="46.19110679821334" lon="12.569130999128927"><ele>407.4</ele><time>2026-04-06T09:34:14.999Z</time></trkpt><trkpt lat="46.19111891484004" lon="12.569001527527444"><ele>407.20000000000005</ele><time>2026-04-06T09:34:15.999Z</time></trkpt><trkpt lat="46.19114500988916" lon="12.568877263535825"><ele>407.0</ele><time>2026-04-06T09:34:16.999Z</time></trkpt><trkpt lat="46.19120399738612" lon="12.568777633252985"><ele>407.0</ele><time>2026-04-06T09:34:17.999Z</time></trkpt><trkpt lat="46.191293294638314" lon="12.568714536241792"><ele>407.0</ele><time>2026-04-06T09:34:18.999Z</time></trkpt><trkpt lat="46.19138719628935" lon="12.568661783435376"><ele>407.0</ele><time>2026-04-06T09:34:19.999Z</time></trkpt><trkpt lat="46.19147471400762" lon="12.568604875374273"><ele>407.0</ele><time>2026-04-06T09:34:20.999Z</time></trkpt><trkpt lat="46.19154999706996" lon="12.568523776360239"><ele>407.0</ele><time>2026-04-06T09:34:21.999Z</time></trkpt><trkpt lat="46.19161181743415" lon="12.568409695497502"><ele>408.20000000000005</ele><time>2026-04-06T09:34:22.999Z</time></trkpt><trkpt lat="46.191658645317375" lon="12.568278417267011"><ele>409.4</ele><time>2026-04-06T09:34:23.999Z</time></trkpt><trkpt lat="46.19165187211726" lon="12.568130509251892"><ele>410.6</ele><time>2026-04-06T09:34:24.999Z</time></trkpt><trkpt lat="46.19166262377213" lon="12.56800567777459"><ele>411.79999999999995</ele><time>2026-04-06T09:34:25.999Z</time></trkpt><trkpt lat="46.19165356890379" lon="12.567887019863756"><ele>413.0</ele><time>2026-04-06T09:34:26.999Z</time></trkpt><trkpt lat="46.19164249637695" lon="12.567763731307842"><ele>413.0</ele><time>2026-04-06T09:34:27.999Z</time></trkpt><trkpt lat="46.19161048338237" lon="12.567634841565253"><ele>413.0</ele><time>2026-04-06T09:34:28.999Z</time></trkpt><trkpt lat="46.1915969044254" lon="12.567497180470685"><ele>413.0</ele><time>2026-04-06T09:34:29.999Z</time></trkpt><trkpt lat="46.191539935359685" lon="12.567370460591988"><ele>413.0</ele><time>2026-04-06T09:34:30.999Z</time></trkpt><trkpt lat="46.191446659521475" lon="12.56728695557847"><ele>413.0</ele><time>2026-04-06T09:34:31.999Z</time></trkpt><trkpt lat="46.191364392623036" lon="12.567194518521312"><ele>409.4</ele><time>2026-04-06T09:34:32.999Z</time></trkpt><trkpt lat="46.191302505707434" lon="12.567074014301141"><ele>405.79999999999995</ele><time>2026-04-06T09:34:33.999Z</time></trkpt><trkpt lat="46.191275803351125" lon="12.56692664435137"><ele>402.2</ele><time>2026-04-06T09:34:34.999Z</time></trkpt><trkpt lat="46.191275084895736" lon="12.566782037041202"><ele>398.6</ele><time>2026-04-06T09:34:35.999Z</time></trkpt><trkpt lat="46.19130727618574" lon="12.566653820365653"><ele>395.0</ele><time>2026-04-06T09:34:36.999Z</time></trkpt><trkpt lat="46.19132138293394" lon="12.566534790476833"><ele>394.99999999999994</ele><time>2026-04-06T09:34:37.999Z</time></trkpt><trkpt lat="46.19133470179916" lon="12.566424152705961"><ele>395.0</ele><time>2026-04-06T09:34:38.999Z</time></trkpt><trkpt lat="46.19134983679726" lon="12.566303030947736"><ele>395.0</ele><time>2026-04-06T09:34:39.999Z</time></trkpt><trkpt lat="46.19136588368178" lon="12.566174611507549"><ele>395.0</ele><time>2026-04-06T09:34:40.999Z</time></trkpt><trkpt lat="46.19138231152539" lon="12.566047537482417"><ele>394.99999999999994</ele><time>2026-04-06T09:34:41.999Z</time></trkpt><trkpt lat="46.19139877022088" lon="12.565920506006405"><ele>395.0</ele><time>2026-04-06T09:34:42.999Z</time></trkpt><trkpt lat="46.19141579286572" lon="12.565789121850283"><ele>395.49999999999994</ele><time>2026-04-06T09:34:43.999Z</time></trkpt><trkpt lat="46.19143182890527" lon="12.565653920037331"><ele>396.0</ele><time>2026-04-06T09:34:44.999Z</time></trkpt><trkpt lat="46.19144430738593" lon="12.56551904123553"><ele>396.5</ele><time>2026-04-06T09:34:45.999Z</time></trkpt><trkpt lat="46.19144153711511" lon="12.565395508638264"><ele>397.0</ele><time>2026-04-06T09:34:46.999Z</time></trkpt><trkpt lat="46.19143153441093" lon="12.565285498412923"><ele>397.49999999999994</ele><time>2026-04-06T09:34:47.999Z</time></trkpt><trkpt lat="46.19141887835578" lon="12.565192380043015"><ele>398.0</ele><time>2026-04-06T09:34:48.999Z</time></trkpt><trkpt lat="46.19139647507747" lon="12.565046637965867"><ele>398.99999999999994</ele><time>2026-04-06T09:34:50.999Z</time></trkpt><trkpt lat="46.19134519611663" lon="12.564878970415286"><ele>400.0</ele><time>2026-04-06T09:34:52.999Z</time></trkpt><trkpt lat="46.19132966856172" lon="12.56477696032342"><ele>401.0</ele><time>2026-04-06T09:34:53.999Z</time></trkpt><trkpt lat="46.191311145079894" lon="12.564669346975048"><ele>402.0</ele><time>2026-04-06T09:34:54.999Z</time></trkpt><trkpt lat="46.19129042958897" lon="12.564553295409002"><ele>402.99999999999994</ele><time>2026-04-06T09:34:55.999Z</time></trkpt><trkpt lat="46.19126872559781" lon="12.564431404103694"><ele>404.0</ele><time>2026-04-06T09:34:56.999Z</time></trkpt><trkpt lat="46.191247354121806" lon="12.564311695956363"><ele>404.16666666666663</ele><time>2026-04-06T09:34:57.999Z</time></trkpt><trkpt lat="46.19122705331885" lon="12.564195394623182"><ele>404.3333333333333</ele><time>2026-04-06T09:34:58.999Z</time></trkpt><trkpt lat="46.19120666191886" lon="12.564071324142121"><ele>404.5</ele><time>2026-04-06T09:34:59.999Z</time></trkpt><trkpt lat="46.191183060923215" lon="12.563943261744463"><ele>404.66666666666663</ele><time>2026-04-06T09:35:00.999Z</time></trkpt><trkpt lat="46.19118262063595" lon="12.563824499778628"><ele>404.8333333333333</ele><time>2026-04-06T09:35:01.999Z</time></trkpt><trkpt lat="46.191164651281824" lon="12.5637252514344"><ele>405.0</ele><time>2026-04-06T09:35:02.999Z</time></trkpt><trkpt lat="46.19114861050722" lon="12.563636595336217"><ele>405.0</ele><time>2026-04-06T09:35:03.999Z</time></trkpt><trkpt lat="46.19111869040637" lon="12.563471229340326"><ele>405.0</ele><time>2026-04-06T09:35:05.999Z</time></trkpt><trkpt lat="46.19108943750303" lon="12.56330955087001"><ele>405.0</ele><time>2026-04-06T09:35:07.999Z</time></trkpt><trkpt lat="46.19107162784606" lon="12.563211118317119"><ele>405.0</ele><time>2026-04-06T09:35:08.999Z</time></trkpt><trkpt lat="46.19105315559038" lon="12.563109023631615"><ele>405.0</ele><time>2026-04-06T09:35:09.999Z</time></trkpt><trkpt lat="46.191034417937765" lon="12.563005461958454"><ele>405.0</ele><time>2026-04-06T09:35:10.999Z</time></trkpt><trkpt lat="46.19101557920715" lon="12.562900396414886"><ele>405.0</ele><time>2026-04-06T09:35:11.999Z</time></trkpt><trkpt lat="46.190996230698936" lon="12.56279266063984"><ele>405.0</ele><time>2026-04-06T09:35:12.999Z</time></trkpt><trkpt lat="46.19097502105827" lon="12.562674108491235"><ele>405.0</ele><time>2026-04-06T09:35:13.999Z</time></trkpt><trkpt lat="46.19095027701662" lon="12.56253580066529"><ele>405.0</ele><time>2026-04-06T09:35:14.999Z</time></trkpt><trkpt lat="46.1909257056233" lon="12.562398457687305"><ele>405.0</ele><time>2026-04-06T09:35:15.999Z</time></trkpt><trkpt lat="46.190900766654096" lon="12.562262483940987"><ele>405.0</ele><time>2026-04-06T09:35:16.999Z</time></trkpt><trkpt lat="46.19087525284752" lon="12.562122181524034"><ele>405.0</ele><time>2026-04-06T09:35:17.999Z</time></trkpt><trkpt lat="46.190853458810345" lon="12.56197850129075"><ele>405.0</ele><time>2026-04-06T09:35:18.999Z</time></trkpt><trkpt lat="46.19083345931497" lon="12.561832165217908"><ele>405.0</ele><time>2026-04-06T09:35:19.999Z</time></trkpt><trkpt lat="46.19083442167917" lon="12.561692823649965"><ele>405.0</ele><time>2026-04-06T09:35:20.999Z</time></trkpt><trkpt lat="46.19083592838366" lon="12.561562378215708"><ele>405.8</ele><time>2026-04-06T09:35:21.999Z</time></trkpt><trkpt lat="46.190853090801724" lon="12.56143364111155"><ele>406.6</ele><time>2026-04-06T09:35:22.999Z</time></trkpt><trkpt lat="46.19085505406483" lon="12.561321735022272"><ele>407.4</ele><time>2026-04-06T09:35:23.999Z</time></trkpt><trkpt lat="46.190855987994865" lon="12.561226069654682"><ele>408.2</ele><time>2026-04-06T09:35:24.999Z</time></trkpt><trkpt lat="46.190857117834916" lon="12.561054571516209"><ele>409.0</ele><time>2026-04-06T09:35:26.999Z</time></trkpt><trkpt lat="46.190860138942526" lon="12.560893900235639"><ele>410.0</ele><time>2026-04-06T09:35:28.999Z</time></trkpt><trkpt lat="46.19086336591487" lon="12.56074153972432"><ele>411.0</ele><time>2026-04-06T09:35:30.999Z</time></trkpt><trkpt lat="46.19085032888143" lon="12.560557484980153"><ele>412.0</ele><time>2026-04-06T09:35:32.999Z</time></trkpt><trkpt lat="46.19085009062545" lon="12.560388263142919"><ele>413.0</ele><time>2026-04-06T09:35:35Z</time></trkpt><trkpt lat="46.19084531694882" lon="12.560214446468512"><ele>412.79999999999995</ele><time>2026-04-06T09:35:37Z</time></trkpt><trkpt lat="46.19083333718464" lon="12.56006394502934"><ele>412.6</ele><time>2026-04-06T09:35:39Z</time></trkpt><trkpt lat="46.19081913387247" lon="12.55990889017596"><ele>412.4</ele><time>2026-04-06T09:35:41Z</time></trkpt><trkpt lat="46.19080340091559" lon="12.55975976151096"><ele>412.20000000000005</ele><time>2026-04-06T09:35:43Z</time></trkpt><trkpt lat="46.19078451250411" lon="12.559606300042043"><ele>412.0</ele><time>2026-04-06T09:35:45Z</time></trkpt><trkpt lat="46.19076617319185" lon="12.55946127636875"><ele>412.0</ele><time>2026-04-06T09:35:47Z</time></trkpt><trkpt lat="46.19078473781681" lon="12.55928946032994"><ele>412.0</ele><time>2026-04-06T09:35:49Z</time></trkpt><trkpt lat="46.190770389262454" lon="12.559122919289248"><ele>412.0</ele><time>2026-04-06T09:35:51Z</time></trkpt><trkpt lat="46.190757458060894" lon="12.55894118878205"><ele>412.0</ele><time>2026-04-06T09:35:53Z</time></trkpt><trkpt lat="46.19077815254718" lon="12.558843384637969"><ele>412.0</ele><time>2026-04-06T09:35:54Z</time></trkpt><trkpt lat="46.19074519414474" lon="12.55868333157193"><ele>412.20000000000005</ele><time>2026-04-06T09:35:56Z</time></trkpt><trkpt lat="46.190719404293205" lon="12.558561281051135"><ele>412.4</ele><time>2026-04-06T09:35:57.999Z</time></trkpt><trkpt lat="46.19069809351196" lon="12.558457441668038"><ele>412.6</ele><time>2026-04-06T09:36:00.999Z</time></trkpt><trkpt lat="46.19066205250914" lon="12.558315181278687"><ele>412.79999999999995</ele><time>2026-04-06T09:36:03.999Z</time></trkpt><trkpt lat="46.19065810853132" lon="12.558176196012317"><ele>413.0</ele><time>2026-04-06T09:36:05.999Z</time></trkpt><trkpt lat="46.19065854795445" lon="12.558043092204874"><ele>413.2</ele><time>2026-04-06T09:36:07.999Z</time></trkpt><trkpt lat="46.19067496121882" lon="12.557866975805773"><ele>413.4</ele><time>2026-04-06T09:36:09.999Z</time></trkpt><trkpt lat="46.1906810254336" lon="12.55774816932747"><ele>413.59999999999997</ele><time>2026-04-06T09:36:10.999Z</time></trkpt><trkpt lat="46.190668228767294" lon="12.55760303102613"><ele>413.79999999999995</ele><time>2026-04-06T09:36:11.999Z</time></trkpt><trkpt lat="46.19063943863129" lon="12.557449003504635"><ele>414.0</ele><time>2026-04-06T09:36:12.999Z</time></trkpt><trkpt lat="46.19061076325136" lon="12.557309397953652"><ele>411.0</ele><time>2026-04-06T09:36:13.999Z</time></trkpt><trkpt lat="46.190589607371216" lon="12.557153348600565"><ele>408.0</ele><time>2026-04-06T09:36:14.999Z</time></trkpt><trkpt lat="46.19057116473624" lon="12.556999471209812"><ele>405.0</ele><time>2026-04-06T09:36:15.999Z</time></trkpt><trkpt lat="46.19054764832586" lon="12.556840554458095"><ele>402.0</ele><time>2026-04-06T09:36:16.999Z</time></trkpt><trkpt lat="46.19052861041332" lon="12.556688233907357"><ele>399.0</ele><time>2026-04-06T09:36:17.999Z</time></trkpt><trkpt lat="46.19054623342681" lon="12.556525360983827"><ele>399.0</ele><time>2026-04-06T09:36:18.999Z</time></trkpt><trkpt lat="46.190530744818965" lon="12.556378860489051"><ele>399.0</ele><time>2026-04-06T09:36:19.999Z</time></trkpt><trkpt lat="46.19051672094751" lon="12.55624341939123"><ele>399.0</ele><time>2026-04-06T09:36:20.999Z</time></trkpt><trkpt lat="46.19050299457894" lon="12.5561108515432"><ele>399.0</ele><time>2026-04-06T09:36:21.999Z</time></trkpt><trkpt lat="46.190491175534696" lon="12.555989998801138"><ele>399.0</ele><time>2026-04-06T09:36:22.999Z</time></trkpt><trkpt lat="46.19048039545091" lon="12.555878998688746"><ele>399.0</ele><time>2026-04-06T09:36:23.999Z</time></trkpt><trkpt lat="46.19047056855842" lon="12.555777813401354"><ele>399.0</ele><time>2026-04-06T09:36:24.999Z</time></trkpt><trkpt lat="46.19046174829526" lon="12.555686993143436"><ele>399.0</ele><time>2026-04-06T09:36:25.999Z</time></trkpt><trkpt lat="46.1904472433423" lon="12.555523588712807"><ele>399.0</ele><time>2026-04-06T09:36:27.999Z</time></trkpt><trkpt lat="46.190436734761235" lon="12.555401487555065"><ele>399.0</ele><time>2026-04-06T09:36:29.999Z</time></trkpt><trkpt lat="46.190425073412555" lon="12.555265992165841"><ele>399.0</ele><time>2026-04-06T09:36:31.999Z</time></trkpt><trkpt lat="46.190412281873094" lon="12.555111723141257"><ele>398.8333333333333</ele><time>2026-04-06T09:36:33.999Z</time></trkpt><trkpt lat="46.19040484747054" lon="12.555018164040856"><ele>398.66666666666663</ele><time>2026-04-06T09:36:34.999Z</time></trkpt><trkpt lat="46.19039720002282" lon="12.554921923545395"><ele>398.5</ele><time>2026-04-06T09:36:35.999Z</time></trkpt><trkpt lat="46.19038840185423" lon="12.554823232262907"><ele>398.3333333333333</ele><time>2026-04-06T09:36:36.999Z</time></trkpt><trkpt lat="46.19037997332534" lon="12.554723224521421"><ele>398.16666666666663</ele><time>2026-04-06T09:36:37.999Z</time></trkpt><trkpt lat="46.19037107905366" lon="12.554624274855419"><ele>398.0</ele><time>2026-04-06T09:36:38.999Z</time></trkpt><trkpt lat="46.190356141852995" lon="12.554459282244522"><ele>398.4</ele><time>2026-04-06T09:36:40.999Z</time></trkpt><trkpt lat="46.190343463552765" lon="12.554321034204449"><ele>398.79999999999995</ele><time>2026-04-06T09:36:42.999Z</time></trkpt><trkpt lat="46.19033020398993" lon="12.554179295411325"><ele>399.2</ele><time>2026-04-06T09:36:44.999Z</time></trkpt><trkpt lat="46.19031585333248" lon="12.554025893301024"><ele>399.6</ele><time>2026-04-06T09:36:46.999Z</time></trkpt><trkpt lat="46.19030097557752" lon="12.553866014268053"><ele>400.0</ele><time>2026-04-06T09:36:48.999Z</time></trkpt><trkpt lat="46.19028513565119" lon="12.553695740593152"><ele>400.8</ele><time>2026-04-06T09:36:50.999Z</time></trkpt><trkpt lat="46.19027509125998" lon="12.553587766897664"><ele>401.6</ele><time>2026-04-06T09:36:51.999Z</time></trkpt><trkpt lat="46.19026274021217" lon="12.55345499746036"><ele>402.4</ele><time>2026-04-06T09:36:52.999Z</time></trkpt><trkpt lat="46.1902474411506" lon="12.553290537906161"><ele>403.2</ele><time>2026-04-06T09:36:53.999Z</time></trkpt><trkpt lat="46.19022821971837" lon="12.553095996523536"><ele>404.0</ele><time>2026-04-06T09:36:54.999Z</time></trkpt><trkpt lat="46.190208402774836" lon="12.552899788376077"><ele>404.5</ele><time>2026-04-06T09:36:55.999Z</time></trkpt><trkpt lat="46.19018761365588" lon="12.552706963273037"><ele>405.0</ele><time>2026-04-06T09:36:56.999Z</time></trkpt><trkpt lat="46.19016671109112" lon="12.552513085919703"><ele>405.5</ele><time>2026-04-06T09:36:57.999Z</time></trkpt><trkpt lat="46.19014539478899" lon="12.552317535468827"><ele>406.0</ele><time>2026-04-06T09:36:58.999Z</time></trkpt><trkpt lat="46.19012290826036" lon="12.552120181836754"><ele>407.0</ele><time>2026-04-06T09:36:59.999Z</time></trkpt><trkpt lat="46.19010082171738" lon="12.551926338692379"><ele>408.0</ele><time>2026-04-06T09:37:00.999Z</time></trkpt><trkpt lat="46.19008122783296" lon="12.551754372328748"><ele>409.0</ele><time>2026-04-06T09:37:01.999Z</time></trkpt><trkpt lat="46.19006251127435" lon="12.551590126716851"><ele>410.0</ele><time>2026-04-06T09:37:02.999Z</time></trkpt><trkpt lat="46.19002312221395" lon="12.551447735664711"><ele>410.0</ele><time>2026-04-06T09:37:03.999Z</time></trkpt><trkpt lat="46.19001186472371" lon="12.551295269712634"><ele>410.0</ele><time>2026-04-06T09:37:04.999Z</time></trkpt><trkpt lat="46.19000997060578" lon="12.551123675023689"><ele>410.0</ele><time>2026-04-06T09:37:05.999Z</time></trkpt><trkpt lat="46.19002514387012" lon="12.550952319116183"><ele>410.0</ele><time>2026-04-06T09:37:06.999Z</time></trkpt><trkpt lat="46.19004480243157" lon="12.550782179023505"><ele>410.0</ele><time>2026-04-06T09:37:07.999Z</time></trkpt><trkpt lat="46.19007705913646" lon="12.550616140145829"><ele>410.0</ele><time>2026-04-06T09:37:08.999Z</time></trkpt><trkpt lat="46.190108428919096" lon="12.550459060149045"><ele>410.0</ele><time>2026-04-06T09:37:09.999Z</time></trkpt><trkpt lat="46.19015134632007" lon="12.550316184148727"><ele>410.0</ele><time>2026-04-06T09:37:10.999Z</time></trkpt><trkpt lat="46.19017205188682" lon="12.550149226435142"><ele>409.0</ele><time>2026-04-06T09:37:11.999Z</time></trkpt><trkpt lat="46.19017961930909" lon="12.549971965035148"><ele>408.0</ele><time>2026-04-06T09:37:12.999Z</time></trkpt><trkpt lat="46.190176851806356" lon="12.549789650735425"><ele>407.0</ele><time>2026-04-06T09:37:13.999Z</time></trkpt><trkpt lat="46.19016867981293" lon="12.549605004144293"><ele>406.0</ele><time>2026-04-06T09:37:14.999Z</time></trkpt><trkpt lat="46.19016219615683" lon="12.549428390741522"><ele>405.8</ele><time>2026-04-06T09:37:15.999Z</time></trkpt><trkpt lat="46.19014585942604" lon="12.549259827626589"><ele>405.6</ele><time>2026-04-06T09:37:16.999Z</time></trkpt><trkpt lat="46.1901583197093" lon="12.549098838849682"><ele>405.4</ele><time>2026-04-06T09:37:17.999Z</time></trkpt><trkpt lat="46.19017879095362" lon="12.54894139309415"><ele>405.2</ele><time>2026-04-06T09:37:18.999Z</time></trkpt><trkpt lat="46.19020271922124" lon="12.548789908992905"><ele>405.0</ele><time>2026-04-06T09:37:19.999Z</time></trkpt><trkpt lat="46.1902266705132" lon="12.548650181669858"><ele>404.8333333333333</ele><time>2026-04-06T09:37:20.999Z</time></trkpt><trkpt lat="46.19024416366552" lon="12.548528242810175"><ele>404.66666666666663</ele><time>2026-04-06T09:37:21.999Z</time></trkpt><trkpt lat="46.19027675802349" lon="12.548423128831816"><ele>404.5</ele><time>2026-04-06T09:37:22.999Z</time></trkpt><trkpt lat="46.190297357167665" lon="12.548304205540115"><ele>404.3333333333333</ele><time>2026-04-06T09:37:23.999Z</time></trkpt><trkpt lat="46.190300804913754" lon="12.548175595794678"><ele>404.16666666666663</ele><time>2026-04-06T09:37:24.999Z</time></trkpt><trkpt lat="46.19033193499535" lon="12.54805541571626"><ele>404.0</ele><time>2026-04-06T09:37:25.999Z</time></trkpt><trkpt lat="46.190371196736585" lon="12.547940399115792"><ele>402.79999999999995</ele><time>2026-04-06T09:37:26.999Z</time></trkpt><trkpt lat="46.190419411363976" lon="12.54782670843229"><ele>401.59999999999997</ele><time>2026-04-06T09:37:27.999Z</time></trkpt><trkpt lat="46.19047870100967" lon="12.547724447171051"><ele>400.4</ele><time>2026-04-06T09:37:28.999Z</time></trkpt><trkpt lat="46.19054229728493" lon="12.547615708906854"><ele>399.2</ele><time>2026-04-06T09:37:29.999Z</time></trkpt><trkpt lat="46.19060660242539" lon="12.547499908734288"><ele>398.0</ele><time>2026-04-06T09:37:30.999Z</time></trkpt><trkpt lat="46.190682429634315" lon="12.547388421304262"><ele>400.25</ele><time>2026-04-06T09:37:31.999Z</time></trkpt><trkpt lat="46.190738327509656" lon="12.547249058473215"><ele>402.5</ele><time>2026-04-06T09:37:32.999Z</time></trkpt><trkpt lat="46.19078619885057" lon="12.547095443894522"><ele>404.75</ele><time>2026-04-06T09:37:33.999Z</time></trkpt><trkpt lat="46.19083099711362" lon="12.546935767241234"><ele>407.0</ele><time>2026-04-06T09:37:34.999Z</time></trkpt><trkpt lat="46.190883596835484" lon="12.54677409749445"><ele>407.0</ele><time>2026-04-06T09:37:35.999Z</time></trkpt><trkpt lat="46.190951500033414" lon="12.546609980358333"><ele>407.0</ele><time>2026-04-06T09:37:36.999Z</time></trkpt><trkpt lat="46.19107721649712" lon="12.546465064643277"><ele>407.0</ele><time>2026-04-06T09:37:37.999Z</time></trkpt><trkpt lat="46.191224827916514" lon="12.546332715904366"><ele>407.0</ele><time>2026-04-06T09:37:38.999Z</time></trkpt><trkpt lat="46.1913679970536" lon="12.54621282794774"><ele>407.0</ele><time>2026-04-06T09:37:39.999Z</time></trkpt><trkpt lat="46.19151133142526" lon="12.546127716207693"><ele>407.0</ele><time>2026-04-06T09:37:41Z</time></trkpt><trkpt lat="46.191646333536646" lon="12.546061949650586"><ele>406.5</ele><time>2026-04-06T09:37:42Z</time></trkpt><trkpt lat="46.191772988717936" lon="12.54601075305656"><ele>406.0</ele><time>2026-04-06T09:37:43Z</time></trkpt><trkpt lat="46.19189603770986" lon="12.545979613492095"><ele>405.5</ele><time>2026-04-06T09:37:44Z</time></trkpt><trkpt lat="46.19202091078065" lon="12.545948745917018"><ele>405.0</ele><time>2026-04-06T09:37:45Z</time></trkpt><trkpt lat="46.1921596079323" lon="12.545892526041483"><ele>405.0</ele><time>2026-04-06T09:37:46Z</time></trkpt><trkpt lat="46.19227124644905" lon="12.545803617401686"><ele>405.0</ele><time>2026-04-06T09:37:47.001Z</time></trkpt><trkpt lat="46.19239312016751" lon="12.545741478397538"><ele>405.0</ele><time>2026-04-06T09:37:48.001Z</time></trkpt><trkpt lat="46.19250110433476" lon="12.545682585116248"><ele>405.0</ele><time>2026-04-06T09:37:49.001Z</time></trkpt><trkpt lat="46.192595896894666" lon="12.545630593858988"><ele>404.4</ele><time>2026-04-06T09:37:50.001Z</time></trkpt><trkpt lat="46.19268942182657" lon="12.545584300682442"><ele>403.8</ele><time>2026-04-06T09:37:51.001Z</time></trkpt><trkpt lat="46.19277529588394" lon="12.545538499270783"><ele>403.20000000000005</ele><time>2026-04-06T09:37:52.001Z</time></trkpt><trkpt lat="46.192841681048904" lon="12.545475814597584"><ele>402.6</ele><time>2026-04-06T09:37:53.001Z</time></trkpt><trkpt lat="46.192930748467134" lon="12.54536765323984"><ele>402.0</ele><time>2026-04-06T09:37:54.001Z</time></trkpt><trkpt lat="46.19300716688031" lon="12.5452675730885"><ele>402.0</ele><time>2026-04-06T09:37:55.001Z</time></trkpt><trkpt lat="46.193095515638184" lon="12.545127268737222"><ele>402.0</ele><time>2026-04-06T09:37:56.001Z</time></trkpt><trkpt lat="46.19318094517218" lon="12.545018186819904"><ele>402.0</ele><time>2026-04-06T09:37:57.001Z</time></trkpt><trkpt lat="46.193265348967415" lon="12.544905179846523"><ele>402.0</ele><time>2026-04-06T09:37:58.001Z</time></trkpt><trkpt lat="46.193356312112115" lon="12.544784780437995"><ele>404.0</ele><time>2026-04-06T09:37:59Z</time></trkpt><trkpt lat="46.193457469569154" lon="12.544670954518864"><ele>406.0</ele><time>2026-04-06T09:38:00Z</time></trkpt><trkpt lat="46.19353220647396" lon="12.544516019849494"><ele>408.0</ele><time>2026-04-06T09:38:01Z</time></trkpt><trkpt lat="46.19359830337066" lon="12.544342501548162"><ele>410.0</ele><time>2026-04-06T09:38:02Z</time></trkpt><trkpt lat="46.19365983309603" lon="12.544156777020516"><ele>410.0</ele><time>2026-04-06T09:38:03Z</time></trkpt><trkpt lat="46.193716583976865" lon="12.543968925782005"><ele>410.0</ele><time>2026-04-06T09:38:04Z</time></trkpt><trkpt lat="46.19377412585338" lon="12.543788084733068"><ele>410.0</ele><time>2026-04-06T09:38:05Z</time></trkpt><trkpt lat="46.19383492895576" lon="12.543597705362467"><ele>410.0</ele><time>2026-04-06T09:38:06Z</time></trkpt><trkpt lat="46.1938963297676" lon="12.543396200225663"><ele>409.75</ele><time>2026-04-06T09:38:07Z</time></trkpt><trkpt lat="46.193966750853754" lon="12.543223797737156"><ele>409.5</ele><time>2026-04-06T09:38:08Z</time></trkpt><trkpt lat="46.194016993167445" lon="12.543056821421793"><ele>409.25</ele><time>2026-04-06T09:38:09Z</time></trkpt><trkpt lat="46.19405679999541" lon="12.542892098971805"><ele>409.0</ele><time>2026-04-06T09:38:10Z</time></trkpt><trkpt lat="46.19414395942717" lon="12.542764546395329"><ele>409.0</ele><time>2026-04-06T09:38:11Z</time></trkpt><trkpt lat="46.19425927848487" lon="12.542653071056277"><ele>409.0</ele><time>2026-04-06T09:38:12Z</time></trkpt><trkpt lat="46.19435594302767" lon="12.54252645326929"><ele>409.0</ele><time>2026-04-06T09:38:13Z</time></trkpt><trkpt lat="46.194431541352465" lon="12.542375103296887"><ele>409.0</ele><time>2026-04-06T09:38:14Z</time></trkpt><trkpt lat="46.1944925768256" lon="12.542202619674402"><ele>410.5</ele><time>2026-04-06T09:38:15Z</time></trkpt><trkpt lat="46.19454900604802" lon="12.542023904621447"><ele>412.0</ele><time>2026-04-06T09:38:16Z</time></trkpt><trkpt lat="46.194603821510306" lon="12.541832094711978"><ele>413.5</ele><time>2026-04-06T09:38:17Z</time></trkpt><trkpt lat="46.194662611355014" lon="12.541630575037914"><ele>415.0</ele><time>2026-04-06T09:38:18Z</time></trkpt><trkpt lat="46.19472037962066" lon="12.54142476026487"><ele>416.0</ele><time>2026-04-06T09:38:19Z</time></trkpt><trkpt lat="46.1947815844619" lon="12.541203125823257"><ele>417.0</ele><time>2026-04-06T09:38:20Z</time></trkpt><trkpt lat="46.194834836892376" lon="12.5409736463934"><ele>418.0</ele><time>2026-04-06T09:38:21Z</time></trkpt><trkpt lat="46.194894877411414" lon="12.540724585385462"><ele>418.0</ele><time>2026-04-06T09:38:22Z</time></trkpt><trkpt lat="46.19492538742711" lon="12.54046199072194"><ele>418.0</ele><time>2026-04-06T09:38:23Z</time></trkpt><trkpt lat="46.19494097744781" lon="12.540202603496002"><ele>418.0</ele><time>2026-04-06T09:38:24Z</time></trkpt><trkpt lat="46.19497755763542" lon="12.539956309653562"><ele>416.6666666666667</ele><time>2026-04-06T09:38:25Z</time></trkpt><trkpt lat="46.19501585197736" lon="12.539719029924445"><ele>415.33333333333337</ele><time>2026-04-06T09:38:26Z</time></trkpt><trkpt lat="46.19505317438024" lon="12.539494091754955"><ele>414.0</ele><time>2026-04-06T09:38:27Z</time></trkpt><trkpt lat="46.195093588987575" lon="12.539280830953741"><ele>413.66666666666663</ele><time>2026-04-06T09:38:28Z</time></trkpt><trkpt lat="46.19513587403345" lon="12.539073539844768"><ele>413.3333333333333</ele><time>2026-04-06T09:38:29Z</time></trkpt><trkpt lat="46.1951761286519" lon="12.53886289084312"><ele>413.0</ele><time>2026-04-06T09:38:30Z</time></trkpt><trkpt lat="46.19521977961469" lon="12.538642286656241"><ele>412.3333333333333</ele><time>2026-04-06T09:38:31Z</time></trkpt><trkpt lat="46.19526920631115" lon="12.53840951666053"><ele>411.66666666666663</ele><time>2026-04-06T09:38:32Z</time></trkpt><trkpt lat="46.19532733486121" lon="12.538174056864172"><ele>411.0</ele><time>2026-04-06T09:38:33Z</time></trkpt><trkpt lat="46.19539424069126" lon="12.537940592279702"><ele>411.33333333333337</ele><time>2026-04-06T09:38:34Z</time></trkpt><trkpt lat="46.19546286244509" lon="12.53770491257885"><ele>411.6666666666667</ele><time>2026-04-06T09:38:35Z</time></trkpt><trkpt lat="46.19553643715801" lon="12.537481826501157"><ele>412.0</ele><time>2026-04-06T09:38:36Z</time></trkpt><trkpt lat="46.195626148104054" lon="12.537272223499855"><ele>413.33333333333337</ele><time>2026-04-06T09:38:37Z</time></trkpt><trkpt lat="46.19573776878169" lon="12.537089048084844"><ele>414.66666666666663</ele><time>2026-04-06T09:38:38Z</time></trkpt><trkpt lat="46.19584467110931" lon="12.536915112629906"><ele>416.0</ele><time>2026-04-06T09:38:39Z</time></trkpt><trkpt lat="46.195924945392946" lon="12.536710189943454"><ele>416.0</ele><time>2026-04-06T09:38:40Z</time></trkpt><trkpt lat="46.195979228371876" lon="12.536490262713007"><ele>416.0</ele><time>2026-04-06T09:38:41Z</time></trkpt><trkpt lat="46.1960262143696" lon="12.536263181060912"><ele>416.0</ele><time>2026-04-06T09:38:42Z</time></trkpt><trkpt lat="46.196073168865716" lon="12.5360360838294"><ele>416.3333333333333</ele><time>2026-04-06T09:38:43Z</time></trkpt><trkpt lat="46.196111904995306" lon="12.535815251601127"><ele>416.66666666666663</ele><time>2026-04-06T09:38:44Z</time></trkpt><trkpt lat="46.196130096359504" lon="12.535592859379456"><ele>417.0</ele><time>2026-04-06T09:38:45Z</time></trkpt><trkpt lat="46.196168332616224" lon="12.535377696659737"><ele>417.0</ele><time>2026-04-06T09:38:46Z</time></trkpt><trkpt lat="46.196208914359985" lon="12.53516297296569"><ele>417.0</ele><time>2026-04-06T09:38:47Z</time></trkpt><trkpt lat="46.19625280412044" lon="12.53495528454306"><ele>417.0</ele><time>2026-04-06T09:38:48Z</time></trkpt><trkpt lat="46.196299976108044" lon="12.534750272286143"><ele>420.25</ele><time>2026-04-06T09:38:49Z</time></trkpt><trkpt lat="46.196342656597245" lon="12.534537571737276"><ele>423.5</ele><time>2026-04-06T09:38:50Z</time></trkpt><trkpt lat="46.1963829762404" lon="12.534336165406428"><ele>426.75</ele><time>2026-04-06T09:38:51Z</time></trkpt><trkpt lat="46.196425512330016" lon="12.534143500419749"><ele>430.0</ele><time>2026-04-06T09:38:52Z</time></trkpt><trkpt lat="46.19647362878912" lon="12.533948650980554"><ele>425.0</ele><time>2026-04-06T09:38:53Z</time></trkpt><trkpt lat="46.196536450381814" lon="12.533762059566708"><ele>420.0</ele><time>2026-04-06T09:38:54Z</time></trkpt><trkpt lat="46.19663096120554" lon="12.533586593370417"><ele>415.0</ele><time>2026-04-06T09:38:55Z</time></trkpt><trkpt lat="46.19674330759838" lon="12.533416605074308"><ele>415.0</ele><time>2026-04-06T09:38:56Z</time></trkpt><trkpt lat="46.19686989611509" lon="12.533255515965363"><ele>415.0</ele><time>2026-04-06T09:38:57Z</time></trkpt><trkpt lat="46.1970027974802" lon="12.5331139110673"><ele>415.0</ele><time>2026-04-06T09:38:58Z</time></trkpt><trkpt lat="46.19713433141315" lon="12.532978538984969"><ele>412.6666666666667</ele><time>2026-04-06T09:38:59Z</time></trkpt><trkpt lat="46.19726619278279" lon="12.53285315464743"><ele>410.33333333333337</ele><time>2026-04-06T09:39:00Z</time></trkpt><trkpt lat="46.19740509053943" lon="12.532747670002019"><ele>408.0</ele><time>2026-04-06T09:39:01Z</time></trkpt><trkpt lat="46.197548266485676" lon="12.53263802568737"><ele>408.0</ele><time>2026-04-06T09:39:02Z</time></trkpt><trkpt lat="46.197693996663396" lon="12.532527961568913"><ele>408.0</ele><time>2026-04-06T09:39:03Z</time></trkpt><trkpt lat="46.197841693021886" lon="12.532416514420941"><ele>408.0</ele><time>2026-04-06T09:39:04Z</time></trkpt><trkpt lat="46.19798117759088" lon="12.532311800353483"><ele>408.0</ele><time>2026-04-06T09:39:05Z</time></trkpt><trkpt lat="46.19811269506875" lon="12.532210016173508"><ele>408.0</ele><time>2026-04-06T09:39:06Z</time></trkpt><trkpt lat="46.19824686134859" lon="12.532103989896013"><ele>408.0</ele><time>2026-04-06T09:39:07Z</time></trkpt><trkpt lat="46.19837870812921" lon="12.531977786791828"><ele>412.0</ele><time>2026-04-06T09:39:08Z</time></trkpt><trkpt lat="46.19850702769959" lon="12.531839739770016"><ele>416.0</ele><time>2026-04-06T09:39:09Z</time></trkpt><trkpt lat="46.198632097030355" lon="12.531692857731008"><ele>420.0</ele><time>2026-04-06T09:39:10Z</time></trkpt><trkpt lat="46.198755024912145" lon="12.53154705845396"><ele>420.0</ele><time>2026-04-06T09:39:11Z</time></trkpt><trkpt lat="46.198875026822975" lon="12.531399643524223"><ele>420.0</ele><time>2026-04-06T09:39:12Z</time></trkpt><trkpt lat="46.1989854698341" lon="12.531237266176863"><ele>420.0</ele><time>2026-04-06T09:39:13Z</time></trkpt><trkpt lat="46.199080280034806" lon="12.531043489849518"><ele>420.0</ele><time>2026-04-06T09:39:14Z</time></trkpt><trkpt lat="46.199157967934326" lon="12.53083137760781"><ele>420.0</ele><time>2026-04-06T09:39:15Z</time></trkpt><trkpt lat="46.199212096634746" lon="12.530610287969425"><ele>420.0</ele><time>2026-04-06T09:39:16Z</time></trkpt><trkpt lat="46.19925710368832" lon="12.53037416486939"><ele>420.66666666666663</ele><time>2026-04-06T09:39:17Z</time></trkpt><trkpt lat="46.19929589181729" lon="12.530138324815344"><ele>421.3333333333333</ele><time>2026-04-06T09:39:18Z</time></trkpt><trkpt lat="46.19932610977808" lon="12.529896678752024"><ele>422.0</ele><time>2026-04-06T09:39:19Z</time></trkpt><trkpt lat="46.19934564967461" lon="12.529642923339306"><ele>422.0</ele><time>2026-04-06T09:39:20Z</time></trkpt><trkpt lat="46.19935731233633" lon="12.529377600763706"><ele>422.0</ele><time>2026-04-06T09:39:21Z</time></trkpt><trkpt lat="46.199361342277925" lon="12.529112552786646"><ele>422.0</ele><time>2026-04-06T09:39:22Z</time></trkpt><trkpt lat="46.199362991920474" lon="12.528853488680475"><ele>422.0</ele><time>2026-04-06T09:39:23Z</time></trkpt><trkpt lat="46.19936690426487" lon="12.528594603869575"><ele>422.0</ele><time>2026-04-06T09:39:24Z</time></trkpt><trkpt lat="46.199374105053685" lon="12.528331919623167"><ele>422.0</ele><time>2026-04-06T09:39:25Z</time></trkpt><trkpt lat="46.19938710334235" lon="12.528075059904369"><ele>420.3333333333333</ele><time>2026-04-06T09:39:26Z</time></trkpt><trkpt lat="46.19940175830099" lon="12.527821217227558"><ele>418.66666666666663</ele><time>2026-04-06T09:39:27Z</time></trkpt><trkpt lat="46.19941110604946" lon="12.527579392303421"><ele>417.0</ele><time>2026-04-06T09:39:28Z</time></trkpt><trkpt lat="46.19941201554765" lon="12.527348500630584"><ele>417.0</ele><time>2026-04-06T09:39:29Z</time></trkpt><trkpt lat="46.199391716167085" lon="12.527119479479575"><ele>417.0</ele><time>2026-04-06T09:39:30Z</time></trkpt><trkpt lat="46.19935020640123" lon="12.526900898258292"><ele>417.0</ele><time>2026-04-06T09:39:31Z</time></trkpt><trkpt lat="46.199301583884484" lon="12.526687154950153"><ele>417.5</ele><time>2026-04-06T09:39:32Z</time></trkpt><trkpt lat="46.19926309608392" lon="12.526480921293414"><ele>418.0</ele><time>2026-04-06T09:39:33Z</time></trkpt><trkpt lat="46.19924318679646" lon="12.526289028433533"><ele>418.5</ele><time>2026-04-06T09:39:34Z</time></trkpt><trkpt lat="46.19924433378174" lon="12.52610140256049"><ele>419.0</ele><time>2026-04-06T09:39:35Z</time></trkpt><trkpt lat="46.199271642698754" lon="12.525936534329135"><ele>420.0</ele><time>2026-04-06T09:39:36Z</time></trkpt><trkpt lat="46.199322111878395" lon="12.525789113726571"><ele>421.0</ele><time>2026-04-06T09:39:37Z</time></trkpt><trkpt lat="46.19939782138922" lon="12.525660964320608"><ele>422.0</ele><time>2026-04-06T09:39:38Z</time></trkpt><trkpt lat="46.19949552123658" lon="12.525539259167612"><ele>423.0</ele><time>2026-04-06T09:39:39Z</time></trkpt><trkpt lat="46.19959394218315" lon="12.525424221560492"><ele>421.5</ele><time>2026-04-06T09:39:40Z</time></trkpt><trkpt lat="46.19969305460925" lon="12.525318247240229"><ele>420.0</ele><time>2026-04-06T09:39:41Z</time></trkpt><trkpt lat="46.19979266326889" lon="12.525210858743415"><ele>418.5</ele><time>2026-04-06T09:39:41.999Z</time></trkpt><trkpt lat="46.199876294346275" lon="12.525078460297943"><ele>417.0</ele><time>2026-04-06T09:39:42.999Z</time></trkpt><trkpt lat="46.1999396371891" lon="12.524914019894016"><ele>420.0</ele><time>2026-04-06T09:39:43.999Z</time></trkpt><trkpt lat="46.199986215697805" lon="12.52471635956315"><ele>423.0</ele><time>2026-04-06T09:39:44.999Z</time></trkpt><trkpt lat="46.20003362548234" lon="12.524528912337164"><ele>426.0</ele><time>2026-04-06T09:39:45.999Z</time></trkpt><trkpt lat="46.200076157369786" lon="12.524351698537627"><ele>429.0</ele><time>2026-04-06T09:39:47.001Z</time></trkpt><trkpt lat="46.200109735565114" lon="12.524175275199196"><ele>429.0</ele><time>2026-04-06T09:39:48.001Z</time></trkpt><trkpt lat="46.20013681565502" lon="12.523988232168845"><ele>429.0</ele><time>2026-04-06T09:39:49.001Z</time></trkpt><trkpt lat="46.20016128545909" lon="12.523789241527226"><ele>429.0</ele><time>2026-04-06T09:39:50.001Z</time></trkpt><trkpt lat="46.200185267661006" lon="12.52358551557246"><ele>429.0</ele><time>2026-04-06T09:39:51.001Z</time></trkpt><trkpt lat="46.200209521090706" lon="12.523378131823968"><ele>429.0</ele><time>2026-04-06T09:39:52.001Z</time></trkpt><trkpt lat="46.20023458869752" lon="12.523167165435346"><ele>429.0</ele><time>2026-04-06T09:39:53.001Z</time></trkpt><trkpt lat="46.20025916824203" lon="12.522957914765056"><ele>429.0</ele><time>2026-04-06T09:39:54.001Z</time></trkpt><trkpt lat="46.200284107764894" lon="12.52274750597658"><ele>429.0</ele><time>2026-04-06T09:39:55.001Z</time></trkpt><trkpt lat="46.20031930539973" lon="12.522516018098084"><ele>428.33333333333337</ele><time>2026-04-06T09:39:56.001Z</time></trkpt><trkpt lat="46.20036673626804" lon="12.522269674541697"><ele>427.6666666666667</ele><time>2026-04-06T09:39:57.001Z</time></trkpt><trkpt lat="46.20042163289487" lon="12.522009469155067"><ele>427.0</ele><time>2026-04-06T09:39:58Z</time></trkpt><trkpt lat="46.200475090750004" lon="12.521756119330927"><ele>425.0</ele><time>2026-04-06T09:39:59.001Z</time></trkpt><trkpt lat="46.200530189729044" lon="12.521509748883041"><ele>423.0</ele><time>2026-04-06T09:40:00.001Z</time></trkpt><trkpt lat="46.200585769530285" lon="12.521268927501168"><ele>421.0</ele><time>2026-04-06T09:40:01Z</time></trkpt><trkpt lat="46.20063934193449" lon="12.521036550244034"><ele>427.6666666666667</ele><time>2026-04-06T09:40:02Z</time></trkpt><trkpt lat="46.20068714067099" lon="12.520815356369216"><ele>434.33333333333337</ele><time>2026-04-06T09:40:03Z</time></trkpt><trkpt lat="46.20072912234769" lon="12.52060460554489"><ele>441.0</ele><time>2026-04-06T09:40:04Z</time></trkpt><trkpt lat="46.20077007537248" lon="12.520401876316013"><ele>439.0</ele><time>2026-04-06T09:40:05Z</time></trkpt><trkpt lat="46.200807598583175" lon="12.520208735782903"><ele>437.0</ele><time>2026-04-06T09:40:06Z</time></trkpt><trkpt lat="46.200844984164824" lon="12.52002661338539"><ele>435.0</ele><time>2026-04-06T09:40:07Z</time></trkpt><trkpt lat="46.2008903105738" lon="12.51984648908337"><ele>433.0</ele><time>2026-04-06T09:40:08Z</time></trkpt><trkpt lat="46.20094669405821" lon="12.519660501172114"><ele>430.0</ele><time>2026-04-06T09:40:09Z</time></trkpt><trkpt lat="46.201016558206135" lon="12.519477181641347"><ele>427.0</ele><time>2026-04-06T09:40:10Z</time></trkpt><trkpt lat="46.20110501472261" lon="12.519295666804664"><ele>424.0</ele><time>2026-04-06T09:40:11Z</time></trkpt><trkpt lat="46.201203010194384" lon="12.519110918469133"><ele>424.0</ele><time>2026-04-06T09:40:12Z</time></trkpt><trkpt lat="46.20130245430913" lon="12.518912227124448"><ele>424.0</ele><time>2026-04-06T09:40:13Z</time></trkpt><trkpt lat="46.20139848503569" lon="12.518711198847587"><ele>424.0</ele><time>2026-04-06T09:40:14Z</time></trkpt><trkpt lat="46.20149420620161" lon="12.518513395561005"><ele>425.6666666666667</ele><time>2026-04-06T09:40:15Z</time></trkpt><trkpt lat="46.20159146132306" lon="12.518314595001577"><ele>427.33333333333337</ele><time>2026-04-06T09:40:16Z</time></trkpt><trkpt lat="46.20168537615829" lon="12.518104607749326"><ele>429.0</ele><time>2026-04-06T09:40:17Z</time></trkpt><trkpt lat="46.2017804868849" lon="12.517890584277257"><ele>429.0</ele><time>2026-04-06T09:40:18Z</time></trkpt><trkpt lat="46.20187698935973" lon="12.517675461974465"><ele>429.0</ele><time>2026-04-06T09:40:19Z</time></trkpt><trkpt lat="46.20197570916102" lon="12.51746412564425"><ele>429.0</ele><time>2026-04-06T09:40:20Z</time></trkpt><trkpt lat="46.202082373988574" lon="12.517268030525182"><ele>429.0</ele><time>2026-04-06T09:40:21Z</time></trkpt><trkpt lat="46.20220324502681" lon="12.51708792913198"><ele>429.0</ele><time>2026-04-06T09:40:22Z</time></trkpt><trkpt lat="46.20232738206878" lon="12.516923566194507"><ele>429.0</ele><time>2026-04-06T09:40:23Z</time></trkpt><trkpt lat="46.202456633745406" lon="12.516774050774922"><ele>433.0</ele><time>2026-04-06T09:40:24Z</time></trkpt><trkpt lat="46.20257823081771" lon="12.516612850811061"><ele>437.0</ele><time>2026-04-06T09:40:25Z</time></trkpt><trkpt lat="46.20267196154119" lon="12.516438462923098"><ele>441.0</ele><time>2026-04-06T09:40:26Z</time></trkpt><trkpt lat="46.20274965588969" lon="12.516273647040256"><ele>440.5</ele><time>2026-04-06T09:40:27Z</time></trkpt><trkpt lat="46.20282676355945" lon="12.516124948870338"><ele>440.0</ele><time>2026-04-06T09:40:28Z</time></trkpt><trkpt lat="46.202920829571624" lon="12.51598529375059"><ele>439.5</ele><time>2026-04-06T09:40:29Z</time></trkpt><trkpt lat="46.203033156796444" lon="12.515855110686315"><ele>439.0</ele><time>2026-04-06T09:40:30Z</time></trkpt><trkpt lat="46.20317053564334" lon="12.515749291337285"><ele>439.0</ele><time>2026-04-06T09:40:31Z</time></trkpt><trkpt lat="46.20330628627306" lon="12.515641180437523"><ele>439.0</ele><time>2026-04-06T09:40:32Z</time></trkpt><trkpt lat="46.20343048559082" lon="12.515515853232431"><ele>439.0</ele><time>2026-04-06T09:40:33Z</time></trkpt><trkpt lat="46.20354310619391" lon="12.515375555481553"><ele>436.75</ele><time>2026-04-06T09:40:34Z</time></trkpt><trkpt lat="46.2036492541638" lon="12.51522640157467"><ele>434.5</ele><time>2026-04-06T09:40:35Z</time></trkpt><trkpt lat="46.2037465802744" lon="12.515078585695662"><ele>432.25</ele><time>2026-04-06T09:40:36Z</time></trkpt><trkpt lat="46.20383917911507" lon="12.514926305000676"><ele>430.0</ele><time>2026-04-06T09:40:37Z</time></trkpt><trkpt lat="46.20392760965895" lon="12.514765034742585"><ele>429.6666666666667</ele><time>2026-04-06T09:40:38Z</time></trkpt><trkpt lat="46.20402149763537" lon="12.51461870922151"><ele>429.33333333333337</ele><time>2026-04-06T09:40:39Z</time></trkpt><trkpt lat="46.204137377523395" lon="12.514473194576555"><ele>429.0</ele><time>2026-04-06T09:40:40Z</time></trkpt><trkpt lat="46.2042804385839" lon="12.514335901543816"><ele>429.0</ele><time>2026-04-06T09:40:41Z</time></trkpt><trkpt lat="46.20442833648231" lon="12.514197421498237"><ele>429.0</ele><time>2026-04-06T09:40:42Z</time></trkpt><trkpt lat="46.20457599976564" lon="12.514066007808308"><ele>429.0</ele><time>2026-04-06T09:40:43Z</time></trkpt><trkpt lat="46.20472737620267" lon="12.513938516539426"><ele>435.66666666666663</ele><time>2026-04-06T09:40:44Z</time></trkpt><trkpt lat="46.20486668471596" lon="12.513814546269842"><ele>442.3333333333333</ele><time>2026-04-06T09:40:45Z</time></trkpt><trkpt lat="46.204999976544535" lon="12.513702731424457"><ele>449.0</ele><time>2026-04-06T09:40:46Z</time></trkpt><trkpt lat="46.2051418544742" lon="12.513616155526565"><ele>449.0</ele><time>2026-04-06T09:40:47Z</time></trkpt><trkpt lat="46.20529477027994" lon="12.513526388032322"><ele>449.0</ele><time>2026-04-06T09:40:48Z</time></trkpt><trkpt lat="46.205449868113924" lon="12.513433423747001"><ele>449.0</ele><time>2026-04-06T09:40:49Z</time></trkpt><trkpt lat="46.205589927026665" lon="12.513347863961833"><ele>449.66666666666663</ele><time>2026-04-06T09:40:50Z</time></trkpt><trkpt lat="46.205732417952746" lon="12.513262642849334"><ele>450.33333333333337</ele><time>2026-04-06T09:40:51Z</time></trkpt><trkpt lat="46.20588220042246" lon="12.513190111805608"><ele>451.0</ele><time>2026-04-06T09:40:52Z</time></trkpt><trkpt lat="46.2060339902175" lon="12.513129101529449"><ele>451.0</ele><time>2026-04-06T09:40:53Z</time></trkpt><trkpt lat="46.20618295918948" lon="12.513073850792768"><ele>451.0</ele><time>2026-04-06T09:40:54Z</time></trkpt><trkpt lat="46.20631860830836" lon="12.513013559319871"><ele>451.0</ele><time>2026-04-06T09:40:55Z</time></trkpt><trkpt lat="46.206447858398775" lon="12.512947920651019"><ele>451.0</ele><time>2026-04-06T09:40:56Z</time></trkpt><trkpt lat="46.20657913358804" lon="12.512881469706604"><ele>446.75</ele><time>2026-04-06T09:40:57Z</time></trkpt><trkpt lat="46.206711864225746" lon="12.512814750144408"><ele>442.5</ele><time>2026-04-06T09:40:58Z</time></trkpt><trkpt lat="46.20684632039712" lon="12.512740220008721"><ele>438.25</ele><time>2026-04-06T09:40:59Z</time></trkpt><trkpt lat="46.206982738715794" lon="12.512658638667665"><ele>434.0</ele><time>2026-04-06T09:41:00Z</time></trkpt><trkpt lat="46.20712388430902" lon="12.512554994539341"><ele>434.0</ele><time>2026-04-06T09:41:01Z</time></trkpt><trkpt lat="46.20726744933622" lon="12.512440824785081"><ele>434.0</ele><time>2026-04-06T09:41:02Z</time></trkpt><trkpt lat="46.207416329530936" lon="12.512325170405168"><ele>434.0</ele><time>2026-04-06T09:41:03Z</time></trkpt><trkpt lat="46.20756729789329" lon="12.512203225114714"><ele>435.0</ele><time>2026-04-06T09:41:04Z</time></trkpt><trkpt lat="46.207711221736574" lon="12.51207098044758"><ele>436.0</ele><time>2026-04-06T09:41:05Z</time></trkpt><trkpt lat="46.20784535322345" lon="12.511929816845306"><ele>437.0</ele><time>2026-04-06T09:41:06Z</time></trkpt><trkpt lat="46.207972029708614" lon="12.511791680727972"><ele>437.0</ele><time>2026-04-06T09:41:07Z</time></trkpt><trkpt lat="46.208092813335284" lon="12.511664572011833"><ele>437.0</ele><time>2026-04-06T09:41:08Z</time></trkpt><trkpt lat="46.208205607221686" lon="12.511536337945662"><ele>437.0</ele><time>2026-04-06T09:41:09Z</time></trkpt><trkpt lat="46.20831046871227" lon="12.511397689528422"><ele>437.0</ele><time>2026-04-06T09:41:10Z</time></trkpt><trkpt lat="46.208405313899085" lon="12.511245831303686"><ele>437.5</ele><time>2026-04-06T09:41:11Z</time></trkpt><trkpt lat="46.20848665467799" lon="12.511075363346912"><ele>438.0</ele><time>2026-04-06T09:41:12Z</time></trkpt><trkpt lat="46.208558848681" lon="12.510906332493597"><ele>438.5</ele><time>2026-04-06T09:41:13Z</time></trkpt><trkpt lat="46.20863080816803" lon="12.510752211306096"><ele>439.0</ele><time>2026-04-06T09:41:14Z</time></trkpt><trkpt lat="46.20871563075891" lon="12.510605248602399"><ele>439.0</ele><time>2026-04-06T09:41:15Z</time></trkpt><trkpt lat="46.20881655557144" lon="12.510460483510123"><ele>439.0</ele><time>2026-04-06T09:41:16Z</time></trkpt><trkpt lat="46.20892607643873" lon="12.510322297139023"><ele>439.0</ele><time>2026-04-06T09:41:17Z</time></trkpt><trkpt lat="46.20903540063061" lon="12.510194725097097"><ele>439.0</ele><time>2026-04-06T09:41:18Z</time></trkpt><trkpt lat="46.20914208736189" lon="12.510080851617928"><ele>440.25</ele><time>2026-04-06T09:41:19Z</time></trkpt><trkpt lat="46.20925691260085" lon="12.509986693156447"><ele>441.5</ele><time>2026-04-06T09:41:20Z</time></trkpt><trkpt lat="46.209376715478" lon="12.509890307847524"><ele>442.75</ele><time>2026-04-06T09:41:21Z</time></trkpt><trkpt lat="46.209486536182055" lon="12.509768103378745"><ele>444.0</ele><time>2026-04-06T09:41:22Z</time></trkpt><trkpt lat="46.20957741478162" lon="12.509628331836275"><ele>442.25</ele><time>2026-04-06T09:41:23Z</time></trkpt><trkpt lat="46.20965467184278" lon="12.509499594166583"><ele>440.5</ele><time>2026-04-06T09:41:24Z</time></trkpt><trkpt lat="46.20972698815979" lon="12.509364219730681"><ele>438.75</ele><time>2026-04-06T09:41:25Z</time></trkpt><trkpt lat="46.20980947754365" lon="12.509233216332229"><ele>437.0</ele><time>2026-04-06T09:41:26Z</time></trkpt><trkpt lat="46.20991228325069" lon="12.509120917644456"><ele>437.0</ele><time>2026-04-06T09:41:27Z</time></trkpt><trkpt lat="46.2100335382393" lon="12.509048290958658"><ele>437.0</ele><time>2026-04-06T09:41:28Z</time></trkpt><trkpt lat="46.210158816676426" lon="12.509023765321292"><ele>437.0</ele><time>2026-04-06T09:41:29Z</time></trkpt><trkpt lat="46.210280666491116" lon="12.50905503382639"><ele>437.0</ele><time>2026-04-06T09:41:30Z</time></trkpt><trkpt lat="46.21039879538102" lon="12.50913766793906"><ele>437.0</ele><time>2026-04-06T09:41:31Z</time></trkpt><trkpt lat="46.210506463732095" lon="12.50924972667895"><ele>437.0</ele><time>2026-04-06T09:41:32Z</time></trkpt><trkpt lat="46.210607209671814" lon="12.50937529425011"><ele>437.0</ele><time>2026-04-06T09:41:33Z</time></trkpt><trkpt lat="46.21070872436161" lon="12.509494605555544"><ele>437.0</ele><time>2026-04-06T09:41:34Z</time></trkpt><trkpt lat="46.210807718661094" lon="12.509620276359438"><ele>441.75</ele><time>2026-04-06T09:41:35Z</time></trkpt><trkpt lat="46.21091904609843" lon="12.509750150437602"><ele>446.5</ele><time>2026-04-06T09:41:36Z</time></trkpt><trkpt lat="46.21103311258812" lon="12.509880721183947"><ele>451.25</ele><time>2026-04-06T09:41:37Z</time></trkpt><trkpt lat="46.21114738722168" lon="12.51001677508257"><ele>456.0</ele><time>2026-04-06T09:41:38Z</time></trkpt><trkpt lat="46.21125922684814" lon="12.510148720536217"><ele>456.0</ele><time>2026-04-06T09:41:39Z</time></trkpt><trkpt lat="46.21136311024879" lon="12.510277490037197"><ele>456.0</ele><time>2026-04-06T09:41:40Z</time></trkpt><trkpt lat="46.211458472566704" lon="12.510402314129387"><ele>456.0</ele><time>2026-04-06T09:41:41Z</time></trkpt><trkpt lat="46.21154403322157" lon="12.510525350772648"><ele>456.0</ele><time>2026-04-06T09:41:41.999Z</time></trkpt><trkpt lat="46.21162332613042" lon="12.510651200881115"><ele>453.8</ele><time>2026-04-06T09:41:42.999Z</time></trkpt><trkpt lat="46.21169983070635" lon="12.510777273223244"><ele>451.6</ele><time>2026-04-06T09:41:43.999Z</time></trkpt><trkpt lat="46.211775191625954" lon="12.510893404552473"><ele>449.4</ele><time>2026-04-06T09:41:44.999Z</time></trkpt><trkpt lat="46.211846210854226" lon="12.511006055932697"><ele>447.2</ele><time>2026-04-06T09:41:45.999Z</time></trkpt><trkpt lat="46.2119268879823" lon="12.511105901462003"><ele>445.0</ele><time>2026-04-06T09:41:46.999Z</time></trkpt><trkpt lat="46.21202288722496" lon="12.511169030888752"><ele>445.0</ele><time>2026-04-06T09:41:47.999Z</time></trkpt><trkpt lat="46.2121315019475" lon="12.511194312365953"><ele>445.0</ele><time>2026-04-06T09:41:48.999Z</time></trkpt><trkpt lat="46.21223961140138" lon="12.51117477057912"><ele>445.0</ele><time>2026-04-06T09:41:49.999Z</time></trkpt><trkpt lat="46.212341496872185" lon="12.511099971438432"><ele>445.0</ele><time>2026-04-06T09:41:50.999Z</time></trkpt><trkpt lat="46.21242733972405" lon="12.510998246826835"><ele>445.0</ele><time>2026-04-06T09:41:51.999Z</time></trkpt><trkpt lat="46.21251465843218" lon="12.510900465564458"><ele>442.5</ele><time>2026-04-06T09:41:53Z</time></trkpt><trkpt lat="46.21260966123402" lon="12.51079809181974"><ele>440.0</ele><time>2026-04-06T09:41:54Z</time></trkpt><trkpt lat="46.2127042165264" lon="12.51069220832995"><ele>437.5</ele><time>2026-04-06T09:41:55Z</time></trkpt><trkpt lat="46.212802284051875" lon="12.510586330525554"><ele>435.0</ele><time>2026-04-06T09:41:56Z</time></trkpt><trkpt lat="46.2129022545989" lon="12.510479832483774"><ele>437.25</ele><time>2026-04-06T09:41:57Z</time></trkpt><trkpt lat="46.213001397921914" lon="12.510369655882055"><ele>439.5</ele><time>2026-04-06T09:41:58Z</time></trkpt><trkpt lat="46.21310496447317" lon="12.510258518410566"><ele>441.75</ele><time>2026-04-06T09:41:59Z</time></trkpt><trkpt lat="46.213214501843574" lon="12.510141729362198"><ele>444.0</ele><time>2026-04-06T09:42:00Z</time></trkpt><trkpt lat="46.21332085457342" lon="12.510011022908612"><ele>444.66666666666663</ele><time>2026-04-06T09:42:01Z</time></trkpt><trkpt lat="46.21341536822259" lon="12.509849545554324"><ele>445.3333333333333</ele><time>2026-04-06T09:42:02Z</time></trkpt><trkpt lat="46.21350565489564" lon="12.509671304638411"><ele>446.0</ele><time>2026-04-06T09:42:03Z</time></trkpt><trkpt lat="46.213608363386086" lon="12.509478467866424"><ele>453.0</ele><time>2026-04-06T09:42:04Z</time></trkpt><trkpt lat="46.21371090971064" lon="12.509290529254141"><ele>460.0</ele><time>2026-04-06T09:42:05Z</time></trkpt><trkpt lat="46.213815340287674" lon="12.509109759487531"><ele>467.0</ele><time>2026-04-06T09:42:06Z</time></trkpt><trkpt lat="46.21391944987146" lon="12.508927280958746"><ele>463.66666666666663</ele><time>2026-04-06T09:42:07Z</time></trkpt><trkpt lat="46.214016775993535" lon="12.508745095872687"><ele>460.33333333333337</ele><time>2026-04-06T09:42:08Z</time></trkpt><trkpt lat="46.214109070342595" lon="12.508565607185377"><ele>457.0</ele><time>2026-04-06T09:42:09Z</time></trkpt><trkpt lat="46.214199347432746" lon="12.508388413338096"><ele>457.0</ele><time>2026-04-06T09:42:10Z</time></trkpt><trkpt lat="46.21428882542555" lon="12.50821736656243"><ele>457.0</ele><time>2026-04-06T09:42:11Z</time></trkpt><trkpt lat="46.214375136059076" lon="12.508050251534076"><ele>457.0</ele><time>2026-04-06T09:42:12Z</time></trkpt><trkpt lat="46.21446430298041" lon="12.507876221517035"><ele>457.0</ele><time>2026-04-06T09:42:13Z</time></trkpt><trkpt lat="46.21455337415299" lon="12.507692510718444"><ele>466.6666666666667</ele><time>2026-04-06T09:42:14Z</time></trkpt><trkpt lat="46.21463573757158" lon="12.507499412194592"><ele>476.33333333333337</ele><time>2026-04-06T09:42:15Z</time></trkpt><trkpt lat="46.214717181333306" lon="12.507300985502518"><ele>486.0</ele><time>2026-04-06T09:42:16Z</time></trkpt><trkpt lat="46.21480238479321" lon="12.507091035255877"><ele>474.66666666666663</ele><time>2026-04-06T09:42:17Z</time></trkpt><trkpt lat="46.21488697697757" lon="12.506881283025562"><ele>463.3333333333333</ele><time>2026-04-06T09:42:18Z</time></trkpt><trkpt lat="46.214965790130044" lon="12.506674080668803"><ele>452.0</ele><time>2026-04-06T09:42:19Z</time></trkpt><trkpt lat="46.215034802278055" lon="12.506467630332642"><ele>452.0</ele><time>2026-04-06T09:42:20Z</time></trkpt><trkpt lat="46.21509893934017" lon="12.50625318519217"><ele>452.0</ele><time>2026-04-06T09:42:21Z</time></trkpt><trkpt lat="46.21515655366856" lon="12.506028938246315"><ele>452.0</ele><time>2026-04-06T09:42:22Z</time></trkpt><trkpt lat="46.21520779911439" lon="12.505787970688129"><ele>457.66666666666663</ele><time>2026-04-06T09:42:23Z</time></trkpt><trkpt lat="46.21526018144448" lon="12.505539332181339"><ele>463.33333333333337</ele><time>2026-04-06T09:42:24Z</time></trkpt><trkpt lat="46.21531375309542" lon="12.505287723032597"><ele>469.0</ele><time>2026-04-06T09:42:25Z</time></trkpt><trkpt lat="46.2153626711555" lon="12.505049773592354"><ele>474.6666666666667</ele><time>2026-04-06T09:42:26Z</time></trkpt><trkpt lat="46.21540606220299" lon="12.504816566043308"><ele>480.33333333333337</ele><time>2026-04-06T09:42:27Z</time></trkpt><trkpt lat="46.21544292664834" lon="12.50457561192983"><ele>486.0</ele><time>2026-04-06T09:42:28Z</time></trkpt><trkpt lat="46.21547834070104" lon="12.504339909651542"><ele>491.0</ele><time>2026-04-06T09:42:29Z</time></trkpt><trkpt lat="46.21551385462538" lon="12.504102979150574"><ele>496.0</ele><time>2026-04-06T09:42:30Z</time></trkpt><trkpt lat="46.21555326824109" lon="12.503873356367778"><ele>501.0</ele><time>2026-04-06T09:42:31Z</time></trkpt><trkpt lat="46.21559938339191" lon="12.503647835143179"><ele>508.0</ele><time>2026-04-06T09:42:32Z</time></trkpt><trkpt lat="46.21565138975657" lon="12.503429340792788"><ele>515.0</ele><time>2026-04-06T09:42:33Z</time></trkpt><trkpt lat="46.21570562963331" lon="12.503218671298532"><ele>522.0</ele><time>2026-04-06T09:42:34Z</time></trkpt><trkpt lat="46.215756418310015" lon="12.503005583537789"><ele>502.33333333333337</ele><time>2026-04-06T09:42:35Z</time></trkpt><trkpt lat="46.21580680565035" lon="12.502788423723095"><ele>482.6666666666667</ele><time>2026-04-06T09:42:36Z</time></trkpt><trkpt lat="46.215864041234994" lon="12.502570873155067"><ele>463.0</ele><time>2026-04-06T09:42:37Z</time></trkpt><trkpt lat="46.215922764377886" lon="12.50236399516945"><ele>463.0</ele><time>2026-04-06T09:42:38Z</time></trkpt><trkpt lat="46.21598361682768" lon="12.50217865535662"><ele>463.0</ele><time>2026-04-06T09:42:39Z</time></trkpt><trkpt lat="46.216051813697774" lon="12.501994326734183"><ele>463.0</ele><time>2026-04-06T09:42:40Z</time></trkpt><trkpt lat="46.21612727250378" lon="12.501808335249454"><ele>463.0</ele><time>2026-04-06T09:42:41Z</time></trkpt><trkpt lat="46.21620926135" lon="12.501623579266065"><ele>461.5</ele><time>2026-04-06T09:42:42Z</time></trkpt><trkpt lat="46.21629628345411" lon="12.501448125315248"><ele>460.0</ele><time>2026-04-06T09:42:43Z</time></trkpt><trkpt lat="46.21638542328165" lon="12.501279680984492"><ele>458.5</ele><time>2026-04-06T09:42:44Z</time></trkpt><trkpt lat="46.216478400566004" lon="12.50111642366427"><ele>457.0</ele><time>2026-04-06T09:42:45Z</time></trkpt><trkpt lat="46.216576104303265" lon="12.500958215732874"><ele>457.0</ele><time>2026-04-06T09:42:46Z</time></trkpt><trkpt lat="46.2166727275313" lon="12.500798701541903"><ele>457.0</ele><time>2026-04-06T09:42:47Z</time></trkpt><trkpt lat="46.216768784264275" lon="12.50063837203895"><ele>457.0</ele><time>2026-04-06T09:42:48Z</time></trkpt><trkpt lat="46.216863934796876" lon="12.500473659094457"><ele>457.0</ele><time>2026-04-06T09:42:49Z</time></trkpt><trkpt lat="46.21695781703579" lon="12.500304391541775"><ele>462.75</ele><time>2026-04-06T09:42:50Z</time></trkpt><trkpt lat="46.21704789276641" lon="12.500140688114584"><ele>468.5</ele><time>2026-04-06T09:42:51Z</time></trkpt><trkpt lat="46.21713358528654" lon="12.499975160328521"><ele>474.25</ele><time>2026-04-06T09:42:52Z</time></trkpt><trkpt lat="46.21721540726006" lon="12.499809994083627"><ele>480.0</ele><time>2026-04-06T09:42:53Z</time></trkpt><trkpt lat="46.21729307048856" lon="12.499641862394908"><ele>474.25</ele><time>2026-04-06T09:42:54Z</time></trkpt><trkpt lat="46.21736774895831" lon="12.499473436888437"><ele>468.5</ele><time>2026-04-06T09:42:55Z</time></trkpt><trkpt lat="46.21744168560336" lon="12.499300504508241"><ele>462.75</ele><time>2026-04-06T09:42:56Z</time></trkpt><trkpt lat="46.217513974605204" lon="12.499115999521416"><ele>457.0</ele><time>2026-04-06T09:42:57Z</time></trkpt><trkpt lat="46.217589044559695" lon="12.498917987668161"><ele>461.33333333333337</ele><time>2026-04-06T09:42:58Z</time></trkpt><trkpt lat="46.21766353672153" lon="12.498709722133999"><ele>465.66666666666663</ele><time>2026-04-06T09:42:59Z</time></trkpt><trkpt lat="46.21773102356258" lon="12.498490980240364"><ele>470.0</ele><time>2026-04-06T09:43:00Z</time></trkpt><trkpt lat="46.21778695965275" lon="12.498263446284183"><ele>470.0</ele><time>2026-04-06T09:43:01Z</time></trkpt><trkpt lat="46.21783186750798" lon="12.498035473153019"><ele>470.0</ele><time>2026-04-06T09:43:02Z</time></trkpt><trkpt lat="46.21787256981586" lon="12.497804990401937"><ele>470.0</ele><time>2026-04-06T09:43:03Z</time></trkpt><trkpt lat="46.21791895817797" lon="12.497580313295451"><ele>474.3333333333333</ele><time>2026-04-06T09:43:04Z</time></trkpt><trkpt lat="46.2179770774549" lon="12.497357616035615"><ele>478.66666666666663</ele><time>2026-04-06T09:43:05Z</time></trkpt><trkpt lat="46.21805171148776" lon="12.497142516093025"><ele>483.0</ele><time>2026-04-06T09:43:06Z</time></trkpt><trkpt lat="46.21813791763638" lon="12.49693457751072"><ele>472.33333333333337</ele><time>2026-04-06T09:43:07Z</time></trkpt><trkpt lat="46.21823748365796" lon="12.496731354246498"><ele>461.6666666666667</ele><time>2026-04-06T09:43:08Z</time></trkpt><trkpt lat="46.218350356812785" lon="12.496544609053684"><ele>451.0</ele><time>2026-04-06T09:43:09Z</time></trkpt><trkpt lat="46.218482960011876" lon="12.496371370412355"><ele>457.33333333333337</ele><time>2026-04-06T09:43:10Z</time></trkpt><trkpt lat="46.21862004549668" lon="12.496179001530543"><ele>463.66666666666663</ele><time>2026-04-06T09:43:11Z</time></trkpt><trkpt lat="46.21875203185554" lon="12.495968552156635"><ele>470.0</ele><time>2026-04-06T09:43:12Z</time></trkpt><trkpt lat="46.21888354409751" lon="12.495756335749084"><ele>466.66666666666663</ele><time>2026-04-06T09:43:13Z</time></trkpt><trkpt lat="46.21901128862017" lon="12.495545022887104"><ele>463.33333333333337</ele><time>2026-04-06T09:43:14Z</time></trkpt><trkpt lat="46.21913070434365" lon="12.495329960730597"><ele>460.0</ele><time>2026-04-06T09:43:15Z</time></trkpt><trkpt lat="46.219246080583304" lon="12.49512168028963"><ele>460.0</ele><time>2026-04-06T09:43:16Z</time></trkpt><trkpt lat="46.219354359848396" lon="12.494932988816565"><ele>460.0</ele><time>2026-04-06T09:43:17Z</time></trkpt><trkpt lat="46.219467555976216" lon="12.494755612119063"><ele>460.0</ele><time>2026-04-06T09:43:18Z</time></trkpt><trkpt lat="46.21959924136981" lon="12.494601399063772"><ele>458.33333333333337</ele><time>2026-04-06T09:43:19Z</time></trkpt><trkpt lat="46.21974568617642" lon="12.494468848386665"><ele>456.66666666666663</ele><time>2026-04-06T09:43:20Z</time></trkpt><trkpt lat="46.219881350394154" lon="12.494349198005171"><ele>455.0</ele><time>2026-04-06T09:43:21Z</time></trkpt><trkpt lat="46.21999850450188" lon="12.494219599602467"><ele>455.0</ele><time>2026-04-06T09:43:22Z</time></trkpt><trkpt lat="46.22011179704653" lon="12.494075793836236"><ele>455.0</ele><time>2026-04-06T09:43:23Z</time></trkpt><trkpt lat="46.22022225050226" lon="12.493927164476307"><ele>455.0</ele><time>2026-04-06T09:43:24Z</time></trkpt><trkpt lat="46.22033396001744" lon="12.493780751481566"><ele>455.5</ele><time>2026-04-06T09:43:25Z</time></trkpt><trkpt lat="46.22044699500455" lon="12.493639830313535"><ele>456.0</ele><time>2026-04-06T09:43:26Z</time></trkpt><trkpt lat="46.22055319345866" lon="12.493511590279958"><ele>456.5</ele><time>2026-04-06T09:43:27Z</time></trkpt><trkpt lat="46.22065605464039" lon="12.493385795885496"><ele>457.0</ele><time>2026-04-06T09:43:28Z</time></trkpt><trkpt lat="46.22076227088669" lon="12.493268067729348"><ele>457.0</ele><time>2026-04-06T09:43:29Z</time></trkpt><trkpt lat="46.22088191661576" lon="12.49316139596306"><ele>457.0</ele><time>2026-04-06T09:43:30Z</time></trkpt><trkpt lat="46.22101351522165" lon="12.493064304036256"><ele>457.0</ele><time>2026-04-06T09:43:31Z</time></trkpt><trkpt lat="46.22115287769104" lon="12.492983168509452"><ele>457.0</ele><time>2026-04-06T09:43:32Z</time></trkpt><trkpt lat="46.221295041316296" lon="12.492910707640124"><ele>461.0</ele><time>2026-04-06T09:43:33Z</time></trkpt><trkpt lat="46.22144261978767" lon="12.492830713430111"><ele>465.0</ele><time>2026-04-06T09:43:34Z</time></trkpt><trkpt lat="46.22159126591964" lon="12.492736411088723"><ele>469.0</ele><time>2026-04-06T09:43:35Z</time></trkpt><trkpt lat="46.22173458374819" lon="12.492635857322087"><ele>469.0</ele><time>2026-04-06T09:43:36Z</time></trkpt><trkpt lat="46.221879593321034" lon="12.492526191374559"><ele>469.0</ele><time>2026-04-06T09:43:37Z</time></trkpt><trkpt lat="46.22202507897829" lon="12.492413784707725"><ele>469.0</ele><time>2026-04-06T09:43:38Z</time></trkpt><trkpt lat="46.2221698944883" lon="12.492303007637988"><ele>469.0</ele><time>2026-04-06T09:43:39Z</time></trkpt><trkpt lat="46.22231329865445" lon="12.492191014823485"><ele>469.0</ele><time>2026-04-06T09:43:40Z</time></trkpt><trkpt lat="46.22245364684344" lon="12.49208369719399"><ele>469.0</ele><time>2026-04-06T09:43:41Z</time></trkpt><trkpt lat="46.22259519913193" lon="12.491974162742011"><ele>473.6666666666667</ele><time>2026-04-06T09:43:42Z</time></trkpt><trkpt lat="46.22274066560906" lon="12.491859928072719"><ele>478.33333333333337</ele><time>2026-04-06T09:43:43Z</time></trkpt><trkpt lat="46.222891519378074" lon="12.491738531228608"><ele>483.0</ele><time>2026-04-06T09:43:44Z</time></trkpt><trkpt lat="46.22303979562589" lon="12.491625460134824"><ele>475.66666666666663</ele><time>2026-04-06T09:43:45Z</time></trkpt><trkpt lat="46.22318635702474" lon="12.49151220679604"><ele>468.3333333333333</ele><time>2026-04-06T09:43:45.999Z</time></trkpt><trkpt lat="46.22333652051119" lon="12.491393832201606"><ele>461.0</ele><time>2026-04-06T09:43:46.999Z</time></trkpt><trkpt lat="46.22348995243835" lon="12.491272665663107"><ele>473.0</ele><time>2026-04-06T09:43:47.999Z</time></trkpt><trkpt lat="46.22364361269121" lon="12.491146808959732"><ele>485.0</ele><time>2026-04-06T09:43:48.999Z</time></trkpt><trkpt lat="46.22379580781937" lon="12.4910039323119"><ele>497.0</ele><time>2026-04-06T09:43:49.999Z</time></trkpt><trkpt lat="46.223943618464084" lon="12.490850462026561"><ele>492.3333333333333</ele><time>2026-04-06T09:43:50.999Z</time></trkpt><trkpt lat="46.22408752171662" lon="12.490670417153009"><ele>487.66666666666663</ele><time>2026-04-06T09:43:51.999Z</time></trkpt><trkpt lat="46.22422709577048" lon="12.490492422902708"><ele>483.0</ele><time>2026-04-06T09:43:52.999Z</time></trkpt><trkpt lat="46.22435414832684" lon="12.490336640016137"><ele>483.0</ele><time>2026-04-06T09:43:53.999Z</time></trkpt><trkpt lat="46.22447014380042" lon="12.490173845166852"><ele>483.0</ele><time>2026-04-06T09:43:54.999Z</time></trkpt><trkpt lat="46.22459699613529" lon="12.490030722773025"><ele>483.0</ele><time>2026-04-06T09:43:55.999Z</time></trkpt><trkpt lat="46.22471709064063" lon="12.489865098232388"><ele>482.0</ele><time>2026-04-06T09:43:56.999Z</time></trkpt><trkpt lat="46.22483721472653" lon="12.489715025527993"><ele>481.0</ele><time>2026-04-06T09:43:57.999Z</time></trkpt><trkpt lat="46.22495357220881" lon="12.489554955509398"><ele>480.0</ele><time>2026-04-06T09:43:59Z</time></trkpt><trkpt lat="46.22507153953253" lon="12.489416109645207"><ele>480.0</ele><time>2026-04-06T09:44:00Z</time></trkpt><trkpt lat="46.22518607549881" lon="12.489268833276558"><ele>480.0</ele><time>2026-04-06T09:44:01.039Z</time></trkpt><trkpt lat="46.22528303134323" lon="12.489086517725198"><ele>480.0</ele><time>2026-04-06T09:44:02.032Z</time></trkpt><trkpt lat="46.225397689369046" lon="12.488960731965049"><ele>480.0</ele><time>2026-04-06T09:44:03.033Z</time></trkpt><trkpt lat="46.22550109552635" lon="12.488807991415124"><ele>480.0</ele><time>2026-04-06T09:44:04.034Z</time></trkpt><trkpt lat="46.22625479873039" lon="12.487949009592768"><ele>476.66666666666663</ele><time>2026-04-06T09:44:09Z</time></trkpt><trkpt lat="46.226326375836216" lon="12.487697038333717"><ele>473.3333333333333</ele><time>2026-04-06T09:44:10Z</time></trkpt><trkpt lat="46.22641962838556" lon="12.48754441478026"><ele>470.0</ele><time>2026-04-06T09:44:11Z</time></trkpt><trkpt lat="46.22654188958321" lon="12.48739249406456"><ele>470.0</ele><time>2026-04-06T09:44:12Z</time></trkpt><trkpt lat="46.22665620590065" lon="12.48725965597679"><ele>470.0</ele><time>2026-04-06T09:44:13Z</time></trkpt><trkpt lat="46.22678441129493" lon="12.48714664445828"><ele>470.0</ele><time>2026-04-06T09:44:14Z</time></trkpt><trkpt lat="46.226905269742566" lon="12.48703464549834"><ele>470.0</ele><time>2026-04-06T09:44:15Z</time></trkpt><trkpt lat="46.2270313594238" lon="12.486926903824388"><ele>471.25</ele><time>2026-04-06T09:44:16Z</time></trkpt><trkpt lat="46.22714726410304" lon="12.486818906956387"><ele>472.5</ele><time>2026-04-06T09:44:17Z</time></trkpt><trkpt lat="46.22725557543125" lon="12.486728196213582"><ele>473.75</ele><time>2026-04-06T09:44:18Z</time></trkpt><trkpt lat="46.22736351528836" lon="12.486645284990932"><ele>475.0</ele><time>2026-04-06T09:44:19Z</time></trkpt><trkpt lat="46.22748025916647" lon="12.486577966224932"><ele>475.0</ele><time>2026-04-06T09:44:20Z</time></trkpt><trkpt lat="46.227614126293204" lon="12.486563827501135"><ele>475.0</ele><time>2026-04-06T09:44:21Z</time></trkpt><trkpt lat="46.227758425817555" lon="12.486582973338008"><ele>475.0</ele><time>2026-04-06T09:44:22Z</time></trkpt><trkpt lat="46.227896143332266" lon="12.486593354202562"><ele>475.0</ele><time>2026-04-06T09:44:23Z</time></trkpt><trkpt lat="46.228025841885014" lon="12.486584834236835"><ele>472.5</ele><time>2026-04-06T09:44:24Z</time></trkpt><trkpt lat="46.22815457954745" lon="12.486554673598713"><ele>470.0</ele><time>2026-04-06T09:44:25Z</time></trkpt><trkpt lat="46.22828535120499" lon="12.48651992755159"><ele>467.5</ele><time>2026-04-06T09:44:26Z</time></trkpt><trkpt lat="46.228417422676166" lon="12.486482871420565"><ele>465.0</ele><time>2026-04-06T09:44:27Z</time></trkpt><trkpt lat="46.228545725009525" lon="12.486443983830942"><ele>465.0</ele><time>2026-04-06T09:44:28Z</time></trkpt><trkpt lat="46.22867253082641" lon="12.48640294632031"><ele>465.0</ele><time>2026-04-06T09:44:29Z</time></trkpt><trkpt lat="46.228799720945254" lon="12.486356234942493"><ele>465.0</ele><time>2026-04-06T09:44:30Z</time></trkpt><trkpt lat="46.22892619597777" lon="12.486298741105573"><ele>465.0</ele><time>2026-04-06T09:44:31Z</time></trkpt><trkpt lat="46.22905181565867" lon="12.486231241766427"><ele>468.5</ele><time>2026-04-06T09:44:32Z</time></trkpt><trkpt lat="46.22917821089252" lon="12.4861594102026"><ele>472.0</ele><time>2026-04-06T09:44:33Z</time></trkpt><trkpt lat="46.22930758487807" lon="12.486088698167688"><ele>475.5</ele><time>2026-04-06T09:44:34Z</time></trkpt><trkpt lat="46.229435857949156" lon="12.486016976092246"><ele>479.0</ele><time>2026-04-06T09:44:35Z</time></trkpt><trkpt lat="46.22956234558083" lon="12.485933956985999"><ele>479.0</ele><time>2026-04-06T09:44:36Z</time></trkpt><trkpt lat="46.229687750476984" lon="12.48584145018991"><ele>479.0</ele><time>2026-04-06T09:44:37Z</time></trkpt><trkpt lat="46.229816501690394" lon="12.485745841250724"><ele>479.0</ele><time>2026-04-06T09:44:38Z</time></trkpt><trkpt lat="46.229958843688955" lon="12.485669172602762"><ele>479.0</ele><time>2026-04-06T09:44:39Z</time></trkpt><trkpt lat="46.230116621195336" lon="12.485636166739932"><ele>477.3333333333333</ele><time>2026-04-06T09:44:40Z</time></trkpt><trkpt lat="46.230277704268694" lon="12.485634574879363"><ele>475.66666666666663</ele><time>2026-04-06T09:44:41Z</time></trkpt><trkpt lat="46.230428325057346" lon="12.485641350254493"><ele>474.0</ele><time>2026-04-06T09:44:42Z</time></trkpt><trkpt lat="46.23057350130237" lon="12.485656871869942"><ele>474.5</ele><time>2026-04-06T09:44:43Z</time></trkpt><trkpt lat="46.23071667193857" lon="12.4856955680817"><ele>475.0</ele><time>2026-04-06T09:44:44Z</time></trkpt><trkpt lat="46.23085411926913" lon="12.485770698713688"><ele>475.5</ele><time>2026-04-06T09:44:45Z</time></trkpt><trkpt lat="46.230978578555884" lon="12.48587840519505"><ele>476.0</ele><time>2026-04-06T09:44:46Z</time></trkpt><trkpt lat="46.23109718399653" lon="12.485984265629645"><ele>476.0</ele><time>2026-04-06T09:44:47Z</time></trkpt><trkpt lat="46.231219904086146" lon="12.48608730810767"><ele>476.0</ele><time>2026-04-06T09:44:48Z</time></trkpt><trkpt lat="46.231341751551916" lon="12.48620298880644"><ele>476.0</ele><time>2026-04-06T09:44:49Z</time></trkpt><trkpt lat="46.23146124127161" lon="12.486334239826164"><ele>476.0</ele><time>2026-04-06T09:44:50Z</time></trkpt><trkpt lat="46.231576429913666" lon="12.486486980549838"><ele>474.66666666666663</ele><time>2026-04-06T09:44:51Z</time></trkpt><trkpt lat="46.2317136022616" lon="12.48661510379221"><ele>473.33333333333337</ele><time>2026-04-06T09:44:52Z</time></trkpt><trkpt lat="46.231861148626315" lon="12.48674094381404"><ele>472.0</ele><time>2026-04-06T09:44:53Z</time></trkpt><trkpt lat="46.231997553658715" lon="12.48685854172394"><ele>472.0</ele><time>2026-04-06T09:44:54Z</time></trkpt><trkpt lat="46.232133359423024" lon="12.486964223123005"><ele>472.0</ele><time>2026-04-06T09:44:55Z</time></trkpt><trkpt lat="46.23225953143703" lon="12.487075860389195"><ele>472.0</ele><time>2026-04-06T09:44:56Z</time></trkpt><trkpt lat="46.23237707422179" lon="12.487187272278069"><ele>472.0</ele><time>2026-04-06T09:44:57Z</time></trkpt><trkpt lat="46.232488979475" lon="12.487288836522312"><ele>473.0</ele><time>2026-04-06T09:44:58Z</time></trkpt><trkpt lat="46.232588928132635" lon="12.487389938889446"><ele>474.0</ele><time>2026-04-06T09:44:59Z</time></trkpt><trkpt lat="46.23269088767228" lon="12.487496681227833"><ele>475.0</ele><time>2026-04-06T09:45:00Z</time></trkpt><trkpt lat="46.23280298104563" lon="12.487604478537559"><ele>476.0</ele><time>2026-04-06T09:45:01Z</time></trkpt><trkpt lat="46.23292037037905" lon="12.487699001238793"><ele>476.0</ele><time>2026-04-06T09:45:02Z</time></trkpt><trkpt lat="46.23303847654825" lon="12.487785110023198"><ele>476.0</ele><time>2026-04-06T09:45:03Z</time></trkpt><trkpt lat="46.23315781527586" lon="12.487869803785047"><ele>476.0</ele><time>2026-04-06T09:45:04Z</time></trkpt><trkpt lat="46.23327866325112" lon="12.487957080283586"><ele>476.0</ele><time>2026-04-06T09:45:05Z</time></trkpt><trkpt lat="46.23339829156117" lon="12.488053002269133"><ele>475.25</ele><time>2026-04-06T09:45:06Z</time></trkpt><trkpt lat="46.23352116572982" lon="12.48815142812654"><ele>474.5</ele><time>2026-04-06T09:45:07Z</time></trkpt><trkpt lat="46.233643000844495" lon="12.488247765951197"><ele>473.75</ele><time>2026-04-06T09:45:08Z</time></trkpt><trkpt lat="46.233765058626915" lon="12.488342312410719"><ele>473.0</ele><time>2026-04-06T09:45:09Z</time></trkpt><trkpt lat="46.233889128339314" lon="12.488438713499818"><ele>474.75</ele><time>2026-04-06T09:45:10Z</time></trkpt><trkpt lat="46.23401720006868" lon="12.488529212145822"><ele>476.5</ele><time>2026-04-06T09:45:11Z</time></trkpt><trkpt lat="46.23414570333142" lon="12.488607398835871"><ele>478.25</ele><time>2026-04-06T09:45:12Z</time></trkpt><trkpt lat="46.23427509971427" lon="12.488658364484111"><ele>480.0</ele><time>2026-04-06T09:45:13Z</time></trkpt><trkpt lat="46.23441446961956" lon="12.488668741294202"><ele>480.0</ele><time>2026-04-06T09:45:14Z</time></trkpt><trkpt lat="46.234560165779556" lon="12.488640062701144"><ele>480.0</ele><time>2026-04-06T09:45:15Z</time></trkpt><trkpt lat="46.234716627164076" lon="12.488585348937184"><ele>480.0</ele><time>2026-04-06T09:45:16Z</time></trkpt><trkpt lat="46.23488042914726" lon="12.488524881432575"><ele>479.66666666666663</ele><time>2026-04-06T09:45:17Z</time></trkpt><trkpt lat="46.235043412377074" lon="12.488473760861813"><ele>479.3333333333333</ele><time>2026-04-06T09:45:18Z</time></trkpt><trkpt lat="46.235205440661545" lon="12.488446580370582"><ele>479.0</ele><time>2026-04-06T09:45:19Z</time></trkpt><trkpt lat="46.23536931927" lon="12.48844103055429"><ele>479.0</ele><time>2026-04-06T09:45:20Z</time></trkpt><trkpt lat="46.235527510507225" lon="12.488447502986626"><ele>479.0</ele><time>2026-04-06T09:45:21Z</time></trkpt><trkpt lat="46.235678781839205" lon="12.488467565066966"><ele>479.0</ele><time>2026-04-06T09:45:22Z</time></trkpt><trkpt lat="46.23582938271566" lon="12.488495867448018"><ele>481.0</ele><time>2026-04-06T09:45:23Z</time></trkpt><trkpt lat="46.235981855323246" lon="12.48852740057736"><ele>483.0</ele><time>2026-04-06T09:45:24Z</time></trkpt><trkpt lat="46.23613472430815" lon="12.488556169272034"><ele>485.0</ele><time>2026-04-06T09:45:25Z</time></trkpt><trkpt lat="46.23628480311353" lon="12.488589326812793"><ele>485.0</ele><time>2026-04-06T09:45:26Z</time></trkpt><trkpt lat="46.23643339246081" lon="12.488635554186143"><ele>485.0</ele><time>2026-04-06T09:45:27Z</time></trkpt><trkpt lat="46.236579895475586" lon="12.488689507462114"><ele>485.0</ele><time>2026-04-06T09:45:28Z</time></trkpt><trkpt lat="46.23672981944393" lon="12.488727040413407"><ele>488.3333333333333</ele><time>2026-04-06T09:45:29Z</time></trkpt><trkpt lat="46.236884469513285" lon="12.488736923513523"><ele>491.66666666666663</ele><time>2026-04-06T09:45:30Z</time></trkpt><trkpt lat="46.23704048295968" lon="12.488720167243"><ele>495.0</ele><time>2026-04-06T09:45:31Z</time></trkpt><trkpt lat="46.23719799119412" lon="12.488674031026076"><ele>493.66666666666663</ele><time>2026-04-06T09:45:32Z</time></trkpt><trkpt lat="46.23735348006227" lon="12.488619130943555"><ele>492.3333333333333</ele><time>2026-04-06T09:45:33Z</time></trkpt><trkpt lat="46.23750513006707" lon="12.488550699088947"><ele>491.0</ele><time>2026-04-06T09:45:34Z</time></trkpt><trkpt lat="46.23764821139455" lon="12.48844918627223"><ele>491.0</ele><time>2026-04-06T09:45:35Z</time></trkpt><trkpt lat="46.237785529308944" lon="12.488333059584232"><ele>491.0</ele><time>2026-04-06T09:45:36Z</time></trkpt><trkpt lat="46.237919605811705" lon="12.488228470309346"><ele>491.0</ele><time>2026-04-06T09:45:37Z</time></trkpt><trkpt lat="46.2380474043617" lon="12.488152660931734"><ele>489.5</ele><time>2026-04-06T09:45:38Z</time></trkpt><trkpt lat="46.238186891694525" lon="12.488115759909567"><ele>488.0</ele><time>2026-04-06T09:45:39Z</time></trkpt><trkpt lat="46.23833084527153" lon="12.48808539473291"><ele>486.5</ele><time>2026-04-06T09:45:40Z</time></trkpt><trkpt lat="46.238464148206084" lon="12.488028636323179"><ele>485.0</ele><time>2026-04-06T09:45:41Z</time></trkpt><trkpt lat="46.23859132864355" lon="12.487949188202704"><ele>484.0</ele><time>2026-04-06T09:45:42Z</time></trkpt><trkpt lat="46.23870502468717" lon="12.48783656330209"><ele>483.0</ele><time>2026-04-06T09:45:43Z</time></trkpt><trkpt lat="46.23880121369747" lon="12.487706581281973"><ele>482.0</ele><time>2026-04-06T09:45:44Z</time></trkpt><trkpt lat="46.23888582997069" lon="12.487580908982064"><ele>481.0</ele><time>2026-04-06T09:45:45Z</time></trkpt><trkpt lat="46.23897056913737" lon="12.487456227010265"><ele>481.0</ele><time>2026-04-06T09:45:46Z</time></trkpt><trkpt lat="46.23906085873257" lon="12.487323802818628"><ele>481.0</ele><time>2026-04-06T09:45:47Z</time></trkpt><trkpt lat="46.239155121933756" lon="12.487195573377452"><ele>481.0</ele><time>2026-04-06T09:45:48Z</time></trkpt><trkpt lat="46.23924954978453" lon="12.487061556898734"><ele>481.0</ele><time>2026-04-06T09:45:49Z</time></trkpt><trkpt lat="46.239342627897585" lon="12.486924156718477"><ele>482.25</ele><time>2026-04-06T09:45:49.999Z</time></trkpt><trkpt lat="46.23943921234535" lon="12.486782887593916"><ele>483.5</ele><time>2026-04-06T09:45:50.999Z</time></trkpt><trkpt lat="46.23954469821168" lon="12.486656016709011"><ele>484.75</ele><time>2026-04-06T09:45:51.999Z</time></trkpt><trkpt lat="46.23966797461687" lon="12.48656135652442"><ele>486.0</ele><time>2026-04-06T09:45:52.999Z</time></trkpt><trkpt lat="46.239807946436365" lon="12.486500730220227"><ele>486.0</ele><time>2026-04-06T09:45:53.999Z</time></trkpt><trkpt lat="46.239963140317016" lon="12.486464186733793"><ele>486.0</ele><time>2026-04-06T09:45:54.999Z</time></trkpt><trkpt lat="46.24011096381486" lon="12.486430803645606"><ele>486.0</ele><time>2026-04-06T09:45:55.999Z</time></trkpt><trkpt lat="46.24025314361941" lon="12.48640248938712"><ele>486.0</ele><time>2026-04-06T09:45:56.999Z</time></trkpt><trkpt lat="46.240387921941405" lon="12.486377997644102"><ele>486.0</ele><time>2026-04-06T09:45:57.999Z</time></trkpt><trkpt lat="46.24052176615319" lon="12.486348741748438"><ele>486.0</ele><time>2026-04-06T09:45:58.999Z</time></trkpt><trkpt lat="46.240654474741916" lon="12.486320236339303"><ele>486.0</ele><time>2026-04-06T09:45:59.999Z</time></trkpt><trkpt lat="46.24078341720301" lon="12.486298900738625"><ele>485.25</ele><time>2026-04-06T09:46:00.999Z</time></trkpt><trkpt lat="46.240910797026906" lon="12.48628405944869"><ele>484.5</ele><time>2026-04-06T09:46:01.999Z</time></trkpt><trkpt lat="46.241038335682745" lon="12.486267372644773"><ele>483.75</ele><time>2026-04-06T09:46:02.999Z</time></trkpt><trkpt lat="46.24116957583606" lon="12.486244888644238"><ele>483.0</ele><time>2026-04-06T09:46:03.999Z</time></trkpt><trkpt lat="46.24130102161091" lon="12.486219734966506"><ele>488.25</ele><time>2026-04-06T09:46:05Z</time></trkpt><trkpt lat="46.24143042535344" lon="12.486192086287076"><ele>493.5</ele><time>2026-04-06T09:46:06Z</time></trkpt><trkpt lat="46.24155976267392" lon="12.486146443784566"><ele>498.75</ele><time>2026-04-06T09:46:07Z</time></trkpt><trkpt lat="46.241691099496805" lon="12.48608432189207"><ele>504.0</ele><time>2026-04-06T09:46:08Z</time></trkpt><trkpt lat="46.24182078831378" lon="12.486018503352023"><ele>504.0</ele><time>2026-04-06T09:46:09Z</time></trkpt><trkpt lat="46.241948945925195" lon="12.485943206995351"><ele>504.0</ele><time>2026-04-06T09:46:10Z</time></trkpt><trkpt lat="46.24207976394806" lon="12.48586970302837"><ele>504.0</ele><time>2026-04-06T09:46:11Z</time></trkpt><trkpt lat="46.24220884841084" lon="12.485799634567018"><ele>504.0</ele><time>2026-04-06T09:46:12Z</time></trkpt><trkpt lat="46.24233537188334" lon="12.48572554576239"><ele>500.75</ele><time>2026-04-06T09:46:13Z</time></trkpt><trkpt lat="46.24246010799946" lon="12.485653079466896"><ele>497.5</ele><time>2026-04-06T09:46:14Z</time></trkpt><trkpt lat="46.24258430039923" lon="12.485586865386937"><ele>494.25</ele><time>2026-04-06T09:46:15Z</time></trkpt><trkpt lat="46.24270126271292" lon="12.485512189970253"><ele>491.0</ele><time>2026-04-06T09:46:16Z</time></trkpt><trkpt lat="46.242815220904646" lon="12.485433517454936"><ele>493.75</ele><time>2026-04-06T09:46:17Z</time></trkpt><trkpt lat="46.24292177534709" lon="12.485337833735292"><ele>496.5</ele><time>2026-04-06T09:46:18Z</time></trkpt><trkpt lat="46.24301568553716" lon="12.485210794058732"><ele>499.25</ele><time>2026-04-06T09:46:19Z</time></trkpt><trkpt lat="46.243105282301634" lon="12.485074051189038"><ele>502.0</ele><time>2026-04-06T09:46:20Z</time></trkpt><trkpt lat="46.243202173222905" lon="12.484937418442025"><ele>502.0</ele><time>2026-04-06T09:46:21Z</time></trkpt><trkpt lat="46.24329435258548" lon="12.48478671456821"><ele>502.0</ele><time>2026-04-06T09:46:22Z</time></trkpt><trkpt lat="46.243375604968755" lon="12.484618912560773"><ele>502.0</ele><time>2026-04-06T09:46:23Z</time></trkpt><trkpt lat="46.243447907344354" lon="12.484433092002522"><ele>502.0</ele><time>2026-04-06T09:46:24Z</time></trkpt><trkpt lat="46.24351494158437" lon="12.484243792957468"><ele>509.5</ele><time>2026-04-06T09:46:25Z</time></trkpt><trkpt lat="46.24358980224481" lon="12.484064540632284"><ele>517.0</ele><time>2026-04-06T09:46:26Z</time></trkpt><trkpt lat="46.24366211310885" lon="12.483888922513305"><ele>524.5</ele><time>2026-04-06T09:46:27Z</time></trkpt><trkpt lat="46.243716122487456" lon="12.483723204046434"><ele>532.0</ele><time>2026-04-06T09:46:28Z</time></trkpt><trkpt lat="46.243751875588515" lon="12.483549271856454"><ele>538.5</ele><time>2026-04-06T09:46:29Z</time></trkpt><trkpt lat="46.243774940227176" lon="12.483361219685616"><ele>545.0</ele><time>2026-04-06T09:46:30Z</time></trkpt><trkpt lat="46.24378330883673" lon="12.483161763251609"><ele>551.5</ele><time>2026-04-06T09:46:31Z</time></trkpt><trkpt lat="46.243790020397284" lon="12.482961657952195"><ele>558.0</ele><time>2026-04-06T09:46:32Z</time></trkpt><trkpt lat="46.24379635675615" lon="12.482770713225383"><ele>559.0</ele><time>2026-04-06T09:46:33Z</time></trkpt><trkpt lat="46.24380583919915" lon="12.48257181599412"><ele>560.0</ele><time>2026-04-06T09:46:34Z</time></trkpt><trkpt lat="46.243817047360324" lon="12.482371998140936"><ele>561.0</ele><time>2026-04-06T09:46:35Z</time></trkpt><trkpt lat="46.2438287061309" lon="12.482172239081644"><ele>562.0</ele><time>2026-04-06T09:46:36Z</time></trkpt><trkpt lat="46.243843950629" lon="12.481965026480598"><ele>556.3333333333334</ele><time>2026-04-06T09:46:37Z</time></trkpt><trkpt lat="46.24385972336284" lon="12.481749127289172"><ele>550.6666666666666</ele><time>2026-04-06T09:46:38Z</time></trkpt><trkpt lat="46.24387396718894" lon="12.481522465614642"><ele>545.0</ele><time>2026-04-06T09:46:39Z</time></trkpt><trkpt lat="46.24389231108412" lon="12.48128184538066"><ele>547.6666666666666</ele><time>2026-04-06T09:46:40Z</time></trkpt><trkpt lat="46.2439172119979" lon="12.48102962930032"><ele>550.3333333333334</ele><time>2026-04-06T09:46:41Z</time></trkpt><trkpt lat="46.24394288050635" lon="12.480778946702296"><ele>553.0</ele><time>2026-04-06T09:46:42Z</time></trkpt><trkpt lat="46.24396974876528" lon="12.480536264476138"><ele>538.6666666666667</ele><time>2026-04-06T09:46:43Z</time></trkpt><trkpt lat="46.24399975994355" lon="12.480296350844437"><ele>524.3333333333334</ele><time>2026-04-06T09:46:44Z</time></trkpt><trkpt lat="46.2440377762802" lon="12.480062954279468"><ele>510.0</ele><time>2026-04-06T09:46:45Z</time></trkpt><trkpt lat="46.244075169566415" lon="12.479829698213557"><ele>512.6666666666666</ele><time>2026-04-06T09:46:46Z</time></trkpt><trkpt lat="46.244115018215254" lon="12.479592681566793"><ele>515.3333333333333</ele><time>2026-04-06T09:46:47Z</time></trkpt><trkpt lat="46.24415746177872" lon="12.479355367411179"><ele>518.0</ele><time>2026-04-06T09:46:48Z</time></trkpt><trkpt lat="46.24419838312298" lon="12.479125519950607"><ele>518.0</ele><time>2026-04-06T09:46:49Z</time></trkpt><trkpt lat="46.24423670624234" lon="12.47890194293904"><ele>518.0</ele><time>2026-04-06T09:46:50Z</time></trkpt><trkpt lat="46.24427329228493" lon="12.478684183425727"><ele>518.0</ele><time>2026-04-06T09:46:51Z</time></trkpt><trkpt lat="46.244309898265364" lon="12.478469459623922"><ele>519.0</ele><time>2026-04-06T09:46:52Z</time></trkpt><trkpt lat="46.244346088058975" lon="12.478257892883384"><ele>520.0</ele><time>2026-04-06T09:46:53Z</time></trkpt><trkpt lat="46.244377464459454" lon="12.478063250312687"><ele>521.0</ele><time>2026-04-06T09:46:54Z</time></trkpt><trkpt lat="46.244408405479106" lon="12.477883127861041"><ele>522.0</ele><time>2026-04-06T09:46:55Z</time></trkpt><trkpt lat="46.24444237346212" lon="12.477721777163367"><ele>522.0</ele><time>2026-04-06T09:46:56Z</time></trkpt><trkpt lat="46.244481992979416" lon="12.477542417797988"><ele>522.0</ele><time>2026-04-06T09:46:57Z</time></trkpt><trkpt lat="46.24452303805504" lon="12.477365397622107"><ele>522.0</ele><time>2026-04-06T09:46:58Z</time></trkpt><trkpt lat="46.244567474462954" lon="12.477193768565726"><ele>522.0</ele><time>2026-04-06T09:46:59Z</time></trkpt><trkpt lat="46.24461170107578" lon="12.477025156079582"><ele>521.25</ele><time>2026-04-06T09:47:00Z</time></trkpt><trkpt lat="46.24466335929649" lon="12.476859288732081"><ele>520.5</ele><time>2026-04-06T09:47:01Z</time></trkpt><trkpt lat="46.24471509394872" lon="12.476687012730284"><ele>519.75</ele><time>2026-04-06T09:47:02Z</time></trkpt><trkpt lat="46.24476643345908" lon="12.476512373601487"><ele>519.0</ele><time>2026-04-06T09:47:03Z</time></trkpt><trkpt lat="46.244819206147994" lon="12.476334007089816"><ele>516.25</ele><time>2026-04-06T09:47:04Z</time></trkpt><trkpt lat="46.244871304929006" lon="12.476149733857318"><ele>513.5</ele><time>2026-04-06T09:47:05Z</time></trkpt><trkpt lat="46.24492371252438" lon="12.475967398733674"><ele>510.75</ele><time>2026-04-06T09:47:06Z</time></trkpt><trkpt lat="46.24498232102472" lon="12.47578703550245"><ele>508.0</ele><time>2026-04-06T09:47:07Z</time></trkpt><trkpt lat="46.24504065727954" lon="12.475601239928515"><ele>509.5</ele><time>2026-04-06T09:47:08Z</time></trkpt><trkpt lat="46.24509904872951" lon="12.475412303808042"><ele>511.0</ele><time>2026-04-06T09:47:09Z</time></trkpt><trkpt lat="46.24516111052867" lon="12.475228546273277"><ele>512.5</ele><time>2026-04-06T09:47:10Z</time></trkpt><trkpt lat="46.24522517503804" lon="12.475042355395566"><ele>514.0</ele><time>2026-04-06T09:47:11Z</time></trkpt><trkpt lat="46.245295399104215" lon="12.474857579734252"><ele>514.0</ele><time>2026-04-06T09:47:12Z</time></trkpt><trkpt lat="46.245371517948364" lon="12.474680437112074"><ele>514.0</ele><time>2026-04-06T09:47:13Z</time></trkpt><trkpt lat="46.245455284997725" lon="12.474500005850665"><ele>514.0</ele><time>2026-04-06T09:47:14Z</time></trkpt><trkpt lat="46.24554242968538" lon="12.474315398428827"><ele>514.0</ele><time>2026-04-06T09:47:15Z</time></trkpt><trkpt lat="46.24562943284853" lon="12.474132182863363"><ele>513.25</ele><time>2026-04-06T09:47:16Z</time></trkpt><trkpt lat="46.245715000002726" lon="12.473953676288101"><ele>512.5</ele><time>2026-04-06T09:47:17Z</time></trkpt><trkpt lat="46.24580122874937" lon="12.473777513072697"><ele>511.75</ele><time>2026-04-06T09:47:18Z</time></trkpt><trkpt lat="46.24588424229554" lon="12.473607231066236"><ele>511.0</ele><time>2026-04-06T09:47:19Z</time></trkpt><trkpt lat="46.24596567139437" lon="12.47343803746988"><ele>511.0</ele><time>2026-04-06T09:47:20Z</time></trkpt><trkpt lat="46.246046965483366" lon="12.473267437198688"><ele>511.0</ele><time>2026-04-06T09:47:21Z</time></trkpt><trkpt lat="46.2461309819622" lon="12.473103231536799"><ele>511.0</ele><time>2026-04-06T09:47:22Z</time></trkpt><trkpt lat="46.246208863379714" lon="12.472937670088173"><ele>511.0</ele><time>2026-04-06T09:47:23Z</time></trkpt><trkpt lat="46.24628891833752" lon="12.472776259359"><ele>509.25</ele><time>2026-04-06T09:47:24Z</time></trkpt><trkpt lat="46.24636886324105" lon="12.472615838146842"><ele>507.5</ele><time>2026-04-06T09:47:25Z</time></trkpt><trkpt lat="46.246447517761794" lon="12.472455974797692"><ele>505.75</ele><time>2026-04-06T09:47:26Z</time></trkpt><trkpt lat="46.24652928454432" lon="12.472295029188183"><ele>504.0</ele><time>2026-04-06T09:47:27Z</time></trkpt><trkpt lat="46.246618261653346" lon="12.47213900505365"><ele>504.5</ele><time>2026-04-06T09:47:28Z</time></trkpt><trkpt lat="46.24671463263327" lon="12.471991838597521"><ele>505.0</ele><time>2026-04-06T09:47:29Z</time></trkpt><trkpt lat="46.24682085069903" lon="12.47184887920734"><ele>505.5</ele><time>2026-04-06T09:47:30Z</time></trkpt><trkpt lat="46.246945085828294" lon="12.471726802888082"><ele>506.0</ele><time>2026-04-06T09:47:31Z</time></trkpt><trkpt lat="46.24707710710132" lon="12.471636478009959"><ele>506.0</ele><time>2026-04-06T09:47:32Z</time></trkpt><trkpt lat="46.247227496926456" lon="12.471546385340648"><ele>506.0</ele><time>2026-04-06T09:47:33Z</time></trkpt><trkpt lat="46.247379038758694" lon="12.471468316582733"><ele>506.0</ele><time>2026-04-06T09:47:34Z</time></trkpt><trkpt lat="46.24753848392458" lon="12.471394899682856"><ele>505.3333333333333</ele><time>2026-04-06T09:47:35Z</time></trkpt><trkpt lat="46.247687895403175" lon="12.471328836788437"><ele>504.66666666666663</ele><time>2026-04-06T09:47:36Z</time></trkpt><trkpt lat="46.24783059596772" lon="12.471238625075337"><ele>504.0</ele><time>2026-04-06T09:47:37Z</time></trkpt><trkpt lat="46.247964779128125" lon="12.471119636383747"><ele>505.0</ele><time>2026-04-06T09:47:38Z</time></trkpt><trkpt lat="46.248084486286714" lon="12.470991840651271"><ele>506.0</ele><time>2026-04-06T09:47:39Z</time></trkpt><trkpt lat="46.248195227675254" lon="12.470874997872144"><ele>507.0</ele><time>2026-04-06T09:47:40Z</time></trkpt><trkpt lat="46.2483040494631" lon="12.470758285040814"><ele>508.0</ele><time>2026-04-06T09:47:41Z</time></trkpt><trkpt lat="46.24840616129564" lon="12.470637509794086"><ele>508.0</ele><time>2026-04-06T09:47:42Z</time></trkpt><trkpt lat="46.24850683365805" lon="12.470516002412143"><ele>508.0</ele><time>2026-04-06T09:47:43Z</time></trkpt><trkpt lat="46.24860785131011" lon="12.470382584161763"><ele>508.0</ele><time>2026-04-06T09:47:44Z</time></trkpt><trkpt lat="46.24870956473675" lon="12.47024336699647"><ele>508.0</ele><time>2026-04-06T09:47:45Z</time></trkpt><trkpt lat="46.24881195146107" lon="12.470101049528159"><ele>507.75</ele><time>2026-04-06T09:47:46Z</time></trkpt><trkpt lat="46.24891358914866" lon="12.469952362339251"><ele>507.5</ele><time>2026-04-06T09:47:47Z</time></trkpt><trkpt lat="46.24901286150894" lon="12.469791511566749"><ele>507.25</ele><time>2026-04-06T09:47:48Z</time></trkpt><trkpt lat="46.24910665031087" lon="12.469624561021048"><ele>507.0</ele><time>2026-04-06T09:47:49Z</time></trkpt><trkpt lat="46.249180613451045" lon="12.469436466220179"><ele>511.66666666666663</ele><time>2026-04-06T09:47:50Z</time></trkpt><trkpt lat="46.249227923372146" lon="12.469208813144421"><ele>516.3333333333333</ele><time>2026-04-06T09:47:51Z</time></trkpt><trkpt lat="46.249271960017225" lon="12.468961269067702"><ele>521.0</ele><time>2026-04-06T09:47:52Z</time></trkpt><trkpt lat="46.24932056195212" lon="12.468705570239347"><ele>525.3333333333333</ele><time>2026-04-06T09:47:53Z</time></trkpt><trkpt lat="46.249364528680786" lon="12.468454750246911"><ele>529.6666666666666</ele><time>2026-04-06T09:47:54Z</time></trkpt><trkpt lat="46.2493986794655" lon="12.468207408579998"><ele>534.0</ele><time>2026-04-06T09:47:55Z</time></trkpt><trkpt lat="46.24940955173014" lon="12.467945594776133"><ele>539.3333333333334</ele><time>2026-04-06T09:47:55.999Z</time></trkpt><trkpt lat="46.24940145545146" lon="12.46765908459753"><ele>544.6666666666667</ele><time>2026-04-06T09:47:56.999Z</time></trkpt><trkpt lat="46.2493971132551" lon="12.46737940899441"><ele>550.0</ele><time>2026-04-06T09:47:57.999Z</time></trkpt><trkpt lat="46.24939135829662" lon="12.467108930088532"><ele>550.6666666666667</ele><time>2026-04-06T09:47:58.999Z</time></trkpt><trkpt lat="46.24938644924199" lon="12.466843012609763"><ele>551.3333333333334</ele><time>2026-04-06T09:47:59.999Z</time></trkpt><trkpt lat="46.249395971069525" lon="12.466580174820201"><ele>552.0</ele><time>2026-04-06T09:48:00.999Z</time></trkpt><trkpt lat="46.24942159855003" lon="12.466326609994882"><ele>555.5</ele><time>2026-04-06T09:48:01.999Z</time></trkpt><trkpt lat="46.249436633398474" lon="12.466101107434582"><ele>559.0</ele><time>2026-04-06T09:48:02.999Z</time></trkpt><trkpt lat="46.24945623976148" lon="12.465897527897798"><ele>562.5</ele><time>2026-04-06T09:48:03.999Z</time></trkpt><trkpt lat="46.24945253499246" lon="12.46570053514215"><ele>566.0</ele><time>2026-04-06T09:48:04.999Z</time></trkpt><trkpt lat="46.24943487430029" lon="12.465506327633996"><ele>570.5</ele><time>2026-04-06T09:48:05.999Z</time></trkpt><trkpt lat="46.24941674527296" lon="12.465324157784515"><ele>575.0</ele><time>2026-04-06T09:48:06.999Z</time></trkpt><trkpt lat="46.24939248665892" lon="12.465147356163582"><ele>579.5</ele><time>2026-04-06T09:48:07.999Z</time></trkpt><trkpt lat="46.24941023006216" lon="12.464966872918216"><ele>584.0</ele><time>2026-04-06T09:48:08.999Z</time></trkpt><trkpt lat="46.2494847972434" lon="12.464804594877515"><ele>584.0</ele><time>2026-04-06T09:48:09.999Z</time></trkpt><trkpt lat="46.24954852295739" lon="12.464613459776254"><ele>584.0</ele><time>2026-04-06T09:48:11Z</time></trkpt><trkpt lat="46.24960900064255" lon="12.464448839767782"><ele>584.0</ele><time>2026-04-06T09:48:12Z</time></trkpt><trkpt lat="46.24966648857163" lon="12.46427675458083"><ele>584.0</ele><time>2026-04-06T09:48:13Z</time></trkpt><trkpt lat="46.24974667811979" lon="12.464113591379434"><ele>573.25</ele><time>2026-04-06T09:48:14Z</time></trkpt><trkpt lat="46.24981624323263" lon="12.46393264598432"><ele>562.5</ele><time>2026-04-06T09:48:15Z</time></trkpt><trkpt lat="46.24992973585441" lon="12.46381488202809"><ele>551.75</ele><time>2026-04-06T09:48:16Z</time></trkpt><trkpt lat="46.250024050763216" lon="12.46369308869353"><ele>541.0</ele><time>2026-04-06T09:48:17Z</time></trkpt><trkpt lat="46.250104138944515" lon="12.463579438358122"><ele>541.0</ele><time>2026-04-06T09:48:18Z</time></trkpt><trkpt lat="46.25017962614347" lon="12.463460743371462"><ele>541.0</ele><time>2026-04-06T09:48:19Z</time></trkpt><trkpt lat="46.25022271453926" lon="12.463319381895122"><ele>541.0</ele><time>2026-04-06T09:48:20Z</time></trkpt><trkpt lat="46.25024957025246" lon="12.463184244720123"><ele>541.0</ele><time>2026-04-06T09:48:21Z</time></trkpt><trkpt lat="46.25027503392227" lon="12.463059223811902"><ele>541.0</ele><time>2026-04-06T09:48:22Z</time></trkpt><trkpt lat="46.25030078953455" lon="12.46295675722086"><ele>541.6</ele><time>2026-04-06T09:48:23Z</time></trkpt><trkpt lat="46.25033758594566" lon="12.46285866385473"><ele>542.2</ele><time>2026-04-06T09:48:24Z</time></trkpt><trkpt lat="46.25039573094192" lon="12.462771600726839"><ele>542.8</ele><time>2026-04-06T09:48:25Z</time></trkpt><trkpt lat="46.25049225131419" lon="12.46273422347661"><ele>543.4</ele><time>2026-04-06T09:48:26Z</time></trkpt><trkpt lat="46.250586147727844" lon="12.462708142405273"><ele>544.0</ele><time>2026-04-06T09:48:27Z</time></trkpt><trkpt lat="46.25068336220806" lon="12.462682729840548"><ele>537.75</ele><time>2026-04-06T09:48:28Z</time></trkpt><trkpt lat="46.25079228146839" lon="12.46266931419976"><ele>531.5</ele><time>2026-04-06T09:48:29Z</time></trkpt><trkpt lat="46.250921308785024" lon="12.462694815721703"><ele>525.25</ele><time>2026-04-06T09:48:30Z</time></trkpt><trkpt lat="46.25105696459918" lon="12.462764998713247"><ele>519.0</ele><time>2026-04-06T09:48:31Z</time></trkpt><trkpt lat="46.251187031549925" lon="12.462867945936306"><ele>517.6666666666666</ele><time>2026-04-06T09:48:32Z</time></trkpt><trkpt lat="46.251317022271536" lon="12.462971123009815"><ele>516.3333333333333</ele><time>2026-04-06T09:48:33Z</time></trkpt><trkpt lat="46.25147354215159" lon="12.463034960640357"><ele>515.0</ele><time>2026-04-06T09:48:34Z</time></trkpt><trkpt lat="46.251641634785145" lon="12.463078352960236"><ele>515.0</ele><time>2026-04-06T09:48:35Z</time></trkpt><trkpt lat="46.25180154687622" lon="12.463113838927702"><ele>515.0</ele><time>2026-04-06T09:48:36Z</time></trkpt><trkpt lat="46.25195452651981" lon="12.463145920847266"><ele>515.0</ele><time>2026-04-06T09:48:37Z</time></trkpt><trkpt lat="46.25210332494682" lon="12.463182746895164"><ele>515.0</ele><time>2026-04-06T09:48:38Z</time></trkpt><trkpt lat="46.25225558041894" lon="12.463228584133102"><ele>515.0</ele><time>2026-04-06T09:48:39Z</time></trkpt><trkpt lat="46.25241072937756" lon="12.46328858267339"><ele>515.0</ele><time>2026-04-06T09:48:40Z</time></trkpt><trkpt lat="46.25257145426715" lon="12.46336471573711"><ele>518.6666666666666</ele><time>2026-04-06T09:48:41Z</time></trkpt><trkpt lat="46.25272306572459" lon="12.46345200827588"><ele>522.3333333333334</ele><time>2026-04-06T09:48:42Z</time></trkpt><trkpt lat="46.25286573532601" lon="12.463547490141721"><ele>526.0</ele><time>2026-04-06T09:48:43Z</time></trkpt><trkpt lat="46.25300759443843" lon="12.463640825370529"><ele>521.6666666666667</ele><time>2026-04-06T09:48:44Z</time></trkpt><trkpt lat="46.25315388458465" lon="12.463723240555161"><ele>517.3333333333334</ele><time>2026-04-06T09:48:45Z</time></trkpt><trkpt lat="46.25330850702238" lon="12.463798508661789"><ele>513.0</ele><time>2026-04-06T09:48:46Z</time></trkpt><trkpt lat="46.25345710244482" lon="12.46387212729044"><ele>513.0</ele><time>2026-04-06T09:48:47Z</time></trkpt><trkpt lat="46.253599984102216" lon="12.463937722729773"><ele>513.0</ele><time>2026-04-06T09:48:48Z</time></trkpt><trkpt lat="46.253736679122724" lon="12.463987702447993"><ele>513.0</ele><time>2026-04-06T09:48:49Z</time></trkpt><trkpt lat="46.25386862951415" lon="12.464025383596276"><ele>513.0</ele><time>2026-04-06T09:48:50Z</time></trkpt><trkpt lat="46.25400367565752" lon="12.464046520147713"><ele>515.0</ele><time>2026-04-06T09:48:51Z</time></trkpt><trkpt lat="46.25414244524541" lon="12.464031183369158"><ele>517.0</ele><time>2026-04-06T09:48:52Z</time></trkpt><trkpt lat="46.25428214211982" lon="12.463979480831972"><ele>519.0</ele><time>2026-04-06T09:48:53Z</time></trkpt><trkpt lat="46.25442539982996" lon="12.463906658977361"><ele>521.0</ele><time>2026-04-06T09:48:54Z</time></trkpt><trkpt lat="46.25456027422766" lon="12.463846951626511"><ele>521.0</ele><time>2026-04-06T09:48:55Z</time></trkpt><trkpt lat="46.25468925730499" lon="12.463815481282788"><ele>521.0</ele><time>2026-04-06T09:48:56Z</time></trkpt><trkpt lat="46.25481707011483" lon="12.463820549641769"><ele>521.0</ele><time>2026-04-06T09:48:57Z</time></trkpt><trkpt lat="46.254948950546996" lon="12.463851839409921"><ele>521.0</ele><time>2026-04-06T09:48:58Z</time></trkpt><trkpt lat="46.255077803559395" lon="12.463910807159952"><ele>521.5</ele><time>2026-04-06T09:48:59Z</time></trkpt><trkpt lat="46.25520187675166" lon="12.464007196968614"><ele>522.0</ele><time>2026-04-06T09:49:00Z</time></trkpt><trkpt lat="46.25531376066361" lon="12.464132428300827"><ele>522.5</ele><time>2026-04-06T09:49:01Z</time></trkpt><trkpt lat="46.25541499804768" lon="12.464274796182288"><ele>523.0</ele><time>2026-04-06T09:49:02Z</time></trkpt><trkpt lat="46.25550586049539" lon="12.4644281458661"><ele>523.0</ele><time>2026-04-06T09:49:03Z</time></trkpt><trkpt lat="46.255586695234356" lon="12.464587178897089"><ele>523.0</ele><time>2026-04-06T09:49:04Z</time></trkpt><trkpt lat="46.25565471061639" lon="12.464760309950565"><ele>523.0</ele><time>2026-04-06T09:49:05Z</time></trkpt><trkpt lat="46.25571025678257" lon="12.464955706179433"><ele>523.0</ele><time>2026-04-06T09:49:06Z</time></trkpt><trkpt lat="46.25575711957914" lon="12.465153262010448"><ele>523.25</ele><time>2026-04-06T09:49:07Z</time></trkpt><trkpt lat="46.255809032735655" lon="12.465337943952003"><ele>523.5</ele><time>2026-04-06T09:49:08Z</time></trkpt><trkpt lat="46.25587344934004" lon="12.465503419848478"><ele>523.75</ele><time>2026-04-06T09:49:09Z</time></trkpt><trkpt lat="46.255959208067445" lon="12.465638945945448"><ele>524.0</ele><time>2026-04-06T09:49:10Z</time></trkpt><trkpt lat="46.25606189390301" lon="12.465750916605048"><ele>524.75</ele><time>2026-04-06T09:49:11Z</time></trkpt><trkpt lat="46.25618291215008" lon="12.465839067128424"><ele>525.5</ele><time>2026-04-06T09:49:12Z</time></trkpt><trkpt lat="46.256303915808324" lon="12.465934177851441"><ele>526.25</ele><time>2026-04-06T09:49:13Z</time></trkpt><trkpt lat="46.25643190476706" lon="12.466041049970535"><ele>527.0</ele><time>2026-04-06T09:49:14Z</time></trkpt><trkpt lat="46.25657061750052" lon="12.466152383132394"><ele>527.0</ele><time>2026-04-06T09:49:15Z</time></trkpt><trkpt lat="46.25669315121762" lon="12.46625867705447"><ele>527.0</ele><time>2026-04-06T09:49:16Z</time></trkpt><trkpt lat="46.256801530260546" lon="12.466352827392331"><ele>527.0</ele><time>2026-04-06T09:49:17Z</time></trkpt><trkpt lat="46.25691156620214" lon="12.466432810974815"><ele>527.0</ele><time>2026-04-06T09:49:18Z</time></trkpt><trkpt lat="46.2570161405346" lon="12.466493915842317"><ele>526.8000000000001</ele><time>2026-04-06T09:49:19Z</time></trkpt><trkpt lat="46.25712296322271" lon="12.466530792833119"><ele>526.6</ele><time>2026-04-06T09:49:20Z</time></trkpt><trkpt lat="46.25722178955426" lon="12.466550934993402"><ele>526.4000000000001</ele><time>2026-04-06T09:49:21Z</time></trkpt><trkpt lat="46.25731472101565" lon="12.466567194005655"><ele>526.2</ele><time>2026-04-06T09:49:22Z</time></trkpt><trkpt lat="46.257427461131826" lon="12.466570794028842"><ele>526.0</ele><time>2026-04-06T09:49:23Z</time></trkpt><trkpt lat="46.25755418736166" lon="12.466563649665767"><ele>526.0</ele><time>2026-04-06T09:49:24Z</time></trkpt><trkpt lat="46.25769611087727" lon="12.466551178227165"><ele>526.0</ele><time>2026-04-06T09:49:25Z</time></trkpt><trkpt lat="46.257833652364596" lon="12.466555216007864"><ele>526.0</ele><time>2026-04-06T09:49:26Z</time></trkpt><trkpt lat="46.257963157069725" lon="12.466572058817986"><ele>526.0</ele><time>2026-04-06T09:49:27Z</time></trkpt><trkpt lat="46.25809192892883" lon="12.466590310483753"><ele>527.0</ele><time>2026-04-06T09:49:28Z</time></trkpt><trkpt lat="46.25821457193775" lon="12.466592999204147"><ele>528.0</ele><time>2026-04-06T09:49:29Z</time></trkpt><trkpt lat="46.25833514536281" lon="12.466552754460647"><ele>529.0</ele><time>2026-04-06T09:49:30Z</time></trkpt><trkpt lat="46.25845507816773" lon="12.466488154827896"><ele>530.0</ele><time>2026-04-06T09:49:31Z</time></trkpt><trkpt lat="46.25857483072498" lon="12.466429663171933"><ele>530.0</ele><time>2026-04-06T09:49:32Z</time></trkpt><trkpt lat="46.25869560485928" lon="12.46637303599983"><ele>530.0</ele><time>2026-04-06T09:49:33Z</time></trkpt><trkpt lat="46.2588018104754" lon="12.466323296455377"><ele>530.0</ele><time>2026-04-06T09:49:34Z</time></trkpt><trkpt lat="46.25889895212257" lon="12.466279842790215"><ele>530.0</ele><time>2026-04-06T09:49:35Z</time></trkpt><trkpt lat="46.259001314489645" lon="12.466260056157882"><ele>530.0</ele><time>2026-04-06T09:49:36Z</time></trkpt><trkpt lat="46.25909940749114" lon="12.46627893803323"><ele>530.2</ele><time>2026-04-06T09:49:37Z</time></trkpt><trkpt lat="46.25918465790342" lon="12.466326189129587"><ele>530.4</ele><time>2026-04-06T09:49:38Z</time></trkpt><trkpt lat="46.259259935933805" lon="12.466403245208662"><ele>530.6</ele><time>2026-04-06T09:49:39Z</time></trkpt><trkpt lat="46.259306318458044" lon="12.46651536698414"><ele>530.8</ele><time>2026-04-06T09:49:40Z</time></trkpt><trkpt lat="46.25933222431163" lon="12.46664531279578"><ele>531.0</ele><time>2026-04-06T09:49:41Z</time></trkpt><trkpt lat="46.259351910731" lon="12.466787116548051"><ele>531.0</ele><time>2026-04-06T09:49:42Z</time></trkpt><trkpt lat="46.25936802001334" lon="12.46693511523079"><ele>531.0</ele><time>2026-04-06T09:49:43Z</time></trkpt><trkpt lat="46.25938903492244" lon="12.467090088853846"><ele>531.0</ele><time>2026-04-06T09:49:44Z</time></trkpt><trkpt lat="46.259410288545915" lon="12.467255825721654"><ele>531.0</ele><time>2026-04-06T09:49:45Z</time></trkpt><trkpt lat="46.25943159731705" lon="12.467432887766243"><ele>531.0</ele><time>2026-04-06T09:49:46Z</time></trkpt><trkpt lat="46.25945494915959" lon="12.467621802367812"><ele>531.0</ele><time>2026-04-06T09:49:47Z</time></trkpt><trkpt lat="46.259479376290784" lon="12.467815387695227"><ele>531.0</ele><time>2026-04-06T09:49:48Z</time></trkpt><trkpt lat="46.259505435975434" lon="12.468016319335742"><ele>531.0</ele><time>2026-04-06T09:49:49Z</time></trkpt><trkpt lat="46.2595330815015" lon="12.468204372973904"><ele>531.0</ele><time>2026-04-06T09:49:50Z</time></trkpt><trkpt lat="46.25956612971393" lon="12.46838264369699"><ele>531.0</ele><time>2026-04-06T09:49:51Z</time></trkpt><trkpt lat="46.259616936881365" lon="12.468551520821128"><ele>531.0</ele><time>2026-04-06T09:49:52Z</time></trkpt><trkpt lat="46.25968896284304" lon="12.468700941825288"><ele>531.0</ele><time>2026-04-06T09:49:53Z</time></trkpt><trkpt lat="46.25976694862489" lon="12.468826116472236"><ele>532.1666666666666</ele><time>2026-04-06T09:49:54Z</time></trkpt><trkpt lat="46.25983626935831" lon="12.46893492689509"><ele>533.3333333333334</ele><time>2026-04-06T09:49:54.999Z</time></trkpt><trkpt lat="46.25989511644433" lon="12.469034041012673"><ele>534.5</ele><time>2026-04-06T09:49:55.999Z</time></trkpt><trkpt lat="46.259946223056005" lon="12.469124217854395"><ele>535.6666666666667</ele><time>2026-04-06T09:49:56.999Z</time></trkpt><trkpt lat="46.25999828879028" lon="12.469206780586457"><ele>536.8333333333334</ele><time>2026-04-06T09:49:57.999Z</time></trkpt><trkpt lat="46.26005854899689" lon="12.469298031554562"><ele>538.0</ele><time>2026-04-06T09:49:58.999Z</time></trkpt><trkpt lat="46.26012325644782" lon="12.469408249237821"><ele>538.0</ele><time>2026-04-06T09:49:59.999Z</time></trkpt><trkpt lat="46.26019082637865" lon="12.469524899682995"><ele>538.0</ele><time>2026-04-06T09:50:00.999Z</time></trkpt><trkpt lat="46.26025149890521" lon="12.46962196681586"><ele>538.0</ele><time>2026-04-06T09:50:01.999Z</time></trkpt><trkpt lat="46.26032416230477" lon="12.469695297519031"><ele>538.0</ele><time>2026-04-06T09:50:02.999Z</time></trkpt><trkpt lat="46.26039515439591" lon="12.469778604779039"><ele>538.0</ele><time>2026-04-06T09:50:03.999Z</time></trkpt><trkpt lat="46.26042955676199" lon="12.469930962316665"><ele>537.1666666666667</ele><time>2026-04-06T09:50:04.999Z</time></trkpt><trkpt lat="46.26048978587629" lon="12.470026135505808"><ele>536.3333333333334</ele><time>2026-04-06T09:50:05.999Z</time></trkpt><trkpt lat="46.260543718889025" lon="12.470110683084823"><ele>535.5</ele><time>2026-04-06T09:50:06.999Z</time></trkpt><trkpt lat="46.26060817201514" lon="12.470213466758738"><ele>534.6666666666666</ele><time>2026-04-06T09:50:08.999Z</time></trkpt><trkpt lat="46.2606675487597" lon="12.470271951058134"><ele>533.8333333333333</ele><time>2026-04-06T09:50:10.999Z</time></trkpt><trkpt lat="46.260768173694466" lon="12.47019980929164"><ele>533.0</ele><time>2026-04-06T09:50:18Z</time></trkpt><trkpt lat="46.26067905224271" lon="12.470307449104066"><ele>545.0</ele><time>2026-04-06T09:50:23Z</time></trkpt><trkpt lat="46.26076190661894" lon="12.470192181898334"><ele>545.0</ele><time>2026-04-06T09:50:51Z</time></trkpt><trkpt lat="46.26081735427957" lon="12.470236988728454"><ele>545.0</ele><time>2026-04-06T09:51:38Z</time></trkpt><trkpt lat="46.26080594995932" lon="12.470327256527769"><ele>545.0</ele><time>2026-04-06T09:51:42Z</time></trkpt></trkseg><trkseg><trkpt lat="46.2606509512718" lon="12.469780658545227"><ele>545.0</ele><time>2026-04-06T11:38:00.847Z</time></trkpt><trkpt lat="46.26078238206079" lon="12.470319734968717"><ele>545.0</ele><time>2026-04-06T11:38:03.404Z</time></trkpt><trkpt lat="46.260745827611444" lon="12.470219716917212"><ele>542.0</ele><time>2026-04-06T11:39:48.999Z</time></trkpt><trkpt lat="46.26058945556337" lon="12.470118060990782"><ele>539.0</ele><time>2026-04-06T11:40:03.999Z</time></trkpt><trkpt lat="46.26051764945474" lon="12.46999777339428"><ele>536.0</ele><time>2026-04-06T11:40:05.999Z</time></trkpt><trkpt lat="46.260458304653454" lon="12.46988640706032"><ele>533.0</ele><time>2026-04-06T11:40:07.999Z</time></trkpt><trkpt lat="46.26042808012946" lon="12.469763503343902"><ele>533.0</ele><time>2026-04-06T11:40:09.999Z</time></trkpt><trkpt lat="46.26042721616233" lon="12.469635555670601"><ele>533.0</ele><time>2026-04-06T11:40:11.999Z</time></trkpt><trkpt lat="46.260443248779886" lon="12.469492110081065"><ele>533.0</ele><time>2026-04-06T11:40:14Z</time></trkpt><trkpt lat="46.26047768091639" lon="12.46936146861156"><ele>533.0</ele><time>2026-04-06T11:40:16Z</time></trkpt><trkpt lat="46.26051393626668" lon="12.469274870234605"><ele>533.0</ele><time>2026-04-06T11:40:18Z</time></trkpt><trkpt lat="46.260572694177824" lon="12.469198696067199"><ele>533.0</ele><time>2026-04-06T11:40:20Z</time></trkpt><trkpt lat="46.26063923798199" lon="12.469164495782412"><ele>535.6</ele><time>2026-04-06T11:40:21Z</time></trkpt><trkpt lat="46.26072793982984" lon="12.46911157732354"><ele>538.1999999999999</ele><time>2026-04-06T11:40:22Z</time></trkpt><trkpt lat="46.26082880157027" lon="12.46904979310548"><ele>540.8</ele><time>2026-04-06T11:40:23Z</time></trkpt><trkpt lat="46.260935459224925" lon="12.468981904225918"><ele>543.4</ele><time>2026-04-06T11:40:24Z</time></trkpt><trkpt lat="46.261044055879225" lon="12.468913392543524"><ele>546.0</ele><time>2026-04-06T11:40:25Z</time></trkpt><trkpt lat="46.261150128210744" lon="12.468846370228983"><ele>546.0</ele><time>2026-04-06T11:40:26Z</time></trkpt><trkpt lat="46.26125110121655" lon="12.468786821139558"><ele>546.0</ele><time>2026-04-06T11:40:27Z</time></trkpt><trkpt lat="46.261337490969105" lon="12.468733674733825"><ele>546.0</ele><time>2026-04-06T11:40:28Z</time></trkpt><trkpt lat="46.2614339180003" lon="12.468675674560945"><ele>546.0</ele><time>2026-04-06T11:40:29Z</time></trkpt><trkpt lat="46.26153879166852" lon="12.468613600552583"><ele>546.0</ele><time>2026-04-06T11:40:30Z</time></trkpt><trkpt lat="46.26164227794348" lon="12.468550738268641"><ele>546.25</ele><time>2026-04-06T11:40:31Z</time></trkpt><trkpt lat="46.261746191461704" lon="12.46848917402592"><ele>546.5</ele><time>2026-04-06T11:40:32Z</time></trkpt><trkpt lat="46.261851256487894" lon="12.468424539178235"><ele>546.75</ele><time>2026-04-06T11:40:33Z</time></trkpt><trkpt lat="46.261965531589205" lon="12.468355294531957"><ele>547.0</ele><time>2026-04-06T11:40:34Z</time></trkpt><trkpt lat="46.26207810187821" lon="12.468287541214167"><ele>547.0</ele><time>2026-04-06T11:40:35Z</time></trkpt><trkpt lat="46.262189874560306" lon="12.468220166991765"><ele>547.0</ele><time>2026-04-06T11:40:36Z</time></trkpt><trkpt lat="46.2623019750212" lon="12.468155874422877"><ele>547.0</ele><time>2026-04-06T11:40:37Z</time></trkpt><trkpt lat="46.2624151914849" lon="12.468090472603755"><ele>547.0</ele><time>2026-04-06T11:40:38Z</time></trkpt><trkpt lat="46.26252501264777" lon="12.46803075651355"><ele>546.5</ele><time>2026-04-06T11:40:39Z</time></trkpt><trkpt lat="46.26264528176197" lon="12.46796384424673"><ele>546.0</ele><time>2026-04-06T11:40:40Z</time></trkpt><trkpt lat="46.262777294751004" lon="12.467893997403984"><ele>545.5</ele><time>2026-04-06T11:40:41Z</time></trkpt><trkpt lat="46.262910572679836" lon="12.467822172700485"><ele>545.0</ele><time>2026-04-06T11:40:42Z</time></trkpt><trkpt lat="46.26304751084058" lon="12.467739220397842"><ele>546.5</ele><time>2026-04-06T11:40:43Z</time></trkpt><trkpt lat="46.263187197203074" lon="12.467657397159561"><ele>548.0</ele><time>2026-04-06T11:40:44Z</time></trkpt><trkpt lat="46.26332211828685" lon="12.467574699734278"><ele>549.5</ele><time>2026-04-06T11:40:45Z</time></trkpt><trkpt lat="46.26345973609781" lon="12.467493954378254"><ele>551.0</ele><time>2026-04-06T11:40:46Z</time></trkpt><trkpt lat="46.26360068073135" lon="12.467405126835894"><ele>551.0</ele><time>2026-04-06T11:40:47Z</time></trkpt><trkpt lat="46.26373916818489" lon="12.467303469292482"><ele>551.0</ele><time>2026-04-06T11:40:48Z</time></trkpt><trkpt lat="46.263878026418965" lon="12.467201283978344"><ele>551.0</ele><time>2026-04-06T11:40:49Z</time></trkpt><trkpt lat="46.2640184137858" lon="12.467104397889258"><ele>551.5</ele><time>2026-04-06T11:40:50Z</time></trkpt><trkpt lat="46.2641537449828" lon="12.467010859693351"><ele>552.0</ele><time>2026-04-06T11:40:50.999Z</time></trkpt><trkpt lat="46.26427818213968" lon="12.46692077949667"><ele>552.5</ele><time>2026-04-06T11:40:51.999Z</time></trkpt><trkpt lat="46.26439796584217" lon="12.46683513366037"><ele>553.0</ele><time>2026-04-06T11:40:52.999Z</time></trkpt><trkpt lat="46.26451736349166" lon="12.466751135724186"><ele>553.0</ele><time>2026-04-06T11:40:53.999Z</time></trkpt><trkpt lat="46.26464351370974" lon="12.466663231173369"><ele>553.0</ele><time>2026-04-06T11:40:54.999Z</time></trkpt><trkpt lat="46.26477615186455" lon="12.46656868765104"><ele>553.0</ele><time>2026-04-06T11:40:55.999Z</time></trkpt><trkpt lat="46.26491055546775" lon="12.466472010690556"><ele>553.0</ele><time>2026-04-06T11:40:56.999Z</time></trkpt><trkpt lat="46.26504370254732" lon="12.466375783914422"><ele>552.75</ele><time>2026-04-06T11:40:57.999Z</time></trkpt><trkpt lat="46.265175685091904" lon="12.4662794817046"><ele>552.5</ele><time>2026-04-06T11:40:58.999Z</time></trkpt><trkpt lat="46.265308473010435" lon="12.466181914943114"><ele>552.25</ele><time>2026-04-06T11:40:59.999Z</time></trkpt><trkpt lat="46.26543821380378" lon="12.466086095973205"><ele>552.0</ele><time>2026-04-06T11:41:00.999Z</time></trkpt><trkpt lat="46.26556806330746" lon="12.465990519380568"><ele>555.0</ele><time>2026-04-06T11:41:01.999Z</time></trkpt><trkpt lat="46.265704623273436" lon="12.465889959254358"><ele>558.0</ele><time>2026-04-06T11:41:02.999Z</time></trkpt><trkpt lat="46.26584593014875" lon="12.465769289124516"><ele>561.0</ele><time>2026-04-06T11:41:03.999Z</time></trkpt><trkpt lat="46.26599046918564" lon="12.465614922845297"><ele>560.0</ele><time>2026-04-06T11:41:04.999Z</time></trkpt><trkpt lat="46.26614082948975" lon="12.46543538101739"><ele>559.0</ele><time>2026-04-06T11:41:05.999Z</time></trkpt><trkpt lat="46.26629866897269" lon="12.46524522514887"><ele>558.0</ele><time>2026-04-06T11:41:06.999Z</time></trkpt><trkpt lat="46.266462276007" lon="12.465046851353929"><ele>561.5</ele><time>2026-04-06T11:41:07.999Z</time></trkpt><trkpt lat="46.26663220219747" lon="12.464841616760193"><ele>565.0</ele><time>2026-04-06T11:41:08.999Z</time></trkpt><trkpt lat="46.26680786380797" lon="12.464625731543382"><ele>563.5</ele><time>2026-04-06T11:41:09.999Z</time></trkpt><trkpt lat="46.26699420189818" lon="12.464386982534418"><ele>562.0</ele><time>2026-04-06T11:41:10.999Z</time></trkpt><trkpt lat="46.26719081581501" lon="12.464144920947557"><ele>566.0</ele><time>2026-04-06T11:41:11.999Z</time></trkpt><trkpt lat="46.26739344982648" lon="12.46391776786224"><ele>570.0</ele><time>2026-04-06T11:41:12.999Z</time></trkpt><trkpt lat="46.26759810392443" lon="12.46369497374131"><ele>570.0</ele><time>2026-04-06T11:41:13.999Z</time></trkpt><trkpt lat="46.26778624417989" lon="12.463480000702871"><ele>570.0</ele><time>2026-04-06T11:41:14.999Z</time></trkpt><trkpt lat="46.26796346473138" lon="12.463273886115541"><ele>571.6666666666666</ele><time>2026-04-06T11:41:15.999Z</time></trkpt><trkpt lat="46.268133873837485" lon="12.463070772185066"><ele>573.3333333333333</ele><time>2026-04-06T11:41:16.999Z</time></trkpt><trkpt lat="46.26829901963112" lon="12.462871019379296"><ele>575.0</ele><time>2026-04-06T11:41:17.999Z</time></trkpt><trkpt lat="46.26846772632161" lon="12.462670894044564"><ele>575.0</ele><time>2026-04-06T11:41:18.999Z</time></trkpt><trkpt lat="46.26863835406126" lon="12.462474842928055"><ele>575.0</ele><time>2026-04-06T11:41:19.999Z</time></trkpt><trkpt lat="46.26880591469446" lon="12.462280843330245"><ele>575.0</ele><time>2026-04-06T11:41:20.999Z</time></trkpt><trkpt lat="46.26897104941424" lon="12.462091207667687"><ele>576.0</ele><time>2026-04-06T11:41:21.999Z</time></trkpt><trkpt lat="46.26913380277926" lon="12.46190249498484"><ele>577.0</ele><time>2026-04-06T11:41:22.999Z</time></trkpt><trkpt lat="46.2692962310695" lon="12.461712452699315"><ele>578.0</ele><time>2026-04-06T11:41:23.999Z</time></trkpt><trkpt lat="46.26944811366317" lon="12.461530874374677"><ele>578.0</ele><time>2026-04-06T11:41:24.999Z</time></trkpt><trkpt lat="46.26959311255192" lon="12.461358024351831"><ele>578.0</ele><time>2026-04-06T11:41:25.999Z</time></trkpt><trkpt lat="46.26973365554318" lon="12.461191950972482"><ele>578.0</ele><time>2026-04-06T11:41:26.999Z</time></trkpt><trkpt lat="46.2698725722606" lon="12.46102411281976"><ele>580.3333333333333</ele><time>2026-04-06T11:41:27.999Z</time></trkpt><trkpt lat="46.27001901902046" lon="12.46084775825814"><ele>582.6666666666666</ele><time>2026-04-06T11:41:28.999Z</time></trkpt><trkpt lat="46.2701741867254" lon="12.460672700937437"><ele>585.0</ele><time>2026-04-06T11:41:29.999Z</time></trkpt><trkpt lat="46.27034354084251" lon="12.460513772025966"><ele>585.0</ele><time>2026-04-06T11:41:30.999Z</time></trkpt><trkpt lat="46.2705326058666" lon="12.460381446701334"><ele>585.0</ele><time>2026-04-06T11:41:31.999Z</time></trkpt><trkpt lat="46.27072686965538" lon="12.4602561000914"><ele>585.0</ele><time>2026-04-06T11:41:32.999Z</time></trkpt><trkpt lat="46.270922344132046" lon="12.460126464290513"><ele>586.3333333333334</ele><time>2026-04-06T11:41:33.999Z</time></trkpt><trkpt lat="46.27110732326452" lon="12.460005311546027"><ele>587.6666666666667</ele><time>2026-04-06T11:41:34.999Z</time></trkpt><trkpt lat="46.27129045581427" lon="12.459882786345078"><ele>589.0</ele><time>2026-04-06T11:41:35.999Z</time></trkpt><trkpt lat="46.27147233027167" lon="12.459758889883377"><ele>589.0</ele><time>2026-04-06T11:41:36.999Z</time></trkpt><trkpt lat="46.271655776857486" lon="12.459636455649129"><ele>589.0</ele><time>2026-04-06T11:41:37.999Z</time></trkpt><trkpt lat="46.27183749760504" lon="12.45951786264879"><ele>589.0</ele><time>2026-04-06T11:41:38.999Z</time></trkpt><trkpt lat="46.272014495583754" lon="12.459400571417012"><ele>589.0</ele><time>2026-04-06T11:41:39.999Z</time></trkpt><trkpt lat="46.27218885001546" lon="12.459281866047656"><ele>589.0</ele><time>2026-04-06T11:41:40.999Z</time></trkpt><trkpt lat="46.272361088596625" lon="12.459165563028746"><ele>589.0</ele><time>2026-04-06T11:41:41.999Z</time></trkpt><trkpt lat="46.2725333032683" lon="12.459048678656764"><ele>590.6666666666667</ele><time>2026-04-06T11:41:42.999Z</time></trkpt><trkpt lat="46.2727095179425" lon="12.45892519117479"><ele>592.3333333333334</ele><time>2026-04-06T11:41:43.999Z</time></trkpt><trkpt lat="46.27289174790416" lon="12.45880159691963"><ele>594.0</ele><time>2026-04-06T11:41:44.999Z</time></trkpt><trkpt lat="46.27308227682739" lon="12.458676934847078"><ele>595.0</ele><time>2026-04-06T11:41:45.999Z</time></trkpt><trkpt lat="46.27327758199403" lon="12.458546655555583"><ele>596.0</ele><time>2026-04-06T11:41:46.999Z</time></trkpt><trkpt lat="46.27348329044558" lon="12.458409813398667"><ele>597.0</ele><time>2026-04-06T11:41:47.999Z</time></trkpt><trkpt lat="46.27369224238159" lon="12.45827047808686"><ele>597.0</ele><time>2026-04-06T11:41:48.999Z</time></trkpt><trkpt lat="46.27389982046256" lon="12.458129963616551"><ele>597.0</ele><time>2026-04-06T11:41:49.999Z</time></trkpt><trkpt lat="46.27410139189581" lon="12.457994123245701"><ele>598.6666666666666</ele><time>2026-04-06T11:41:50.999Z</time></trkpt><trkpt lat="46.274296289162805" lon="12.457854242790507"><ele>600.3333333333333</ele><time>2026-04-06T11:41:51.999Z</time></trkpt><trkpt lat="46.274485293132" lon="12.457699642397571"><ele>602.0</ele><time>2026-04-06T11:41:52.999Z</time></trkpt><trkpt lat="46.27466334207217" lon="12.457528233325851"><ele>603.0</ele><time>2026-04-06T11:41:53.999Z</time></trkpt><trkpt lat="46.27483730984062" lon="12.45732968330686"><ele>604.0</ele><time>2026-04-06T11:41:54.999Z</time></trkpt><trkpt lat="46.27501336123157" lon="12.457119756066815"><ele>604.5</ele><time>2026-04-06T11:41:55.999Z</time></trkpt><trkpt lat="46.275194623489284" lon="12.456907833486552"><ele>605.0</ele><time>2026-04-06T11:41:56.999Z</time></trkpt><trkpt lat="46.27538737427071" lon="12.456707857977127"><ele>605.0</ele><time>2026-04-06T11:41:57.999Z</time></trkpt><trkpt lat="46.27558753558697" lon="12.456510207936523"><ele>605.0</ele><time>2026-04-06T11:41:58.999Z</time></trkpt><trkpt lat="46.27578400141135" lon="12.456297842677104"><ele>607.0</ele><time>2026-04-06T11:41:59.999Z</time></trkpt><trkpt lat="46.27597994254713" lon="12.456080075058077"><ele>609.0</ele><time>2026-04-06T11:42:00.999Z</time></trkpt><trkpt lat="46.276168110478636" lon="12.455873049039255"><ele>609.0</ele><time>2026-04-06T11:42:01.999Z</time></trkpt><trkpt lat="46.27635353199781" lon="12.455670586573035"><ele>609.0</ele><time>2026-04-06T11:42:02.999Z</time></trkpt><trkpt lat="46.2765391034258" lon="12.455465924523493"><ele>611.5</ele><time>2026-04-06T11:42:03.999Z</time></trkpt><trkpt lat="46.27672307027692" lon="12.455265494703493"><ele>614.0</ele><time>2026-04-06T11:42:04.999Z</time></trkpt><trkpt lat="46.27690028002209" lon="12.455074637528694"><ele>614.0</ele><time>2026-04-06T11:42:05.999Z</time></trkpt><trkpt lat="46.27706844899187" lon="12.4548923994212"><ele>614.0</ele><time>2026-04-06T11:42:06.999Z</time></trkpt><trkpt lat="46.277228094092365" lon="12.454716605428981"><ele>614.0</ele><time>2026-04-06T11:42:07.999Z</time></trkpt><trkpt lat="46.27738047391547" lon="12.454551331344557"><ele>614.6666666666666</ele><time>2026-04-06T11:42:08.999Z</time></trkpt><trkpt lat="46.277532353373005" lon="12.45438121693061"><ele>615.3333333333334</ele><time>2026-04-06T11:42:09.999Z</time></trkpt><trkpt lat="46.27768244218015" lon="12.45419918767467"><ele>616.0</ele><time>2026-04-06T11:42:10.999Z</time></trkpt><trkpt lat="46.27782529891873" lon="12.454003118173997"><ele>616.6666666666667</ele><time>2026-04-06T11:42:11.999Z</time></trkpt><trkpt lat="46.277960804842834" lon="12.453788513018049"><ele>617.3333333333334</ele><time>2026-04-06T11:42:12.999Z</time></trkpt><trkpt lat="46.278084901635616" lon="12.453551867827736"><ele>618.0</ele><time>2026-04-06T11:42:13.999Z</time></trkpt><trkpt lat="46.27819961432092" lon="12.45329566195457"><ele>619.0</ele><time>2026-04-06T11:42:14.999Z</time></trkpt><trkpt lat="46.27830796627557" lon="12.453009864828807"><ele>620.0</ele><time>2026-04-06T11:42:15.999Z</time></trkpt><trkpt lat="46.27842038004526" lon="12.452699912097234"><ele>620.5</ele><time>2026-04-06T11:42:16.999Z</time></trkpt><trkpt lat="46.27853887218061" lon="12.452380710597398"><ele>621.0</ele><time>2026-04-06T11:42:17.999Z</time></trkpt><trkpt lat="46.27865523535086" lon="12.45206262053731"><ele>622.0</ele><time>2026-04-06T11:42:19Z</time></trkpt><trkpt lat="46.278764837092346" lon="12.45176873465424"><ele>623.0</ele><time>2026-04-06T11:42:20Z</time></trkpt><trkpt lat="46.27887022501347" lon="12.451490603443467"><ele>624.6666666666666</ele><time>2026-04-06T11:42:21Z</time></trkpt><trkpt lat="46.278965291748065" lon="12.451230000698951"><ele>626.3333333333334</ele><time>2026-04-06T11:42:22Z</time></trkpt><trkpt lat="46.27906213264975" lon="12.450968481980707"><ele>628.0</ele><time>2026-04-06T11:42:23Z</time></trkpt><trkpt lat="46.27916812939575" lon="12.450711798141032"><ele>628.0</ele><time>2026-04-06T11:42:24Z</time></trkpt><trkpt lat="46.27929359910447" lon="12.450463408293098"><ele>628.0</ele><time>2026-04-06T11:42:25Z</time></trkpt><trkpt lat="46.27943963961437" lon="12.450228305384787"><ele>628.0</ele><time>2026-04-06T11:42:26Z</time></trkpt><trkpt lat="46.279606013159864" lon="12.450008167706764"><ele>629.0</ele><time>2026-04-06T11:42:27Z</time></trkpt><trkpt lat="46.27979401050351" lon="12.449810561943163"><ele>630.0</ele><time>2026-04-06T11:42:28Z</time></trkpt><trkpt lat="46.279997359399765" lon="12.449633343582134"><ele>630.5</ele><time>2026-04-06T11:42:29Z</time></trkpt><trkpt lat="46.2802108185588" lon="12.44946443095083"><ele>631.0</ele><time>2026-04-06T11:42:30Z</time></trkpt><trkpt lat="46.280419283465854" lon="12.449292740928012"><ele>631.6666666666667</ele><time>2026-04-06T11:42:31Z</time></trkpt><trkpt lat="46.280620636107" lon="12.449127694034035"><ele>632.3333333333334</ele><time>2026-04-06T11:42:32Z</time></trkpt><trkpt lat="46.280806928536265" lon="12.448976893621333"><ele>633.0</ele><time>2026-04-06T11:42:33Z</time></trkpt><trkpt lat="46.28097902240015" lon="12.448838885150746"><ele>633.3333333333334</ele><time>2026-04-06T11:42:34Z</time></trkpt><trkpt lat="46.28114105577207" lon="12.448703653128675"><ele>633.6666666666667</ele><time>2026-04-06T11:42:35Z</time></trkpt><trkpt lat="46.281313347214855" lon="12.448566462645497"><ele>634.0</ele><time>2026-04-06T11:42:36Z</time></trkpt><trkpt lat="46.28149318173159" lon="12.44843803561986"><ele>635.0</ele><time>2026-04-06T11:42:37Z</time></trkpt><trkpt lat="46.28168353144266" lon="12.448327499304893"><ele>636.0</ele><time>2026-04-06T11:42:38Z</time></trkpt><trkpt lat="46.28188525780755" lon="12.448233719441209"><ele>637.0</ele><time>2026-04-06T11:42:39Z</time></trkpt><trkpt lat="46.28209945395618" lon="12.448146299674672"><ele>637.5</ele><time>2026-04-06T11:42:40Z</time></trkpt><trkpt lat="46.28232207490418" lon="12.448052098803977"><ele>638.0</ele><time>2026-04-06T11:42:41Z</time></trkpt><trkpt lat="46.28253807704671" lon="12.447958529771029"><ele>638.0</ele><time>2026-04-06T11:42:42Z</time></trkpt><trkpt lat="46.282731657885634" lon="12.44787510722307"><ele>638.0</ele><time>2026-04-06T11:42:43Z</time></trkpt><trkpt lat="46.28291206629428" lon="12.44779831380467"><ele>638.0</ele><time>2026-04-06T11:42:44Z</time></trkpt><trkpt lat="46.28306953837409" lon="12.447724639539269"><ele>639.0</ele><time>2026-04-06T11:42:45Z</time></trkpt><trkpt lat="46.28321044485539" lon="12.447642885093138"><ele>640.0</ele><time>2026-04-06T11:42:46Z</time></trkpt><trkpt lat="46.28335823008407" lon="12.447540716075455"><ele>641.0</ele><time>2026-04-06T11:42:47Z</time></trkpt><trkpt lat="46.283494350787215" lon="12.447420324115232"><ele>641.0</ele><time>2026-04-06T11:42:48Z</time></trkpt><trkpt lat="46.283617172825615" lon="12.447291911260992"><ele>641.0</ele><time>2026-04-06T11:42:49Z</time></trkpt><trkpt lat="46.283728999878846" lon="12.447158299012509"><ele>641.0</ele><time>2026-04-06T11:42:49.999Z</time></trkpt><trkpt lat="46.28384762699355" lon="12.44701018564795"><ele>642.3333333333333</ele><time>2026-04-06T11:42:50.999Z</time></trkpt><trkpt lat="46.28396723575983" lon="12.446854993325031"><ele>643.6666666666666</ele><time>2026-04-06T11:42:51.999Z</time></trkpt><trkpt lat="46.284079941025816" lon="12.446708859675134"><ele>645.0</ele><time>2026-04-06T11:42:52.999Z</time></trkpt><trkpt lat="46.284187152639625" lon="12.446582065587735"><ele>645.0</ele><time>2026-04-06T11:42:53.999Z</time></trkpt><trkpt lat="46.284298065152036" lon="12.446445816054231"><ele>645.0</ele><time>2026-04-06T11:42:54.999Z</time></trkpt><trkpt lat="46.28440929184167" lon="12.446305477719932"><ele>645.0</ele><time>2026-04-06T11:42:55.999Z</time></trkpt><trkpt lat="46.28451864853725" lon="12.446166416032137"><ele>645.0</ele><time>2026-04-06T11:42:56.999Z</time></trkpt><trkpt lat="46.28462514929801" lon="12.446029306575902"><ele>644.75</ele><time>2026-04-06T11:42:57.999Z</time></trkpt><trkpt lat="46.28473204577651" lon="12.445894891069349"><ele>644.5</ele><time>2026-04-06T11:42:58.999Z</time></trkpt><trkpt lat="46.28484259248061" lon="12.445757292301597"><ele>644.25</ele><time>2026-04-06T11:42:59.999Z</time></trkpt><trkpt lat="46.28495435635545" lon="12.445608548994658"><ele>644.0</ele><time>2026-04-06T11:43:00.999Z</time></trkpt><trkpt lat="46.285065602075925" lon="12.445433884429209"><ele>642.6666666666666</ele><time>2026-04-06T11:43:01.999Z</time></trkpt><trkpt lat="46.28516769372303" lon="12.445239153294713"><ele>641.3333333333334</ele><time>2026-04-06T11:43:02.999Z</time></trkpt><trkpt lat="46.285246121737956" lon="12.445017833398717"><ele>640.0</ele><time>2026-04-06T11:43:03.999Z</time></trkpt><trkpt lat="46.28530941838421" lon="12.444773558694328"><ele>639.0</ele><time>2026-04-06T11:43:04.999Z</time></trkpt><trkpt lat="46.285367267609836" lon="12.444509995112977"><ele>638.0</ele><time>2026-04-06T11:43:05.999Z</time></trkpt><trkpt lat="46.285420959679016" lon="12.444254536505278"><ele>637.0</ele><time>2026-04-06T11:43:06.999Z</time></trkpt><trkpt lat="46.28546896552296" lon="12.444029761452661"><ele>637.0</ele><time>2026-04-06T11:43:07.999Z</time></trkpt><trkpt lat="46.28551548450678" lon="12.443811676024996"><ele>637.0</ele><time>2026-04-06T11:43:08.999Z</time></trkpt><trkpt lat="46.285559767278585" lon="12.443595091695244"><ele>637.0</ele><time>2026-04-06T11:43:09.999Z</time></trkpt><trkpt lat="46.285603882270216" lon="12.443383717753541"><ele>637.3333333333334</ele><time>2026-04-06T11:43:10.999Z</time></trkpt><trkpt lat="46.28564740853052" lon="12.443175724861371"><ele>637.6666666666666</ele><time>2026-04-06T11:43:11.999Z</time></trkpt><trkpt lat="46.28569123472261" lon="12.442967766919331"><ele>638.0</ele><time>2026-04-06T11:43:12.999Z</time></trkpt><trkpt lat="46.28573648482826" lon="12.442755817387965"><ele>638.0</ele><time>2026-04-06T11:43:13.999Z</time></trkpt><trkpt lat="46.28578146081563" lon="12.442541736917615"><ele>638.0</ele><time>2026-04-06T11:43:14.999Z</time></trkpt><trkpt lat="46.2858249056798" lon="12.442320516542013"><ele>638.0</ele><time>2026-04-06T11:43:15.999Z</time></trkpt><trkpt lat="46.2858682017126" lon="12.44209275818024"><ele>637.3333333333333</ele><time>2026-04-06T11:43:16.999Z</time></trkpt><trkpt lat="46.28591284620157" lon="12.441865316209698"><ele>636.6666666666666</ele><time>2026-04-06T11:43:17.999Z</time></trkpt><trkpt lat="46.28595742692103" lon="12.441643553147896"><ele>636.0</ele><time>2026-04-06T11:43:18.999Z</time></trkpt><trkpt lat="46.28599991052215" lon="12.441421440204406"><ele>637.3333333333334</ele><time>2026-04-06T11:43:19.999Z</time></trkpt><trkpt lat="46.286041036777384" lon="12.441201011164873"><ele>638.6666666666667</ele><time>2026-04-06T11:43:20.999Z</time></trkpt><trkpt lat="46.28608278182136" lon="12.440978875111345"><ele>640.0</ele><time>2026-04-06T11:43:21.999Z</time></trkpt><trkpt lat="46.28612593942532" lon="12.44075806183412"><ele>640.0</ele><time>2026-04-06T11:43:22.999Z</time></trkpt><trkpt lat="46.28616720187269" lon="12.440542851082878"><ele>640.0</ele><time>2026-04-06T11:43:23.999Z</time></trkpt><trkpt lat="46.28620389157928" lon="12.440345799089709"><ele>640.0</ele><time>2026-04-06T11:43:24.999Z</time></trkpt><trkpt lat="46.28623979394741" lon="12.440158898278622"><ele>640.0</ele><time>2026-04-06T11:43:25.999Z</time></trkpt><trkpt lat="46.286271789060436" lon="12.439989591817668"><ele>640.25</ele><time>2026-04-06T11:43:26.999Z</time></trkpt><trkpt lat="46.28630210689609" lon="12.439818312850154"><ele>640.5</ele><time>2026-04-06T11:43:27.999Z</time></trkpt><trkpt lat="46.28633502782254" lon="12.439647851342643"><ele>640.75</ele><time>2026-04-06T11:43:28.999Z</time></trkpt><trkpt lat="46.286367512018174" lon="12.439485143009586"><ele>641.0</ele><time>2026-04-06T11:43:29.999Z</time></trkpt><trkpt lat="46.28639716188968" lon="12.439328363764595"><ele>641.5999999999999</ele><time>2026-04-06T11:43:30.999Z</time></trkpt><trkpt lat="46.28642445963222" lon="12.439173539805797"><ele>642.2</ele><time>2026-04-06T11:43:31.999Z</time></trkpt><trkpt lat="46.28645277896995" lon="12.439022711802764"><ele>642.8</ele><time>2026-04-06T11:43:32.999Z</time></trkpt><trkpt lat="46.2864809673744" lon="12.438873923215892"><ele>643.4000000000001</ele><time>2026-04-06T11:43:33.999Z</time></trkpt><trkpt lat="46.28650909739568" lon="12.438727449907029"><ele>644.0</ele><time>2026-04-06T11:43:34.999Z</time></trkpt><trkpt lat="46.28653982753752" lon="12.438577531528065"><ele>644.75</ele><time>2026-04-06T11:43:35.999Z</time></trkpt><trkpt lat="46.28657161145309" lon="12.438423620176227"><ele>645.5</ele><time>2026-04-06T11:43:36.999Z</time></trkpt><trkpt lat="46.28660592766085" lon="12.438262593629238"><ele>646.25</ele><time>2026-04-06T11:43:37.999Z</time></trkpt><trkpt lat="46.286639949626924" lon="12.43809319952404"><ele>647.0</ele><time>2026-04-06T11:43:38.999Z</time></trkpt><trkpt lat="46.28666969107058" lon="12.437924640174899"><ele>647.0</ele><time>2026-04-06T11:43:39.999Z</time></trkpt><trkpt lat="46.28669365627239" lon="12.437762344535939"><ele>647.0</ele><time>2026-04-06T11:43:40.999Z</time></trkpt><trkpt lat="46.28671041236938" lon="12.437602494504002"><ele>647.0</ele><time>2026-04-06T11:43:41.999Z</time></trkpt><trkpt lat="46.28672125280137" lon="12.437441919235537"><ele>647.0</ele><time>2026-04-06T11:43:42.999Z</time></trkpt><trkpt lat="46.28672704583396" lon="12.437279719115777"><ele>646.75</ele><time>2026-04-06T11:43:43.999Z</time></trkpt><trkpt lat="46.286729149972345" lon="12.437116166831043"><ele>646.5</ele><time>2026-04-06T11:43:44.999Z</time></trkpt><trkpt lat="46.28672620317157" lon="12.436947760298661"><ele>646.25</ele><time>2026-04-06T11:43:45.999Z</time></trkpt><trkpt lat="46.286722600619356" lon="12.436776359916564"><ele>646.0</ele><time>2026-04-06T11:43:46.999Z</time></trkpt><trkpt lat="46.286718291440074" lon="12.436600789746363"><ele>646.0</ele><time>2026-04-06T11:43:47.999Z</time></trkpt><trkpt lat="46.28671717508408" lon="12.43642471468122"><ele>646.0</ele><time>2026-04-06T11:43:48.999Z</time></trkpt><trkpt lat="46.28672108065063" lon="12.436251327480687"><ele>646.0</ele><time>2026-04-06T11:43:49.999Z</time></trkpt><trkpt lat="46.28672774179989" lon="12.43608048526363"><ele>646.0</ele><time>2026-04-06T11:43:51Z</time></trkpt><trkpt lat="46.28673622261234" lon="12.435910767779655"><ele>646.0</ele><time>2026-04-06T11:43:52Z</time></trkpt><trkpt lat="46.28674577670066" lon="12.435742709997667"><ele>646.0</ele><time>2026-04-06T11:43:53Z</time></trkpt><trkpt lat="46.28676226617949" lon="12.43557964592578"><ele>646.0</ele><time>2026-04-06T11:43:54Z</time></trkpt><trkpt lat="46.28677803807617" lon="12.435415092279941"><ele>646.0</ele><time>2026-04-06T11:43:55Z</time></trkpt><trkpt lat="46.28679513971694" lon="12.435246666466524"><ele>646.0</ele><time>2026-04-06T11:43:56Z</time></trkpt><trkpt lat="46.28681202814824" lon="12.435082754085387"><ele>646.0</ele><time>2026-04-06T11:43:57Z</time></trkpt><trkpt lat="46.28682882050906" lon="12.434918493119271"><ele>646.0</ele><time>2026-04-06T11:43:58Z</time></trkpt><trkpt lat="46.28684384299012" lon="12.434758566587448"><ele>646.0</ele><time>2026-04-06T11:43:59Z</time></trkpt><trkpt lat="46.28685718758313" lon="12.434601462133802"><ele>646.1999999999999</ele><time>2026-04-06T11:44:00Z</time></trkpt><trkpt lat="46.28687053882528" lon="12.434446510640798"><ele>646.4</ele><time>2026-04-06T11:44:01Z</time></trkpt><trkpt lat="46.28688530778547" lon="12.4342932701115"><ele>646.6</ele><time>2026-04-06T11:44:02Z</time></trkpt><trkpt lat="46.28689994894329" lon="12.43413834623251"><ele>646.8</ele><time>2026-04-06T11:44:03Z</time></trkpt><trkpt lat="46.286914141020254" lon="12.433977686338725"><ele>647.0</ele><time>2026-04-06T11:44:04Z</time></trkpt><trkpt lat="46.286926549976776" lon="12.433821610998553"><ele>646.75</ele><time>2026-04-06T11:44:05Z</time></trkpt><trkpt lat="46.28694001807872" lon="12.433663445161466"><ele>646.5</ele><time>2026-04-06T11:44:06Z</time></trkpt><trkpt lat="46.28695482750083" lon="12.433497475297703"><ele>646.25</ele><time>2026-04-06T11:44:07Z</time></trkpt><trkpt lat="46.28696873192871" lon="12.433329066510288"><ele>646.0</ele><time>2026-04-06T11:44:08Z</time></trkpt><trkpt lat="46.286983390437996" lon="12.433159501822093"><ele>646.0</ele><time>2026-04-06T11:44:09Z</time></trkpt><trkpt lat="46.28699723015729" lon="12.432992335448631"><ele>646.0</ele><time>2026-04-06T11:44:10Z</time></trkpt><trkpt lat="46.2870123402296" lon="12.432826393268172"><ele>646.0</ele><time>2026-04-06T11:44:11Z</time></trkpt><trkpt lat="46.28702791481422" lon="12.432660080626157"><ele>646.0</ele><time>2026-04-06T11:44:12Z</time></trkpt><trkpt lat="46.28704354253765" lon="12.432493663714546"><ele>646.5</ele><time>2026-04-06T11:44:13Z</time></trkpt><trkpt lat="46.28706057201201" lon="12.432331165582422"><ele>647.0</ele><time>2026-04-06T11:44:14Z</time></trkpt><trkpt lat="46.287075835399456" lon="12.432169583100688"><ele>647.5</ele><time>2026-04-06T11:44:15Z</time></trkpt><trkpt lat="46.287093855257346" lon="12.432004104927358"><ele>648.0</ele><time>2026-04-06T11:44:16Z</time></trkpt><trkpt lat="46.2871198991848" lon="12.431833875723289"><ele>649.75</ele><time>2026-04-06T11:44:17Z</time></trkpt><trkpt lat="46.287151667110535" lon="12.431658751424045"><ele>651.5</ele><time>2026-04-06T11:44:18Z</time></trkpt><trkpt lat="46.28718988640664" lon="12.43147408084298"><ele>653.25</ele><time>2026-04-06T11:44:19Z</time></trkpt><trkpt lat="46.2872380894071" lon="12.431272532890175"><ele>655.0</ele><time>2026-04-06T11:44:20Z</time></trkpt><trkpt lat="46.287302030960234" lon="12.431074620174497"><ele>658.6666666666667</ele><time>2026-04-06T11:44:21Z</time></trkpt><trkpt lat="46.28738672560693" lon="12.43086813685649"><ele>662.3333333333334</ele><time>2026-04-06T11:44:22Z</time></trkpt><trkpt lat="46.28749063067875" lon="12.430700522082564"><ele>666.0</ele><time>2026-04-06T11:44:23Z</time></trkpt><trkpt lat="46.28761239260485" lon="12.430546328170276"><ele>668.3333333333334</ele><time>2026-04-06T11:44:24Z</time></trkpt><trkpt lat="46.287725608030016" lon="12.430389478700175"><ele>670.6666666666667</ele><time>2026-04-06T11:44:25.001Z</time></trkpt><trkpt lat="46.28781828506805" lon="12.430220210984109"><ele>673.0</ele><time>2026-04-06T11:44:26.001Z</time></trkpt><trkpt lat="46.28788013352542" lon="12.430009701234741"><ele>673.0</ele><time>2026-04-06T11:44:27.001Z</time></trkpt><trkpt lat="46.28791883384773" lon="12.429780180901885"><ele>673.0</ele><time>2026-04-06T11:44:28.001Z</time></trkpt><trkpt lat="46.28794085762093" lon="12.429537484040049"><ele>673.0</ele><time>2026-04-06T11:44:29.001Z</time></trkpt><trkpt lat="46.287947995548386" lon="12.429286958290687"><ele>678.3333333333334</ele><time>2026-04-06T11:44:30.001Z</time></trkpt><trkpt lat="46.28792877409298" lon="12.4290259749956"><ele>683.6666666666666</ele><time>2026-04-06T11:44:31.001Z</time></trkpt><trkpt lat="46.287880030915446" lon="12.428759808418082"><ele>689.0</ele><time>2026-04-06T11:44:32.001Z</time></trkpt><trkpt lat="46.28782068853501" lon="12.428536529087298"><ele>691.6</ele><time>2026-04-06T11:44:33.001Z</time></trkpt><trkpt lat="46.28777363642347" lon="12.428359419951732"><ele>694.2</ele><time>2026-04-06T11:44:34.001Z</time></trkpt><trkpt lat="46.287735223763654" lon="12.428208906358055"><ele>696.8000000000001</ele><time>2026-04-06T11:44:35.001Z</time></trkpt><trkpt lat="46.28770080011436" lon="12.428102197469832"><ele>699.4000000000001</ele><time>2026-04-06T11:44:36.001Z</time></trkpt><trkpt lat="46.28766142497002" lon="12.428018323746175"><ele>702.0</ele><time>2026-04-06T11:44:37.001Z</time></trkpt><trkpt lat="46.28759827492654" lon="12.427973763455165"><ele>702.0</ele><time>2026-04-06T11:44:38.001Z</time></trkpt><trkpt lat="46.28751023006246" lon="12.427981922284351"><ele>702.0</ele><time>2026-04-06T11:44:39.001Z</time></trkpt><trkpt lat="46.287416046617864" lon="12.428046295720339"><ele>702.0</ele><time>2026-04-06T11:44:40.001Z</time></trkpt><trkpt lat="46.28735271990958" lon="12.428188045207799"><ele>702.0</ele><time>2026-04-06T11:44:41.001Z</time></trkpt><trkpt lat="46.28730378588689" lon="12.428331247334967"><ele>702.0</ele><time>2026-04-06T11:44:42.001Z</time></trkpt><trkpt lat="46.287275491635036" lon="12.428493209310778"><ele>706.6666666666666</ele><time>2026-04-06T11:44:43.001Z</time></trkpt><trkpt lat="46.287225577057384" lon="12.4286395134548"><ele>711.3333333333334</ele><time>2026-04-06T11:44:44.001Z</time></trkpt><trkpt lat="46.28719905299391" lon="12.428766599407721"><ele>716.0</ele><time>2026-04-06T11:44:45.001Z</time></trkpt><trkpt lat="46.287173855798265" lon="12.428878520479559"><ele>720.6666666666667</ele><time>2026-04-06T11:44:46.001Z</time></trkpt><trkpt lat="46.28714980528204" lon="12.42896827538722"><ele>725.3333333333334</ele><time>2026-04-06T11:44:47.001Z</time></trkpt><trkpt lat="46.287132845828964" lon="12.42905974593725"><ele>730.0</ele><time>2026-04-06T11:44:48.001Z</time></trkpt><trkpt lat="46.28701778520734" lon="12.42901520601136"><ele>730.0</ele><time>2026-04-06T11:44:50.001Z</time></trkpt><trkpt lat="46.286997879937594" lon="12.428896837527775"><ele>730.0</ele><time>2026-04-06T11:44:51.001Z</time></trkpt><trkpt lat="46.287030479560514" lon="12.428764271277275"><ele>730.0</ele><time>2026-04-06T11:44:52Z</time></trkpt><trkpt lat="46.28708839761248" lon="12.42862774316798"><ele>730.0</ele><time>2026-04-06T11:44:53Z</time></trkpt><trkpt lat="46.28714898753343" lon="12.428430354828247"><ele>730.0</ele><time>2026-04-06T11:44:54Z</time></trkpt><trkpt lat="46.287196889966985" lon="12.428211026948468"><ele>734.0</ele><time>2026-04-06T11:44:55Z</time></trkpt><trkpt lat="46.28723159650465" lon="12.427998430286074"><ele>738.0</ele><time>2026-04-06T11:44:56Z</time></trkpt><trkpt lat="46.287243743450624" lon="12.42778071181692"><ele>742.0</ele><time>2026-04-06T11:44:57Z</time></trkpt><trkpt lat="46.287230874723086" lon="12.427562890335734"><ele>742.3333333333334</ele><time>2026-04-06T11:44:58Z</time></trkpt><trkpt lat="46.28720899990444" lon="12.427343520312247"><ele>742.6666666666666</ele><time>2026-04-06T11:44:59Z</time></trkpt><trkpt lat="46.28716734432378" lon="12.42711768504848"><ele>743.0</ele><time>2026-04-06T11:45:00Z</time></trkpt><trkpt lat="46.287102319765324" lon="12.426897533721629"><ele>742.5</ele><time>2026-04-06T11:45:01Z</time></trkpt><trkpt lat="46.28702823954507" lon="12.426699028557097"><ele>742.0</ele><time>2026-04-06T11:45:02Z</time></trkpt><trkpt lat="46.286952088992884" lon="12.426522920003205"><ele>741.5</ele><time>2026-04-06T11:45:03Z</time></trkpt><trkpt lat="46.28689889734733" lon="12.426351143894152"><ele>741.0</ele><time>2026-04-06T11:45:04Z</time></trkpt><trkpt lat="46.28687566680336" lon="12.426159131486166"><ele>741.0</ele><time>2026-04-06T11:45:05Z</time></trkpt><trkpt lat="46.28688176803572" lon="12.425963546655257"><ele>741.0</ele><time>2026-04-06T11:45:06Z</time></trkpt><trkpt lat="46.28691322234461" lon="12.425784951538839"><ele>741.0</ele><time>2026-04-06T11:45:07Z</time></trkpt><trkpt lat="46.286963197462164" lon="12.42561593277609"><ele>741.0</ele><time>2026-04-06T11:45:08Z</time></trkpt><trkpt lat="46.2870007611211" lon="12.425435527080522"><ele>742.5</ele><time>2026-04-06T11:45:09Z</time></trkpt><trkpt lat="46.28701950597357" lon="12.425242930371972"><ele>744.0</ele><time>2026-04-06T11:45:10Z</time></trkpt><trkpt lat="46.287030382188796" lon="12.425045103357053"><ele>745.5</ele><time>2026-04-06T11:45:11Z</time></trkpt><trkpt lat="46.287020911569286" lon="12.42484635834604"><ele>747.0</ele><time>2026-04-06T11:45:12Z</time></trkpt><trkpt lat="46.28700258227247" lon="12.424677213514224"><ele>747.6666666666666</ele><time>2026-04-06T11:45:13Z</time></trkpt><trkpt lat="46.28698912073498" lon="12.424535134169972"><ele>748.3333333333334</ele><time>2026-04-06T11:45:14Z</time></trkpt><trkpt lat="46.28698111024061" lon="12.424405024940198"><ele>749.0</ele><time>2026-04-06T11:45:15Z</time></trkpt><trkpt lat="46.2869871492111" lon="12.424286590669258"><ele>749.6666666666667</ele><time>2026-04-06T11:45:16Z</time></trkpt><trkpt lat="46.287027019139586" lon="12.424179980417605"><ele>750.3333333333334</ele><time>2026-04-06T11:45:17Z</time></trkpt><trkpt lat="46.28710192788474" lon="12.424099794431998"><ele>751.0</ele><time>2026-04-06T11:45:18Z</time></trkpt><trkpt lat="46.287205681273115" lon="12.424103451189957"><ele>750.4</ele><time>2026-04-06T11:45:19Z</time></trkpt><trkpt lat="46.28728083150211" lon="12.424183344613146"><ele>749.8</ele><time>2026-04-06T11:45:20Z</time></trkpt><trkpt lat="46.287325794961056" lon="12.424313320676482"><ele>749.1999999999999</ele><time>2026-04-06T11:45:21Z</time></trkpt><trkpt lat="46.28733547550983" lon="12.424465868103294"><ele>748.5999999999999</ele><time>2026-04-06T11:45:22Z</time></trkpt><trkpt lat="46.28735178252031" lon="12.424596436070928"><ele>748.0</ele><time>2026-04-06T11:45:23Z</time></trkpt><trkpt lat="46.2873765275955" lon="12.424712486820713"><ele>748.0</ele><time>2026-04-06T11:45:24Z</time></trkpt><trkpt lat="46.28742779589376" lon="12.424796142647015"><ele>748.0</ele><time>2026-04-06T11:45:25Z</time></trkpt><trkpt lat="46.287510645111716" lon="12.424831669286172"><ele>748.0</ele><time>2026-04-06T11:45:26Z</time></trkpt><trkpt lat="46.287589839230925" lon="12.424791347474645"><ele>748.0</ele><time>2026-04-06T11:45:27Z</time></trkpt><trkpt lat="46.2876433761382" lon="12.424690796065956"><ele>748.0</ele><time>2026-04-06T11:45:28Z</time></trkpt><trkpt lat="46.28764993108477" lon="12.424552480718999"><ele>748.0</ele><time>2026-04-06T11:45:29Z</time></trkpt><trkpt lat="46.28761485139623" lon="12.424424005715082"><ele>748.0</ele><time>2026-04-06T11:45:30Z</time></trkpt><trkpt lat="46.28756131241823" lon="12.42428075123003"><ele>748.0</ele><time>2026-04-06T11:45:31Z</time></trkpt><trkpt lat="46.287501048454466" lon="12.424142804868683"><ele>748.0</ele><time>2026-04-06T11:45:32Z</time></trkpt><trkpt lat="46.28743331169546" lon="12.424020117894015"><ele>748.0</ele><time>2026-04-06T11:45:33Z</time></trkpt><trkpt lat="46.2873635968387" lon="12.423901186572964"><ele>748.0</ele><time>2026-04-06T11:45:34Z</time></trkpt><trkpt lat="46.287293931558864" lon="12.423767724255367"><ele>748.25</ele><time>2026-04-06T11:45:35Z</time></trkpt><trkpt lat="46.28722299973429" lon="12.423620631425164"><ele>748.5</ele><time>2026-04-06T11:45:36Z</time></trkpt><trkpt lat="46.287172116595016" lon="12.423450379082094"><ele>748.75</ele><time>2026-04-06T11:45:37Z</time></trkpt><trkpt lat="46.287130711349164" lon="12.423262756653942"><ele>749.0</ele><time>2026-04-06T11:45:38Z</time></trkpt><trkpt lat="46.28709016918717" lon="12.42307067367758"><ele>751.0</ele><time>2026-04-06T11:45:39Z</time></trkpt><trkpt lat="46.287048621281656" lon="12.422901211884241"><ele>753.0</ele><time>2026-04-06T11:45:40Z</time></trkpt><trkpt lat="46.28700734574947" lon="12.422721753988172"><ele>755.0</ele><time>2026-04-06T11:45:41Z</time></trkpt><trkpt lat="46.286970232821176" lon="12.422537517639228"><ele>757.0</ele><time>2026-04-06T11:45:42Z</time></trkpt><trkpt lat="46.28693995443736" lon="12.422348230721086"><ele>757.0</ele><time>2026-04-06T11:45:43Z</time></trkpt><trkpt lat="46.286933110832834" lon="12.422152419921323"><ele>757.0</ele><time>2026-04-06T11:45:44Z</time></trkpt><trkpt lat="46.28693494375851" lon="12.421943728708957"><ele>757.0</ele><time>2026-04-06T11:45:45Z</time></trkpt><trkpt lat="46.28693410357057" lon="12.421725544851322"><ele>757.0</ele><time>2026-04-06T11:45:46Z</time></trkpt><trkpt lat="46.286935296078774" lon="12.42151781986224"><ele>759.5</ele><time>2026-04-06T11:45:47Z</time></trkpt><trkpt lat="46.28693603655574" lon="12.42132305372137"><ele>762.0</ele><time>2026-04-06T11:45:48Z</time></trkpt><trkpt lat="46.28693126954334" lon="12.421145059917427"><ele>764.5</ele><time>2026-04-06T11:45:49Z</time></trkpt><trkpt lat="46.28691029447899" lon="12.420968085298968"><ele>767.0</ele><time>2026-04-06T11:45:50Z</time></trkpt><trkpt lat="46.28686424042252" lon="12.420797998421754"><ele>769.0</ele><time>2026-04-06T11:45:51Z</time></trkpt><trkpt lat="46.28680230891284" lon="12.420635386987442"><ele>771.0</ele><time>2026-04-06T11:45:52Z</time></trkpt><trkpt lat="46.28672894172617" lon="12.420476057107273"><ele>773.0</ele><time>2026-04-06T11:45:53Z</time></trkpt><trkpt lat="46.28666343404724" lon="12.420304529014105"><ele>775.0</ele><time>2026-04-06T11:45:54Z</time></trkpt><trkpt lat="46.28662491633834" lon="12.420114983342327"><ele>778.0</ele><time>2026-04-06T11:45:55Z</time></trkpt><trkpt lat="46.28660685469754" lon="12.419925941576247"><ele>781.0</ele><time>2026-04-06T11:45:56Z</time></trkpt><trkpt lat="46.28658576975048" lon="12.419746103593157"><ele>784.0</ele><time>2026-04-06T11:45:57Z</time></trkpt><trkpt lat="46.28651513573337" lon="12.419574109851736"><ele>787.0</ele><time>2026-04-06T11:45:58Z</time></trkpt><trkpt lat="46.286416196882655" lon="12.419419646674484"><ele>787.25</ele><time>2026-04-06T11:45:59Z</time></trkpt><trkpt lat="46.28631689411639" lon="12.419312423756214"><ele>787.5</ele><time>2026-04-06T11:46:00Z</time></trkpt><trkpt lat="46.286255271795234" lon="12.419194038717846"><ele>787.75</ele><time>2026-04-06T11:46:01Z</time></trkpt><trkpt lat="46.286193419596806" lon="12.419073632112017"><ele>788.0</ele><time>2026-04-06T11:46:02Z</time></trkpt><trkpt lat="46.286174967623886" lon="12.418902684736937"><ele>789.75</ele><time>2026-04-06T11:46:03Z</time></trkpt><trkpt lat="46.286188229056904" lon="12.41872628552165"><ele>791.5</ele><time>2026-04-06T11:46:04Z</time></trkpt><trkpt lat="46.2862313777664" lon="12.418555327803254"><ele>793.25</ele><time>2026-04-06T11:46:05Z</time></trkpt><trkpt lat="46.2862818078654" lon="12.418381842764122"><ele>795.0</ele><time>2026-04-06T11:46:06Z</time></trkpt><trkpt lat="46.28632359770267" lon="12.41819219869187"><ele>795.0</ele><time>2026-04-06T11:46:07Z</time></trkpt><trkpt lat="46.28637010994688" lon="12.417986730383957"><ele>795.0</ele><time>2026-04-06T11:46:08Z</time></trkpt><trkpt lat="46.2864228805428" lon="12.417763313321025"><ele>795.0</ele><time>2026-04-06T11:46:09Z</time></trkpt><trkpt lat="46.28647427058286" lon="12.417549699071037"><ele>796.5</ele><time>2026-04-06T11:46:10Z</time></trkpt><trkpt lat="46.28651227428916" lon="12.41734743141094"><ele>798.0</ele><time>2026-04-06T11:46:11Z</time></trkpt><trkpt lat="46.28652640809283" lon="12.417143452881028"><ele>799.5</ele><time>2026-04-06T11:46:12Z</time></trkpt><trkpt lat="46.28651047311614" lon="12.41692976387298"><ele>801.0</ele><time>2026-04-06T11:46:13Z</time></trkpt><trkpt lat="46.28647943025097" lon="12.41670122968103"><ele>801.6666666666667</ele><time>2026-04-06T11:46:14Z</time></trkpt><trkpt lat="46.28648419448676" lon="12.416462254639953"><ele>802.3333333333334</ele><time>2026-04-06T11:46:15Z</time></trkpt><trkpt lat="46.286511113181156" lon="12.416223065428841"><ele>803.0</ele><time>2026-04-06T11:46:16Z</time></trkpt><trkpt lat="46.2865156854717" lon="12.415990815965873"><ele>803.0</ele><time>2026-04-06T11:46:17Z</time></trkpt><trkpt lat="46.28649653225961" lon="12.415757218226002"><ele>803.0</ele><time>2026-04-06T11:46:18Z</time></trkpt><trkpt lat="46.286479848855734" lon="12.415533158105891"><ele>803.0</ele><time>2026-04-06T11:46:19Z</time></trkpt><trkpt lat="46.286461372300025" lon="12.415313689535324"><ele>803.6666666666667</ele><time>2026-04-06T11:46:20Z</time></trkpt><trkpt lat="46.28643330947303" lon="12.415094193877156"><ele>804.3333333333333</ele><time>2026-04-06T11:46:21Z</time></trkpt><trkpt lat="46.28639900232229" lon="12.41487632309734"><ele>805.0</ele><time>2026-04-06T11:46:22Z</time></trkpt><trkpt lat="46.28635768755137" lon="12.414668253112351"><ele>803.3333333333333</ele><time>2026-04-06T11:46:23Z</time></trkpt><trkpt lat="46.28631366616981" lon="12.414462562326122"><ele>801.6666666666667</ele><time>2026-04-06T11:46:24Z</time></trkpt><trkpt lat="46.286274990857486" lon="12.414248971590409"><ele>800.0</ele><time>2026-04-06T11:46:25Z</time></trkpt><trkpt lat="46.286240317140894" lon="12.414030483391027"><ele>799.3333333333334</ele><time>2026-04-06T11:46:26Z</time></trkpt><trkpt lat="46.28622414876662" lon="12.413815336527525"><ele>798.6666666666667</ele><time>2026-04-06T11:46:27Z</time></trkpt><trkpt lat="46.28622328036537" lon="12.413602707635702"><ele>798.0</ele><time>2026-04-06T11:46:28Z</time></trkpt><trkpt lat="46.28622761919451" lon="12.413376091552268"><ele>798.0</ele><time>2026-04-06T11:46:29Z</time></trkpt><trkpt lat="46.28623135183288" lon="12.413141349231756"><ele>798.0</ele><time>2026-04-06T11:46:30Z</time></trkpt><trkpt lat="46.28622850762081" lon="12.412915872470663"><ele>798.0</ele><time>2026-04-06T11:46:31.001Z</time></trkpt><trkpt lat="46.28620399833967" lon="12.412688091738886"><ele>801.0</ele><time>2026-04-06T11:46:32.001Z</time></trkpt><trkpt lat="46.286150490311634" lon="12.41246530944935"><ele>804.0</ele><time>2026-04-06T11:46:33.001Z</time></trkpt><trkpt lat="46.28607469549098" lon="12.412239953681018"><ele>807.0</ele><time>2026-04-06T11:46:34.001Z</time></trkpt><trkpt lat="46.28599185844139" lon="12.412005808530957"><ele>810.6666666666667</ele><time>2026-04-06T11:46:35.001Z</time></trkpt><trkpt lat="46.28591304255187" lon="12.411759267231364"><ele>814.3333333333334</ele><time>2026-04-06T11:46:36.001Z</time></trkpt><trkpt lat="46.285850770611226" lon="12.411509572857092"><ele>818.0</ele><time>2026-04-06T11:46:37.001Z</time></trkpt><trkpt lat="46.28579628013951" lon="12.411264842941465"><ele>819.3333333333334</ele><time>2026-04-06T11:46:38.001Z</time></trkpt><trkpt lat="46.28573797699428" lon="12.411024317126495"><ele>820.6666666666667</ele><time>2026-04-06T11:46:39.001Z</time></trkpt><trkpt lat="46.285681069328035" lon="12.410787456017975"><ele>822.0</ele><time>2026-04-06T11:46:40.001Z</time></trkpt><trkpt lat="46.28562858866342" lon="12.410559237196892"><ele>828.0</ele><time>2026-04-06T11:46:41.001Z</time></trkpt><trkpt lat="46.28557773000674" lon="12.41034442906802"><ele>834.0</ele><time>2026-04-06T11:46:42.001Z</time></trkpt><trkpt lat="46.28553078038789" lon="12.410146162884889"><ele>840.0</ele><time>2026-04-06T11:46:43.001Z</time></trkpt><trkpt lat="46.28548958721725" lon="12.40996400722291"><ele>846.0</ele><time>2026-04-06T11:46:44.001Z</time></trkpt><trkpt lat="46.285455450372936" lon="12.409782065101611"><ele>849.75</ele><time>2026-04-06T11:46:45.001Z</time></trkpt><trkpt lat="46.28543651165136" lon="12.409602235059301"><ele>853.5</ele><time>2026-04-06T11:46:46.001Z</time></trkpt><trkpt lat="46.28543158010993" lon="12.409435828846584"><ele>857.25</ele><time>2026-04-06T11:46:47.001Z</time></trkpt><trkpt lat="46.28543528047543" lon="12.409254025253457"><ele>861.0</ele><time>2026-04-06T11:46:48.001Z</time></trkpt><trkpt lat="46.28544441815779" lon="12.409051586119768"><ele>861.0</ele><time>2026-04-06T11:46:49.001Z</time></trkpt><trkpt lat="46.28544631681257" lon="12.408845782795094"><ele>861.0</ele><time>2026-04-06T11:46:50.001Z</time></trkpt><trkpt lat="46.28544916369612" lon="12.408666891985014"><ele>861.0</ele><time>2026-04-06T11:46:51.001Z</time></trkpt><trkpt lat="46.285462955530164" lon="12.408484043637388"><ele>861.0</ele><time>2026-04-06T11:46:52.001Z</time></trkpt><trkpt lat="46.285497976880386" lon="12.408282982694342"><ele>857.75</ele><time>2026-04-06T11:46:53.001Z</time></trkpt><trkpt lat="46.2855602157" lon="12.408088186183228"><ele>854.5</ele><time>2026-04-06T11:46:54.001Z</time></trkpt><trkpt lat="46.28564325931664" lon="12.407918585930389"><ele>851.25</ele><time>2026-04-06T11:46:55Z</time></trkpt><trkpt lat="46.28573269919193" lon="12.407771081409765"><ele>848.0</ele><time>2026-04-06T11:46:56Z</time></trkpt><trkpt lat="46.28581379293984" lon="12.407627728372034"><ele>841.5</ele><time>2026-04-06T11:46:57Z</time></trkpt><trkpt lat="46.2858875709035" lon="12.407488966981193"><ele>835.0</ele><time>2026-04-06T11:46:58Z</time></trkpt><trkpt lat="46.28596190547776" lon="12.407358972317054"><ele>828.5</ele><time>2026-04-06T11:46:59Z</time></trkpt><trkpt lat="46.286044455303575" lon="12.407239883338498"><ele>822.0</ele><time>2026-04-06T11:47:00Z</time></trkpt><trkpt lat="46.28614919061252" lon="12.407154160554581"><ele>820.25</ele><time>2026-04-06T11:47:01Z</time></trkpt><trkpt lat="46.286272642336556" lon="12.40710271814723"><ele>818.5</ele><time>2026-04-06T11:47:02Z</time></trkpt><trkpt lat="46.28640038201261" lon="12.407079634852808"><ele>816.75</ele><time>2026-04-06T11:47:03Z</time></trkpt><trkpt lat="46.286528978577344" lon="12.407082633842782"><ele>815.0</ele><time>2026-04-06T11:47:04Z</time></trkpt><trkpt lat="46.2866478264644" lon="12.407116659685103"><ele>815.0</ele><time>2026-04-06T11:47:05Z</time></trkpt><trkpt lat="46.28675073767673" lon="12.407172626504366"><ele>815.0</ele><time>2026-04-06T11:47:06Z</time></trkpt><trkpt lat="46.286837600103254" lon="12.407219945250558"><ele>815.0</ele><time>2026-04-06T11:47:07Z</time></trkpt><trkpt lat="46.286923592611835" lon="12.407229573537741"><ele>815.0</ele><time>2026-04-06T11:47:08Z</time></trkpt><trkpt lat="46.287000581627794" lon="12.407177165774398"><ele>815.0</ele><time>2026-04-06T11:47:09Z</time></trkpt><trkpt lat="46.287060466108244" lon="12.407085001989193"><ele>815.0</ele><time>2026-04-06T11:47:10Z</time></trkpt><trkpt lat="46.28708546443287" lon="12.406959589520937"><ele>815.0</ele><time>2026-04-06T11:47:11Z</time></trkpt><trkpt lat="46.28706118221537" lon="12.40683547902735"><ele>815.0</ele><time>2026-04-06T11:47:12Z</time></trkpt><trkpt lat="46.286997227089124" lon="12.40672629160423"><ele>815.0</ele><time>2026-04-06T11:47:13Z</time></trkpt><trkpt lat="46.286904907377455" lon="12.406612899363525"><ele>815.0</ele><time>2026-04-06T11:47:14Z</time></trkpt><trkpt lat="46.2867716979934" lon="12.406528814981149"><ele>815.0</ele><time>2026-04-06T11:47:15Z</time></trkpt><trkpt lat="46.286627527970346" lon="12.406470411461642"><ele>815.0</ele><time>2026-04-06T11:47:16Z</time></trkpt><trkpt lat="46.2864995265972" lon="12.406388919469979"><ele>815.0</ele><time>2026-04-06T11:47:17Z</time></trkpt><trkpt lat="46.286387958303926" lon="12.406282173851809"><ele>815.0</ele><time>2026-04-06T11:47:18Z</time></trkpt><trkpt lat="46.28626440065783" lon="12.406207893913974"><ele>815.0</ele><time>2026-04-06T11:47:19Z</time></trkpt><trkpt lat="46.286147295741614" lon="12.406093153460981"><ele>815.0</ele><time>2026-04-06T11:47:20Z</time></trkpt><trkpt lat="46.28602759591951" lon="12.405962379412081"><ele>815.0</ele><time>2026-04-06T11:47:21Z</time></trkpt><trkpt lat="46.28591179748104" lon="12.405827920661798"><ele>815.0</ele><time>2026-04-06T11:47:22Z</time></trkpt><trkpt lat="46.28580435923183" lon="12.405689926643317"><ele>815.0</ele><time>2026-04-06T11:47:23Z</time></trkpt><trkpt lat="46.28570643717093" lon="12.405548595819434"><ele>815.0</ele><time>2026-04-06T11:47:24Z</time></trkpt><trkpt lat="46.28561522409675" lon="12.405390023861116"><ele>815.0</ele><time>2026-04-06T11:47:25Z</time></trkpt><trkpt lat="46.2855266552637" lon="12.405215615904988"><ele>815.0</ele><time>2026-04-06T11:47:26Z</time></trkpt><trkpt lat="46.28543355608384" lon="12.405029157415525"><ele>813.6666666666667</ele><time>2026-04-06T11:47:27Z</time></trkpt><trkpt lat="46.28533935662075" lon="12.404838555699895"><ele>812.3333333333333</ele><time>2026-04-06T11:47:28Z</time></trkpt><trkpt lat="46.28524998801442" lon="12.404654204550003"><ele>811.0</ele><time>2026-04-06T11:47:29Z</time></trkpt><trkpt lat="46.285170584659845" lon="12.404484114342909"><ele>810.75</ele><time>2026-04-06T11:47:30Z</time></trkpt><trkpt lat="46.28510373712887" lon="12.404300526573188"><ele>810.5</ele><time>2026-04-06T11:47:31Z</time></trkpt><trkpt lat="46.285040082800485" lon="12.404100081088812"><ele>810.25</ele><time>2026-04-06T11:47:32Z</time></trkpt><trkpt lat="46.28498465948009" lon="12.403894840512773"><ele>810.0</ele><time>2026-04-06T11:47:33Z</time></trkpt><trkpt lat="46.28493266755451" lon="12.40367737997785"><ele>810.6666666666667</ele><time>2026-04-06T11:47:34Z</time></trkpt><trkpt lat="46.284877187689105" lon="12.403446858564644"><ele>811.3333333333334</ele><time>2026-04-06T11:47:35Z</time></trkpt><trkpt lat="46.2848229235442" lon="12.40323278663797"><ele>812.0</ele><time>2026-04-06T11:47:36Z</time></trkpt><trkpt lat="46.284776649163305" lon="12.403043875302625"><ele>816.0</ele><time>2026-04-06T11:47:37Z</time></trkpt><trkpt lat="46.284731597363375" lon="12.40285647986054"><ele>820.0</ele><time>2026-04-06T11:47:38Z</time></trkpt><trkpt lat="46.28468346873936" lon="12.402659364761707"><ele>824.0</ele><time>2026-04-06T11:47:39Z</time></trkpt><trkpt lat="46.28463884056529" lon="12.402456715379195"><ele>828.0</ele><time>2026-04-06T11:47:40Z</time></trkpt><trkpt lat="46.28460349574707" lon="12.402254950452935"><ele>825.0</ele><time>2026-04-06T11:47:41Z</time></trkpt><trkpt lat="46.28457764025979" lon="12.402054197201867"><ele>822.0</ele><time>2026-04-06T11:47:42Z</time></trkpt><trkpt lat="46.2845565409217" lon="12.401844166277632"><ele>819.0</ele><time>2026-04-06T11:47:43Z</time></trkpt><trkpt lat="46.284541973278984" lon="12.40164585731753"><ele>816.0</ele><time>2026-04-06T11:47:44Z</time></trkpt><trkpt lat="46.28452040557963" lon="12.401467195708635"><ele>814.5</ele><time>2026-04-06T11:47:45Z</time></trkpt><trkpt lat="46.284479147921914" lon="12.40128531653034"><ele>813.0</ele><time>2026-04-06T11:47:46Z</time></trkpt><trkpt lat="46.284428813287626" lon="12.401089933238085"><ele>811.5</ele><time>2026-04-06T11:47:47Z</time></trkpt><trkpt lat="46.284326697034395" lon="12.400929333134423"><ele>810.0</ele><time>2026-04-06T11:47:48Z</time></trkpt><trkpt lat="46.28421700895411" lon="12.400766311866548"><ele>810.0</ele><time>2026-04-06T11:47:49Z</time></trkpt><trkpt lat="46.284091013066316" lon="12.400619660176327"><ele>810.0</ele><time>2026-04-06T11:47:50Z</time></trkpt><trkpt lat="46.283937377759386" lon="12.400448933391491"><ele>810.0</ele><time>2026-04-06T11:47:51Z</time></trkpt><trkpt lat="46.28379851133315" lon="12.400251202559788"><ele>808.6666666666667</ele><time>2026-04-06T11:47:52Z</time></trkpt><trkpt lat="46.28366329550133" lon="12.400048292759099"><ele>807.3333333333334</ele><time>2026-04-06T11:47:53Z</time></trkpt><trkpt lat="46.28353138037848" lon="12.39984535989197"><ele>806.0</ele><time>2026-04-06T11:47:54Z</time></trkpt><trkpt lat="46.28340296825624" lon="12.399650585840854"><ele>805.6666666666667</ele><time>2026-04-06T11:47:55Z</time></trkpt><trkpt lat="46.28326444749451" lon="12.39945536845618"><ele>805.3333333333333</ele><time>2026-04-06T11:47:56Z</time></trkpt><trkpt lat="46.2831039324578" lon="12.39925545500504"><ele>805.0</ele><time>2026-04-06T11:47:57Z</time></trkpt><trkpt lat="46.28293674612316" lon="12.399047011639764"><ele>802.6666666666666</ele><time>2026-04-06T11:47:58Z</time></trkpt><trkpt lat="46.28277328040284" lon="12.398842321641222"><ele>800.3333333333333</ele><time>2026-04-06T11:47:59Z</time></trkpt><trkpt lat="46.28261323411248" lon="12.398640746840167"><ele>798.0</ele><time>2026-04-06T11:48:00Z</time></trkpt><trkpt lat="46.28245574666514" lon="12.398441559281114"><ele>798.3333333333333</ele><time>2026-04-06T11:48:01Z</time></trkpt><trkpt lat="46.28230250282474" lon="12.398250258298038"><ele>798.6666666666666</ele><time>2026-04-06T11:48:02Z</time></trkpt><trkpt lat="46.28216002284962" lon="12.398078105121375"><ele>799.0</ele><time>2026-04-06T11:48:03Z</time></trkpt><trkpt lat="46.28202474157587" lon="12.397924865484907"><ele>795.3333333333333</ele><time>2026-04-06T11:48:04Z</time></trkpt><trkpt lat="46.2818945580752" lon="12.397768447648652"><ele>791.6666666666667</ele><time>2026-04-06T11:48:05Z</time></trkpt><trkpt lat="46.28176258371192" lon="12.397586951807199"><ele>788.0</ele><time>2026-04-06T11:48:06Z</time></trkpt><trkpt lat="46.28165641216511" lon="12.397391520710785"><ele>786.6666666666667</ele><time>2026-04-06T11:48:07Z</time></trkpt><trkpt lat="46.281563640291054" lon="12.397147597737227"><ele>785.3333333333333</ele><time>2026-04-06T11:48:08Z</time></trkpt><trkpt lat="46.28147238698482" lon="12.396856863721645"><ele>784.0</ele><time>2026-04-06T11:48:09Z</time></trkpt><trkpt lat="46.28137126928199" lon="12.396552652279713"><ele>779.0</ele><time>2026-04-06T11:48:10Z</time></trkpt><trkpt lat="46.28126076436292" lon="12.396231211003085"><ele>774.0</ele><time>2026-04-06T11:48:11Z</time></trkpt><trkpt lat="46.28114307155017" lon="12.395904786281106"><ele>774.0</ele><time>2026-04-06T11:48:12Z</time></trkpt><trkpt lat="46.281016863223165" lon="12.395580088599546"><ele>774.0</ele><time>2026-04-06T11:48:13Z</time></trkpt><trkpt lat="46.28088822943303" lon="12.395275679828686"><ele>775.0</ele><time>2026-04-06T11:48:14Z</time></trkpt><trkpt lat="46.28075904823014" lon="12.394994428702772"><ele>776.0</ele><time>2026-04-06T11:48:15Z</time></trkpt><trkpt lat="46.280622588393385" lon="12.394730330419314"><ele>775.0</ele><time>2026-04-06T11:48:16Z</time></trkpt><trkpt lat="46.28048040979638" lon="12.394488957174076"><ele>774.0</ele><time>2026-04-06T11:48:17Z</time></trkpt><trkpt lat="46.280332909679906" lon="12.394268445903142"><ele>773.0</ele><time>2026-04-06T11:48:18Z</time></trkpt><trkpt lat="46.280188108571586" lon="12.394073096327274"><ele>773.0</ele><time>2026-04-06T11:48:19Z</time></trkpt><trkpt lat="46.28007026049646" lon="12.393870640128412"><ele>773.0</ele><time>2026-04-06T11:48:20Z</time></trkpt><trkpt lat="46.279946976897925" lon="12.393695010615849"><ele>773.0</ele><time>2026-04-06T11:48:21Z</time></trkpt><trkpt lat="46.27983233781051" lon="12.39353359007808"><ele>771.0</ele><time>2026-04-06T11:48:22Z</time></trkpt><trkpt lat="46.27972278481365" lon="12.393402618261122"><ele>769.0</ele><time>2026-04-06T11:48:23Z</time></trkpt><trkpt lat="46.279633727488715" lon="12.393253756645072"><ele>767.0</ele><time>2026-04-06T11:48:24Z</time></trkpt><trkpt lat="46.279547419826564" lon="12.39308382874379"><ele>765.0</ele><time>2026-04-06T11:48:25Z</time></trkpt><trkpt lat="46.27947510523915" lon="12.392896375683991"><ele>765.0</ele><time>2026-04-06T11:48:26Z</time></trkpt><trkpt lat="46.279414974831234" lon="12.392687152819537"><ele>765.0</ele><time>2026-04-06T11:48:27Z</time></trkpt><trkpt lat="46.27936512018543" lon="12.392470946857346"><ele>765.0</ele><time>2026-04-06T11:48:28Z</time></trkpt><trkpt lat="46.279318985694516" lon="12.392245365992203"><ele>769.0</ele><time>2026-04-06T11:48:29Z</time></trkpt><trkpt lat="46.2792531718545" lon="12.39202417915406"><ele>773.0</ele><time>2026-04-06T11:48:30Z</time></trkpt><trkpt lat="46.2791613654561" lon="12.391814924141018"><ele>777.0</ele><time>2026-04-06T11:48:31Z</time></trkpt><trkpt lat="46.27904806627692" lon="12.391619581722757"><ele>770.6666666666666</ele><time>2026-04-06T11:48:32Z</time></trkpt><trkpt lat="46.278929399125246" lon="12.391421204572495"><ele>764.3333333333333</ele><time>2026-04-06T11:48:33Z</time></trkpt><trkpt lat="46.278818442081494" lon="12.391223337913232"><ele>758.0</ele><time>2026-04-06T11:48:34Z</time></trkpt><trkpt lat="46.27871879428674" lon="12.391047233683075"><ele>758.0</ele><time>2026-04-06T11:48:35Z</time></trkpt><trkpt lat="46.27862716931652" lon="12.39089140355241"><ele>758.0</ele><time>2026-04-06T11:48:36Z</time></trkpt><trkpt lat="46.27854331412432" lon="12.390750588545039"><ele>758.0</ele><time>2026-04-06T11:48:37.001Z</time></trkpt><trkpt lat="46.27846291042295" lon="12.390633183038528"><ele>758.0</ele><time>2026-04-06T11:48:38.001Z</time></trkpt><trkpt lat="46.27837883447292" lon="12.390535555728407"><ele>754.8</ele><time>2026-04-06T11:48:39.001Z</time></trkpt><trkpt lat="46.27829270499113" lon="12.390461141994098"><ele>751.5999999999999</ele><time>2026-04-06T11:48:40.001Z</time></trkpt><trkpt lat="46.278197007528924" lon="12.390390926780992"><ele>748.4000000000001</ele><time>2026-04-06T11:48:41.001Z</time></trkpt><trkpt lat="46.27811498437403" lon="12.390329620548453"><ele>745.2</ele><time>2026-04-06T11:48:42.001Z</time></trkpt><trkpt lat="46.27803451630746" lon="12.390271354457854"><ele>742.0</ele><time>2026-04-06T11:48:43.001Z</time></trkpt><trkpt lat="46.27795085262536" lon="12.390225925819308"><ele>742.0</ele><time>2026-04-06T11:48:44.001Z</time></trkpt><trkpt lat="46.27787751017048" lon="12.390192637626429"><ele>742.0</ele><time>2026-04-06T11:48:45.001Z</time></trkpt><trkpt lat="46.27780511102087" lon="12.390137128140536"><ele>742.0</ele><time>2026-04-06T11:48:46.001Z</time></trkpt><trkpt lat="46.27773370819466" lon="12.390039361090485"><ele>742.0</ele><time>2026-04-06T11:48:47.001Z</time></trkpt><trkpt lat="46.2776905487804" lon="12.389892473062293"><ele>742.0</ele><time>2026-04-06T11:48:48.001Z</time></trkpt><trkpt lat="46.27767120821235" lon="12.389716523774355"><ele>746.75</ele><time>2026-04-06T11:48:49.001Z</time></trkpt><trkpt lat="46.27766711933154" lon="12.389529560117076"><ele>751.5</ele><time>2026-04-06T11:48:50.001Z</time></trkpt><trkpt lat="46.27762962889773" lon="12.389366051549576"><ele>756.25</ele><time>2026-04-06T11:48:51.001Z</time></trkpt><trkpt lat="46.27755576089828" lon="12.389227439355851"><ele>761.0</ele><time>2026-04-06T11:48:52.001Z</time></trkpt><trkpt lat="46.27749723206046" lon="12.389102196864627"><ele>761.0</ele><time>2026-04-06T11:48:53.001Z</time></trkpt><trkpt lat="46.277461766065" lon="12.388971761815473"><ele>761.0</ele><time>2026-04-06T11:48:54.001Z</time></trkpt><trkpt lat="46.27744085929095" lon="12.388862950707175"><ele>761.0</ele><time>2026-04-06T11:48:55Z</time></trkpt><trkpt lat="46.27743733015846" lon="12.38875786966018"><ele>761.0</ele><time>2026-04-06T11:48:56Z</time></trkpt><trkpt lat="46.277436808727835" lon="12.38864473211509"><ele>761.0</ele><time>2026-04-06T11:48:57Z</time></trkpt><trkpt lat="46.27743770220651" lon="12.388524589952663"><ele>761.0</ele><time>2026-04-06T11:48:58Z</time></trkpt><trkpt lat="46.27744226649696" lon="12.388395304629155"><ele>762.4</ele><time>2026-04-06T11:48:59Z</time></trkpt><trkpt lat="46.27743515421581" lon="12.388261360184453"><ele>763.8</ele><time>2026-04-06T11:49:00Z</time></trkpt><trkpt lat="46.27741775185198" lon="12.388126909963164"><ele>765.1999999999999</ele><time>2026-04-06T11:49:01Z</time></trkpt><trkpt lat="46.27739848146926" lon="12.387982686853809"><ele>766.5999999999999</ele><time>2026-04-06T11:49:02Z</time></trkpt><trkpt lat="46.277379773063565" lon="12.387825541727304"><ele>768.0</ele><time>2026-04-06T11:49:03Z</time></trkpt><trkpt lat="46.27737280623722" lon="12.387662501683517"><ele>768.5</ele><time>2026-04-06T11:49:04Z</time></trkpt><trkpt lat="46.27737897316085" lon="12.387490734053971"><ele>769.0</ele><time>2026-04-06T11:49:05Z</time></trkpt><trkpt lat="46.27739333559775" lon="12.387310982079546"><ele>769.5</ele><time>2026-04-06T11:49:06Z</time></trkpt><trkpt lat="46.27739656797117" lon="12.387118714607865"><ele>770.0</ele><time>2026-04-06T11:49:07Z</time></trkpt><trkpt lat="46.277385188469665" lon="12.386919527967573"><ele>771.0</ele><time>2026-04-06T11:49:08Z</time></trkpt><trkpt lat="46.27736174849855" lon="12.386743007159533"><ele>772.0</ele><time>2026-04-06T11:49:09Z</time></trkpt><trkpt lat="46.277310906413135" lon="12.386594197920399"><ele>773.0</ele><time>2026-04-06T11:49:10Z</time></trkpt><trkpt lat="46.2772570188718" lon="12.386453937985705"><ele>774.0</ele><time>2026-04-06T11:49:11Z</time></trkpt><trkpt lat="46.27720387003978" lon="12.386317596134209"><ele>764.5</ele><time>2026-04-06T11:49:12Z</time></trkpt><trkpt lat="46.27714840727442" lon="12.386182172366036"><ele>755.0</ele><time>2026-04-06T11:49:13Z</time></trkpt><trkpt lat="46.27708919586977" lon="12.38603699775703"><ele>745.5</ele><time>2026-04-06T11:49:14Z</time></trkpt><trkpt lat="46.27703966504159" lon="12.385861279610232"><ele>736.0</ele><time>2026-04-06T11:49:15Z</time></trkpt><trkpt lat="46.277015712127" lon="12.385671307952894"><ele>738.0</ele><time>2026-04-06T11:49:16Z</time></trkpt><trkpt lat="46.27699582220456" lon="12.385490605873931"><ele>740.0</ele><time>2026-04-06T11:49:17Z</time></trkpt><trkpt lat="46.27697168723439" lon="12.385319062325593"><ele>742.0</ele><time>2026-04-06T11:49:18Z</time></trkpt><trkpt lat="46.2769406556906" lon="12.385154404175058"><ele>744.0</ele><time>2026-04-06T11:49:19Z</time></trkpt><trkpt lat="46.27690036615444" lon="12.384998388315513"><ele>744.0</ele><time>2026-04-06T11:49:20Z</time></trkpt><trkpt lat="46.276855172549354" lon="12.384850715352572"><ele>744.0</ele><time>2026-04-06T11:49:21Z</time></trkpt><trkpt lat="46.276820763748454" lon="12.384712861545191"><ele>744.0</ele><time>2026-04-06T11:49:22Z</time></trkpt><trkpt lat="46.276793133625915" lon="12.384575476701624"><ele>744.0</ele><time>2026-04-06T11:49:23Z</time></trkpt><trkpt lat="46.27677582999563" lon="12.384440861284"><ele>744.0</ele><time>2026-04-06T11:49:24Z</time></trkpt><trkpt lat="46.276776834878724" lon="12.384306185229597"><ele>744.8000000000001</ele><time>2026-04-06T11:49:25Z</time></trkpt><trkpt lat="46.2768047037778" lon="12.38416491687951"><ele>745.6</ele><time>2026-04-06T11:49:26Z</time></trkpt><trkpt lat="46.276862547456915" lon="12.384034519828601"><ele>746.4</ele><time>2026-04-06T11:49:27Z</time></trkpt><trkpt lat="46.276923077238614" lon="12.383895658969193"><ele>747.2</ele><time>2026-04-06T11:49:28Z</time></trkpt><trkpt lat="46.276984700269736" lon="12.383750600216658"><ele>748.0</ele><time>2026-04-06T11:49:29Z</time></trkpt><trkpt lat="46.27705559121577" lon="12.383614779319377"><ele>745.5999999999999</ele><time>2026-04-06T11:49:30Z</time></trkpt><trkpt lat="46.27711852257767" lon="12.38348080778631"><ele>743.1999999999999</ele><time>2026-04-06T11:49:31Z</time></trkpt><trkpt lat="46.27717688857918" lon="12.383355649712188"><ele>740.8</ele><time>2026-04-06T11:49:32Z</time></trkpt><trkpt lat="46.27723012412504" lon="12.383241613590114"><ele>738.4</ele><time>2026-04-06T11:49:33Z</time></trkpt><trkpt lat="46.27727368715328" lon="12.38312576345657"><ele>736.0</ele><time>2026-04-06T11:49:34Z</time></trkpt><trkpt lat="46.277300242780484" lon="12.382993283211796"><ele>742.5999999999999</ele><time>2026-04-06T11:49:35Z</time></trkpt><trkpt lat="46.27731018950118" lon="12.382852900514964"><ele>749.2</ele><time>2026-04-06T11:49:36Z</time></trkpt><trkpt lat="46.27731145895865" lon="12.382715569023247"><ele>755.8</ele><time>2026-04-06T11:49:37Z</time></trkpt><trkpt lat="46.27730648866001" lon="12.382581044668191"><ele>762.4000000000001</ele><time>2026-04-06T11:49:38Z</time></trkpt><trkpt lat="46.27729794693776" lon="12.382448336740792"><ele>769.0</ele><time>2026-04-06T11:49:39Z</time></trkpt><trkpt lat="46.27729203353077" lon="12.382310908790803"><ele>767.4000000000001</ele><time>2026-04-06T11:49:40Z</time></trkpt><trkpt lat="46.277300310239625" lon="12.382171472837692"><ele>765.8</ele><time>2026-04-06T11:49:41Z</time></trkpt><trkpt lat="46.27732633099207" lon="12.382029270745818"><ele>764.2</ele><time>2026-04-06T11:49:42Z</time></trkpt><trkpt lat="46.277367376130805" lon="12.381884444707762"><ele>762.5999999999999</ele><time>2026-04-06T11:49:43Z</time></trkpt><trkpt lat="46.27742170514193" lon="12.381733241303055"><ele>761.0</ele><time>2026-04-06T11:49:44Z</time></trkpt><trkpt lat="46.27747868605021" lon="12.381571514175276"><ele>761.0</ele><time>2026-04-06T11:49:45Z</time></trkpt><trkpt lat="46.27753433843673" lon="12.381403300626454"><ele>761.0</ele><time>2026-04-06T11:49:46Z</time></trkpt><trkpt lat="46.277577616747195" lon="12.38127117223354"><ele>761.0</ele><time>2026-04-06T11:49:47Z</time></trkpt><trkpt lat="46.277622160227736" lon="12.38114112301832"><ele>761.0</ele><time>2026-04-06T11:49:48Z</time></trkpt><trkpt lat="46.27767375998774" lon="12.381023204112292"><ele>761.0</ele><time>2026-04-06T11:49:49Z</time></trkpt><trkpt lat="46.27774741858934" lon="12.380927815460781"><ele>762.8</ele><time>2026-04-06T11:49:50Z</time></trkpt><trkpt lat="46.27784544379017" lon="12.38084363054302"><ele>764.5999999999999</ele><time>2026-04-06T11:49:51Z</time></trkpt><trkpt lat="46.277947651831965" lon="12.380774181931363"><ele>766.4</ele><time>2026-04-06T11:49:52Z</time></trkpt><trkpt lat="46.278049662217605" lon="12.380708875939941"><ele>768.2</ele><time>2026-04-06T11:49:53Z</time></trkpt><trkpt lat="46.27815177369193" lon="12.380651740915612"><ele>770.0</ele><time>2026-04-06T11:49:54Z</time></trkpt><trkpt lat="46.27825388634653" lon="12.380611261975151"><ele>770.0</ele><time>2026-04-06T11:49:55Z</time></trkpt><trkpt lat="46.27835224557342" lon="12.380573591762744"><ele>770.0</ele><time>2026-04-06T11:49:56Z</time></trkpt><trkpt lat="46.278437889652395" lon="12.380526840863377"><ele>770.0</ele><time>2026-04-06T11:49:57Z</time></trkpt><trkpt lat="46.27851974650775" lon="12.380465005985576"><ele>770.0</ele><time>2026-04-06T11:49:58Z</time></trkpt><trkpt lat="46.27860166850752" lon="12.38039460089914"><ele>770.0</ele><time>2026-04-06T11:49:59Z</time></trkpt><trkpt lat="46.27868430819338" lon="12.380327449143964"><ele>771.2</ele><time>2026-04-06T11:50:00Z</time></trkpt><trkpt lat="46.27877323606353" lon="12.380291450186022"><ele>772.4</ele><time>2026-04-06T11:50:01Z</time></trkpt><trkpt lat="46.27886711314746" lon="12.380316425443684"><ele>773.5999999999999</ele><time>2026-04-06T11:50:02Z</time></trkpt><trkpt lat="46.27896243907893" lon="12.380380303925039"><ele>774.8</ele><time>2026-04-06T11:50:03Z</time></trkpt><trkpt lat="46.27905166188978" lon="12.380492320453463"><ele>776.0</ele><time>2026-04-06T11:50:04Z</time></trkpt><trkpt lat="46.279133027852126" lon="12.380626038913928"><ele>776.0</ele><time>2026-04-06T11:50:05Z</time></trkpt><trkpt lat="46.27921175614103" lon="12.38075572798869"><ele>776.0</ele><time>2026-04-06T11:50:06Z</time></trkpt><trkpt lat="46.279291672912876" lon="12.380869147256865"><ele>776.0</ele><time>2026-04-06T11:50:07Z</time></trkpt><trkpt lat="46.27937021342859" lon="12.380975568508624"><ele>776.0</ele><time>2026-04-06T11:50:08Z</time></trkpt><trkpt lat="46.279439138871524" lon="12.38108321174075"><ele>776.0</ele><time>2026-04-06T11:50:09Z</time></trkpt><trkpt lat="46.279502654399174" lon="12.381168209057831"><ele>776.0</ele><time>2026-04-06T11:50:10Z</time></trkpt><trkpt lat="46.279570823057014" lon="12.38122402615217"><ele>776.0</ele><time>2026-04-06T11:50:11Z</time></trkpt><trkpt lat="46.27965070125168" lon="12.381246008605201"><ele>776.0</ele><time>2026-04-06T11:50:12Z</time></trkpt><trkpt lat="46.27973564039364" lon="12.38123416701655"><ele>776.0</ele><time>2026-04-06T11:50:13Z</time></trkpt><trkpt lat="46.27982797905389" lon="12.38118360389854"><ele>776.0</ele><time>2026-04-06T11:50:14Z</time></trkpt><trkpt lat="46.279914719954704" lon="12.38109318265619"><ele>775.25</ele><time>2026-04-06T11:50:15Z</time></trkpt><trkpt lat="46.27999758665423" lon="12.380969006075906"><ele>774.5</ele><time>2026-04-06T11:50:16Z</time></trkpt><trkpt lat="46.28008758156942" lon="12.380856523974078"><ele>773.75</ele><time>2026-04-06T11:50:17Z</time></trkpt><trkpt lat="46.28018448678898" lon="12.380751964498506"><ele>773.0</ele><time>2026-04-06T11:50:18Z</time></trkpt><trkpt lat="46.28028546698116" lon="12.380646731386445"><ele>773.0</ele><time>2026-04-06T11:50:19Z</time></trkpt><trkpt lat="46.28038698052539" lon="12.3805412362108"><ele>773.0</ele><time>2026-04-06T11:50:20Z</time></trkpt><trkpt lat="46.28049823511415" lon="12.380443117251783"><ele>773.0</ele><time>2026-04-06T11:50:21Z</time></trkpt><trkpt lat="46.28061184536303" lon="12.380348880541858"><ele>773.0</ele><time>2026-04-06T11:50:22Z</time></trkpt><trkpt lat="46.28072478069692" lon="12.380248920829304"><ele>774.5</ele><time>2026-04-06T11:50:23Z</time></trkpt><trkpt lat="46.28082328463828" lon="12.38012230344556"><ele>776.0</ele><time>2026-04-06T11:50:24Z</time></trkpt><trkpt lat="46.28090875520213" lon="12.37994110100901"><ele>777.5</ele><time>2026-04-06T11:50:25Z</time></trkpt><trkpt lat="46.28098792585128" lon="12.37973060061585"><ele>779.0</ele><time>2026-04-06T11:50:26Z</time></trkpt><trkpt lat="46.28106193091739" lon="12.379490881469087"><ele>772.6666666666667</ele><time>2026-04-06T11:50:27Z</time></trkpt><trkpt lat="46.281164325238485" lon="12.37927219454845"><ele>766.3333333333334</ele><time>2026-04-06T11:50:28Z</time></trkpt><trkpt lat="46.28124247208449" lon="12.379080275633765"><ele>760.0</ele><time>2026-04-06T11:50:29Z</time></trkpt><trkpt lat="46.281313864977726" lon="12.378912570950343"><ele>754.0</ele><time>2026-04-06T11:50:30Z</time></trkpt><trkpt lat="46.28138292374015" lon="12.378760043330589"><ele>748.0</ele><time>2026-04-06T11:50:31Z</time></trkpt><trkpt lat="46.28146293390612" lon="12.378592481168461"><ele>742.0</ele><time>2026-04-06T11:50:32Z</time></trkpt><trkpt lat="46.28154108122964" lon="12.37842312837168"><ele>736.0</ele><time>2026-04-06T11:50:33Z</time></trkpt><trkpt lat="46.28161239304504" lon="12.378240129300172"><ele>750.6666666666667</ele><time>2026-04-06T11:50:34Z</time></trkpt><trkpt lat="46.28166524143497" lon="12.378003251987604"><ele>765.3333333333334</ele><time>2026-04-06T11:50:35Z</time></trkpt><trkpt lat="46.28169567285908" lon="12.377778554159846"><ele>780.0</ele><time>2026-04-06T11:50:36Z</time></trkpt><trkpt lat="46.28172260081343" lon="12.37756177568859"><ele>780.0</ele><time>2026-04-06T11:50:37Z</time></trkpt><trkpt lat="46.28173972650621" lon="12.377425754224122"><ele>780.0</ele><time>2026-04-06T11:50:38Z</time></trkpt><trkpt lat="46.28176655129686" lon="12.377219463350192"><ele>780.0</ele><time>2026-04-06T11:50:39Z</time></trkpt><trkpt lat="46.281788757111485" lon="12.37706920361941"><ele>780.0</ele><time>2026-04-06T11:50:40Z</time></trkpt><trkpt lat="46.281816118323185" lon="12.376932879992335"><ele>780.0</ele><time>2026-04-06T11:50:41Z</time></trkpt><trkpt lat="46.281850457782426" lon="12.37678277215757"><ele>780.4</ele><time>2026-04-06T11:50:42Z</time></trkpt><trkpt lat="46.281886475916394" lon="12.376637890079513"><ele>780.8</ele><time>2026-04-06T11:50:43Z</time></trkpt><trkpt lat="46.28192972630874" lon="12.376515920954809"><ele>781.2</ele><time>2026-04-06T11:50:44.001Z</time></trkpt><trkpt lat="46.2819749246749" lon="12.376410300324958"><ele>781.6</ele><time>2026-04-06T11:50:45Z</time></trkpt><trkpt lat="46.28201015459027" lon="12.376291041440648"><ele>782.0</ele><time>2026-04-06T11:50:46Z</time></trkpt><trkpt lat="46.28202070635984" lon="12.376153146692628"><ele>782.0</ele><time>2026-04-06T11:50:47.001Z</time></trkpt><trkpt lat="46.28197938977521" lon="12.376010881764213"><ele>782.0</ele><time>2026-04-06T11:50:48Z</time></trkpt><trkpt lat="46.28193128391957" lon="12.375882364368007"><ele>782.0</ele><time>2026-04-06T11:50:49.001Z</time></trkpt><trkpt lat="46.28185756290655" lon="12.375772995515243"><ele>782.0</ele><time>2026-04-06T11:50:50.001Z</time></trkpt><trkpt lat="46.281780724943914" lon="12.37566697479774"><ele>782.0</ele><time>2026-04-06T11:50:51.001Z</time></trkpt><trkpt lat="46.28170717823674" lon="12.375566475351286"><ele>785.1666666666667</ele><time>2026-04-06T11:50:52.001Z</time></trkpt><trkpt lat="46.28163784427092" lon="12.375484307173132"><ele>788.3333333333334</ele><time>2026-04-06T11:50:53.001Z</time></trkpt><trkpt lat="46.28157746134777" lon="12.375409053295433"><ele>791.5</ele><time>2026-04-06T11:50:54Z</time></trkpt><trkpt lat="46.28151902187457" lon="12.37533851312734"><ele>794.6666666666667</ele><time>2026-04-06T11:50:55.001Z</time></trkpt><trkpt lat="46.28144857924201" lon="12.37529914856059"><ele>797.8333333333334</ele><time>2026-04-06T11:50:56.001Z</time></trkpt><trkpt lat="46.28136491156263" lon="12.375306410988243"><ele>801.0</ele><time>2026-04-06T11:50:57Z</time></trkpt><trkpt lat="46.28127574001244" lon="12.375345311079611"><ele>803.8</ele><time>2026-04-06T11:50:58Z</time></trkpt><trkpt lat="46.28120087002274" lon="12.375457365665767"><ele>806.5999999999999</ele><time>2026-04-06T11:50:59Z</time></trkpt><trkpt lat="46.281131987172884" lon="12.375536696673203"><ele>809.4</ele><time>2026-04-06T11:51:00Z</time></trkpt><trkpt lat="46.28107380668443" lon="12.375600458744302"><ele>812.2</ele><time>2026-04-06T11:51:01Z</time></trkpt><trkpt lat="46.28097217860488" lon="12.37570043296329"><ele>815.0</ele><time>2026-04-06T11:51:03Z</time></trkpt><trkpt lat="46.280898917294536" lon="12.375717760526983"><ele>808.4</ele><time>2026-04-06T11:51:04Z</time></trkpt><trkpt lat="46.280824764015215" lon="12.375707936489182"><ele>801.8</ele><time>2026-04-06T11:51:05Z</time></trkpt><trkpt lat="46.28072688738826" lon="12.375688503258463"><ele>795.2</ele><time>2026-04-06T11:51:06Z</time></trkpt><trkpt lat="46.28061517831897" lon="12.375666997072697"><ele>788.6</ele><time>2026-04-06T11:51:07Z</time></trkpt><trkpt lat="46.280492646650124" lon="12.375641065636774"><ele>782.0</ele><time>2026-04-06T11:51:08Z</time></trkpt><trkpt lat="46.280357898490195" lon="12.375609332869928"><ele>781.25</ele><time>2026-04-06T11:51:09Z</time></trkpt><trkpt lat="46.2802235902272" lon="12.375568478638549"><ele>780.5</ele><time>2026-04-06T11:51:10Z</time></trkpt><trkpt lat="46.280097746802134" lon="12.375500161607384"><ele>779.75</ele><time>2026-04-06T11:51:11Z</time></trkpt><trkpt lat="46.27997372399873" lon="12.375430155420192"><ele>779.0</ele><time>2026-04-06T11:51:12Z</time></trkpt><trkpt lat="46.27985606632877" lon="12.375363742104923"><ele>782.75</ele><time>2026-04-06T11:51:13Z</time></trkpt><trkpt lat="46.27974282221136" lon="12.375301077926414"><ele>786.5</ele><time>2026-04-06T11:51:14Z</time></trkpt><trkpt lat="46.279633026918056" lon="12.375240382715502"><ele>790.25</ele><time>2026-04-06T11:51:15Z</time></trkpt><trkpt lat="46.279525690379565" lon="12.375181046705967"><ele>794.0</ele><time>2026-04-06T11:51:16Z</time></trkpt><trkpt lat="46.27942104428634" lon="12.375123197988867"><ele>794.0</ele><time>2026-04-06T11:51:17Z</time></trkpt><trkpt lat="46.27932287565677" lon="12.375063530100613"><ele>794.0</ele><time>2026-04-06T11:51:18Z</time></trkpt><trkpt lat="46.27923732385253" lon="12.374990185908517"><ele>794.0</ele><time>2026-04-06T11:51:19Z</time></trkpt><trkpt lat="46.27915545308573" lon="12.374902852118431"><ele>794.0</ele><time>2026-04-06T11:51:20Z</time></trkpt><trkpt lat="46.27907809440591" lon="12.374812910272794"><ele>794.0</ele><time>2026-04-06T11:51:21Z</time></trkpt><trkpt lat="46.279005448611514" lon="12.37471908690757"><ele>793.2</ele><time>2026-04-06T11:51:22Z</time></trkpt><trkpt lat="46.278926650716976" lon="12.37463477290176"><ele>792.4000000000001</ele><time>2026-04-06T11:51:23Z</time></trkpt><trkpt lat="46.27887802362533" lon="12.374495287142365"><ele>791.6</ele><time>2026-04-06T11:51:24Z</time></trkpt><trkpt lat="46.278805933172436" lon="12.374375207678124"><ele>790.8</ele><time>2026-04-06T11:51:25Z</time></trkpt><trkpt lat="46.278757496699846" lon="12.374263655288702"><ele>790.0</ele><time>2026-04-06T11:51:26Z</time></trkpt><trkpt lat="46.27871991569023" lon="12.374159596581539"><ele>789.9999999999999</ele><time>2026-04-06T11:51:27Z</time></trkpt><trkpt lat="46.27870092568554" lon="12.3740479298244"><ele>790.0</ele><time>2026-04-06T11:51:28Z</time></trkpt><trkpt lat="46.278683355532664" lon="12.373946978217601"><ele>790.0</ele><time>2026-04-06T11:51:29Z</time></trkpt><trkpt lat="46.27864819883424" lon="12.373853028133219"><ele>790.0</ele><time>2026-04-06T11:51:30Z</time></trkpt><trkpt lat="46.27859859528501" lon="12.373761159189236"><ele>789.9999999999999</ele><time>2026-04-06T11:51:31Z</time></trkpt><trkpt lat="46.27853338009539" lon="12.373680868694192"><ele>790.0</ele><time>2026-04-06T11:51:32Z</time></trkpt><trkpt lat="46.27845191039609" lon="12.373624470382962"><ele>792.6</ele><time>2026-04-06T11:51:33Z</time></trkpt><trkpt lat="46.278358653326386" lon="12.373601938795035"><ele>795.2</ele><time>2026-04-06T11:51:34Z</time></trkpt><trkpt lat="46.278258288307825" lon="12.373589435828688"><ele>797.8</ele><time>2026-04-06T11:51:35Z</time></trkpt><trkpt lat="46.27817068924935" lon="12.373673307949975"><ele>800.4</ele><time>2026-04-06T11:51:36Z</time></trkpt><trkpt lat="46.27808687701421" lon="12.373746899959054"><ele>803.0</ele><time>2026-04-06T11:51:37Z</time></trkpt><trkpt lat="46.27800441496156" lon="12.373823838735929"><ele>800.4</ele><time>2026-04-06T11:51:38Z</time></trkpt><trkpt lat="46.27791942260274" lon="12.373900810020746"><ele>797.8</ele><time>2026-04-06T11:51:39Z</time></trkpt><trkpt lat="46.27782836318388" lon="12.373967898963745"><ele>795.2</ele><time>2026-04-06T11:51:40Z</time></trkpt><trkpt lat="46.2777323160533" lon="12.374016936586004"><ele>792.6</ele><time>2026-04-06T11:51:41Z</time></trkpt><trkpt lat="46.27763230495457" lon="12.374036625867921"><ele>790.0</ele><time>2026-04-06T11:51:42Z</time></trkpt><trkpt lat="46.27753785103829" lon="12.373990891551589"><ele>790.0</ele><time>2026-04-06T11:51:43Z</time></trkpt><trkpt lat="46.2774484128891" lon="12.373946632033942"><ele>790.0</ele><time>2026-04-06T11:51:44Z</time></trkpt><trkpt lat="46.277366618926365" lon="12.373874605495757"><ele>790.0</ele><time>2026-04-06T11:51:45Z</time></trkpt><trkpt lat="46.27728144751937" lon="12.37379058341503"><ele>790.0</ele><time>2026-04-06T11:51:46Z</time></trkpt><trkpt lat="46.27719018908802" lon="12.373716422598948"><ele>790.0</ele><time>2026-04-06T11:51:47Z</time></trkpt><trkpt lat="46.277116410444926" lon="12.37360774969963"><ele>790.4</ele><time>2026-04-06T11:51:48Z</time></trkpt><trkpt lat="46.277050697468525" lon="12.373485733743928"><ele>790.8</ele><time>2026-04-06T11:51:49Z</time></trkpt><trkpt lat="46.2770154113638" lon="12.373339805798656"><ele>791.2</ele><time>2026-04-06T11:51:50Z</time></trkpt><trkpt lat="46.276958535191035" lon="12.373205920631108"><ele>791.6</ele><time>2026-04-06T11:51:51Z</time></trkpt><trkpt lat="46.27691630658068" lon="12.373063550667505"><ele>792.0</ele><time>2026-04-06T11:51:52Z</time></trkpt><trkpt lat="46.2768625872037" lon="12.372927729563791"><ele>794.5</ele><time>2026-04-06T11:51:53Z</time></trkpt><trkpt lat="46.27679571069106" lon="12.372810748325392"><ele>797.0</ele><time>2026-04-06T11:51:54Z</time></trkpt><trkpt lat="46.27671888037172" lon="12.372691413482691"><ele>799.5</ele><time>2026-04-06T11:51:55Z</time></trkpt><trkpt lat="46.27661277985152" lon="12.372607430209305"><ele>802.0</ele><time>2026-04-06T11:51:56Z</time></trkpt><trkpt lat="46.27649019202304" lon="12.37255840921211"><ele>800.25</ele><time>2026-04-06T11:51:57Z</time></trkpt><trkpt lat="46.276366649770296" lon="12.37251492520315"><ele>798.5</ele><time>2026-04-06T11:51:58Z</time></trkpt><trkpt lat="46.27624108596678" lon="12.372471107432283"><ele>796.75</ele><time>2026-04-06T11:51:59Z</time></trkpt><trkpt lat="46.27611699985204" lon="12.372427889055784"><ele>795.0</ele><time>2026-04-06T11:52:00Z</time></trkpt><trkpt lat="46.275999387584875" lon="12.372387107656683"><ele>795.0</ele><time>2026-04-06T11:52:01Z</time></trkpt><trkpt lat="46.27588756748165" lon="12.372348334660515"><ele>795.0</ele><time>2026-04-06T11:52:02Z</time></trkpt><trkpt lat="46.27577977107647" lon="12.372310956861995"><ele>795.0</ele><time>2026-04-06T11:52:03Z</time></trkpt><trkpt lat="46.275674759532336" lon="12.372274544693102"><ele>795.0</ele><time>2026-04-06T11:52:04Z</time></trkpt><trkpt lat="46.27557170108826" lon="12.372237123039362"><ele>795.0</ele><time>2026-04-06T11:52:05Z</time></trkpt><trkpt lat="46.275467841269254" lon="12.372196882232355"><ele>796.75</ele><time>2026-04-06T11:52:06Z</time></trkpt><trkpt lat="46.275361844196475" lon="12.37214692428251"><ele>798.5</ele><time>2026-04-06T11:52:07Z</time></trkpt><trkpt lat="46.27525802907235" lon="12.372086682399237"><ele>800.25</ele><time>2026-04-06T11:52:08Z</time></trkpt><trkpt lat="46.27515559819985" lon="12.372012362271452"><ele>802.0</ele><time>2026-04-06T11:52:09Z</time></trkpt><trkpt lat="46.27504776550453" lon="12.371949817135446"><ele>802.0</ele><time>2026-04-06T11:52:10Z</time></trkpt><trkpt lat="46.27494523361928" lon="12.371849570345375"><ele>802.0</ele><time>2026-04-06T11:52:11Z</time></trkpt><trkpt lat="46.274840239066414" lon="12.371733529648424"><ele>802.0</ele><time>2026-04-06T11:52:12Z</time></trkpt><trkpt lat="46.27473614894529" lon="12.371593722191799"><ele>802.0</ele><time>2026-04-06T11:52:13Z</time></trkpt><trkpt lat="46.27464265297534" lon="12.371448043516708"><ele>799.75</ele><time>2026-04-06T11:52:14Z</time></trkpt><trkpt lat="46.27455893947741" lon="12.371309610925115"><ele>797.5</ele><time>2026-04-06T11:52:15Z</time></trkpt><trkpt lat="46.274483410508665" lon="12.371180852559894"><ele>795.25</ele><time>2026-04-06T11:52:16Z</time></trkpt><trkpt lat="46.27440908969112" lon="12.37105658659037"><ele>793.0</ele><time>2026-04-06T11:52:17Z</time></trkpt><trkpt lat="46.27433513894419" lon="12.37093491885493"><ele>793.0</ele><time>2026-04-06T11:52:18Z</time></trkpt><trkpt lat="46.27426317856909" lon="12.370813214918117"><ele>793.0</ele><time>2026-04-06T11:52:19Z</time></trkpt><trkpt lat="46.27419116109435" lon="12.37068901451887"><ele>793.0</ele><time>2026-04-06T11:52:20Z</time></trkpt><trkpt lat="46.274117027062175" lon="12.370566537109731"><ele>793.0</ele><time>2026-04-06T11:52:21Z</time></trkpt><trkpt lat="46.274047493849736" lon="12.370436900014942"><ele>793.0</ele><time>2026-04-06T11:52:22Z</time></trkpt><trkpt lat="46.273980048168" lon="12.370300515759068"><ele>789.5</ele><time>2026-04-06T11:52:23Z</time></trkpt><trkpt lat="46.273916109271894" lon="12.370157588211642"><ele>786.0</ele><time>2026-04-06T11:52:24Z</time></trkpt><trkpt lat="46.273852028861654" lon="12.370010314965302"><ele>782.5</ele><time>2026-04-06T11:52:25Z</time></trkpt><trkpt lat="46.27379517124539" lon="12.369852681552365"><ele>779.0</ele><time>2026-04-06T11:52:26Z</time></trkpt><trkpt lat="46.273756186812946" lon="12.369687157898301"><ele>778.0</ele><time>2026-04-06T11:52:27Z</time></trkpt><trkpt lat="46.27372888198458" lon="12.36951179536274"><ele>777.0</ele><time>2026-04-06T11:52:28Z</time></trkpt><trkpt lat="46.27370597896242" lon="12.369344795462334"><ele>776.0</ele><time>2026-04-06T11:52:29Z</time></trkpt><trkpt lat="46.27369284066746" lon="12.369191872279197"><ele>775.0</ele><time>2026-04-06T11:52:30Z</time></trkpt><trkpt lat="46.27370304332256" lon="12.36903710883227"><ele>775.0</ele><time>2026-04-06T11:52:31Z</time></trkpt><trkpt lat="46.273738299567995" lon="12.368877256285053"><ele>775.0</ele><time>2026-04-06T11:52:32Z</time></trkpt><trkpt lat="46.27378847196499" lon="12.368715578036186"><ele>775.0</ele><time>2026-04-06T11:52:33Z</time></trkpt><trkpt lat="46.27383812369167" lon="12.368570451330065"><ele>775.0</ele><time>2026-04-06T11:52:34Z</time></trkpt><trkpt lat="46.27388024695124" lon="12.368429840903241"><ele>776.0</ele><time>2026-04-06T11:52:35Z</time></trkpt><trkpt lat="46.27391523145963" lon="12.368283632550222"><ele>777.0</ele><time>2026-04-06T11:52:36Z</time></trkpt><trkpt lat="46.27392378151549" lon="12.368148792595825"><ele>778.0</ele><time>2026-04-06T11:52:37Z</time></trkpt><trkpt lat="46.27390168830571" lon="12.368011927014892"><ele>779.0</ele><time>2026-04-06T11:52:38Z</time></trkpt><trkpt lat="46.27384840823464" lon="12.367890432858779"><ele>780.0</ele><time>2026-04-06T11:52:39Z</time></trkpt><trkpt lat="46.27376691703793" lon="12.36779977707441"><ele>782.2</ele><time>2026-04-06T11:52:40Z</time></trkpt><trkpt lat="46.2736659053569" lon="12.367751332490919"><ele>784.4</ele><time>2026-04-06T11:52:41Z</time></trkpt><trkpt lat="46.273557089588074" lon="12.36775021497159"><ele>786.5999999999999</ele><time>2026-04-06T11:52:42Z</time></trkpt><trkpt lat="46.273446172971546" lon="12.3677470625931"><ele>788.8</ele><time>2026-04-06T11:52:43Z</time></trkpt><trkpt lat="46.273338161146484" lon="12.367758979732148"><ele>791.0</ele><time>2026-04-06T11:52:44Z</time></trkpt><trkpt lat="46.27324199691301" lon="12.367767011835301"><ele>791.0</ele><time>2026-04-06T11:52:45Z</time></trkpt><trkpt lat="46.273150413926544" lon="12.367780685969347"><ele>791.0</ele><time>2026-04-06T11:52:46Z</time></trkpt><trkpt lat="46.27305972594208" lon="12.367729623854997"><ele>791.0</ele><time>2026-04-06T11:52:47Z</time></trkpt><trkpt lat="46.272978340180664" lon="12.367643753071045"><ele>791.0</ele><time>2026-04-06T11:52:48Z</time></trkpt><trkpt lat="46.272911048877" lon="12.367534591273833"><ele>791.0</ele><time>2026-04-06T11:52:49Z</time></trkpt><trkpt lat="46.272852426534754" lon="12.367406715156752"><ele>787.25</ele><time>2026-04-06T11:52:50Z</time></trkpt><trkpt lat="46.272788219282326" lon="12.367279284807214"><ele>783.5</ele><time>2026-04-06T11:52:51Z</time></trkpt><trkpt lat="46.272737315260386" lon="12.367137287051987"><ele>779.75</ele><time>2026-04-06T11:52:52Z</time></trkpt><trkpt lat="46.27268979498096" lon="12.366988215314697"><ele>776.0</ele><time>2026-04-06T11:52:53Z</time></trkpt><trkpt lat="46.27265133427884" lon="12.36682900316114"><ele>776.0</ele><time>2026-04-06T11:52:54Z</time></trkpt><trkpt lat="46.2726148093819" lon="12.366655276367144"><ele>776.0</ele><time>2026-04-06T11:52:55Z</time></trkpt><trkpt lat="46.27257493805532" lon="12.366478315601348"><ele>776.0</ele><time>2026-04-06T11:52:56Z</time></trkpt><trkpt lat="46.27253257856587" lon="12.366296213139476"><ele>776.0</ele><time>2026-04-06T11:52:57Z</time></trkpt><trkpt lat="46.27248905932562" lon="12.366113621495062"><ele>777.25</ele><time>2026-04-06T11:52:58Z</time></trkpt><trkpt lat="46.272445797189796" lon="12.36592323419896"><ele>778.5</ele><time>2026-04-06T11:52:59Z</time></trkpt><trkpt lat="46.272409022696785" lon="12.365732742532026"><ele>779.75</ele><time>2026-04-06T11:53:00Z</time></trkpt><trkpt lat="46.27238459120294" lon="12.365533383444733"><ele>781.0</ele><time>2026-04-06T11:53:01Z</time></trkpt><trkpt lat="46.27236497485103" lon="12.365325827045176"><ele>783.0</ele><time>2026-04-06T11:53:02Z</time></trkpt><trkpt lat="46.27234984658188" lon="12.365106853145798"><ele>785.0</ele><time>2026-04-06T11:53:03Z</time></trkpt><trkpt lat="46.27233625784379" lon="12.36487329091695"><ele>787.0</ele><time>2026-04-06T11:53:04Z</time></trkpt><trkpt lat="46.272322621266234" lon="12.36463208729053"><ele>787.3333333333333</ele><time>2026-04-06T11:53:05Z</time></trkpt><trkpt lat="46.27230798138976" lon="12.364381416796355"><ele>787.6666666666667</ele><time>2026-04-06T11:53:06Z</time></trkpt><trkpt lat="46.27229409650997" lon="12.364141156115215"><ele>788.0</ele><time>2026-04-06T11:53:07Z</time></trkpt><trkpt lat="46.27228273032448" lon="12.363930319232296"><ele>784.0</ele><time>2026-04-06T11:53:08Z</time></trkpt><trkpt lat="46.27227085895129" lon="12.363741267303071"><ele>780.0</ele><time>2026-04-06T11:53:09Z</time></trkpt><trkpt lat="46.27225446108402" lon="12.3635758558355"><ele>776.0</ele><time>2026-04-06T11:53:10Z</time></trkpt><trkpt lat="46.272218383195856" lon="12.363440992612182"><ele>772.0</ele><time>2026-04-06T11:53:11Z</time></trkpt><trkpt lat="46.27215767900478" lon="12.363322985437089"><ele>768.0</ele><time>2026-04-06T11:53:12Z</time></trkpt><trkpt lat="46.272073359176915" lon="12.363248571622005"><ele>768.0</ele><time>2026-04-06T11:53:13Z</time></trkpt><trkpt lat="46.271972607696085" lon="12.363193082078368"><ele>768.0</ele><time>2026-04-06T11:53:14Z</time></trkpt><trkpt lat="46.271888307518985" lon="12.363103852315026"><ele>768.0</ele><time>2026-04-06T11:53:15Z</time></trkpt><trkpt lat="46.27180169747005" lon="12.363038702716555"><ele>768.0</ele><time>2026-04-06T11:53:16Z</time></trkpt><trkpt lat="46.27171637119581" lon="12.362974520659357"><ele>768.0</ele><time>2026-04-06T11:53:17Z</time></trkpt><trkpt lat="46.27164127690152" lon="12.362918033482135"><ele>767.4</ele><time>2026-04-06T11:53:18Z</time></trkpt><trkpt lat="46.27156012545573" lon="12.362856989873016"><ele>766.8</ele><time>2026-04-06T11:53:19Z</time></trkpt><trkpt lat="46.271474939771544" lon="12.362801433515164"><ele>766.2</ele><time>2026-04-06T11:53:20Z</time></trkpt><trkpt lat="46.27138758216472" lon="12.36275728193565"><ele>765.6</ele><time>2026-04-06T11:53:21Z</time></trkpt><trkpt lat="46.271292668243156" lon="12.362722950183098"><ele>765.0</ele><time>2026-04-06T11:53:22Z</time></trkpt><trkpt lat="46.27119256944779" lon="12.36271217281651"><ele>765.0</ele><time>2026-04-06T11:53:23Z</time></trkpt><trkpt lat="46.27109603222427" lon="12.362671434101438"><ele>765.0</ele><time>2026-04-06T11:53:24Z</time></trkpt><trkpt lat="46.27100844186564" lon="12.362606514890134"><ele>765.0</ele><time>2026-04-06T11:53:25Z</time></trkpt><trkpt lat="46.270953549057175" lon="12.3624938335923"><ele>765.0</ele><time>2026-04-06T11:53:26Z</time></trkpt><trkpt lat="46.2709203270965" lon="12.362358535901038"><ele>765.0</ele><time>2026-04-06T11:53:27Z</time></trkpt><trkpt lat="46.27090233739432" lon="12.362211363655335"><ele>766.25</ele><time>2026-04-06T11:53:28Z</time></trkpt><trkpt lat="46.27089878296871" lon="12.362053820588187"><ele>767.5</ele><time>2026-04-06T11:53:29Z</time></trkpt><trkpt lat="46.27090834069671" lon="12.36188627555922"><ele>768.75</ele><time>2026-04-06T11:53:30Z</time></trkpt><trkpt lat="46.2709291413246" lon="12.36171526127758"><ele>770.0</ele><time>2026-04-06T11:53:31Z</time></trkpt><trkpt lat="46.27095530226373" lon="12.361540645455506"><ele>770.0</ele><time>2026-04-06T11:53:32Z</time></trkpt><trkpt lat="46.27098195921226" lon="12.361391323921955"><ele>770.0</ele><time>2026-04-06T11:53:33Z</time></trkpt><trkpt lat="46.271014292920334" lon="12.361262587005436"><ele>770.0</ele><time>2026-04-06T11:53:34Z</time></trkpt><trkpt lat="46.27106344554545" lon="12.361144101926987"><ele>770.0</ele><time>2026-04-06T11:53:35Z</time></trkpt><trkpt lat="46.27113509367231" lon="12.361050521031371"><ele>770.0</ele><time>2026-04-06T11:53:36Z</time></trkpt><trkpt lat="46.271193533943936" lon="12.360950754202545"><ele>769.4</ele><time>2026-04-06T11:53:37Z</time></trkpt><trkpt lat="46.271234343039275" lon="12.360833393720362"><ele>768.8</ele><time>2026-04-06T11:53:38Z</time></trkpt><trkpt lat="46.271261212002" lon="12.360697249679292"><ele>768.2</ele><time>2026-04-06T11:53:39Z</time></trkpt><trkpt lat="46.27127234907604" lon="12.360549889384028"><ele>767.6</ele><time>2026-04-06T11:53:40Z</time></trkpt><trkpt lat="46.2712819716048" lon="12.360400686792428"><ele>767.0</ele><time>2026-04-06T11:53:41Z</time></trkpt><trkpt lat="46.271291128886375" lon="12.360243779175912"><ele>766.5</ele><time>2026-04-06T11:53:42Z</time></trkpt><trkpt lat="46.27130151450804" lon="12.360060834508966"><ele>766.0</ele><time>2026-04-06T11:53:43Z</time></trkpt><trkpt lat="46.27131462567538" lon="12.359837094981303"><ele>765.5</ele><time>2026-04-06T11:53:44Z</time></trkpt><trkpt lat="46.27132873926015" lon="12.359597276928426"><ele>765.0</ele><time>2026-04-06T11:53:45Z</time></trkpt><trkpt lat="46.2713306378338" lon="12.359380199721706"><ele>767.6666666666667</ele><time>2026-04-06T11:53:46Z</time></trkpt><trkpt lat="46.271307057696" lon="12.359173392758432"><ele>770.3333333333334</ele><time>2026-04-06T11:53:47Z</time></trkpt><trkpt lat="46.27124494727892" lon="12.35897431134513"><ele>773.0</ele><time>2026-04-06T11:53:48Z</time></trkpt><trkpt lat="46.2711536351667" lon="12.35877150201092"><ele>776.3333333333334</ele><time>2026-04-06T11:53:49Z</time></trkpt><trkpt lat="46.271072698147115" lon="12.358548188087129"><ele>779.6666666666667</ele><time>2026-04-06T11:53:50Z</time></trkpt><trkpt lat="46.2710107249823" lon="12.358296465308833"><ele>783.0</ele><time>2026-04-06T11:53:51Z</time></trkpt><trkpt lat="46.27096627917598" lon="12.358028426947955"><ele>785.6666666666667</ele><time>2026-04-06T11:53:52Z</time></trkpt><trkpt lat="46.27093184942984" lon="12.357748331475491"><ele>788.3333333333334</ele><time>2026-04-06T11:53:53Z</time></trkpt><trkpt lat="46.27091246497273" lon="12.357460222953435"><ele>791.0</ele><time>2026-04-06T11:53:54Z</time></trkpt><trkpt lat="46.27091047943524" lon="12.357175194772672"><ele>793.0</ele><time>2026-04-06T11:53:55Z</time></trkpt><trkpt lat="46.27093569243476" lon="12.35690889581164"><ele>795.0</ele><time>2026-04-06T11:53:56Z</time></trkpt><trkpt lat="46.27095156097506" lon="12.35665571791171"><ele>797.0</ele><time>2026-04-06T11:53:57Z</time></trkpt><trkpt lat="46.270942934765976" lon="12.356403575209024"><ele>799.6666666666667</ele><time>2026-04-06T11:53:58Z</time></trkpt><trkpt lat="46.27089913425199" lon="12.356160167218956"><ele>802.3333333333333</ele><time>2026-04-06T11:53:59Z</time></trkpt><trkpt lat="46.2708440742329" lon="12.355909107787598"><ele>805.0</ele><time>2026-04-06T11:54:00Z</time></trkpt><trkpt lat="46.27074590387621" lon="12.35566217201955"><ele>812.3333333333333</ele><time>2026-04-06T11:54:01Z</time></trkpt><trkpt lat="46.270666329547225" lon="12.355445825128514"><ele>819.6666666666667</ele><time>2026-04-06T11:54:02Z</time></trkpt><trkpt lat="46.27054907628864" lon="12.355211484762757"><ele>827.0</ele><time>2026-04-06T11:54:03Z</time></trkpt><trkpt lat="46.27051241209538" lon="12.355010388210808"><ele>816.3333333333334</ele><time>2026-04-06T11:54:04Z</time></trkpt><trkpt lat="46.270469429818675" lon="12.354782137558198"><ele>805.6666666666667</ele><time>2026-04-06T11:54:05Z</time></trkpt><trkpt lat="46.27040453251284" lon="12.354550266876393"><ele>795.0</ele><time>2026-04-06T11:54:06Z</time></trkpt><trkpt lat="46.27032222628091" lon="12.354344639919939"><ele>795.0</ele><time>2026-04-06T11:54:07Z</time></trkpt><trkpt lat="46.27024905546181" lon="12.35413101107153"><ele>795.0</ele><time>2026-04-06T11:54:08Z</time></trkpt><trkpt lat="46.27019561517799" lon="12.353937294305828"><ele>795.0</ele><time>2026-04-06T11:54:09Z</time></trkpt><trkpt lat="46.270126331026724" lon="12.35380618991307"><ele>795.0</ele><time>2026-04-06T11:54:10Z</time></trkpt><trkpt lat="46.27003474841053" lon="12.353679855805565"><ele>792.75</ele><time>2026-04-06T11:54:11Z</time></trkpt><trkpt lat="46.26992301052855" lon="12.353603725723115"><ele>790.5</ele><time>2026-04-06T11:54:12Z</time></trkpt><trkpt lat="46.26980573218467" lon="12.353550512291342"><ele>788.25</ele><time>2026-04-06T11:54:13Z</time></trkpt><trkpt lat="46.26969742714387" lon="12.353496722206623"><ele>786.0</ele><time>2026-04-06T11:54:14Z</time></trkpt><trkpt lat="46.26960135952955" lon="12.353437656350145"><ele>786.0</ele><time>2026-04-06T11:54:15Z</time></trkpt><trkpt lat="46.26950919230762" lon="12.353368963317964"><ele>786.0</ele><time>2026-04-06T11:54:16Z</time></trkpt><trkpt lat="46.269422388436844" lon="12.35327979777226"><ele>786.0</ele><time>2026-04-06T11:54:17Z</time></trkpt><trkpt lat="46.269348486231564" lon="12.353164531571498"><ele>786.0</ele><time>2026-04-06T11:54:18Z</time></trkpt><trkpt lat="46.269297117104735" lon="12.353023964534477"><ele>786.0</ele><time>2026-04-06T11:54:19Z</time></trkpt><trkpt lat="46.269286210907616" lon="12.352864934250691"><ele>788.0</ele><time>2026-04-06T11:54:20Z</time></trkpt><trkpt lat="46.26930809374294" lon="12.352699605518817"><ele>790.0</ele><time>2026-04-06T11:54:21Z</time></trkpt><trkpt lat="46.26933402259185" lon="12.352535283957373"><ele>792.0</ele><time>2026-04-06T11:54:22Z</time></trkpt><trkpt lat="46.26935744976584" lon="12.352362242748304"><ele>794.0</ele><time>2026-04-06T11:54:23Z</time></trkpt><trkpt lat="46.26938123649638" lon="12.352194255146202"><ele>794.0</ele><time>2026-04-06T11:54:24Z</time></trkpt><trkpt lat="46.269400894695174" lon="12.352041050174412"><ele>794.0</ele><time>2026-04-06T11:54:25Z</time></trkpt><trkpt lat="46.26942045585538" lon="12.351897108528856"><ele>794.0</ele><time>2026-04-06T11:54:26Z</time></trkpt><trkpt lat="46.269439053446035" lon="12.351745101692789"><ele>794.0</ele><time>2026-04-06T11:54:27Z</time></trkpt><trkpt lat="46.26945313580225" lon="12.351588725231705"><ele>794.0</ele><time>2026-04-06T11:54:28Z</time></trkpt><trkpt lat="46.26945725435183" lon="12.351427940599072"><ele>795.0</ele><time>2026-04-06T11:54:29Z</time></trkpt><trkpt lat="46.26944674189267" lon="12.351253566196096"><ele>796.0</ele><time>2026-04-06T11:54:30Z</time></trkpt><trkpt lat="46.26942337236687" lon="12.351065488958202"><ele>797.0</ele><time>2026-04-06T11:54:31Z</time></trkpt><trkpt lat="46.26939163404629" lon="12.350865302241298"><ele>798.0</ele><time>2026-04-06T11:54:32Z</time></trkpt><trkpt lat="46.269351023680834" lon="12.350653162530083"><ele>801.0</ele><time>2026-04-06T11:54:33Z</time></trkpt><trkpt lat="46.269309145896045" lon="12.350428954318591"><ele>804.0</ele><time>2026-04-06T11:54:34Z</time></trkpt><trkpt lat="46.269268327253855" lon="12.350195991412559"><ele>807.0</ele><time>2026-04-06T11:54:35Z</time></trkpt><trkpt lat="46.26922791728117" lon="12.349959845123363"><ele>807.0</ele><time>2026-04-06T11:54:36Z</time></trkpt><trkpt lat="46.2691866615075" lon="12.349731832664196"><ele>807.0</ele><time>2026-04-06T11:54:37Z</time></trkpt><trkpt lat="46.269145602939176" lon="12.349518466868457"><ele>807.0</ele><time>2026-04-06T11:54:38Z</time></trkpt><trkpt lat="46.26910121788327" lon="12.349319354474586"><ele>808.25</ele><time>2026-04-06T11:54:39Z</time></trkpt><trkpt lat="46.269054634813074" lon="12.34914763270084"><ele>809.5</ele><time>2026-04-06T11:54:40Z</time></trkpt><trkpt lat="46.26900085091544" lon="12.348999524540096"><ele>810.75</ele><time>2026-04-06T11:54:41Z</time></trkpt><trkpt lat="46.26893853909368" lon="12.34885593641495"><ele>812.0</ele><time>2026-04-06T11:54:42Z</time></trkpt><trkpt lat="46.26887873418811" lon="12.34872971921491"><ele>807.8</ele><time>2026-04-06T11:54:43Z</time></trkpt><trkpt lat="46.26882801042011" lon="12.348630180628994"><ele>803.6</ele><time>2026-04-06T11:54:44Z</time></trkpt><trkpt lat="46.2687904467343" lon="12.348551590512745"><ele>799.4</ele><time>2026-04-06T11:54:45Z</time></trkpt><trkpt lat="46.268744797548706" lon="12.348401634889"><ele>795.1999999999999</ele><time>2026-04-06T11:54:47Z</time></trkpt><trkpt lat="46.26872785706747" lon="12.348227270263926"><ele>791.0</ele><time>2026-04-06T11:54:49Z</time></trkpt><trkpt lat="46.268734411501896" lon="12.348112835213948"><ele>796.1999999999999</ele><time>2026-04-06T11:54:50Z</time></trkpt><trkpt lat="46.26875459491623" lon="12.34797952963765"><ele>801.4</ele><time>2026-04-06T11:54:50.999Z</time></trkpt><trkpt lat="46.26880590953004" lon="12.347835328926198"><ele>806.6</ele><time>2026-04-06T11:54:51.999Z</time></trkpt><trkpt lat="46.26886808333154" lon="12.3476895645572"><ele>811.8</ele><time>2026-04-06T11:54:52.999Z</time></trkpt><trkpt lat="46.26893151557226" lon="12.347540799622655"><ele>817.0</ele><time>2026-04-06T11:54:53.999Z</time></trkpt><trkpt lat="46.26899191705417" lon="12.347382494059076"><ele>815.5</ele><time>2026-04-06T11:54:55Z</time></trkpt><trkpt lat="46.269058926358525" lon="12.34720589578478"><ele>814.0</ele><time>2026-04-06T11:54:56Z</time></trkpt><trkpt lat="46.269129107540756" lon="12.347011728772634"><ele>812.5</ele><time>2026-04-06T11:54:57Z</time></trkpt><trkpt lat="46.26919607376718" lon="12.346806801218875"><ele>811.0</ele><time>2026-04-06T11:54:58Z</time></trkpt><trkpt lat="46.26925918155751" lon="12.34659997585857"><ele>811.0</ele><time>2026-04-06T11:54:59Z</time></trkpt><trkpt lat="46.2693225756663" lon="12.346391345418036"><ele>811.0</ele><time>2026-04-06T11:55:00Z</time></trkpt><trkpt lat="46.269381376087246" lon="12.346176233981925"><ele>811.0</ele><time>2026-04-06T11:55:01Z</time></trkpt><trkpt lat="46.269434965890596" lon="12.345955359383604"><ele>807.3333333333333</ele><time>2026-04-06T11:55:02Z</time></trkpt><trkpt lat="46.269487744844504" lon="12.345734785037276"><ele>803.6666666666667</ele><time>2026-04-06T11:55:03Z</time></trkpt><trkpt lat="46.26953480856458" lon="12.345514279507382"><ele>800.0</ele><time>2026-04-06T11:55:04Z</time></trkpt><trkpt lat="46.26957550827135" lon="12.345292734186057"><ele>799.0</ele><time>2026-04-06T11:55:05Z</time></trkpt><trkpt lat="46.26961316122715" lon="12.3450664479655"><ele>798.0</ele><time>2026-04-06T11:55:06Z</time></trkpt><trkpt lat="46.26964933131667" lon="12.344844569902833"><ele>797.0</ele><time>2026-04-06T11:55:07Z</time></trkpt><trkpt lat="46.269684954831625" lon="12.344627491696427"><ele>800.3333333333334</ele><time>2026-04-06T11:55:08Z</time></trkpt><trkpt lat="46.26972079324889" lon="12.344410996426703"><ele>803.6666666666667</ele><time>2026-04-06T11:55:09Z</time></trkpt><trkpt lat="46.269755126042874" lon="12.34419258858558"><ele>807.0</ele><time>2026-04-06T11:55:10Z</time></trkpt><trkpt lat="46.26979071761756" lon="12.343974837779502"><ele>809.3333333333333</ele><time>2026-04-06T11:55:11Z</time></trkpt><trkpt lat="46.26982812098806" lon="12.34375160647524"><ele>811.6666666666666</ele><time>2026-04-06T11:55:12Z</time></trkpt><trkpt lat="46.26986571073974" lon="12.34352451483164"><ele>814.0</ele><time>2026-04-06T11:55:13Z</time></trkpt><trkpt lat="46.269901146229344" lon="12.343300650284728"><ele>814.0</ele><time>2026-04-06T11:55:14Z</time></trkpt><trkpt lat="46.26993830764752" lon="12.343078881403965"><ele>814.0</ele><time>2026-04-06T11:55:15Z</time></trkpt><trkpt lat="46.26997512855549" lon="12.342857666140931"><ele>814.0</ele><time>2026-04-06T11:55:16Z</time></trkpt><trkpt lat="46.27000626437699" lon="12.34263393098373"><ele>813.0</ele><time>2026-04-06T11:55:17Z</time></trkpt><trkpt lat="46.27003333997178" lon="12.342411530124364"><ele>812.0</ele><time>2026-04-06T11:55:18Z</time></trkpt><trkpt lat="46.27005462902654" lon="12.342189838635743"><ele>811.0</ele><time>2026-04-06T11:55:19Z</time></trkpt><trkpt lat="46.27007077718389" lon="12.341963840506928"><ele>811.0</ele><time>2026-04-06T11:55:20Z</time></trkpt><trkpt lat="46.27008689108752" lon="12.341734479762541"><ele>811.0</ele><time>2026-04-06T11:55:21Z</time></trkpt><trkpt lat="46.270102536840334" lon="12.341504025776695"><ele>811.0</ele><time>2026-04-06T11:55:22Z</time></trkpt><trkpt lat="46.270122750634016" lon="12.341273577819138"><ele>809.5</ele><time>2026-04-06T11:55:23Z</time></trkpt><trkpt lat="46.27014039030369" lon="12.341057699242837"><ele>808.0</ele><time>2026-04-06T11:55:24Z</time></trkpt><trkpt lat="46.2701538884069" lon="12.34084764140529"><ele>806.5</ele><time>2026-04-06T11:55:25Z</time></trkpt><trkpt lat="46.27016686024219" lon="12.340644132104138"><ele>805.0</ele><time>2026-04-06T11:55:26Z</time></trkpt><trkpt lat="46.270181164933064" lon="12.340444337516681"><ele>803.0</ele><time>2026-04-06T11:55:27Z</time></trkpt><trkpt lat="46.27019106946675" lon="12.340246749002977"><ele>801.0</ele><time>2026-04-06T11:55:28Z</time></trkpt><trkpt lat="46.27018803982131" lon="12.340044672401277"><ele>799.0</ele><time>2026-04-06T11:55:29Z</time></trkpt><trkpt lat="46.27016643945897" lon="12.339843369008264"><ele>797.0</ele><time>2026-04-06T11:55:30Z</time></trkpt><trkpt lat="46.27012194502757" lon="12.339640016195462"><ele>797.0</ele><time>2026-04-06T11:55:31Z</time></trkpt><trkpt lat="46.270055582575125" lon="12.339448091424138"><ele>797.0</ele><time>2026-04-06T11:55:32Z</time></trkpt><trkpt lat="46.2699685714903" lon="12.339261293391496"><ele>797.0</ele><time>2026-04-06T11:55:33Z</time></trkpt><trkpt lat="46.269870841330366" lon="12.33908385619344"><ele>796.6666666666667</ele><time>2026-04-06T11:55:34Z</time></trkpt><trkpt lat="46.269770560612464" lon="12.338909748635512"><ele>796.3333333333333</ele><time>2026-04-06T11:55:35Z</time></trkpt><trkpt lat="46.26967016751461" lon="12.338734114632281"><ele>796.0</ele><time>2026-04-06T11:55:36Z</time></trkpt><trkpt lat="46.269573369839705" lon="12.338555079888925"><ele>795.5</ele><time>2026-04-06T11:55:37Z</time></trkpt><trkpt lat="46.26948220395298" lon="12.338393725820476"><ele>795.0</ele><time>2026-04-06T11:55:38Z</time></trkpt><trkpt lat="46.269393424246" lon="12.33824135057584"><ele>794.5</ele><time>2026-04-06T11:55:39Z</time></trkpt><trkpt lat="46.26930052186967" lon="12.338084158605596"><ele>794.0</ele><time>2026-04-06T11:55:40Z</time></trkpt><trkpt lat="46.26920494301386" lon="12.33791673537936"><ele>794.0</ele><time>2026-04-06T11:55:41Z</time></trkpt><trkpt lat="46.26910985897661" lon="12.337744048352949"><ele>794.0</ele><time>2026-04-06T11:55:42Z</time></trkpt><trkpt lat="46.26901300054347" lon="12.337577109928073"><ele>794.0</ele><time>2026-04-06T11:55:43Z</time></trkpt><trkpt lat="46.268920444637885" lon="12.33741712859815"><ele>794.0</ele><time>2026-04-06T11:55:44Z</time></trkpt><trkpt lat="46.26883788903504" lon="12.337267363784298"><ele>790.75</ele><time>2026-04-06T11:55:45Z</time></trkpt><trkpt lat="46.268767682782205" lon="12.337122973704009"><ele>787.5</ele><time>2026-04-06T11:55:46Z</time></trkpt><trkpt lat="46.26871785812096" lon="12.336966165883338"><ele>784.25</ele><time>2026-04-06T11:55:47Z</time></trkpt><trkpt lat="46.268683385482916" lon="12.336796692007914"><ele>781.0</ele><time>2026-04-06T11:55:48Z</time></trkpt><trkpt lat="46.268665740272866" lon="12.336616643616942"><ele>781.0</ele><time>2026-04-06T11:55:49Z</time></trkpt><trkpt lat="46.26867026050017" lon="12.336435815633054"><ele>781.0</ele><time>2026-04-06T11:55:50Z</time></trkpt><trkpt lat="46.26869574827466" lon="12.336262490505794"><ele>781.0</ele><time>2026-04-06T11:55:51Z</time></trkpt><trkpt lat="46.268740356603885" lon="12.336097027517653"><ele>781.0</ele><time>2026-04-06T11:55:52Z</time></trkpt><trkpt lat="46.26880816987653" lon="12.335949256039912"><ele>780.75</ele><time>2026-04-06T11:55:53Z</time></trkpt><trkpt lat="46.26888854455122" lon="12.335812919837528"><ele>780.5</ele><time>2026-04-06T11:55:54Z</time></trkpt><trkpt lat="46.26898109873648" lon="12.335695254387238"><ele>780.25</ele><time>2026-04-06T11:55:55Z</time></trkpt><trkpt lat="46.269099332870574" lon="12.335600514357527"><ele>780.0</ele><time>2026-04-06T11:55:56Z</time></trkpt><trkpt lat="46.26920135584085" lon="12.33555585743344"><ele>773.75</ele><time>2026-04-06T11:55:57Z</time></trkpt><trkpt lat="46.269323410309966" lon="12.33552721767871"><ele>767.5</ele><time>2026-04-06T11:55:58Z</time></trkpt><trkpt lat="46.269440630506615" lon="12.335497864495231"><ele>761.25</ele><time>2026-04-06T11:55:59Z</time></trkpt><trkpt lat="46.26954596022849" lon="12.335448629359894"><ele>755.0</ele><time>2026-04-06T11:56:00Z</time></trkpt><trkpt lat="46.26964468344882" lon="12.335370154170956"><ele>755.0</ele><time>2026-04-06T11:56:01Z</time></trkpt><trkpt lat="46.269732632490445" lon="12.33527289031004"><ele>755.0</ele><time>2026-04-06T11:56:02Z</time></trkpt><trkpt lat="46.269805060398824" lon="12.335157621177538"><ele>755.0</ele><time>2026-04-06T11:56:03Z</time></trkpt><trkpt lat="46.26985953606297" lon="12.335025102967919"><ele>755.0</ele><time>2026-04-06T11:56:04Z</time></trkpt><trkpt lat="46.26990778966777" lon="12.334885535655431"><ele>755.0</ele><time>2026-04-06T11:56:05Z</time></trkpt><trkpt lat="46.269948324679746" lon="12.33473792921092"><ele>761.6</ele><time>2026-04-06T11:56:06Z</time></trkpt><trkpt lat="46.26998741914014" lon="12.334589735833372"><ele>768.2</ele><time>2026-04-06T11:56:07Z</time></trkpt><trkpt lat="46.27002787356014" lon="12.334445801800612"><ele>774.8</ele><time>2026-04-06T11:56:08Z</time></trkpt><trkpt lat="46.27006040552302" lon="12.334306751501005"><ele>781.4</ele><time>2026-04-06T11:56:09Z</time></trkpt><trkpt lat="46.27009045873845" lon="12.334188865739788"><ele>788.0</ele><time>2026-04-06T11:56:10Z</time></trkpt><trkpt lat="46.27010863543977" lon="12.334072887088766"><ele>788.0000000000001</ele><time>2026-04-06T11:56:11Z</time></trkpt><trkpt lat="46.27010994253345" lon="12.333957133695614"><ele>788.0</ele><time>2026-04-06T11:56:12Z</time></trkpt><trkpt lat="46.27008498217765" lon="12.333833529793672"><ele>788.0</ele><time>2026-04-06T11:56:13Z</time></trkpt><trkpt lat="46.2700335280989" lon="12.333724695047179"><ele>788.0</ele><time>2026-04-06T11:56:14Z</time></trkpt><trkpt lat="46.26996102166519" lon="12.333654607610194"><ele>788.0000000000001</ele><time>2026-04-06T11:56:15Z</time></trkpt><trkpt lat="46.26988090035568" lon="12.333620395872641"><ele>788.0</ele><time>2026-04-06T11:56:16Z</time></trkpt><trkpt lat="46.26980273630322" lon="12.333615883049331"><ele>779.6666666666667</ele><time>2026-04-06T11:56:17Z</time></trkpt><trkpt lat="46.269724367074645" lon="12.333633116776104"><ele>771.3333333333334</ele><time>2026-04-06T11:56:18Z</time></trkpt><trkpt lat="46.26964344414711" lon="12.333635330011804"><ele>763.0</ele><time>2026-04-06T11:56:19Z</time></trkpt><trkpt lat="46.269564646782854" lon="12.333594572585776"><ele>754.6666666666667</ele><time>2026-04-06T11:56:20Z</time></trkpt><trkpt lat="46.269499149091814" lon="12.33350406119308"><ele>746.3333333333334</ele><time>2026-04-06T11:56:21Z</time></trkpt><trkpt lat="46.26946038660476" lon="12.333373218883208"><ele>738.0</ele><time>2026-04-06T11:56:22Z</time></trkpt><trkpt lat="46.269453726735826" lon="12.333215518186817"><ele>738.0</ele><time>2026-04-06T11:56:23Z</time></trkpt><trkpt lat="46.269473631003954" lon="12.333045768935182"><ele>738.0</ele><time>2026-04-06T11:56:24Z</time></trkpt><trkpt lat="46.26949511125761" lon="12.332877327706761"><ele>738.0</ele><time>2026-04-06T11:56:25Z</time></trkpt><trkpt lat="46.26950085641486" lon="12.332701995609666"><ele>738.0</ele><time>2026-04-06T11:56:26Z</time></trkpt><trkpt lat="46.269499789545605" lon="12.332522186505134"><ele>738.0</ele><time>2026-04-06T11:56:27Z</time></trkpt><trkpt lat="46.26948208624405" lon="12.3323368526049"><ele>738.0</ele><time>2026-04-06T11:56:28Z</time></trkpt><trkpt lat="46.269444685814385" lon="12.332158119881093"><ele>738.0</ele><time>2026-04-06T11:56:29Z</time></trkpt><trkpt lat="46.26939927681206" lon="12.3319837373078"><ele>738.0</ele><time>2026-04-06T11:56:30Z</time></trkpt><trkpt lat="46.26934613747625" lon="12.331813922513145"><ele>739.0</ele><time>2026-04-06T11:56:31Z</time></trkpt><trkpt lat="46.26928657536085" lon="12.331652902133518"><ele>740.0</ele><time>2026-04-06T11:56:32Z</time></trkpt><trkpt lat="46.26923438836226" lon="12.331504147849355"><ele>741.0</ele><time>2026-04-06T11:56:33Z</time></trkpt><trkpt lat="46.26917790830965" lon="12.331339293381347"><ele>742.0</ele><time>2026-04-06T11:56:34Z</time></trkpt><trkpt lat="46.26911469545907" lon="12.331161065280941"><ele>742.2</ele><time>2026-04-06T11:56:35Z</time></trkpt><trkpt lat="46.26905839188671" lon="12.331001401076085"><ele>742.4000000000001</ele><time>2026-04-06T11:56:36Z</time></trkpt><trkpt lat="46.269008511701976" lon="12.330864033976399"><ele>742.5999999999999</ele><time>2026-04-06T11:56:37Z</time></trkpt><trkpt lat="46.26896190796428" lon="12.330745342258412"><ele>742.8</ele><time>2026-04-06T11:56:38Z</time></trkpt><trkpt lat="46.26891207568267" lon="12.330643972829737"><ele>743.0</ele><time>2026-04-06T11:56:39Z</time></trkpt><trkpt lat="46.268862804252294" lon="12.330561935679219"><ele>740.0</ele><time>2026-04-06T11:56:40Z</time></trkpt><trkpt lat="46.26878821878688" lon="12.330457333173825"><ele>737.0</ele><time>2026-04-06T11:56:42Z</time></trkpt><trkpt lat="46.26873007619607" lon="12.330387582885999"><ele>734.0</ele><time>2026-04-06T11:56:44Z</time></trkpt><trkpt lat="46.26867394764098" lon="12.330321596303826"><ele>731.0</ele><time>2026-04-06T11:56:47Z</time></trkpt><trkpt lat="46.26861031192574" lon="12.330246974686467"><ele>728.0</ele><time>2026-04-06T12:00:01Z</time></trkpt><trkpt lat="46.26855812434542" lon="12.330192637633047"><ele>725.0</ele><time>2026-04-06T12:00:03Z</time></trkpt><trkpt lat="46.26847110033311" lon="12.330102886054918"><ele>725.0</ele><time>2026-04-06T12:00:05Z</time></trkpt><trkpt lat="46.26839176895667" lon="12.330013402730634"><ele>725.0</ele><time>2026-04-06T12:00:07Z</time></trkpt><trkpt lat="46.26834301190586" lon="12.329939102714556"><ele>725.0</ele><time>2026-04-06T12:00:08Z</time></trkpt><trkpt lat="46.268297438374375" lon="12.329848517670007"><ele>725.0</ele><time>2026-04-06T12:00:09Z</time></trkpt><trkpt lat="46.2682613487482" lon="12.329764285530612"><ele>725.0</ele><time>2026-04-06T12:00:10Z</time></trkpt><trkpt lat="46.26823732101705" lon="12.329590701594832"><ele>725.0</ele><time>2026-04-06T12:00:12Z</time></trkpt><trkpt lat="46.26822599819636" lon="12.329420860851396"><ele>727.1428571428571</ele><time>2026-04-06T12:00:14Z</time></trkpt><trkpt lat="46.268218838607076" lon="12.329322148343547"><ele>729.2857142857143</ele><time>2026-04-06T12:00:15Z</time></trkpt><trkpt lat="46.268211287152276" lon="12.329218032961352"><ele>731.4285714285713</ele><time>2026-04-06T12:00:16Z</time></trkpt><trkpt lat="46.26820401047385" lon="12.329120265554627"><ele>733.5714285714286</ele><time>2026-04-06T12:00:17Z</time></trkpt><trkpt lat="46.268196093460375" lon="12.32902282418911"><ele>735.7142857142857</ele><time>2026-04-06T12:00:18Z</time></trkpt><trkpt lat="46.268187915610135" lon="12.32892217246508"><ele>737.8571428571428</ele><time>2026-04-06T12:00:19Z</time></trkpt><trkpt lat="46.26817882557408" lon="12.328810293702197"><ele>740.0</ele><time>2026-04-06T12:00:20.056Z</time></trkpt><trkpt lat="46.26816948965429" lon="12.328695388713225"><ele>742.0</ele><time>2026-04-06T12:00:21.055Z</time></trkpt><trkpt lat="46.268161465016625" lon="12.328596622753071"><ele>744.0</ele><time>2026-04-06T12:00:22.057Z</time></trkpt><trkpt lat="46.26813531711506" lon="12.326301376408757"><ele>744.0</ele><time>2026-04-06T12:00:25.626Z</time></trkpt><trkpt lat="46.26814197340607" lon="12.325660894489417"><ele>744.0</ele><time>2026-04-06T12:00:26.626Z</time></trkpt><trkpt lat="46.267879597140656" lon="12.325157285534202"><ele>744.0</ele><time>2026-04-06T12:00:27.625Z</time></trkpt><trkpt lat="46.267408598364135" lon="12.323807428629273"><ele>744.0</ele><time>2026-04-06T12:00:30.626Z</time></trkpt><trkpt lat="46.267518879650034" lon="12.3231811345628"><ele>744.0</ele><time>2026-04-06T12:00:31.626Z</time></trkpt><trkpt lat="46.26807959949591" lon="12.326436453782827"><ele>744.0</ele><time>2026-04-06T12:00:33.038Z</time></trkpt><trkpt lat="46.268154461919075" lon="12.326280661622514"><ele>744.0</ele><time>2026-04-06T12:00:34.036Z</time></trkpt><trkpt lat="46.26816738414397" lon="12.326170922622735"><ele>744.0</ele><time>2026-04-06T12:00:35.034Z</time></trkpt><trkpt lat="46.26818328353901" lon="12.326018983940115"><ele>744.0</ele><time>2026-04-06T12:00:36.037Z</time></trkpt><trkpt lat="46.26817163529288" lon="12.325684542370036"><ele>744.0</ele><time>2026-04-06T12:00:37.037Z</time></trkpt><trkpt lat="46.26817840782086" lon="12.32542516012435"><ele>744.0</ele><time>2026-04-06T12:00:38.036Z</time></trkpt><trkpt lat="46.26811464246244" lon="12.325272503835208"><ele>744.0</ele><time>2026-04-06T12:00:39.035Z</time></trkpt><trkpt lat="46.26805155773858" lon="12.32514449599355"><ele>744.0</ele><time>2026-04-06T12:00:40.034Z</time></trkpt><trkpt lat="46.268602529744285" lon="12.324478167868705"><ele>744.0</ele><time>2026-04-06T12:00:42.031Z</time></trkpt><trkpt lat="46.268655966912235" lon="12.324241583670727"><ele>744.0</ele><time>2026-04-06T12:00:43.03Z</time></trkpt><trkpt lat="46.26870991230762" lon="12.324013355237692"><ele>744.0</ele><time>2026-04-06T12:00:44.03Z</time></trkpt><trkpt lat="46.26746925835592" lon="12.324727109001548"><ele>744.0</ele><time>2026-04-06T12:00:49Z</time></trkpt><trkpt lat="46.267344509570854" lon="12.324643666614874"><ele>744.0</ele><time>2026-04-06T12:00:50Z</time></trkpt><trkpt lat="46.267298642421174" lon="12.32451324916133"><ele>744.0</ele><time>2026-04-06T12:00:50.999Z</time></trkpt><trkpt lat="46.267290851339105" lon="12.324401929284907"><ele>744.0</ele><time>2026-04-06T12:00:51.999Z</time></trkpt><trkpt lat="46.26734692991206" lon="12.32423866404334"><ele>744.0</ele><time>2026-04-06T12:00:52.999Z</time></trkpt><trkpt lat="46.26738523424622" lon="12.324083803203953"><ele>744.0</ele><time>2026-04-06T12:00:53.999Z</time></trkpt><trkpt lat="46.2674352249756" lon="12.323911285300648"><ele>744.0</ele><time>2026-04-06T12:00:54.999Z</time></trkpt><trkpt lat="46.26747574586586" lon="12.323759963810353"><ele>744.0</ele><time>2026-04-06T12:00:55.999Z</time></trkpt><trkpt lat="46.267521366597336" lon="12.323598339923192"><ele>744.0</ele><time>2026-04-06T12:00:56.999Z</time></trkpt><trkpt lat="46.267569057475974" lon="12.323425521709856"><ele>744.0</ele><time>2026-04-06T12:00:57.999Z</time></trkpt><trkpt lat="46.267611579557965" lon="12.323253811990844"><ele>744.0</ele><time>2026-04-06T12:00:58.999Z</time></trkpt><trkpt lat="46.267532867171795" lon="12.323232884971084"><ele>744.0</ele><time>2026-04-06T12:01:00.068Z</time></trkpt><trkpt lat="46.267536728489084" lon="12.323113504421432"><ele>744.0</ele><time>2026-04-06T12:01:01.043Z</time></trkpt><trkpt lat="46.267537036022404" lon="12.32299306310262"><ele>744.0</ele><time>2026-04-06T12:01:02.044Z</time></trkpt><trkpt lat="46.26753402527622" lon="12.322864550378451"><ele>744.0</ele><time>2026-04-06T12:01:03.043Z</time></trkpt><trkpt lat="46.267531777806745" lon="12.322768618014578"><ele>744.0</ele><time>2026-04-06T12:01:04.038Z</time></trkpt><trkpt lat="46.2675292626954" lon="12.322661261267614"><ele>744.0</ele><time>2026-04-06T12:01:05.041Z</time></trkpt><trkpt lat="46.267526678203566" lon="12.322550943197324"><ele>744.0</ele><time>2026-04-06T12:01:06.033Z</time></trkpt><trkpt lat="46.26752386317267" lon="12.322430784515458"><ele>744.0</ele><time>2026-04-06T12:01:07.039Z</time></trkpt><trkpt lat="46.26752007507703" lon="12.32226909055248"><ele>744.0</ele><time>2026-04-06T12:01:08.036Z</time></trkpt><trkpt lat="46.267879515931256" lon="12.320076335317083"><ele>744.0</ele><time>2026-04-06T12:01:11.626Z</time></trkpt><trkpt lat="46.26839475962289" lon="12.319181645035014"><ele>722.0</ele><time>2026-04-06T12:01:12.626Z</time></trkpt><trkpt lat="46.26906705115105" lon="12.31853364275978"><ele>649.0</ele><time>2026-04-06T12:01:13.625Z</time></trkpt><trkpt lat="46.269686021817776" lon="12.317801965426352"><ele>677.5</ele><time>2026-04-06T12:01:14.625Z</time></trkpt><trkpt lat="46.2698377" lon="12.3175368"><ele>706.0</ele><time>2026-04-06T12:01:15.626Z</time></trkpt><trkpt lat="46.27026815439567" lon="12.317499147477275"><ele>706.0</ele><time>2026-04-06T12:01:41.999Z</time></trkpt><trkpt lat="46.2703708652979" lon="12.317608827415878"><ele>706.0</ele><time>2026-04-06T12:01:42.999Z</time></trkpt><trkpt lat="46.27046055125489" lon="12.31751963803964"><ele>706.0</ele><time>2026-04-06T12:01:43.999Z</time></trkpt><trkpt lat="46.27053898115731" lon="12.317441290014688"><ele>706.0</ele><time>2026-04-06T12:01:44.999Z</time></trkpt><trkpt lat="46.270652064422315" lon="12.31735896974427"><ele>719.75</ele><time>2026-04-06T12:01:45.999Z</time></trkpt><trkpt lat="46.2707782839066" lon="12.317311521212309"><ele>733.5</ele><time>2026-04-06T12:01:46.999Z</time></trkpt><trkpt lat="46.27089960526779" lon="12.317280178352844"><ele>747.25</ele><time>2026-04-06T12:01:47.999Z</time></trkpt><trkpt lat="46.27102417183222" lon="12.317276393626056"><ele>761.0</ele><time>2026-04-06T12:01:48.999Z</time></trkpt><trkpt lat="46.27114189036439" lon="12.317236978944669"><ele>738.25</ele><time>2026-04-06T12:01:49.999Z</time></trkpt><trkpt lat="46.271259698839344" lon="12.317201644095398"><ele>715.5</ele><time>2026-04-06T12:01:50.999Z</time></trkpt><trkpt lat="46.27137669834167" lon="12.317169655742056"><ele>692.75</ele><time>2026-04-06T12:01:51.999Z</time></trkpt><trkpt lat="46.271490300567756" lon="12.317131353522255"><ele>670.0</ele><time>2026-04-06T12:01:52.999Z</time></trkpt><trkpt lat="46.27160384009638" lon="12.317107184146796"><ele>670.0</ele><time>2026-04-06T12:01:53.999Z</time></trkpt><trkpt lat="46.27170965917014" lon="12.31706917187442"><ele>670.0</ele><time>2026-04-06T12:01:55Z</time></trkpt><trkpt lat="46.271814337243306" lon="12.317049598268774"><ele>670.0</ele><time>2026-04-06T12:01:56Z</time></trkpt><trkpt lat="46.271916129786476" lon="12.317027363745451"><ele>670.0</ele><time>2026-04-06T12:01:57Z</time></trkpt><trkpt lat="46.27201393203315" lon="12.317018879052691"><ele>670.0</ele><time>2026-04-06T12:01:58Z</time></trkpt><trkpt lat="46.2721094672282" lon="12.31703409195708"><ele>670.0</ele><time>2026-04-06T12:01:59Z</time></trkpt><trkpt lat="46.272205253820644" lon="12.317063300641681"><ele>670.0</ele><time>2026-04-06T12:02:00Z</time></trkpt><trkpt lat="46.272305666362655" lon="12.317098050740276"><ele>670.0</ele><time>2026-04-06T12:02:01Z</time></trkpt><trkpt lat="46.27241405253856" lon="12.317126939485622"><ele>670.0</ele><time>2026-04-06T12:02:02Z</time></trkpt><trkpt lat="46.272524580740885" lon="12.317155384508556"><ele>670.0</ele><time>2026-04-06T12:02:03Z</time></trkpt><trkpt lat="46.27263938527065" lon="12.317184617615176"><ele>666.5</ele><time>2026-04-06T12:02:04Z</time></trkpt><trkpt lat="46.272765100204595" lon="12.317216797717103"><ele>663.0</ele><time>2026-04-06T12:02:05Z</time></trkpt><trkpt lat="46.27289299149363" lon="12.317245253607645"><ele>659.5</ele><time>2026-04-06T12:02:06Z</time></trkpt><trkpt lat="46.273022088467094" lon="12.317272216623312"><ele>656.0</ele><time>2026-04-06T12:02:07Z</time></trkpt><trkpt lat="46.2731484261241" lon="12.317300539729624"><ele>656.0</ele><time>2026-04-06T12:02:08Z</time></trkpt><trkpt lat="46.2732738158435" lon="12.31733490936559"><ele>656.0</ele><time>2026-04-06T12:02:09Z</time></trkpt><trkpt lat="46.27339735802599" lon="12.317369778519506"><ele>656.0</ele><time>2026-04-06T12:02:10Z</time></trkpt><trkpt lat="46.27352018725569" lon="12.317393057200029"><ele>656.0</ele><time>2026-04-06T12:02:11Z</time></trkpt><trkpt lat="46.27364422335991" lon="12.317420310123461"><ele>656.0</ele><time>2026-04-06T12:02:12Z</time></trkpt><trkpt lat="46.27376853297996" lon="12.31745063548945"><ele>656.0</ele><time>2026-04-06T12:02:13Z</time></trkpt><trkpt lat="46.273889326215006" lon="12.317478383714992"><ele>656.0</ele><time>2026-04-06T12:02:14Z</time></trkpt><trkpt lat="46.27401056163852" lon="12.31750526662325"><ele>656.0</ele><time>2026-04-06T12:02:15Z</time></trkpt><trkpt lat="46.27413110085809" lon="12.317530468984803"><ele>656.0</ele><time>2026-04-06T12:02:16Z</time></trkpt><trkpt lat="46.27424962594853" lon="12.317551326717203"><ele>656.0</ele><time>2026-04-06T12:02:17Z</time></trkpt><trkpt lat="46.27437039723229" lon="12.317574711237864"><ele>656.0</ele><time>2026-04-06T12:02:18Z</time></trkpt><trkpt lat="46.27449724120604" lon="12.317597097330635"><ele>656.0</ele><time>2026-04-06T12:02:19Z</time></trkpt><trkpt lat="46.27463028920195" lon="12.317580938315123"><ele>653.75</ele><time>2026-04-06T12:02:20Z</time></trkpt><trkpt lat="46.274764359125065" lon="12.317571316302955"><ele>651.5</ele><time>2026-04-06T12:02:21Z</time></trkpt><trkpt lat="46.27490029888463" lon="12.317566931349626"><ele>649.25</ele><time>2026-04-06T12:02:22Z</time></trkpt><trkpt lat="46.27503036900915" lon="12.317567281097185"><ele>647.0</ele><time>2026-04-06T12:02:23Z</time></trkpt><trkpt lat="46.27515498236014" lon="12.317569176769373"><ele>647.0</ele><time>2026-04-06T12:02:24Z</time></trkpt><trkpt lat="46.275283514208034" lon="12.317573273751599"><ele>647.0</ele><time>2026-04-06T12:02:25Z</time></trkpt><trkpt lat="46.275420961623624" lon="12.317577654920418"><ele>647.0</ele><time>2026-04-06T12:02:26Z</time></trkpt><trkpt lat="46.27556071337578" lon="12.317580825863821"><ele>647.0</ele><time>2026-04-06T12:02:27Z</time></trkpt><trkpt lat="46.27569615761121" lon="12.317583092937001"><ele>649.0</ele><time>2026-04-06T12:02:28Z</time></trkpt><trkpt lat="46.27582186410616" lon="12.31758461432649"><ele>651.0</ele><time>2026-04-06T12:02:29Z</time></trkpt><trkpt lat="46.27594421289142" lon="12.31758072866486"><ele>653.0</ele><time>2026-04-06T12:02:30Z</time></trkpt><trkpt lat="46.27605896624708" lon="12.317564440756422"><ele>655.0</ele><time>2026-04-06T12:02:31Z</time></trkpt><trkpt lat="46.2761723946098" lon="12.317541386758132"><ele>655.0</ele><time>2026-04-06T12:02:32Z</time></trkpt><trkpt lat="46.276289546876065" lon="12.317516926268453"><ele>655.0</ele><time>2026-04-06T12:02:33Z</time></trkpt><trkpt lat="46.276411980834844" lon="12.317493599536444"><ele>655.0</ele><time>2026-04-06T12:02:34Z</time></trkpt><trkpt lat="46.27653493618263" lon="12.317469428829352"><ele>655.0</ele><time>2026-04-06T12:02:35Z</time></trkpt><trkpt lat="46.276655153580386" lon="12.317445796352613"><ele>656.6</ele><time>2026-04-06T12:02:36Z</time></trkpt><trkpt lat="46.27676781206596" lon="12.317423649815154"><ele>658.2</ele><time>2026-04-06T12:02:37Z</time></trkpt><trkpt lat="46.276873320071886" lon="12.31740290892836"><ele>659.8</ele><time>2026-04-06T12:02:38Z</time></trkpt><trkpt lat="46.27697267842902" lon="12.317386088978308"><ele>661.4</ele><time>2026-04-06T12:02:39Z</time></trkpt><trkpt lat="46.277064378388445" lon="12.317352914009916"><ele>663.0</ele><time>2026-04-06T12:02:40Z</time></trkpt><trkpt lat="46.27715230591056" lon="12.31735886502725"><ele>662.9999999999999</ele><time>2026-04-06T12:02:41Z</time></trkpt><trkpt lat="46.27723069707082" lon="12.317361622424304"><ele>663.0</ele><time>2026-04-06T12:02:42Z</time></trkpt><trkpt lat="46.27730401616494" lon="12.317357556927666"><ele>663.0</ele><time>2026-04-06T12:02:43Z</time></trkpt><trkpt lat="46.27736850986419" lon="12.317328511514841"><ele>663.0</ele><time>2026-04-06T12:02:44Z</time></trkpt><trkpt lat="46.27742522295679" lon="12.317280891659843"><ele>663.0</ele><time>2026-04-06T12:02:45Z</time></trkpt><trkpt lat="46.27744081377711" lon="12.317171094671108"><ele>662.9999999999999</ele><time>2026-04-06T12:02:46Z</time></trkpt><trkpt lat="46.277413599426346" lon="12.317063973567294"><ele>663.0</ele><time>2026-04-06T12:02:47Z</time></trkpt><trkpt lat="46.277314680898556" lon="12.317038365072795"><ele>657.0</ele><time>2026-04-06T12:02:48Z</time></trkpt><trkpt lat="46.27723714089316" lon="12.317047135485986"><ele>651.0</ele><time>2026-04-06T12:02:49Z</time></trkpt><trkpt lat="46.27715269080124" lon="12.317076741258683"><ele>645.0</ele><time>2026-04-06T12:02:50Z</time></trkpt><trkpt lat="46.277048024182456" lon="12.317090114856578"><ele>639.0</ele><time>2026-04-06T12:02:51Z</time></trkpt><trkpt lat="46.27692996057034" lon="12.317096670427615"><ele>633.0</ele><time>2026-04-06T12:02:52Z</time></trkpt><trkpt lat="46.27681032347537" lon="12.317105367777081"><ele>633.0</ele><time>2026-04-06T12:02:53Z</time></trkpt><trkpt lat="46.27669050940659" lon="12.317113791721539"><ele>633.0</ele><time>2026-04-06T12:02:54Z</time></trkpt><trkpt lat="46.276578798911075" lon="12.317119778056094"><ele>633.0</ele><time>2026-04-06T12:02:55Z</time></trkpt><trkpt lat="46.276476632613225" lon="12.317125249044315"><ele>633.0</ele><time>2026-04-06T12:02:56Z</time></trkpt><trkpt lat="46.27637627321745" lon="12.317131867767724"><ele>633.0</ele><time>2026-04-06T12:02:57Z</time></trkpt><trkpt lat="46.2762781738429" lon="12.31713606790762"><ele>632.8</ele><time>2026-04-06T12:02:58Z</time></trkpt><trkpt lat="46.27618098822518" lon="12.317136797235102"><ele>632.5999999999999</ele><time>2026-04-06T12:02:59Z</time></trkpt><trkpt lat="46.27608399739215" lon="12.317138933344742"><ele>632.4000000000001</ele><time>2026-04-06T12:03:00Z</time></trkpt><trkpt lat="46.27598625107638" lon="12.317140383232616"><ele>632.2</ele><time>2026-04-06T12:03:00.999Z</time></trkpt><trkpt lat="46.27588003502961" lon="12.31713471028851"><ele>632.0</ele><time>2026-04-06T12:03:01.999Z</time></trkpt><trkpt lat="46.275765864900926" lon="12.317117552359695"><ele>632.0</ele><time>2026-04-06T12:03:02.999Z</time></trkpt><trkpt lat="46.27564422779948" lon="12.317094511052929"><ele>632.0</ele><time>2026-04-06T12:03:03.999Z</time></trkpt><trkpt lat="46.275516815122266" lon="12.31707108361514"><ele>632.0</ele><time>2026-04-06T12:03:04.999Z</time></trkpt><trkpt lat="46.27539390623771" lon="12.317052259601557"><ele>632.0</ele><time>2026-04-06T12:03:05.999Z</time></trkpt><trkpt lat="46.275270290783695" lon="12.317032756075935"><ele>632.25</ele><time>2026-04-06T12:03:06.999Z</time></trkpt><trkpt lat="46.275146642215184" lon="12.317002960846215"><ele>632.5</ele><time>2026-04-06T12:03:07.999Z</time></trkpt><trkpt lat="46.275027745582136" lon="12.316961509290994"><ele>632.75</ele><time>2026-04-06T12:03:08.999Z</time></trkpt><trkpt lat="46.27491571416627" lon="12.31691329745193"><ele>633.0</ele><time>2026-04-06T12:03:09.999Z</time></trkpt><trkpt lat="46.27480135915266" lon="12.31685987267602"><ele>633.0</ele><time>2026-04-06T12:03:10.999Z</time></trkpt><trkpt lat="46.274685104467316" lon="12.316800517522875"><ele>633.0</ele><time>2026-04-06T12:03:11.999Z</time></trkpt><trkpt lat="46.27456610884889" lon="12.316741157380388"><ele>633.0</ele><time>2026-04-06T12:03:12.999Z</time></trkpt><trkpt lat="46.27444444659273" lon="12.316677776223829"><ele>633.0</ele><time>2026-04-06T12:03:13.999Z</time></trkpt><trkpt lat="46.27432198021521" lon="12.316612704987358"><ele>633.0</ele><time>2026-04-06T12:03:14.999Z</time></trkpt><trkpt lat="46.27420041493795" lon="12.31655462202152"><ele>633.0</ele><time>2026-04-06T12:03:15.999Z</time></trkpt><trkpt lat="46.274079481600445" lon="12.31650601531576"><ele>633.0</ele><time>2026-04-06T12:03:16.999Z</time></trkpt><trkpt lat="46.273959788316354" lon="12.31646691101293"><ele>633.0</ele><time>2026-04-06T12:03:17.999Z</time></trkpt><trkpt lat="46.27384182473578" lon="12.316432550219437"><ele>631.75</ele><time>2026-04-06T12:03:18.999Z</time></trkpt><trkpt lat="46.273726838442705" lon="12.316404396415697"><ele>630.5</ele><time>2026-04-06T12:03:19.999Z</time></trkpt><trkpt lat="46.27361509403716" lon="12.316371586231345"><ele>629.25</ele><time>2026-04-06T12:03:20.999Z</time></trkpt><trkpt lat="46.27350007463006" lon="12.316336640862328"><ele>628.0</ele><time>2026-04-06T12:03:21.999Z</time></trkpt><trkpt lat="46.27338815435514" lon="12.31630750843978"><ele>626.6</ele><time>2026-04-06T12:03:22.999Z</time></trkpt><trkpt lat="46.27327836271367" lon="12.316279956711371"><ele>625.1999999999999</ele><time>2026-04-06T12:03:23.999Z</time></trkpt><trkpt lat="46.273169948008" lon="12.316244907465123"><ele>623.8</ele><time>2026-04-06T12:03:24.999Z</time></trkpt><trkpt lat="46.27306177277092" lon="12.316216289728853"><ele>622.4</ele><time>2026-04-06T12:03:25.999Z</time></trkpt><trkpt lat="46.27295754807121" lon="12.316186329867604"><ele>621.0</ele><time>2026-04-06T12:03:26.999Z</time></trkpt><trkpt lat="46.27285309560986" lon="12.316155486606702"><ele>621.0</ele><time>2026-04-06T12:03:27.999Z</time></trkpt><trkpt lat="46.27274694754541" lon="12.316124514851108"><ele>621.0</ele><time>2026-04-06T12:03:28.999Z</time></trkpt><trkpt lat="46.272641314550384" lon="12.316095259519255"><ele>621.0</ele><time>2026-04-06T12:03:29.999Z</time></trkpt><trkpt lat="46.27253393004185" lon="12.316063916020514"><ele>621.0</ele><time>2026-04-06T12:03:30.999Z</time></trkpt><trkpt lat="46.272425352689034" lon="12.316031931765743"><ele>621.0</ele><time>2026-04-06T12:03:31.999Z</time></trkpt><trkpt lat="46.27231458776425" lon="12.315999429089219"><ele>621.5</ele><time>2026-04-06T12:03:32.999Z</time></trkpt><trkpt lat="46.27220016170605" lon="12.31596599436928"><ele>622.0</ele><time>2026-04-06T12:03:33.999Z</time></trkpt><trkpt lat="46.27208410325326" lon="12.31593131625913"><ele>622.5</ele><time>2026-04-06T12:03:34.999Z</time></trkpt><trkpt lat="46.27196574914274" lon="12.315896160655013"><ele>623.0</ele><time>2026-04-06T12:03:35.999Z</time></trkpt><trkpt lat="46.27184701227919" lon="12.315856785026796"><ele>623.0</ele><time>2026-04-06T12:03:36.999Z</time></trkpt><trkpt lat="46.271730620606796" lon="12.3158118043745"><ele>623.0</ele><time>2026-04-06T12:03:37.999Z</time></trkpt><trkpt lat="46.271615820642275" lon="12.315762287616186"><ele>623.0</ele><time>2026-04-06T12:03:38.999Z</time></trkpt><trkpt lat="46.27150560962032" lon="12.315705264362453"><ele>623.0</ele><time>2026-04-06T12:03:39.999Z</time></trkpt><trkpt lat="46.271401543598635" lon="12.31564648984493"><ele>620.1999999999999</ele><time>2026-04-06T12:03:40.999Z</time></trkpt><trkpt lat="46.27131250083672" lon="12.315564350946044"><ele>617.4</ele><time>2026-04-06T12:03:41.999Z</time></trkpt><trkpt lat="46.271225386089334" lon="12.315505236123775"><ele>614.5999999999999</ele><time>2026-04-06T12:03:42.999Z</time></trkpt><trkpt lat="46.27114317458561" lon="12.315444541378536"><ele>611.8</ele><time>2026-04-06T12:03:43.999Z</time></trkpt><trkpt lat="46.27107601398048" lon="12.315373447613377"><ele>609.0</ele><time>2026-04-06T12:03:44.999Z</time></trkpt><trkpt lat="46.27101406641362" lon="12.31529905699775"><ele>609.0</ele><time>2026-04-06T12:03:45.999Z</time></trkpt><trkpt lat="46.271012948287265" lon="12.315177205688856"><ele>609.0</ele><time>2026-04-06T12:03:46.999Z</time></trkpt><trkpt lat="46.27104676654227" lon="12.315062599888469"><ele>609.0</ele><time>2026-04-06T12:03:47.999Z</time></trkpt><trkpt lat="46.271103342943654" lon="12.31498191974554"><ele>609.0</ele><time>2026-04-06T12:03:48.999Z</time></trkpt><trkpt lat="46.2711908234612" lon="12.314953261632928"><ele>609.0</ele><time>2026-04-06T12:03:49.999Z</time></trkpt><trkpt lat="46.271285675178476" lon="12.31496494388139"><ele>609.0</ele><time>2026-04-06T12:03:50.999Z</time></trkpt><trkpt lat="46.27137998002322" lon="12.315008186343485"><ele>608.0</ele><time>2026-04-06T12:03:51.999Z</time></trkpt><trkpt lat="46.27147870882607" lon="12.315066334942948"><ele>607.0</ele><time>2026-04-06T12:03:52.999Z</time></trkpt><trkpt lat="46.271586434691194" lon="12.31512854862866"><ele>606.0</ele><time>2026-04-06T12:03:54Z</time></trkpt><trkpt lat="46.27170485552314" lon="12.315191094015114"><ele>605.0</ele><time>2026-04-06T12:03:55Z</time></trkpt><trkpt lat="46.27182908618946" lon="12.315259042414096"><ele>605.0</ele><time>2026-04-06T12:03:56Z</time></trkpt><trkpt lat="46.271957449090756" lon="12.315324987582427"><ele>605.0</ele><time>2026-04-06T12:03:57Z</time></trkpt><trkpt lat="46.272087071644606" lon="12.315387981149966"><ele>605.0</ele><time>2026-04-06T12:03:58Z</time></trkpt><trkpt lat="46.27221628693812" lon="12.315444862460382"><ele>605.0</ele><time>2026-04-06T12:03:59Z</time></trkpt><trkpt lat="46.27234523711248" lon="12.31548645233468"><ele>604.5</ele><time>2026-04-06T12:04:00Z</time></trkpt><trkpt lat="46.27247440250194" lon="12.315510665510887"><ele>604.0</ele><time>2026-04-06T12:04:01Z</time></trkpt><trkpt lat="46.2726004274085" lon="12.315515681703063"><ele>603.5</ele><time>2026-04-06T12:04:02Z</time></trkpt><trkpt lat="46.27272704594803" lon="12.315517933132869"><ele>603.0</ele><time>2026-04-06T12:04:03Z</time></trkpt><trkpt lat="46.2728543413837" lon="12.31551766211684"><ele>603.0</ele><time>2026-04-06T12:04:04Z</time></trkpt><trkpt lat="46.272985771710836" lon="12.31551526607282"><ele>603.0</ele><time>2026-04-06T12:04:05Z</time></trkpt><trkpt lat="46.27312184136948" lon="12.315510633894611"><ele>603.0</ele><time>2026-04-06T12:04:06Z</time></trkpt><trkpt lat="46.27325864310458" lon="12.31551495494604"><ele>603.0</ele><time>2026-04-06T12:04:07Z</time></trkpt><trkpt lat="46.27339731576836" lon="12.315536103209102"><ele>604.75</ele><time>2026-04-06T12:04:08Z</time></trkpt><trkpt lat="46.27353213596811" lon="12.315572265399071"><ele>606.5</ele><time>2026-04-06T12:04:09Z</time></trkpt><trkpt lat="46.273664583525026" lon="12.31561770514074"><ele>608.25</ele><time>2026-04-06T12:04:10Z</time></trkpt><trkpt lat="46.2737883783435" lon="12.315658429137555"><ele>610.0</ele><time>2026-04-06T12:04:11Z</time></trkpt><trkpt lat="46.27390377019333" lon="12.315697633046184"><ele>609.4</ele><time>2026-04-06T12:04:12Z</time></trkpt><trkpt lat="46.274014895668984" lon="12.31573228333615"><ele>608.8</ele><time>2026-04-06T12:04:13Z</time></trkpt><trkpt lat="46.27411167793585" lon="12.31575375415321"><ele>608.2</ele><time>2026-04-06T12:04:14Z</time></trkpt><trkpt lat="46.2742039551464" lon="12.315751075361979"><ele>607.6</ele><time>2026-04-06T12:04:15Z</time></trkpt><trkpt lat="46.27428303244785" lon="12.315701122731795"><ele>607.0</ele><time>2026-04-06T12:04:16Z</time></trkpt><trkpt lat="46.27434165349306" lon="12.315611282637633"><ele>603.1666666666667</ele><time>2026-04-06T12:04:17Z</time></trkpt><trkpt lat="46.27437442703595" lon="12.315488599709745"><ele>599.3333333333334</ele><time>2026-04-06T12:04:18Z</time></trkpt><trkpt lat="46.27438053091544" lon="12.315364103692831"><ele>595.5</ele><time>2026-04-06T12:04:19Z</time></trkpt><trkpt lat="46.274347693521065" lon="12.315251814419526"><ele>591.6666666666666</ele><time>2026-04-06T12:04:20Z</time></trkpt><trkpt lat="46.274288568635534" lon="12.31516320632817"><ele>587.8333333333333</ele><time>2026-04-06T12:04:21Z</time></trkpt><trkpt lat="46.274209587433134" lon="12.315090995246347"><ele>584.0</ele><time>2026-04-06T12:04:22Z</time></trkpt><trkpt lat="46.27411828039412" lon="12.315041024264564"><ele>584.0</ele><time>2026-04-06T12:04:23Z</time></trkpt><trkpt lat="46.274023088980655" lon="12.314988648422162"><ele>584.0</ele><time>2026-04-06T12:04:24Z</time></trkpt><trkpt lat="46.27393064846319" lon="12.314930292220872"><ele>584.0</ele><time>2026-04-06T12:04:25Z</time></trkpt><trkpt lat="46.273838144234034" lon="12.31486801886956"><ele>584.0</ele><time>2026-04-06T12:04:26Z</time></trkpt><trkpt lat="46.273752520543866" lon="12.314818572715462"><ele>584.0</ele><time>2026-04-06T12:04:27Z</time></trkpt><trkpt lat="46.27366866526291" lon="12.314773395200564"><ele>583.0</ele><time>2026-04-06T12:04:28Z</time></trkpt><trkpt lat="46.27359408650788" lon="12.31470273173609"><ele>582.0</ele><time>2026-04-06T12:04:29Z</time></trkpt><trkpt lat="46.27352079254472" lon="12.314647473061559"><ele>581.0</ele><time>2026-04-06T12:04:30Z</time></trkpt><trkpt lat="46.27345946473438" lon="12.314583558159626"><ele>580.0</ele><time>2026-04-06T12:04:31Z</time></trkpt><trkpt lat="46.27342052214801" lon="12.314501312724584"><ele>579.0</ele><time>2026-04-06T12:04:32Z</time></trkpt><trkpt lat="46.27339493403448" lon="12.314410987075506"><ele>578.0</ele><time>2026-04-06T12:04:33Z</time></trkpt><trkpt lat="46.27341805329478" lon="12.314302913816002"><ele>578.0</ele><time>2026-04-06T12:04:34Z</time></trkpt><trkpt lat="46.273473437570026" lon="12.314214096832067"><ele>578.0</ele><time>2026-04-06T12:04:35Z</time></trkpt><trkpt lat="46.27355150446151" lon="12.314164392065587"><ele>578.0</ele><time>2026-04-06T12:04:36Z</time></trkpt><trkpt lat="46.27363871298444" lon="12.314169553744442"><ele>578.0</ele><time>2026-04-06T12:04:37Z</time></trkpt><trkpt lat="46.273727071900495" lon="12.314219468209894"><ele>578.0</ele><time>2026-04-06T12:04:38Z</time></trkpt><trkpt lat="46.27381591303667" lon="12.314298669136695"><ele>578.0</ele><time>2026-04-06T12:04:39Z</time></trkpt><trkpt lat="46.273908238645134" lon="12.314386495613064"><ele>578.0</ele><time>2026-04-06T12:04:40Z</time></trkpt><trkpt lat="46.27401019911256" lon="12.314486341609237"><ele>578.0</ele><time>2026-04-06T12:04:41Z</time></trkpt><trkpt lat="46.27411994632085" lon="12.314594263303816"><ele>578.0</ele><time>2026-04-06T12:04:42Z</time></trkpt><trkpt lat="46.274230196478356" lon="12.314700164199037"><ele>579.5</ele><time>2026-04-06T12:04:43Z</time></trkpt><trkpt lat="46.27433996494697" lon="12.314803444952638"><ele>581.0</ele><time>2026-04-06T12:04:44Z</time></trkpt><trkpt lat="46.27444887303537" lon="12.31489815044372"><ele>582.5</ele><time>2026-04-06T12:04:45Z</time></trkpt><trkpt lat="46.274559277341346" lon="12.31496811276353"><ele>584.0</ele><time>2026-04-06T12:04:46Z</time></trkpt><trkpt lat="46.27466842946794" lon="12.315018552116516"><ele>581.0</ele><time>2026-04-06T12:04:47Z</time></trkpt><trkpt lat="46.274779927897434" lon="12.315055616750898"><ele>578.0</ele><time>2026-04-06T12:04:48Z</time></trkpt><trkpt lat="46.274895440969" lon="12.315097563619318"><ele>575.0</ele><time>2026-04-06T12:04:49Z</time></trkpt><trkpt lat="46.2750043380978" lon="12.315113355877275"><ele>572.0</ele><time>2026-04-06T12:04:50Z</time></trkpt><trkpt lat="46.27511070902935" lon="12.315115269258882"><ele>569.0</ele><time>2026-04-06T12:04:51Z</time></trkpt><trkpt lat="46.27520517438398" lon="12.3151128133478"><ele>569.0</ele><time>2026-04-06T12:04:52Z</time></trkpt><trkpt lat="46.275289640458524" lon="12.315104328964805"><ele>569.0</ele><time>2026-04-06T12:04:53Z</time></trkpt><trkpt lat="46.275370583903" lon="12.31509951157752"><ele>569.0</ele><time>2026-04-06T12:04:54Z</time></trkpt><trkpt lat="46.275449710578584" lon="12.315098515885456"><ele>569.0</ele><time>2026-04-06T12:04:55Z</time></trkpt><trkpt lat="46.275526769379795" lon="12.315095456026395"><ele>569.0</ele><time>2026-04-06T12:04:56Z</time></trkpt><trkpt lat="46.27560171382327" lon="12.315093199089889"><ele>569.0</ele><time>2026-04-06T12:04:57Z</time></trkpt><trkpt lat="46.27567275070507" lon="12.31509292837239"><ele>568.3333333333333</ele><time>2026-04-06T12:04:58Z</time></trkpt><trkpt lat="46.27574188990135" lon="12.315085864642102"><ele>567.6666666666666</ele><time>2026-04-06T12:04:59Z</time></trkpt><trkpt lat="46.27580771942502" lon="12.315082854468937"><ele>567.0</ele><time>2026-04-06T12:05:00Z</time></trkpt><trkpt lat="46.27587300226818" lon="12.31508021473587"><ele>566.3333333333334</ele><time>2026-04-06T12:05:01Z</time></trkpt><trkpt lat="46.27599393605175" lon="12.315061899568496"><ele>565.6666666666667</ele><time>2026-04-06T12:05:03Z</time></trkpt><trkpt lat="46.276107860039026" lon="12.315043993233227"><ele>565.0</ele><time>2026-04-06T12:05:05Z</time></trkpt><trkpt lat="46.27621754531893" lon="12.315048936351916"><ele>565.0</ele><time>2026-04-06T12:05:07Z</time></trkpt><trkpt lat="46.27630308240159" lon="12.315047675583124"><ele>565.0</ele><time>2026-04-06T12:05:09Z</time></trkpt><trkpt lat="46.2763859855058" lon="12.315039265270473"><ele>565.0</ele><time>2026-04-06T12:05:11Z</time></trkpt><trkpt lat="46.27646827036987" lon="12.315038115335241"><ele>565.0</ele><time>2026-04-06T12:05:13Z</time></trkpt><trkpt lat="46.27653216504109" lon="12.31502230336807"><ele>565.0</ele><time>2026-04-06T12:05:15Z</time></trkpt><trkpt lat="46.276604034133726" lon="12.315029441135033"><ele>565.0</ele><time>2026-04-06T12:05:18Z</time></trkpt><trkpt lat="46.27667165010485" lon="12.315017705407152"><ele>564.9999999999999</ele><time>2026-04-06T12:05:21Z</time></trkpt><trkpt lat="46.27673760396443" lon="12.315000500164212"><ele>565.0</ele><time>2026-04-06T12:05:46.999Z</time></trkpt><trkpt lat="46.276814686864576" lon="12.314976072927951"><ele>565.0</ele><time>2026-04-06T12:05:51.999Z</time></trkpt><trkpt lat="46.276877935079625" lon="12.314953225492063"><ele>565.0</ele><time>2026-04-06T12:05:55.999Z</time></trkpt><trkpt lat="46.27694968223734" lon="12.31492684833836"><ele>565.0</ele><time>2026-04-06T12:06:11Z</time></trkpt><trkpt lat="46.27701817352472" lon="12.31490166816989"><ele>564.9999999999999</ele><time>2026-04-06T12:06:14Z</time></trkpt><trkpt lat="46.277093424382855" lon="12.314873730598642"><ele>565.0</ele><time>2026-04-06T12:06:30Z</time></trkpt><trkpt lat="46.277175987958536" lon="12.314843276181515"><ele>565.0</ele><time>2026-04-06T12:06:32Z</time></trkpt><trkpt lat="46.2772617485469" lon="12.31481053728996"><ele>565.0</ele><time>2026-04-06T12:06:34Z</time></trkpt><trkpt lat="46.277348724151715" lon="12.314763616507575"><ele>565.0</ele><time>2026-04-06T12:06:36Z</time></trkpt><trkpt lat="46.2774196921998" lon="12.314716922783019"><ele>565.0</ele><time>2026-04-06T12:06:38Z</time></trkpt><trkpt lat="46.27748284743742" lon="12.314672086799797"><ele>565.0</ele><time>2026-04-06T12:06:40Z</time></trkpt><trkpt lat="46.27755592087421" lon="12.31461688218331"><ele>565.0</ele><time>2026-04-06T12:06:42Z</time></trkpt><trkpt lat="46.27762767549323" lon="12.314561290571445"><ele>560.8333333333334</ele><time>2026-04-06T12:06:44Z</time></trkpt><trkpt lat="46.27770249381314" lon="12.314503064126523"><ele>556.6666666666667</ele><time>2026-04-06T12:06:46Z</time></trkpt><trkpt lat="46.277773265802246" lon="12.31443858401642"><ele>552.5</ele><time>2026-04-06T12:06:48Z</time></trkpt><trkpt lat="46.277835263834255" lon="12.314372516623292"><ele>548.3333333333334</ele><time>2026-04-06T12:06:50Z</time></trkpt><trkpt lat="46.27788916087509" lon="12.314304999980422"><ele>544.1666666666666</ele><time>2026-04-06T12:06:52Z</time></trkpt><trkpt lat="46.27793086145633" lon="12.31422377809485"><ele>540.0</ele><time>2026-04-06T12:06:55Z</time></trkpt><trkpt lat="46.27779843486702" lon="12.313951593444637"><ele>540.0</ele><time>2026-04-06T12:06:57Z</time></trkpt><trkpt lat="46.2777065183777" lon="12.313967667410582"><ele>540.0</ele><time>2026-04-06T12:06:59Z</time></trkpt><trkpt lat="46.27762818930426" lon="12.313980994844739"><ele>540.0</ele><time>2026-04-06T12:07:01Z</time></trkpt><trkpt lat="46.27753286119475" lon="12.31401837845835"><ele>540.0</ele><time>2026-04-06T12:07:03Z</time></trkpt><trkpt lat="46.27746137684447" lon="12.314017639519994"><ele>540.0</ele><time>2026-04-06T12:07:04Z</time></trkpt><trkpt lat="46.27738449172904" lon="12.314017729393731"><ele>540.0</ele><time>2026-04-06T12:07:05Z</time></trkpt><trkpt lat="46.27730205100181" lon="12.314029167292876"><ele>538.8</ele><time>2026-04-06T12:07:06Z</time></trkpt><trkpt lat="46.27720032121999" lon="12.314040455348087"><ele>537.6</ele><time>2026-04-06T12:07:07Z</time></trkpt><trkpt lat="46.277092479977554" lon="12.314062989009127"><ele>536.4</ele><time>2026-04-06T12:07:08Z</time></trkpt><trkpt lat="46.276988019671" lon="12.314095337596497"><ele>535.2</ele><time>2026-04-06T12:07:09Z</time></trkpt><trkpt lat="46.27689030142945" lon="12.314137611012598"><ele>534.0</ele><time>2026-04-06T12:07:10Z</time></trkpt><trkpt lat="46.276806564004865" lon="12.314187056325537"><ele>534.0000000000001</ele><time>2026-04-06T12:07:11Z</time></trkpt><trkpt lat="46.27673399934944" lon="12.314232411494629"><ele>534.0</ele><time>2026-04-06T12:07:12Z</time></trkpt><trkpt lat="46.27666746712398" lon="12.31427322981063"><ele>534.0</ele><time>2026-04-06T12:07:13Z</time></trkpt><trkpt lat="46.27660362986236" lon="12.31431109833843"><ele>534.0</ele><time>2026-04-06T12:07:14Z</time></trkpt><trkpt lat="46.27653893599548" lon="12.31433672727424"><ele>534.0</ele><time>2026-04-06T12:07:15Z</time></trkpt><trkpt lat="46.27646759943629" lon="12.31434630388805"><ele>534.0000000000001</ele><time>2026-04-06T12:07:16Z</time></trkpt><trkpt lat="46.27638960991136" lon="12.31433489177676"><ele>534.0</ele><time>2026-04-06T12:07:17Z</time></trkpt><trkpt lat="46.276306773279856" lon="12.314295774657829"><ele>534.6</ele><time>2026-04-06T12:07:18Z</time></trkpt><trkpt lat="46.27622533080755" lon="12.31423285866652"><ele>535.2</ele><time>2026-04-06T12:07:19Z</time></trkpt><trkpt lat="46.276143603136916" lon="12.314154886559"><ele>535.8000000000001</ele><time>2026-04-06T12:07:20Z</time></trkpt><trkpt lat="46.2760595747165" lon="12.314074790301744"><ele>536.4</ele><time>2026-04-06T12:07:21Z</time></trkpt><trkpt lat="46.27598042185995" lon="12.313990324541988"><ele>537.0</ele><time>2026-04-06T12:07:22Z</time></trkpt><trkpt lat="46.27590294908819" lon="12.313906933092623"><ele>536.0</ele><time>2026-04-06T12:07:23Z</time></trkpt><trkpt lat="46.27581984233051" lon="12.313846612427946"><ele>535.0</ele><time>2026-04-06T12:07:24Z</time></trkpt><trkpt lat="46.2757291851775" lon="12.313808015531606"><ele>534.0</ele><time>2026-04-06T12:07:25Z</time></trkpt><trkpt lat="46.27563711974892" lon="12.313775672230413"><ele>533.0</ele><time>2026-04-06T12:07:26Z</time></trkpt><trkpt lat="46.275545301315134" lon="12.313738811983546"><ele>532.0</ele><time>2026-04-06T12:07:27Z</time></trkpt><trkpt lat="46.275458459981195" lon="12.313670557196422"><ele>532.0</ele><time>2026-04-06T12:07:28Z</time></trkpt><trkpt lat="46.275384820856786" lon="12.313574182412298"><ele>532.0</ele><time>2026-04-06T12:07:29Z</time></trkpt><trkpt lat="46.27533135691656" lon="12.31345966216525"><ele>532.0</ele><time>2026-04-06T12:07:30Z</time></trkpt><trkpt lat="46.27532443899266" lon="12.313324250001935"><ele>532.0</ele><time>2026-04-06T12:07:31Z</time></trkpt><trkpt lat="46.275323878105986" lon="12.313191902240916"><ele>532.0</ele><time>2026-04-06T12:07:32Z</time></trkpt><trkpt lat="46.27526890878609" lon="12.313094240228692"><ele>528.8333333333334</ele><time>2026-04-06T12:07:33Z</time></trkpt><trkpt lat="46.2752177398177" lon="12.313019998967054"><ele>525.6666666666667</ele><time>2026-04-06T12:07:34Z</time></trkpt><trkpt lat="46.275148233546865" lon="12.312961621929231"><ele>522.5</ele><time>2026-04-06T12:07:35Z</time></trkpt><trkpt lat="46.27508404297036" lon="12.312879821043367"><ele>519.3333333333334</ele><time>2026-04-06T12:07:36Z</time></trkpt><trkpt lat="46.27501679494801" lon="12.31281718808877"><ele>516.1666666666666</ele><time>2026-04-06T12:07:37Z</time></trkpt><trkpt lat="46.27495407202844" lon="12.31276170426744"><ele>513.0</ele><time>2026-04-06T12:07:38Z</time></trkpt><trkpt lat="46.274888418179216" lon="12.31270464740446"><ele>513.0</ele><time>2026-04-06T12:07:39Z</time></trkpt><trkpt lat="46.2748107352581" lon="12.312649297980897"><ele>513.0</ele><time>2026-04-06T12:07:40Z</time></trkpt><trkpt lat="46.27472939188614" lon="12.312604997826977"><ele>513.0</ele><time>2026-04-06T12:07:41Z</time></trkpt><trkpt lat="46.274649697865776" lon="12.31256505250615"><ele>513.0</ele><time>2026-04-06T12:07:42Z</time></trkpt><trkpt lat="46.27456629026388" lon="12.312523245804975"><ele>513.0</ele><time>2026-04-06T12:07:43Z</time></trkpt><trkpt lat="46.274480760409965" lon="12.312480243341799"><ele>513.0</ele><time>2026-04-06T12:07:44Z</time></trkpt><trkpt lat="46.274392511032836" lon="12.312432020801364"><ele>514.0</ele><time>2026-04-06T12:07:45Z</time></trkpt><trkpt lat="46.27430256050898" lon="12.312383801783373"><ele>515.0</ele><time>2026-04-06T12:07:46Z</time></trkpt><trkpt lat="46.27420424049486" lon="12.31235688641526"><ele>516.0</ele><time>2026-04-06T12:07:47Z</time></trkpt><trkpt lat="46.27411049753551" lon="12.312307448106807"><ele>517.0</ele><time>2026-04-06T12:07:48Z</time></trkpt><trkpt lat="46.274018675213156" lon="12.312262283538649"><ele>518.0</ele><time>2026-04-06T12:07:49Z</time></trkpt><trkpt lat="46.27393417474909" lon="12.312218244134806"><ele>518.0</ele><time>2026-04-06T12:07:50Z</time></trkpt><trkpt lat="46.273858022641015" lon="12.312177541583097"><ele>518.0</ele><time>2026-04-06T12:07:51Z</time></trkpt><trkpt lat="46.27378919592946" lon="12.31214231913998"><ele>518.0</ele><time>2026-04-06T12:07:52Z</time></trkpt><trkpt lat="46.27372773443771" lon="12.312109673280913"><ele>518.0</ele><time>2026-04-06T12:07:53Z</time></trkpt><trkpt lat="46.273663356521425" lon="12.312078740358526"><ele>518.0</ele><time>2026-04-06T12:07:54Z</time></trkpt><trkpt lat="46.27359811934852" lon="12.312025439422976"><ele>518.0</ele><time>2026-04-06T12:07:55Z</time></trkpt><trkpt lat="46.27353797650095" lon="12.311993220908404"><ele>518.0</ele><time>2026-04-06T12:07:56Z</time></trkpt><trkpt lat="46.273432548355764" lon="12.311936683413165"><ele>518.0</ele><time>2026-04-06T12:07:58Z</time></trkpt><trkpt lat="46.273404795726464" lon="12.311850373579716"><ele>518.0</ele><time>2026-04-06T12:07:59Z</time></trkpt><trkpt lat="46.27338977533152" lon="12.311754688086772"><ele>518.0</ele><time>2026-04-06T12:08:00Z</time></trkpt><trkpt lat="46.273346289636926" lon="12.311590952232375"><ele>518.0</ele><time>2026-04-06T12:08:02Z</time></trkpt><trkpt lat="46.27331572900945" lon="12.311415521316722"><ele>518.0</ele><time>2026-04-06T12:08:04Z</time></trkpt><trkpt lat="46.27328682097934" lon="12.311323962120584"><ele>518.0</ele><time>2026-04-06T12:08:05Z</time></trkpt><trkpt lat="46.27324757325078" lon="12.311240916688638"><ele>515.3333333333333</ele><time>2026-04-06T12:08:06Z</time></trkpt><trkpt lat="46.27319432690114" lon="12.311176377239786"><ele>512.6666666666666</ele><time>2026-04-06T12:08:07Z</time></trkpt><trkpt lat="46.27312654470469" lon="12.311144298919471"><ele>510.0</ele><time>2026-04-06T12:08:08Z</time></trkpt><trkpt lat="46.27304661709072" lon="12.311144445019798"><ele>507.33333333333337</ele><time>2026-04-06T12:08:09Z</time></trkpt><trkpt lat="46.27296050275462" lon="12.311156886740918"><ele>504.6666666666667</ele><time>2026-04-06T12:08:10Z</time></trkpt><trkpt lat="46.27287365148116" lon="12.311162330344214"><ele>502.0</ele><time>2026-04-06T12:08:11Z</time></trkpt><trkpt lat="46.272788824531425" lon="12.311147324339249"><ele>502.00000000000006</ele><time>2026-04-06T12:08:12Z</time></trkpt><trkpt lat="46.27270298211136" lon="12.31110623003974"><ele>502.0</ele><time>2026-04-06T12:08:13Z</time></trkpt><trkpt lat="46.27263791314565" lon="12.311007931166351"><ele>502.0</ele><time>2026-04-06T12:08:14Z</time></trkpt><trkpt lat="46.27255603168982" lon="12.310957102605832"><ele>502.0</ele><time>2026-04-06T12:08:15Z</time></trkpt><trkpt lat="46.272482364026054" lon="12.310891657280452"><ele>502.00000000000006</ele><time>2026-04-06T12:08:16Z</time></trkpt><trkpt lat="46.27240401389402" lon="12.310846633358247"><ele>502.0</ele><time>2026-04-06T12:08:17Z</time></trkpt><trkpt lat="46.2723259613788" lon="12.31080373216515"><ele>504.50000000000006</ele><time>2026-04-06T12:08:18Z</time></trkpt><trkpt lat="46.27225014582697" lon="12.310760408898272"><ele>507.0</ele><time>2026-04-06T12:08:19Z</time></trkpt><trkpt lat="46.272177386553764" lon="12.310689725883716"><ele>509.5</ele><time>2026-04-06T12:08:20Z</time></trkpt><trkpt lat="46.27209315541489" lon="12.310651221089211"><ele>512.0</ele><time>2026-04-06T12:08:21Z</time></trkpt><trkpt lat="46.27201134236279" lon="12.310601993755212"><ele>514.5</ele><time>2026-04-06T12:08:22Z</time></trkpt><trkpt lat="46.27193033348207" lon="12.31055785785348"><ele>517.0</ele><time>2026-04-06T12:08:23Z</time></trkpt><trkpt lat="46.27184805435729" lon="12.3105140428326"><ele>511.50000000000006</ele><time>2026-04-06T12:08:24Z</time></trkpt><trkpt lat="46.271770736648534" lon="12.310474189760987"><ele>506.0</ele><time>2026-04-06T12:08:25Z</time></trkpt><trkpt lat="46.27169958610442" lon="12.310441295058391"><ele>500.5</ele><time>2026-04-06T12:08:26Z</time></trkpt><trkpt lat="46.271635052683195" lon="12.310414061713178"><ele>495.0</ele><time>2026-04-06T12:08:27Z</time></trkpt><trkpt lat="46.271520871027484" lon="12.310359904858391"><ele>489.50000000000006</ele><time>2026-04-06T12:08:29Z</time></trkpt><trkpt lat="46.271465080035924" lon="12.310317713091722"><ele>484.0</ele><time>2026-04-06T12:08:30Z</time></trkpt><trkpt lat="46.271348232511095" lon="12.310275762918163"><ele>484.0</ele><time>2026-04-06T12:08:32Z</time></trkpt><trkpt lat="46.27126329661158" lon="12.310222041665234"><ele>484.0</ele><time>2026-04-06T12:08:34Z</time></trkpt><trkpt lat="46.27129742002995" lon="12.31013588370514"><ele>484.0</ele><time>2026-04-06T12:08:36Z</time></trkpt><trkpt lat="46.271409033788984" lon="12.310165179224787"><ele>484.0</ele><time>2026-04-06T12:08:38Z</time></trkpt><trkpt lat="46.271514658533754" lon="12.310222306808944"><ele>484.0</ele><time>2026-04-06T12:08:40Z</time></trkpt><trkpt lat="46.271578903488056" lon="12.310242414868826"><ele>484.00000000000006</ele><time>2026-04-06T12:08:41Z</time></trkpt><trkpt lat="46.27165293884937" lon="12.310261667703546"><ele>484.0</ele><time>2026-04-06T12:08:42Z</time></trkpt><trkpt lat="46.271732331277924" lon="12.310277718048713"><ele>484.0</ele><time>2026-04-06T12:08:43Z</time></trkpt><trkpt lat="46.27181342798673" lon="12.310292344993732"><ele>484.0</ele><time>2026-04-06T12:08:44Z</time></trkpt><trkpt lat="46.27189872857753" lon="12.310308427128069"><ele>484.00000000000006</ele><time>2026-04-06T12:08:45Z</time></trkpt><trkpt lat="46.27198289135433" lon="12.310324660709476"><ele>484.0</ele><time>2026-04-06T12:08:46Z</time></trkpt><trkpt lat="46.272069100314404" lon="12.310336210309785"><ele>484.00000000000006</ele><time>2026-04-06T12:08:47Z</time></trkpt><trkpt lat="46.2721593073615" lon="12.310346226642347"><ele>484.0</ele><time>2026-04-06T12:08:48Z</time></trkpt><trkpt lat="46.272248631118174" lon="12.31035960757781"><ele>484.0</ele><time>2026-04-06T12:08:49Z</time></trkpt><trkpt lat="46.27233586396274" lon="12.310374484083585"><ele>484.0</ele><time>2026-04-06T12:08:50Z</time></trkpt><trkpt lat="46.27242480185601" lon="12.310387670958663"><ele>484.00000000000006</ele><time>2026-04-06T12:08:51Z</time></trkpt><trkpt lat="46.272513520792685" lon="12.310400362461879"><ele>484.0</ele><time>2026-04-06T12:08:52Z</time></trkpt><trkpt lat="46.27260429256313" lon="12.310408780742588"><ele>484.2</ele><time>2026-04-06T12:08:53Z</time></trkpt><trkpt lat="46.27269772831728" lon="12.310418324375343"><ele>484.4</ele><time>2026-04-06T12:08:54Z</time></trkpt><trkpt lat="46.27279162900976" lon="12.310427758567371"><ele>484.6</ele><time>2026-04-06T12:08:55Z</time></trkpt><trkpt lat="46.272885288492084" lon="12.310438408727984"><ele>484.8</ele><time>2026-04-06T12:08:56Z</time></trkpt><trkpt lat="46.272982595273405" lon="12.310442346970905"><ele>485.0</ele><time>2026-04-06T12:08:57Z</time></trkpt><trkpt lat="46.27308379725672" lon="12.31044239825841"><ele>483.0</ele><time>2026-04-06T12:08:58Z</time></trkpt><trkpt lat="46.273184425159236" lon="12.310435630733352"><ele>481.0</ele><time>2026-04-06T12:08:59Z</time></trkpt><trkpt lat="46.273282510656536" lon="12.310419178509363"><ele>479.0</ele><time>2026-04-06T12:09:00Z</time></trkpt><trkpt lat="46.27337737846081" lon="12.31041828221872"><ele>477.0</ele><time>2026-04-06T12:09:01Z</time></trkpt><trkpt lat="46.273475683007426" lon="12.310443735725002"><ele>475.0</ele><time>2026-04-06T12:09:02Z</time></trkpt><trkpt lat="46.27357213171732" lon="12.310484525645899"><ele>475.00000000000006</ele><time>2026-04-06T12:09:03Z</time></trkpt><trkpt lat="46.27365954407236" lon="12.310508267337937"><ele>475.0</ele><time>2026-04-06T12:09:04Z</time></trkpt><trkpt lat="46.273741857664255" lon="12.310546376701506"><ele>475.0</ele><time>2026-04-06T12:09:05Z</time></trkpt><trkpt lat="46.27381362774462" lon="12.310573683619083"><ele>475.0</ele><time>2026-04-06T12:09:06Z</time></trkpt><trkpt lat="46.2738773736426" lon="12.310617394744984"><ele>475.00000000000006</ele><time>2026-04-06T12:09:07Z</time></trkpt><trkpt lat="46.27394985962869" lon="12.31062207525982"><ele>475.0</ele><time>2026-04-06T12:09:08Z</time></trkpt><trkpt lat="46.27405391629396" lon="12.310669666924218"><ele>476.00000000000006</ele><time>2026-04-06T12:09:10Z</time></trkpt><trkpt lat="46.27413444708713" lon="12.310696059007192"><ele>477.0</ele><time>2026-04-06T12:09:12Z</time></trkpt><trkpt lat="46.27423783386181" lon="12.31072900207186"><ele>478.0</ele><time>2026-04-06T12:09:14Z</time></trkpt><trkpt lat="46.2743022979623" lon="12.310742287197751"><ele>479.0</ele><time>2026-04-06T12:09:15Z</time></trkpt><trkpt lat="46.27436814872998" lon="12.310747151158306"><ele>480.00000000000006</ele><time>2026-04-06T12:09:16Z</time></trkpt><trkpt lat="46.27443243942347" lon="12.310748817875178"><ele>481.0</ele><time>2026-04-06T12:09:17Z</time></trkpt><trkpt lat="46.2744996884764" lon="12.310774424738291"><ele>481.00000000000006</ele><time>2026-04-06T12:09:18Z</time></trkpt><trkpt lat="46.27456567279787" lon="12.310777060440596"><ele>481.0</ele><time>2026-04-06T12:09:19Z</time></trkpt><trkpt lat="46.27463046574715" lon="12.310698198571194"><ele>481.0</ele><time>2026-04-06T12:09:20Z</time></trkpt><trkpt lat="46.27469504232135" lon="12.310656944434635"><ele>481.0</ele><time>2026-04-06T12:09:21Z</time></trkpt><trkpt lat="46.274761616348" lon="12.310613185610716"><ele>481.00000000000006</ele><time>2026-04-06T12:09:22Z</time></trkpt><trkpt lat="46.27482167693418" lon="12.310563040683075"><ele>481.0</ele><time>2026-04-06T12:09:23Z</time></trkpt><trkpt lat="46.27491803287472" lon="12.310486975786587"><ele>477.71428571428567</ele><time>2026-04-06T12:09:25Z</time></trkpt><trkpt lat="46.27496986963643" lon="12.310417729746057"><ele>474.42857142857144</ele><time>2026-04-06T12:09:27Z</time></trkpt><trkpt lat="46.27501581210344" lon="12.310350446478592"><ele>471.1428571428571</ele><time>2026-04-06T12:09:30Z</time></trkpt><trkpt lat="46.2750527104806" lon="12.310260323100598"><ele>467.85714285714283</ele><time>2026-04-06T12:09:35Z</time></trkpt><trkpt lat="46.27511409804461" lon="12.310172076679121"><ele>464.57142857142856</ele><time>2026-04-06T12:09:38Z</time></trkpt><trkpt lat="46.2751564420602" lon="12.31008455394813"><ele>461.2857142857143</ele><time>2026-04-06T12:09:42Z</time></trkpt><trkpt lat="46.27521907961148" lon="12.310011471025636"><ele>458.0</ele><time>2026-04-06T12:09:47Z</time></trkpt><trkpt lat="46.2750881281046" lon="12.309803025313453"><ele>457.16666666666663</ele><time>2026-04-06T12:09:50Z</time></trkpt><trkpt lat="46.275033070891446" lon="12.309741408307161"><ele>456.3333333333333</ele><time>2026-04-06T12:09:51Z</time></trkpt><trkpt lat="46.27497013367035" lon="12.30968610721403"><ele>455.5</ele><time>2026-04-06T12:09:52Z</time></trkpt><trkpt lat="46.27491020822425" lon="12.309622256108144"><ele>454.66666666666663</ele><time>2026-04-06T12:09:53Z</time></trkpt><trkpt lat="46.27484911394192" lon="12.309558083793993"><ele>453.8333333333333</ele><time>2026-04-06T12:09:54Z</time></trkpt><trkpt lat="46.27477884455701" lon="12.309481590714569"><ele>453.0</ele><time>2026-04-06T12:09:55Z</time></trkpt><trkpt lat="46.27471025887357" lon="12.309411051263654"><ele>451.6666666666667</ele><time>2026-04-06T12:09:56Z</time></trkpt><trkpt lat="46.27465225005262" lon="12.309343568462669"><ele>450.33333333333337</ele><time>2026-04-06T12:09:57Z</time></trkpt><trkpt lat="46.27461399294525" lon="12.309255223840829"><ele>449.0</ele><time>2026-04-06T12:09:58Z</time></trkpt><trkpt lat="46.274588952099684" lon="12.309168352018037"><ele>447.6666666666667</ele><time>2026-04-06T12:09:59Z</time></trkpt><trkpt lat="46.27455014700944" lon="12.30906032785699"><ele>446.33333333333337</ele><time>2026-04-06T12:10:01Z</time></trkpt><trkpt lat="46.27451666563801" lon="12.30895457717272"><ele>445.0</ele><time>2026-04-06T12:10:05Z</time></trkpt><trkpt lat="46.274406957958426" lon="12.308982728467923"><ele>445.0</ele><time>2026-04-06T12:10:06Z</time></trkpt><trkpt lat="46.27433297739588" lon="12.309016169545083"><ele>445.0</ele><time>2026-04-06T12:10:07Z</time></trkpt><trkpt lat="46.27424726519027" lon="12.309048244385053"><ele>445.0</ele><time>2026-04-06T12:10:08Z</time></trkpt><trkpt lat="46.27414458092827" lon="12.309080412722427"><ele>445.0</ele><time>2026-04-06T12:10:09Z</time></trkpt><trkpt lat="46.274026213985834" lon="12.309115966617151"><ele>445.0</ele><time>2026-04-06T12:10:10Z</time></trkpt><trkpt lat="46.273918354187025" lon="12.309147059235482"><ele>446.0</ele><time>2026-04-06T12:10:11Z</time></trkpt><trkpt lat="46.27380338244429" lon="12.30916596636131"><ele>447.0</ele><time>2026-04-06T12:10:12Z</time></trkpt><trkpt lat="46.27368245849706" lon="12.309169161393477"><ele>448.0</ele><time>2026-04-06T12:10:13Z</time></trkpt><trkpt lat="46.27355523358621" lon="12.309167561198779"><ele>449.0</ele><time>2026-04-06T12:10:14Z</time></trkpt><trkpt lat="46.27342954498663" lon="12.309161762715986"><ele>449.0</ele><time>2026-04-06T12:10:15Z</time></trkpt><trkpt lat="46.27330484527296" lon="12.30915395005286"><ele>449.0</ele><time>2026-04-06T12:10:16Z</time></trkpt><trkpt lat="46.273188713675054" lon="12.309139615891558"><ele>449.0</ele><time>2026-04-06T12:10:17Z</time></trkpt><trkpt lat="46.27308479630911" lon="12.309120574616598"><ele>449.0</ele><time>2026-04-06T12:10:18Z</time></trkpt><trkpt lat="46.27298078113031" lon="12.309108797025537"><ele>450.79999999999995</ele><time>2026-04-06T12:10:19Z</time></trkpt><trkpt lat="46.272886133849376" lon="12.30909807149412"><ele>452.59999999999997</ele><time>2026-04-06T12:10:20Z</time></trkpt><trkpt lat="46.2727965636767" lon="12.309087054042385"><ele>454.4</ele><time>2026-04-06T12:10:21Z</time></trkpt><trkpt lat="46.27269788353223" lon="12.309076196744874"><ele>456.2</ele><time>2026-04-06T12:10:22Z</time></trkpt><trkpt lat="46.272582859247606" lon="12.309064943427229"><ele>458.0</ele><time>2026-04-06T12:10:23Z</time></trkpt><trkpt lat="46.272465264139896" lon="12.309048609824188"><ele>458.0</ele><time>2026-04-06T12:10:24Z</time></trkpt><trkpt lat="46.272351185642854" lon="12.30903283017466"><ele>458.0</ele><time>2026-04-06T12:10:25Z</time></trkpt><trkpt lat="46.272236799008404" lon="12.309011223918871"><ele>458.0</ele><time>2026-04-06T12:10:26Z</time></trkpt><trkpt lat="46.27212123790937" lon="12.308990458696973"><ele>458.0</ele><time>2026-04-06T12:10:27Z</time></trkpt><trkpt lat="46.27199948725922" lon="12.308964912628454"><ele>457.5</ele><time>2026-04-06T12:10:28Z</time></trkpt><trkpt lat="46.27186502912638" lon="12.308926900130631"><ele>457.0</ele><time>2026-04-06T12:10:29Z</time></trkpt><trkpt lat="46.27172042878333" lon="12.30890282115486"><ele>456.5</ele><time>2026-04-06T12:10:30Z</time></trkpt><trkpt lat="46.27157904794285" lon="12.308894810674628"><ele>456.0</ele><time>2026-04-06T12:10:31Z</time></trkpt><trkpt lat="46.27144099248501" lon="12.308900735243217"><ele>453.75</ele><time>2026-04-06T12:10:32Z</time></trkpt><trkpt lat="46.27130145907173" lon="12.308934079705102"><ele>451.5</ele><time>2026-04-06T12:10:33Z</time></trkpt><trkpt lat="46.27115606902266" lon="12.308994075398502"><ele>449.25</ele><time>2026-04-06T12:10:34Z</time></trkpt><trkpt lat="46.27101158265337" lon="12.3090750486996"><ele>447.0</ele><time>2026-04-06T12:10:35Z</time></trkpt><trkpt lat="46.27085848100259" lon="12.309176177756326"><ele>447.0</ele><time>2026-04-06T12:10:36Z</time></trkpt><trkpt lat="46.27069815869622" lon="12.309274562380432"><ele>447.0</ele><time>2026-04-06T12:10:37Z</time></trkpt><trkpt lat="46.27053749920571" lon="12.309377600044822"><ele>447.0</ele><time>2026-04-06T12:10:38Z</time></trkpt><trkpt lat="46.270380008773856" lon="12.309481580832916"><ele>446.0</ele><time>2026-04-06T12:10:39Z</time></trkpt><trkpt lat="46.27022955313151" lon="12.309576051181393"><ele>445.0</ele><time>2026-04-06T12:10:40Z</time></trkpt><trkpt lat="46.27008412591095" lon="12.309665862390386"><ele>444.0</ele><time>2026-04-06T12:10:41Z</time></trkpt><trkpt lat="46.26994232999709" lon="12.30975288988294"><ele>444.25</ele><time>2026-04-06T12:10:42Z</time></trkpt><trkpt lat="46.26980281385154" lon="12.309836765023773"><ele>444.5</ele><time>2026-04-06T12:10:43Z</time></trkpt><trkpt lat="46.26966704100437" lon="12.309920685372061"><ele>444.75</ele><time>2026-04-06T12:10:44Z</time></trkpt><trkpt lat="46.26953231306629" lon="12.31000432947245"><ele>445.0</ele><time>2026-04-06T12:10:45Z</time></trkpt><trkpt lat="46.269396555081805" lon="12.310086242879429"><ele>445.0</ele><time>2026-04-06T12:10:46Z</time></trkpt><trkpt lat="46.269257869006914" lon="12.310169979374743"><ele>445.0</ele><time>2026-04-06T12:10:47Z</time></trkpt><trkpt lat="46.26911374295685" lon="12.310256124671847"><ele>445.0</ele><time>2026-04-06T12:10:48Z</time></trkpt><trkpt lat="46.26897236065441" lon="12.310342044968724"><ele>443.75</ele><time>2026-04-06T12:10:49Z</time></trkpt><trkpt lat="46.26883359062616" lon="12.31042739606063"><ele>442.5</ele><time>2026-04-06T12:10:50Z</time></trkpt><trkpt lat="46.26869829247593" lon="12.310510703678796"><ele>441.25</ele><time>2026-04-06T12:10:51Z</time></trkpt><trkpt lat="46.26856801545262" lon="12.310591322235332"><ele>440.0</ele><time>2026-04-06T12:10:52Z</time></trkpt><trkpt lat="46.268443716043926" lon="12.310665748672767"><ele>441.6</ele><time>2026-04-06T12:10:53Z</time></trkpt><trkpt lat="46.26832810603246" lon="12.310737880028027"><ele>443.2</ele><time>2026-04-06T12:10:54Z</time></trkpt><trkpt lat="46.26822881634498" lon="12.310801487593936"><ele>444.79999999999995</ele><time>2026-04-06T12:10:55Z</time></trkpt><trkpt lat="46.2681408367873" lon="12.310841308285926"><ele>446.4</ele><time>2026-04-06T12:10:56Z</time></trkpt><trkpt lat="46.268058917199056" lon="12.310835581743861"><ele>448.0</ele><time>2026-04-06T12:10:57Z</time></trkpt><trkpt lat="46.26798850939399" lon="12.31077254319764"><ele>448.0</ele><time>2026-04-06T12:10:58Z</time></trkpt><trkpt lat="46.267946211932525" lon="12.310662204580654"><ele>447.99999999999994</ele><time>2026-04-06T12:10:59Z</time></trkpt><trkpt lat="46.26794832311674" lon="12.310527078199286"><ele>447.99999999999994</ele><time>2026-04-06T12:11:00Z</time></trkpt><trkpt lat="46.26794061836109" lon="12.310384325896981"><ele>448.0</ele><time>2026-04-06T12:11:01Z</time></trkpt><trkpt lat="46.267915908249655" lon="12.310228581449088"><ele>448.0</ele><time>2026-04-06T12:11:02Z</time></trkpt><trkpt lat="46.267922640662476" lon="12.31005937049834"><ele>446.0</ele><time>2026-04-06T12:11:03Z</time></trkpt><trkpt lat="46.26791189300808" lon="12.309865101549958"><ele>444.0</ele><time>2026-04-06T12:11:04Z</time></trkpt><trkpt lat="46.267899913873336" lon="12.309657667863984"><ele>442.0</ele><time>2026-04-06T12:11:05Z</time></trkpt><trkpt lat="46.26788700831821" lon="12.309436046552042"><ele>440.0</ele><time>2026-04-06T12:11:06Z</time></trkpt><trkpt lat="46.267874122397835" lon="12.309214762418716"><ele>439.0</ele><time>2026-04-06T12:11:07Z</time></trkpt><trkpt lat="46.26786082347932" lon="12.308986386074706"><ele>438.0</ele><time>2026-04-06T12:11:08Z</time></trkpt><trkpt lat="46.2678470165973" lon="12.308752326005223"><ele>437.0</ele><time>2026-04-06T12:11:09Z</time></trkpt><trkpt lat="46.26783196555227" lon="12.308497683981711"><ele>436.3333333333333</ele><time>2026-04-06T12:11:10Z</time></trkpt><trkpt lat="46.2678159086281" lon="12.308226023937676"><ele>435.66666666666663</ele><time>2026-04-06T12:11:11Z</time></trkpt><trkpt lat="46.26779853687364" lon="12.307930043168263"><ele>435.0</ele><time>2026-04-06T12:11:12Z</time></trkpt><trkpt lat="46.26776557082774" lon="12.3076152414248"><ele>435.0</ele><time>2026-04-06T12:11:13Z</time></trkpt><trkpt lat="46.26774618782233" lon="12.307284825736094"><ele>435.0</ele><time>2026-04-06T12:11:14Z</time></trkpt><trkpt lat="46.267726985100275" lon="12.306973057255098"><ele>435.0</ele><time>2026-04-06T12:11:15Z</time></trkpt><trkpt lat="46.267710764360615" lon="12.306683245728497"><ele>436.0</ele><time>2026-04-06T12:11:16Z</time></trkpt><trkpt lat="46.26769544197635" lon="12.306400486116948"><ele>437.0</ele><time>2026-04-06T12:11:17Z</time></trkpt><trkpt lat="46.26767815904525" lon="12.3061226750634"><ele>438.0</ele><time>2026-04-06T12:11:18Z</time></trkpt><trkpt lat="46.26766290372737" lon="12.305846364099423"><ele>438.0</ele><time>2026-04-06T12:11:19Z</time></trkpt><trkpt lat="46.26765521565422" lon="12.305581667278208"><ele>438.0</ele><time>2026-04-06T12:11:20Z</time></trkpt><trkpt lat="46.26765952594584" lon="12.305328651727402"><ele>438.0</ele><time>2026-04-06T12:11:21Z</time></trkpt><trkpt lat="46.26768138621565" lon="12.305077885116447"><ele>439.33333333333337</ele><time>2026-04-06T12:11:22Z</time></trkpt><trkpt lat="46.267718680764" lon="12.304830121075158"><ele>440.6666666666667</ele><time>2026-04-06T12:11:23Z</time></trkpt><trkpt lat="46.26776758241842" lon="12.30459350655171"><ele>442.0</ele><time>2026-04-06T12:11:24Z</time></trkpt><trkpt lat="46.26782174266802" lon="12.304364143989693"><ele>442.0</ele><time>2026-04-06T12:11:25Z</time></trkpt><trkpt lat="46.26787799849703" lon="12.304154440595875"><ele>442.0</ele><time>2026-04-06T12:11:26Z</time></trkpt><trkpt lat="46.267911799638135" lon="12.303965715116897"><ele>442.0</ele><time>2026-04-06T12:11:27Z</time></trkpt><trkpt lat="46.267923190066156" lon="12.303774176169023"><ele>442.0</ele><time>2026-04-06T12:11:28Z</time></trkpt><trkpt lat="46.26791174045345" lon="12.303585034451652"><ele>443.20000000000005</ele><time>2026-04-06T12:11:29Z</time></trkpt><trkpt lat="46.26788402626524" lon="12.303409340524311"><ele>444.40000000000003</ele><time>2026-04-06T12:11:30Z</time></trkpt><trkpt lat="46.26784368674213" lon="12.303255181974343"><ele>445.59999999999997</ele><time>2026-04-06T12:11:31Z</time></trkpt><trkpt lat="46.26779316892085" lon="12.303130871574016"><ele>446.79999999999995</ele><time>2026-04-06T12:11:32Z</time></trkpt><trkpt lat="46.26773724735894" lon="12.303012162814051"><ele>448.0</ele><time>2026-04-06T12:11:33Z</time></trkpt><trkpt lat="46.267672434198616" lon="12.302899950957606"><ele>449.79999999999995</ele><time>2026-04-06T12:11:34Z</time></trkpt><trkpt lat="46.267596189964635" lon="12.302794238557897"><ele>451.59999999999997</ele><time>2026-04-06T12:11:35Z</time></trkpt><trkpt lat="46.26750988565011" lon="12.302691939299338"><ele>453.40000000000003</ele><time>2026-04-06T12:11:36Z</time></trkpt><trkpt lat="46.267414956914045" lon="12.302607648543106"><ele>455.20000000000005</ele><time>2026-04-06T12:11:37Z</time></trkpt><trkpt lat="46.26731868513969" lon="12.302539089911097"><ele>457.0</ele><time>2026-04-06T12:11:38Z</time></trkpt><trkpt lat="46.26721902882879" lon="12.302485980571984"><ele>457.5</ele><time>2026-04-06T12:11:39Z</time></trkpt><trkpt lat="46.267113149054815" lon="12.302446181220164"><ele>458.0</ele><time>2026-04-06T12:11:40Z</time></trkpt><trkpt lat="46.26700247616295" lon="12.302417193704246"><ele>458.5</ele><time>2026-04-06T12:11:41Z</time></trkpt><trkpt lat="46.26688667403281" lon="12.302396635878276"><ele>459.0</ele><time>2026-04-06T12:11:42Z</time></trkpt><trkpt lat="46.266766919597664" lon="12.302391603486612"><ele>459.0</ele><time>2026-04-06T12:11:43Z</time></trkpt><trkpt lat="46.26664602460862" lon="12.30240196966274"><ele>459.0</ele><time>2026-04-06T12:11:44Z</time></trkpt><trkpt lat="46.266528868046144" lon="12.30242151400981"><ele>459.0</ele><time>2026-04-06T12:11:45Z</time></trkpt><trkpt lat="46.266414266603604" lon="12.302451221317623"><ele>459.0</ele><time>2026-04-06T12:11:46Z</time></trkpt><trkpt lat="46.26630212265455" lon="12.30249575391889"><ele>460.25</ele><time>2026-04-06T12:11:47Z</time></trkpt><trkpt lat="46.26619121984363" lon="12.302552280243454"><ele>461.5</ele><time>2026-04-06T12:11:48Z</time></trkpt><trkpt lat="46.26608187498102" lon="12.302615833989865"><ele>462.75</ele><time>2026-04-06T12:11:49Z</time></trkpt><trkpt lat="46.26597663879934" lon="12.302687325974665"><ele>464.0</ele><time>2026-04-06T12:11:50Z</time></trkpt><trkpt lat="46.26587421878986" lon="12.302754955614537"><ele>464.0</ele><time>2026-04-06T12:11:51Z</time></trkpt><trkpt lat="46.26577716509762" lon="12.302812985715152"><ele>464.0</ele><time>2026-04-06T12:11:52Z</time></trkpt><trkpt lat="46.26569205212163" lon="12.302870025232425"><ele>464.0</ele><time>2026-04-06T12:11:53Z</time></trkpt><trkpt lat="46.265622756397605" lon="12.302921443769838"><ele>464.0</ele><time>2026-04-06T12:11:54Z</time></trkpt><trkpt lat="46.26551225021868" lon="12.3029926017126"><ele>464.0</ele><time>2026-04-06T12:11:56Z</time></trkpt><trkpt lat="46.265409946200606" lon="12.30302803932221"><ele>465.66666666666663</ele><time>2026-04-06T12:11:58Z</time></trkpt><trkpt lat="46.265296432598646" lon="12.303002166552988"><ele>467.3333333333333</ele><time>2026-04-06T12:12:00Z</time></trkpt><trkpt lat="46.265237234961006" lon="12.302968593347437"><ele>469.0</ele><time>2026-04-06T12:12:01Z</time></trkpt><trkpt lat="46.26517949902203" lon="12.302914866753262"><ele>470.66666666666663</ele><time>2026-04-06T12:12:02Z</time></trkpt><trkpt lat="46.26511034895798" lon="12.302812022969393"><ele>472.3333333333333</ele><time>2026-04-06T12:12:04Z</time></trkpt><trkpt lat="46.265082247855766" lon="12.302716403715312"><ele>474.0</ele><time>2026-04-06T12:12:07Z</time></trkpt><trkpt lat="46.265082130558326" lon="12.302592947863069"><ele>474.0</ele><time>2026-04-06T12:12:15.999Z</time></trkpt><trkpt lat="46.26509610905109" lon="12.30249804832257"><ele>474.0</ele><time>2026-04-06T12:12:17Z</time></trkpt><trkpt lat="46.265136922321986" lon="12.30237492994644"><ele>474.0</ele><time>2026-04-06T12:12:18Z</time></trkpt><trkpt lat="46.265212940333655" lon="12.302246297732857"><ele>474.0</ele><time>2026-04-06T12:12:19Z</time></trkpt><trkpt lat="46.265286715066196" lon="12.302148268467676"><ele>474.0</ele><time>2026-04-06T12:12:20Z</time></trkpt><trkpt lat="46.26534998698871" lon="12.302062308736222"><ele>473.8333333333333</ele><time>2026-04-06T12:12:21Z</time></trkpt><trkpt lat="46.265402926258986" lon="12.301989505019506"><ele>473.66666666666663</ele><time>2026-04-06T12:12:22Z</time></trkpt><trkpt lat="46.26547139600664" lon="12.301908436809384"><ele>473.5</ele><time>2026-04-06T12:12:24Z</time></trkpt><trkpt lat="46.26552751365091" lon="12.30185647321992"><ele>473.3333333333333</ele><time>2026-04-06T12:12:29Z</time></trkpt><trkpt lat="46.2655897972724" lon="12.301788975851876"><ele>473.16666666666663</ele><time>2026-04-06T12:12:33Z</time></trkpt><trkpt lat="46.2656477695455" lon="12.301715705972073"><ele>473.0</ele><time>2026-04-06T12:12:35Z</time></trkpt><trkpt lat="46.26567897882319" lon="12.301535734042412"><ele>473.0</ele><time>2026-04-06T12:12:37Z</time></trkpt><trkpt lat="46.26565568807401" lon="12.301422360639066"><ele>472.99999999999994</ele><time>2026-04-06T12:12:38Z</time></trkpt><trkpt lat="46.26563937591299" lon="12.301284219769132"><ele>472.99999999999994</ele><time>2026-04-06T12:12:39Z</time></trkpt><trkpt lat="46.26565002209804" lon="12.301121369831"><ele>473.0</ele><time>2026-04-06T12:12:40Z</time></trkpt><trkpt lat="46.2656759055109" lon="12.30095350078324"><ele>473.0</ele><time>2026-04-06T12:12:41Z</time></trkpt><trkpt lat="46.26570918301091" lon="12.300795706281768"><ele>474.2</ele><time>2026-04-06T12:12:42Z</time></trkpt><trkpt lat="46.265741228462524" lon="12.300649977852984"><ele>475.4</ele><time>2026-04-06T12:12:43Z</time></trkpt><trkpt lat="46.26576381201221" lon="12.300529733432683"><ele>476.59999999999997</ele><time>2026-04-06T12:12:44Z</time></trkpt><trkpt lat="46.26578737939001" lon="12.30037741631911"><ele>477.79999999999995</ele><time>2026-04-06T12:12:46Z</time></trkpt><trkpt lat="46.26580487469259" lon="12.300261899019917"><ele>479.0</ele><time>2026-04-06T12:12:48Z</time></trkpt><trkpt lat="46.2658208928767" lon="12.300151089317804"><ele>480.0</ele><time>2026-04-06T12:12:50Z</time></trkpt><trkpt lat="46.26584617519103" lon="12.300052999544258"><ele>481.0</ele><time>2026-04-06T12:12:52Z</time></trkpt><trkpt lat="46.26589786480907" lon="12.299957894417238"><ele>482.0</ele><time>2026-04-06T12:12:54Z</time></trkpt><trkpt lat="46.26598406634382" lon="12.299880001621194"><ele>483.0</ele><time>2026-04-06T12:12:56Z</time></trkpt><trkpt lat="46.26609010169248" lon="12.299856776763344"><ele>484.0</ele><time>2026-04-06T12:12:58Z</time></trkpt><trkpt lat="46.2661899133027" lon="12.299876055060762"><ele>484.00000000000006</ele><time>2026-04-06T12:13:00Z</time></trkpt><trkpt lat="46.266269873439214" lon="12.299899410463174"><ele>484.0</ele><time>2026-04-06T12:13:02Z</time></trkpt><trkpt lat="46.26634557633279" lon="12.29990855409794"><ele>484.0</ele><time>2026-04-06T12:13:04Z</time></trkpt><trkpt lat="46.26642081885038" lon="12.299924390989696"><ele>484.0</ele><time>2026-04-06T12:13:06Z</time></trkpt><trkpt lat="46.26649371675772" lon="12.2999424498742"><ele>484.00000000000006</ele><time>2026-04-06T12:13:08Z</time></trkpt><trkpt lat="46.266572211534076" lon="12.299949984377788"><ele>484.0</ele><time>2026-04-06T12:13:12Z</time></trkpt><trkpt lat="46.26664917976643" lon="12.299967536477025"><ele>483.50000000000006</ele><time>2026-04-06T12:13:15Z</time></trkpt><trkpt lat="46.266725106168934" lon="12.300046089102182"><ele>483.0</ele><time>2026-04-06T12:13:17Z</time></trkpt><trkpt lat="46.2667762798898" lon="12.30014500597003"><ele>482.5</ele><time>2026-04-06T12:13:19Z</time></trkpt><trkpt lat="46.26679091549016" lon="12.300265672756922"><ele>482.0</ele><time>2026-04-06T12:13:21Z</time></trkpt><trkpt lat="46.266801990476694" lon="12.300365338610503"><ele>481.50000000000006</ele><time>2026-04-06T12:13:23Z</time></trkpt><trkpt lat="46.266841791759646" lon="12.300444991887268"><ele>481.0</ele><time>2026-04-06T12:13:25Z</time></trkpt><trkpt lat="46.26690040509368" lon="12.300488638318928"><ele>480.99999999999994</ele><time>2026-04-06T12:13:27Z</time></trkpt><trkpt lat="46.26698188145425" lon="12.300504211658627"><ele>481.0</ele><time>2026-04-06T12:13:30Z</time></trkpt><trkpt lat="46.26704545905889" lon="12.300508569941659"><ele>480.99999999999994</ele><time>2026-04-06T12:13:32Z</time></trkpt><trkpt lat="46.26711343551521" lon="12.300504969485605"><ele>480.99999999999994</ele><time>2026-04-06T12:13:34Z</time></trkpt><trkpt lat="46.26718059341148" lon="12.300497903635993"><ele>481.0</ele><time>2026-04-06T12:13:36Z</time></trkpt><trkpt lat="46.2672747995364" lon="12.30050148941854"><ele>480.99999999999994</ele><time>2026-04-06T12:13:39Z</time></trkpt><trkpt lat="46.2673456990834" lon="12.300500760351397"><ele>480.99999999999994</ele><time>2026-04-06T12:13:41Z</time></trkpt><trkpt lat="46.267419934486384" lon="12.3005040039437"><ele>480.8</ele><time>2026-04-06T12:13:43Z</time></trkpt><trkpt lat="46.267489951642276" lon="12.300512802506562"><ele>480.6</ele><time>2026-04-06T12:13:45Z</time></trkpt><trkpt lat="46.26758417342133" lon="12.300508495716622"><ele>480.4</ele><time>2026-04-06T12:13:47Z</time></trkpt><trkpt lat="46.26767527080715" lon="12.300503256221496"><ele>480.2</ele><time>2026-04-06T12:13:49Z</time></trkpt><trkpt lat="46.26778321494348" lon="12.300514552968195"><ele>480.0</ele><time>2026-04-06T12:13:51Z</time></trkpt><trkpt lat="46.26789147000872" lon="12.300515644172334"><ele>480.0</ele><time>2026-04-06T12:13:53Z</time></trkpt><trkpt lat="46.2679764530459" lon="12.300516925301917"><ele>480.0</ele><time>2026-04-06T12:13:55Z</time></trkpt><trkpt lat="46.26806665096672" lon="12.300515730031583"><ele>480.0</ele><time>2026-04-06T12:13:57Z</time></trkpt><trkpt lat="46.26814510828527" lon="12.300545564397352"><ele>480.0</ele><time>2026-04-06T12:13:59Z</time></trkpt><trkpt lat="46.2682276470779" lon="12.300546143909232"><ele>480.0</ele><time>2026-04-06T12:14:01Z</time></trkpt><trkpt lat="46.268291608786804" lon="12.300546592988676"><ele>480.0</ele><time>2026-04-06T12:14:03Z</time></trkpt><trkpt lat="46.26837160854091" lon="12.300535489922105"><ele>479.3333333333333</ele><time>2026-04-06T12:14:06Z</time></trkpt><trkpt lat="46.26846968244279" lon="12.300591221133827"><ele>478.66666666666663</ele><time>2026-04-06T12:14:08.999Z</time></trkpt><trkpt lat="46.26854226675749" lon="12.300651548784641"><ele>478.0</ele><time>2026-04-06T12:14:10.999Z</time></trkpt><trkpt lat="46.268612508841954" lon="12.300731645212283"><ele>477.3333333333333</ele><time>2026-04-06T12:14:13.999Z</time></trkpt><trkpt lat="46.26863248190928" lon="12.300818302185345"><ele>476.66666666666663</ele><time>2026-04-06T12:16:01Z</time></trkpt><trkpt lat="46.268735651413486" lon="12.300804968984794"><ele>476.0</ele><time>2026-04-06T12:16:04Z</time></trkpt><trkpt lat="46.26886891719621" lon="12.30086419918687"><ele>476.3333333333333</ele><time>2026-04-06T12:16:06Z</time></trkpt><trkpt lat="46.26894721192812" lon="12.300916400440514"><ele>476.66666666666663</ele><time>2026-04-06T12:16:06.999Z</time></trkpt><trkpt lat="46.26902776374623" lon="12.300946192909944"><ele>477.0</ele><time>2026-04-06T12:16:07.999Z</time></trkpt><trkpt lat="46.26910988358263" lon="12.300980362423834"><ele>477.33333333333337</ele><time>2026-04-06T12:16:08.999Z</time></trkpt><trkpt lat="46.26918565812464" lon="12.300991437365619"><ele>477.6666666666667</ele><time>2026-04-06T12:16:09.999Z</time></trkpt><trkpt lat="46.26926814587188" lon="12.300995986769928"><ele>478.0</ele><time>2026-04-06T12:16:10.999Z</time></trkpt><trkpt lat="46.269343590339275" lon="12.300985425012215"><ele>478.00000000000006</ele><time>2026-04-06T12:16:11.999Z</time></trkpt><trkpt lat="46.26940665792874" lon="12.300968982938794"><ele>478.0</ele><time>2026-04-06T12:16:12.999Z</time></trkpt><trkpt lat="46.26952125229708" lon="12.30090305330493"><ele>478.0</ele><time>2026-04-06T12:16:14.999Z</time></trkpt><trkpt lat="46.26958839022426" lon="12.30087138590757"><ele>478.0</ele><time>2026-04-06T12:16:15.999Z</time></trkpt><trkpt lat="46.2696554603898" lon="12.300822228928734"><ele>478.00000000000006</ele><time>2026-04-06T12:16:16.999Z</time></trkpt><trkpt lat="46.26971800382137" lon="12.300750294110328"><ele>478.0</ele><time>2026-04-06T12:16:17.999Z</time></trkpt><trkpt lat="46.26977845311492" lon="12.30067846557655"><ele>478.1666666666667</ele><time>2026-04-06T12:16:18.999Z</time></trkpt><trkpt lat="46.26984017343952" lon="12.300610397075964"><ele>478.33333333333337</ele><time>2026-04-06T12:16:19.999Z</time></trkpt><trkpt lat="46.26991175493181" lon="12.300570935034271"><ele>478.5</ele><time>2026-04-06T12:16:20.999Z</time></trkpt><trkpt lat="46.2699665140543" lon="12.300512735295698"><ele>478.66666666666663</ele><time>2026-04-06T12:16:21.999Z</time></trkpt><trkpt lat="46.27006665129595" lon="12.300407758488396"><ele>478.8333333333333</ele><time>2026-04-06T12:16:23.999Z</time></trkpt><trkpt lat="46.27012358594627" lon="12.300352705276534"><ele>479.0</ele><time>2026-04-06T12:16:24.999Z</time></trkpt><trkpt lat="46.270184948655775" lon="12.300307095819498"><ele>480.42857142857144</ele><time>2026-04-06T12:16:25.999Z</time></trkpt><trkpt lat="46.27025235727276" lon="12.300276273577941"><ele>481.8571428571429</ele><time>2026-04-06T12:16:26.999Z</time></trkpt><trkpt lat="46.27032367946082" lon="12.300248393065973"><ele>483.28571428571433</ele><time>2026-04-06T12:16:27.999Z</time></trkpt><trkpt lat="46.27039901904056" lon="12.300231039440478"><ele>484.7142857142857</ele><time>2026-04-06T12:16:29Z</time></trkpt><trkpt lat="46.27047631330729" lon="12.30022082518937"><ele>486.1428571428572</ele><time>2026-04-06T12:16:30Z</time></trkpt><trkpt lat="46.27055332101474" lon="12.300225395106596"><ele>487.5714285714286</ele><time>2026-04-06T12:16:31Z</time></trkpt><trkpt lat="46.2706210648644" lon="12.30024981466579"><ele>489.0</ele><time>2026-04-06T12:16:32Z</time></trkpt><trkpt lat="46.27069374772429" lon="12.300279221319657"><ele>489.0</ele><time>2026-04-06T12:16:33Z</time></trkpt><trkpt lat="46.27076671456979" lon="12.300308892300505"><ele>489.0</ele><time>2026-04-06T12:16:34Z</time></trkpt><trkpt lat="46.27083486538969" lon="12.30033950392781"><ele>489.0</ele><time>2026-04-06T12:16:35Z</time></trkpt><trkpt lat="46.27089808015565" lon="12.300359240946788"><ele>489.0</ele><time>2026-04-06T12:16:36Z</time></trkpt><trkpt lat="46.27100750924893" lon="12.300364859155037"><ele>489.0</ele><time>2026-04-06T12:16:38Z</time></trkpt><trkpt lat="46.27109702380469" lon="12.300366045652062"><ele>489.0</ele><time>2026-04-06T12:16:40Z</time></trkpt><trkpt lat="46.27117632834671" lon="12.300366851088166"><ele>489.0</ele><time>2026-04-06T12:16:42Z</time></trkpt><trkpt lat="46.271253204247664" lon="12.300367631857371"><ele>489.0</ele><time>2026-04-06T12:16:46Z</time></trkpt><trkpt lat="46.271333525866595" lon="12.300368447623955"><ele>489.0</ele><time>2026-04-06T12:16:48Z</time></trkpt><trkpt lat="46.27144006531531" lon="12.30028941632779"><ele>489.0</ele><time>2026-04-06T12:16:50Z</time></trkpt><trkpt lat="46.27155183856176" lon="12.300281264090836"><ele>489.0</ele><time>2026-04-06T12:16:52Z</time></trkpt><trkpt lat="46.27165617633816" lon="12.300282887840478"><ele>488.6666666666667</ele><time>2026-04-06T12:16:54Z</time></trkpt><trkpt lat="46.27173368034871" lon="12.300295278198519"><ele>488.33333333333337</ele><time>2026-04-06T12:16:56Z</time></trkpt><trkpt lat="46.271808524035116" lon="12.300306313388427"><ele>488.0</ele><time>2026-04-06T12:16:58Z</time></trkpt><trkpt lat="46.27187851515377" lon="12.300341601132262"><ele>487.6666666666667</ele><time>2026-04-06T12:17:00Z</time></trkpt><trkpt lat="46.27195876510543" lon="12.30037552518528"><ele>487.33333333333337</ele><time>2026-04-06T12:17:02Z</time></trkpt><trkpt lat="46.27202529986634" lon="12.300405939504472"><ele>487.0</ele><time>2026-04-06T12:17:03Z</time></trkpt><trkpt lat="46.27211224449672" lon="12.300438072994497"><ele>487.0</ele><time>2026-04-06T12:17:04Z</time></trkpt><trkpt lat="46.27222365647684" lon="12.300457427027284"><ele>487.00000000000006</ele><time>2026-04-06T12:17:05Z</time></trkpt><trkpt lat="46.2723340852051" lon="12.300487223828478"><ele>487.00000000000006</ele><time>2026-04-06T12:17:06Z</time></trkpt><trkpt lat="46.27243340295814" lon="12.300553279930215"><ele>487.0</ele><time>2026-04-06T12:17:07Z</time></trkpt><trkpt lat="46.2725429536588" lon="12.300564471518802"><ele>487.0</ele><time>2026-04-06T12:17:08Z</time></trkpt><trkpt lat="46.27266101780227" lon="12.300614156126526"><ele>484.33333333333337</ele><time>2026-04-06T12:17:09Z</time></trkpt><trkpt lat="46.272802039516684" lon="12.30065900279713"><ele>481.66666666666663</ele><time>2026-04-06T12:17:10Z</time></trkpt><trkpt lat="46.272962197778185" lon="12.300719876338736"><ele>479.0</ele><time>2026-04-06T12:17:11Z</time></trkpt><trkpt lat="46.2731241996196" lon="12.300791979945302"><ele>479.0</ele><time>2026-04-06T12:17:12Z</time></trkpt><trkpt lat="46.273272489694094" lon="12.300844231281568"><ele>479.0</ele><time>2026-04-06T12:17:13Z</time></trkpt><trkpt lat="46.27341879786848" lon="12.300890211374933"><ele>479.0</ele><time>2026-04-06T12:17:14Z</time></trkpt><trkpt lat="46.273585283495756" lon="12.300933163610797"><ele>479.0</ele><time>2026-04-06T12:17:15Z</time></trkpt><trkpt lat="46.273762835670446" lon="12.300992894508585"><ele>479.0</ele><time>2026-04-06T12:17:16Z</time></trkpt><trkpt lat="46.2739474890249" lon="12.301028764513179"><ele>479.0</ele><time>2026-04-06T12:17:17Z</time></trkpt><trkpt lat="46.27412259227746" lon="12.301050195322631"><ele>481.66666666666663</ele><time>2026-04-06T12:17:18Z</time></trkpt><trkpt lat="46.274301056053886" lon="12.301018741797293"><ele>484.33333333333337</ele><time>2026-04-06T12:17:19Z</time></trkpt><trkpt lat="46.274472137773486" lon="12.301026801639178"><ele>487.0</ele><time>2026-04-06T12:17:20Z</time></trkpt><trkpt lat="46.27463696037374" lon="12.301013732796612"><ele>488.0</ele><time>2026-04-06T12:17:21Z</time></trkpt><trkpt lat="46.274803591749816" lon="12.301000520535489"><ele>489.0</ele><time>2026-04-06T12:17:22Z</time></trkpt><trkpt lat="46.274975409213326" lon="12.300986897068018"><ele>490.0</ele><time>2026-04-06T12:17:23Z</time></trkpt><trkpt lat="46.27513639578111" lon="12.300952986325285"><ele>490.0</ele><time>2026-04-06T12:17:24Z</time></trkpt><trkpt lat="46.275294092935994" lon="12.300939021233647"><ele>490.0</ele><time>2026-04-06T12:17:25Z</time></trkpt><trkpt lat="46.27546515391435" lon="12.300926047967963"><ele>490.0</ele><time>2026-04-06T12:17:26Z</time></trkpt><trkpt lat="46.275639441215866" lon="12.300914013433756"><ele>491.25</ele><time>2026-04-06T12:17:27Z</time></trkpt><trkpt lat="46.27580674653164" lon="12.300901455705926"><ele>492.5</ele><time>2026-04-06T12:17:28Z</time></trkpt><trkpt lat="46.275952191547375" lon="12.300891757393114"><ele>493.75</ele><time>2026-04-06T12:17:29Z</time></trkpt><trkpt lat="46.27608184102244" lon="12.300883125202622"><ele>495.0</ele><time>2026-04-06T12:17:30Z</time></trkpt><trkpt lat="46.27621428012096" lon="12.300873110758216"><ele>495.0</ele><time>2026-04-06T12:17:31Z</time></trkpt><trkpt lat="46.27634908751011" lon="12.300864003238257"><ele>495.0</ele><time>2026-04-06T12:17:32Z</time></trkpt><trkpt lat="46.27647393089034" lon="12.300849807549753"><ele>495.0</ele><time>2026-04-06T12:17:33Z</time></trkpt><trkpt lat="46.27659446949113" lon="12.300841617656483"><ele>495.0</ele><time>2026-04-06T12:17:34Z</time></trkpt><trkpt lat="46.27672293212804" lon="12.300842755120168"><ele>495.75</ele><time>2026-04-06T12:17:35Z</time></trkpt><trkpt lat="46.27685195019863" lon="12.30086524266018"><ele>496.5</ele><time>2026-04-06T12:17:36Z</time></trkpt><trkpt lat="46.27697365240359" lon="12.30090785504136"><ele>497.25</ele><time>2026-04-06T12:17:37Z</time></trkpt><trkpt lat="46.277090811921404" lon="12.300978173641544"><ele>498.0</ele><time>2026-04-06T12:17:38Z</time></trkpt><trkpt lat="46.277199873676594" lon="12.301077163221784"><ele>495.75</ele><time>2026-04-06T12:17:39Z</time></trkpt><trkpt lat="46.277303390894666" lon="12.301193443244033"><ele>493.5</ele><time>2026-04-06T12:17:40Z</time></trkpt><trkpt lat="46.27741211909132" lon="12.301314199804496"><ele>491.25</ele><time>2026-04-06T12:17:41Z</time></trkpt><trkpt lat="46.2775305156107" lon="12.30144064609116"><ele>489.0</ele><time>2026-04-06T12:17:42Z</time></trkpt><trkpt lat="46.27766214860562" lon="12.301560327867147"><ele>489.0</ele><time>2026-04-06T12:17:43Z</time></trkpt><trkpt lat="46.27779874240274" lon="12.30167268926044"><ele>489.0</ele><time>2026-04-06T12:17:44Z</time></trkpt><trkpt lat="46.27793620910138" lon="12.301768425523425"><ele>489.0</ele><time>2026-04-06T12:17:45Z</time></trkpt><trkpt lat="46.278075934873385" lon="12.301855820435362"><ele>489.5</ele><time>2026-04-06T12:17:46Z</time></trkpt><trkpt lat="46.27820809191476" lon="12.301937903580754"><ele>490.0</ele><time>2026-04-06T12:17:47Z</time></trkpt><trkpt lat="46.278320615176746" lon="12.302022431314224"><ele>490.5</ele><time>2026-04-06T12:17:48Z</time></trkpt><trkpt lat="46.2784280883032" lon="12.30212788145616"><ele>491.0</ele><time>2026-04-06T12:17:49Z</time></trkpt><trkpt lat="46.278525580863786" lon="12.302252529688918"><ele>491.0</ele><time>2026-04-06T12:17:50Z</time></trkpt><trkpt lat="46.278622213755426" lon="12.302377543527593"><ele>491.0</ele><time>2026-04-06T12:17:51Z</time></trkpt><trkpt lat="46.278717787845196" lon="12.30249367199224"><ele>491.0</ele><time>2026-04-06T12:17:52Z</time></trkpt><trkpt lat="46.278818850464866" lon="12.302589916463598"><ele>491.0</ele><time>2026-04-06T12:17:53Z</time></trkpt><trkpt lat="46.27892877160455" lon="12.302663558402582"><ele>494.0</ele><time>2026-04-06T12:17:54Z</time></trkpt><trkpt lat="46.27904351450727" lon="12.302713880310085"><ele>497.0</ele><time>2026-04-06T12:17:55Z</time></trkpt><trkpt lat="46.27916419978962" lon="12.302740884842951"><ele>500.0</ele><time>2026-04-06T12:17:56Z</time></trkpt><trkpt lat="46.27929038708496" lon="12.30275679876182"><ele>503.0</ele><time>2026-04-06T12:17:57Z</time></trkpt><trkpt lat="46.279417493174186" lon="12.302774189071162"><ele>503.0</ele><time>2026-04-06T12:17:58Z</time></trkpt><trkpt lat="46.2795464454976" lon="12.302792588101866"><ele>503.0</ele><time>2026-04-06T12:17:59Z</time></trkpt><trkpt lat="46.27967653760473" lon="12.302810933099677"><ele>503.0</ele><time>2026-04-06T12:18:00Z</time></trkpt><trkpt lat="46.27980990084336" lon="12.302827226295545"><ele>503.0</ele><time>2026-04-06T12:18:01Z</time></trkpt><trkpt lat="46.27994402906385" lon="12.302845505422809"><ele>502.0</ele><time>2026-04-06T12:18:02Z</time></trkpt><trkpt lat="46.2800805673373" lon="12.30287510321091"><ele>501.0</ele><time>2026-04-06T12:18:03Z</time></trkpt><trkpt lat="46.28022175488509" lon="12.3029272464041"><ele>500.0</ele><time>2026-04-06T12:18:04Z</time></trkpt><trkpt lat="46.28036379400844" lon="12.30300340922186"><ele>499.0</ele><time>2026-04-06T12:18:04.999Z</time></trkpt><trkpt lat="46.280504975533866" lon="12.303099459112923"><ele>500.5</ele><time>2026-04-06T12:18:05.999Z</time></trkpt><trkpt lat="46.28064134319231" lon="12.30320947985826"><ele>502.0</ele><time>2026-04-06T12:18:06.999Z</time></trkpt><trkpt lat="46.28077123963316" lon="12.303314443647501"><ele>503.5</ele><time>2026-04-06T12:18:07.999Z</time></trkpt><trkpt lat="46.280899357626296" lon="12.30340153861414"><ele>505.0</ele><time>2026-04-06T12:18:08.999Z</time></trkpt><trkpt lat="46.281028875947214" lon="12.303468243697496"><ele>505.0</ele><time>2026-04-06T12:18:09.999Z</time></trkpt><trkpt lat="46.281161704414096" lon="12.3035169783135"><ele>505.0</ele><time>2026-04-06T12:18:10.999Z</time></trkpt><trkpt lat="46.28129177246754" lon="12.303562439849186"><ele>505.0</ele><time>2026-04-06T12:18:11.999Z</time></trkpt><trkpt lat="46.281419724565566" lon="12.303610106808394"><ele>505.0</ele><time>2026-04-06T12:18:12.999Z</time></trkpt><trkpt lat="46.281541790772806" lon="12.303656894827459"><ele>510.5</ele><time>2026-04-06T12:18:13.999Z</time></trkpt><trkpt lat="46.28165978178963" lon="12.303696864040457"><ele>516.0</ele><time>2026-04-06T12:18:14.999Z</time></trkpt><trkpt lat="46.281780027866404" lon="12.303741862521598"><ele>521.5</ele><time>2026-04-06T12:18:15.999Z</time></trkpt><trkpt lat="46.28189165398261" lon="12.303792743635757"><ele>527.0</ele><time>2026-04-06T12:18:16.999Z</time></trkpt><trkpt lat="46.281998489246405" lon="12.303858819164422"><ele>522.25</ele><time>2026-04-06T12:18:17.999Z</time></trkpt><trkpt lat="46.28209680484274" lon="12.303946119602713"><ele>517.5</ele><time>2026-04-06T12:18:18.999Z</time></trkpt><trkpt lat="46.28218808248762" lon="12.304051006921368"><ele>512.75</ele><time>2026-04-06T12:18:19.999Z</time></trkpt><trkpt lat="46.28227601652109" lon="12.304162165023403"><ele>508.0</ele><time>2026-04-06T12:18:20.999Z</time></trkpt><trkpt lat="46.282362341376626" lon="12.30427558964978"><ele>508.0</ele><time>2026-04-06T12:18:21.999Z</time></trkpt><trkpt lat="46.28244605541138" lon="12.304394274692124"><ele>508.0</ele><time>2026-04-06T12:18:22.999Z</time></trkpt><trkpt lat="46.28252416580396" lon="12.304520831938818"><ele>508.0</ele><time>2026-04-06T12:18:23.999Z</time></trkpt><trkpt lat="46.28259136928122" lon="12.30466183979503"><ele>508.0</ele><time>2026-04-06T12:18:24.999Z</time></trkpt><trkpt lat="46.282644326480685" lon="12.304807036425538"><ele>503.5</ele><time>2026-04-06T12:18:25.999Z</time></trkpt><trkpt lat="46.28267892055671" lon="12.304964287974942"><ele>499.0</ele><time>2026-04-06T12:18:26.999Z</time></trkpt><trkpt lat="46.28269657601001" lon="12.305130910373126"><ele>494.5</ele><time>2026-04-06T12:18:27.999Z</time></trkpt><trkpt lat="46.28269801839211" lon="12.305303172923274"><ele>490.0</ele><time>2026-04-06T12:18:28.999Z</time></trkpt><trkpt lat="46.28268837746694" lon="12.305476764356673"><ele>490.0</ele><time>2026-04-06T12:18:29.999Z</time></trkpt><trkpt lat="46.28268087881089" lon="12.305658314317284"><ele>490.0</ele><time>2026-04-06T12:18:30.999Z</time></trkpt><trkpt lat="46.282653528880765" lon="12.305848110395457"><ele>490.0</ele><time>2026-04-06T12:18:31.999Z</time></trkpt><trkpt lat="46.28264279262813" lon="12.306034821728687"><ele>490.0</ele><time>2026-04-06T12:18:32.999Z</time></trkpt><trkpt lat="46.28263189370632" lon="12.306224295266368"><ele>490.0</ele><time>2026-04-06T12:18:33.999Z</time></trkpt><trkpt lat="46.282623388071315" lon="12.306409513164605"><ele>490.0</ele><time>2026-04-06T12:18:35Z</time></trkpt><trkpt lat="46.28262381310584" lon="12.306582202034305"><ele>490.0</ele><time>2026-04-06T12:18:36Z</time></trkpt><trkpt lat="46.28263477746053" lon="12.306756212134129"><ele>490.0</ele><time>2026-04-06T12:18:37Z</time></trkpt><trkpt lat="46.28265168572413" lon="12.306927929844331"><ele>489.75</ele><time>2026-04-06T12:18:38Z</time></trkpt><trkpt lat="46.28267919882529" lon="12.307098246989357"><ele>489.5</ele><time>2026-04-06T12:18:39Z</time></trkpt><trkpt lat="46.282721560816796" lon="12.3072612039319"><ele>489.25</ele><time>2026-04-06T12:18:40Z</time></trkpt><trkpt lat="46.282747175717915" lon="12.307418667264212"><ele>489.0</ele><time>2026-04-06T12:18:41Z</time></trkpt><trkpt lat="46.28277168008548" lon="12.307568060902138"><ele>488.6</ele><time>2026-04-06T12:18:42Z</time></trkpt><trkpt lat="46.282796547492325" lon="12.307707075701364"><ele>488.2</ele><time>2026-04-06T12:18:43Z</time></trkpt><trkpt lat="46.282828520438855" lon="12.307838232282107"><ele>487.80000000000007</ele><time>2026-04-06T12:18:44Z</time></trkpt><trkpt lat="46.28288136990219" lon="12.307957337201545"><ele>487.40000000000003</ele><time>2026-04-06T12:18:45Z</time></trkpt><trkpt lat="46.28295181338312" lon="12.308073371983344"><ele>487.0</ele><time>2026-04-06T12:18:46Z</time></trkpt><trkpt lat="46.28304578360948" lon="12.308189422109029"><ele>487.75</ele><time>2026-04-06T12:18:47Z</time></trkpt><trkpt lat="46.28315767629707" lon="12.308305771735988"><ele>488.5</ele><time>2026-04-06T12:18:48Z</time></trkpt><trkpt lat="46.28327677201897" lon="12.308434639701664"><ele>489.25</ele><time>2026-04-06T12:18:49Z</time></trkpt><trkpt lat="46.28339572548403" lon="12.308553944897527"><ele>490.0</ele><time>2026-04-06T12:18:50Z</time></trkpt><trkpt lat="46.28351683399671" lon="12.308677340663621"><ele>490.0</ele><time>2026-04-06T12:18:51Z</time></trkpt><trkpt lat="46.28363319793138" lon="12.308798109262176"><ele>490.0</ele><time>2026-04-06T12:18:52Z</time></trkpt><trkpt lat="46.283749271384934" lon="12.308914985829547"><ele>490.0</ele><time>2026-04-06T12:18:53Z</time></trkpt><trkpt lat="46.28386508614719" lon="12.309031683016242"><ele>490.0</ele><time>2026-04-06T12:18:54Z</time></trkpt><trkpt lat="46.2839837577978" lon="12.309154962228375"><ele>490.6666666666667</ele><time>2026-04-06T12:18:55Z</time></trkpt><trkpt lat="46.28410890393163" lon="12.309280097283322"><ele>491.33333333333337</ele><time>2026-04-06T12:18:56Z</time></trkpt><trkpt lat="46.28424421662992" lon="12.309404392971611"><ele>492.0</ele><time>2026-04-06T12:18:57Z</time></trkpt><trkpt lat="46.28439482268308" lon="12.3095223877469"><ele>492.0</ele><time>2026-04-06T12:18:58Z</time></trkpt><trkpt lat="46.28455863209791" lon="12.309632982167335"><ele>492.0</ele><time>2026-04-06T12:18:59Z</time></trkpt><trkpt lat="46.28472148989944" lon="12.30974707425299"><ele>492.0</ele><time>2026-04-06T12:19:00Z</time></trkpt><trkpt lat="46.28487953245988" lon="12.309866508869458"><ele>491.0</ele><time>2026-04-06T12:19:01Z</time></trkpt><trkpt lat="46.285033379945794" lon="12.309993408611119"><ele>490.0</ele><time>2026-04-06T12:19:02Z</time></trkpt><trkpt lat="46.28517807651111" lon="12.31013811757222"><ele>489.0</ele><time>2026-04-06T12:19:03Z</time></trkpt><trkpt lat="46.28531176301346" lon="12.310285702382505"><ele>489.0</ele><time>2026-04-06T12:19:04Z</time></trkpt><trkpt lat="46.28545661481401" lon="12.310433094811412"><ele>489.0</ele><time>2026-04-06T12:19:05Z</time></trkpt><trkpt lat="46.28559967037368" lon="12.310565111489145"><ele>489.0</ele><time>2026-04-06T12:19:06Z</time></trkpt><trkpt lat="46.28575471958999" lon="12.310679724918662"><ele>488.0</ele><time>2026-04-06T12:19:07Z</time></trkpt><trkpt lat="46.28592267486954" lon="12.310781292251676"><ele>487.0</ele><time>2026-04-06T12:19:08Z</time></trkpt><trkpt lat="46.28609811082829" lon="12.310858491939909"><ele>486.0</ele><time>2026-04-06T12:19:09Z</time></trkpt><trkpt lat="46.286269057702995" lon="12.310912025159343"><ele>488.66666666666663</ele><time>2026-04-06T12:19:10Z</time></trkpt><trkpt lat="46.286430164990115" lon="12.310941114333268"><ele>491.3333333333333</ele><time>2026-04-06T12:19:11Z</time></trkpt><trkpt lat="46.286584899464124" lon="12.31097460751943"><ele>494.0</ele><time>2026-04-06T12:19:12Z</time></trkpt><trkpt lat="46.286735999982525" lon="12.310943220857283"><ele>494.0</ele><time>2026-04-06T12:19:13Z</time></trkpt><trkpt lat="46.28688771687509" lon="12.310924823049472"><ele>494.0</ele><time>2026-04-06T12:19:14Z</time></trkpt><trkpt lat="46.28704383469809" lon="12.310892173377209"><ele>494.0</ele><time>2026-04-06T12:19:15Z</time></trkpt><trkpt lat="46.28719216409902" lon="12.310866126579542"><ele>491.75</ele><time>2026-04-06T12:19:16Z</time></trkpt><trkpt lat="46.287330672093475" lon="12.3108447636703"><ele>489.5</ele><time>2026-04-06T12:19:17Z</time></trkpt><trkpt lat="46.287469341885654" lon="12.3108230619889"><ele>487.25</ele><time>2026-04-06T12:19:18Z</time></trkpt><trkpt lat="46.287601925149715" lon="12.310803255185816"><ele>485.0</ele><time>2026-04-06T12:19:19Z</time></trkpt><trkpt lat="46.28773294721164" lon="12.310784372452162"><ele>485.0</ele><time>2026-04-06T12:19:20Z</time></trkpt><trkpt lat="46.28786634637908" lon="12.310764335701526"><ele>485.0</ele><time>2026-04-06T12:19:21Z</time></trkpt><trkpt lat="46.288000068646234" lon="12.310741391202077"><ele>485.0</ele><time>2026-04-06T12:19:22Z</time></trkpt><trkpt lat="46.28813553566158" lon="12.310720549171497"><ele>485.0</ele><time>2026-04-06T12:19:23Z</time></trkpt><trkpt lat="46.288273908796945" lon="12.310701854051823"><ele>483.25</ele><time>2026-04-06T12:19:24Z</time></trkpt><trkpt lat="46.28841483544067" lon="12.310682148465107"><ele>481.5</ele><time>2026-04-06T12:19:25Z</time></trkpt><trkpt lat="46.28855814379097" lon="12.310659423956194"><ele>479.75</ele><time>2026-04-06T12:19:26Z</time></trkpt><trkpt lat="46.28870583441832" lon="12.310636987832265"><ele>478.0</ele><time>2026-04-06T12:19:27Z</time></trkpt><trkpt lat="46.28885856445726" lon="12.310615369647582"><ele>477.0</ele><time>2026-04-06T12:19:28Z</time></trkpt><trkpt lat="46.28901215116048" lon="12.310589705434266"><ele>476.0</ele><time>2026-04-06T12:19:29Z</time></trkpt><trkpt lat="46.289170549472765" lon="12.310563909434606"><ele>475.0</ele><time>2026-04-06T12:19:30Z</time></trkpt><trkpt lat="46.289334756985575" lon="12.310542079375255"><ele>480.6666666666667</ele><time>2026-04-06T12:19:31Z</time></trkpt><trkpt lat="46.28950341342165" lon="12.310525266428424"><ele>486.33333333333337</ele><time>2026-04-06T12:19:32Z</time></trkpt><trkpt lat="46.289673961698156" lon="12.310507942382625"><ele>492.0</ele><time>2026-04-06T12:19:33Z</time></trkpt><trkpt lat="46.289844752754604" lon="12.310494877272234"><ele>492.0</ele><time>2026-04-06T12:19:34Z</time></trkpt><trkpt lat="46.29001780748649" lon="12.310493316965752"><ele>492.0</ele><time>2026-04-06T12:19:35Z</time></trkpt><trkpt lat="46.29019303030703" lon="12.310496330363671"><ele>492.0</ele><time>2026-04-06T12:19:36Z</time></trkpt><trkpt lat="46.290371671723136" lon="12.310506550721406"><ele>492.0</ele><time>2026-04-06T12:19:37Z</time></trkpt><trkpt lat="46.29055481226765" lon="12.310526541930852"><ele>492.0</ele><time>2026-04-06T12:19:38Z</time></trkpt><trkpt lat="46.29074390318931" lon="12.31055667371447"><ele>492.0</ele><time>2026-04-06T12:19:39Z</time></trkpt><trkpt lat="46.29094077207363" lon="12.310587848261326"><ele>484.0</ele><time>2026-04-06T12:19:40Z</time></trkpt><trkpt lat="46.29113446575523" lon="12.310618182947538"><ele>476.0</ele><time>2026-04-06T12:19:41Z</time></trkpt><trkpt lat="46.291329254000054" lon="12.310647460017847"><ele>468.0</ele><time>2026-04-06T12:19:42Z</time></trkpt><trkpt lat="46.2915153531997" lon="12.310675883704953"><ele>468.0</ele><time>2026-04-06T12:19:43Z</time></trkpt><trkpt lat="46.29169585875613" lon="12.310701910488099"><ele>468.0</ele><time>2026-04-06T12:19:44Z</time></trkpt><trkpt lat="46.29187464267588" lon="12.31072521643248"><ele>468.0</ele><time>2026-04-06T12:19:45Z</time></trkpt><trkpt lat="46.292050374971055" lon="12.310745035059117"><ele>468.0</ele><time>2026-04-06T12:19:46Z</time></trkpt><trkpt lat="46.29222277138384" lon="12.310760703727386"><ele>468.0</ele><time>2026-04-06T12:19:47Z</time></trkpt><trkpt lat="46.29239121521372" lon="12.31077434303918"><ele>468.0</ele><time>2026-04-06T12:19:48Z</time></trkpt><trkpt lat="46.29255725202103" lon="12.31078686571133"><ele>467.33333333333337</ele><time>2026-04-06T12:19:49Z</time></trkpt><trkpt lat="46.292722214092606" lon="12.310801078548607"><ele>466.6666666666667</ele><time>2026-04-06T12:19:50Z</time></trkpt><trkpt lat="46.292886173099426" lon="12.310841938259077"><ele>466.0</ele><time>2026-04-06T12:19:51Z</time></trkpt><trkpt lat="46.29304640252534" lon="12.310854265329251"><ele>468.0</ele><time>2026-04-06T12:19:52Z</time></trkpt><trkpt lat="46.293201514928626" lon="12.310860979063701"><ele>470.0</ele><time>2026-04-06T12:19:53Z</time></trkpt><trkpt lat="46.29335118468139" lon="12.310848209020428"><ele>472.0</ele><time>2026-04-06T12:19:54Z</time></trkpt><trkpt lat="46.2934982718502" lon="12.310811521425256"><ele>472.0</ele><time>2026-04-06T12:19:55Z</time></trkpt><trkpt lat="46.29363915586191" lon="12.310760183466872"><ele>472.0</ele><time>2026-04-06T12:19:56Z</time></trkpt><trkpt lat="46.29377752297001" lon="12.310713485013409"><ele>472.0</ele><time>2026-04-06T12:19:57Z</time></trkpt><trkpt lat="46.29391352860494" lon="12.310656709779192"><ele>472.0</ele><time>2026-04-06T12:19:58Z</time></trkpt><trkpt lat="46.294053156508234" lon="12.310647818215317"><ele>470.0</ele><time>2026-04-06T12:19:59Z</time></trkpt><trkpt lat="46.29419186574374" lon="12.310647981683788"><ele>468.0</ele><time>2026-04-06T12:20:00Z</time></trkpt><trkpt lat="46.29432713820652" lon="12.310644247912748"><ele>466.0</ele><time>2026-04-06T12:20:01Z</time></trkpt><trkpt lat="46.294447376911364" lon="12.310660527685256"><ele>464.0</ele><time>2026-04-06T12:20:01.999Z</time></trkpt><trkpt lat="46.29456234060324" lon="12.310646156006495"><ele>464.0</ele><time>2026-04-06T12:20:02.999Z</time></trkpt><trkpt lat="46.29467476151472" lon="12.310606233295498"><ele>464.0</ele><time>2026-04-06T12:20:03.999Z</time></trkpt><trkpt lat="46.29478084519368" lon="12.310548048868947"><ele>464.0</ele><time>2026-04-06T12:20:04.999Z</time></trkpt><trkpt lat="46.294895545286856" lon="12.31054432076821"><ele>464.0</ele><time>2026-04-06T12:20:05.999Z</time></trkpt><trkpt lat="46.29500731883325" lon="12.310578163346957"><ele>466.75</ele><time>2026-04-06T12:20:06.999Z</time></trkpt><trkpt lat="46.2951093807589" lon="12.310643305999267"><ele>469.5</ele><time>2026-04-06T12:20:07.999Z</time></trkpt><trkpt lat="46.29521636217503" lon="12.310734921837975"><ele>472.25</ele><time>2026-04-06T12:20:08.999Z</time></trkpt><trkpt lat="46.29532986132395" lon="12.31084642286256"><ele>475.0</ele><time>2026-04-06T12:20:09.999Z</time></trkpt><trkpt lat="46.29544626562629" lon="12.310977737184466"><ele>475.0</ele><time>2026-04-06T12:20:10.999Z</time></trkpt><trkpt lat="46.29555853983074" lon="12.3111137562013"><ele>475.0</ele><time>2026-04-06T12:20:11.999Z</time></trkpt><trkpt lat="46.29566014309404" lon="12.311241535571469"><ele>475.0</ele><time>2026-04-06T12:20:12.999Z</time></trkpt><trkpt lat="46.29574407691429" lon="12.311389526380161"><ele>475.0</ele><time>2026-04-06T12:20:13.999Z</time></trkpt><trkpt lat="46.29585779569371" lon="12.31150674310558"><ele>473.0</ele><time>2026-04-06T12:20:14.999Z</time></trkpt><trkpt lat="46.2959606955137" lon="12.311652270475571"><ele>471.0</ele><time>2026-04-06T12:20:15.999Z</time></trkpt><trkpt lat="46.29607208516762" lon="12.311790093704468"><ele>469.0</ele><time>2026-04-06T12:20:16.999Z</time></trkpt><trkpt lat="46.29619302555899" lon="12.311923252723599"><ele>467.0</ele><time>2026-04-06T12:20:17.999Z</time></trkpt><trkpt lat="46.29632830095283" lon="12.312051666693938"><ele>470.3333333333333</ele><time>2026-04-06T12:20:18.999Z</time></trkpt><trkpt lat="46.29646682007332" lon="12.312181730225301"><ele>473.66666666666663</ele><time>2026-04-06T12:20:19.999Z</time></trkpt><trkpt lat="46.296604984428946" lon="12.312319053695058"><ele>477.0</ele><time>2026-04-06T12:20:20.999Z</time></trkpt><trkpt lat="46.29673944902772" lon="12.312455640764108"><ele>477.0</ele><time>2026-04-06T12:20:21.999Z</time></trkpt><trkpt lat="46.29686840559933" lon="12.312593082242737"><ele>477.0</ele><time>2026-04-06T12:20:22.999Z</time></trkpt><trkpt lat="46.29698889851912" lon="12.312735259015712"><ele>477.0</ele><time>2026-04-06T12:20:23.999Z</time></trkpt><trkpt lat="46.2971030915588" lon="12.312880344125157"><ele>477.0</ele><time>2026-04-06T12:20:24.999Z</time></trkpt><trkpt lat="46.29722228991516" lon="12.313015200770808"><ele>477.0</ele><time>2026-04-06T12:20:25.999Z</time></trkpt><trkpt lat="46.29735059630033" lon="12.313133383957933"><ele>477.0</ele><time>2026-04-06T12:20:26.999Z</time></trkpt><trkpt lat="46.29748656623023" lon="12.313229463200843"><ele>481.33333333333337</ele><time>2026-04-06T12:20:27.999Z</time></trkpt><trkpt lat="46.2976300130659" lon="12.313305976218057"><ele>485.6666666666667</ele><time>2026-04-06T12:20:28.999Z</time></trkpt><trkpt lat="46.29777856709264" lon="12.313378194737993"><ele>490.0</ele><time>2026-04-06T12:20:29.999Z</time></trkpt><trkpt lat="46.29794253640121" lon="12.313445588807372"><ele>504.0</ele><time>2026-04-06T12:20:30.999Z</time></trkpt><trkpt lat="46.298112245227884" lon="12.31351323210646"><ele>518.0</ele><time>2026-04-06T12:20:31.999Z</time></trkpt><trkpt lat="46.29828119847981" lon="12.313574175633386"><ele>532.0</ele><time>2026-04-06T12:20:32.999Z</time></trkpt><trkpt lat="46.29845336803485" lon="12.313626409064593"><ele>532.0</ele><time>2026-04-06T12:20:33.999Z</time></trkpt><trkpt lat="46.298628509617245" lon="12.313671031977966"><ele>532.0</ele><time>2026-04-06T12:20:34.999Z</time></trkpt><trkpt lat="46.29881380629387" lon="12.313714833963607"><ele>532.0</ele><time>2026-04-06T12:20:36.074Z</time></trkpt><trkpt lat="46.298977313338504" lon="12.313754558728341"><ele>556.0</ele><time>2026-04-06T12:20:37.056Z</time></trkpt><trkpt lat="46.29914378093565" lon="12.313791762088924"><ele>580.0</ele><time>2026-04-06T12:20:38.053Z</time></trkpt><trkpt lat="46.301788940820735" lon="12.314109799471192"><ele>678.0</ele><time>2026-04-06T12:20:42.617Z</time></trkpt><trkpt lat="46.30241511740817" lon="12.314203753861243"><ele>678.0</ele><time>2026-04-06T12:20:43.616Z</time></trkpt><trkpt lat="46.30304160881948" lon="12.314296736490224"><ele>728.0</ele><time>2026-04-06T12:20:44.616Z</time></trkpt><trkpt lat="46.30366813271841" lon="12.314389368965509"><ele>776.0</ele><time>2026-04-06T12:20:45.617Z</time></trkpt><trkpt lat="46.30429453714912" lon="12.31448160732229"><ele>828.0</ele><time>2026-04-06T12:20:46.616Z</time></trkpt><trkpt lat="46.304920636426" lon="12.31457380074502"><ele>828.0</ele><time>2026-04-06T12:20:47.616Z</time></trkpt><trkpt lat="46.305547061389845" lon="12.314666737220612"><ele>848.0</ele><time>2026-04-06T12:20:48.616Z</time></trkpt><trkpt lat="46.30617396573355" lon="12.314760054256862"><ele>918.0</ele><time>2026-04-06T12:20:49.617Z</time></trkpt><trkpt lat="46.306800322472604" lon="12.314853450989238"><ele>979.0</ele><time>2026-04-06T12:20:50.617Z</time></trkpt><trkpt lat="46.30742669152079" lon="12.314947302099188"><ele>979.0</ele><time>2026-04-06T12:20:51.617Z</time></trkpt><trkpt lat="46.30805296850189" lon="12.3150411394144"><ele>1031.0</ele><time>2026-04-06T12:20:52.616Z</time></trkpt><trkpt lat="46.308679431558545" lon="12.315135004609976"><ele>1068.0</ele><time>2026-04-06T12:20:53.617Z</time></trkpt><trkpt lat="46.3089957" lon="12.3151816"><ele>1105.0</ele><time>2026-04-06T12:20:54.616Z</time></trkpt><trkpt lat="46.31803120052393" lon="12.316631032311092"><ele>894.6666666666666</ele><time>2026-04-06T12:22:10.998Z</time></trkpt><trkpt lat="46.31812669691395" lon="12.316670533668974"><ele>684.3333333333333</ele><time>2026-04-06T12:22:11.998Z</time></trkpt><trkpt lat="46.31830250439483" lon="12.316755017323661"><ele>474.0</ele><time>2026-04-06T12:22:12.998Z</time></trkpt><trkpt lat="46.31846963715477" lon="12.316806428532415"><ele>474.0</ele><time>2026-04-06T12:22:13.998Z</time></trkpt><trkpt lat="46.31863529885321" lon="12.31685275249282"><ele>474.0</ele><time>2026-04-06T12:22:14.998Z</time></trkpt><trkpt lat="46.31880426735426" lon="12.316907764478978"><ele>474.0</ele><time>2026-04-06T12:22:15.998Z</time></trkpt><trkpt lat="46.31898545056424" lon="12.3169558784671"><ele>475.0</ele><time>2026-04-06T12:22:17Z</time></trkpt><trkpt lat="46.31916943695261" lon="12.317007868255777"><ele>476.0</ele><time>2026-04-06T12:22:18Z</time></trkpt><trkpt lat="46.31935167237612" lon="12.317060088685313"><ele>477.0</ele><time>2026-04-06T12:22:19Z</time></trkpt><trkpt lat="46.31953472623296" lon="12.317111918991325"><ele>477.0</ele><time>2026-04-06T12:22:20Z</time></trkpt><trkpt lat="46.31971759730511" lon="12.31716386733716"><ele>477.0</ele><time>2026-04-06T12:22:21Z</time></trkpt><trkpt lat="46.319899243870395" lon="12.317218642142977"><ele>477.0</ele><time>2026-04-06T12:22:22Z</time></trkpt><trkpt lat="46.320078740035164" lon="12.317274397415094"><ele>475.66666666666663</ele><time>2026-04-06T12:22:23Z</time></trkpt><trkpt lat="46.32025550371125" lon="12.317330050388218"><ele>474.3333333333333</ele><time>2026-04-06T12:22:24Z</time></trkpt><trkpt lat="46.3204296448304" lon="12.317383523765882"><ele>473.0</ele><time>2026-04-06T12:22:25Z</time></trkpt><trkpt lat="46.32061152710803" lon="12.317435494756559"><ele>473.0</ele><time>2026-04-06T12:22:26Z</time></trkpt><trkpt lat="46.320801179580855" lon="12.317489297172225"><ele>473.0</ele><time>2026-04-06T12:22:27Z</time></trkpt><trkpt lat="46.320999161542446" lon="12.317546716306685"><ele>473.0</ele><time>2026-04-06T12:22:28Z</time></trkpt><trkpt lat="46.321204624422705" lon="12.317607019542956"><ele>472.0</ele><time>2026-04-06T12:22:29Z</time></trkpt><trkpt lat="46.321407544942886" lon="12.317667538522981"><ele>471.0</ele><time>2026-04-06T12:22:30Z</time></trkpt><trkpt lat="46.32160452871171" lon="12.317731728995453"><ele>470.0</ele><time>2026-04-06T12:22:31Z</time></trkpt><trkpt lat="46.32179872583996" lon="12.317804722608646"><ele>470.0</ele><time>2026-04-06T12:22:32Z</time></trkpt><trkpt lat="46.32198540056726" lon="12.317891578813782"><ele>470.0</ele><time>2026-04-06T12:22:33Z</time></trkpt><trkpt lat="46.32216270240817" lon="12.317990307593563"><ele>470.0</ele><time>2026-04-06T12:22:34Z</time></trkpt><trkpt lat="46.322334245779736" lon="12.318100219466348"><ele>468.66666666666663</ele><time>2026-04-06T12:22:35Z</time></trkpt><trkpt lat="46.322503153311345" lon="12.318222667105516"><ele>467.33333333333337</ele><time>2026-04-06T12:22:36Z</time></trkpt><trkpt lat="46.322668767796955" lon="12.318360313491063"><ele>466.0</ele><time>2026-04-06T12:22:37Z</time></trkpt><trkpt lat="46.32282808460562" lon="12.318504309568695"><ele>466.0</ele><time>2026-04-06T12:22:38Z</time></trkpt><trkpt lat="46.32298225227482" lon="12.318657600587393"><ele>466.0</ele><time>2026-04-06T12:22:39Z</time></trkpt><trkpt lat="46.32313090436541" lon="12.318821372428713"><ele>466.0</ele><time>2026-04-06T12:22:40Z</time></trkpt><trkpt lat="46.323270153196226" lon="12.31899759503531"><ele>467.33333333333337</ele><time>2026-04-06T12:22:41Z</time></trkpt><trkpt lat="46.32340551454589" lon="12.319190572026413"><ele>468.66666666666663</ele><time>2026-04-06T12:22:42Z</time></trkpt><trkpt lat="46.3235351665144" lon="12.3193995607955"><ele>470.0</ele><time>2026-04-06T12:22:43Z</time></trkpt><trkpt lat="46.32366069885236" lon="12.319622868308388"><ele>469.3333333333333</ele><time>2026-04-06T12:22:44Z</time></trkpt><trkpt lat="46.32378067561342" lon="12.319858869988256"><ele>468.66666666666663</ele><time>2026-04-06T12:22:45Z</time></trkpt><trkpt lat="46.32389643829896" lon="12.320103317814814"><ele>468.0</ele><time>2026-04-06T12:22:46Z</time></trkpt><trkpt lat="46.324005202967506" lon="12.320349249434203"><ele>469.66666666666663</ele><time>2026-04-06T12:22:47Z</time></trkpt><trkpt lat="46.32411216890558" lon="12.320593532374161"><ele>471.3333333333333</ele><time>2026-04-06T12:22:48Z</time></trkpt><trkpt lat="46.32421740988956" lon="12.320832564361734"><ele>473.0</ele><time>2026-04-06T12:22:49Z</time></trkpt><trkpt lat="46.324321687712846" lon="12.32106896751471"><ele>473.0</ele><time>2026-04-06T12:22:50Z</time></trkpt><trkpt lat="46.32442952351553" lon="12.321305721295944"><ele>473.0</ele><time>2026-04-06T12:22:51Z</time></trkpt><trkpt lat="46.32454490701423" lon="12.321543968457181"><ele>473.0</ele><time>2026-04-06T12:22:52Z</time></trkpt><trkpt lat="46.32466826007582" lon="12.32177871476061"><ele>473.3333333333333</ele><time>2026-04-06T12:22:53Z</time></trkpt><trkpt lat="46.32480433378527" lon="12.32200731949888"><ele>473.66666666666663</ele><time>2026-04-06T12:22:54Z</time></trkpt><trkpt lat="46.32495756479572" lon="12.322228750723482"><ele>474.0</ele><time>2026-04-06T12:22:55Z</time></trkpt><trkpt lat="46.32510839093864" lon="12.322450819180455"><ele>474.66666666666663</ele><time>2026-04-06T12:22:56Z</time></trkpt><trkpt lat="46.32525544020506" lon="12.322670403719979"><ele>475.3333333333333</ele><time>2026-04-06T12:22:57Z</time></trkpt><trkpt lat="46.325404416792786" lon="12.322893240671545"><ele>476.0</ele><time>2026-04-06T12:22:58Z</time></trkpt><trkpt lat="46.325559958974594" lon="12.323121764561686"><ele>475.66666666666663</ele><time>2026-04-06T12:22:59Z</time></trkpt><trkpt lat="46.325711891845856" lon="12.323344771614757"><ele>475.33333333333337</ele><time>2026-04-06T12:23:00Z</time></trkpt><trkpt lat="46.32586231389997" lon="12.323564783015476"><ele>475.0</ele><time>2026-04-06T12:23:01Z</time></trkpt><trkpt lat="46.32601818334211" lon="12.323775908371932"><ele>475.0</ele><time>2026-04-06T12:23:02Z</time></trkpt><trkpt lat="46.326179141042616" lon="12.323969000340822"><ele>475.0</ele><time>2026-04-06T12:23:03Z</time></trkpt><trkpt lat="46.326344430473206" lon="12.32414565408339"><ele>475.0</ele><time>2026-04-06T12:23:04Z</time></trkpt><trkpt lat="46.32651499539785" lon="12.324304596599353"><ele>475.0</ele><time>2026-04-06T12:23:05Z</time></trkpt><trkpt lat="46.32668727783852" lon="12.32445001460627"><ele>475.0</ele><time>2026-04-06T12:23:06Z</time></trkpt><trkpt lat="46.3268567348561" lon="12.324584254493194"><ele>475.0</ele><time>2026-04-06T12:23:07Z</time></trkpt><trkpt lat="46.327025832226205" lon="12.324706874008857"><ele>475.6666666666667</ele><time>2026-04-06T12:23:08Z</time></trkpt><trkpt lat="46.327198687314564" lon="12.324825126319702"><ele>476.33333333333337</ele><time>2026-04-06T12:23:09Z</time></trkpt><trkpt lat="46.32737240215937" lon="12.324944692832846"><ele>477.0</ele><time>2026-04-06T12:23:10Z</time></trkpt><trkpt lat="46.32754765890632" lon="12.325067194425271"><ele>477.0</ele><time>2026-04-06T12:23:11Z</time></trkpt><trkpt lat="46.327722255110025" lon="12.325188965828508"><ele>477.0</ele><time>2026-04-06T12:23:12Z</time></trkpt><trkpt lat="46.327895220924134" lon="12.325307714488934"><ele>477.0</ele><time>2026-04-06T12:23:13Z</time></trkpt><trkpt lat="46.32806671838623" lon="12.32542587827403"><ele>476.66666666666663</ele><time>2026-04-06T12:23:14Z</time></trkpt><trkpt lat="46.328234619879794" lon="12.325537014033058"><ele>476.3333333333333</ele><time>2026-04-06T12:23:15Z</time></trkpt><trkpt lat="46.32839806458306" lon="12.325634221944116"><ele>476.0</ele><time>2026-04-06T12:23:16Z</time></trkpt><trkpt lat="46.328556069325074" lon="12.32572151590289"><ele>476.0</ele><time>2026-04-06T12:23:17Z</time></trkpt><trkpt lat="46.32870248510507" lon="12.325791472581157"><ele>476.0</ele><time>2026-04-06T12:23:18Z</time></trkpt><trkpt lat="46.328851045920935" lon="12.32585231036523"><ele>476.0</ele><time>2026-04-06T12:23:19Z</time></trkpt><trkpt lat="46.329000967248305" lon="12.325903676270528"><ele>479.0</ele><time>2026-04-06T12:23:20Z</time></trkpt><trkpt lat="46.329152235603345" lon="12.32594224394974"><ele>482.0</ele><time>2026-04-06T12:23:21Z</time></trkpt><trkpt lat="46.32930180648147" lon="12.325964049545979"><ele>485.0</ele><time>2026-04-06T12:23:22Z</time></trkpt><trkpt lat="46.32945246382079" lon="12.325972387573488"><ele>485.0</ele><time>2026-04-06T12:23:23Z</time></trkpt><trkpt lat="46.32960797995761" lon="12.325978313851701"><ele>485.0</ele><time>2026-04-06T12:23:24Z</time></trkpt><trkpt lat="46.32977021088929" lon="12.325981352318651"><ele>485.0</ele><time>2026-04-06T12:23:25Z</time></trkpt><trkpt lat="46.32993594302743" lon="12.325971571377783"><ele>498.0</ele><time>2026-04-06T12:23:26Z</time></trkpt><trkpt lat="46.33009996905243" lon="12.32595621561993"><ele>511.0</ele><time>2026-04-06T12:23:27Z</time></trkpt><trkpt lat="46.33026361378689" lon="12.325935138412692"><ele>524.0</ele><time>2026-04-06T12:23:28Z</time></trkpt><trkpt lat="46.33043774323372" lon="12.325911806395771"><ele>519.3333333333333</ele><time>2026-04-06T12:23:29.077Z</time></trkpt><trkpt lat="46.33059182170063" lon="12.325889703309029"><ele>514.6666666666666</ele><time>2026-04-06T12:23:30.064Z</time></trkpt><trkpt lat="46.330745756825635" lon="12.325867826171656"><ele>510.0</ele><time>2026-04-06T12:23:31.065Z</time></trkpt><trkpt lat="46.34182319870635" lon="12.330429927541303"><ele>510.0</ele><time>2026-04-06T12:24:33.999Z</time></trkpt><trkpt lat="46.341952813099425" lon="12.330481624409588"><ele>510.0</ele><time>2026-04-06T12:24:34.999Z</time></trkpt><trkpt lat="46.34214152399927" lon="12.330509575397347"><ele>510.0</ele><time>2026-04-06T12:24:35.999Z</time></trkpt><trkpt lat="46.342319288839555" lon="12.330561540120229"><ele>501.33333333333337</ele><time>2026-04-06T12:24:36.999Z</time></trkpt><trkpt lat="46.34247797965787" lon="12.33059809858419"><ele>492.6666666666667</ele><time>2026-04-06T12:24:37.999Z</time></trkpt><trkpt lat="46.34262446046753" lon="12.330632752273889"><ele>484.0</ele><time>2026-04-06T12:24:38.999Z</time></trkpt><trkpt lat="46.342804840731176" lon="12.330688972249982"><ele>484.0</ele><time>2026-04-06T12:24:40Z</time></trkpt><trkpt lat="46.342976427229175" lon="12.33072992585187"><ele>484.0</ele><time>2026-04-06T12:24:41Z</time></trkpt><trkpt lat="46.3431538415574" lon="12.33077586096268"><ele>484.0</ele><time>2026-04-06T12:24:42Z</time></trkpt><trkpt lat="46.34335001822273" lon="12.330824341546542"><ele>484.33333333333337</ele><time>2026-04-06T12:24:43Z</time></trkpt><trkpt lat="46.34356875383333" lon="12.330871223306564"><ele>484.66666666666663</ele><time>2026-04-06T12:24:44Z</time></trkpt><trkpt lat="46.34378425936522" lon="12.330912207502381"><ele>485.0</ele><time>2026-04-06T12:24:45Z</time></trkpt><trkpt lat="46.3439959672871" lon="12.330951455640479"><ele>486.3333333333333</ele><time>2026-04-06T12:24:46Z</time></trkpt><trkpt lat="46.34421264456539" lon="12.331001598984372"><ele>487.66666666666663</ele><time>2026-04-06T12:24:47Z</time></trkpt><trkpt lat="46.34441385991438" lon="12.331050806445703"><ele>489.0</ele><time>2026-04-06T12:24:48Z</time></trkpt><trkpt lat="46.344617328901485" lon="12.331105955804228"><ele>491.0</ele><time>2026-04-06T12:24:49Z</time></trkpt><trkpt lat="46.344805602561635" lon="12.331156931846872"><ele>493.0</ele><time>2026-04-06T12:24:50Z</time></trkpt><trkpt lat="46.344989006417464" lon="12.331219136098424"><ele>495.0</ele><time>2026-04-06T12:24:51Z</time></trkpt><trkpt lat="46.34517826788382" lon="12.33129403716967"><ele>495.0</ele><time>2026-04-06T12:24:52Z</time></trkpt><trkpt lat="46.345366313657784" lon="12.331386971754572"><ele>495.0</ele><time>2026-04-06T12:24:53Z</time></trkpt><trkpt lat="46.34555436957419" lon="12.331489091380126"><ele>495.0</ele><time>2026-04-06T12:24:54Z</time></trkpt><trkpt lat="46.34574151589441" lon="12.331595029197416"><ele>494.33333333333337</ele><time>2026-04-06T12:24:55Z</time></trkpt><trkpt lat="46.345927452075145" lon="12.33171273333795"><ele>493.6666666666667</ele><time>2026-04-06T12:24:56Z</time></trkpt><trkpt lat="46.34611208168395" lon="12.331857289211921"><ele>493.0</ele><time>2026-04-06T12:24:57Z</time></trkpt><trkpt lat="46.346291512811156" lon="12.332019376662824"><ele>493.5</ele><time>2026-04-06T12:24:58Z</time></trkpt><trkpt lat="46.346470703764915" lon="12.33223214700546"><ele>494.0</ele><time>2026-04-06T12:24:59Z</time></trkpt><trkpt lat="46.346650638550095" lon="12.332429972749738"><ele>494.0</ele><time>2026-04-06T12:25:00Z</time></trkpt><trkpt lat="46.34682817820274" lon="12.33263497238617"><ele>494.0</ele><time>2026-04-06T12:25:01Z</time></trkpt><trkpt lat="46.346998969603476" lon="12.332850790548163"><ele>494.0</ele><time>2026-04-06T12:25:02Z</time></trkpt><trkpt lat="46.34716502716937" lon="12.333077917434558"><ele>494.0</ele><time>2026-04-06T12:25:03Z</time></trkpt><trkpt lat="46.347321067873665" lon="12.333311004932282"><ele>494.0</ele><time>2026-04-06T12:25:04Z</time></trkpt><trkpt lat="46.34747246557128" lon="12.33354848666533"><ele>494.0</ele><time>2026-04-06T12:25:05Z</time></trkpt><trkpt lat="46.34761826455298" lon="12.333778814319784"><ele>494.0</ele><time>2026-04-06T12:25:06Z</time></trkpt><trkpt lat="46.347755603859056" lon="12.33399335701738"><ele>492.66666666666663</ele><time>2026-04-06T12:25:07Z</time></trkpt><trkpt lat="46.347891883774665" lon="12.334204898831127"><ele>491.33333333333337</ele><time>2026-04-06T12:25:08Z</time></trkpt><trkpt lat="46.34803018241403" lon="12.334419664872753"><ele>490.0</ele><time>2026-04-06T12:25:09Z</time></trkpt><trkpt lat="46.34816613687533" lon="12.334637993091606"><ele>489.6666666666667</ele><time>2026-04-06T12:25:10Z</time></trkpt><trkpt lat="46.348306103564674" lon="12.33485337809875"><ele>489.33333333333337</ele><time>2026-04-06T12:25:11Z</time></trkpt><trkpt lat="46.34844958618695" lon="12.335077474834767"><ele>489.0</ele><time>2026-04-06T12:25:12Z</time></trkpt><trkpt lat="46.34859522995333" lon="12.33530469585207"><ele>489.0</ele><time>2026-04-06T12:25:13Z</time></trkpt><trkpt lat="46.34874458735878" lon="12.33554157523025"><ele>489.0</ele><time>2026-04-06T12:25:14Z</time></trkpt><trkpt lat="46.348896806188414" lon="12.335781393235285"><ele>489.0</ele><time>2026-04-06T12:25:15Z</time></trkpt><trkpt lat="46.34905055408499" lon="12.336022113920647"><ele>488.66666666666663</ele><time>2026-04-06T12:25:16Z</time></trkpt><trkpt lat="46.34920483587475" lon="12.3362588123096"><ele>488.3333333333333</ele><time>2026-04-06T12:25:17Z</time></trkpt><trkpt lat="46.34935915221503" lon="12.336490634731383"><ele>488.0</ele><time>2026-04-06T12:25:18Z</time></trkpt><trkpt lat="46.34951832144041" lon="12.336718319571835"><ele>487.5</ele><time>2026-04-06T12:25:19Z</time></trkpt><trkpt lat="46.349687454621396" lon="12.33693512216854"><ele>487.0</ele><time>2026-04-06T12:25:20Z</time></trkpt><trkpt lat="46.3498686643337" lon="12.337140472481993"><ele>486.5</ele><time>2026-04-06T12:25:21Z</time></trkpt><trkpt lat="46.350052501568804" lon="12.337328831780386"><ele>486.0</ele><time>2026-04-06T12:25:22Z</time></trkpt><trkpt lat="46.35024256576294" lon="12.33750195229429"><ele>486.0</ele><time>2026-04-06T12:25:23Z</time></trkpt><trkpt lat="46.35043319475607" lon="12.337660196941089"><ele>486.0</ele><time>2026-04-06T12:25:24Z</time></trkpt><trkpt lat="46.35062360293162" lon="12.33780180557936"><ele>486.0</ele><time>2026-04-06T12:25:25Z</time></trkpt><trkpt lat="46.35081114674715" lon="12.337926717071394"><ele>486.66666666666663</ele><time>2026-04-06T12:25:26Z</time></trkpt><trkpt lat="46.35099929424618" lon="12.338037875844012"><ele>487.3333333333333</ele><time>2026-04-06T12:25:27Z</time></trkpt><trkpt lat="46.351192042448766" lon="12.338137654949234"><ele>488.0</ele><time>2026-04-06T12:25:28Z</time></trkpt><trkpt lat="46.35138826237187" lon="12.338224418666302"><ele>488.66666666666663</ele><time>2026-04-06T12:25:29Z</time></trkpt><trkpt lat="46.35158451150357" lon="12.338297224053827"><ele>489.33333333333337</ele><time>2026-04-06T12:25:30Z</time></trkpt><trkpt lat="46.351783951318765" lon="12.338351889906079"><ele>490.0</ele><time>2026-04-06T12:25:31Z</time></trkpt><trkpt lat="46.35198256740106" lon="12.33839497597115"><ele>490.0</ele><time>2026-04-06T12:25:32Z</time></trkpt><trkpt lat="46.35218570257876" lon="12.338428974226787"><ele>490.0</ele><time>2026-04-06T12:25:33Z</time></trkpt><trkpt lat="46.352395231628556" lon="12.338452766388471"><ele>490.0</ele><time>2026-04-06T12:25:34Z</time></trkpt><trkpt lat="46.35260673450994" lon="12.338459405438604"><ele>490.0</ele><time>2026-04-06T12:25:35Z</time></trkpt><trkpt lat="46.35281947139954" lon="12.338448021822868"><ele>490.0</ele><time>2026-04-06T12:25:36Z</time></trkpt><trkpt lat="46.35303808865352" lon="12.338420190164856"><ele>490.0</ele><time>2026-04-06T12:25:37Z</time></trkpt><trkpt lat="46.35326710847789" lon="12.338392304600708"><ele>490.5</ele><time>2026-04-06T12:25:38Z</time></trkpt><trkpt lat="46.3535048118717" lon="12.338366746810953"><ele>491.0</ele><time>2026-04-06T12:25:39Z</time></trkpt><trkpt lat="46.35375507477612" lon="12.3383413221591"><ele>493.5</ele><time>2026-04-06T12:25:40Z</time></trkpt><trkpt lat="46.35400624555808" lon="12.33832497939612"><ele>496.0</ele><time>2026-04-06T12:25:41Z</time></trkpt><trkpt lat="46.354250258619125" lon="12.33831924810204"><ele>496.0</ele><time>2026-04-06T12:25:42Z</time></trkpt><trkpt lat="46.35448609421778" lon="12.338328641476924"><ele>496.0</ele><time>2026-04-06T12:25:43Z</time></trkpt><trkpt lat="46.35471527134684" lon="12.338353489752354"><ele>495.33333333333337</ele><time>2026-04-06T12:25:44Z</time></trkpt><trkpt lat="46.354933565409354" lon="12.338395210351983"><ele>494.66666666666663</ele><time>2026-04-06T12:25:45Z</time></trkpt><trkpt lat="46.35514470376649" lon="12.338450569660507"><ele>494.0</ele><time>2026-04-06T12:25:46Z</time></trkpt><trkpt lat="46.355348790803326" lon="12.338512884010704"><ele>495.0</ele><time>2026-04-06T12:25:47Z</time></trkpt><trkpt lat="46.35555048687465" lon="12.338582255090635"><ele>496.0</ele><time>2026-04-06T12:25:48Z</time></trkpt><trkpt lat="46.35575400099385" lon="12.33865827353213"><ele>497.0</ele><time>2026-04-06T12:25:49Z</time></trkpt><trkpt lat="46.35595621612495" lon="12.338747068563055"><ele>497.0</ele><time>2026-04-06T12:25:50Z</time></trkpt><trkpt lat="46.35615975854132" lon="12.338851341925723"><ele>497.0</ele><time>2026-04-06T12:25:51Z</time></trkpt><trkpt lat="46.35637116246747" lon="12.338965241009397"><ele>497.0</ele><time>2026-04-06T12:25:52Z</time></trkpt><trkpt lat="46.356583690617384" lon="12.339082073553493"><ele>498.3333333333333</ele><time>2026-04-06T12:25:53Z</time></trkpt><trkpt lat="46.35679557250496" lon="12.339201058067305"><ele>499.66666666666663</ele><time>2026-04-06T12:25:54Z</time></trkpt><trkpt lat="46.35699895713568" lon="12.339323571775775"><ele>501.0</ele><time>2026-04-06T12:25:55Z</time></trkpt><trkpt lat="46.357197065091704" lon="12.33943701194847"><ele>499.0</ele><time>2026-04-06T12:25:56Z</time></trkpt><trkpt lat="46.35739024275805" lon="12.339545326424274"><ele>497.0</ele><time>2026-04-06T12:25:57Z</time></trkpt><trkpt lat="46.35758090489888" lon="12.339650575245845"><ele>495.0</ele><time>2026-04-06T12:25:57.999Z</time></trkpt><trkpt lat="46.3577700875783" lon="12.339757981119522"><ele>495.0</ele><time>2026-04-06T12:25:58.999Z</time></trkpt><trkpt lat="46.35795888638112" lon="12.339868369188709"><ele>495.0</ele><time>2026-04-06T12:25:59.999Z</time></trkpt><trkpt lat="46.35815057798825" lon="12.339975699556817"><ele>495.0</ele><time>2026-04-06T12:26:00.999Z</time></trkpt><trkpt lat="46.35834198264492" lon="12.340078931606817"><ele>497.33333333333337</ele><time>2026-04-06T12:26:01.999Z</time></trkpt><trkpt lat="46.358530677308536" lon="12.340183425811231"><ele>499.6666666666667</ele><time>2026-04-06T12:26:02.999Z</time></trkpt><trkpt lat="46.358715162507515" lon="12.34029619951211"><ele>502.0</ele><time>2026-04-06T12:26:03.999Z</time></trkpt><trkpt lat="46.35889796286241" lon="12.340413188843446"><ele>502.33333333333337</ele><time>2026-04-06T12:26:04.999Z</time></trkpt><trkpt lat="46.35908042514145" lon="12.340537550292483"><ele>502.66666666666663</ele><time>2026-04-06T12:26:05.999Z</time></trkpt><trkpt lat="46.35925678676753" lon="12.340671842813995"><ele>503.0</ele><time>2026-04-06T12:26:06.999Z</time></trkpt><trkpt lat="46.35941781184314" lon="12.340820527403839"><ele>501.0</ele><time>2026-04-06T12:26:07.999Z</time></trkpt><trkpt lat="46.35958128501622" lon="12.340977275740872"><ele>499.0</ele><time>2026-04-06T12:26:08.999Z</time></trkpt><trkpt lat="46.359737374795884" lon="12.34114299655082"><ele>497.0</ele><time>2026-04-06T12:26:09.999Z</time></trkpt><trkpt lat="46.35988969998254" lon="12.341311920790599"><ele>498.3333333333333</ele><time>2026-04-06T12:26:10.999Z</time></trkpt><trkpt lat="46.360028872070615" lon="12.341489389125204"><ele>499.66666666666663</ele><time>2026-04-06T12:26:11.999Z</time></trkpt><trkpt lat="46.360166384901866" lon="12.341667520649532"><ele>501.0</ele><time>2026-04-06T12:26:12.999Z</time></trkpt><trkpt lat="46.36029967323637" lon="12.341855516688154"><ele>501.0</ele><time>2026-04-06T12:26:13.999Z</time></trkpt><trkpt lat="46.36042405768792" lon="12.342047818025708"><ele>501.0</ele><time>2026-04-06T12:26:14.999Z</time></trkpt><trkpt lat="46.360534791264705" lon="12.342234904681813"><ele>501.0</ele><time>2026-04-06T12:26:15.999Z</time></trkpt><trkpt lat="46.36064339562165" lon="12.342415983214675"><ele>501.75</ele><time>2026-04-06T12:26:16.999Z</time></trkpt><trkpt lat="46.360739353102716" lon="12.342588986402827"><ele>502.5</ele><time>2026-04-06T12:26:17.999Z</time></trkpt><trkpt lat="46.360829107677326" lon="12.342755896709022"><ele>503.25</ele><time>2026-04-06T12:26:18.999Z</time></trkpt><trkpt lat="46.36091264193929" lon="12.342913654848733"><ele>504.0</ele><time>2026-04-06T12:26:19.999Z</time></trkpt><trkpt lat="46.36100139126696" lon="12.343065505840043"><ele>504.0</ele><time>2026-04-06T12:26:20.999Z</time></trkpt><trkpt lat="46.361089690216275" lon="12.343230476493288"><ele>504.0</ele><time>2026-04-06T12:26:21.999Z</time></trkpt><trkpt lat="46.361181745025085" lon="12.343391345556649"><ele>504.0</ele><time>2026-04-06T12:26:22.999Z</time></trkpt><trkpt lat="46.361280962659414" lon="12.343548465152464"><ele>504.0</ele><time>2026-04-06T12:26:23.999Z</time></trkpt><trkpt lat="46.36138509599529" lon="12.3437057136725"><ele>506.33333333333337</ele><time>2026-04-06T12:26:24.999Z</time></trkpt><trkpt lat="46.361492403257984" lon="12.343864338338399"><ele>508.6666666666667</ele><time>2026-04-06T12:26:25.999Z</time></trkpt><trkpt lat="46.361610685072144" lon="12.344010291108644"><ele>511.0</ele><time>2026-04-06T12:26:26.999Z</time></trkpt><trkpt lat="46.36172943906744" lon="12.34415321549261"><ele>511.0</ele><time>2026-04-06T12:26:27.999Z</time></trkpt><trkpt lat="46.36184800536609" lon="12.344282566866987"><ele>511.0</ele><time>2026-04-06T12:26:28.999Z</time></trkpt><trkpt lat="46.361972390646045" lon="12.344402819586596"><ele>511.0</ele><time>2026-04-06T12:26:29.999Z</time></trkpt><trkpt lat="46.362096493087975" lon="12.344517508652393"><ele>511.0</ele><time>2026-04-06T12:26:30.999Z</time></trkpt><trkpt lat="46.36222090616207" lon="12.344622566718396"><ele>514.0</ele><time>2026-04-06T12:26:31.999Z</time></trkpt><trkpt lat="46.3623433529034" lon="12.344726427834852"><ele>517.0</ele><time>2026-04-06T12:26:32.999Z</time></trkpt><trkpt lat="46.36247824647172" lon="12.344829968334102"><ele>520.0</ele><time>2026-04-06T12:26:33.999Z</time></trkpt><trkpt lat="46.36260104371095" lon="12.344930315826119"><ele>523.0</ele><time>2026-04-06T12:26:34.999Z</time></trkpt><trkpt lat="46.36273258374925" lon="12.345034912171425"><ele>523.0</ele><time>2026-04-06T12:26:35.999Z</time></trkpt><trkpt lat="46.36286862363528" lon="12.345142148460837"><ele>523.0</ele><time>2026-04-06T12:26:37.058Z</time></trkpt><trkpt lat="46.36300421050405" lon="12.34525417769589"><ele>523.0</ele><time>2026-04-06T12:26:38.061Z</time></trkpt><trkpt lat="46.363137491328146" lon="12.345364022212028"><ele>526.5</ele><time>2026-04-06T12:26:39.054Z</time></trkpt><trkpt lat="46.36326554673996" lon="12.345467769560292"><ele>530.0</ele><time>2026-04-06T12:26:40.051Z</time></trkpt><trkpt lat="46.37056635949069" lon="12.354729876388113"><ele>530.0</ele><time>2026-04-06T12:27:26.999Z</time></trkpt><trkpt lat="46.37068199678623" lon="12.354824289617989"><ele>530.0</ele><time>2026-04-06T12:27:27.999Z</time></trkpt><trkpt lat="46.370818189702085" lon="12.354925782563935"><ele>530.0</ele><time>2026-04-06T12:27:28.999Z</time></trkpt><trkpt lat="46.37095926992088" lon="12.355022211701872"><ele>530.0</ele><time>2026-04-06T12:27:29.999Z</time></trkpt><trkpt lat="46.371087123197164" lon="12.355139840138905"><ele>530.0</ele><time>2026-04-06T12:27:30.999Z</time></trkpt><trkpt lat="46.37120868926482" lon="12.35524705449773"><ele>530.0</ele><time>2026-04-06T12:27:31.999Z</time></trkpt><trkpt lat="46.37133825446707" lon="12.355345397081873"><ele>530.0</ele><time>2026-04-06T12:27:33Z</time></trkpt><trkpt lat="46.37146137153323" lon="12.355451040648864"><ele>530.0</ele><time>2026-04-06T12:27:34Z</time></trkpt><trkpt lat="46.3715883749132" lon="12.355552496710875"><ele>524.75</ele><time>2026-04-06T12:27:35Z</time></trkpt><trkpt lat="46.3717185165474" lon="12.355656774395028"><ele>519.5</ele><time>2026-04-06T12:27:36Z</time></trkpt><trkpt lat="46.37184463058153" lon="12.355762705489289"><ele>514.25</ele><time>2026-04-06T12:27:37Z</time></trkpt><trkpt lat="46.37196826172551" lon="12.35587396673382"><ele>509.0</ele><time>2026-04-06T12:27:38Z</time></trkpt><trkpt lat="46.37209217893417" lon="12.355982883629215"><ele>508.75</ele><time>2026-04-06T12:27:39Z</time></trkpt><trkpt lat="46.372217078444365" lon="12.356087548445922"><ele>508.5</ele><time>2026-04-06T12:27:40Z</time></trkpt><trkpt lat="46.37234321470181" lon="12.356191255878278"><ele>508.25</ele><time>2026-04-06T12:27:41Z</time></trkpt><trkpt lat="46.37246853945843" lon="12.35629667178632"><ele>508.0</ele><time>2026-04-06T12:27:42Z</time></trkpt><trkpt lat="46.3725942893046" lon="12.356402774538768"><ele>509.5</ele><time>2026-04-06T12:27:43Z</time></trkpt><trkpt lat="46.37271983381087" lon="12.356507008628624"><ele>511.0</ele><time>2026-04-06T12:27:44Z</time></trkpt><trkpt lat="46.37284767346191" lon="12.356610370015177"><ele>512.5</ele><time>2026-04-06T12:27:45Z</time></trkpt><trkpt lat="46.3729764754032" lon="12.356717555692429"><ele>514.0</ele><time>2026-04-06T12:27:46Z</time></trkpt><trkpt lat="46.3731100903281" lon="12.356829211700516"><ele>518.0</ele><time>2026-04-06T12:27:47Z</time></trkpt><trkpt lat="46.37324692220825" lon="12.356943639464323"><ele>522.0</ele><time>2026-04-06T12:27:48Z</time></trkpt><trkpt lat="46.37338972334879" lon="12.357063921673612"><ele>526.0</ele><time>2026-04-06T12:27:49Z</time></trkpt><trkpt lat="46.37353947987097" lon="12.357194618900817"><ele>534.3333333333334</ele><time>2026-04-06T12:27:50Z</time></trkpt><trkpt lat="46.373704362457225" lon="12.35733524281906"><ele>542.6666666666666</ele><time>2026-04-06T12:27:51Z</time></trkpt><trkpt lat="46.373883428813194" lon="12.357485218960058"><ele>551.0</ele><time>2026-04-06T12:27:52Z</time></trkpt><trkpt lat="46.374075856992214" lon="12.357646280747096"><ele>551.0</ele><time>2026-04-06T12:27:53Z</time></trkpt><trkpt lat="46.37427817706321" lon="12.3578188571976"><ele>551.0</ele><time>2026-04-06T12:27:54Z</time></trkpt><trkpt lat="46.37449620837547" lon="12.358007028568002"><ele>556.0</ele><time>2026-04-06T12:27:55Z</time></trkpt><trkpt lat="46.3747301378227" lon="12.358210056956723"><ele>561.0</ele><time>2026-04-06T12:27:56Z</time></trkpt><trkpt lat="46.374938915186185" lon="12.358389418306224"><ele>561.0</ele><time>2026-04-06T12:27:57Z</time></trkpt><trkpt lat="46.37513665233019" lon="12.358558353753928"><ele>561.0</ele><time>2026-04-06T12:27:58Z</time></trkpt><trkpt lat="46.37533190442718" lon="12.358718371316131"><ele>559.0</ele><time>2026-04-06T12:27:59Z</time></trkpt><trkpt lat="46.375521676248624" lon="12.358863367899144"><ele>557.0</ele><time>2026-04-06T12:28:00Z</time></trkpt><trkpt lat="46.37570817210507" lon="12.358986451779979"><ele>555.0</ele><time>2026-04-06T12:28:01Z</time></trkpt><trkpt lat="46.37589802660935" lon="12.359085478943497"><ele>559.6666666666666</ele><time>2026-04-06T12:28:02Z</time></trkpt><trkpt lat="46.37609096654224" lon="12.359170310548608"><ele>564.3333333333333</ele><time>2026-04-06T12:28:03Z</time></trkpt><trkpt lat="46.37628274439025" lon="12.359234623484921"><ele>569.0</ele><time>2026-04-06T12:28:04Z</time></trkpt><trkpt lat="46.376464960368104" lon="12.359276822983512"><ele>569.6666666666666</ele><time>2026-04-06T12:28:05Z</time></trkpt><trkpt lat="46.37664915924052" lon="12.359298154710327"><ele>570.3333333333334</ele><time>2026-04-06T12:28:06Z</time></trkpt><trkpt lat="46.37683067277432" lon="12.359302876578724"><ele>571.0</ele><time>2026-04-06T12:28:07Z</time></trkpt><trkpt lat="46.37700858624018" lon="12.359289821078143"><ele>571.0</ele><time>2026-04-06T12:28:08Z</time></trkpt><trkpt lat="46.377180496766854" lon="12.359255213313128"><ele>571.0</ele><time>2026-04-06T12:28:09Z</time></trkpt><trkpt lat="46.37734873106747" lon="12.35920176328489"><ele>571.0</ele><time>2026-04-06T12:28:10Z</time></trkpt><trkpt lat="46.37751595772112" lon="12.359142005368298"><ele>573.3333333333334</ele><time>2026-04-06T12:28:11Z</time></trkpt><trkpt lat="46.37768179774353" lon="12.359081752181574"><ele>575.6666666666666</ele><time>2026-04-06T12:28:12Z</time></trkpt><trkpt lat="46.37784535759571" lon="12.359019306484699"><ele>578.0</ele><time>2026-04-06T12:28:13Z</time></trkpt><trkpt lat="46.37801107775111" lon="12.358956488503411"><ele>576.0</ele><time>2026-04-06T12:28:14Z</time></trkpt><trkpt lat="46.37817766936258" lon="12.358893892667766"><ele>574.0</ele><time>2026-04-06T12:28:15Z</time></trkpt><trkpt lat="46.378339313353536" lon="12.358828880865858"><ele>572.0</ele><time>2026-04-06T12:28:16Z</time></trkpt><trkpt lat="46.37850124712009" lon="12.358764835702996"><ele>572.0</ele><time>2026-04-06T12:28:17Z</time></trkpt><trkpt lat="46.37866507699938" lon="12.35870423967063"><ele>572.0</ele><time>2026-04-06T12:28:18Z</time></trkpt><trkpt lat="46.378831578449585" lon="12.358640476309176"><ele>572.0</ele><time>2026-04-06T12:28:19Z</time></trkpt><trkpt lat="46.379004095041914" lon="12.358573979469003"><ele>575.3333333333333</ele><time>2026-04-06T12:28:20Z</time></trkpt><trkpt lat="46.37918281710815" lon="12.35850507997298"><ele>578.6666666666666</ele><time>2026-04-06T12:28:21Z</time></trkpt><trkpt lat="46.379368397141384" lon="12.358432078733841"><ele>582.0</ele><time>2026-04-06T12:28:22Z</time></trkpt><trkpt lat="46.37956113831672" lon="12.358355543498176"><ele>586.3333333333334</ele><time>2026-04-06T12:28:23Z</time></trkpt><trkpt lat="46.379760147108044" lon="12.358278708314998"><ele>590.6666666666667</ele><time>2026-04-06T12:28:24Z</time></trkpt><trkpt lat="46.37995752130484" lon="12.358202364219741"><ele>595.0</ele><time>2026-04-06T12:28:25Z</time></trkpt><trkpt lat="46.38015044451289" lon="12.358126562993473"><ele>595.0</ele><time>2026-04-06T12:28:26Z</time></trkpt><trkpt lat="46.38033955260609" lon="12.358053660256886"><ele>595.0</ele><time>2026-04-06T12:28:27Z</time></trkpt><trkpt lat="46.38053054112009" lon="12.357988283377551"><ele>595.0</ele><time>2026-04-06T12:28:28Z</time></trkpt><trkpt lat="46.380725503572876" lon="12.357946646952387"><ele>591.3333333333334</ele><time>2026-04-06T12:28:29Z</time></trkpt><trkpt lat="46.3809184243941" lon="12.357928990187737"><ele>587.6666666666666</ele><time>2026-04-06T12:28:30Z</time></trkpt><trkpt lat="46.38110900909949" lon="12.357919903679925"><ele>584.0</ele><time>2026-04-06T12:28:31Z</time></trkpt><trkpt lat="46.38129290627438" lon="12.357938710816438"><ele>589.0</ele><time>2026-04-06T12:28:32Z</time></trkpt><trkpt lat="46.3814735750624" lon="12.357972698113969"><ele>594.0</ele><time>2026-04-06T12:28:33Z</time></trkpt><trkpt lat="46.38165107597351" lon="12.35803623889552"><ele>599.0</ele><time>2026-04-06T12:28:34Z</time></trkpt><trkpt lat="46.38180482180492" lon="12.358120543957417"><ele>602.75</ele><time>2026-04-06T12:28:35Z</time></trkpt><trkpt lat="46.38194279395391" lon="12.358205646632499"><ele>606.5</ele><time>2026-04-06T12:28:36Z</time></trkpt><trkpt lat="46.38207193405752" lon="12.358285758866959"><ele>610.25</ele><time>2026-04-06T12:28:37Z</time></trkpt><trkpt lat="46.382195904439264" lon="12.358363124749431"><ele>614.0</ele><time>2026-04-06T12:28:38Z</time></trkpt><trkpt lat="46.3823232241335" lon="12.358440747388709"><ele>620.3333333333333</ele><time>2026-04-06T12:28:39Z</time></trkpt><trkpt lat="46.382455956907066" lon="12.358529339269497"><ele>626.6666666666666</ele><time>2026-04-06T12:28:40Z</time></trkpt><trkpt lat="46.3825941324509" lon="12.358619356388582"><ele>633.0</ele><time>2026-04-06T12:28:41Z</time></trkpt><trkpt lat="46.38274376852845" lon="12.358711700289238"><ele>633.0</ele><time>2026-04-06T12:28:42Z</time></trkpt><trkpt lat="46.38289933132464" lon="12.358816751599312"><ele>633.0</ele><time>2026-04-06T12:28:43Z</time></trkpt><trkpt lat="46.383070356094684" lon="12.358903404369965"><ele>633.0</ele><time>2026-04-06T12:28:44Z</time></trkpt><trkpt lat="46.382704819273" lon="12.358824254607136"><ele>633.0</ele><time>2026-04-06T12:28:45Z</time></trkpt><trkpt lat="46.38260354528023" lon="12.358742511821042"><ele>633.0</ele><time>2026-04-06T12:28:48.999Z</time></trkpt><trkpt lat="46.38250318726825" lon="12.358658817586392"><ele>633.0</ele><time>2026-04-06T12:28:53.999Z</time></trkpt><trkpt lat="46.382334917008606" lon="12.358572619627145"><ele>633.0</ele><time>2026-04-06T12:28:57.999Z</time></trkpt><trkpt lat="46.38227790752684" lon="12.358531529333375"><ele>633.0</ele><time>2026-04-06T12:28:58.999Z</time></trkpt><trkpt lat="46.38222401650162" lon="12.358471064109498"><ele>633.0</ele><time>2026-04-06T12:29:01.999Z</time></trkpt><trkpt lat="46.38257202505725" lon="12.358675202484337"><ele>633.0</ele><time>2026-04-06T12:29:03.999Z</time></trkpt><trkpt lat="46.38243005790604" lon="12.358601174977785"><ele>633.0</ele><time>2026-04-06T12:29:21.999Z</time></trkpt><trkpt lat="46.38238073122643" lon="12.3585352662035"><ele>633.0</ele><time>2026-04-06T12:29:27.999Z</time></trkpt><trkpt lat="46.3823318991362" lon="12.358467230420345"><ele>633.0</ele><time>2026-04-06T12:29:31.999Z</time></trkpt><trkpt lat="46.38225878472951" lon="12.358422377022599"><ele>633.0</ele><time>2026-04-06T12:29:34.999Z</time></trkpt><trkpt lat="46.38219541817714" lon="12.358426461517665"><ele>633.0</ele><time>2026-04-06T12:29:36.999Z</time></trkpt><trkpt lat="46.3822735663124" lon="12.358450494075903"><ele>633.0</ele><time>2026-04-06T12:29:41Z</time></trkpt><trkpt lat="46.38238736660848" lon="12.358615835137215"><ele>676.0</ele><time>2026-04-06T12:29:43Z</time></trkpt><trkpt lat="46.38250425322029" lon="12.360045871878341"><ele>676.0</ele><time>2026-04-06T12:29:46Z</time></trkpt><trkpt lat="46.382596742637084" lon="12.360288189153156"><ele>676.0</ele><time>2026-04-06T12:29:47Z</time></trkpt><trkpt lat="46.38269870139732" lon="12.360521291841554"><ele>676.0</ele><time>2026-04-06T12:29:48Z</time></trkpt><trkpt lat="46.38629595994256" lon="12.365114629744937"><ele>698.0</ele><time>2026-04-06T12:30:12Z</time></trkpt><trkpt lat="46.38883047827866" lon="12.366768159753518"><ele>690.5</ele><time>2026-04-06T12:30:22Z</time></trkpt><trkpt lat="46.38911986039357" lon="12.366948023703946"><ele>683.0</ele><time>2026-04-06T12:30:23Z</time></trkpt><trkpt lat="46.38941538502886" lon="12.367135784298938"><ele>673.0</ele><time>2026-04-06T12:30:24Z</time></trkpt><trkpt lat="46.38977196815978" lon="12.36738251646298"><ele>663.0</ele><time>2026-04-06T12:30:25Z</time></trkpt><trkpt lat="46.38996308941451" lon="12.367490107131653"><ele>640.0</ele><time>2026-04-06T12:30:26Z</time></trkpt><trkpt lat="46.39301722855277" lon="12.368257859972903"><ele>640.0</ele><time>2026-04-06T12:30:39Z</time></trkpt><trkpt lat="46.393293701287845" lon="12.368181540230296"><ele>640.0</ele><time>2026-04-06T12:30:40Z</time></trkpt><trkpt lat="46.39987819525712" lon="12.366799687703036"><ele>638.0</ele><time>2026-04-06T12:31:12.999Z</time></trkpt><trkpt lat="46.4000092434159" lon="12.366685669216725"><ele>636.0</ele><time>2026-04-06T12:31:13.999Z</time></trkpt><trkpt lat="46.40050527621738" lon="12.366652535146898"><ele>636.0</ele><time>2026-04-06T12:31:15.999Z</time></trkpt><trkpt lat="46.40070735283885" lon="12.366560929432586"><ele>636.0</ele><time>2026-04-06T12:31:16.999Z</time></trkpt><trkpt lat="46.40092340672403" lon="12.366485443815609"><ele>636.0</ele><time>2026-04-06T12:31:17.999Z</time></trkpt><trkpt lat="46.401149843063045" lon="12.366425479139574"><ele>653.6666666666666</ele><time>2026-04-06T12:31:18.999Z</time></trkpt><trkpt lat="46.401343137097406" lon="12.36634953696583"><ele>671.3333333333333</ele><time>2026-04-06T12:31:19.999Z</time></trkpt><trkpt lat="46.401542250879196" lon="12.366275772950724"><ele>689.0</ele><time>2026-04-06T12:31:20.999Z</time></trkpt><trkpt lat="46.40173962864951" lon="12.366194206714823"><ele>689.0</ele><time>2026-04-06T12:31:21.999Z</time></trkpt><trkpt lat="46.40192545093071" lon="12.366099965851854"><ele>689.0</ele><time>2026-04-06T12:31:22.999Z</time></trkpt><trkpt lat="46.402135258997774" lon="12.366032532247678"><ele>689.0</ele><time>2026-04-06T12:31:23.999Z</time></trkpt><trkpt lat="46.40233387147666" lon="12.365968578562919"><ele>699.6666666666666</ele><time>2026-04-06T12:31:24.999Z</time></trkpt><trkpt lat="46.40253352356072" lon="12.365945191963293"><ele>710.3333333333334</ele><time>2026-04-06T12:31:25.999Z</time></trkpt><trkpt lat="46.402746866781825" lon="12.36592447169758"><ele>721.0</ele><time>2026-04-06T12:31:26.999Z</time></trkpt><trkpt lat="46.40306574781466" lon="12.365953252146666"><ele>733.0</ele><time>2026-04-06T12:31:27.999Z</time></trkpt><trkpt lat="46.403350538377296" lon="12.36601310266466"><ele>745.0</ele><time>2026-04-06T12:31:28.999Z</time></trkpt><trkpt lat="46.4036661868387" lon="12.366114923006164"><ele>733.0</ele><time>2026-04-06T12:31:29.999Z</time></trkpt><trkpt lat="46.40405586730836" lon="12.36630351604957"><ele>721.0</ele><time>2026-04-06T12:31:30.999Z</time></trkpt><trkpt lat="46.40439276673167" lon="12.366468949992669"><ele>721.0</ele><time>2026-04-06T12:31:31.999Z</time></trkpt><trkpt lat="46.40464917328253" lon="12.366640411157102"><ele>721.0</ele><time>2026-04-06T12:31:32.999Z</time></trkpt><trkpt lat="46.40493673425802" lon="12.366851680032758"><ele>710.0</ele><time>2026-04-06T12:31:33.999Z</time></trkpt><trkpt lat="46.40517425888168" lon="12.367060569117873"><ele>699.0</ele><time>2026-04-06T12:31:34.999Z</time></trkpt><trkpt lat="46.4053951978685" lon="12.367258305747923"><ele>698.5</ele><time>2026-04-06T12:31:35.999Z</time></trkpt><trkpt lat="46.40565294766237" lon="12.367450187733182"><ele>698.0</ele><time>2026-04-06T12:31:36.999Z</time></trkpt><trkpt lat="46.405897606018094" lon="12.367624847839975"><ele>698.0</ele><time>2026-04-06T12:31:37.999Z</time></trkpt><trkpt lat="46.40619242979577" lon="12.367793799808304"><ele>698.0</ele><time>2026-04-06T12:31:38.999Z</time></trkpt><trkpt lat="46.406441646364755" lon="12.36793025179464"><ele>699.0</ele><time>2026-04-06T12:31:39.999Z</time></trkpt><trkpt lat="46.40667964892811" lon="12.368060099453636"><ele>700.0</ele><time>2026-04-06T12:31:40.999Z</time></trkpt><trkpt lat="46.40699678594116" lon="12.368185763046188"><ele>703.0</ele><time>2026-04-06T12:31:41.999Z</time></trkpt><trkpt lat="46.40732370688935" lon="12.368305260872946"><ele>706.0</ele><time>2026-04-06T12:31:42.999Z</time></trkpt><trkpt lat="46.407722475946954" lon="12.3684412379249"><ele>709.0</ele><time>2026-04-06T12:31:43.999Z</time></trkpt><trkpt lat="46.40821798067567" lon="12.368591879021976"><ele>736.0</ele><time>2026-04-06T12:31:45Z</time></trkpt><trkpt lat="46.41051753020091" lon="12.368934629248534"><ele>736.0</ele><time>2026-04-06T12:31:46Z</time></trkpt><trkpt lat="46.41086968728223" lon="12.369054727408752"><ele>736.0</ele><time>2026-04-06T12:31:47Z</time></trkpt><trkpt lat="46.411278027259826" lon="12.369180923064214"><ele>744.0</ele><time>2026-04-06T12:31:48Z</time></trkpt><trkpt lat="46.4116714085353" lon="12.3693285003019"><ele>752.0</ele><time>2026-04-06T12:31:49Z</time></trkpt><trkpt lat="46.412147151668684" lon="12.369517988246283"><ele>751.5</ele><time>2026-04-06T12:31:50Z</time></trkpt><trkpt lat="46.41241390063813" lon="12.369722135973515"><ele>751.0</ele><time>2026-04-06T12:31:51Z</time></trkpt><trkpt lat="46.41281806540639" lon="12.369987135605804"><ele>760.5</ele><time>2026-04-06T12:31:52Z</time></trkpt><trkpt lat="46.41311780468098" lon="12.370230548651852"><ele>770.0</ele><time>2026-04-06T12:31:53Z</time></trkpt><trkpt lat="46.41342134636228" lon="12.37047547118339"><ele>773.5</ele><time>2026-04-06T12:31:54Z</time></trkpt><trkpt lat="46.413732996583356" lon="12.370723307716542"><ele>777.0</ele><time>2026-04-06T12:31:55Z</time></trkpt><trkpt lat="46.413940425894566" lon="12.370951775167994"><ele>777.0</ele><time>2026-04-06T12:31:56Z</time></trkpt><trkpt lat="46.41416841967752" lon="12.371166149950973"><ele>777.0</ele><time>2026-04-06T12:31:57Z</time></trkpt><trkpt lat="46.414382410756005" lon="12.371313704985193"><ele>779.3333333333333</ele><time>2026-04-06T12:31:58Z</time></trkpt><trkpt lat="46.41454005444715" lon="12.37150305141577"><ele>781.6666666666666</ele><time>2026-04-06T12:31:59Z</time></trkpt><trkpt lat="46.41469029599888" lon="12.371734274434475"><ele>784.0</ele><time>2026-04-06T12:32:00Z</time></trkpt><trkpt lat="46.41487653048995" lon="12.37201921279056"><ele>775.5</ele><time>2026-04-06T12:32:01Z</time></trkpt><trkpt lat="46.41503887041002" lon="12.372258707615243"><ele>767.0</ele><time>2026-04-06T12:32:02Z</time></trkpt><trkpt lat="46.41521434263404" lon="12.372480971727814"><ele>767.0</ele><time>2026-04-06T12:32:03Z</time></trkpt><trkpt lat="46.415390945651566" lon="12.372652668623454"><ele>767.0</ele><time>2026-04-06T12:32:04Z</time></trkpt><trkpt lat="46.41553581972989" lon="12.372786423447957"><ele>767.0</ele><time>2026-04-06T12:32:05Z</time></trkpt><trkpt lat="46.41566663874431" lon="12.37289852639685"><ele>769.6666666666666</ele><time>2026-04-06T12:32:06Z</time></trkpt><trkpt lat="46.41580275641461" lon="12.37301441773055"><ele>772.3333333333333</ele><time>2026-04-06T12:32:07Z</time></trkpt><trkpt lat="46.41593696913989" lon="12.373131221627093"><ele>775.0</ele><time>2026-04-06T12:32:08Z</time></trkpt><trkpt lat="46.41606148883029" lon="12.373235705601184"><ele>775.0</ele><time>2026-04-06T12:32:09Z</time></trkpt><trkpt lat="46.41618184182742" lon="12.37334107043621"><ele>775.0</ele><time>2026-04-06T12:32:10Z</time></trkpt><trkpt lat="46.41627767930804" lon="12.37344848326709"><ele>775.0</ele><time>2026-04-06T12:32:11Z</time></trkpt><trkpt lat="46.41639868284955" lon="12.373552193430893"><ele>775.0</ele><time>2026-04-06T12:32:12Z</time></trkpt><trkpt lat="46.41651210613187" lon="12.373660418113223"><ele>777.0</ele><time>2026-04-06T12:32:13Z</time></trkpt><trkpt lat="46.41662840548327" lon="12.37376831726777"><ele>779.0</ele><time>2026-04-06T12:32:14Z</time></trkpt><trkpt lat="46.41674519222195" lon="12.373879091278635"><ele>781.0</ele><time>2026-04-06T12:32:15Z</time></trkpt><trkpt lat="46.41686554899073" lon="12.373990157750685"><ele>783.0</ele><time>2026-04-06T12:32:16Z</time></trkpt><trkpt lat="46.416983905972664" lon="12.37409719478625"><ele>783.0</ele><time>2026-04-06T12:32:17Z</time></trkpt><trkpt lat="46.41710178929021" lon="12.374206298031268"><ele>783.0</ele><time>2026-04-06T12:32:18Z</time></trkpt><trkpt lat="46.41721761712771" lon="12.374315469218956"><ele>783.0</ele><time>2026-04-06T12:32:19Z</time></trkpt><trkpt lat="46.417337150649495" lon="12.37441494927576"><ele>783.0</ele><time>2026-04-06T12:32:20Z</time></trkpt><trkpt lat="46.417461235445295" lon="12.374493376923454"><ele>786.0</ele><time>2026-04-06T12:32:21Z</time></trkpt><trkpt lat="46.4175929425684" lon="12.374545566942208"><ele>789.0</ele><time>2026-04-06T12:32:22Z</time></trkpt><trkpt lat="46.41773169445213" lon="12.374565731291675"><ele>792.0</ele><time>2026-04-06T12:32:23Z</time></trkpt><trkpt lat="46.41786968658351" lon="12.37455613728225"><ele>795.0</ele><time>2026-04-06T12:32:24Z</time></trkpt><trkpt lat="46.41800936607471" lon="12.374529550809761"><ele>797.25</ele><time>2026-04-06T12:32:25Z</time></trkpt><trkpt lat="46.41814913877231" lon="12.374497891598732"><ele>799.5</ele><time>2026-04-06T12:32:26Z</time></trkpt><trkpt lat="46.41829416887521" lon="12.374464781153335"><ele>801.75</ele><time>2026-04-06T12:32:27Z</time></trkpt><trkpt lat="46.41844922406972" lon="12.374427363247316"><ele>804.0</ele><time>2026-04-06T12:32:28Z</time></trkpt><trkpt lat="46.4186090871897" lon="12.374391153156001"><ele>804.0</ele><time>2026-04-06T12:32:29Z</time></trkpt><trkpt lat="46.41876575332136" lon="12.374353347112654"><ele>804.0</ele><time>2026-04-06T12:32:30Z</time></trkpt><trkpt lat="46.41890369246269" lon="12.374309840885667"><ele>804.0</ele><time>2026-04-06T12:32:31Z</time></trkpt><trkpt lat="46.41903103377081" lon="12.37424934023924"><ele>804.0</ele><time>2026-04-06T12:32:32Z</time></trkpt><trkpt lat="46.41915092956039" lon="12.374148833989771"><ele>803.5</ele><time>2026-04-06T12:32:33Z</time></trkpt><trkpt lat="46.419257640728496" lon="12.3740034278386"><ele>803.0</ele><time>2026-04-06T12:32:34Z</time></trkpt><trkpt lat="46.419348483406964" lon="12.37383065164499"><ele>802.5</ele><time>2026-04-06T12:32:35Z</time></trkpt><trkpt lat="46.419420916881386" lon="12.373637271332253"><ele>802.0</ele><time>2026-04-06T12:32:36Z</time></trkpt><trkpt lat="46.419479628171125" lon="12.373430867938275"><ele>806.3333333333333</ele><time>2026-04-06T12:32:37Z</time></trkpt><trkpt lat="46.41953476488444" lon="12.37321969431242"><ele>810.6666666666667</ele><time>2026-04-06T12:32:38Z</time></trkpt><trkpt lat="46.41958383219983" lon="12.373005270779418"><ele>815.0</ele><time>2026-04-06T12:32:39Z</time></trkpt><trkpt lat="46.419629712288184" lon="12.372793695105061"><ele>813.0</ele><time>2026-04-06T12:32:40Z</time></trkpt><trkpt lat="46.41967162719576" lon="12.372582802012953"><ele>811.0</ele><time>2026-04-06T12:32:41Z</time></trkpt><trkpt lat="46.419712722861455" lon="12.372374191986198"><ele>809.0</ele><time>2026-04-06T12:32:42Z</time></trkpt><trkpt lat="46.41975700228819" lon="12.372160138571434"><ele>809.0</ele><time>2026-04-06T12:32:43Z</time></trkpt><trkpt lat="46.419795239500274" lon="12.371932569056371"><ele>809.0</ele><time>2026-04-06T12:32:44Z</time></trkpt><trkpt lat="46.41982958621182" lon="12.371696013387853"><ele>809.0</ele><time>2026-04-06T12:32:45Z</time></trkpt><trkpt lat="46.41985758985496" lon="12.371453312006722"><ele>809.3333333333334</ele><time>2026-04-06T12:32:46Z</time></trkpt><trkpt lat="46.419877378081544" lon="12.371200106829225"><ele>809.6666666666667</ele><time>2026-04-06T12:32:47Z</time></trkpt><trkpt lat="46.41988809566749" lon="12.370949306518026"><ele>810.0</ele><time>2026-04-06T12:32:48Z</time></trkpt><trkpt lat="46.419893074733956" lon="12.370712108653638"><ele>811.3333333333333</ele><time>2026-04-06T12:32:49Z</time></trkpt><trkpt lat="46.41989404061405" lon="12.370483083953728"><ele>812.6666666666666</ele><time>2026-04-06T12:32:50Z</time></trkpt><trkpt lat="46.41989821256164" lon="12.370255078445497"><ele>814.0</ele><time>2026-04-06T12:32:51Z</time></trkpt><trkpt lat="46.419903833618974" lon="12.37002104795303"><ele>814.0</ele><time>2026-04-06T12:32:52Z</time></trkpt><trkpt lat="46.41990811487798" lon="12.369781658909229"><ele>814.0</ele><time>2026-04-06T12:32:52.999Z</time></trkpt><trkpt lat="46.41991232591972" lon="12.36953591891979"><ele>814.0</ele><time>2026-04-06T12:32:53.999Z</time></trkpt><trkpt lat="46.41991280415" lon="12.369292606768095"><ele>816.0</ele><time>2026-04-06T12:32:54.999Z</time></trkpt><trkpt lat="46.41991302609556" lon="12.369050450188471"><ele>818.0</ele><time>2026-04-06T12:32:55.999Z</time></trkpt><trkpt lat="46.41991439847308" lon="12.368813848448415"><ele>820.0</ele><time>2026-04-06T12:32:56.999Z</time></trkpt><trkpt lat="46.41991949125145" lon="12.368583872416023"><ele>820.0</ele><time>2026-04-06T12:32:57.999Z</time></trkpt><trkpt lat="46.419930111848196" lon="12.368358722981899"><ele>820.0</ele><time>2026-04-06T12:32:58.999Z</time></trkpt><trkpt lat="46.419948609004784" lon="12.368152001080185"><ele>820.0</ele><time>2026-04-06T12:32:59.999Z</time></trkpt><trkpt lat="46.41997819485836" lon="12.367961991147315"><ele>820.0</ele><time>2026-04-06T12:33:00.999Z</time></trkpt><trkpt lat="46.42002587952587" lon="12.367794525555913"><ele>820.4999999999999</ele><time>2026-04-06T12:33:01.999Z</time></trkpt><trkpt lat="46.420081289847055" lon="12.367650294665426"><ele>821.0</ele><time>2026-04-06T12:33:02.999Z</time></trkpt><trkpt lat="46.42014598054647" lon="12.367548310430315"><ele>821.5</ele><time>2026-04-06T12:33:03.999Z</time></trkpt><trkpt lat="46.42021751060317" lon="12.367496591931085"><ele>822.0</ele><time>2026-04-06T12:33:04.999Z</time></trkpt><trkpt lat="46.42028700987622" lon="12.367440968729687"><ele>822.4999999999999</ele><time>2026-04-06T12:33:05.999Z</time></trkpt><trkpt lat="46.42035696222317" lon="12.367411970947586"><ele>823.0</ele><time>2026-04-06T12:33:06.999Z</time></trkpt><trkpt lat="46.420433908827135" lon="12.367392553481125"><ele>820.0</ele><time>2026-04-06T12:33:07.999Z</time></trkpt><trkpt lat="46.420521328836614" lon="12.367379868892725"><ele>817.0</ele><time>2026-04-06T12:33:08.999Z</time></trkpt><trkpt lat="46.42062205638672" lon="12.36739094719969"><ele>814.0</ele><time>2026-04-06T12:33:09.999Z</time></trkpt><trkpt lat="46.420729259638144" lon="12.367415784894972"><ele>811.0</ele><time>2026-04-06T12:33:10.999Z</time></trkpt><trkpt lat="46.42084436153356" lon="12.367438198388983"><ele>808.0</ele><time>2026-04-06T12:33:11.999Z</time></trkpt><trkpt lat="46.42096481156997" lon="12.367452051970044"><ele>808.0</ele><time>2026-04-06T12:33:12.999Z</time></trkpt><trkpt lat="46.42109130459359" lon="12.367442432393057"><ele>808.0</ele><time>2026-04-06T12:33:13.999Z</time></trkpt><trkpt lat="46.42121841887295" lon="12.367409661350031"><ele>808.0</ele><time>2026-04-06T12:33:14.999Z</time></trkpt><trkpt lat="46.421344320482454" lon="12.367345114412808"><ele>808.0</ele><time>2026-04-06T12:33:15.999Z</time></trkpt><trkpt lat="46.42146185842917" lon="12.367262868803989"><ele>810.25</ele><time>2026-04-06T12:33:16.999Z</time></trkpt><trkpt lat="46.42157093047341" lon="12.367157072008952"><ele>812.5</ele><time>2026-04-06T12:33:17.999Z</time></trkpt><trkpt lat="46.421667238255964" lon="12.367040043442055"><ele>814.75</ele><time>2026-04-06T12:33:18.999Z</time></trkpt><trkpt lat="46.421759477118584" lon="12.366924057986262"><ele>817.0</ele><time>2026-04-06T12:33:19.999Z</time></trkpt><trkpt lat="46.42185189923123" lon="12.36679637143851"><ele>817.0</ele><time>2026-04-06T12:33:20.999Z</time></trkpt><trkpt lat="46.42194703816603" lon="12.366644459217293"><ele>817.0</ele><time>2026-04-06T12:33:21.999Z</time></trkpt><trkpt lat="46.42204444862225" lon="12.366479365870669"><ele>817.0</ele><time>2026-04-06T12:33:22.999Z</time></trkpt><trkpt lat="46.42214881810922" lon="12.366311339689446"><ele>817.0</ele><time>2026-04-06T12:33:23.999Z</time></trkpt><trkpt lat="46.42224690961456" lon="12.366153855212284"><ele>817.5</ele><time>2026-04-06T12:33:24.999Z</time></trkpt><trkpt lat="46.42234144450644" lon="12.366002985593342"><ele>818.0</ele><time>2026-04-06T12:33:25.999Z</time></trkpt><trkpt lat="46.42243155314821" lon="12.365857899147466"><ele>818.5</ele><time>2026-04-06T12:33:26.999Z</time></trkpt><trkpt lat="46.422515459835864" lon="12.365721534628257"><ele>819.0</ele><time>2026-04-06T12:33:27.999Z</time></trkpt><trkpt lat="46.42259618005351" lon="12.365603845228485"><ele>819.2</ele><time>2026-04-06T12:33:28.999Z</time></trkpt><trkpt lat="46.42267177348194" lon="12.365502581754662"><ele>819.4000000000001</ele><time>2026-04-06T12:33:29.999Z</time></trkpt><trkpt lat="46.422742560428055" lon="12.365412513970647"><ele>819.6</ele><time>2026-04-06T12:33:30.999Z</time></trkpt><trkpt lat="46.42282131806257" lon="12.365335701149572"><ele>819.8</ele><time>2026-04-06T12:33:31.999Z</time></trkpt><trkpt lat="46.42290895542847" lon="12.36529036575449"><ele>820.0</ele><time>2026-04-06T12:33:32.999Z</time></trkpt><trkpt lat="46.42300939034169" lon="12.365257950838107"><ele>820.0</ele><time>2026-04-06T12:33:33.999Z</time></trkpt><trkpt lat="46.423122407975576" lon="12.365230729873208"><ele>820.0</ele><time>2026-04-06T12:33:34.999Z</time></trkpt><trkpt lat="46.42324181069239" lon="12.365196546646862"><ele>820.0</ele><time>2026-04-06T12:33:35.999Z</time></trkpt><trkpt lat="46.42337090432805" lon="12.365148689121995"><ele>820.0</ele><time>2026-04-06T12:33:36.999Z</time></trkpt><trkpt lat="46.42350639504964" lon="12.36509769514919"><ele>820.0</ele><time>2026-04-06T12:33:37.999Z</time></trkpt><trkpt lat="46.42363537829765" lon="12.365048231650746"><ele>820.0</ele><time>2026-04-06T12:33:38.999Z</time></trkpt><trkpt lat="46.42375026754816" lon="12.365005006806912"><ele>820.0</ele><time>2026-04-06T12:33:39.999Z</time></trkpt><trkpt lat="46.42386374834237" lon="12.364964820631931"><ele>820.0</ele><time>2026-04-06T12:33:40.999Z</time></trkpt><trkpt lat="46.423975671089266" lon="12.364929101007627"><ele>820.75</ele><time>2026-04-06T12:33:41.999Z</time></trkpt><trkpt lat="46.42409533519878" lon="12.364899193782874"><ele>821.5</ele><time>2026-04-06T12:33:42.999Z</time></trkpt><trkpt lat="46.42421980035901" lon="12.364878191713156"><ele>822.25</ele><time>2026-04-06T12:33:43.999Z</time></trkpt><trkpt lat="46.424351489080074" lon="12.364874845817695"><ele>823.0</ele><time>2026-04-06T12:33:44.999Z</time></trkpt><trkpt lat="46.42448440064118" lon="12.364896876569931"><ele>823.0</ele><time>2026-04-06T12:33:45.999Z</time></trkpt><trkpt lat="46.42461381509238" lon="12.364939208660248"><ele>823.0</ele><time>2026-04-06T12:33:46.999Z</time></trkpt><trkpt lat="46.42474054652465" lon="12.36500348586143"><ele>823.0</ele><time>2026-04-06T12:33:47.999Z</time></trkpt><trkpt lat="46.424864471822374" lon="12.3651023072763"><ele>823.0</ele><time>2026-04-06T12:33:48.999Z</time></trkpt><trkpt lat="46.42498408623413" lon="12.365231764758637"><ele>824.6666666666666</ele><time>2026-04-06T12:33:49.999Z</time></trkpt><trkpt lat="46.42509522827045" lon="12.365385862695295"><ele>826.3333333333333</ele><time>2026-04-06T12:33:51Z</time></trkpt><trkpt lat="46.425193143023975" lon="12.365557789020013"><ele>828.0</ele><time>2026-04-06T12:33:52Z</time></trkpt><trkpt lat="46.42527908941694" lon="12.365749337344642"><ele>828.0</ele><time>2026-04-06T12:33:53Z</time></trkpt><trkpt lat="46.42532739353626" lon="12.36597561298472"><ele>828.0</ele><time>2026-04-06T12:33:54Z</time></trkpt><trkpt lat="46.42535732791298" lon="12.366212182942446"><ele>828.0</ele><time>2026-04-06T12:33:55Z</time></trkpt><trkpt lat="46.42534706123932" lon="12.366443332109208"><ele>830.0</ele><time>2026-04-06T12:33:56Z</time></trkpt><trkpt lat="46.4253233782005" lon="12.366664874757095"><ele>832.0</ele><time>2026-04-06T12:33:57Z</time></trkpt><trkpt lat="46.42529073165311" lon="12.366891023497159"><ele>834.0</ele><time>2026-04-06T12:33:58Z</time></trkpt><trkpt lat="46.42525292556829" lon="12.367085979273174"><ele>834.25</ele><time>2026-04-06T12:33:59Z</time></trkpt><trkpt lat="46.425212803588295" lon="12.367287549430994"><ele>834.5</ele><time>2026-04-06T12:34:00Z</time></trkpt><trkpt lat="46.42517178543631" lon="12.36749812677046"><ele>834.75</ele><time>2026-04-06T12:34:01Z</time></trkpt><trkpt lat="46.425133164267784" lon="12.367708153390353"><ele>835.0</ele><time>2026-04-06T12:34:02Z</time></trkpt><trkpt lat="46.42509132096938" lon="12.3679381188129"><ele>835.6666666666666</ele><time>2026-04-06T12:34:03.075Z</time></trkpt><trkpt lat="46.425051939491446" lon="12.368157774214158"><ele>836.3333333333333</ele><time>2026-04-06T12:34:04.062Z</time></trkpt><trkpt lat="46.42501474374986" lon="12.368388669225514"><ele>837.0</ele><time>2026-04-06T12:34:05.064Z</time></trkpt><trkpt lat="46.42498337920354" lon="12.368619771065589"><ele>836.6666666666667</ele><time>2026-04-06T12:34:06.064Z</time></trkpt><trkpt lat="46.424956952949806" lon="12.368872956246499"><ele>836.3333333333334</ele><time>2026-04-06T12:34:07.054Z</time></trkpt><trkpt lat="46.424944339040344" lon="12.369119908951127"><ele>836.0</ele><time>2026-04-06T12:34:08.037Z</time></trkpt><trkpt lat="46.42530204199818" lon="12.371991063338953"><ele>828.0</ele><time>2026-04-06T12:34:11.609Z</time></trkpt><trkpt lat="46.42502317688372" lon="12.370128869344875"><ele>828.0</ele><time>2026-04-06T12:34:13Z</time></trkpt><trkpt lat="46.4250188287709" lon="12.370332890710213"><ele>828.0</ele><time>2026-04-06T12:34:14Z</time></trkpt><trkpt lat="46.42503009469694" lon="12.370530738891908"><ele>828.0</ele><time>2026-04-06T12:34:15Z</time></trkpt><trkpt lat="46.42505727987448" lon="12.370727416178262"><ele>828.0</ele><time>2026-04-06T12:34:16Z</time></trkpt><trkpt lat="46.42508620353575" lon="12.370931831755906"><ele>827.0</ele><time>2026-04-06T12:34:17Z</time></trkpt><trkpt lat="46.42513124850579" lon="12.371144997277797"><ele>826.0</ele><time>2026-04-06T12:34:18Z</time></trkpt><trkpt lat="46.425163915623635" lon="12.371344856381516"><ele>825.0</ele><time>2026-04-06T12:34:19Z</time></trkpt><trkpt lat="46.42520009016587" lon="12.37154721664168"><ele>824.0</ele><time>2026-04-06T12:34:20Z</time></trkpt><trkpt lat="46.425224319015314" lon="12.371765589461644"><ele>824.0</ele><time>2026-04-06T12:34:21Z</time></trkpt><trkpt lat="46.42524952201852" lon="12.37197957933208"><ele>824.0</ele><time>2026-04-06T12:34:22Z</time></trkpt><trkpt lat="46.425271378831695" lon="12.372211499707515"><ele>824.0</ele><time>2026-04-06T12:34:23Z</time></trkpt><trkpt lat="46.425281848165696" lon="12.372470310463738"><ele>824.0</ele><time>2026-04-06T12:34:24Z</time></trkpt><trkpt lat="46.425325746759384" lon="12.372715743701376"><ele>824.0</ele><time>2026-04-06T12:34:25.078Z</time></trkpt><trkpt lat="46.42536778578952" lon="12.372940928507877"><ele>824.0</ele><time>2026-04-06T12:34:26.064Z</time></trkpt><trkpt lat="46.4254208666726" lon="12.373201080578005"><ele>827.5</ele><time>2026-04-06T12:34:27.065Z</time></trkpt><trkpt lat="46.42547287713208" lon="12.373440076027666"><ele>831.0</ele><time>2026-04-06T12:34:28.067Z</time></trkpt><trkpt lat="46.426693684084334" lon="12.375733750675325"><ele>895.0</ele><time>2026-04-06T12:34:31.609Z</time></trkpt><trkpt lat="46.42716532556405" lon="12.3763377089583"><ele>920.0</ele><time>2026-04-06T12:34:32.609Z</time></trkpt><trkpt lat="46.42764009401143" lon="12.376935735966248"><ele>923.0</ele><time>2026-04-06T12:34:33.609Z</time></trkpt><trkpt lat="46.4279722" lon="12.3773601"><ele>926.0</ele><time>2026-04-06T12:34:34.609Z</time></trkpt><trkpt lat="46.43025449063604" lon="12.379198176504191"><ele>878.5</ele><time>2026-04-06T12:35:00.999Z</time></trkpt><trkpt lat="46.430574505441406" lon="12.379434285657492"><ele>831.0</ele><time>2026-04-06T12:35:01.999Z</time></trkpt><trkpt lat="46.43075920253124" lon="12.379469224434983"><ele>831.0</ele><time>2026-04-06T12:35:02.999Z</time></trkpt><trkpt lat="46.43088823039383" lon="12.379537229824553"><ele>831.0</ele><time>2026-04-06T12:35:03.999Z</time></trkpt><trkpt lat="46.431031368944986" lon="12.37957030438484"><ele>831.0</ele><time>2026-04-06T12:35:04.999Z</time></trkpt><trkpt lat="46.43117746281098" lon="12.379600535838344"><ele>831.0</ele><time>2026-04-06T12:35:05.999Z</time></trkpt><trkpt lat="46.431321062079576" lon="12.379638134125157"><ele>835.6666666666667</ele><time>2026-04-06T12:35:06.999Z</time></trkpt><trkpt lat="46.4314804573527" lon="12.379673693422886"><ele>840.3333333333334</ele><time>2026-04-06T12:35:07.999Z</time></trkpt><trkpt lat="46.4316400890213" lon="12.379703800998028"><ele>845.0</ele><time>2026-04-06T12:35:08.999Z</time></trkpt><trkpt lat="46.43179921694885" lon="12.379725434730556"><ele>835.6666666666667</ele><time>2026-04-06T12:35:09.999Z</time></trkpt><trkpt lat="46.43196066737515" lon="12.379743827484239"><ele>826.3333333333333</ele><time>2026-04-06T12:35:10.999Z</time></trkpt><trkpt lat="46.43213255485254" lon="12.379751969391195"><ele>817.0</ele><time>2026-04-06T12:35:11.999Z</time></trkpt><trkpt lat="46.43231102576667" lon="12.379743552033055"><ele>814.3333333333333</ele><time>2026-04-06T12:35:12.999Z</time></trkpt><trkpt lat="46.43249184501318" lon="12.379725131196105"><ele>811.6666666666667</ele><time>2026-04-06T12:35:13.999Z</time></trkpt><trkpt lat="46.432674719476395" lon="12.379702692047013"><ele>809.0</ele><time>2026-04-06T12:35:14.999Z</time></trkpt><trkpt lat="46.43286298573363" lon="12.379666442825178"><ele>815.6666666666667</ele><time>2026-04-06T12:35:15.999Z</time></trkpt><trkpt lat="46.43306134604811" lon="12.379612462291902"><ele>822.3333333333333</ele><time>2026-04-06T12:35:16.999Z</time></trkpt><trkpt lat="46.433261224782605" lon="12.379546819975268"><ele>829.0</ele><time>2026-04-06T12:35:17.999Z</time></trkpt><trkpt lat="46.4334570793626" lon="12.379469212698316"><ele>829.0</ele><time>2026-04-06T12:35:18.999Z</time></trkpt><trkpt lat="46.43364474970334" lon="12.379378385242548"><ele>829.0</ele><time>2026-04-06T12:35:19.999Z</time></trkpt><trkpt lat="46.43381977942152" lon="12.379282691013868"><ele>829.0</ele><time>2026-04-06T12:35:20.999Z</time></trkpt><trkpt lat="46.43398049628728" lon="12.379183171125712"><ele>824.0</ele><time>2026-04-06T12:35:21.999Z</time></trkpt><trkpt lat="46.434127986268365" lon="12.379077890058682"><ele>819.0</ele><time>2026-04-06T12:35:22.999Z</time></trkpt><trkpt lat="46.43427154867724" lon="12.378970431846676"><ele>814.0</ele><time>2026-04-06T12:35:23.999Z</time></trkpt><trkpt lat="46.43441388093085" lon="12.378861867698621"><ele>818.3333333333333</ele><time>2026-04-06T12:35:24.999Z</time></trkpt><trkpt lat="46.43455639922529" lon="12.378759226828578"><ele>822.6666666666667</ele><time>2026-04-06T12:35:25.999Z</time></trkpt><trkpt lat="46.43469553010565" lon="12.378663879069514"><ele>827.0</ele><time>2026-04-06T12:35:26.999Z</time></trkpt><trkpt lat="46.43483320221972" lon="12.378583482327597"><ele>827.0</ele><time>2026-04-06T12:35:27.999Z</time></trkpt><trkpt lat="46.43497398596941" lon="12.378532447220435"><ele>827.0</ele><time>2026-04-06T12:35:28.999Z</time></trkpt><trkpt lat="46.43512290672185" lon="12.378504987797685"><ele>827.0</ele><time>2026-04-06T12:35:29.999Z</time></trkpt><trkpt lat="46.435271115516954" lon="12.378504267419798"><ele>827.0</ele><time>2026-04-06T12:35:30.999Z</time></trkpt><trkpt lat="46.43541606219467" lon="12.378541638424728"><ele>825.0</ele><time>2026-04-06T12:35:31.999Z</time></trkpt><trkpt lat="46.43554861764508" lon="12.378616227602777"><ele>823.0</ele><time>2026-04-06T12:35:32.999Z</time></trkpt><trkpt lat="46.43566602814417" lon="12.378702258756654"><ele>821.0</ele><time>2026-04-06T12:35:33.999Z</time></trkpt><trkpt lat="46.435759053238954" lon="12.378796189175207"><ele>819.0</ele><time>2026-04-06T12:35:34.999Z</time></trkpt><trkpt lat="46.435835656472406" lon="12.378879888477496"><ele>817.0</ele><time>2026-04-06T12:35:35.999Z</time></trkpt><trkpt lat="46.43588591295993" lon="12.378943385680468"><ele>815.0</ele><time>2026-04-06T12:35:36.999Z</time></trkpt><trkpt lat="46.43596410750934" lon="12.379046621535068"><ele>813.0</ele><time>2026-04-06T12:35:38.999Z</time></trkpt><trkpt lat="46.43602815016167" lon="12.379128736464189"><ele>811.0</ele><time>2026-04-06T12:35:41.999Z</time></trkpt><trkpt lat="46.43607960179035" lon="12.379191976837337"><ele>809.0</ele><time>2026-04-06T12:35:42.999Z</time></trkpt><trkpt lat="46.43613856728721" lon="12.37927900361189"><ele>807.0</ele><time>2026-04-06T12:35:43.999Z</time></trkpt><trkpt lat="46.43617464550342" lon="12.379367758250439"><ele>807.0000000000001</ele><time>2026-04-06T12:35:44.999Z</time></trkpt><trkpt lat="46.43619593898118" lon="12.379459553215224"><ele>807.0</ele><time>2026-04-06T12:35:45.999Z</time></trkpt><trkpt lat="46.436218341579114" lon="12.37956429673673"><ele>807.0</ele><time>2026-04-06T12:35:46.999Z</time></trkpt><trkpt lat="46.43625211689186" lon="12.37966403771061"><ele>807.0</ele><time>2026-04-06T12:35:47.999Z</time></trkpt><trkpt lat="46.4363014701885" lon="12.37974377895257"><ele>807.0</ele><time>2026-04-06T12:35:48.999Z</time></trkpt><trkpt lat="46.43636514558804" lon="12.37980151640742"><ele>807.0000000000001</ele><time>2026-04-06T12:35:49.999Z</time></trkpt><trkpt lat="46.43644177848825" lon="12.3798271577493"><ele>807.0</ele><time>2026-04-06T12:35:50.999Z</time></trkpt><trkpt lat="46.43652655266177" lon="12.379820168490413"><ele>807.4000000000001</ele><time>2026-04-06T12:35:51.999Z</time></trkpt><trkpt lat="46.43661399338567" lon="12.379790817028413"><ele>807.8000000000001</ele><time>2026-04-06T12:35:52.999Z</time></trkpt><trkpt lat="46.43670462130366" lon="12.379754076889823"><ele>808.2</ele><time>2026-04-06T12:35:53.999Z</time></trkpt><trkpt lat="46.43680036813715" lon="12.37973583799294"><ele>808.6</ele><time>2026-04-06T12:35:54.999Z</time></trkpt><trkpt lat="46.4369059172865" lon="12.37974203302371"><ele>809.0</ele><time>2026-04-06T12:35:55.999Z</time></trkpt><trkpt lat="46.43701163656404" lon="12.379764550082077"><ele>809.0</ele><time>2026-04-06T12:35:57Z</time></trkpt><trkpt lat="46.4371156478838" lon="12.379809828286254"><ele>809.0</ele><time>2026-04-06T12:35:58Z</time></trkpt><trkpt lat="46.437225145169016" lon="12.379858152985575"><ele>809.0</ele><time>2026-04-06T12:35:59Z</time></trkpt><trkpt lat="46.43733699445564" lon="12.379911813776307"><ele>809.0</ele><time>2026-04-06T12:36:00Z</time></trkpt><trkpt lat="46.43744908401558" lon="12.379966870389852"><ele>809.75</ele><time>2026-04-06T12:36:01Z</time></trkpt><trkpt lat="46.437564298544835" lon="12.380016543568244"><ele>810.5</ele><time>2026-04-06T12:36:02Z</time></trkpt><trkpt lat="46.437681313328724" lon="12.380066229874325"><ele>811.25</ele><time>2026-04-06T12:36:03Z</time></trkpt><trkpt lat="46.437799201318846" lon="12.380109023470135"><ele>812.0</ele><time>2026-04-06T12:36:04Z</time></trkpt><trkpt lat="46.437920391414366" lon="12.380143722620723"><ele>811.75</ele><time>2026-04-06T12:36:05Z</time></trkpt><trkpt lat="46.43804731366404" lon="12.380174945497753"><ele>811.5</ele><time>2026-04-06T12:36:06Z</time></trkpt><trkpt lat="46.43818033718885" lon="12.380203068434513"><ele>811.25</ele><time>2026-04-06T12:36:07Z</time></trkpt><trkpt lat="46.43831860774958" lon="12.380218921280266"><ele>811.0</ele><time>2026-04-06T12:36:08Z</time></trkpt><trkpt lat="46.43845735067767" lon="12.380226586356702"><ele>811.0</ele><time>2026-04-06T12:36:09Z</time></trkpt><trkpt lat="46.43858598730864" lon="12.380223834576995"><ele>811.0</ele><time>2026-04-06T12:36:10Z</time></trkpt><trkpt lat="46.43871601319426" lon="12.380210830441198"><ele>811.0</ele><time>2026-04-06T12:36:11Z</time></trkpt><trkpt lat="46.43884967215053" lon="12.380190130582578"><ele>811.0</ele><time>2026-04-06T12:36:12Z</time></trkpt><trkpt lat="46.43898753672129" lon="12.380165606135604"><ele>810.25</ele><time>2026-04-06T12:36:13Z</time></trkpt><trkpt lat="46.43911183861398" lon="12.38014541901652"><ele>809.5</ele><time>2026-04-06T12:36:14Z</time></trkpt><trkpt lat="46.43922586031206" lon="12.380126805121563"><ele>808.75</ele><time>2026-04-06T12:36:15Z</time></trkpt><trkpt lat="46.43933473952019" lon="12.380113443765884"><ele>808.0</ele><time>2026-04-06T12:36:16Z</time></trkpt><trkpt lat="46.439448864339916" lon="12.380102435688988"><ele>808.0</ele><time>2026-04-06T12:36:17Z</time></trkpt><trkpt lat="46.439555419461314" lon="12.380099706595422"><ele>808.0</ele><time>2026-04-06T12:36:18Z</time></trkpt><trkpt lat="46.43966402320227" lon="12.380111609416257"><ele>808.0</ele><time>2026-04-06T12:36:19Z</time></trkpt><trkpt lat="46.43977665508771" lon="12.380141597058113"><ele>808.0</ele><time>2026-04-06T12:36:20Z</time></trkpt><trkpt lat="46.43989060290657" lon="12.380188349973661"><ele>808.0</ele><time>2026-04-06T12:36:21Z</time></trkpt><trkpt lat="46.44000789201882" lon="12.380245936354862"><ele>807.25</ele><time>2026-04-06T12:36:22Z</time></trkpt><trkpt lat="46.4401290177583" lon="12.380307076605428"><ele>806.5</ele><time>2026-04-06T12:36:23Z</time></trkpt><trkpt lat="46.44025035951777" lon="12.38037079089073"><ele>805.75</ele><time>2026-04-06T12:36:24Z</time></trkpt><trkpt lat="46.44037261789992" lon="12.380434837134487"><ele>805.0</ele><time>2026-04-06T12:36:25Z</time></trkpt><trkpt lat="46.4404882712387" lon="12.380498003360135"><ele>799.5</ele><time>2026-04-06T12:36:26Z</time></trkpt><trkpt lat="46.44060516540887" lon="12.380563360195678"><ele>794.0</ele><time>2026-04-06T12:36:27Z</time></trkpt><trkpt lat="46.44072013476854" lon="12.38063544562075"><ele>788.5</ele><time>2026-04-06T12:36:28Z</time></trkpt><trkpt lat="46.440830932411984" lon="12.380718349704933"><ele>783.0</ele><time>2026-04-06T12:36:29Z</time></trkpt><trkpt lat="46.44094997082359" lon="12.380786225780826"><ele>783.0</ele><time>2026-04-06T12:36:30Z</time></trkpt><trkpt lat="46.44107377491929" lon="12.380847756743366"><ele>783.0</ele><time>2026-04-06T12:36:31Z</time></trkpt><trkpt lat="46.4411943651065" lon="12.380908419807993"><ele>783.0</ele><time>2026-04-06T12:36:32Z</time></trkpt><trkpt lat="46.44131909891026" lon="12.380980904726233"><ele>783.0</ele><time>2026-04-06T12:36:33Z</time></trkpt><trkpt lat="46.44144243303772" lon="12.381067700663001"><ele>784.0</ele><time>2026-04-06T12:36:34Z</time></trkpt><trkpt lat="46.44155955721488" lon="12.381186723964106"><ele>785.0</ele><time>2026-04-06T12:36:35Z</time></trkpt><trkpt lat="46.44167257787867" lon="12.381312626998016"><ele>786.0</ele><time>2026-04-06T12:36:36Z</time></trkpt><trkpt lat="46.44179148036281" lon="12.381436114707594"><ele>787.0</ele><time>2026-04-06T12:36:37Z</time></trkpt><trkpt lat="46.44189869941846" lon="12.381557901007392"><ele>786.5</ele><time>2026-04-06T12:36:38Z</time></trkpt><trkpt lat="46.44199759922136" lon="12.381678189781509"><ele>786.0</ele><time>2026-04-06T12:36:39Z</time></trkpt><trkpt lat="46.442101246183896" lon="12.381807754274714"><ele>785.5</ele><time>2026-04-06T12:36:40Z</time></trkpt><trkpt lat="46.44220352475427" lon="12.381937267620133"><ele>785.0</ele><time>2026-04-06T12:36:41Z</time></trkpt><trkpt lat="46.44229981571104" lon="12.38206743471004"><ele>782.5</ele><time>2026-04-06T12:36:42Z</time></trkpt><trkpt lat="46.44238183569148" lon="12.382205584076482"><ele>780.0</ele><time>2026-04-06T12:36:43Z</time></trkpt><trkpt lat="46.44246256526441" lon="12.382374102622533"><ele>777.5</ele><time>2026-04-06T12:36:44Z</time></trkpt><trkpt lat="46.44253251668722" lon="12.382548489697756"><ele>775.0</ele><time>2026-04-06T12:36:45Z</time></trkpt><trkpt lat="46.442599357677324" lon="12.382720405977096"><ele>775.0</ele><time>2026-04-06T12:36:46Z</time></trkpt><trkpt lat="46.44266717534113" lon="12.382885960299499"><ele>775.0</ele><time>2026-04-06T12:36:47Z</time></trkpt><trkpt lat="46.44273504640833" lon="12.38304921213384"><ele>775.0</ele><time>2026-04-06T12:36:48Z</time></trkpt><trkpt lat="46.442810020850786" lon="12.383208386345677"><ele>775.0</ele><time>2026-04-06T12:36:49Z</time></trkpt><trkpt lat="46.44289327468971" lon="12.383361840725783"><ele>774.5</ele><time>2026-04-06T12:36:50Z</time></trkpt><trkpt lat="46.44298144411324" lon="12.383515366548796"><ele>774.0</ele><time>2026-04-06T12:36:51Z</time></trkpt><trkpt lat="46.44307398370741" lon="12.383667047882332"><ele>773.5</ele><time>2026-04-06T12:36:52Z</time></trkpt><trkpt lat="46.443168501210025" lon="12.383817127857595"><ele>773.0</ele><time>2026-04-06T12:36:53Z</time></trkpt><trkpt lat="46.4432646966141" lon="12.383972663115404"><ele>773.0</ele><time>2026-04-06T12:36:54Z</time></trkpt><trkpt lat="46.44336113109485" lon="12.384127928305281"><ele>773.0</ele><time>2026-04-06T12:36:55Z</time></trkpt><trkpt lat="46.4434515064386" lon="12.384266618423615"><ele>773.0</ele><time>2026-04-06T12:36:56Z</time></trkpt><trkpt lat="46.44354271856128" lon="12.384406361174378"><ele>773.0</ele><time>2026-04-06T12:36:57Z</time></trkpt><trkpt lat="46.44363749412662" lon="12.384554503433668"><ele>772.25</ele><time>2026-04-06T12:36:57.999Z</time></trkpt><trkpt lat="46.44372571806716" lon="12.384692133720522"><ele>771.5</ele><time>2026-04-06T12:36:58.999Z</time></trkpt><trkpt lat="46.44381083400583" lon="12.384820927543442"><ele>770.75</ele><time>2026-04-06T12:36:59.999Z</time></trkpt><trkpt lat="46.44389766675032" lon="12.384956002442328"><ele>770.0</ele><time>2026-04-06T12:37:00.999Z</time></trkpt><trkpt lat="46.44398562786328" lon="12.38509192659621"><ele>770.0</ele><time>2026-04-06T12:37:01.999Z</time></trkpt><trkpt lat="46.44407825200047" lon="12.38521783270693"><ele>770.0</ele><time>2026-04-06T12:37:02.999Z</time></trkpt><trkpt lat="46.444177957834476" lon="12.38532987089557"><ele>770.0</ele><time>2026-04-06T12:37:03.999Z</time></trkpt><trkpt lat="46.44428506677913" lon="12.385428903755974"><ele>770.0</ele><time>2026-04-06T12:37:04.999Z</time></trkpt><trkpt lat="46.444400563621315" lon="12.385518016016427"><ele>769.75</ele><time>2026-04-06T12:37:05.999Z</time></trkpt><trkpt lat="46.44452144846881" lon="12.385616378544348"><ele>769.5</ele><time>2026-04-06T12:37:06.999Z</time></trkpt><trkpt lat="46.44464557382213" lon="12.38571804830779"><ele>769.25</ele><time>2026-04-06T12:37:07.999Z</time></trkpt><trkpt lat="46.44477659698838" lon="12.38581644398035"><ele>769.0</ele><time>2026-04-06T12:37:08.999Z</time></trkpt><trkpt lat="46.44490596640622" lon="12.385897238229715"><ele>768.0</ele><time>2026-04-06T12:37:09.999Z</time></trkpt><trkpt lat="46.44503242495591" lon="12.385957855866549"><ele>767.0</ele><time>2026-04-06T12:37:10.999Z</time></trkpt><trkpt lat="46.44515258250726" lon="12.386000989802051"><ele>766.0</ele><time>2026-04-06T12:37:11.999Z</time></trkpt><trkpt lat="46.445268703844526" lon="12.386036570215294"><ele>765.0</ele><time>2026-04-06T12:37:12.999Z</time></trkpt><trkpt lat="46.445379611870656" lon="12.386070444818092"><ele>765.2</ele><time>2026-04-06T12:37:13.999Z</time></trkpt><trkpt lat="46.44548519528076" lon="12.386099763818844"><ele>765.4</ele><time>2026-04-06T12:37:14.999Z</time></trkpt><trkpt lat="46.4455880704514" lon="12.386129599482048"><ele>765.5999999999999</ele><time>2026-04-06T12:37:15.999Z</time></trkpt><trkpt lat="46.44569471014214" lon="12.386167883992034"><ele>765.8</ele><time>2026-04-06T12:37:16.999Z</time></trkpt><trkpt lat="46.445796816546014" lon="12.386223834826344"><ele>766.0</ele><time>2026-04-06T12:37:17.999Z</time></trkpt><trkpt lat="46.445890482331656" lon="12.386306104624992"><ele>763.75</ele><time>2026-04-06T12:37:18.999Z</time></trkpt><trkpt lat="46.44597637000927" lon="12.38641448169153"><ele>761.5</ele><time>2026-04-06T12:37:19.999Z</time></trkpt><trkpt lat="46.44605177952586" lon="12.386548307274"><ele>759.25</ele><time>2026-04-06T12:37:20.999Z</time></trkpt><trkpt lat="46.446124165306976" lon="12.386693899026188"><ele>757.0</ele><time>2026-04-06T12:37:21.999Z</time></trkpt><trkpt lat="46.44619963718695" lon="12.386841531628408"><ele>757.0</ele><time>2026-04-06T12:37:22.999Z</time></trkpt><trkpt lat="46.44626270909584" lon="12.386979077844368"><ele>757.0</ele><time>2026-04-06T12:37:23.999Z</time></trkpt><trkpt lat="46.446323430406615" lon="12.387107387906877"><ele>757.0</ele><time>2026-04-06T12:37:24.999Z</time></trkpt><trkpt lat="46.44638151678046" lon="12.387228037339643"><ele>757.0</ele><time>2026-04-06T12:37:25.999Z</time></trkpt><trkpt lat="46.446434859025025" lon="12.387347177410282"><ele>757.0</ele><time>2026-04-06T12:37:26.999Z</time></trkpt><trkpt lat="46.44648645989381" lon="12.387466194027336"><ele>756.5</ele><time>2026-04-06T12:37:27.999Z</time></trkpt><trkpt lat="46.446555844703646" lon="12.387575568197914"><ele>756.0</ele><time>2026-04-06T12:37:28.999Z</time></trkpt><trkpt lat="46.446648875814475" lon="12.387653384235161"><ele>755.5</ele><time>2026-04-06T12:37:29.999Z</time></trkpt><trkpt lat="46.44676171699165" lon="12.38770568602485"><ele>755.0</ele><time>2026-04-06T12:37:30.999Z</time></trkpt><trkpt lat="46.44688626029166" lon="12.387735520423302"><ele>755.0</ele><time>2026-04-06T12:37:31.999Z</time></trkpt><trkpt lat="46.44702350271275" lon="12.387749150202083"><ele>755.0</ele><time>2026-04-06T12:37:32.999Z</time></trkpt><trkpt lat="46.44717187837767" lon="12.387757106891158"><ele>755.0</ele><time>2026-04-06T12:37:33.999Z</time></trkpt><trkpt lat="46.44733250912686" lon="12.387760622014806"><ele>755.0</ele><time>2026-04-06T12:37:34.999Z</time></trkpt><trkpt lat="46.44750217305191" lon="12.387754900711291"><ele>755.75</ele><time>2026-04-06T12:37:35.999Z</time></trkpt><trkpt lat="46.44766355831632" lon="12.387744603739572"><ele>756.5</ele><time>2026-04-06T12:37:36.999Z</time></trkpt><trkpt lat="46.447811216514864" lon="12.387735312022532"><ele>757.25</ele><time>2026-04-06T12:37:37.999Z</time></trkpt><trkpt lat="46.44794397980767" lon="12.387723427523051"><ele>758.0</ele><time>2026-04-06T12:37:38.999Z</time></trkpt><trkpt lat="46.44806133351812" lon="12.387699712967477"><ele>756.0</ele><time>2026-04-06T12:37:39.999Z</time></trkpt><trkpt lat="46.44816623637874" lon="12.387642455821842"><ele>754.0</ele><time>2026-04-06T12:37:40.999Z</time></trkpt><trkpt lat="46.448263214863395" lon="12.387570931426692"><ele>752.0</ele><time>2026-04-06T12:37:41.999Z</time></trkpt><trkpt lat="46.448366577819534" lon="12.387526761473929"><ele>750.0</ele><time>2026-04-06T12:37:42.999Z</time></trkpt><trkpt lat="46.44848333607178" lon="12.387518763862865"><ele>748.0</ele><time>2026-04-06T12:37:43.999Z</time></trkpt><trkpt lat="46.44860614246852" lon="12.387573453551441"><ele>748.0</ele><time>2026-04-06T12:37:44.999Z</time></trkpt><trkpt lat="46.44871834510889" lon="12.387655713459004"><ele>748.0</ele><time>2026-04-06T12:37:45.999Z</time></trkpt><trkpt lat="46.448819629024584" lon="12.387759994631274"><ele>748.0</ele><time>2026-04-06T12:37:46.999Z</time></trkpt><trkpt lat="46.44891270807358" lon="12.387882180344699"><ele>748.0</ele><time>2026-04-06T12:37:47.999Z</time></trkpt><trkpt lat="46.44899044799694" lon="12.38801038610527"><ele>748.5999999999999</ele><time>2026-04-06T12:37:48.999Z</time></trkpt><trkpt lat="46.44904590140631" lon="12.388147399719006"><ele>749.1999999999999</ele><time>2026-04-06T12:37:49.999Z</time></trkpt><trkpt lat="46.44907476516693" lon="12.388300636981134"><ele>749.8</ele><time>2026-04-06T12:37:50.999Z</time></trkpt><trkpt lat="46.44907170805247" lon="12.388454450452596"><ele>750.4</ele><time>2026-04-06T12:37:51.999Z</time></trkpt><trkpt lat="46.44904198307383" lon="12.38859458740922"><ele>751.0</ele><time>2026-04-06T12:37:52.999Z</time></trkpt><trkpt lat="46.44899003454448" lon="12.388712662504576"><ele>751.0</ele><time>2026-04-06T12:37:53.999Z</time></trkpt><trkpt lat="46.448925444524846" lon="12.388818278397114"><ele>751.0</ele><time>2026-04-06T12:37:54.999Z</time></trkpt><trkpt lat="46.44884837627031" lon="12.388911094072508"><ele>751.0</ele><time>2026-04-06T12:37:55.999Z</time></trkpt><trkpt lat="46.4487481859829" lon="12.38896477588514"><ele>751.0</ele><time>2026-04-06T12:37:56.999Z</time></trkpt><trkpt lat="46.44865548422497" lon="12.389070741701005"><ele>751.0</ele><time>2026-04-06T12:37:57.999Z</time></trkpt><trkpt lat="46.44855508672511" lon="12.389180657439143"><ele>751.5</ele><time>2026-04-06T12:37:58.999Z</time></trkpt><trkpt lat="46.44846574912316" lon="12.38930858528845"><ele>752.0</ele><time>2026-04-06T12:37:59.999Z</time></trkpt><trkpt lat="46.448390983404494" lon="12.389448510967528"><ele>752.5</ele><time>2026-04-06T12:38:00.999Z</time></trkpt><trkpt lat="46.44833736423341" lon="12.389606827869759"><ele>753.0</ele><time>2026-04-06T12:38:01.999Z</time></trkpt><trkpt lat="46.44829543981826" lon="12.389784439593013"><ele>753.0</ele><time>2026-04-06T12:38:03Z</time></trkpt><trkpt lat="46.448268541947414" lon="12.38998337521266"><ele>753.0</ele><time>2026-04-06T12:38:04Z</time></trkpt><trkpt lat="46.44824326919558" lon="12.390199626315518"><ele>753.0</ele><time>2026-04-06T12:38:05Z</time></trkpt><trkpt lat="46.44821481805321" lon="12.39041116272531"><ele>753.0</ele><time>2026-04-06T12:38:06Z</time></trkpt><trkpt lat="46.44819107656263" lon="12.390593798072263"><ele>755.0</ele><time>2026-04-06T12:38:07Z</time></trkpt><trkpt lat="46.4481661693337" lon="12.39077110343147"><ele>757.0</ele><time>2026-04-06T12:38:08Z</time></trkpt><trkpt lat="46.44814063381656" lon="12.390950379748753"><ele>759.0</ele><time>2026-04-06T12:38:09Z</time></trkpt><trkpt lat="46.44811604779803" lon="12.391126255630311"><ele>761.0</ele><time>2026-04-06T12:38:10Z</time></trkpt><trkpt lat="46.44809679269989" lon="12.391302059797905"><ele>760.75</ele><time>2026-04-06T12:38:11Z</time></trkpt><trkpt lat="46.44809012842145" lon="12.391478384531263"><ele>760.5</ele><time>2026-04-06T12:38:12Z</time></trkpt><trkpt lat="46.44810141321212" lon="12.391655418367892"><ele>760.25</ele><time>2026-04-06T12:38:13Z</time></trkpt><trkpt lat="46.44813125272763" lon="12.391836887516607"><ele>760.0</ele><time>2026-04-06T12:38:14Z</time></trkpt><trkpt lat="46.44817105161691" lon="12.392029648557116"><ele>759.0</ele><time>2026-04-06T12:38:15Z</time></trkpt><trkpt lat="46.44821495190101" lon="12.392236830677271"><ele>758.0</ele><time>2026-04-06T12:38:16Z</time></trkpt><trkpt lat="46.4482603314434" lon="12.39245754147522"><ele>757.0</ele><time>2026-04-06T12:38:17Z</time></trkpt><trkpt lat="46.448302033303904" lon="12.392665989512105"><ele>757.0</ele><time>2026-04-06T12:38:18Z</time></trkpt><trkpt lat="46.448340838834035" lon="12.392863202774706"><ele>757.0</ele><time>2026-04-06T12:38:19Z</time></trkpt><trkpt lat="46.44837439740065" lon="12.393051222690971"><ele>757.0</ele><time>2026-04-06T12:38:20Z</time></trkpt><trkpt lat="46.448411690977444" lon="12.393234394094952"><ele>757.0</ele><time>2026-04-06T12:38:21Z</time></trkpt><trkpt lat="46.44844764607584" lon="12.393415821285865"><ele>755.75</ele><time>2026-04-06T12:38:22Z</time></trkpt><trkpt lat="46.448481883967304" lon="12.393595390975811"><ele>754.5</ele><time>2026-04-06T12:38:23Z</time></trkpt><trkpt lat="46.44851612134449" lon="12.393774950725108"><ele>753.25</ele><time>2026-04-06T12:38:24Z</time></trkpt><trkpt lat="46.44855157133663" lon="12.393952151733567"><ele>752.0</ele><time>2026-04-06T12:38:25Z</time></trkpt><trkpt lat="46.44858748085815" lon="12.394132618680931"><ele>751.0</ele><time>2026-04-06T12:38:26Z</time></trkpt><trkpt lat="46.448623585179725" lon="12.39431712404112"><ele>750.0</ele><time>2026-04-06T12:38:27Z</time></trkpt><trkpt lat="46.44865992499399" lon="12.394504333532042"><ele>749.0</ele><time>2026-04-06T12:38:28Z</time></trkpt><trkpt lat="46.44869231476634" lon="12.394689241623693"><ele>748.0</ele><time>2026-04-06T12:38:29Z</time></trkpt><trkpt lat="46.448724314394745" lon="12.394862554928967"><ele>749.0</ele><time>2026-04-06T12:38:30Z</time></trkpt><trkpt lat="46.448756916475524" lon="12.395026884708322"><ele>750.0</ele><time>2026-04-06T12:38:31Z</time></trkpt><trkpt lat="46.44879062059752" lon="12.395197148351384"><ele>751.0</ele><time>2026-04-06T12:38:32Z</time></trkpt><trkpt lat="46.44882359659686" lon="12.395372572820884"><ele>752.0</ele><time>2026-04-06T12:38:33Z</time></trkpt><trkpt lat="46.44885657647187" lon="12.395551829933796"><ele>752.0</ele><time>2026-04-06T12:38:34Z</time></trkpt><trkpt lat="46.448892335499785" lon="12.39573445329344"><ele>752.0</ele><time>2026-04-06T12:38:35Z</time></trkpt><trkpt lat="46.44892991956153" lon="12.395921104087833"><ele>752.0</ele><time>2026-04-06T12:38:36Z</time></trkpt><trkpt lat="46.448971428250694" lon="12.396105871783336"><ele>752.0</ele><time>2026-04-06T12:38:37Z</time></trkpt><trkpt lat="46.44902056351779" lon="12.39628469081727"><ele>750.5</ele><time>2026-04-06T12:38:38Z</time></trkpt><trkpt lat="46.4490809572836" lon="12.396455496979407"><ele>749.0</ele><time>2026-04-06T12:38:39Z</time></trkpt><trkpt lat="46.449159055828595" lon="12.396607808936514"><ele>747.5</ele><time>2026-04-06T12:38:40Z</time></trkpt><trkpt lat="46.44925212289691" lon="12.396740494775015"><ele>746.0</ele><time>2026-04-06T12:38:41Z</time></trkpt><trkpt lat="46.449356541552014" lon="12.396853705104597"><ele>746.0</ele><time>2026-04-06T12:38:42Z</time></trkpt><trkpt lat="46.44946549063068" lon="12.396954632437222"><ele>746.0</ele><time>2026-04-06T12:38:43Z</time></trkpt><trkpt lat="46.44957864478645" lon="12.397049797383495"><ele>746.0</ele><time>2026-04-06T12:38:44Z</time></trkpt><trkpt lat="46.4496968581959" lon="12.397147793561334"><ele>746.0</ele><time>2026-04-06T12:38:45Z</time></trkpt><trkpt lat="46.4498160151259" lon="12.397247727617744"><ele>744.5</ele><time>2026-04-06T12:38:46Z</time></trkpt><trkpt lat="46.449941435105536" lon="12.397342839528074"><ele>743.0</ele><time>2026-04-06T12:38:47Z</time></trkpt><trkpt lat="46.45007223313015" lon="12.397428946120112"><ele>741.5</ele><time>2026-04-06T12:38:48Z</time></trkpt><trkpt lat="46.45020999702936" lon="12.397500582177381"><ele>740.0</ele><time>2026-04-06T12:38:49Z</time></trkpt><trkpt lat="46.45034936758403" lon="12.397570424052779"><ele>742.25</ele><time>2026-04-06T12:38:50Z</time></trkpt><trkpt lat="46.45048269475069" lon="12.397645043919239"><ele>744.5</ele><time>2026-04-06T12:38:51Z</time></trkpt><trkpt lat="46.450609355229915" lon="12.39772195627289"><ele>746.75</ele><time>2026-04-06T12:38:52Z</time></trkpt><trkpt lat="46.45072734760812" lon="12.397810715137021"><ele>749.0</ele><time>2026-04-06T12:38:53Z</time></trkpt><trkpt lat="46.4508360389469" lon="12.39791863045611"><ele>745.25</ele><time>2026-04-06T12:38:54Z</time></trkpt><trkpt lat="46.45093492642801" lon="12.398042438291617"><ele>741.5</ele><time>2026-04-06T12:38:55Z</time></trkpt><trkpt lat="46.451021103402425" lon="12.398181783138787"><ele>737.75</ele><time>2026-04-06T12:38:56Z</time></trkpt><trkpt lat="46.45109865944742" lon="12.39833607378367"><ele>734.0</ele><time>2026-04-06T12:38:57Z</time></trkpt><trkpt lat="46.451176183250006" lon="12.398489385532205"><ele>734.0</ele><time>2026-04-06T12:38:58Z</time></trkpt><trkpt lat="46.45125668089898" lon="12.398643000700249"><ele>734.0</ele><time>2026-04-06T12:38:59Z</time></trkpt><trkpt lat="46.45135225581064" lon="12.398780291816644"><ele>734.0</ele><time>2026-04-06T12:38:59.999Z</time></trkpt><trkpt lat="46.451469039229366" lon="12.398889661088047"><ele>734.0</ele><time>2026-04-06T12:39:00.999Z</time></trkpt><trkpt lat="46.45159087240233" lon="12.398990443870446"><ele>735.25</ele><time>2026-04-06T12:39:01.999Z</time></trkpt><trkpt lat="46.45170726324239" lon="12.399070948747042"><ele>736.5</ele><time>2026-04-06T12:39:02.999Z</time></trkpt><trkpt lat="46.451823182633" lon="12.399135672060348"><ele>737.75</ele><time>2026-04-06T12:39:03.999Z</time></trkpt><trkpt lat="46.451928078099264" lon="12.399199252483484"><ele>739.0</ele><time>2026-04-06T12:39:04.999Z</time></trkpt><trkpt lat="46.452026097346895" lon="12.399249568624843"><ele>739.0</ele><time>2026-04-06T12:39:05.999Z</time></trkpt><trkpt lat="46.45212136954354" lon="12.39926759860967"><ele>739.0</ele><time>2026-04-06T12:39:06.999Z</time></trkpt><trkpt lat="46.45221385824933" lon="12.399254667709808"><ele>739.0</ele><time>2026-04-06T12:39:07.999Z</time></trkpt><trkpt lat="46.452306531940685" lon="12.399208014205344"><ele>739.0</ele><time>2026-04-06T12:39:08.999Z</time></trkpt><trkpt lat="46.45238909610817" lon="12.399141895004394"><ele>739.0</ele><time>2026-04-06T12:39:09.999Z</time></trkpt><trkpt lat="46.45246817099063" lon="12.39907104026584"><ele>740.0</ele><time>2026-04-06T12:39:10.999Z</time></trkpt><trkpt lat="46.452543531194635" lon="12.399017086644143"><ele>741.0</ele><time>2026-04-06T12:39:11.999Z</time></trkpt><trkpt lat="46.45261490699933" lon="12.399002975342983"><ele>742.0</ele><time>2026-04-06T12:39:12.999Z</time></trkpt><trkpt lat="46.452705350902804" lon="12.399036842653535"><ele>743.0</ele><time>2026-04-06T12:39:13.999Z</time></trkpt><trkpt lat="46.452788013986634" lon="12.399110772818164"><ele>744.0</ele><time>2026-04-06T12:39:14.999Z</time></trkpt><trkpt lat="46.45287339212802" lon="12.39921529574355"><ele>746.25</ele><time>2026-04-06T12:39:15.999Z</time></trkpt><trkpt lat="46.4529582123992" lon="12.399344394868375"><ele>748.5</ele><time>2026-04-06T12:39:16.999Z</time></trkpt><trkpt lat="46.453021299330835" lon="12.39948779949172"><ele>750.75</ele><time>2026-04-06T12:39:17.999Z</time></trkpt><trkpt lat="46.45307720629363" lon="12.399621500406349"><ele>753.0</ele><time>2026-04-06T12:39:18.999Z</time></trkpt><trkpt lat="46.453131446921184" lon="12.399748274847436"><ele>753.5</ele><time>2026-04-06T12:39:19.999Z</time></trkpt><trkpt lat="46.45316913318288" lon="12.39989506658377"><ele>754.0</ele><time>2026-04-06T12:39:20.999Z</time></trkpt><trkpt lat="46.453187581232456" lon="12.40006092557336"><ele>754.5</ele><time>2026-04-06T12:39:21.999Z</time></trkpt><trkpt lat="46.45317674147473" lon="12.400238169924103"><ele>755.0</ele><time>2026-04-06T12:39:22.999Z</time></trkpt><trkpt lat="46.453181106574284" lon="12.400439228901863"><ele>755.25</ele><time>2026-04-06T12:39:23.999Z</time></trkpt><trkpt lat="46.4531610547409" lon="12.400657463335815"><ele>755.5</ele><time>2026-04-06T12:39:24.999Z</time></trkpt><trkpt lat="46.45315751690998" lon="12.400870199350036"><ele>755.75</ele><time>2026-04-06T12:39:25.999Z</time></trkpt><trkpt lat="46.453168659677864" lon="12.401073843008739"><ele>756.0</ele><time>2026-04-06T12:39:26.999Z</time></trkpt><trkpt lat="46.453197336693016" lon="12.401291541017672"><ele>754.6666666666666</ele><time>2026-04-06T12:39:27.999Z</time></trkpt><trkpt lat="46.45323507251158" lon="12.40150904353803"><ele>753.3333333333333</ele><time>2026-04-06T12:39:28.999Z</time></trkpt><trkpt lat="46.45326038302661" lon="12.40173199789506"><ele>752.0</ele><time>2026-04-06T12:39:29.999Z</time></trkpt><trkpt lat="46.45324520973279" lon="12.401961777117018"><ele>753.6666666666666</ele><time>2026-04-06T12:39:30.999Z</time></trkpt><trkpt lat="46.453235830050566" lon="12.402185484825132"><ele>755.3333333333334</ele><time>2026-04-06T12:39:31.999Z</time></trkpt><trkpt lat="46.45320201133987" lon="12.402402591219348"><ele>757.0</ele><time>2026-04-06T12:39:32.999Z</time></trkpt><trkpt lat="46.453170194279785" lon="12.402616707114761"><ele>757.0</ele><time>2026-04-06T12:39:33.999Z</time></trkpt><trkpt lat="46.453148035820355" lon="12.402814018632162"><ele>757.0</ele><time>2026-04-06T12:39:34.999Z</time></trkpt><trkpt lat="46.45313681620576" lon="12.402989980042662"><ele>757.0</ele><time>2026-04-06T12:39:35.999Z</time></trkpt><trkpt lat="46.45313988922365" lon="12.40317717892689"><ele>757.0</ele><time>2026-04-06T12:39:36.999Z</time></trkpt><trkpt lat="46.453152711336266" lon="12.403372973259183"><ele>757.75</ele><time>2026-04-06T12:39:37.999Z</time></trkpt><trkpt lat="46.45317300184454" lon="12.403564031081304"><ele>758.5</ele><time>2026-04-06T12:39:38.999Z</time></trkpt><trkpt lat="46.45320557276577" lon="12.403751013244213"><ele>759.25</ele><time>2026-04-06T12:39:39.999Z</time></trkpt><trkpt lat="46.45325356007707" lon="12.40393473246907"><ele>760.0</ele><time>2026-04-06T12:39:40.999Z</time></trkpt><trkpt lat="46.453316991292446" lon="12.404110668325522"><ele>760.0</ele><time>2026-04-06T12:39:41.999Z</time></trkpt><trkpt lat="46.45339811958512" lon="12.404269109918863"><ele>760.0</ele><time>2026-04-06T12:39:42.999Z</time></trkpt><trkpt lat="46.45349115395708" lon="12.404409438915687"><ele>760.0</ele><time>2026-04-06T12:39:43.999Z</time></trkpt><trkpt lat="46.45358431226099" lon="12.404539812450416"><ele>760.0</ele><time>2026-04-06T12:39:44.999Z</time></trkpt><trkpt lat="46.45368417082413" lon="12.404663761385173"><ele>760.0</ele><time>2026-04-06T12:39:45.999Z</time></trkpt><trkpt lat="46.4537953336346" lon="12.404780849672981"><ele>760.0</ele><time>2026-04-06T12:39:46.999Z</time></trkpt><trkpt lat="46.453914736202194" lon="12.404887593706329"><ele>760.0</ele><time>2026-04-06T12:39:47.999Z</time></trkpt><trkpt lat="46.45404469858184" lon="12.40498753845954"><ele>760.0</ele><time>2026-04-06T12:39:48.999Z</time></trkpt><trkpt lat="46.45418409985571" lon="12.40508306895804"><ele>760.0</ele><time>2026-04-06T12:39:49.999Z</time></trkpt><trkpt lat="46.45433670873312" lon="12.405190065763017"><ele>760.0</ele><time>2026-04-06T12:39:50.999Z</time></trkpt><trkpt lat="46.45449530723574" lon="12.405308577562707"><ele>760.0</ele><time>2026-04-06T12:39:51.999Z</time></trkpt><trkpt lat="46.45464480175211" lon="12.405432954880576"><ele>758.3333333333334</ele><time>2026-04-06T12:39:52.999Z</time></trkpt><trkpt lat="46.45477672984404" lon="12.40556416653203"><ele>756.6666666666666</ele><time>2026-04-06T12:39:53.999Z</time></trkpt><trkpt lat="46.45489329411413" lon="12.40571992594334"><ele>755.0</ele><time>2026-04-06T12:39:54.999Z</time></trkpt><trkpt lat="46.454991716122265" lon="12.40589731493482"><ele>755.0</ele><time>2026-04-06T12:39:55.999Z</time></trkpt><trkpt lat="46.4550788255416" lon="12.406086397687488"><ele>755.0</ele><time>2026-04-06T12:39:56.999Z</time></trkpt><trkpt lat="46.45516039319015" lon="12.406284874776606"><ele>755.0</ele><time>2026-04-06T12:39:57.999Z</time></trkpt><trkpt lat="46.455234046834065" lon="12.406471618862723"><ele>753.75</ele><time>2026-04-06T12:39:58.999Z</time></trkpt><trkpt lat="46.4553075187378" lon="12.4066421197761"><ele>752.5</ele><time>2026-04-06T12:39:59.999Z</time></trkpt><trkpt lat="46.45538225694242" lon="12.406801265602246"><ele>751.25</ele><time>2026-04-06T12:40:00.999Z</time></trkpt><trkpt lat="46.45546226711037" lon="12.406950502518407"><ele>750.0</ele><time>2026-04-06T12:40:01.999Z</time></trkpt><trkpt lat="46.4555492011813" lon="12.407098771408736"><ele>751.0</ele><time>2026-04-06T12:40:02.999Z</time></trkpt><trkpt lat="46.455639404724096" lon="12.407249250154802"><ele>752.0</ele><time>2026-04-06T12:40:03.999Z</time></trkpt><trkpt lat="46.45572992988545" lon="12.407400371664234"><ele>753.0</ele><time>2026-04-06T12:40:04.999Z</time></trkpt><trkpt lat="46.45582221714426" lon="12.407553781867552"><ele>754.0</ele><time>2026-04-06T12:40:05.999Z</time></trkpt><trkpt lat="46.45591419368986" lon="12.407706385665836"><ele>754.0</ele><time>2026-04-06T12:40:06.999Z</time></trkpt><trkpt lat="46.456011616880225" lon="12.407850729170493"><ele>754.0</ele><time>2026-04-06T12:40:07.999Z</time></trkpt><trkpt lat="46.45611839752491" lon="12.407988464532366"><ele>754.0</ele><time>2026-04-06T12:40:09Z</time></trkpt><trkpt lat="46.45623354890345" lon="12.408119070250075"><ele>754.0</ele><time>2026-04-06T12:40:10Z</time></trkpt><trkpt lat="46.456351419995045" lon="12.408246621846862"><ele>755.25</ele><time>2026-04-06T12:40:11Z</time></trkpt><trkpt lat="46.45647046235169" lon="12.40837599549951"><ele>756.5</ele><time>2026-04-06T12:40:12Z</time></trkpt><trkpt lat="46.456586458419544" lon="12.408505024374112"><ele>757.75</ele><time>2026-04-06T12:40:13Z</time></trkpt><trkpt lat="46.45669746340626" lon="12.408631582449354"><ele>759.0</ele><time>2026-04-06T12:40:14Z</time></trkpt><trkpt lat="46.456806470135675" lon="12.40875851819215"><ele>759.0</ele><time>2026-04-06T12:40:15Z</time></trkpt><trkpt lat="46.45691798344762" lon="12.40887852043423"><ele>759.0</ele><time>2026-04-06T12:40:16Z</time></trkpt><trkpt lat="46.45702783183861" lon="12.408999333153131"><ele>759.0</ele><time>2026-04-06T12:40:17Z</time></trkpt><trkpt lat="46.457141117504534" lon="12.409117135001939"><ele>759.0</ele><time>2026-04-06T12:40:18Z</time></trkpt><trkpt lat="46.45725140814568" lon="12.409238182702804"><ele>759.0</ele><time>2026-04-06T12:40:19Z</time></trkpt><trkpt lat="46.457359394330375" lon="12.409359989190563"><ele>759.0</ele><time>2026-04-06T12:40:20Z</time></trkpt><trkpt lat="46.457463459640834" lon="12.40948669557908"><ele>759.0</ele><time>2026-04-06T12:40:21Z</time></trkpt><trkpt lat="46.4575587780335" lon="12.40961910699525"><ele>759.0</ele><time>2026-04-06T12:40:22Z</time></trkpt><trkpt lat="46.45764891465811" lon="12.40975616819723"><ele>758.0</ele><time>2026-04-06T12:40:23Z</time></trkpt><trkpt lat="46.45773664033596" lon="12.409903911540438"><ele>757.0</ele><time>2026-04-06T12:40:24Z</time></trkpt><trkpt lat="46.45783005990346" lon="12.41006243444597"><ele>756.0</ele><time>2026-04-06T12:40:25Z</time></trkpt><trkpt lat="46.45792974794096" lon="12.410231490940575"><ele>755.0</ele><time>2026-04-06T12:40:26Z</time></trkpt><trkpt lat="46.458028572882625" lon="12.410399772270098"><ele>756.5</ele><time>2026-04-06T12:40:27Z</time></trkpt><trkpt lat="46.4581231227031" lon="12.41056263193597"><ele>758.0</ele><time>2026-04-06T12:40:28Z</time></trkpt><trkpt lat="46.45821732927949" lon="12.410723999635175"><ele>759.5</ele><time>2026-04-06T12:40:29Z</time></trkpt><trkpt lat="46.45831100239351" lon="12.410883322730646"><ele>761.0</ele><time>2026-04-06T12:40:30Z</time></trkpt><trkpt lat="46.458402255107856" lon="12.411041074403983"><ele>761.0</ele><time>2026-04-06T12:40:31Z</time></trkpt><trkpt lat="46.458483887980144" lon="12.411197301910079"><ele>761.0</ele><time>2026-04-06T12:40:32Z</time></trkpt><trkpt lat="46.458569145243835" lon="12.411348466313402"><ele>761.0</ele><time>2026-04-06T12:40:33Z</time></trkpt><trkpt lat="46.4586553347192" lon="12.411496747971068"><ele>761.0</ele><time>2026-04-06T12:40:34Z</time></trkpt><trkpt lat="46.45874317252904" lon="12.4116467590685"><ele>763.0</ele><time>2026-04-06T12:40:35Z</time></trkpt><trkpt lat="46.458830621632146" lon="12.411796932787809"><ele>765.0</ele><time>2026-04-06T12:40:36Z</time></trkpt><trkpt lat="46.458911839609435" lon="12.411947404295367"><ele>767.0</ele><time>2026-04-06T12:40:37Z</time></trkpt><trkpt lat="46.458995104969524" lon="12.41210867304543"><ele>769.0</ele><time>2026-04-06T12:40:38Z</time></trkpt><trkpt lat="46.459074465104" lon="12.412269808762868"><ele>769.0</ele><time>2026-04-06T12:40:39Z</time></trkpt><trkpt lat="46.4591362465933" lon="12.412418212766942"><ele>769.0</ele><time>2026-04-06T12:40:40Z</time></trkpt><trkpt lat="46.45917884437784" lon="12.412567873781178"><ele>769.0</ele><time>2026-04-06T12:40:41Z</time></trkpt><trkpt lat="46.459206014679715" lon="12.412730913655878"><ele>769.0</ele><time>2026-04-06T12:40:42Z</time></trkpt><trkpt lat="46.45921564630606" lon="12.41290296114283"><ele>768.4000000000001</ele><time>2026-04-06T12:40:43Z</time></trkpt><trkpt lat="46.459216145755114" lon="12.413060266038933"><ele>767.8</ele><time>2026-04-06T12:40:44Z</time></trkpt><trkpt lat="46.459216206816905" lon="12.413200511383158"><ele>767.2</ele><time>2026-04-06T12:40:45Z</time></trkpt><trkpt lat="46.4592216160421" lon="12.413340886908273"><ele>766.5999999999999</ele><time>2026-04-06T12:40:46Z</time></trkpt><trkpt lat="46.45924471706478" lon="12.41349560213878"><ele>766.0</ele><time>2026-04-06T12:40:47Z</time></trkpt><trkpt lat="46.45928788229871" lon="12.413654833499837"><ele>766.0</ele><time>2026-04-06T12:40:48Z</time></trkpt><trkpt lat="46.459339672133474" lon="12.41381091999934"><ele>766.0</ele><time>2026-04-06T12:40:49Z</time></trkpt><trkpt lat="46.45939103965671" lon="12.413961194317704"><ele>766.0</ele><time>2026-04-06T12:40:50Z</time></trkpt><trkpt lat="46.45944252561097" lon="12.41410581696603"><ele>766.0</ele><time>2026-04-06T12:40:51Z</time></trkpt><trkpt lat="46.459493824250636" lon="12.414250722819501"><ele>766.1999999999999</ele><time>2026-04-06T12:40:52Z</time></trkpt><trkpt lat="46.45954430258772" lon="12.414395877711366"><ele>766.4</ele><time>2026-04-06T12:40:53Z</time></trkpt><trkpt lat="46.45958844826478" lon="12.414525648864704"><ele>766.6</ele><time>2026-04-06T12:40:54Z</time></trkpt><trkpt lat="46.45963158005091" lon="12.414647504776195"><ele>766.8</ele><time>2026-04-06T12:40:55Z</time></trkpt><trkpt lat="46.4596749761113" lon="12.414770713310286"><ele>767.0</ele><time>2026-04-06T12:40:56Z</time></trkpt><trkpt lat="46.459720408629934" lon="12.414892459784536"><ele>768.2</ele><time>2026-04-06T12:40:57Z</time></trkpt><trkpt lat="46.45976346416824" lon="12.415010036034388"><ele>769.4000000000001</ele><time>2026-04-06T12:40:58Z</time></trkpt><trkpt lat="46.459804763376845" lon="12.415130340472485"><ele>770.5999999999999</ele><time>2026-04-06T12:40:59Z</time></trkpt><trkpt lat="46.45984705125049" lon="12.415248570945039"><ele>771.8</ele><time>2026-04-06T12:41:00Z</time></trkpt><trkpt lat="46.45989349448248" lon="12.41537296589541"><ele>773.0</ele><time>2026-04-06T12:41:01Z</time></trkpt><trkpt lat="46.4599407809841" lon="12.415513979034198"><ele>773.2</ele><time>2026-04-06T12:41:02Z</time></trkpt><trkpt lat="46.459986817428444" lon="12.415665512948909"><ele>773.4</ele><time>2026-04-06T12:41:03Z</time></trkpt><trkpt lat="46.460033577835496" lon="12.415811962149299"><ele>773.6</ele><time>2026-04-06T12:41:03.999Z</time></trkpt><trkpt lat="46.4600858564313" lon="12.415941430891474"><ele>773.8000000000001</ele><time>2026-04-06T12:41:04.999Z</time></trkpt><trkpt lat="46.460140096000174" lon="12.416063067464476"><ele>774.0</ele><time>2026-04-06T12:41:05.999Z</time></trkpt><trkpt lat="46.46020371680904" lon="12.416177772009462"><ele>774.0</ele><time>2026-04-06T12:41:06.999Z</time></trkpt><trkpt lat="46.460273162260066" lon="12.416289092961389"><ele>774.0</ele><time>2026-04-06T12:41:07.999Z</time></trkpt><trkpt lat="46.46035303735879" lon="12.416394384659833"><ele>774.0</ele><time>2026-04-06T12:41:08.999Z</time></trkpt><trkpt lat="46.46043362043967" lon="12.416497488579317"><ele>774.0</ele><time>2026-04-06T12:41:09.999Z</time></trkpt><trkpt lat="46.46051338225683" lon="12.41660190375145"><ele>774.0</ele><time>2026-04-06T12:41:10.999Z</time></trkpt><trkpt lat="46.46059042581326" lon="12.416701245026694"><ele>773.4000000000001</ele><time>2026-04-06T12:41:11.999Z</time></trkpt><trkpt lat="46.46066943895566" lon="12.416794348893982"><ele>772.8</ele><time>2026-04-06T12:41:12.999Z</time></trkpt><trkpt lat="46.460744883813305" lon="12.416894093732608"><ele>772.2</ele><time>2026-04-06T12:41:13.999Z</time></trkpt><trkpt lat="46.46081781753405" lon="12.416991814458093"><ele>771.5999999999999</ele><time>2026-04-06T12:41:14.999Z</time></trkpt><trkpt lat="46.460890376789266" lon="12.417086650049828"><ele>771.0</ele><time>2026-04-06T12:41:15.999Z</time></trkpt><trkpt lat="46.460963970871745" lon="12.41717875309977"><ele>771.0</ele><time>2026-04-06T12:41:16.999Z</time></trkpt><trkpt lat="46.461037356684955" lon="12.417276236595628"><ele>771.0</ele><time>2026-04-06T12:41:17.999Z</time></trkpt><trkpt lat="46.46110823219983" lon="12.417375411912024"><ele>771.0</ele><time>2026-04-06T12:41:18.999Z</time></trkpt><trkpt lat="46.46117796177102" lon="12.417480773091379"><ele>771.0</ele><time>2026-04-06T12:41:19.999Z</time></trkpt><trkpt lat="46.461246884903375" lon="12.41758144989869"><ele>771.0</ele><time>2026-04-06T12:41:20.999Z</time></trkpt><trkpt lat="46.46130887082939" lon="12.417689695994838"><ele>771.1999999999999</ele><time>2026-04-06T12:41:21.999Z</time></trkpt><trkpt lat="46.461364286245995" lon="12.417803233776173"><ele>771.4</ele><time>2026-04-06T12:41:22.999Z</time></trkpt><trkpt lat="46.46140874960174" lon="12.41791920758524"><ele>771.6</ele><time>2026-04-06T12:41:23.999Z</time></trkpt><trkpt lat="46.46145147446578" lon="12.41804288804325"><ele>771.8</ele><time>2026-04-06T12:41:24.999Z</time></trkpt><trkpt lat="46.46149364153034" lon="12.418175472229493"><ele>772.0</ele><time>2026-04-06T12:41:25.999Z</time></trkpt><trkpt lat="46.461538719714504" lon="12.418319277549145"><ele>772.0</ele><time>2026-04-06T12:41:26.999Z</time></trkpt><trkpt lat="46.46158882602141" lon="12.418465407851896"><ele>772.0</ele><time>2026-04-06T12:41:27.999Z</time></trkpt><trkpt lat="46.46164525157362" lon="12.418607471176596"><ele>772.0</ele><time>2026-04-06T12:41:28.999Z</time></trkpt><trkpt lat="46.461706957163685" lon="12.418744967407871"><ele>772.0</ele><time>2026-04-06T12:41:29.999Z</time></trkpt><trkpt lat="46.461768342623785" lon="12.41887410968209"><ele>772.0</ele><time>2026-04-06T12:41:30.999Z</time></trkpt><trkpt lat="46.46182313071556" lon="12.418994313570279"><ele>771.6</ele><time>2026-04-06T12:41:31.999Z</time></trkpt><trkpt lat="46.461878627714334" lon="12.419114673499324"><ele>771.2</ele><time>2026-04-06T12:41:32.999Z</time></trkpt><trkpt lat="46.46192772909607" lon="12.419243546013258"><ele>770.8</ele><time>2026-04-06T12:41:33.999Z</time></trkpt><trkpt lat="46.461978013702215" lon="12.419376086795264"><ele>770.4</ele><time>2026-04-06T12:41:34.999Z</time></trkpt><trkpt lat="46.462028036117786" lon="12.419515926875562"><ele>770.0</ele><time>2026-04-06T12:41:35.999Z</time></trkpt><trkpt lat="46.46207680181451" lon="12.419662367399138"><ele>772.0</ele><time>2026-04-06T12:41:36.999Z</time></trkpt><trkpt lat="46.462127703875716" lon="12.41981278118614"><ele>774.0</ele><time>2026-04-06T12:41:37.999Z</time></trkpt><trkpt lat="46.46219092632939" lon="12.419956079230701"><ele>776.0</ele><time>2026-04-06T12:41:38.999Z</time></trkpt><trkpt lat="46.462259798738344" lon="12.420089944641836"><ele>778.0</ele><time>2026-04-06T12:41:39.999Z</time></trkpt><trkpt lat="46.46234074567916" lon="12.42021006622854"><ele>778.0</ele><time>2026-04-06T12:41:40.999Z</time></trkpt><trkpt lat="46.4624218878582" lon="12.420319621142383"><ele>778.0</ele><time>2026-04-06T12:41:41.999Z</time></trkpt><trkpt lat="46.46250364032303" lon="12.42040970130495"><ele>778.0</ele><time>2026-04-06T12:41:42.999Z</time></trkpt><trkpt lat="46.46257811398099" lon="12.420495065787364"><ele>778.0</ele><time>2026-04-06T12:41:43.999Z</time></trkpt><trkpt lat="46.4626468634052" lon="12.420580337692893"><ele>778.0</ele><time>2026-04-06T12:41:44.999Z</time></trkpt><trkpt lat="46.46271212070313" lon="12.42066002124979"><ele>777.4999999999999</ele><time>2026-04-06T12:41:45.999Z</time></trkpt><trkpt lat="46.46277738502732" lon="12.420740549783408"><ele>777.0</ele><time>2026-04-06T12:41:46.999Z</time></trkpt><trkpt lat="46.462838450595754" lon="12.420813872693794"><ele>776.5</ele><time>2026-04-06T12:41:47.999Z</time></trkpt><trkpt lat="46.462893683614006" lon="12.42087994443647"><ele>776.0</ele><time>2026-04-06T12:41:48.999Z</time></trkpt><trkpt lat="46.462954225387584" lon="12.42094905950598"><ele>775.4999999999999</ele><time>2026-04-06T12:41:49.999Z</time></trkpt><trkpt lat="46.463014043160044" lon="12.421015258366333"><ele>775.0</ele><time>2026-04-06T12:41:50.999Z</time></trkpt><trkpt lat="46.46305310697492" lon="12.421092039396715"><ele>775.8333333333333</ele><time>2026-04-06T12:41:51.999Z</time></trkpt><trkpt lat="46.46308479461158" lon="12.421181669426055"><ele>776.6666666666666</ele><time>2026-04-06T12:41:52.999Z</time></trkpt><trkpt lat="46.46311794115148" lon="12.421277064823427"><ele>777.5</ele><time>2026-04-06T12:41:53.999Z</time></trkpt><trkpt lat="46.463165149032015" lon="12.42136358431474"><ele>778.3333333333333</ele><time>2026-04-06T12:41:54.999Z</time></trkpt><trkpt lat="46.46322783912798" lon="12.421426963598739"><ele>779.1666666666666</ele><time>2026-04-06T12:41:55.999Z</time></trkpt><trkpt lat="46.46330734772077" lon="12.421468094005599"><ele>780.0</ele><time>2026-04-06T12:41:56.999Z</time></trkpt><trkpt lat="46.46338918401486" lon="12.421507963214411"><ele>780.0</ele><time>2026-04-06T12:41:57.999Z</time></trkpt><trkpt lat="46.463468374332585" lon="12.421573570376733"><ele>780.0</ele><time>2026-04-06T12:41:58.999Z</time></trkpt><trkpt lat="46.46354546282771" lon="12.421666367117963"><ele>780.0</ele><time>2026-04-06T12:41:59.999Z</time></trkpt><trkpt lat="46.46361529964416" lon="12.421782225019989"><ele>780.0</ele><time>2026-04-06T12:42:00.999Z</time></trkpt><trkpt lat="46.463690992521315" lon="12.421924219452809"><ele>780.0</ele><time>2026-04-06T12:42:01.999Z</time></trkpt><trkpt lat="46.463764569813826" lon="12.422075811814224"><ele>784.0</ele><time>2026-04-06T12:42:02.999Z</time></trkpt><trkpt lat="46.463830476640176" lon="12.422228868428686"><ele>788.0</ele><time>2026-04-06T12:42:03.999Z</time></trkpt><trkpt lat="46.463897741229694" lon="12.422389876400715"><ele>792.0</ele><time>2026-04-06T12:42:04.999Z</time></trkpt><trkpt lat="46.46397086141025" lon="12.422550178476326"><ele>796.0</ele><time>2026-04-06T12:42:05.999Z</time></trkpt><trkpt lat="46.46405089420639" lon="12.422708215455376"><ele>796.0</ele><time>2026-04-06T12:42:06.999Z</time></trkpt><trkpt lat="46.46413132337011" lon="12.422854872138616"><ele>796.0</ele><time>2026-04-06T12:42:07.999Z</time></trkpt><trkpt lat="46.464210172711375" lon="12.422999233633503"><ele>796.0</ele><time>2026-04-06T12:42:08.999Z</time></trkpt><trkpt lat="46.46428685929669" lon="12.423136297774468"><ele>796.0</ele><time>2026-04-06T12:42:09.999Z</time></trkpt><trkpt lat="46.46437198020095" lon="12.423266144888482"><ele>798.75</ele><time>2026-04-06T12:42:10.999Z</time></trkpt><trkpt lat="46.46447161756593" lon="12.423383175605753"><ele>801.5</ele><time>2026-04-06T12:42:11.999Z</time></trkpt><trkpt lat="46.46458070453459" lon="12.423499923114528"><ele>804.25</ele><time>2026-04-06T12:42:12.999Z</time></trkpt><trkpt lat="46.46469934913401" lon="12.423614399781323"><ele>807.0</ele><time>2026-04-06T12:42:13.999Z</time></trkpt><trkpt lat="46.46482940381919" lon="12.42373038362067"><ele>801.0</ele><time>2026-04-06T12:42:15Z</time></trkpt><trkpt lat="46.46496533669535" lon="12.423856779444298"><ele>795.0</ele><time>2026-04-06T12:42:16Z</time></trkpt><trkpt lat="46.465102645131495" lon="12.42399163749931"><ele>789.0</ele><time>2026-04-06T12:42:17Z</time></trkpt><trkpt lat="46.46523986344559" lon="12.424134879328427"><ele>789.0</ele><time>2026-04-06T12:42:18Z</time></trkpt><trkpt lat="46.46537590079926" lon="12.424296575056614"><ele>789.0</ele><time>2026-04-06T12:42:19Z</time></trkpt><trkpt lat="46.46550594551536" lon="12.42447814440183"><ele>789.0</ele><time>2026-04-06T12:42:20Z</time></trkpt><trkpt lat="46.46562909790117" lon="12.424670965005264"><ele>791.6666666666667</ele><time>2026-04-06T12:42:21Z</time></trkpt><trkpt lat="46.465747897256485" lon="12.424875600082991"><ele>794.3333333333334</ele><time>2026-04-06T12:42:22Z</time></trkpt><trkpt lat="46.46586266146887" lon="12.4250755076091"><ele>797.0</ele><time>2026-04-06T12:42:23Z</time></trkpt><trkpt lat="46.46597452469867" lon="12.425269911226984"><ele>797.0</ele><time>2026-04-06T12:42:24Z</time></trkpt><trkpt lat="46.466079032786475" lon="12.42545554142443"><ele>797.0</ele><time>2026-04-06T12:42:25Z</time></trkpt><trkpt lat="46.46617672223067" lon="12.42563306205536"><ele>797.0</ele><time>2026-04-06T12:42:26Z</time></trkpt><trkpt lat="46.46627386306728" lon="12.425813783908294"><ele>799.3333333333334</ele><time>2026-04-06T12:42:27Z</time></trkpt><trkpt lat="46.466370540671484" lon="12.42599550191267"><ele>801.6666666666667</ele><time>2026-04-06T12:42:28Z</time></trkpt><trkpt lat="46.46646358994468" lon="12.42617461053629"><ele>804.0</ele><time>2026-04-06T12:42:29Z</time></trkpt><trkpt lat="46.466553386713606" lon="12.426354706499556"><ele>804.0</ele><time>2026-04-06T12:42:30Z</time></trkpt><trkpt lat="46.466646244583" lon="12.426533273340656"><ele>804.0</ele><time>2026-04-06T12:42:31Z</time></trkpt><trkpt lat="46.46674958488148" lon="12.426697066843603"><ele>804.0</ele><time>2026-04-06T12:42:32Z</time></trkpt><trkpt lat="46.46685972785853" lon="12.42684807873786"><ele>804.0</ele><time>2026-04-06T12:42:33Z</time></trkpt><trkpt lat="46.46697248400143" lon="12.426989331278087"><ele>804.0</ele><time>2026-04-06T12:42:34Z</time></trkpt><trkpt lat="46.467082334590366" lon="12.427130337567615"><ele>804.0</ele><time>2026-04-06T12:42:35Z</time></trkpt><trkpt lat="46.467192241409826" lon="12.4272742643773"><ele>804.0</ele><time>2026-04-06T12:42:36Z</time></trkpt><trkpt lat="46.467299181354036" lon="12.427422304910806"><ele>805.25</ele><time>2026-04-06T12:42:37Z</time></trkpt><trkpt lat="46.46740018569947" lon="12.427580264673534"><ele>806.5</ele><time>2026-04-06T12:42:38Z</time></trkpt><trkpt lat="46.46749690661707" lon="12.42774455552275"><ele>807.75</ele><time>2026-04-06T12:42:39Z</time></trkpt><trkpt lat="46.46759480079193" lon="12.427912206837169"><ele>809.0</ele><time>2026-04-06T12:42:40Z</time></trkpt><trkpt lat="46.46769128851573" lon="12.428080634443766"><ele>809.0</ele><time>2026-04-06T12:42:41Z</time></trkpt><trkpt lat="46.467785727905884" lon="12.428255201064024"><ele>809.0</ele><time>2026-04-06T12:42:42Z</time></trkpt><trkpt lat="46.46788251539439" lon="12.428428794391197"><ele>809.0</ele><time>2026-04-06T12:42:43Z</time></trkpt><trkpt lat="46.46798183348028" lon="12.428598942454824"><ele>810.0</ele><time>2026-04-06T12:42:44Z</time></trkpt><trkpt lat="46.468089263082526" lon="12.428754756705795"><ele>811.0</ele><time>2026-04-06T12:42:45Z</time></trkpt><trkpt lat="46.468181129341694" lon="12.4289340761288"><ele>812.0</ele><time>2026-04-06T12:42:46Z</time></trkpt><trkpt lat="46.46827253183261" lon="12.429115890608474"><ele>812.0</ele><time>2026-04-06T12:42:47Z</time></trkpt><trkpt lat="46.46836590031606" lon="12.429297997846573"><ele>812.0</ele><time>2026-04-06T12:42:48Z</time></trkpt><trkpt lat="46.46846496155755" lon="12.42947843042161"><ele>812.0</ele><time>2026-04-06T12:42:49Z</time></trkpt><trkpt lat="46.468564907135786" lon="12.429660640155936"><ele>812.6666666666667</ele><time>2026-04-06T12:42:50Z</time></trkpt><trkpt lat="46.46866400487419" lon="12.429839589355227"><ele>813.3333333333333</ele><time>2026-04-06T12:42:51Z</time></trkpt><trkpt lat="46.46876411386048" lon="12.43000914364867"><ele>814.0</ele><time>2026-04-06T12:42:52Z</time></trkpt><trkpt lat="46.46886498105278" lon="12.430162928520582"><ele>814.0</ele><time>2026-04-06T12:42:53Z</time></trkpt><trkpt lat="46.46896942883976" lon="12.430301248348137"><ele>814.0</ele><time>2026-04-06T12:42:54Z</time></trkpt><trkpt lat="46.46907940126108" lon="12.430428145749314"><ele>814.0</ele><time>2026-04-06T12:42:55Z</time></trkpt><trkpt lat="46.46919513698827" lon="12.430550168014674"><ele>814.0</ele><time>2026-04-06T12:42:56Z</time></trkpt><trkpt lat="46.46931485097286" lon="12.430675861800083"><ele>814.0</ele><time>2026-04-06T12:42:57Z</time></trkpt><trkpt lat="46.46943424474645" lon="12.430804099439275"><ele>814.0</ele><time>2026-04-06T12:42:58Z</time></trkpt><trkpt lat="46.469556783870196" lon="12.43094644746066"><ele>814.0</ele><time>2026-04-06T12:42:59Z</time></trkpt><trkpt lat="46.469676678893734" lon="12.431099849822596"><ele>814.0</ele><time>2026-04-06T12:43:00Z</time></trkpt><trkpt lat="46.46979733811324" lon="12.431258988080629"><ele>814.0</ele><time>2026-04-06T12:43:01Z</time></trkpt><trkpt lat="46.46991687408766" lon="12.431414566465643"><ele>814.0</ele><time>2026-04-06T12:43:02Z</time></trkpt><trkpt lat="46.47003074384102" lon="12.43155807408195"><ele>812.5</ele><time>2026-04-06T12:43:03Z</time></trkpt><trkpt lat="46.470136194213765" lon="12.431700555782843"><ele>811.0</ele><time>2026-04-06T12:43:04Z</time></trkpt><trkpt lat="46.470238346065855" lon="12.431837793227777"><ele>809.5</ele><time>2026-04-06T12:43:04.999Z</time></trkpt><trkpt lat="46.47034302924799" lon="12.43196228971261"><ele>808.0</ele><time>2026-04-06T12:43:05.999Z</time></trkpt><trkpt lat="46.470452917797175" lon="12.432068912364365"><ele>805.5</ele><time>2026-04-06T12:43:06.999Z</time></trkpt><trkpt lat="46.47057065455275" lon="12.432158368937126"><ele>803.0</ele><time>2026-04-06T12:43:07.999Z</time></trkpt><trkpt lat="46.470698506047036" lon="12.432220992693011"><ele>800.5</ele><time>2026-04-06T12:43:08.999Z</time></trkpt><trkpt lat="46.47083389842986" lon="12.432258491021383"><ele>798.0</ele><time>2026-04-06T12:43:09.999Z</time></trkpt><trkpt lat="46.47097588831708" lon="12.432272459751369"><ele>798.0</ele><time>2026-04-06T12:43:10.999Z</time></trkpt><trkpt lat="46.471122262688894" lon="12.432275818541601"><ele>798.0</ele><time>2026-04-06T12:43:11.999Z</time></trkpt><trkpt lat="46.47127596314277" lon="12.43227066352928"><ele>798.0</ele><time>2026-04-06T12:43:12.999Z</time></trkpt><trkpt lat="46.471434589119745" lon="12.432264732733266"><ele>795.6666666666667</ele><time>2026-04-06T12:43:13.999Z</time></trkpt><trkpt lat="46.471590236338095" lon="12.43224937046562"><ele>793.3333333333334</ele><time>2026-04-06T12:43:14.999Z</time></trkpt><trkpt lat="46.47174113779335" lon="12.432200799697098"><ele>791.0</ele><time>2026-04-06T12:43:15.999Z</time></trkpt><trkpt lat="46.47189014005762" lon="12.432155048127413"><ele>791.0</ele><time>2026-04-06T12:43:16.999Z</time></trkpt><trkpt lat="46.472039633464824" lon="12.432111198903936"><ele>791.0</ele><time>2026-04-06T12:43:17.999Z</time></trkpt><trkpt lat="46.47218156327247" lon="12.432073524657444"><ele>791.0</ele><time>2026-04-06T12:43:18.999Z</time></trkpt><trkpt lat="46.47231768649192" lon="12.432039950968855"><ele>791.0</ele><time>2026-04-06T12:43:19.999Z</time></trkpt><trkpt lat="46.47244677901171" lon="12.432014191714917"><ele>791.0</ele><time>2026-04-06T12:43:20.999Z</time></trkpt><trkpt lat="46.47256986576171" lon="12.432018989356228"><ele>791.0</ele><time>2026-04-06T12:43:21.999Z</time></trkpt><trkpt lat="46.472694554763876" lon="12.432054709700715"><ele>791.0</ele><time>2026-04-06T12:43:22.999Z</time></trkpt><trkpt lat="46.47280914062626" lon="12.432120186835288"><ele>791.0</ele><time>2026-04-06T12:43:23.999Z</time></trkpt><trkpt lat="46.472912696263286" lon="12.432215304096493"><ele>791.25</ele><time>2026-04-06T12:43:24.999Z</time></trkpt><trkpt lat="46.47300439524568" lon="12.432327310156175"><ele>791.5</ele><time>2026-04-06T12:43:25.999Z</time></trkpt><trkpt lat="46.47308237160985" lon="12.432438726286978"><ele>791.75</ele><time>2026-04-06T12:43:26.999Z</time></trkpt><trkpt lat="46.4731605302975" lon="12.432563817675454"><ele>792.0</ele><time>2026-04-06T12:43:27.999Z</time></trkpt><trkpt lat="46.47323181664373" lon="12.43268647338109"><ele>792.0</ele><time>2026-04-06T12:43:28.999Z</time></trkpt><trkpt lat="46.47329892566108" lon="12.432801898664746"><ele>792.0</ele><time>2026-04-06T12:43:29.999Z</time></trkpt><trkpt lat="46.47336519321645" lon="12.43291378639607"><ele>792.0</ele><time>2026-04-06T12:43:30.999Z</time></trkpt><trkpt lat="46.47343105339962" lon="12.433025144406965"><ele>792.0</ele><time>2026-04-06T12:43:31.999Z</time></trkpt><trkpt lat="46.473496470462116" lon="12.43313918190705"><ele>792.0</ele><time>2026-04-06T12:43:32.999Z</time></trkpt><trkpt lat="46.47356351430206" lon="12.43325184592801"><ele>790.25</ele><time>2026-04-06T12:43:33.999Z</time></trkpt><trkpt lat="46.473637629066616" lon="12.433363768034422"><ele>788.5</ele><time>2026-04-06T12:43:34.999Z</time></trkpt><trkpt lat="46.473719344775084" lon="12.43346901887779"><ele>786.75</ele><time>2026-04-06T12:43:35.999Z</time></trkpt><trkpt lat="46.473815860060704" lon="12.433577455742027"><ele>785.0</ele><time>2026-04-06T12:43:36.999Z</time></trkpt><trkpt lat="46.4739257213385" lon="12.433679361389533"><ele>785.75</ele><time>2026-04-06T12:43:37.999Z</time></trkpt><trkpt lat="46.47403988871667" lon="12.433784354980656"><ele>786.5</ele><time>2026-04-06T12:43:38.999Z</time></trkpt><trkpt lat="46.47415867138495" lon="12.43389008469348"><ele>787.25</ele><time>2026-04-06T12:43:39.999Z</time></trkpt><trkpt lat="46.474276527321486" lon="12.433996840387046"><ele>788.0</ele><time>2026-04-06T12:43:40.999Z</time></trkpt><trkpt lat="46.474390775035815" lon="12.434106709377494"><ele>788.0</ele><time>2026-04-06T12:43:41.999Z</time></trkpt><trkpt lat="46.474508601874554" lon="12.434221721626312"><ele>788.0</ele><time>2026-04-06T12:43:42.999Z</time></trkpt><trkpt lat="46.474624875948535" lon="12.43433969618192"><ele>788.0</ele><time>2026-04-06T12:43:43.999Z</time></trkpt><trkpt lat="46.474731051857795" lon="12.434463656268713"><ele>788.0</ele><time>2026-04-06T12:43:44.999Z</time></trkpt><trkpt lat="46.47482712333918" lon="12.434596847787313"><ele>788.75</ele><time>2026-04-06T12:43:45.999Z</time></trkpt><trkpt lat="46.474918437692565" lon="12.434742570362946"><ele>789.5</ele><time>2026-04-06T12:43:46.999Z</time></trkpt><trkpt lat="46.47500685273416" lon="12.434899392122432"><ele>790.25</ele><time>2026-04-06T12:43:47.999Z</time></trkpt><trkpt lat="46.475093575134395" lon="12.435059376158966"><ele>791.0</ele><time>2026-04-06T12:43:48.999Z</time></trkpt><trkpt lat="46.47517459085373" lon="12.43520349021759"><ele>791.0</ele><time>2026-04-06T12:43:49.999Z</time></trkpt><trkpt lat="46.475254433119154" lon="12.435344294385484"><ele>791.0</ele><time>2026-04-06T12:43:50.999Z</time></trkpt><trkpt lat="46.475331186051" lon="12.435478931342775"><ele>791.0</ele><time>2026-04-06T12:43:51.999Z</time></trkpt><trkpt lat="46.47541185317684" lon="12.435607871373183"><ele>791.0</ele><time>2026-04-06T12:43:52.999Z</time></trkpt><trkpt lat="46.47549782831037" lon="12.435733269628647"><ele>792.25</ele><time>2026-04-06T12:43:53.999Z</time></trkpt><trkpt lat="46.475587531901475" lon="12.435856410843646"><ele>793.5</ele><time>2026-04-06T12:43:54.999Z</time></trkpt><trkpt lat="46.475679623924506" lon="12.435981330525646"><ele>794.75</ele><time>2026-04-06T12:43:55.999Z</time></trkpt><trkpt lat="46.47578067733363" lon="12.436108852311202"><ele>796.0</ele><time>2026-04-06T12:43:56.999Z</time></trkpt><trkpt lat="46.47589075800456" lon="12.436236949306714"><ele>795.0</ele><time>2026-04-06T12:43:57.999Z</time></trkpt><trkpt lat="46.476008798312584" lon="12.436362015641867"><ele>794.0</ele><time>2026-04-06T12:43:58.999Z</time></trkpt><trkpt lat="46.47613386875712" lon="12.436486861435567"><ele>793.0</ele><time>2026-04-06T12:43:59.999Z</time></trkpt><trkpt lat="46.476261782896195" lon="12.436616682642205"><ele>793.0</ele><time>2026-04-06T12:44:00.999Z</time></trkpt><trkpt lat="46.4763940538493" lon="12.436754177178942"><ele>793.0</ele><time>2026-04-06T12:44:01.999Z</time></trkpt><trkpt lat="46.47653479306759" lon="12.436898512668447"><ele>793.0</ele><time>2026-04-06T12:44:02.999Z</time></trkpt><trkpt lat="46.476677408287706" lon="12.437046155102715"><ele>792.3333333333333</ele><time>2026-04-06T12:44:03.999Z</time></trkpt><trkpt lat="46.47681698414635" lon="12.437200661931405"><ele>791.6666666666667</ele><time>2026-04-06T12:44:04.999Z</time></trkpt><trkpt lat="46.47695282203062" lon="12.437362769259709"><ele>791.0</ele><time>2026-04-06T12:44:05.999Z</time></trkpt><trkpt lat="46.47708577742405" lon="12.437533989605694"><ele>791.6666666666667</ele><time>2026-04-06T12:44:06.999Z</time></trkpt><trkpt lat="46.477218276227454" lon="12.437720829874268"><ele>792.3333333333333</ele><time>2026-04-06T12:44:07.999Z</time></trkpt><trkpt lat="46.47735259772411" lon="12.43792783602804"><ele>793.0</ele><time>2026-04-06T12:44:08.999Z</time></trkpt><trkpt lat="46.47748817625137" lon="12.438160355289925"><ele>789.6666666666666</ele><time>2026-04-06T12:44:09.999Z</time></trkpt><trkpt lat="46.477620651466175" lon="12.438412998216563"><ele>786.3333333333333</ele><time>2026-04-06T12:44:10.999Z</time></trkpt><trkpt lat="46.47775065719276" lon="12.438653627494855"><ele>783.0</ele><time>2026-04-06T12:44:11.999Z</time></trkpt><trkpt lat="46.477875658084265" lon="12.438877264880787"><ele>781.6666666666667</ele><time>2026-04-06T12:44:12.999Z</time></trkpt><trkpt lat="46.47800073734048" lon="12.439077832162988"><ele>780.3333333333334</ele><time>2026-04-06T12:44:13.999Z</time></trkpt><trkpt lat="46.478118589261534" lon="12.439283120540049"><ele>779.0</ele><time>2026-04-06T12:44:14.999Z</time></trkpt><trkpt lat="46.478240945013894" lon="12.439488260150977"><ele>775.6666666666667</ele><time>2026-04-06T12:44:15.999Z</time></trkpt><trkpt lat="46.47837621016294" lon="12.439687227045612"><ele>772.3333333333333</ele><time>2026-04-06T12:44:16.999Z</time></trkpt><trkpt lat="46.47852255549317" lon="12.439872682127787"><ele>769.0</ele><time>2026-04-06T12:44:17.999Z</time></trkpt><trkpt lat="46.478675192416596" lon="12.440049264110373"><ele>769.3333333333333</ele><time>2026-04-06T12:44:18.999Z</time></trkpt><trkpt lat="46.47884165535891" lon="12.440212302064309"><ele>769.6666666666667</ele><time>2026-04-06T12:44:19.999Z</time></trkpt><trkpt lat="46.479023233372864" lon="12.440361695229495"><ele>770.0</ele><time>2026-04-06T12:44:21Z</time></trkpt><trkpt lat="46.47921400670889" lon="12.440496198910468"><ele>764.6666666666667</ele><time>2026-04-06T12:44:22Z</time></trkpt><trkpt lat="46.47940909594872" lon="12.440625003049368"><ele>759.3333333333334</ele><time>2026-04-06T12:44:23Z</time></trkpt><trkpt lat="46.479607878124554" lon="12.440753396561206"><ele>754.0</ele><time>2026-04-06T12:44:24Z</time></trkpt><trkpt lat="46.47980351092268" lon="12.440883453571253"><ele>753.3333333333334</ele><time>2026-04-06T12:44:25Z</time></trkpt><trkpt lat="46.479997839414715" lon="12.441014829380721"><ele>752.6666666666666</ele><time>2026-04-06T12:44:26Z</time></trkpt><trkpt lat="46.480192654637605" lon="12.441153271880935"><ele>752.0</ele><time>2026-04-06T12:44:27Z</time></trkpt><trkpt lat="46.480383162350634" lon="12.441303586050994"><ele>749.0</ele><time>2026-04-06T12:44:28Z</time></trkpt><trkpt lat="46.48056504592065" lon="12.441465551960722"><ele>746.0</ele><time>2026-04-06T12:44:29Z</time></trkpt><trkpt lat="46.48073673651375" lon="12.441637197390834"><ele>743.0</ele><time>2026-04-06T12:44:30Z</time></trkpt><trkpt lat="46.480902214639016" lon="12.441820098633325"><ele>743.0</ele><time>2026-04-06T12:44:31Z</time></trkpt><trkpt lat="46.4810631746849" lon="12.44201316734588"><ele>743.0</ele><time>2026-04-06T12:44:32Z</time></trkpt><trkpt lat="46.4812209288535" lon="12.442219674008177"><ele>743.0</ele><time>2026-04-06T12:44:33Z</time></trkpt><trkpt lat="46.48137415277281" lon="12.442441021103393"><ele>743.3333333333333</ele><time>2026-04-06T12:44:34Z</time></trkpt><trkpt lat="46.48152762865738" lon="12.442667173362558"><ele>743.6666666666666</ele><time>2026-04-06T12:44:35Z</time></trkpt><trkpt lat="46.481679949679425" lon="12.442900096183209"><ele>744.0</ele><time>2026-04-06T12:44:36Z</time></trkpt><trkpt lat="46.48183798648701" lon="12.443135127382362"><ele>742.3333333333334</ele><time>2026-04-06T12:44:37Z</time></trkpt><trkpt lat="46.48199838774585" lon="12.443369411378288"><ele>740.6666666666667</ele><time>2026-04-06T12:44:38Z</time></trkpt><trkpt lat="46.48215175393816" lon="12.443597803122332"><ele>739.0</ele><time>2026-04-06T12:44:39Z</time></trkpt><trkpt lat="46.48229501504996" lon="12.443810743377382"><ele>739.0</ele><time>2026-04-06T12:44:40Z</time></trkpt><trkpt lat="46.482425739977636" lon="12.444005485540854"><ele>739.0</ele><time>2026-04-06T12:44:41Z</time></trkpt><trkpt lat="46.48254837091981" lon="12.444197313839005"><ele>739.0</ele><time>2026-04-06T12:44:42Z</time></trkpt><trkpt lat="46.48266529127734" lon="12.444402221022475"><ele>739.0</ele><time>2026-04-06T12:44:43Z</time></trkpt><trkpt lat="46.48276950931345" lon="12.444617772498697"><ele>739.0</ele><time>2026-04-06T12:44:44Z</time></trkpt><trkpt lat="46.48287183254836" lon="12.444860038160733"><ele>739.0</ele><time>2026-04-06T12:44:45Z</time></trkpt><trkpt lat="46.48297049032745" lon="12.44510821921753"><ele>739.6666666666667</ele><time>2026-04-06T12:44:46Z</time></trkpt><trkpt lat="46.48305828215791" lon="12.445350961932144"><ele>740.3333333333334</ele><time>2026-04-06T12:44:47Z</time></trkpt><trkpt lat="46.48314558565115" lon="12.445612666642786"><ele>741.0</ele><time>2026-04-06T12:44:48Z</time></trkpt><trkpt lat="46.48324147162291" lon="12.445890332003474"><ele>739.0</ele><time>2026-04-06T12:44:49Z</time></trkpt><trkpt lat="46.48334454520032" lon="12.446179531730218"><ele>737.0</ele><time>2026-04-06T12:44:50Z</time></trkpt><trkpt lat="46.483443709951736" lon="12.446464438672608"><ele>735.0</ele><time>2026-04-06T12:44:51Z</time></trkpt><trkpt lat="46.483543410015116" lon="12.446743400283365"><ele>733.6666666666666</ele><time>2026-04-06T12:44:52Z</time></trkpt><trkpt lat="46.48364257916314" lon="12.447016211106352"><ele>732.3333333333333</ele><time>2026-04-06T12:44:53Z</time></trkpt><trkpt lat="46.48374263530924" lon="12.447288956470025"><ele>731.0</ele><time>2026-04-06T12:44:54Z</time></trkpt><trkpt lat="46.48384239834548" lon="12.447561093300097"><ele>731.0</ele><time>2026-04-06T12:44:55Z</time></trkpt><trkpt lat="46.483946295687694" lon="12.447838120789607"><ele>731.0</ele><time>2026-04-06T12:44:56Z</time></trkpt><trkpt lat="46.484057532299516" lon="12.448121295561096"><ele>731.0</ele><time>2026-04-06T12:44:57Z</time></trkpt><trkpt lat="46.48417633062597" lon="12.448404369173339"><ele>725.0</ele><time>2026-04-06T12:44:58Z</time></trkpt><trkpt lat="46.484298733433974" lon="12.448687769656189"><ele>719.0</ele><time>2026-04-06T12:44:59Z</time></trkpt><trkpt lat="46.48442293047829" lon="12.448959477135787"><ele>721.0</ele><time>2026-04-06T12:45:00Z</time></trkpt><trkpt lat="46.484545587680856" lon="12.44919855553647"><ele>723.0</ele><time>2026-04-06T12:45:01Z</time></trkpt><trkpt lat="46.48467238160354" lon="12.449414557005497"><ele>725.0</ele><time>2026-04-06T12:45:02Z</time></trkpt><trkpt lat="46.48481167167691" lon="12.44962213543882"><ele>724.6666666666666</ele><time>2026-04-06T12:45:03Z</time></trkpt><trkpt lat="46.484964478872236" lon="12.44981560868924"><ele>724.3333333333334</ele><time>2026-04-06T12:45:04Z</time></trkpt><trkpt lat="46.48512854023661" lon="12.449998904432807"><ele>724.0</ele><time>2026-04-06T12:45:05Z</time></trkpt><trkpt lat="46.485296827136715" lon="12.450165881028356"><ele>724.0</ele><time>2026-04-06T12:45:06Z</time></trkpt><trkpt lat="46.48547027956233" lon="12.450317731633996"><ele>724.0</ele><time>2026-04-06T12:45:07Z</time></trkpt><trkpt lat="46.48564945304674" lon="12.450447667416029"><ele>724.0</ele><time>2026-04-06T12:45:08Z</time></trkpt><trkpt lat="46.485830568774375" lon="12.450553107356253"><ele>724.0</ele><time>2026-04-06T12:45:09Z</time></trkpt><trkpt lat="46.48601424428406" lon="12.450641029926285"><ele>724.0</ele><time>2026-04-06T12:45:10Z</time></trkpt><trkpt lat="46.48620405084932" lon="12.450712871692689"><ele>724.0</ele><time>2026-04-06T12:45:10.999Z</time></trkpt><trkpt lat="46.48639878677696" lon="12.45076700618266"><ele>724.6666666666667</ele><time>2026-04-06T12:45:11.999Z</time></trkpt><trkpt lat="46.48659560320278" lon="12.450801311516022"><ele>725.3333333333334</ele><time>2026-04-06T12:45:12.999Z</time></trkpt><trkpt lat="46.486783969037056" lon="12.450822017097469"><ele>726.0</ele><time>2026-04-06T12:45:13.999Z</time></trkpt><trkpt lat="46.48696821502239" lon="12.450830954179501"><ele>730.3333333333334</ele><time>2026-04-06T12:45:14.999Z</time></trkpt><trkpt lat="46.4871467117561" lon="12.450834228745034"><ele>734.6666666666667</ele><time>2026-04-06T12:45:15.999Z</time></trkpt><trkpt lat="46.48731746898484" lon="12.450840525078965"><ele>739.0</ele><time>2026-04-06T12:45:16.999Z</time></trkpt><trkpt lat="46.487482333320905" lon="12.45084830852735"><ele>739.0</ele><time>2026-04-06T12:45:17.999Z</time></trkpt><trkpt lat="46.48765075395386" lon="12.45085165964238"><ele>739.0</ele><time>2026-04-06T12:45:18.999Z</time></trkpt><trkpt lat="46.48781959384438" lon="12.450857159366514"><ele>739.0</ele><time>2026-04-06T12:45:19.999Z</time></trkpt><trkpt lat="46.48798992469394" lon="12.450863624291367"><ele>742.6666666666667</ele><time>2026-04-06T12:45:20.999Z</time></trkpt><trkpt lat="46.48816123940254" lon="12.450873002430955"><ele>746.3333333333334</ele><time>2026-04-06T12:45:21.999Z</time></trkpt><trkpt lat="46.4883315963643" lon="12.450886279705141"><ele>750.0</ele><time>2026-04-06T12:45:22.999Z</time></trkpt><trkpt lat="46.488502326361456" lon="12.450895202478927"><ele>750.0</ele><time>2026-04-06T12:45:23.999Z</time></trkpt><trkpt lat="46.488671723360824" lon="12.450901042208072"><ele>750.0</ele><time>2026-04-06T12:45:24.999Z</time></trkpt><trkpt lat="46.488841900366126" lon="12.45091135862662"><ele>750.0</ele><time>2026-04-06T12:45:25.999Z</time></trkpt><trkpt lat="46.4890151445504" lon="12.45093122852555"><ele>750.0</ele><time>2026-04-06T12:45:26.999Z</time></trkpt><trkpt lat="46.48917682849995" lon="12.450968620478529"><ele>750.0</ele><time>2026-04-06T12:45:27.999Z</time></trkpt><trkpt lat="46.48933151230803" lon="12.451022586582836"><ele>750.0</ele><time>2026-04-06T12:45:28.999Z</time></trkpt><trkpt lat="46.48948611130764" lon="12.451092489464454"><ele>750.0</ele><time>2026-04-06T12:45:29.999Z</time></trkpt><trkpt lat="46.48963704688779" lon="12.451167184815716"><ele>750.0</ele><time>2026-04-06T12:45:30.999Z</time></trkpt><trkpt lat="46.48977991194256" lon="12.451231658694718"><ele>750.0</ele><time>2026-04-06T12:45:31.999Z</time></trkpt><trkpt lat="46.489920444753324" lon="12.451287783149988"><ele>747.25</ele><time>2026-04-06T12:45:32.999Z</time></trkpt><trkpt lat="46.49005595455645" lon="12.451334928085746"><ele>744.5</ele><time>2026-04-06T12:45:33.999Z</time></trkpt><trkpt lat="46.49018872049295" lon="12.451376147651004"><ele>741.75</ele><time>2026-04-06T12:45:34.999Z</time></trkpt><trkpt lat="46.49032084232499" lon="12.45141490896164"><ele>739.0</ele><time>2026-04-06T12:45:35.999Z</time></trkpt><trkpt lat="46.49045033534419" lon="12.45145173229889"><ele>739.0</ele><time>2026-04-06T12:45:36.999Z</time></trkpt><trkpt lat="46.49057707349298" lon="12.451474213830632"><ele>739.0</ele><time>2026-04-06T12:45:37.999Z</time></trkpt><trkpt lat="46.4907124806629" lon="12.451461150529196"><ele>739.0</ele><time>2026-04-06T12:45:38.999Z</time></trkpt><trkpt lat="46.49085214440077" lon="12.451428259265745"><ele>739.0</ele><time>2026-04-06T12:45:39.999Z</time></trkpt><trkpt lat="46.49100453594011" lon="12.451391179027404"><ele>739.0</ele><time>2026-04-06T12:45:40.999Z</time></trkpt><trkpt lat="46.491164429641955" lon="12.451391150058086"><ele>739.0</ele><time>2026-04-06T12:45:41.999Z</time></trkpt><trkpt lat="46.49132766598851" lon="12.45141653699979"><ele>739.0</ele><time>2026-04-06T12:45:42.999Z</time></trkpt><trkpt lat="46.49148720238547" lon="12.45144835111269"><ele>738.6666666666667</ele><time>2026-04-06T12:45:43.999Z</time></trkpt><trkpt lat="46.49164466855868" lon="12.45146649131754"><ele>738.3333333333334</ele><time>2026-04-06T12:45:44.999Z</time></trkpt><trkpt lat="46.49180377516786" lon="12.451469939124443"><ele>738.0</ele><time>2026-04-06T12:45:45.999Z</time></trkpt><trkpt lat="46.49195250912039" lon="12.451460988746696"><ele>739.5</ele><time>2026-04-06T12:45:46.999Z</time></trkpt><trkpt lat="46.49209294044926" lon="12.451446453268915"><ele>741.0</ele><time>2026-04-06T12:45:47.999Z</time></trkpt><trkpt lat="46.492232243361435" lon="12.451435993627808"><ele>742.5</ele><time>2026-04-06T12:45:48.999Z</time></trkpt><trkpt lat="46.4923633358669" lon="12.451435085623796"><ele>744.0</ele><time>2026-04-06T12:45:49.999Z</time></trkpt><trkpt lat="46.49248293074036" lon="12.451445115502706"><ele>744.0</ele><time>2026-04-06T12:45:50.999Z</time></trkpt><trkpt lat="46.49259663428793" lon="12.451469326146"><ele>744.0</ele><time>2026-04-06T12:45:51.999Z</time></trkpt><trkpt lat="46.4927036386635" lon="12.451503578651572"><ele>744.0</ele><time>2026-04-06T12:45:52.999Z</time></trkpt><trkpt lat="46.492810082056025" lon="12.45153501667979"><ele>744.0</ele><time>2026-04-06T12:45:53.999Z</time></trkpt><trkpt lat="46.49291389222458" lon="12.451568254326665"><ele>744.0</ele><time>2026-04-06T12:45:54.999Z</time></trkpt><trkpt lat="46.49300535751204" lon="12.451624545930391"><ele>745.2</ele><time>2026-04-06T12:45:55.999Z</time></trkpt><trkpt lat="46.493077154291925" lon="12.451729992584296"><ele>746.4000000000001</ele><time>2026-04-06T12:45:56.999Z</time></trkpt><trkpt lat="46.49313399483991" lon="12.45186773023698"><ele>747.6</ele><time>2026-04-06T12:45:57.999Z</time></trkpt><trkpt lat="46.49318290985124" lon="12.452007917501563"><ele>748.8</ele><time>2026-04-06T12:45:58.999Z</time></trkpt><trkpt lat="46.49323230276029" lon="12.452131602451711"><ele>750.0</ele><time>2026-04-06T12:45:59.999Z</time></trkpt><trkpt lat="46.493277253622225" lon="12.45224509037221"><ele>750.0</ele><time>2026-04-06T12:46:00.999Z</time></trkpt><trkpt lat="46.493319796209356" lon="12.452348037030053"><ele>750.0</ele><time>2026-04-06T12:46:01.999Z</time></trkpt><trkpt lat="46.49336913060772" lon="12.452432589273114"><ele>750.0</ele><time>2026-04-06T12:46:02.999Z</time></trkpt><trkpt lat="46.493438150825085" lon="12.452490489242415"><ele>750.0</ele><time>2026-04-06T12:46:03.999Z</time></trkpt><trkpt lat="46.49351700732894" lon="12.452510326021747"><ele>750.0</ele><time>2026-04-06T12:46:04.999Z</time></trkpt><trkpt lat="46.49359713494791" lon="12.452504069428322"><ele>750.0</ele><time>2026-04-06T12:46:05.999Z</time></trkpt><trkpt lat="46.493679346732016" lon="12.452482148056536"><ele>749.0</ele><time>2026-04-06T12:46:06.999Z</time></trkpt><trkpt lat="46.49376244790525" lon="12.452448592103115"><ele>748.0</ele><time>2026-04-06T12:46:07.999Z</time></trkpt><trkpt lat="46.493831703006336" lon="12.452397981958566"><ele>747.0</ele><time>2026-04-06T12:46:08.999Z</time></trkpt><trkpt lat="46.49390222429928" lon="12.452344783551341"><ele>746.0</ele><time>2026-04-06T12:46:09.999Z</time></trkpt><trkpt lat="46.4939659403406" lon="12.452300144019365"><ele>745.0</ele><time>2026-04-06T12:46:10.999Z</time></trkpt><trkpt lat="46.49403024132218" lon="12.45226700494702"><ele>744.0</ele><time>2026-04-06T12:46:11.999Z</time></trkpt><trkpt lat="46.49413965560457" lon="12.452261018552974"><ele>744.0</ele><time>2026-04-06T12:46:13.999Z</time></trkpt><trkpt lat="46.49421263830357" lon="12.45234451902086"><ele>744.0</ele><time>2026-04-06T12:46:15.999Z</time></trkpt><trkpt lat="46.4942004878093" lon="12.452524940130765"><ele>744.0</ele><time>2026-04-06T12:46:17.999Z</time></trkpt><trkpt lat="46.49414028182638" lon="12.452587249753782"><ele>744.0</ele><time>2026-04-06T12:46:18.999Z</time></trkpt><trkpt lat="46.49406552421575" lon="12.45259780561995"><ele>744.0</ele><time>2026-04-06T12:46:19.999Z</time></trkpt><trkpt lat="46.49398572543717" lon="12.452592567029145"><ele>744.0</ele><time>2026-04-06T12:46:20.999Z</time></trkpt><trkpt lat="46.49389702622973" lon="12.452594015886737"><ele>744.0</ele><time>2026-04-06T12:46:21.999Z</time></trkpt><trkpt lat="46.493797115820335" lon="12.452593408428319"><ele>744.0</ele><time>2026-04-06T12:46:22.999Z</time></trkpt><trkpt lat="46.493683450852245" lon="12.452587337969268"><ele>744.0</ele><time>2026-04-06T12:46:23.999Z</time></trkpt><trkpt lat="46.49355903710801" lon="12.452581665560594"><ele>744.0</ele><time>2026-04-06T12:46:24.999Z</time></trkpt><trkpt lat="46.49344318015765" lon="12.452580713000824"><ele>744.4000000000001</ele><time>2026-04-06T12:46:25.999Z</time></trkpt><trkpt lat="46.49333265186085" lon="12.45257607364993"><ele>744.8</ele><time>2026-04-06T12:46:27Z</time></trkpt><trkpt lat="46.493226099514864" lon="12.45258658080507"><ele>745.2</ele><time>2026-04-06T12:46:28Z</time></trkpt><trkpt lat="46.493117106592514" lon="12.45262535951754"><ele>745.5999999999999</ele><time>2026-04-06T12:46:29Z</time></trkpt><trkpt lat="46.49301340611575" lon="12.452688683613978"><ele>746.0</ele><time>2026-04-06T12:46:30Z</time></trkpt><trkpt lat="46.49292099037315" lon="12.452765387720824"><ele>746.0</ele><time>2026-04-06T12:46:31Z</time></trkpt><trkpt lat="46.49282363682937" lon="12.452822261516635"><ele>746.0</ele><time>2026-04-06T12:46:32Z</time></trkpt><trkpt lat="46.492716733523785" lon="12.452846866287963"><ele>746.0</ele><time>2026-04-06T12:46:33Z</time></trkpt><trkpt lat="46.49260470467065" lon="12.452843770862046"><ele>746.0</ele><time>2026-04-06T12:46:34Z</time></trkpt><trkpt lat="46.49248431601471" lon="12.452821561612186"><ele>746.0</ele><time>2026-04-06T12:46:35Z</time></trkpt><trkpt lat="46.49235134973244" lon="12.452798533483083"><ele>746.0</ele><time>2026-04-06T12:46:36Z</time></trkpt><trkpt lat="46.49221709299293" lon="12.452795647955258"><ele>746.0</ele><time>2026-04-06T12:46:37Z</time></trkpt><trkpt lat="46.492086247257916" lon="12.452857504767787"><ele>746.0</ele><time>2026-04-06T12:46:38Z</time></trkpt><trkpt lat="46.49194854681999" lon="12.452887997170787"><ele>746.0</ele><time>2026-04-06T12:46:39Z</time></trkpt><trkpt lat="46.49183231018442" lon="12.45299656398405"><ele>750.25</ele><time>2026-04-06T12:46:40Z</time></trkpt><trkpt lat="46.49171557095088" lon="12.453064457758988"><ele>754.5</ele><time>2026-04-06T12:46:41Z</time></trkpt><trkpt lat="46.49161489083702" lon="12.453179161896916"><ele>758.75</ele><time>2026-04-06T12:46:42Z</time></trkpt><trkpt lat="46.491515137642516" lon="12.453275480680754"><ele>763.0</ele><time>2026-04-06T12:46:43Z</time></trkpt><trkpt lat="46.49142647786742" lon="12.45338898528604"><ele>763.0</ele><time>2026-04-06T12:46:44Z</time></trkpt><trkpt lat="46.49134959926217" lon="12.453520519528512"><ele>763.0</ele><time>2026-04-06T12:46:45Z</time></trkpt><trkpt lat="46.49128370129726" lon="12.45366321991068"><ele>763.0</ele><time>2026-04-06T12:46:46Z</time></trkpt><trkpt lat="46.49122512547578" lon="12.453808709693638"><ele>763.0</ele><time>2026-04-06T12:46:47Z</time></trkpt><trkpt lat="46.49116569429013" lon="12.453958429564844"><ele>761.0</ele><time>2026-04-06T12:46:48Z</time></trkpt><trkpt lat="46.49110879545976" lon="12.45411104016962"><ele>759.0</ele><time>2026-04-06T12:46:49Z</time></trkpt><trkpt lat="46.49105197285598" lon="12.454264900372365"><ele>757.0</ele><time>2026-04-06T12:46:50Z</time></trkpt><trkpt lat="46.49097682655743" lon="12.454409258406743"><ele>755.0</ele><time>2026-04-06T12:46:51Z</time></trkpt><trkpt lat="46.49092208432677" lon="12.454586499118127"><ele>757.75</ele><time>2026-04-06T12:46:52Z</time></trkpt><trkpt lat="46.490839206172595" lon="12.454743805206178"><ele>760.5</ele><time>2026-04-06T12:46:53Z</time></trkpt><trkpt lat="46.490779642302485" lon="12.454931855029859"><ele>763.25</ele><time>2026-04-06T12:46:54Z</time></trkpt><trkpt lat="46.490705533664446" lon="12.455112303280028"><ele>766.0</ele><time>2026-04-06T12:46:55Z</time></trkpt><trkpt lat="46.49062405967385" lon="12.455264162450089"><ele>766.0</ele><time>2026-04-06T12:46:56Z</time></trkpt><trkpt lat="46.49057522180918" lon="12.45543011554274"><ele>766.0</ele><time>2026-04-06T12:46:57Z</time></trkpt><trkpt lat="46.490518292013846" lon="12.455582507474448"><ele>766.0</ele><time>2026-04-06T12:46:58Z</time></trkpt><trkpt lat="46.49046755611689" lon="12.455737220141037"><ele>766.0</ele><time>2026-04-06T12:46:59Z</time></trkpt><trkpt lat="46.490423160010366" lon="12.45588969494226"><ele>764.75</ele><time>2026-04-06T12:47:00Z</time></trkpt><trkpt lat="46.49037862626703" lon="12.456034363593368"><ele>763.5</ele><time>2026-04-06T12:47:01Z</time></trkpt><trkpt lat="46.49033518270762" lon="12.456182266118493"><ele>762.25</ele><time>2026-04-06T12:47:02Z</time></trkpt><trkpt lat="46.49027604600486" lon="12.456330294146087"><ele>761.0</ele><time>2026-04-06T12:47:03Z</time></trkpt><trkpt lat="46.49022664302301" lon="12.456492391059378"><ele>761.0</ele><time>2026-04-06T12:47:04Z</time></trkpt><trkpt lat="46.49017623785123" lon="12.456655963880161"><ele>761.0</ele><time>2026-04-06T12:47:05Z</time></trkpt><trkpt lat="46.49012488386046" lon="12.456819012854753"><ele>761.0</ele><time>2026-04-06T12:47:06Z</time></trkpt><trkpt lat="46.49007569294857" lon="12.456971834177738"><ele>761.0</ele><time>2026-04-06T12:47:07Z</time></trkpt><trkpt lat="46.49002729813147" lon="12.457125883575207"><ele>762.4</ele><time>2026-04-06T12:47:08Z</time></trkpt><trkpt lat="46.489981493441505" lon="12.457277556257468"><ele>763.8</ele><time>2026-04-06T12:47:09Z</time></trkpt><trkpt lat="46.48993718074929" lon="12.457424816897847"><ele>765.1999999999999</ele><time>2026-04-06T12:47:10Z</time></trkpt><trkpt lat="46.489895127695064" lon="12.457563803694255"><ele>766.5999999999999</ele><time>2026-04-06T12:47:11Z</time></trkpt><trkpt lat="46.48985551354517" lon="12.457690689448814"><ele>768.0</ele><time>2026-04-06T12:47:12Z</time></trkpt><trkpt lat="46.48981806056615" lon="12.45781065288122"><ele>768.0</ele><time>2026-04-06T12:47:12.999Z</time></trkpt><trkpt lat="46.48978412161069" lon="12.457920470875738"><ele>768.0</ele><time>2026-04-06T12:47:13.999Z</time></trkpt><trkpt lat="46.48975051914776" lon="12.45803483588051"><ele>768.0</ele><time>2026-04-06T12:47:14.999Z</time></trkpt><trkpt lat="46.48971493031954" lon="12.458152976524781"><ele>768.0</ele><time>2026-04-06T12:47:15.999Z</time></trkpt><trkpt lat="46.489702322630094" lon="12.45828809329482"><ele>768.0</ele><time>2026-04-06T12:47:16.999Z</time></trkpt><trkpt lat="46.489664009532206" lon="12.458408624944127"><ele>768.0</ele><time>2026-04-06T12:47:17.999Z</time></trkpt><trkpt lat="46.48962498784579" lon="12.458529888056258"><ele>768.4</ele><time>2026-04-06T12:47:18.999Z</time></trkpt><trkpt lat="46.4895861476669" lon="12.458661771632297"><ele>768.8</ele><time>2026-04-06T12:47:19.999Z</time></trkpt><trkpt lat="46.48951917439875" lon="12.458785469736155"><ele>769.2</ele><time>2026-04-06T12:47:20.999Z</time></trkpt><trkpt lat="46.48947536564831" lon="12.458941749257933"><ele>769.6</ele><time>2026-04-06T12:47:21.999Z</time></trkpt><trkpt lat="46.48943532918952" lon="12.45910745785289"><ele>770.0</ele><time>2026-04-06T12:47:22.999Z</time></trkpt><trkpt lat="46.489400280531186" lon="12.459267811417396"><ele>770.0</ele><time>2026-04-06T12:47:23.999Z</time></trkpt><trkpt lat="46.48936708727373" lon="12.459424778914597"><ele>770.0</ele><time>2026-04-06T12:47:24.999Z</time></trkpt><trkpt lat="46.489334751187826" lon="12.459577849744589"><ele>770.0</ele><time>2026-04-06T12:47:25.999Z</time></trkpt><trkpt lat="46.48930301417921" lon="12.459728084692088"><ele>770.0</ele><time>2026-04-06T12:47:26.999Z</time></trkpt><trkpt lat="46.48927160240905" lon="12.459873471773474"><ele>770.0</ele><time>2026-04-06T12:47:27.999Z</time></trkpt><trkpt lat="46.48923997438098" lon="12.460019793695414"><ele>771.8</ele><time>2026-04-06T12:47:28.999Z</time></trkpt><trkpt lat="46.48920872283686" lon="12.460164373873116"><ele>773.6</ele><time>2026-04-06T12:47:29.999Z</time></trkpt><trkpt lat="46.489177731582025" lon="12.460307750269218"><ele>775.4000000000001</ele><time>2026-04-06T12:47:30.999Z</time></trkpt><trkpt lat="46.48914717286434" lon="12.46044979449008"><ele>777.2</ele><time>2026-04-06T12:47:31.999Z</time></trkpt><trkpt lat="46.489117077625664" lon="12.460592603094286"><ele>779.0</ele><time>2026-04-06T12:47:32.999Z</time></trkpt><trkpt lat="46.489087150855916" lon="12.460734612300008"><ele>780.0</ele><time>2026-04-06T12:47:33.999Z</time></trkpt><trkpt lat="46.489057453246325" lon="12.460875534067192"><ele>781.0</ele><time>2026-04-06T12:47:34.999Z</time></trkpt><trkpt lat="46.48902776527248" lon="12.46101641014261"><ele>782.0</ele><time>2026-04-06T12:47:35.999Z</time></trkpt><trkpt lat="46.48899814705702" lon="12.461156955183736"><ele>783.0</ele><time>2026-04-06T12:47:36.999Z</time></trkpt><trkpt lat="46.48897122271412" lon="12.46128490600602"><ele>784.0</ele><time>2026-04-06T12:47:37.999Z</time></trkpt><trkpt lat="46.488945531580015" lon="12.461407363816841"><ele>784.2</ele><time>2026-04-06T12:47:38.999Z</time></trkpt><trkpt lat="46.48892002073114" lon="12.461528962240493"><ele>784.4000000000001</ele><time>2026-04-06T12:47:39.999Z</time></trkpt><trkpt lat="46.488893939432295" lon="12.461653279830353"><ele>784.6</ele><time>2026-04-06T12:47:40.999Z</time></trkpt><trkpt lat="46.48886829796879" lon="12.461775500822414"><ele>784.8</ele><time>2026-04-06T12:47:41.999Z</time></trkpt><trkpt lat="46.488841567476285" lon="12.461902912784995"><ele>785.0</ele><time>2026-04-06T12:47:42.999Z</time></trkpt><trkpt lat="46.488813778811924" lon="12.462035368511524"><ele>785.6</ele><time>2026-04-06T12:47:43.999Z</time></trkpt><trkpt lat="46.488784554514645" lon="12.462174667814164"><ele>786.2</ele><time>2026-04-06T12:47:44.999Z</time></trkpt><trkpt lat="46.48875532077412" lon="12.462318427230779"><ele>786.8</ele><time>2026-04-06T12:47:45.999Z</time></trkpt><trkpt lat="46.48872547593754" lon="12.462463833711245"><ele>787.4</ele><time>2026-04-06T12:47:46.999Z</time></trkpt><trkpt lat="46.488697076292425" lon="12.462602199131192"><ele>788.0</ele><time>2026-04-06T12:47:47.999Z</time></trkpt><trkpt lat="46.48867036973295" lon="12.462738712868422"><ele>785.2</ele><time>2026-04-06T12:47:48.999Z</time></trkpt><trkpt lat="46.48864708289392" lon="12.462866459143306"><ele>782.4</ele><time>2026-04-06T12:47:49.999Z</time></trkpt><trkpt lat="46.48863609100857" lon="12.46299886273308"><ele>779.6</ele><time>2026-04-06T12:47:50.999Z</time></trkpt><trkpt lat="46.48865990983286" lon="12.46313469066394"><ele>776.8000000000001</ele><time>2026-04-06T12:47:51.999Z</time></trkpt><trkpt lat="46.48869390597078" lon="12.463251180769953"><ele>774.0</ele><time>2026-04-06T12:47:52.999Z</time></trkpt><trkpt lat="46.48875661023137" lon="12.463342821953868"><ele>775.8571428571429</ele><time>2026-04-06T12:47:53.999Z</time></trkpt><trkpt lat="46.48882040342" lon="12.463429505600352"><ele>777.7142857142858</ele><time>2026-04-06T12:47:54.999Z</time></trkpt><trkpt lat="46.48888680449252" lon="12.46349546516899"><ele>779.5714285714286</ele><time>2026-04-06T12:47:55.999Z</time></trkpt><trkpt lat="46.48894295021792" lon="12.463562048812767"><ele>781.4285714285714</ele><time>2026-04-06T12:47:56.999Z</time></trkpt><trkpt lat="46.488975862251735" lon="12.463649292334466"><ele>783.2857142857142</ele><time>2026-04-06T12:47:57.999Z</time></trkpt><trkpt lat="46.48898340684877" lon="12.463746854407596"><ele>785.1428571428571</ele><time>2026-04-06T12:47:58.999Z</time></trkpt><trkpt lat="46.48894860444126" lon="12.463833869797151"><ele>787.0</ele><time>2026-04-06T12:47:59.999Z</time></trkpt><trkpt lat="46.48890750220844" lon="12.46390520809656"><ele>787.3333333333333</ele><time>2026-04-06T12:48:00.999Z</time></trkpt><trkpt lat="46.48887408198212" lon="12.463994809009895"><ele>787.6666666666666</ele><time>2026-04-06T12:48:01.999Z</time></trkpt><trkpt lat="46.488763807306896" lon="12.464094728513835"><ele>788.0</ele><time>2026-04-06T12:48:03.999Z</time></trkpt><trkpt lat="46.48869871078401" lon="12.46414408231172"><ele>788.3333333333333</ele><time>2026-04-06T12:48:04.999Z</time></trkpt><trkpt lat="46.488617813810805" lon="12.464112798538068"><ele>788.6666666666666</ele><time>2026-04-06T12:48:05.999Z</time></trkpt><trkpt lat="46.48854184672529" lon="12.464064795079022"><ele>789.0</ele><time>2026-04-06T12:48:06.999Z</time></trkpt><trkpt lat="46.48845060478812" lon="12.46401689296768"><ele>787.0</ele><time>2026-04-06T12:48:07.999Z</time></trkpt><trkpt lat="46.488349773759005" lon="12.463964225742155"><ele>785.0</ele><time>2026-04-06T12:48:08.999Z</time></trkpt><trkpt lat="46.48825587261175" lon="12.463906290464527"><ele>783.0</ele><time>2026-04-06T12:48:09.999Z</time></trkpt><trkpt lat="46.48816021967665" lon="12.463855014814301"><ele>781.0</ele><time>2026-04-06T12:48:10.999Z</time></trkpt><trkpt lat="46.488066380402465" lon="12.463800016153266"><ele>779.0</ele><time>2026-04-06T12:48:11.999Z</time></trkpt><trkpt lat="46.48796691025611" lon="12.463790962263952"><ele>776.8333333333334</ele><time>2026-04-06T12:48:12.999Z</time></trkpt><trkpt lat="46.48789274154939" lon="12.463816748928899"><ele>774.6666666666667</ele><time>2026-04-06T12:48:13.999Z</time></trkpt><trkpt lat="46.48781595192216" lon="12.463886270790054"><ele>772.5</ele><time>2026-04-06T12:48:14.999Z</time></trkpt><trkpt lat="46.48775665566704" lon="12.463973053191511"><ele>770.3333333333334</ele><time>2026-04-06T12:48:15.999Z</time></trkpt><trkpt lat="46.48773037764461" lon="12.46409977149651"><ele>768.1666666666667</ele><time>2026-04-06T12:48:16.999Z</time></trkpt><trkpt lat="46.48771412532257" lon="12.464228301544308"><ele>766.0</ele><time>2026-04-06T12:48:17.999Z</time></trkpt><trkpt lat="46.48771748442367" lon="12.464365076948196"><ele>766.0</ele><time>2026-04-06T12:48:18.999Z</time></trkpt><trkpt lat="46.48771578263686" lon="12.464529860279443"><ele>766.0</ele><time>2026-04-06T12:48:19.999Z</time></trkpt><trkpt lat="46.48773301168072" lon="12.464713804584827"><ele>766.0</ele><time>2026-04-06T12:48:20.999Z</time></trkpt><trkpt lat="46.487757650587284" lon="12.464922996822406"><ele>766.0</ele><time>2026-04-06T12:48:21.999Z</time></trkpt><trkpt lat="46.48778813599651" lon="12.4651328041712"><ele>766.25</ele><time>2026-04-06T12:48:22.999Z</time></trkpt><trkpt lat="46.48783726541954" lon="12.465327499950764"><ele>766.5</ele><time>2026-04-06T12:48:23.999Z</time></trkpt><trkpt lat="46.48788466955348" lon="12.46552715686352"><ele>766.75</ele><time>2026-04-06T12:48:24.999Z</time></trkpt><trkpt lat="46.487921923035536" lon="12.465710442819967"><ele>767.0</ele><time>2026-04-06T12:48:25.999Z</time></trkpt><trkpt lat="46.487968302962045" lon="12.465868223676296"><ele>769.8</ele><time>2026-04-06T12:48:26.999Z</time></trkpt><trkpt lat="46.48801025527844" lon="12.466015064510536"><ele>772.6</ele><time>2026-04-06T12:48:27.999Z</time></trkpt><trkpt lat="46.48804611903952" lon="12.466164279532281"><ele>775.4</ele><time>2026-04-06T12:48:28.999Z</time></trkpt><trkpt lat="46.48808036737714" lon="12.466316102503637"><ele>778.1999999999999</ele><time>2026-04-06T12:48:29.999Z</time></trkpt><trkpt lat="46.48807074392986" lon="12.466480960968108"><ele>781.0</ele><time>2026-04-06T12:48:30.999Z</time></trkpt><trkpt lat="46.48804048854824" lon="12.466629912295458"><ele>781.1999999999999</ele><time>2026-04-06T12:48:31.999Z</time></trkpt><trkpt lat="46.488006320268916" lon="12.466769445738697"><ele>781.4</ele><time>2026-04-06T12:48:33Z</time></trkpt><trkpt lat="46.487989782284934" lon="12.466906930055643"><ele>781.6</ele><time>2026-04-06T12:48:34Z</time></trkpt><trkpt lat="46.487995922721986" lon="12.467056248554846"><ele>781.8</ele><time>2026-04-06T12:48:35Z</time></trkpt><trkpt lat="46.48801787084643" lon="12.46719835514283"><ele>782.0</ele><time>2026-04-06T12:48:36Z</time></trkpt><trkpt lat="46.48804006252719" lon="12.46732390310565"><ele>780.5000000000001</ele><time>2026-04-06T12:48:37Z</time></trkpt><trkpt lat="46.48805549996781" lon="12.467444030604971"><ele>779.0</ele><time>2026-04-06T12:48:38Z</time></trkpt><trkpt lat="46.48806079299987" lon="12.467561339307345"><ele>777.5</ele><time>2026-04-06T12:48:39Z</time></trkpt><trkpt lat="46.48805194802958" lon="12.467679001567381"><ele>776.0</ele><time>2026-04-06T12:48:40Z</time></trkpt><trkpt lat="46.48802272836271" lon="12.467792815223854"><ele>774.5000000000001</ele><time>2026-04-06T12:48:41Z</time></trkpt><trkpt lat="46.48797360922578" lon="12.467888308384813"><ele>773.0</ele><time>2026-04-06T12:48:42Z</time></trkpt><trkpt lat="46.487905406481964" lon="12.467960098226273"><ele>773.0000000000001</ele><time>2026-04-06T12:48:43Z</time></trkpt><trkpt lat="46.48783042659246" lon="12.468018211691534"><ele>773.0</ele><time>2026-04-06T12:48:44Z</time></trkpt><trkpt lat="46.4877489763357" lon="12.468074055744125"><ele>773.0</ele><time>2026-04-06T12:48:45Z</time></trkpt><trkpt lat="46.48766707412048" lon="12.468121816148951"><ele>773.0</ele><time>2026-04-06T12:48:46Z</time></trkpt><trkpt lat="46.48758929954275" lon="12.4681606535495"><ele>773.0000000000001</ele><time>2026-04-06T12:48:47Z</time></trkpt><trkpt lat="46.48751389205337" lon="12.468155171865039"><ele>773.0</ele><time>2026-04-06T12:48:48Z</time></trkpt><trkpt lat="46.48744468446435" lon="12.468094071826926"><ele>773.0000000000001</ele><time>2026-04-06T12:48:49Z</time></trkpt><trkpt lat="46.48739759858751" lon="12.468003904853425"><ele>773.0</ele><time>2026-04-06T12:48:50Z</time></trkpt><trkpt lat="46.487345097538366" lon="12.467918315376586"><ele>773.0</ele><time>2026-04-06T12:48:51Z</time></trkpt><trkpt lat="46.487287992980896" lon="12.467834945978252"><ele>773.0</ele><time>2026-04-06T12:48:52Z</time></trkpt><trkpt lat="46.48723594588393" lon="12.467750465041659"><ele>773.0000000000001</ele><time>2026-04-06T12:48:53Z</time></trkpt><trkpt lat="46.487198493570816" lon="12.46765205664773"><ele>773.0</ele><time>2026-04-06T12:48:54Z</time></trkpt><trkpt lat="46.487197240155425" lon="12.4675366447056"><ele>771.2</ele><time>2026-04-06T12:48:55Z</time></trkpt><trkpt lat="46.48720776212705" lon="12.467417993959753"><ele>769.4</ele><time>2026-04-06T12:48:56Z</time></trkpt><trkpt lat="46.48721244275877" lon="12.467275388812613"><ele>767.6</ele><time>2026-04-06T12:48:57Z</time></trkpt><trkpt lat="46.48720419846827" lon="12.46710489759207"><ele>765.8000000000001</ele><time>2026-04-06T12:48:58Z</time></trkpt><trkpt lat="46.48718562205895" lon="12.466910459897681"><ele>764.0</ele><time>2026-04-06T12:48:59Z</time></trkpt><trkpt lat="46.48714786277255" lon="12.466697800956387"><ele>775.3333333333333</ele><time>2026-04-06T12:49:00Z</time></trkpt><trkpt lat="46.48709387126544" lon="12.466453956576556"><ele>786.6666666666666</ele><time>2026-04-06T12:49:01Z</time></trkpt><trkpt lat="46.48702856252911" lon="12.466171218433384"><ele>798.0</ele><time>2026-04-06T12:49:02Z</time></trkpt><trkpt lat="46.48696638952215" lon="12.465914815365931"><ele>798.0</ele><time>2026-04-06T12:49:03Z</time></trkpt><trkpt lat="46.486905935108226" lon="12.465702824067574"><ele>798.0</ele><time>2026-04-06T12:49:04Z</time></trkpt><trkpt lat="46.486851879606924" lon="12.465487091158344"><ele>798.0</ele><time>2026-04-06T12:49:05Z</time></trkpt><trkpt lat="46.48682693458124" lon="12.465280041006197"><ele>796.0</ele><time>2026-04-06T12:49:06Z</time></trkpt><trkpt lat="46.486807820169524" lon="12.465077145476817"><ele>794.0</ele><time>2026-04-06T12:49:07Z</time></trkpt><trkpt lat="46.486789183390776" lon="12.464878997001877"><ele>792.0</ele><time>2026-04-06T12:49:08Z</time></trkpt><trkpt lat="46.48676658037908" lon="12.464663998050012"><ele>790.0</ele><time>2026-04-06T12:49:09Z</time></trkpt><trkpt lat="46.48673319220104" lon="12.464460005713951"><ele>788.0</ele><time>2026-04-06T12:49:10Z</time></trkpt><trkpt lat="46.486690942681406" lon="12.464277484000101"><ele>786.0</ele><time>2026-04-06T12:49:11Z</time></trkpt><trkpt lat="46.48664921535941" lon="12.46411273417855"><ele>784.0</ele><time>2026-04-06T12:49:12Z</time></trkpt><trkpt lat="46.48660169877499" lon="12.463948076768661"><ele>782.0</ele><time>2026-04-06T12:49:13Z</time></trkpt><trkpt lat="46.48654470795131" lon="12.463801939498275"><ele>780.75</ele><time>2026-04-06T12:49:14Z</time></trkpt><trkpt lat="46.48646426351893" lon="12.463658911473562"><ele>779.5</ele><time>2026-04-06T12:49:15Z</time></trkpt><trkpt lat="46.48636485966276" lon="12.46352193447678"><ele>778.25</ele><time>2026-04-06T12:49:16Z</time></trkpt><trkpt lat="46.48625327987505" lon="12.46339139213489"><ele>777.0</ele><time>2026-04-06T12:49:16.999Z</time></trkpt><trkpt lat="46.486145748087104" lon="12.46325707468918"><ele>782.75</ele><time>2026-04-06T12:49:17.999Z</time></trkpt><trkpt lat="46.48605153732507" lon="12.46310123039475"><ele>788.5</ele><time>2026-04-06T12:49:18.999Z</time></trkpt><trkpt lat="46.485969531037156" lon="12.46291898461646"><ele>794.25</ele><time>2026-04-06T12:49:19.999Z</time></trkpt><trkpt lat="46.48590069129502" lon="12.462722916638752"><ele>800.0</ele><time>2026-04-06T12:49:20.999Z</time></trkpt><trkpt lat="46.48584597979107" lon="12.46251408394076"><ele>800.0</ele><time>2026-04-06T12:49:21.999Z</time></trkpt><trkpt lat="46.485801310758134" lon="12.462292507956914"><ele>800.0</ele><time>2026-04-06T12:49:22.999Z</time></trkpt><trkpt lat="46.48577161833543" lon="12.462066330515283"><ele>800.0</ele><time>2026-04-06T12:49:23.999Z</time></trkpt><trkpt lat="46.48575029299916" lon="12.461840785630297"><ele>798.0</ele><time>2026-04-06T12:49:24.999Z</time></trkpt><trkpt lat="46.48573191948422" lon="12.461628947825048"><ele>796.0</ele><time>2026-04-06T12:49:25.999Z</time></trkpt><trkpt lat="46.48571145691658" lon="12.461408637187635"><ele>794.0</ele><time>2026-04-06T12:49:26.999Z</time></trkpt><trkpt lat="46.48568839826581" lon="12.46117982332874"><ele>793.0</ele><time>2026-04-06T12:49:27.999Z</time></trkpt><trkpt lat="46.48565923811399" lon="12.460953910713922"><ele>792.0</ele><time>2026-04-06T12:49:28.999Z</time></trkpt><trkpt lat="46.48563653369865" lon="12.460727398116457"><ele>791.0</ele><time>2026-04-06T12:49:29.999Z</time></trkpt><trkpt lat="46.48561441973412" lon="12.460491737703533"><ele>791.25</ele><time>2026-04-06T12:49:30.999Z</time></trkpt><trkpt lat="46.48559214595269" lon="12.460270227139885"><ele>791.5</ele><time>2026-04-06T12:49:31.999Z</time></trkpt><trkpt lat="46.48557281679291" lon="12.460090013369461"><ele>791.75</ele><time>2026-04-06T12:49:32.999Z</time></trkpt><trkpt lat="46.485556350991814" lon="12.459915369490158"><ele>792.0</ele><time>2026-04-06T12:49:33.999Z</time></trkpt><trkpt lat="46.48554283250009" lon="12.459761889914764"><ele>792.0</ele><time>2026-04-06T12:49:34.999Z</time></trkpt><trkpt lat="46.48553076836421" lon="12.459636190485215"><ele>792.0</ele><time>2026-04-06T12:49:35.999Z</time></trkpt><trkpt lat="46.48551664321747" lon="12.459508380178596"><ele>792.0</ele><time>2026-04-06T12:49:36.999Z</time></trkpt><trkpt lat="46.485505340608846" lon="12.459404665739461"><ele>792.0</ele><time>2026-04-06T12:49:37.999Z</time></trkpt><trkpt lat="46.48547335118548" lon="12.459314944377342"><ele>792.0</ele><time>2026-04-06T12:49:38.999Z</time></trkpt><trkpt lat="46.485407856432" lon="12.459256211025687"><ele>792.0</ele><time>2026-04-06T12:49:39.999Z</time></trkpt><trkpt lat="46.485329912765714" lon="12.459265529717268"><ele>796.6</ele><time>2026-04-06T12:49:40.999Z</time></trkpt><trkpt lat="46.48526063168187" lon="12.459343843129943"><ele>801.2</ele><time>2026-04-06T12:49:41.999Z</time></trkpt><trkpt lat="46.4852192813192" lon="12.459467885219825"><ele>805.8</ele><time>2026-04-06T12:49:42.999Z</time></trkpt><trkpt lat="46.48520066850514" lon="12.459599130721077"><ele>810.4</ele><time>2026-04-06T12:49:43.999Z</time></trkpt><trkpt lat="46.48518649559566" lon="12.459743190656875"><ele>815.0</ele><time>2026-04-06T12:49:44.999Z</time></trkpt><trkpt lat="46.485172848581655" lon="12.459908158413437"><ele>815.0</ele><time>2026-04-06T12:49:45.999Z</time></trkpt><trkpt lat="46.48515322997641" lon="12.460079178034203"><ele>815.0</ele><time>2026-04-06T12:49:46.999Z</time></trkpt><trkpt lat="46.48513402903007" lon="12.460253256080202"><ele>815.0</ele><time>2026-04-06T12:49:47.999Z</time></trkpt><trkpt lat="46.48511735485348" lon="12.460420968035768"><ele>815.0</ele><time>2026-04-06T12:49:48.999Z</time></trkpt><trkpt lat="46.48509915209031" lon="12.460591619188353"><ele>816.5</ele><time>2026-04-06T12:49:49.999Z</time></trkpt><trkpt lat="46.485075862900544" lon="12.460772026290076"><ele>818.0</ele><time>2026-04-06T12:49:50.999Z</time></trkpt><trkpt lat="46.485052328119956" lon="12.460961351933813"><ele>819.5</ele><time>2026-04-06T12:49:51.999Z</time></trkpt><trkpt lat="46.485038385285854" lon="12.461151562244973"><ele>821.0</ele><time>2026-04-06T12:49:52.999Z</time></trkpt><trkpt lat="46.48504182539757" lon="12.461341083759647"><ele>821.75</ele><time>2026-04-06T12:49:53.999Z</time></trkpt><trkpt lat="46.485066408829795" lon="12.461522224836411"><ele>822.5</ele><time>2026-04-06T12:49:54.999Z</time></trkpt><trkpt lat="46.4851082253878" lon="12.461703326022786"><ele>823.25</ele><time>2026-04-06T12:49:55.999Z</time></trkpt><trkpt lat="46.48514070835758" lon="12.461894675465746"><ele>824.0</ele><time>2026-04-06T12:49:56.999Z</time></trkpt><trkpt lat="46.48517125945102" lon="12.46208776835687"><ele>825.0</ele><time>2026-04-06T12:49:57.999Z</time></trkpt><trkpt lat="46.48520229527395" lon="12.46228391618435"><ele>826.0</ele><time>2026-04-06T12:49:58.999Z</time></trkpt><trkpt lat="46.48523509236556" lon="12.462480725724932"><ele>827.0</ele><time>2026-04-06T12:49:59.999Z</time></trkpt><trkpt lat="46.485263527804044" lon="12.4626555783201"><ele>828.0</ele><time>2026-04-06T12:50:00.999Z</time></trkpt><trkpt lat="46.48528615034752" lon="12.462806352884572"><ele>828.0</ele><time>2026-04-06T12:50:01.999Z</time></trkpt><trkpt lat="46.48530571138888" lon="12.462940111116154"><ele>828.0</ele><time>2026-04-06T12:50:02.999Z</time></trkpt><trkpt lat="46.485330770180425" lon="12.463060984234618"><ele>828.0</ele><time>2026-04-06T12:50:03.999Z</time></trkpt><trkpt lat="46.48535538190913" lon="12.46319636140679"><ele>828.0</ele><time>2026-04-06T12:50:04.999Z</time></trkpt><trkpt lat="46.48538772423819" lon="12.463338226611569"><ele>828.0</ele><time>2026-04-06T12:50:05.999Z</time></trkpt><trkpt lat="46.48541742667516" lon="12.46347114925699"><ele>829.8333333333334</ele><time>2026-04-06T12:50:06.999Z</time></trkpt><trkpt lat="46.48543834937882" lon="12.463580084107022"><ele>831.6666666666667</ele><time>2026-04-06T12:50:07.999Z</time></trkpt><trkpt lat="46.48543929775425" lon="12.463696115921188"><ele>833.5</ele><time>2026-04-06T12:50:08.999Z</time></trkpt><trkpt lat="46.48540881393949" lon="12.463797934187623"><ele>835.3333333333334</ele><time>2026-04-06T12:50:09.999Z</time></trkpt><trkpt lat="46.485347809652644" lon="12.463870061072516"><ele>837.1666666666667</ele><time>2026-04-06T12:50:10.999Z</time></trkpt><trkpt lat="46.48527127876202" lon="12.463897220636872"><ele>839.0</ele><time>2026-04-06T12:50:11.999Z</time></trkpt><trkpt lat="46.48519910595331" lon="12.463854298448242"><ele>837.4000000000001</ele><time>2026-04-06T12:50:12.999Z</time></trkpt><trkpt lat="46.48514741849588" lon="12.463751958953342"><ele>835.8</ele><time>2026-04-06T12:50:13.999Z</time></trkpt><trkpt lat="46.485120296073234" lon="12.463608766976085"><ele>834.2</ele><time>2026-04-06T12:50:14.999Z</time></trkpt><trkpt lat="46.48508655580341" lon="12.463446014057961"><ele>832.5999999999999</ele><time>2026-04-06T12:50:15.999Z</time></trkpt><trkpt lat="46.48503604360036" lon="12.463253215169743"><ele>831.0</ele><time>2026-04-06T12:50:16.999Z</time></trkpt><trkpt lat="46.484977862509425" lon="12.4630528271979"><ele>830.0</ele><time>2026-04-06T12:50:17.999Z</time></trkpt><trkpt lat="46.48490933085447" lon="12.462868956478072"><ele>829.0</ele><time>2026-04-06T12:50:18.999Z</time></trkpt><trkpt lat="46.48482422974218" lon="12.46268809844781"><ele>828.0</ele><time>2026-04-06T12:50:19.999Z</time></trkpt><trkpt lat="46.484725147878045" lon="12.46251213672952"><ele>828.0</ele><time>2026-04-06T12:50:20.999Z</time></trkpt><trkpt lat="46.48462325066596" lon="12.462338622107039"><ele>828.0</ele><time>2026-04-06T12:50:21.999Z</time></trkpt><trkpt lat="46.4845228750279" lon="12.462170547675884"><ele>828.0</ele><time>2026-04-06T12:50:22.999Z</time></trkpt><trkpt lat="46.48443195253853" lon="12.462017752662645"><ele>828.0</ele><time>2026-04-06T12:50:23.999Z</time></trkpt><trkpt lat="46.48434476857028" lon="12.461871851260177"><ele>831.75</ele><time>2026-04-06T12:50:24.999Z</time></trkpt><trkpt lat="46.48425923030449" lon="12.46172475563044"><ele>835.5</ele><time>2026-04-06T12:50:25.999Z</time></trkpt><trkpt lat="46.48417743979597" lon="12.461584297020327"><ele>839.25</ele><time>2026-04-06T12:50:26.999Z</time></trkpt><trkpt lat="46.48410080199035" lon="12.461455619422583"><ele>843.0</ele><time>2026-04-06T12:50:27.999Z</time></trkpt><trkpt lat="46.48403164718871" lon="12.46133185788759"><ele>842.0</ele><time>2026-04-06T12:50:28.999Z</time></trkpt><trkpt lat="46.48396060981356" lon="12.461207859354548"><ele>841.0</ele><time>2026-04-06T12:50:29.999Z</time></trkpt><trkpt lat="46.48388826039556" lon="12.461084581437824"><ele>840.0</ele><time>2026-04-06T12:50:30.999Z</time></trkpt><trkpt lat="46.48381410251553" lon="12.460955358239383"><ele>839.0</ele><time>2026-04-06T12:50:31.999Z</time></trkpt><trkpt lat="46.48373825720194" lon="12.460826903214459"><ele>842.25</ele><time>2026-04-06T12:50:32.999Z</time></trkpt><trkpt lat="46.48366483941517" lon="12.460701496737688"><ele>845.5</ele><time>2026-04-06T12:50:33.999Z</time></trkpt><trkpt lat="46.48359278015924" lon="12.460573703883892"><ele>848.75</ele><time>2026-04-06T12:50:34.999Z</time></trkpt><trkpt lat="46.48351921510886" lon="12.460443011523191"><ele>852.0</ele><time>2026-04-06T12:50:35.999Z</time></trkpt><trkpt lat="46.48344076525106" lon="12.46030721329877"><ele>852.0</ele><time>2026-04-06T12:50:36.999Z</time></trkpt><trkpt lat="46.48336135460604" lon="12.460150953151292"><ele>852.0</ele><time>2026-04-06T12:50:37.999Z</time></trkpt><trkpt lat="46.48328125035776" lon="12.459976346702152"><ele>852.0</ele><time>2026-04-06T12:50:39Z</time></trkpt><trkpt lat="46.48320602049098" lon="12.459776018979714"><ele>852.0</ele><time>2026-04-06T12:50:40Z</time></trkpt><trkpt lat="46.48313593843384" lon="12.45955827333117"><ele>852.0</ele><time>2026-04-06T12:50:41Z</time></trkpt><trkpt lat="46.48307060968792" lon="12.459324280633695"><ele>852.0</ele><time>2026-04-06T12:50:42Z</time></trkpt><trkpt lat="46.48300548418601" lon="12.45910142983128"><ele>852.0</ele><time>2026-04-06T12:50:43Z</time></trkpt><trkpt lat="46.48294611971036" lon="12.458905300324112"><ele>853.25</ele><time>2026-04-06T12:50:44Z</time></trkpt><trkpt lat="46.482895384341035" lon="12.458741205321639"><ele>854.5</ele><time>2026-04-06T12:50:45Z</time></trkpt><trkpt lat="46.48284894116247" lon="12.458584877570509"><ele>855.75</ele><time>2026-04-06T12:50:46Z</time></trkpt><trkpt lat="46.482801062804576" lon="12.45842101909986"><ele>857.0</ele><time>2026-04-06T12:50:47Z</time></trkpt><trkpt lat="46.482755990429034" lon="12.458269048362265"><ele>857.0</ele><time>2026-04-06T12:50:48Z</time></trkpt><trkpt lat="46.48271123194298" lon="12.458116543579516"><ele>857.0</ele><time>2026-04-06T12:50:49Z</time></trkpt><trkpt lat="46.4826658448303" lon="12.457958149592692"><ele>857.0</ele><time>2026-04-06T12:50:50Z</time></trkpt><trkpt lat="46.482621890590785" lon="12.457805376697317"><ele>857.0</ele><time>2026-04-06T12:50:51Z</time></trkpt><trkpt lat="46.4825756628104" lon="12.45765447385551"><ele>858.0</ele><time>2026-04-06T12:50:52Z</time></trkpt><trkpt lat="46.48253010964432" lon="12.457506260310847"><ele>859.0</ele><time>2026-04-06T12:50:53Z</time></trkpt><trkpt lat="46.48248633726904" lon="12.457375197005748"><ele>860.0</ele><time>2026-04-06T12:50:54Z</time></trkpt><trkpt lat="46.48243943824131" lon="12.457256785702869"><ele>861.0</ele><time>2026-04-06T12:50:55Z</time></trkpt><trkpt lat="46.482389840327244" lon="12.45715765204064"><ele>862.0</ele><time>2026-04-06T12:50:56Z</time></trkpt><trkpt lat="46.482324449986045" lon="12.457073098573767"><ele>861.9999999999999</ele><time>2026-04-06T12:50:57Z</time></trkpt><trkpt lat="46.48225563718482" lon="12.45698853261316"><ele>862.0</ele><time>2026-04-06T12:50:58Z</time></trkpt><trkpt lat="46.48216571777386" lon="12.456949591519535"><ele>862.0</ele><time>2026-04-06T12:50:59Z</time></trkpt><trkpt lat="46.48207538010799" lon="12.456944310085614"><ele>862.0</ele><time>2026-04-06T12:51:00Z</time></trkpt><trkpt lat="46.48199050708509" lon="12.45698967023739"><ele>861.9999999999999</ele><time>2026-04-06T12:51:01Z</time></trkpt><trkpt lat="46.4819141413532" lon="12.457035613619528"><ele>862.0</ele><time>2026-04-06T12:51:02Z</time></trkpt><trkpt lat="46.481840070007145" lon="12.45710112766101"><ele>863.2</ele><time>2026-04-06T12:51:03Z</time></trkpt><trkpt lat="46.481756920116496" lon="12.457150550142167"><ele>864.4000000000001</ele><time>2026-04-06T12:51:04Z</time></trkpt><trkpt lat="46.48167820017123" lon="12.457227159482498"><ele>865.5999999999999</ele><time>2026-04-06T12:51:05Z</time></trkpt><trkpt lat="46.481600571669695" lon="12.457331520378968"><ele>866.8</ele><time>2026-04-06T12:51:06Z</time></trkpt><trkpt lat="46.48150388444975" lon="12.457423425394845"><ele>868.0</ele><time>2026-04-06T12:51:07Z</time></trkpt><trkpt lat="46.48139795232713" lon="12.457520409991119"><ele>868.0</ele><time>2026-04-06T12:51:08Z</time></trkpt><trkpt lat="46.48129240844693" lon="12.457623759217736"><ele>868.0</ele><time>2026-04-06T12:51:09Z</time></trkpt><trkpt lat="46.48118244288419" lon="12.45770154030136"><ele>868.0</ele><time>2026-04-06T12:51:10Z</time></trkpt><trkpt lat="46.481089819170194" lon="12.457792934113423"><ele>868.0</ele><time>2026-04-06T12:51:11Z</time></trkpt><trkpt lat="46.48100154421669" lon="12.45788003751777"><ele>870.8</ele><time>2026-04-06T12:51:12Z</time></trkpt><trkpt lat="46.48091598652699" lon="12.457966368792256"><ele>873.5999999999999</ele><time>2026-04-06T12:51:13Z</time></trkpt><trkpt lat="46.480830708626236" lon="12.458051732001996"><ele>876.4000000000001</ele><time>2026-04-06T12:51:14Z</time></trkpt><trkpt lat="46.480746859998646" lon="12.45813566449539"><ele>879.2</ele><time>2026-04-06T12:51:15Z</time></trkpt><trkpt lat="46.48067331358368" lon="12.458209867190705"><ele>882.0</ele><time>2026-04-06T12:51:16Z</time></trkpt><trkpt lat="46.48061442886711" lon="12.458269260619488"><ele>882.0</ele><time>2026-04-06T12:51:17Z</time></trkpt><trkpt lat="46.48055681995663" lon="12.4583273671354"><ele>882.0</ele><time>2026-04-06T12:51:18Z</time></trkpt><trkpt lat="46.480502297392675" lon="12.45838236137952"><ele>882.0</ele><time>2026-04-06T12:51:19Z</time></trkpt><trkpt lat="46.480439497350076" lon="12.458503042038252"><ele>882.0</ele><time>2026-04-06T12:51:20.999Z</time></trkpt><trkpt lat="46.48038273883961" lon="12.458590995102501"><ele>882.0</ele><time>2026-04-06T12:51:22.999Z</time></trkpt><trkpt lat="46.48030718250015" lon="12.458641023102548"><ele>882.0</ele><time>2026-04-06T12:51:25.999Z</time></trkpt><trkpt lat="46.480237384564695" lon="12.458670568398546"><ele>889.0</ele><time>2026-04-06T12:51:28.999Z</time></trkpt></trkseg><trkseg><trkpt lat="46.4802777731946" lon="12.458739026062416"><ele>889.2</ele><time>2026-04-06T13:31:15Z</time></trkpt><trkpt lat="46.48022498712583" lon="12.45888201970217"><ele>889.4000000000001</ele><time>2026-04-06T13:31:17Z</time></trkpt><trkpt lat="46.480151128969005" lon="12.459007867317805"><ele>889.6</ele><time>2026-04-06T13:31:19Z</time></trkpt><trkpt lat="46.48008004839834" lon="12.459125365730378"><ele>889.8</ele><time>2026-04-06T13:31:21Z</time></trkpt><trkpt lat="46.48001550075253" lon="12.459229769685603"><ele>890.0</ele><time>2026-04-06T13:31:23Z</time></trkpt><trkpt lat="46.47993057101705" lon="12.45935005576546"><ele>890.0</ele><time>2026-04-06T13:31:25Z</time></trkpt><trkpt lat="46.479867168694774" lon="12.459477391146915"><ele>890.0</ele><time>2026-04-06T13:31:27Z</time></trkpt><trkpt lat="46.47979222547903" lon="12.459607298425338"><ele>890.0</ele><time>2026-04-06T13:31:29Z</time></trkpt><trkpt lat="46.4797433363407" lon="12.459680931762048"><ele>890.0</ele><time>2026-04-06T13:31:30Z</time></trkpt><trkpt lat="46.47969379008429" lon="12.459763812627033"><ele>890.0</ele><time>2026-04-06T13:31:31Z</time></trkpt><trkpt lat="46.47963781994582" lon="12.459859486456004"><ele>890.0</ele><time>2026-04-06T13:31:32Z</time></trkpt><trkpt lat="46.47959149657883" lon="12.459975234655174"><ele>890.0</ele><time>2026-04-06T13:31:33Z</time></trkpt><trkpt lat="46.47956465377053" lon="12.4601137921708"><ele>890.0</ele><time>2026-04-06T13:31:34Z</time></trkpt><trkpt lat="46.479544038871886" lon="12.460263949785542"><ele>890.0</ele><time>2026-04-06T13:31:35Z</time></trkpt><trkpt lat="46.47952502294575" lon="12.460425701690344"><ele>890.0</ele><time>2026-04-06T13:31:36Z</time></trkpt><trkpt lat="46.479517138622825" lon="12.460582557750365"><ele>890.3333333333334</ele><time>2026-04-06T13:31:37Z</time></trkpt><trkpt lat="46.47951658784255" lon="12.460728504648948"><ele>890.6666666666667</ele><time>2026-04-06T13:31:38Z</time></trkpt><trkpt lat="46.47949052933163" lon="12.460854114299309"><ele>891.0</ele><time>2026-04-06T13:31:39Z</time></trkpt><trkpt lat="46.47944167644352" lon="12.460942225037902"><ele>891.3333333333333</ele><time>2026-04-06T13:31:40Z</time></trkpt><trkpt lat="46.4793669576853" lon="12.460991229143248"><ele>891.6666666666666</ele><time>2026-04-06T13:31:41Z</time></trkpt><trkpt lat="46.47928061006857" lon="12.460994023894592"><ele>892.0</ele><time>2026-04-06T13:31:42Z</time></trkpt><trkpt lat="46.47918594654028" lon="12.460959988945943"><ele>892.0</ele><time>2026-04-06T13:31:43Z</time></trkpt><trkpt lat="46.47908805404752" lon="12.460889891290325"><ele>892.0</ele><time>2026-04-06T13:31:44Z</time></trkpt><trkpt lat="46.47898629727725" lon="12.460810524865014"><ele>892.0</ele><time>2026-04-06T13:31:45Z</time></trkpt><trkpt lat="46.47887896105273" lon="12.460738031168372"><ele>892.0</ele><time>2026-04-06T13:31:46Z</time></trkpt><trkpt lat="46.478763162707104" lon="12.460667305927172"><ele>890.5</ele><time>2026-04-06T13:31:47Z</time></trkpt><trkpt lat="46.478649637482626" lon="12.460593560408109"><ele>889.0</ele><time>2026-04-06T13:31:48Z</time></trkpt><trkpt lat="46.4785278886618" lon="12.46051993676887"><ele>887.5</ele><time>2026-04-06T13:31:49Z</time></trkpt><trkpt lat="46.47840109520949" lon="12.460441216375912"><ele>886.0</ele><time>2026-04-06T13:31:50Z</time></trkpt><trkpt lat="46.478268759072805" lon="12.460358898030869"><ele>886.0</ele><time>2026-04-06T13:31:51Z</time></trkpt><trkpt lat="46.47813232534056" lon="12.460277701385692"><ele>886.0</ele><time>2026-04-06T13:31:52Z</time></trkpt><trkpt lat="46.478001129533524" lon="12.460199199862409"><ele>886.0</ele><time>2026-04-06T13:31:52.999Z</time></trkpt><trkpt lat="46.477882633364096" lon="12.46012577648404"><ele>886.0</ele><time>2026-04-06T13:31:53.999Z</time></trkpt><trkpt lat="46.47777684699629" lon="12.460053970651867"><ele>887.5999999999999</ele><time>2026-04-06T13:31:54.999Z</time></trkpt><trkpt lat="46.47767364572224" lon="12.459992526287666"><ele>889.1999999999999</ele><time>2026-04-06T13:31:55.999Z</time></trkpt><trkpt lat="46.47756725310816" lon="12.459969445234064"><ele>890.8000000000001</ele><time>2026-04-06T13:31:56.999Z</time></trkpt><trkpt lat="46.47747471284044" lon="12.459971971926198"><ele>892.4000000000001</ele><time>2026-04-06T13:31:57.999Z</time></trkpt><trkpt lat="46.47739787268648" lon="12.45999045141526"><ele>894.0</ele><time>2026-04-06T13:31:58.999Z</time></trkpt><trkpt lat="46.477332220160676" lon="12.460027461274265"><ele>894.0</ele><time>2026-04-06T13:31:59.999Z</time></trkpt><trkpt lat="46.47726661389081" lon="12.460070599281657"><ele>894.0</ele><time>2026-04-06T13:32:00.999Z</time></trkpt><trkpt lat="46.477196565628034" lon="12.460103049413638"><ele>894.0</ele><time>2026-04-06T13:32:01.999Z</time></trkpt><trkpt lat="46.47713655699416" lon="12.460174816236407"><ele>894.0</ele><time>2026-04-06T13:32:02.999Z</time></trkpt><trkpt lat="46.4770801780137" lon="12.460268329453974"><ele>894.0</ele><time>2026-04-06T13:32:03.999Z</time></trkpt><trkpt lat="46.47703410551667" lon="12.46038975163711"><ele>894.0</ele><time>2026-04-06T13:32:04.999Z</time></trkpt><trkpt lat="46.4769691221408" lon="12.460502148823762"><ele>895.0</ele><time>2026-04-06T13:32:05.999Z</time></trkpt><trkpt lat="46.47690454469371" lon="12.460618639682673"><ele>896.0000000000001</ele><time>2026-04-06T13:32:06.999Z</time></trkpt><trkpt lat="46.476843091779344" lon="12.46073417144995"><ele>897.0000000000001</ele><time>2026-04-06T13:32:07.999Z</time></trkpt><trkpt lat="46.47677978769265" lon="12.460850605937816"><ele>898.0</ele><time>2026-04-06T13:32:08.999Z</time></trkpt><trkpt lat="46.476714782159874" lon="12.46097086841168"><ele>899.0</ele><time>2026-04-06T13:32:09.999Z</time></trkpt><trkpt lat="46.47664964468397" lon="12.461097044932206"><ele>899.0</ele><time>2026-04-06T13:32:10.999Z</time></trkpt><trkpt lat="46.47657424927389" lon="12.461197904040377"><ele>899.0000000000001</ele><time>2026-04-06T13:32:11.999Z</time></trkpt><trkpt lat="46.476518700400824" lon="12.461294910398388"><ele>899.0000000000001</ele><time>2026-04-06T13:32:12.999Z</time></trkpt><trkpt lat="46.47645903988906" lon="12.461383460567248"><ele>899.0</ele><time>2026-04-06T13:32:13.999Z</time></trkpt><trkpt lat="46.47638341399666" lon="12.461453844596816"><ele>899.0</ele><time>2026-04-06T13:32:14.999Z</time></trkpt><trkpt lat="46.47629096279003" lon="12.461523789096018"><ele>899.6</ele><time>2026-04-06T13:32:15.999Z</time></trkpt><trkpt lat="46.47618966909909" lon="12.461569633954804"><ele>900.2</ele><time>2026-04-06T13:32:16.999Z</time></trkpt><trkpt lat="46.47609792529863" lon="12.461623363194208"><ele>900.8000000000001</ele><time>2026-04-06T13:32:17.999Z</time></trkpt><trkpt lat="46.47601722398853" lon="12.461697152502557"><ele>901.4000000000001</ele><time>2026-04-06T13:32:18.999Z</time></trkpt><trkpt lat="46.475952182507534" lon="12.461801515359321"><ele>902.0</ele><time>2026-04-06T13:32:19.999Z</time></trkpt><trkpt lat="46.47590142332014" lon="12.461918991481854"><ele>902.0</ele><time>2026-04-06T13:32:20.999Z</time></trkpt><trkpt lat="46.47586525394772" lon="12.462046996185276"><ele>902.0</ele><time>2026-04-06T13:32:21.999Z</time></trkpt><trkpt lat="46.47581497957226" lon="12.46216608543067"><ele>902.0</ele><time>2026-04-06T13:32:22.999Z</time></trkpt><trkpt lat="46.47579689364925" lon="12.462306483677175"><ele>902.0</ele><time>2026-04-06T13:32:23.999Z</time></trkpt><trkpt lat="46.475747518070015" lon="12.462432698087019"><ele>902.0</ele><time>2026-04-06T13:32:24.999Z</time></trkpt><trkpt lat="46.47572669580394" lon="12.462579668178595"><ele>903.75</ele><time>2026-04-06T13:32:25.999Z</time></trkpt><trkpt lat="46.47567548164695" lon="12.462716555458798"><ele>905.5</ele><time>2026-04-06T13:32:26.999Z</time></trkpt><trkpt lat="46.47563493393501" lon="12.462872728888444"><ele>907.25</ele><time>2026-04-06T13:32:27.999Z</time></trkpt><trkpt lat="46.475587617535204" lon="12.463052506156464"><ele>909.0</ele><time>2026-04-06T13:32:28.999Z</time></trkpt><trkpt lat="46.47553709510304" lon="12.463232711078739"><ele>911.0</ele><time>2026-04-06T13:32:29.999Z</time></trkpt><trkpt lat="46.47549936366724" lon="12.463360068745429"><ele>913.0000000000001</ele><time>2026-04-06T13:32:30.999Z</time></trkpt><trkpt lat="46.47546218044814" lon="12.46344832655526"><ele>915.0000000000001</ele><time>2026-04-06T13:32:31.999Z</time></trkpt><trkpt lat="46.475350745134804" lon="12.463474519700057"><ele>917.0</ele><time>2026-04-06T13:32:33.999Z</time></trkpt><trkpt lat="46.475284595511965" lon="12.463454807697618"><ele>919.0</ele><time>2026-04-06T13:32:34.999Z</time></trkpt><trkpt lat="46.47520621712082" lon="12.46335867189313"><ele>919.0</ele><time>2026-04-06T13:32:35.999Z</time></trkpt><trkpt lat="46.47512873282832" lon="12.463252596457234"><ele>919.0</ele><time>2026-04-06T13:32:36.999Z</time></trkpt><trkpt lat="46.47504655340814" lon="12.463154003949077"><ele>919.0</ele><time>2026-04-06T13:32:37.999Z</time></trkpt><trkpt lat="46.4749541497486" lon="12.463037452994499"><ele>919.0</ele><time>2026-04-06T13:32:38.999Z</time></trkpt><trkpt lat="46.47485787719221" lon="12.462906478468584"><ele>917.25</ele><time>2026-04-06T13:32:39.999Z</time></trkpt><trkpt lat="46.47476830283684" lon="12.46277267034615"><ele>915.5</ele><time>2026-04-06T13:32:40.999Z</time></trkpt><trkpt lat="46.474692318259684" lon="12.46261060338065"><ele>913.75</ele><time>2026-04-06T13:32:41.999Z</time></trkpt><trkpt lat="46.474609787708665" lon="12.462434267925664"><ele>912.0</ele><time>2026-04-06T13:32:42.999Z</time></trkpt><trkpt lat="46.47452189015839" lon="12.462245234199443"><ele>924.6666666666667</ele><time>2026-04-06T13:32:43.999Z</time></trkpt><trkpt lat="46.474430997510716" lon="12.462047462805316"><ele>937.3333333333334</ele><time>2026-04-06T13:32:44.999Z</time></trkpt><trkpt lat="46.47435633359698" lon="12.461854648064953"><ele>950.0</ele><time>2026-04-06T13:32:45.999Z</time></trkpt><trkpt lat="46.474298707417056" lon="12.46165574171979"><ele>950.0</ele><time>2026-04-06T13:32:46.999Z</time></trkpt><trkpt lat="46.47425360119081" lon="12.461453130441884"><ele>950.0</ele><time>2026-04-06T13:32:47.999Z</time></trkpt><trkpt lat="46.47420676085777" lon="12.46126082266697"><ele>950.0</ele><time>2026-04-06T13:32:48.999Z</time></trkpt><trkpt lat="46.47415407317003" lon="12.461086732800554"><ele>950.0</ele><time>2026-04-06T13:32:49.999Z</time></trkpt><trkpt lat="46.474110278223016" lon="12.460917829790997"><ele>952.0</ele><time>2026-04-06T13:32:50.999Z</time></trkpt><trkpt lat="46.474062532728794" lon="12.460759091509319"><ele>954.0</ele><time>2026-04-06T13:32:51.999Z</time></trkpt><trkpt lat="46.47399363039022" lon="12.46063270490215"><ele>956.0</ele><time>2026-04-06T13:32:52.999Z</time></trkpt><trkpt lat="46.47391712979177" lon="12.460541622575052"><ele>958.0</ele><time>2026-04-06T13:32:53.999Z</time></trkpt><trkpt lat="46.47382864499609" lon="12.460475731161615"><ele>960.0</ele><time>2026-04-06T13:32:54.999Z</time></trkpt><trkpt lat="46.473729314140094" lon="12.460451941291446"><ele>960.0</ele><time>2026-04-06T13:32:55.999Z</time></trkpt><trkpt lat="46.47363007801423" lon="12.460453990792228"><ele>960.0</ele><time>2026-04-06T13:32:56.999Z</time></trkpt><trkpt lat="46.47354253729742" lon="12.460432078526383"><ele>960.0</ele><time>2026-04-06T13:32:58Z</time></trkpt><trkpt lat="46.47346147155713" lon="12.460359049153606"><ele>960.0</ele><time>2026-04-06T13:32:59Z</time></trkpt><trkpt lat="46.4733982901137" lon="12.46024244683981"><ele>960.0</ele><time>2026-04-06T13:33:00Z</time></trkpt><trkpt lat="46.473345113437475" lon="12.46011255223973"><ele>961.2</ele><time>2026-04-06T13:33:01Z</time></trkpt><trkpt lat="46.473287585653416" lon="12.460000755194377"><ele>962.4</ele><time>2026-04-06T13:33:02Z</time></trkpt><trkpt lat="46.473226590347416" lon="12.459900556484216"><ele>963.5999999999999</ele><time>2026-04-06T13:33:03Z</time></trkpt><trkpt lat="46.47313910639566" lon="12.459827582303125"><ele>964.8</ele><time>2026-04-06T13:33:04Z</time></trkpt><trkpt lat="46.47303118499082" lon="12.459769259235054"><ele>966.0</ele><time>2026-04-06T13:33:05Z</time></trkpt><trkpt lat="46.472915113236674" lon="12.459707920841923"><ele>966.0</ele><time>2026-04-06T13:33:06Z</time></trkpt><trkpt lat="46.472792514961114" lon="12.459638842011474"><ele>966.0</ele><time>2026-04-06T13:33:07Z</time></trkpt><trkpt lat="46.47266896108838" lon="12.45956482939426"><ele>966.0</ele><time>2026-04-06T13:33:08Z</time></trkpt><trkpt lat="46.47255120246286" lon="12.459480829926473"><ele>966.0</ele><time>2026-04-06T13:33:09Z</time></trkpt><trkpt lat="46.47244004956862" lon="12.459382510846382"><ele>960.25</ele><time>2026-04-06T13:33:10Z</time></trkpt><trkpt lat="46.47234080570794" lon="12.459260544698266"><ele>954.5</ele><time>2026-04-06T13:33:11Z</time></trkpt><trkpt lat="46.4722511694396" lon="12.459119107266162"><ele>948.75</ele><time>2026-04-06T13:33:12Z</time></trkpt><trkpt lat="46.4721760078555" lon="12.458963716781076"><ele>943.0</ele><time>2026-04-06T13:33:13Z</time></trkpt><trkpt lat="46.472109984652626" lon="12.458809661333069"><ele>945.25</ele><time>2026-04-06T13:33:14Z</time></trkpt><trkpt lat="46.47202871747016" lon="12.458694773671468"><ele>947.5</ele><time>2026-04-06T13:33:15Z</time></trkpt><trkpt lat="46.47193823241607" lon="12.458623575259086"><ele>949.75</ele><time>2026-04-06T13:33:16Z</time></trkpt><trkpt lat="46.471844118345956" lon="12.458523378124783"><ele>952.0</ele><time>2026-04-06T13:33:17Z</time></trkpt><trkpt lat="46.471723498531276" lon="12.458442269203086"><ele>952.0</ele><time>2026-04-06T13:33:18Z</time></trkpt><trkpt lat="46.47158776686552" lon="12.458380328393764"><ele>952.0</ele><time>2026-04-06T13:33:19Z</time></trkpt><trkpt lat="46.47145679657799" lon="12.458291310959094"><ele>952.0</ele><time>2026-04-06T13:33:20Z</time></trkpt><trkpt lat="46.47134562054545" lon="12.458216438831139"><ele>952.0</ele><time>2026-04-06T13:33:21Z</time></trkpt><trkpt lat="46.471240038225396" lon="12.458148014039494"><ele>953.5</ele><time>2026-04-06T13:33:22Z</time></trkpt><trkpt lat="46.471117274663825" lon="12.458116010694987"><ele>955.0</ele><time>2026-04-06T13:33:23Z</time></trkpt><trkpt lat="46.47099191722564" lon="12.458121397929421"><ele>956.5</ele><time>2026-04-06T13:33:24Z</time></trkpt><trkpt lat="46.470870407371" lon="12.45814174913018"><ele>958.0</ele><time>2026-04-06T13:33:25Z</time></trkpt><trkpt lat="46.47074862923994" lon="12.45816510337377"><ele>958.0</ele><time>2026-04-06T13:33:26Z</time></trkpt><trkpt lat="46.47062357544568" lon="12.458182761108219"><ele>958.0</ele><time>2026-04-06T13:33:27Z</time></trkpt><trkpt lat="46.47049233100452" lon="12.458202408507912"><ele>958.0</ele><time>2026-04-06T13:33:28Z</time></trkpt><trkpt lat="46.4703639026205" lon="12.458227481350043"><ele>958.0</ele><time>2026-04-06T13:33:29Z</time></trkpt><trkpt lat="46.47024911494006" lon="12.458268833410752"><ele>956.5</ele><time>2026-04-06T13:33:30Z</time></trkpt><trkpt lat="46.47014036182865" lon="12.458340791048956"><ele>955.0</ele><time>2026-04-06T13:33:31Z</time></trkpt><trkpt lat="46.4700414303117" lon="12.45844150880073"><ele>953.5</ele><time>2026-04-06T13:33:32Z</time></trkpt><trkpt lat="46.46994984513378" lon="12.458553314158609"><ele>952.0</ele><time>2026-04-06T13:33:33Z</time></trkpt><trkpt lat="46.46986659428866" lon="12.45867517408214"><ele>957.0</ele><time>2026-04-06T13:33:34Z</time></trkpt><trkpt lat="46.46978766500247" lon="12.458800455872435"><ele>962.0</ele><time>2026-04-06T13:33:35Z</time></trkpt><trkpt lat="46.469705935763265" lon="12.458929639828055"><ele>967.0</ele><time>2026-04-06T13:33:36Z</time></trkpt><trkpt lat="46.469631685269256" lon="12.459061360626077"><ele>972.0</ele><time>2026-04-06T13:33:37Z</time></trkpt><trkpt lat="46.46958048992383" lon="12.459210984965114"><ele>964.75</ele><time>2026-04-06T13:33:38Z</time></trkpt><trkpt lat="46.46955073028675" lon="12.459373242690702"><ele>957.5</ele><time>2026-04-06T13:33:39Z</time></trkpt><trkpt lat="46.469524681910485" lon="12.459533883645143"><ele>950.25</ele><time>2026-04-06T13:33:40Z</time></trkpt><trkpt lat="46.469494520965426" lon="12.459693250729812"><ele>943.0</ele><time>2026-04-06T13:33:41Z</time></trkpt><trkpt lat="46.46946495086067" lon="12.45986226605497"><ele>943.0</ele><time>2026-04-06T13:33:42Z</time></trkpt><trkpt lat="46.46945573052141" lon="12.460046883115655"><ele>943.0</ele><time>2026-04-06T13:33:43Z</time></trkpt><trkpt lat="46.469466122715104" lon="12.460238029783786"><ele>943.0</ele><time>2026-04-06T13:33:44Z</time></trkpt><trkpt lat="46.46948186665351" lon="12.460419073965184"><ele>943.0</ele><time>2026-04-06T13:33:45Z</time></trkpt><trkpt lat="46.46950541266916" lon="12.46059635168227"><ele>944.5</ele><time>2026-04-06T13:33:46Z</time></trkpt><trkpt lat="46.46953730216583" lon="12.460774080862038"><ele>946.0</ele><time>2026-04-06T13:33:47Z</time></trkpt><trkpt lat="46.46956520158827" lon="12.460956116840674"><ele>947.5</ele><time>2026-04-06T13:33:48Z</time></trkpt><trkpt lat="46.469572919165635" lon="12.461143858246498"><ele>949.0</ele><time>2026-04-06T13:33:49Z</time></trkpt><trkpt lat="46.46957507650595" lon="12.461336046179204"><ele>949.5</ele><time>2026-04-06T13:33:50Z</time></trkpt><trkpt lat="46.46958017341628" lon="12.461530758453565"><ele>950.0</ele><time>2026-04-06T13:33:51Z</time></trkpt><trkpt lat="46.469585215085864" lon="12.461720634160594"><ele>950.5</ele><time>2026-04-06T13:33:52Z</time></trkpt><trkpt lat="46.469588648731154" lon="12.461905412420894"><ele>951.0</ele><time>2026-04-06T13:33:53Z</time></trkpt><trkpt lat="46.469587626548474" lon="12.462088134247734"><ele>951.0</ele><time>2026-04-06T13:33:54Z</time></trkpt><trkpt lat="46.4695831002739" lon="12.462270230506393"><ele>951.0</ele><time>2026-04-06T13:33:55Z</time></trkpt><trkpt lat="46.46956813444835" lon="12.462446203360976"><ele>951.0</ele><time>2026-04-06T13:33:56Z</time></trkpt><trkpt lat="46.46952933413266" lon="12.462626824019338"><ele>951.0</ele><time>2026-04-06T13:33:57Z</time></trkpt><trkpt lat="46.46946971142766" lon="12.46279923256207"><ele>954.5</ele><time>2026-04-06T13:33:58Z</time></trkpt><trkpt lat="46.469391954298125" lon="12.462954441288582"><ele>958.0</ele><time>2026-04-06T13:33:59Z</time></trkpt><trkpt lat="46.46930501558311" lon="12.463101401302"><ele>961.5</ele><time>2026-04-06T13:34:00Z</time></trkpt><trkpt lat="46.46922515224577" lon="12.46324891938608"><ele>965.0</ele><time>2026-04-06T13:34:01Z</time></trkpt><trkpt lat="46.469175080104364" lon="12.463426195607477"><ele>965.0</ele><time>2026-04-06T13:34:02Z</time></trkpt><trkpt lat="46.46913650122266" lon="12.463618862982472"><ele>965.0</ele><time>2026-04-06T13:34:03Z</time></trkpt><trkpt lat="46.46908930846825" lon="12.46381271174896"><ele>965.0</ele><time>2026-04-06T13:34:04Z</time></trkpt><trkpt lat="46.469020271186245" lon="12.464015704633084"><ele>965.0</ele><time>2026-04-06T13:34:04.999Z</time></trkpt><trkpt lat="46.468981606517495" lon="12.464245701015871"><ele>973.0</ele><time>2026-04-06T13:34:05.999Z</time></trkpt><trkpt lat="46.4689208519366" lon="12.4644704013676"><ele>981.0</ele><time>2026-04-06T13:34:06.999Z</time></trkpt><trkpt lat="46.46885871788474" lon="12.464677828286094"><ele>989.0</ele><time>2026-04-06T13:34:07.999Z</time></trkpt><trkpt lat="46.468789194375674" lon="12.464850172508967"><ele>986.25</ele><time>2026-04-06T13:34:08.999Z</time></trkpt><trkpt lat="46.468717258979105" lon="12.465006322559702"><ele>983.5</ele><time>2026-04-06T13:34:09.999Z</time></trkpt><trkpt lat="46.46866441936401" lon="12.465169259594212"><ele>980.75</ele><time>2026-04-06T13:34:10.999Z</time></trkpt><trkpt lat="46.46862917027009" lon="12.465351031581184"><ele>978.0</ele><time>2026-04-06T13:34:11.999Z</time></trkpt><trkpt lat="46.468611918732066" lon="12.465545949054881"><ele>978.0</ele><time>2026-04-06T13:34:12.999Z</time></trkpt><trkpt lat="46.46860380524959" lon="12.465747353271114"><ele>978.0</ele><time>2026-04-06T13:34:13.999Z</time></trkpt><trkpt lat="46.46860827812269" lon="12.465964439782267"><ele>978.0</ele><time>2026-04-06T13:34:14.999Z</time></trkpt><trkpt lat="46.468608549544086" lon="12.466178017988764"><ele>978.0</ele><time>2026-04-06T13:34:15.999Z</time></trkpt><trkpt lat="46.4686065221463" lon="12.466394325672045"><ele>979.0</ele><time>2026-04-06T13:34:16.999Z</time></trkpt><trkpt lat="46.46860645866146" lon="12.466612789036821"><ele>980.0</ele><time>2026-04-06T13:34:17.999Z</time></trkpt><trkpt lat="46.46860937449878" lon="12.466826389998035"><ele>981.0</ele><time>2026-04-06T13:34:18.999Z</time></trkpt><trkpt lat="46.468618080082805" lon="12.467038801718772"><ele>982.0</ele><time>2026-04-06T13:34:19.999Z</time></trkpt><trkpt lat="46.46862095688505" lon="12.467235822958234"><ele>983.4000000000001</ele><time>2026-04-06T13:34:20.999Z</time></trkpt><trkpt lat="46.468623861690595" lon="12.46740238985724"><ele>984.8000000000001</ele><time>2026-04-06T13:34:21.999Z</time></trkpt><trkpt lat="46.46862434794774" lon="12.467554747167599"><ele>986.2</ele><time>2026-04-06T13:34:22.999Z</time></trkpt><trkpt lat="46.46862460187557" lon="12.467707287103186"><ele>987.6</ele><time>2026-04-06T13:34:23.999Z</time></trkpt><trkpt lat="46.46861354964203" lon="12.46786697752115"><ele>989.0</ele><time>2026-04-06T13:34:24.999Z</time></trkpt><trkpt lat="46.468571175404435" lon="12.46801162763887"><ele>992.0</ele><time>2026-04-06T13:34:25.999Z</time></trkpt><trkpt lat="46.468485919041704" lon="12.468132120327917"><ele>995.0</ele><time>2026-04-06T13:34:26.999Z</time></trkpt><trkpt lat="46.468415210786496" lon="12.468276957273021"><ele>998.0</ele><time>2026-04-06T13:34:27.999Z</time></trkpt><trkpt lat="46.46833400869136" lon="12.468414025939927"><ele>1001.0</ele><time>2026-04-06T13:34:28.999Z</time></trkpt><trkpt lat="46.46825437011054" lon="12.468561181358535"><ele>1001.0</ele><time>2026-04-06T13:34:29.999Z</time></trkpt><trkpt lat="46.46816023103002" lon="12.468688520977706"><ele>1001.0</ele><time>2026-04-06T13:34:30.999Z</time></trkpt><trkpt lat="46.46808176788184" lon="12.468829310341876"><ele>1001.0</ele><time>2026-04-06T13:34:31.999Z</time></trkpt><trkpt lat="46.46801768555878" lon="12.468984962982956"><ele>1001.0</ele><time>2026-04-06T13:34:32.999Z</time></trkpt><trkpt lat="46.46792887730045" lon="12.469121246064399"><ele>999.0</ele><time>2026-04-06T13:34:33.999Z</time></trkpt><trkpt lat="46.46783434932848" lon="12.469235275059287"><ele>997.0</ele><time>2026-04-06T13:34:34.999Z</time></trkpt><trkpt lat="46.46773542564926" lon="12.469312009507439"><ele>995.0</ele><time>2026-04-06T13:34:35.999Z</time></trkpt><trkpt lat="46.46763987122201" lon="12.46939495376122"><ele>993.0</ele><time>2026-04-06T13:34:36.999Z</time></trkpt><trkpt lat="46.46755429613697" lon="12.469503016016086"><ele>998.0</ele><time>2026-04-06T13:34:37.999Z</time></trkpt><trkpt lat="46.46746287383875" lon="12.469618915212193"><ele>1003.0</ele><time>2026-04-06T13:34:38.999Z</time></trkpt><trkpt lat="46.46740865360394" lon="12.469781633468015"><ele>1008.0</ele><time>2026-04-06T13:34:39.999Z</time></trkpt><trkpt lat="46.46735266729633" lon="12.469942822486257"><ele>1013.0</ele><time>2026-04-06T13:34:40.999Z</time></trkpt><trkpt lat="46.46730140636622" lon="12.470114972598159"><ele>1013.0</ele><time>2026-04-06T13:34:41.999Z</time></trkpt><trkpt lat="46.46724831470967" lon="12.47030162620601"><ele>1013.0</ele><time>2026-04-06T13:34:42.999Z</time></trkpt><trkpt lat="46.46719264798307" lon="12.470501490559693"><ele>1013.0</ele><time>2026-04-06T13:34:43.999Z</time></trkpt><trkpt lat="46.467131037779176" lon="12.470702745139087"><ele>1013.0</ele><time>2026-04-06T13:34:44.999Z</time></trkpt><trkpt lat="46.467087343472606" lon="12.470901340599719"><ele>1008.5</ele><time>2026-04-06T13:34:45.999Z</time></trkpt><trkpt lat="46.46704017649753" lon="12.471091613722933"><ele>1004.0</ele><time>2026-04-06T13:34:46.999Z</time></trkpt><trkpt lat="46.46700942822946" lon="12.471285021690923"><ele>999.5</ele><time>2026-04-06T13:34:47.999Z</time></trkpt><trkpt lat="46.466997622543445" lon="12.471472774270257"><ele>995.0</ele><time>2026-04-06T13:34:48.999Z</time></trkpt><trkpt lat="46.466992171351244" lon="12.471658321264202"><ele>995.0</ele><time>2026-04-06T13:34:49.999Z</time></trkpt><trkpt lat="46.46698773055101" lon="12.471856248206981"><ele>995.0</ele><time>2026-04-06T13:34:50.999Z</time></trkpt><trkpt lat="46.4669790048717" lon="12.4720559457605"><ele>995.0</ele><time>2026-04-06T13:34:51.999Z</time></trkpt><trkpt lat="46.4669756706499" lon="12.472255060753035"><ele>995.0</ele><time>2026-04-06T13:34:52.999Z</time></trkpt><trkpt lat="46.46697968347939" lon="12.472457839060507"><ele>996.3333333333334</ele><time>2026-04-06T13:34:53.999Z</time></trkpt><trkpt lat="46.46698599856113" lon="12.472664663635626"><ele>997.6666666666667</ele><time>2026-04-06T13:34:54.999Z</time></trkpt><trkpt lat="46.46697677337146" lon="12.472887119046216"><ele>999.0</ele><time>2026-04-06T13:34:55.999Z</time></trkpt><trkpt lat="46.46693225061434" lon="12.473112959030917"><ele>1000.75</ele><time>2026-04-06T13:34:56.999Z</time></trkpt><trkpt lat="46.46691251805526" lon="12.473336759185594"><ele>1002.5</ele><time>2026-04-06T13:34:57.999Z</time></trkpt><trkpt lat="46.46687450642359" lon="12.473520011450091"><ele>1004.25</ele><time>2026-04-06T13:34:58.999Z</time></trkpt><trkpt lat="46.4668164705073" lon="12.47367438745731"><ele>1006.0</ele><time>2026-04-06T13:34:59.999Z</time></trkpt><trkpt lat="46.466728014508426" lon="12.473802967367169"><ele>1010.0</ele><time>2026-04-06T13:35:00.999Z</time></trkpt><trkpt lat="46.466622786067646" lon="12.47390646900159"><ele>1014.0</ele><time>2026-04-06T13:35:01.999Z</time></trkpt><trkpt lat="46.46653715598508" lon="12.474024494082443"><ele>1018.0</ele><time>2026-04-06T13:35:02.999Z</time></trkpt><trkpt lat="46.46647761952432" lon="12.47416647297197"><ele>1022.0</ele><time>2026-04-06T13:35:04Z</time></trkpt><trkpt lat="46.466438036795665" lon="12.474326812876631"><ele>1022.0</ele><time>2026-04-06T13:35:05Z</time></trkpt><trkpt lat="46.466408329321574" lon="12.474503400502163"><ele>1022.0</ele><time>2026-04-06T13:35:06Z</time></trkpt><trkpt lat="46.46639098458778" lon="12.47469306318906"><ele>1022.0</ele><time>2026-04-06T13:35:07Z</time></trkpt><trkpt lat="46.46637596190442" lon="12.474885239587744"><ele>1022.0</ele><time>2026-04-06T13:35:08Z</time></trkpt><trkpt lat="46.46635713525054" lon="12.475079192349272"><ele>1020.75</ele><time>2026-04-06T13:35:09Z</time></trkpt><trkpt lat="46.466338774034895" lon="12.475272560100526"><ele>1019.5</ele><time>2026-04-06T13:35:10Z</time></trkpt><trkpt lat="46.46629267946914" lon="12.475447199990894"><ele>1018.25</ele><time>2026-04-06T13:35:11Z</time></trkpt><trkpt lat="46.466245254064724" lon="12.475613890173124"><ele>1017.0</ele><time>2026-04-06T13:35:12Z</time></trkpt><trkpt lat="46.46615256104311" lon="12.475730975264657"><ele>1017.0</ele><time>2026-04-06T13:35:13Z</time></trkpt><trkpt lat="46.466084234477016" lon="12.475879757930489"><ele>1017.0</ele><time>2026-04-06T13:35:14Z</time></trkpt><trkpt lat="46.46599345549273" lon="12.476017738518278"><ele>1017.0</ele><time>2026-04-06T13:35:15Z</time></trkpt><trkpt lat="46.46590130656622" lon="12.476163822378245"><ele>1017.0</ele><time>2026-04-06T13:35:16Z</time></trkpt><trkpt lat="46.4658090886653" lon="12.476318186419721"><ele>1021.75</ele><time>2026-04-06T13:35:17Z</time></trkpt><trkpt lat="46.465718232002324" lon="12.476471568922825"><ele>1026.5</ele><time>2026-04-06T13:35:18Z</time></trkpt><trkpt lat="46.46563459044228" lon="12.476626894586648"><ele>1031.25</ele><time>2026-04-06T13:35:19Z</time></trkpt><trkpt lat="46.46556511485768" lon="12.476785724103067"><ele>1036.0</ele><time>2026-04-06T13:35:20Z</time></trkpt><trkpt lat="46.46553851102517" lon="12.476959119053381"><ele>1034.0</ele><time>2026-04-06T13:35:21Z</time></trkpt><trkpt lat="46.46552819391532" lon="12.477138077574143"><ele>1032.0</ele><time>2026-04-06T13:35:22Z</time></trkpt><trkpt lat="46.46549801866391" lon="12.477317206333849"><ele>1030.0</ele><time>2026-04-06T13:35:23Z</time></trkpt><trkpt lat="46.46546221189702" lon="12.477492595790775"><ele>1028.0</ele><time>2026-04-06T13:35:24Z</time></trkpt><trkpt lat="46.46541912409811" lon="12.477656627211728"><ele>1028.0</ele><time>2026-04-06T13:35:25Z</time></trkpt><trkpt lat="46.4653379624891" lon="12.477786862847541"><ele>1028.0</ele><time>2026-04-06T13:35:26Z</time></trkpt><trkpt lat="46.4652504625097" lon="12.477931228587263"><ele>1028.0</ele><time>2026-04-06T13:35:27Z</time></trkpt><trkpt lat="46.46514453162687" lon="12.478042344841613"><ele>1028.0</ele><time>2026-04-06T13:35:28Z</time></trkpt><trkpt lat="46.46504745182586" lon="12.478154295533832"><ele>1032.0</ele><time>2026-04-06T13:35:29Z</time></trkpt><trkpt lat="46.464948494310875" lon="12.478253910665261"><ele>1036.0</ele><time>2026-04-06T13:35:30Z</time></trkpt><trkpt lat="46.464841314466625" lon="12.478329921482528"><ele>1040.0</ele><time>2026-04-06T13:35:31Z</time></trkpt><trkpt lat="46.46472491169356" lon="12.478387683909453"><ele>1044.0</ele><time>2026-04-06T13:35:32Z</time></trkpt><trkpt lat="46.46461837963385" lon="12.478443231888056"><ele>1044.6666666666667</ele><time>2026-04-06T13:35:33Z</time></trkpt><trkpt lat="46.46452852006972" lon="12.478480161227875"><ele>1045.3333333333333</ele><time>2026-04-06T13:35:34Z</time></trkpt><trkpt lat="46.46448117338884" lon="12.47857946318702"><ele>1046.0</ele><time>2026-04-06T13:35:35Z</time></trkpt><trkpt lat="46.46443462267493" lon="12.47866718933899"><ele>1046.6666666666665</ele><time>2026-04-06T13:35:36Z</time></trkpt><trkpt lat="46.46444864163893" lon="12.478799362597297"><ele>1047.3333333333333</ele><time>2026-04-06T13:35:37Z</time></trkpt><trkpt lat="46.4644642307164" lon="12.478932439457571"><ele>1048.0</ele><time>2026-04-06T13:35:38Z</time></trkpt><trkpt lat="46.46445274033811" lon="12.47908055517502"><ele>1048.0</ele><time>2026-04-06T13:35:39Z</time></trkpt><trkpt lat="46.46444125068757" lon="12.4792245786596"><ele>1048.0</ele><time>2026-04-06T13:35:40Z</time></trkpt><trkpt lat="46.464378536615406" lon="12.479359485224288"><ele>1048.0</ele><time>2026-04-06T13:35:41Z</time></trkpt><trkpt lat="46.46428778164996" lon="12.479480543559474"><ele>1048.0</ele><time>2026-04-06T13:35:42Z</time></trkpt><trkpt lat="46.464221136842454" lon="12.479632636208077"><ele>1050.5</ele><time>2026-04-06T13:35:43Z</time></trkpt><trkpt lat="46.4641822805611" lon="12.479807153652612"><ele>1053.0</ele><time>2026-04-06T13:35:44Z</time></trkpt><trkpt lat="46.46415592648951" lon="12.479986287623225"><ele>1055.5</ele><time>2026-04-06T13:35:45Z</time></trkpt><trkpt lat="46.46412165606117" lon="12.480145183245543"><ele>1058.0</ele><time>2026-04-06T13:35:46Z</time></trkpt><trkpt lat="46.46411757391143" lon="12.480325416896402"><ele>1059.25</ele><time>2026-04-06T13:35:47Z</time></trkpt><trkpt lat="46.4641572129429" lon="12.480522829920508"><ele>1060.5</ele><time>2026-04-06T13:35:48Z</time></trkpt><trkpt lat="46.464172661131975" lon="12.480734079315994"><ele>1061.75</ele><time>2026-04-06T13:35:49Z</time></trkpt><trkpt lat="46.46415651354962" lon="12.480944132905783"><ele>1063.0</ele><time>2026-04-06T13:35:50Z</time></trkpt><trkpt lat="46.464111526564885" lon="12.481151101380737"><ele>1065.0</ele><time>2026-04-06T13:35:51Z</time></trkpt><trkpt lat="46.464054860678914" lon="12.481355113022923"><ele>1067.0</ele><time>2026-04-06T13:35:52Z</time></trkpt><trkpt lat="46.463998932750364" lon="12.481551551260607"><ele>1069.0</ele><time>2026-04-06T13:35:53Z</time></trkpt><trkpt lat="46.46394872962203" lon="12.481748359024111"><ele>1071.0</ele><time>2026-04-06T13:35:54Z</time></trkpt><trkpt lat="46.46390290962178" lon="12.481938293275945"><ele>1072.5</ele><time>2026-04-06T13:35:55Z</time></trkpt><trkpt lat="46.46385779097036" lon="12.482106286935194"><ele>1074.0</ele><time>2026-04-06T13:35:56Z</time></trkpt><trkpt lat="46.463816794616115" lon="12.482266792133847"><ele>1075.5</ele><time>2026-04-06T13:35:57Z</time></trkpt><trkpt lat="46.46379942387437" lon="12.48243223635588"><ele>1077.0</ele><time>2026-04-06T13:35:58Z</time></trkpt><trkpt lat="46.46380608299915" lon="12.482611228037467"><ele>1077.0</ele><time>2026-04-06T13:35:59Z</time></trkpt><trkpt lat="46.463827488996245" lon="12.48279120542864"><ele>1077.0</ele><time>2026-04-06T13:36:00Z</time></trkpt><trkpt lat="46.46385127983993" lon="12.482970384602726"><ele>1077.0</ele><time>2026-04-06T13:36:01Z</time></trkpt><trkpt lat="46.463871891015685" lon="12.483157689954083"><ele>1077.0</ele><time>2026-04-06T13:36:02Z</time></trkpt><trkpt lat="46.46389436719131" lon="12.483354178852792"><ele>1077.6666666666667</ele><time>2026-04-06T13:36:03Z</time></trkpt><trkpt lat="46.463912573579364" lon="12.483567185809227"><ele>1078.3333333333335</ele><time>2026-04-06T13:36:04Z</time></trkpt><trkpt lat="46.463920728378895" lon="12.483798631644955"><ele>1079.0</ele><time>2026-04-06T13:36:05Z</time></trkpt><trkpt lat="46.46391735032523" lon="12.484036520826745"><ele>1079.3333333333335</ele><time>2026-04-06T13:36:06Z</time></trkpt><trkpt lat="46.463911536894074" lon="12.484263814498734"><ele>1079.6666666666667</ele><time>2026-04-06T13:36:07Z</time></trkpt><trkpt lat="46.463906155581356" lon="12.484495094069112"><ele>1080.0</ele><time>2026-04-06T13:36:08Z</time></trkpt><trkpt lat="46.4639009777145" lon="12.484726576228502"><ele>1083.3333333333333</ele><time>2026-04-06T13:36:09Z</time></trkpt><trkpt lat="46.463897393512745" lon="12.48497103292375"><ele>1086.6666666666665</ele><time>2026-04-06T13:36:09.999Z</time></trkpt><trkpt lat="46.46389072625945" lon="12.485220193734166"><ele>1090.0</ele><time>2026-04-06T13:36:10.999Z</time></trkpt><trkpt lat="46.46387593541692" lon="12.485482353045526"><ele>1092.0</ele><time>2026-04-06T13:36:11.999Z</time></trkpt><trkpt lat="46.46385354035723" lon="12.485753029807707"><ele>1094.0</ele><time>2026-04-06T13:36:12.999Z</time></trkpt><trkpt lat="46.463826016260995" lon="12.486025943556328"><ele>1096.0</ele><time>2026-04-06T13:36:13.999Z</time></trkpt><trkpt lat="46.46379848490434" lon="12.486286736207052"><ele>1088.3333333333333</ele><time>2026-04-06T13:36:14.999Z</time></trkpt><trkpt lat="46.46377367339024" lon="12.48654027681777"><ele>1080.6666666666667</ele><time>2026-04-06T13:36:15.999Z</time></trkpt><trkpt lat="46.463748904280074" lon="12.48678398904876"><ele>1073.0</ele><time>2026-04-06T13:36:16.999Z</time></trkpt><trkpt lat="46.463724544546025" lon="12.487029936430394"><ele>1074.3333333333335</ele><time>2026-04-06T13:36:17.999Z</time></trkpt><trkpt lat="46.4636984974609" lon="12.487281516673558"><ele>1075.6666666666667</ele><time>2026-04-06T13:36:18.999Z</time></trkpt><trkpt lat="46.46366464681505" lon="12.487530414491419"><ele>1077.0</ele><time>2026-04-06T13:36:19.999Z</time></trkpt><trkpt lat="46.46360422449219" lon="12.487771811723169"><ele>1079.6666666666667</ele><time>2026-04-06T13:36:20.999Z</time></trkpt><trkpt lat="46.463525832087235" lon="12.488006154447548"><ele>1082.3333333333335</ele><time>2026-04-06T13:36:21.999Z</time></trkpt><trkpt lat="46.4634520179412" lon="12.488244586797421"><ele>1085.0</ele><time>2026-04-06T13:36:22.999Z</time></trkpt><trkpt lat="46.46338974839713" lon="12.488484607558147"><ele>1085.0</ele><time>2026-04-06T13:36:23.999Z</time></trkpt><trkpt lat="46.46334236897099" lon="12.488714501564997"><ele>1085.0</ele><time>2026-04-06T13:36:24.999Z</time></trkpt><trkpt lat="46.463308839867274" lon="12.48893234570749"><ele>1085.0</ele><time>2026-04-06T13:36:25.999Z</time></trkpt><trkpt lat="46.46327121196191" lon="12.489147742777472"><ele>1089.0</ele><time>2026-04-06T13:36:26.999Z</time></trkpt><trkpt lat="46.46322009513673" lon="12.489360574318889"><ele>1093.0</ele><time>2026-04-06T13:36:27.999Z</time></trkpt><trkpt lat="46.46316078401213" lon="12.489574516642522"><ele>1097.0</ele><time>2026-04-06T13:36:28.999Z</time></trkpt><trkpt lat="46.463098697895404" lon="12.48977560197356"><ele>1101.25</ele><time>2026-04-06T13:36:29.999Z</time></trkpt><trkpt lat="46.46304797189031" lon="12.489974273689327"><ele>1105.5</ele><time>2026-04-06T13:36:30.999Z</time></trkpt><trkpt lat="46.46301770825504" lon="12.490153250849566"><ele>1109.75</ele><time>2026-04-06T13:36:31.999Z</time></trkpt><trkpt lat="46.46298465523878" lon="12.490342125368556"><ele>1114.0</ele><time>2026-04-06T13:36:32.999Z</time></trkpt><trkpt lat="46.46299296224322" lon="12.490530002620316"><ele>1118.25</ele><time>2026-04-06T13:36:33.999Z</time></trkpt><trkpt lat="46.46297270588717" lon="12.490705972172178"><ele>1122.5</ele><time>2026-04-06T13:36:34.999Z</time></trkpt><trkpt lat="46.46292852127309" lon="12.490867603127807"><ele>1126.75</ele><time>2026-04-06T13:36:35.999Z</time></trkpt><trkpt lat="46.46284393894708" lon="12.49100798845488"><ele>1131.0</ele><time>2026-04-06T13:36:36.999Z</time></trkpt><trkpt lat="46.462725015320714" lon="12.491113630443941"><ele>1124.0</ele><time>2026-04-06T13:36:37.999Z</time></trkpt><trkpt lat="46.46260524960634" lon="12.491182736309792"><ele>1117.0</ele><time>2026-04-06T13:36:38.999Z</time></trkpt><trkpt lat="46.462509162578364" lon="12.49126061240285"><ele>1110.0</ele><time>2026-04-06T13:36:39.999Z</time></trkpt><trkpt lat="46.46242639462143" lon="12.491366463023642"><ele>1103.0</ele><time>2026-04-06T13:36:40.999Z</time></trkpt><trkpt lat="46.46234699582779" lon="12.491498887907587"><ele>1103.0</ele><time>2026-04-06T13:36:41.999Z</time></trkpt><trkpt lat="46.46227363933913" lon="12.491654673856766"><ele>1103.0</ele><time>2026-04-06T13:36:42.999Z</time></trkpt><trkpt lat="46.46220260717725" lon="12.491822400970783"><ele>1103.0</ele><time>2026-04-06T13:36:43.999Z</time></trkpt><trkpt lat="46.46213272152429" lon="12.491991355624325"><ele>1103.0</ele><time>2026-04-06T13:36:44.999Z</time></trkpt><trkpt lat="46.462060560723856" lon="12.492156627297373"><ele>1103.5</ele><time>2026-04-06T13:36:45.999Z</time></trkpt><trkpt lat="46.46198441940168" lon="12.492322812888823"><ele>1104.0</ele><time>2026-04-06T13:36:46.999Z</time></trkpt><trkpt lat="46.46189676318572" lon="12.492478232418668"><ele>1104.5</ele><time>2026-04-06T13:36:47.999Z</time></trkpt><trkpt lat="46.46179131773399" lon="12.49261050679339"><ele>1105.0</ele><time>2026-04-06T13:36:48.999Z</time></trkpt><trkpt lat="46.4616766733498" lon="12.49271857203273"><ele>1105.0</ele><time>2026-04-06T13:36:49.999Z</time></trkpt><trkpt lat="46.461567353055806" lon="12.492822933170746"><ele>1105.0</ele><time>2026-04-06T13:36:50.999Z</time></trkpt><trkpt lat="46.46146038054648" lon="12.49293045466116"><ele>1105.0</ele><time>2026-04-06T13:36:51.999Z</time></trkpt><trkpt lat="46.4613569280702" lon="12.493032223828658"><ele>1105.0</ele><time>2026-04-06T13:36:52.999Z</time></trkpt><trkpt lat="46.4612600126132" lon="12.493119112525907"><ele>1107.0</ele><time>2026-04-06T13:36:53.999Z</time></trkpt><trkpt lat="46.46117080317528" lon="12.493194728733995"><ele>1109.0</ele><time>2026-04-06T13:36:54.999Z</time></trkpt><trkpt lat="46.4610604018062" lon="12.49325474967426"><ele>1111.0</ele><time>2026-04-06T13:36:55.999Z</time></trkpt><trkpt lat="46.46095191208086" lon="12.493275606516876"><ele>1113.0</ele><time>2026-04-06T13:36:56.999Z</time></trkpt><trkpt lat="46.46085136932959" lon="12.493261419572693"><ele>1115.0</ele><time>2026-04-06T13:36:57.999Z</time></trkpt><trkpt lat="46.46075321288544" lon="12.493226145424954"><ele>1115.0</ele><time>2026-04-06T13:36:58.999Z</time></trkpt><trkpt lat="46.46066976022712" lon="12.493172907635744"><ele>1115.0</ele><time>2026-04-06T13:36:59.999Z</time></trkpt><trkpt lat="46.46060273480034" lon="12.493134761122489"><ele>1115.0</ele><time>2026-04-06T13:37:00.999Z</time></trkpt><trkpt lat="46.46053709514741" lon="12.493141457158377"><ele>1115.0</ele><time>2026-04-06T13:37:01.999Z</time></trkpt><trkpt lat="46.460469807494036" lon="12.49316597445527"><ele>1115.0</ele><time>2026-04-06T13:37:02.999Z</time></trkpt><trkpt lat="46.46042426247491" lon="12.493258730655757"><ele>1115.0</ele><time>2026-04-06T13:37:03.999Z</time></trkpt><trkpt lat="46.460421360279035" lon="12.493385082148981"><ele>1115.0</ele><time>2026-04-06T13:37:04.999Z</time></trkpt><trkpt lat="46.46046796783243" lon="12.493497020641719"><ele>1115.0</ele><time>2026-04-06T13:37:05.999Z</time></trkpt><trkpt lat="46.46056293940664" lon="12.493542518121057"><ele>1115.0</ele><time>2026-04-06T13:37:06.999Z</time></trkpt><trkpt lat="46.46064176065276" lon="12.493602186175252"><ele>1115.0</ele><time>2026-04-06T13:37:07.999Z</time></trkpt><trkpt lat="46.460720080660444" lon="12.493710059993354"><ele>1115.0</ele><time>2026-04-06T13:37:08.999Z</time></trkpt><trkpt lat="46.46081368505452" lon="12.493827040285224"><ele>1118.0</ele><time>2026-04-06T13:37:10Z</time></trkpt><trkpt lat="46.46089042689799" lon="12.493988129943872"><ele>1121.0</ele><time>2026-04-06T13:37:11Z</time></trkpt><trkpt lat="46.46096124732017" lon="12.494168004686786"><ele>1124.0</ele><time>2026-04-06T13:37:12Z</time></trkpt><trkpt lat="46.46101465399455" lon="12.494350728873277"><ele>1127.0</ele><time>2026-04-06T13:37:13Z</time></trkpt><trkpt lat="46.461062812611246" lon="12.494508956958047"><ele>1127.5</ele><time>2026-04-06T13:37:14Z</time></trkpt><trkpt lat="46.46110761546336" lon="12.494632804275058"><ele>1128.0</ele><time>2026-04-06T13:37:15Z</time></trkpt><trkpt lat="46.46115550345907" lon="12.494733192963507"><ele>1128.5</ele><time>2026-04-06T13:37:16Z</time></trkpt><trkpt lat="46.46120509033648" lon="12.494811847456607"><ele>1129.0</ele><time>2026-04-06T13:37:17Z</time></trkpt><trkpt lat="46.46129031154079" lon="12.494805441198569"><ele>1129.5</ele><time>2026-04-06T13:37:18Z</time></trkpt><trkpt lat="46.46136529828174" lon="12.494781683306904"><ele>1130.0</ele><time>2026-04-06T13:37:19Z</time></trkpt><trkpt lat="46.461431406012736" lon="12.494741169767204"><ele>1129.9999999999998</ele><time>2026-04-06T13:37:20Z</time></trkpt><trkpt lat="46.461484286197326" lon="12.494668942987682"><ele>1130.0</ele><time>2026-04-06T13:37:21Z</time></trkpt><trkpt lat="46.46152024005324" lon="12.494573850163201"><ele>1130.0</ele><time>2026-04-06T13:37:22Z</time></trkpt><trkpt lat="46.46154407005008" lon="12.494471805620057"><ele>1130.0</ele><time>2026-04-06T13:37:23Z</time></trkpt><trkpt lat="46.461575058560214" lon="12.494387693669989"><ele>1130.0</ele><time>2026-04-06T13:37:24Z</time></trkpt><trkpt lat="46.46163476891536" lon="12.494349711337762"><ele>1129.9999999999998</ele><time>2026-04-06T13:37:25Z</time></trkpt><trkpt lat="46.46170433093983" lon="12.494367572040407"><ele>1130.0</ele><time>2026-04-06T13:37:26Z</time></trkpt><trkpt lat="46.46175740238388" lon="12.494442961610376"><ele>1130.0</ele><time>2026-04-06T13:37:27Z</time></trkpt><trkpt lat="46.46174932267941" lon="12.494563508636478"><ele>1130.0</ele><time>2026-04-06T13:37:28Z</time></trkpt><trkpt lat="46.46169162657952" lon="12.494652631406147"><ele>1130.0</ele><time>2026-04-06T13:37:29Z</time></trkpt><trkpt lat="46.46161566751704" lon="12.494727999984327"><ele>1130.0</ele><time>2026-04-06T13:37:30Z</time></trkpt><trkpt lat="46.46155967759797" lon="12.494824874908172"><ele>1130.0</ele><time>2026-04-06T13:37:31Z</time></trkpt><trkpt lat="46.461495237563696" lon="12.494963403715012"><ele>1130.0</ele><time>2026-04-06T13:37:32Z</time></trkpt><trkpt lat="46.46141585699016" lon="12.495130687222817"><ele>1130.0</ele><time>2026-04-06T13:37:33Z</time></trkpt><trkpt lat="46.461343952189665" lon="12.49526366213393"><ele>1130.0</ele><time>2026-04-06T13:37:34Z</time></trkpt><trkpt lat="46.46126476672316" lon="12.495361226977089"><ele>1130.0</ele><time>2026-04-06T13:37:35Z</time></trkpt><trkpt lat="46.461177594552474" lon="12.495405028625827"><ele>1131.6</ele><time>2026-04-06T13:37:36Z</time></trkpt><trkpt lat="46.46108104123382" lon="12.495394570109877"><ele>1133.2</ele><time>2026-04-06T13:37:37Z</time></trkpt><trkpt lat="46.46099702304317" lon="12.49534264757728"><ele>1134.8</ele><time>2026-04-06T13:37:38Z</time></trkpt><trkpt lat="46.460913176485235" lon="12.495267404055104"><ele>1136.4</ele><time>2026-04-06T13:37:39Z</time></trkpt><trkpt lat="46.460819670543565" lon="12.495180993729049"><ele>1138.0</ele><time>2026-04-06T13:37:40Z</time></trkpt><trkpt lat="46.460707848608386" lon="12.495083403156988"><ele>1138.0</ele><time>2026-04-06T13:37:41Z</time></trkpt><trkpt lat="46.46058371410864" lon="12.494970425417687"><ele>1138.0</ele><time>2026-04-06T13:37:42Z</time></trkpt><trkpt lat="46.46047090827951" lon="12.494862373297261"><ele>1138.0</ele><time>2026-04-06T13:37:43Z</time></trkpt><trkpt lat="46.46039911290164" lon="12.494757798609962"><ele>1138.0</ele><time>2026-04-06T13:37:44Z</time></trkpt><trkpt lat="46.46034938866388" lon="12.494664921908495"><ele>1139.0</ele><time>2026-04-06T13:37:45Z</time></trkpt><trkpt lat="46.46030122632377" lon="12.4945954683616"><ele>1140.0</ele><time>2026-04-06T13:37:46Z</time></trkpt><trkpt lat="46.460235320935915" lon="12.49455855517426"><ele>1141.0</ele><time>2026-04-06T13:37:47Z</time></trkpt><trkpt lat="46.46016026457595" lon="12.494586054543788"><ele>1142.0</ele><time>2026-04-06T13:37:48Z</time></trkpt><trkpt lat="46.460096647664464" lon="12.494651593118205"><ele>1143.0</ele><time>2026-04-06T13:37:49Z</time></trkpt><trkpt lat="46.46007571920732" lon="12.494784810240128"><ele>1144.0</ele><time>2026-04-06T13:37:50Z</time></trkpt><trkpt lat="46.46015212658273" lon="12.494915240028933"><ele>1144.6000000000001</ele><time>2026-04-06T13:37:51Z</time></trkpt><trkpt lat="46.460233603746445" lon="12.49499951849612"><ele>1145.2</ele><time>2026-04-06T13:37:52Z</time></trkpt><trkpt lat="46.46031476110893" lon="12.495081147661036"><ele>1145.8000000000002</ele><time>2026-04-06T13:37:53Z</time></trkpt><trkpt lat="46.460414744954846" lon="12.49518017110372"><ele>1146.4</ele><time>2026-04-06T13:37:54Z</time></trkpt><trkpt lat="46.460507499423755" lon="12.495308091542894"><ele>1147.0</ele><time>2026-04-06T13:37:55Z</time></trkpt><trkpt lat="46.46060825732636" lon="12.495424916047217"><ele>1147.0</ele><time>2026-04-06T13:37:56Z</time></trkpt><trkpt lat="46.46068064201294" lon="12.495589584552793"><ele>1147.0</ele><time>2026-04-06T13:37:57Z</time></trkpt><trkpt lat="46.46075791932858" lon="12.495774609368985"><ele>1147.0</ele><time>2026-04-06T13:37:58Z</time></trkpt><trkpt lat="46.46084121027646" lon="12.495964552523295"><ele>1147.0</ele><time>2026-04-06T13:37:59Z</time></trkpt><trkpt lat="46.46092249686263" lon="12.496158585275841"><ele>1148.25</ele><time>2026-04-06T13:38:00Z</time></trkpt><trkpt lat="46.46100230713106" lon="12.496343635955766"><ele>1149.5</ele><time>2026-04-06T13:38:01Z</time></trkpt><trkpt lat="46.46107707023708" lon="12.496524318831462"><ele>1150.75</ele><time>2026-04-06T13:38:02Z</time></trkpt><trkpt lat="46.461150689314664" lon="12.496700917092234"><ele>1152.0</ele><time>2026-04-06T13:38:03Z</time></trkpt><trkpt lat="46.46122095926858" lon="12.496884121120289"><ele>1154.3333333333333</ele><time>2026-04-06T13:38:04Z</time></trkpt><trkpt lat="46.461279726579455" lon="12.497092017785294"><ele>1156.6666666666665</ele><time>2026-04-06T13:38:05Z</time></trkpt><trkpt lat="46.46130229403499" lon="12.497316060666057"><ele>1159.0</ele><time>2026-04-06T13:38:06Z</time></trkpt><trkpt lat="46.461333110404794" lon="12.497519303307557"><ele>1159.0</ele><time>2026-04-06T13:38:07Z</time></trkpt><trkpt lat="46.46136260393511" lon="12.497721571336026"><ele>1159.0</ele><time>2026-04-06T13:38:08Z</time></trkpt><trkpt lat="46.461390445074414" lon="12.497924099046585"><ele>1159.0</ele><time>2026-04-06T13:38:09Z</time></trkpt><trkpt lat="46.461428889670515" lon="12.49809574849667"><ele>1159.0</ele><time>2026-04-06T13:38:10Z</time></trkpt><trkpt lat="46.46144190157024" lon="12.498260354564769"><ele>1159.6000000000001</ele><time>2026-04-06T13:38:11Z</time></trkpt><trkpt lat="46.46145275128353" lon="12.498404729348259"><ele>1160.2</ele><time>2026-04-06T13:38:11.999Z</time></trkpt><trkpt lat="46.46147495515418" lon="12.498525372915918"><ele>1160.8000000000002</ele><time>2026-04-06T13:38:12.999Z</time></trkpt><trkpt lat="46.46151112042706" lon="12.498636183503365"><ele>1161.4</ele><time>2026-04-06T13:38:13.999Z</time></trkpt><trkpt lat="46.461579794223184" lon="12.498718936803842"><ele>1162.0</ele><time>2026-04-06T13:38:14.999Z</time></trkpt><trkpt lat="46.46166685234876" lon="12.498758309458086"><ele>1162.0</ele><time>2026-04-06T13:38:15.999Z</time></trkpt><trkpt lat="46.4617557367305" lon="12.498759620003575"><ele>1162.0</ele><time>2026-04-06T13:38:16.999Z</time></trkpt><trkpt lat="46.461846517915234" lon="12.498701559529303"><ele>1162.0</ele><time>2026-04-06T13:38:17.999Z</time></trkpt><trkpt lat="46.46191943014014" lon="12.49859087827541"><ele>1162.0</ele><time>2026-04-06T13:38:18.999Z</time></trkpt><trkpt lat="46.46196462500434" lon="12.49845030788774"><ele>1162.0</ele><time>2026-04-06T13:38:19.999Z</time></trkpt><trkpt lat="46.46199252980261" lon="12.498288593964087"><ele>1162.0</ele><time>2026-04-06T13:38:20.999Z</time></trkpt><trkpt lat="46.46201930668211" lon="12.498108034693782"><ele>1162.0</ele><time>2026-04-06T13:38:21.999Z</time></trkpt><trkpt lat="46.462060628804714" lon="12.497919764663283"><ele>1162.0</ele><time>2026-04-06T13:38:22.999Z</time></trkpt><trkpt lat="46.46210059700856" lon="12.497737334617245"><ele>1162.0</ele><time>2026-04-06T13:38:23.999Z</time></trkpt><trkpt lat="46.46213668438229" lon="12.497554376635373"><ele>1164.5</ele><time>2026-04-06T13:38:24.999Z</time></trkpt><trkpt lat="46.462173147080364" lon="12.497359735028182"><ele>1167.0</ele><time>2026-04-06T13:38:25.999Z</time></trkpt><trkpt lat="46.46220894319131" lon="12.497171962106778"><ele>1169.5</ele><time>2026-04-06T13:38:26.999Z</time></trkpt><trkpt lat="46.46224188159624" lon="12.49701212245765"><ele>1172.0</ele><time>2026-04-06T13:38:27.999Z</time></trkpt><trkpt lat="46.46228734696888" lon="12.496870329028937"><ele>1172.0</ele><time>2026-04-06T13:38:28.999Z</time></trkpt><trkpt lat="46.462356033909444" lon="12.496744536660058"><ele>1172.0</ele><time>2026-04-06T13:38:29.999Z</time></trkpt><trkpt lat="46.46245345568108" lon="12.496645738797802"><ele>1172.0</ele><time>2026-04-06T13:38:30.999Z</time></trkpt><trkpt lat="46.46256600906265" lon="12.496563162860195"><ele>1172.0</ele><time>2026-04-06T13:38:31.999Z</time></trkpt><trkpt lat="46.46269127630206" lon="12.49650754461354"><ele>1172.0</ele><time>2026-04-06T13:38:32.999Z</time></trkpt><trkpt lat="46.46281833007898" lon="12.496492070897284"><ele>1172.0</ele><time>2026-04-06T13:38:33.999Z</time></trkpt><trkpt lat="46.46292291276175" lon="12.49650353674635"><ele>1172.0</ele><time>2026-04-06T13:38:34.999Z</time></trkpt><trkpt lat="46.46301121819936" lon="12.496496628960298"><ele>1172.0</ele><time>2026-04-06T13:38:35.999Z</time></trkpt><trkpt lat="46.463094907651325" lon="12.496440726497173"><ele>1172.0</ele><time>2026-04-06T13:38:36.999Z</time></trkpt><trkpt lat="46.46315929054541" lon="12.496337787990168"><ele>1175.2</ele><time>2026-04-06T13:38:37.999Z</time></trkpt><trkpt lat="46.46318671649255" lon="12.496197049039425"><ele>1178.4</ele><time>2026-04-06T13:38:38.999Z</time></trkpt><trkpt lat="46.46318991390196" lon="12.496044722356064"><ele>1181.6</ele><time>2026-04-06T13:38:39.999Z</time></trkpt><trkpt lat="46.463191133201995" lon="12.495886266158026"><ele>1184.8</ele><time>2026-04-06T13:38:40.999Z</time></trkpt><trkpt lat="46.46319895509249" lon="12.495704650207747"><ele>1188.0</ele><time>2026-04-06T13:38:41.999Z</time></trkpt><trkpt lat="46.46320994106224" lon="12.495529120600096"><ele>1186.6666666666667</ele><time>2026-04-06T13:38:42.999Z</time></trkpt><trkpt lat="46.46323260340694" lon="12.495395373897763"><ele>1185.3333333333333</ele><time>2026-04-06T13:38:43.999Z</time></trkpt><trkpt lat="46.463256399639825" lon="12.495265800310396"><ele>1184.0</ele><time>2026-04-06T13:38:44.999Z</time></trkpt><trkpt lat="46.46328420059177" lon="12.495162217721978"><ele>1182.6666666666665</ele><time>2026-04-06T13:38:45.999Z</time></trkpt><trkpt lat="46.46332535865363" lon="12.495074390548773"><ele>1181.3333333333333</ele><time>2026-04-06T13:38:46.999Z</time></trkpt><trkpt lat="46.46338521885898" lon="12.495023897153768"><ele>1180.0</ele><time>2026-04-06T13:38:47.999Z</time></trkpt><trkpt lat="46.463449224766634" lon="12.49505434423233"><ele>1180.0</ele><time>2026-04-06T13:38:48.999Z</time></trkpt><trkpt lat="46.46348840862341" lon="12.495162246891965"><ele>1180.0</ele><time>2026-04-06T13:38:49.999Z</time></trkpt><trkpt lat="46.46344837470444" lon="12.49530580047425"><ele>1180.0</ele><time>2026-04-06T13:38:50.999Z</time></trkpt><trkpt lat="46.46338285165665" lon="12.495416231218744"><ele>1180.0</ele><time>2026-04-06T13:38:51.999Z</time></trkpt><trkpt lat="46.46333301255325" lon="12.495541175959799"><ele>1180.0</ele><time>2026-04-06T13:38:52.999Z</time></trkpt><trkpt lat="46.463310048042665" lon="12.495669354153637"><ele>1181.6</ele><time>2026-04-06T13:38:53.999Z</time></trkpt><trkpt lat="46.46330308282485" lon="12.495809793378637"><ele>1183.2</ele><time>2026-04-06T13:38:54.999Z</time></trkpt><trkpt lat="46.46331930001455" lon="12.495947732696573"><ele>1184.8</ele><time>2026-04-06T13:38:55.999Z</time></trkpt><trkpt lat="46.46336378805064" lon="12.496076803887822"><ele>1186.4</ele><time>2026-04-06T13:38:56.999Z</time></trkpt><trkpt lat="46.46342639858642" lon="12.496193090388203"><ele>1188.0</ele><time>2026-04-06T13:38:57.999Z</time></trkpt><trkpt lat="46.46347861232439" lon="12.49630994141709"><ele>1188.6</ele><time>2026-04-06T13:38:58.999Z</time></trkpt><trkpt lat="46.46353671577319" lon="12.496410506908742"><ele>1189.1999999999998</ele><time>2026-04-06T13:38:59.999Z</time></trkpt><trkpt lat="46.46354478354434" lon="12.496550391008087"><ele>1189.8</ele><time>2026-04-06T13:39:00.999Z</time></trkpt><trkpt lat="46.46350804095722" lon="12.496685326069521"><ele>1190.3999999999999</ele><time>2026-04-06T13:39:01.999Z</time></trkpt><trkpt lat="46.46344491817157" lon="12.49678412721285"><ele>1191.0</ele><time>2026-04-06T13:39:02.999Z</time></trkpt><trkpt lat="46.4633547070251" lon="12.496836644473698"><ele>1191.0</ele><time>2026-04-06T13:39:03.999Z</time></trkpt><trkpt lat="46.463257983100206" lon="12.49685773156308"><ele>1191.0</ele><time>2026-04-06T13:39:04.999Z</time></trkpt><trkpt lat="46.46317368054345" lon="12.496903327889402"><ele>1191.0</ele><time>2026-04-06T13:39:05.999Z</time></trkpt><trkpt lat="46.46309205712486" lon="12.496986592389446"><ele>1191.0</ele><time>2026-04-06T13:39:06.999Z</time></trkpt><trkpt lat="46.46302552848309" lon="12.497098884566423"><ele>1191.0</ele><time>2026-04-06T13:39:07.999Z</time></trkpt><trkpt lat="46.46297854370984" lon="12.497224638005136"><ele>1192.3999999999999</ele><time>2026-04-06T13:39:08.999Z</time></trkpt><trkpt lat="46.46294449716595" lon="12.497360393247877"><ele>1193.8</ele><time>2026-04-06T13:39:09.999Z</time></trkpt><trkpt lat="46.462974897746854" lon="12.497511675230463"><ele>1195.1999999999998</ele><time>2026-04-06T13:39:10.999Z</time></trkpt><trkpt lat="46.46300989522614" lon="12.4976502163348"><ele>1196.6</ele><time>2026-04-06T13:39:11.999Z</time></trkpt><trkpt lat="46.463025719965145" lon="12.497803207556641"><ele>1198.0</ele><time>2026-04-06T13:39:12.999Z</time></trkpt><trkpt lat="46.46304826913715" lon="12.497965809426056"><ele>1200.5</ele><time>2026-04-06T13:39:13.999Z</time></trkpt><trkpt lat="46.463075719284305" lon="12.498139923367535"><ele>1203.0</ele><time>2026-04-06T13:39:15Z</time></trkpt><trkpt lat="46.46306844320422" lon="12.498315951685008"><ele>1205.5</ele><time>2026-04-06T13:39:16Z</time></trkpt><trkpt lat="46.46302052588006" lon="12.498464811443801"><ele>1208.0</ele><time>2026-04-06T13:39:17Z</time></trkpt><trkpt lat="46.46295462542437" lon="12.498606096630152"><ele>1204.0</ele><time>2026-04-06T13:39:18Z</time></trkpt><trkpt lat="46.46286579351482" lon="12.498737900174866"><ele>1200.0</ele><time>2026-04-06T13:39:19Z</time></trkpt><trkpt lat="46.46277433666191" lon="12.498871597341322"><ele>1196.0</ele><time>2026-04-06T13:39:20Z</time></trkpt><trkpt lat="46.462686007727605" lon="12.499011409290242"><ele>1192.0</ele><time>2026-04-06T13:39:21Z</time></trkpt><trkpt lat="46.462591327149106" lon="12.499158467284008"><ele>1192.0</ele><time>2026-04-06T13:39:22Z</time></trkpt><trkpt lat="46.462498467885496" lon="12.499293311037556"><ele>1192.0</ele><time>2026-04-06T13:39:23Z</time></trkpt><trkpt lat="46.46244875155669" lon="12.499454907475652"><ele>1192.0</ele><time>2026-04-06T13:39:24Z</time></trkpt><trkpt lat="46.46241404803659" lon="12.499623160022999"><ele>1192.0</ele><time>2026-04-06T13:39:25Z</time></trkpt><trkpt lat="46.462385615489076" lon="12.499813843023167"><ele>1196.0</ele><time>2026-04-06T13:39:26Z</time></trkpt><trkpt lat="46.46235967102791" lon="12.500013204410363"><ele>1200.0</ele><time>2026-04-06T13:39:27Z</time></trkpt><trkpt lat="46.46233337724221" lon="12.500209510001511"><ele>1204.0</ele><time>2026-04-06T13:39:28Z</time></trkpt><trkpt lat="46.4623254582311" lon="12.500397639462715"><ele>1208.0</ele><time>2026-04-06T13:39:29Z</time></trkpt><trkpt lat="46.46233766114919" lon="12.500581044125749"><ele>1208.25</ele><time>2026-04-06T13:39:30Z</time></trkpt><trkpt lat="46.46236831467597" lon="12.500753187110464"><ele>1208.5</ele><time>2026-04-06T13:39:31Z</time></trkpt><trkpt lat="46.46242055696059" lon="12.500910815337463"><ele>1208.75</ele><time>2026-04-06T13:39:32Z</time></trkpt><trkpt lat="46.462491415465614" lon="12.501044521588938"><ele>1209.0</ele><time>2026-04-06T13:39:33Z</time></trkpt><trkpt lat="46.46258146651986" lon="12.501162870001684"><ele>1208.6000000000001</ele><time>2026-04-06T13:39:34Z</time></trkpt><trkpt lat="46.46268708017513" lon="12.501264733109114"><ele>1208.2</ele><time>2026-04-06T13:39:35Z</time></trkpt><trkpt lat="46.46277719523011" lon="12.50134272796154"><ele>1207.8000000000002</ele><time>2026-04-06T13:39:36Z</time></trkpt><trkpt lat="46.46284322087744" lon="12.50141900456876"><ele>1207.4</ele><time>2026-04-06T13:39:37Z</time></trkpt><trkpt lat="46.46289021887912" lon="12.501508577153595"><ele>1207.0</ele><time>2026-04-06T13:39:38Z</time></trkpt><trkpt lat="46.46290653857867" lon="12.501626277698705"><ele>1207.0</ele><time>2026-04-06T13:39:39Z</time></trkpt><trkpt lat="46.462878012368364" lon="12.501753259325048"><ele>1207.0</ele><time>2026-04-06T13:39:40Z</time></trkpt><trkpt lat="46.46281164724422" lon="12.501868991846338"><ele>1207.0</ele><time>2026-04-06T13:39:41Z</time></trkpt><trkpt lat="46.462721980316594" lon="12.501957974051962"><ele>1207.0</ele><time>2026-04-06T13:39:42Z</time></trkpt><trkpt lat="46.46261243454152" lon="12.50200459919641"><ele>1207.0</ele><time>2026-04-06T13:39:43Z</time></trkpt><trkpt lat="46.462514296639924" lon="12.502061661280678"><ele>1209.2</ele><time>2026-04-06T13:39:44Z</time></trkpt><trkpt lat="46.46243954180952" lon="12.50215163647828"><ele>1211.4</ele><time>2026-04-06T13:39:45Z</time></trkpt><trkpt lat="46.462383256535055" lon="12.502268186319991"><ele>1213.6</ele><time>2026-04-06T13:39:46Z</time></trkpt><trkpt lat="46.462344738023084" lon="12.502404164496815"><ele>1215.8</ele><time>2026-04-06T13:39:47Z</time></trkpt><trkpt lat="46.46232533638439" lon="12.50255818768392"><ele>1218.0</ele><time>2026-04-06T13:39:48Z</time></trkpt><trkpt lat="46.462318002255856" lon="12.50272924579373"><ele>1218.0</ele><time>2026-04-06T13:39:49Z</time></trkpt><trkpt lat="46.4623136457946" lon="12.50291124418387"><ele>1218.0</ele><time>2026-04-06T13:39:50Z</time></trkpt><trkpt lat="46.46231255756284" lon="12.503098758511149"><ele>1218.0</ele><time>2026-04-06T13:39:51Z</time></trkpt><trkpt lat="46.46232053480126" lon="12.503276487788977"><ele>1218.0</ele><time>2026-04-06T13:39:52Z</time></trkpt><trkpt lat="46.46234130638152" lon="12.503441520196397"><ele>1220.4</ele><time>2026-04-06T13:39:53Z</time></trkpt><trkpt lat="46.46237568478179" lon="12.503593515594234"><ele>1222.8</ele><time>2026-04-06T13:39:54Z</time></trkpt><trkpt lat="46.462423420128566" lon="12.503737675479977"><ele>1225.2</ele><time>2026-04-06T13:39:55Z</time></trkpt><trkpt lat="46.46245766149516" lon="12.503881580729338"><ele>1227.6</ele><time>2026-04-06T13:39:56Z</time></trkpt><trkpt lat="46.462493186016545" lon="12.503997181498358"><ele>1230.0</ele><time>2026-04-06T13:39:57Z</time></trkpt><trkpt lat="46.462524616664226" lon="12.504116463939106"><ele>1231.0</ele><time>2026-04-06T13:39:58Z</time></trkpt><trkpt lat="46.46254040729566" lon="12.504228713871479"><ele>1232.0</ele><time>2026-04-06T13:39:59Z</time></trkpt><trkpt lat="46.46249504632211" lon="12.504345013347058"><ele>1233.0</ele><time>2026-04-06T13:40:00Z</time></trkpt><trkpt lat="46.46241756397758" lon="12.504415990433023"><ele>1234.0</ele><time>2026-04-06T13:40:01Z</time></trkpt><trkpt lat="46.46231398085508" lon="12.504430882872018"><ele>1235.0</ele><time>2026-04-06T13:40:02Z</time></trkpt><trkpt lat="46.46220705180305" lon="12.504396393206768"><ele>1232.0</ele><time>2026-04-06T13:40:03Z</time></trkpt><trkpt lat="46.46208820551331" lon="12.504360057434209"><ele>1229.0</ele><time>2026-04-06T13:40:04Z</time></trkpt><trkpt lat="46.461960217065126" lon="12.504346087398579"><ele>1226.0</ele><time>2026-04-06T13:40:05Z</time></trkpt><trkpt lat="46.461836289005944" lon="12.504356607684668"><ele>1223.0</ele><time>2026-04-06T13:40:06Z</time></trkpt><trkpt lat="46.46171765241253" lon="12.504379733800778"><ele>1223.0</ele><time>2026-04-06T13:40:06.999Z</time></trkpt><trkpt lat="46.46159130522664" lon="12.504415550639933"><ele>1223.0</ele><time>2026-04-06T13:40:07.999Z</time></trkpt><trkpt lat="46.461466130166194" lon="12.504454058413128"><ele>1223.0</ele><time>2026-04-06T13:40:08.999Z</time></trkpt><trkpt lat="46.461364472749636" lon="12.50448739601477"><ele>1223.0</ele><time>2026-04-06T13:40:09.999Z</time></trkpt><trkpt lat="46.46127560417639" lon="12.504540349996383"><ele>1224.2</ele><time>2026-04-06T13:40:10.999Z</time></trkpt><trkpt lat="46.46119939702127" lon="12.50461544309418"><ele>1225.4</ele><time>2026-04-06T13:40:11.999Z</time></trkpt><trkpt lat="46.46113912478747" lon="12.504707234794095"><ele>1226.6000000000001</ele><time>2026-04-06T13:40:12.999Z</time></trkpt><trkpt lat="46.46109821487153" lon="12.504827324339779"><ele>1227.8</ele><time>2026-04-06T13:40:13.999Z</time></trkpt><trkpt lat="46.46108544799231" lon="12.504980589047888"><ele>1229.0</ele><time>2026-04-06T13:40:14.999Z</time></trkpt><trkpt lat="46.46106332741955" lon="12.505154102739514"><ele>1229.0</ele><time>2026-04-06T13:40:15.999Z</time></trkpt><trkpt lat="46.46105873414488" lon="12.505343823889966"><ele>1229.0</ele><time>2026-04-06T13:40:16.999Z</time></trkpt><trkpt lat="46.461056275546014" lon="12.505554156995458"><ele>1229.0</ele><time>2026-04-06T13:40:17.999Z</time></trkpt><trkpt lat="46.461071201931404" lon="12.505777488893715"><ele>1229.0</ele><time>2026-04-06T13:40:18.999Z</time></trkpt><trkpt lat="46.46107049699394" lon="12.506008578973187"><ele>1230.75</ele><time>2026-04-06T13:40:19.999Z</time></trkpt><trkpt lat="46.46108953853658" lon="12.506224385153256"><ele>1232.5</ele><time>2026-04-06T13:40:20.999Z</time></trkpt><trkpt lat="46.46109933500215" lon="12.506415827406045"><ele>1234.25</ele><time>2026-04-06T13:40:21.999Z</time></trkpt><trkpt lat="46.46112074941095" lon="12.5065814519058"><ele>1236.0</ele><time>2026-04-06T13:40:22.999Z</time></trkpt><trkpt lat="46.46113614412845" lon="12.506730812387847"><ele>1237.2</ele><time>2026-04-06T13:40:23.999Z</time></trkpt><trkpt lat="46.461106932936595" lon="12.506857554120568"><ele>1238.3999999999999</ele><time>2026-04-06T13:40:24.999Z</time></trkpt><trkpt lat="46.46104941722675" lon="12.506960223898034"><ele>1239.6</ele><time>2026-04-06T13:40:25.999Z</time></trkpt><trkpt lat="46.46097265166565" lon="12.507020001673158"><ele>1240.8</ele><time>2026-04-06T13:40:26.999Z</time></trkpt><trkpt lat="46.4608789307296" lon="12.507063951279125"><ele>1242.0</ele><time>2026-04-06T13:40:27.999Z</time></trkpt><trkpt lat="46.46076753228416" lon="12.507104707151333"><ele>1242.5</ele><time>2026-04-06T13:40:28.999Z</time></trkpt><trkpt lat="46.46065381772217" lon="12.507176787943985"><ele>1243.0</ele><time>2026-04-06T13:40:29.999Z</time></trkpt><trkpt lat="46.46055368782177" lon="12.50728100697136"><ele>1243.5</ele><time>2026-04-06T13:40:30.999Z</time></trkpt><trkpt lat="46.46045639183908" lon="12.507390310882165"><ele>1244.0</ele><time>2026-04-06T13:40:31.999Z</time></trkpt><trkpt lat="46.46040396444515" lon="12.507556298453437"><ele>1244.0</ele><time>2026-04-06T13:40:32.999Z</time></trkpt><trkpt lat="46.46034245164814" lon="12.507720564308078"><ele>1244.0</ele><time>2026-04-06T13:40:33.999Z</time></trkpt><trkpt lat="46.460277940059676" lon="12.507893404299601"><ele>1244.0</ele><time>2026-04-06T13:40:34.999Z</time></trkpt><trkpt lat="46.460206537200214" lon="12.508073134529964"><ele>1244.0</ele><time>2026-04-06T13:40:35.999Z</time></trkpt><trkpt lat="46.46012814690832" lon="12.508269386547418"><ele>1244.3333333333335</ele><time>2026-04-06T13:40:36.999Z</time></trkpt><trkpt lat="46.460041968466776" lon="12.508486016936"><ele>1244.6666666666667</ele><time>2026-04-06T13:40:37.999Z</time></trkpt><trkpt lat="46.45992979039536" lon="12.508717113667615"><ele>1245.0</ele><time>2026-04-06T13:40:38.999Z</time></trkpt><trkpt lat="46.45979707447672" lon="12.508940468579596"><ele>1247.6666666666667</ele><time>2026-04-06T13:40:39.999Z</time></trkpt><trkpt lat="46.45965758429478" lon="12.509137097441316"><ele>1250.3333333333335</ele><time>2026-04-06T13:40:40.999Z</time></trkpt><trkpt lat="46.45954100354447" lon="12.50930062371672"><ele>1253.0</ele><time>2026-04-06T13:40:41.999Z</time></trkpt><trkpt lat="46.45944051474416" lon="12.50945219949969"><ele>1255.75</ele><time>2026-04-06T13:40:42.999Z</time></trkpt><trkpt lat="46.45934912609145" lon="12.509580000330633"><ele>1258.5</ele><time>2026-04-06T13:40:43.999Z</time></trkpt><trkpt lat="46.45924838154991" lon="12.509682960239251"><ele>1261.25</ele><time>2026-04-06T13:40:44.999Z</time></trkpt><trkpt lat="46.45912349879225" lon="12.509735987346023"><ele>1264.0</ele><time>2026-04-06T13:40:45.999Z</time></trkpt><trkpt lat="46.45899615140914" lon="12.509756978666044"><ele>1264.0</ele><time>2026-04-06T13:40:46.999Z</time></trkpt><trkpt lat="46.45888969795325" lon="12.509769095268647"><ele>1264.0</ele><time>2026-04-06T13:40:47.999Z</time></trkpt><trkpt lat="46.45880122777794" lon="12.50981233772499"><ele>1264.0</ele><time>2026-04-06T13:40:48.999Z</time></trkpt><trkpt lat="46.458716892498124" lon="12.50989423984198"><ele>1264.0</ele><time>2026-04-06T13:40:49.999Z</time></trkpt><trkpt lat="46.458645828543965" lon="12.51000377527896"><ele>1264.0</ele><time>2026-04-06T13:40:50.999Z</time></trkpt><trkpt lat="46.45858745048201" lon="12.510132881649069"><ele>1264.2</ele><time>2026-04-06T13:40:51.999Z</time></trkpt><trkpt lat="46.4585548577119" lon="12.510280645574996"><ele>1264.4</ele><time>2026-04-06T13:40:52.999Z</time></trkpt><trkpt lat="46.45854007277798" lon="12.510445235819128"><ele>1264.6</ele><time>2026-04-06T13:40:53.999Z</time></trkpt><trkpt lat="46.45855068204929" lon="12.510611366057896"><ele>1264.8</ele><time>2026-04-06T13:40:54.999Z</time></trkpt><trkpt lat="46.45857561471818" lon="12.510765822061279"><ele>1265.0</ele><time>2026-04-06T13:40:55.999Z</time></trkpt><trkpt lat="46.45859401935604" lon="12.510921741906257"><ele>1265.0</ele><time>2026-04-06T13:40:56.999Z</time></trkpt><trkpt lat="46.458578795142174" lon="12.511080078398582"><ele>1265.0</ele><time>2026-04-06T13:40:57.999Z</time></trkpt><trkpt lat="46.45852965260168" lon="12.51123310077964"><ele>1265.0</ele><time>2026-04-06T13:40:58.999Z</time></trkpt><trkpt lat="46.45845251918547" lon="12.51135893212348"><ele>1265.0</ele><time>2026-04-06T13:40:59.999Z</time></trkpt><trkpt lat="46.45834566473484" lon="12.511425497342291"><ele>1267.25</ele><time>2026-04-06T13:41:00.999Z</time></trkpt><trkpt lat="46.458247377685126" lon="12.511508419389118"><ele>1269.5</ele><time>2026-04-06T13:41:01.999Z</time></trkpt><trkpt lat="46.458135145695834" lon="12.511577909270455"><ele>1271.75</ele><time>2026-04-06T13:41:02.999Z</time></trkpt><trkpt lat="46.45801777496428" lon="12.511660901398157"><ele>1274.0</ele><time>2026-04-06T13:41:03.999Z</time></trkpt><trkpt lat="46.45788980899609" lon="12.511743995586157"><ele>1274.0</ele><time>2026-04-06T13:41:04.999Z</time></trkpt><trkpt lat="46.45775600811524" lon="12.511833288777487"><ele>1274.0</ele><time>2026-04-06T13:41:05.999Z</time></trkpt><trkpt lat="46.45760893059417" lon="12.511930014619711"><ele>1274.0</ele><time>2026-04-06T13:41:06.999Z</time></trkpt><trkpt lat="46.457460687138735" lon="12.512024586551542"><ele>1276.75</ele><time>2026-04-06T13:41:07.999Z</time></trkpt><trkpt lat="46.45733035590692" lon="12.512109178960332"><ele>1279.5</ele><time>2026-04-06T13:41:08.999Z</time></trkpt><trkpt lat="46.45720691759148" lon="12.512186819022055"><ele>1282.25</ele><time>2026-04-06T13:41:09.999Z</time></trkpt><trkpt lat="46.45709087276646" lon="12.512261079488082"><ele>1285.0</ele><time>2026-04-06T13:41:10.999Z</time></trkpt><trkpt lat="46.45699211019526" lon="12.512358421001839"><ele>1285.0</ele><time>2026-04-06T13:41:11.999Z</time></trkpt><trkpt lat="46.45690954828954" lon="12.512502689394145"><ele>1285.0</ele><time>2026-04-06T13:41:12.999Z</time></trkpt><trkpt lat="46.45684042286139" lon="12.512666971295408"><ele>1285.0</ele><time>2026-04-06T13:41:13.999Z</time></trkpt><trkpt lat="46.45676957225996" lon="12.512844638309252"><ele>1285.0</ele><time>2026-04-06T13:41:14.999Z</time></trkpt><trkpt lat="46.456694633084396" lon="12.513037802200616"><ele>1285.3333333333333</ele><time>2026-04-06T13:41:15.999Z</time></trkpt><trkpt lat="46.45659766055638" lon="12.513228142288206"><ele>1285.6666666666667</ele><time>2026-04-06T13:41:16.999Z</time></trkpt><trkpt lat="46.4565104339744" lon="12.513440770926948"><ele>1286.0</ele><time>2026-04-06T13:41:17.999Z</time></trkpt><trkpt lat="46.456419571376614" lon="12.513661124676906"><ele>1286.0</ele><time>2026-04-06T13:41:18.999Z</time></trkpt><trkpt lat="46.45633009118986" lon="12.513878125817097"><ele>1286.0</ele><time>2026-04-06T13:41:19.999Z</time></trkpt><trkpt lat="46.45625414518772" lon="12.514062304801705"><ele>1286.0</ele><time>2026-04-06T13:41:21Z</time></trkpt><trkpt lat="46.4562014296866" lon="12.514236784118749"><ele>1286.0</ele><time>2026-04-06T13:41:22Z</time></trkpt><trkpt lat="46.45613957827319" lon="12.514382860287084"><ele>1286.0</ele><time>2026-04-06T13:41:23Z</time></trkpt><trkpt lat="46.45608144269694" lon="12.514498416717284"><ele>1286.0</ele><time>2026-04-06T13:41:24Z</time></trkpt><trkpt lat="46.45601539677704" lon="12.514582015202146"><ele>1286.0</ele><time>2026-04-06T13:41:25Z</time></trkpt><trkpt lat="46.45593987259354" lon="12.514649752108486"><ele>1286.0</ele><time>2026-04-06T13:41:26Z</time></trkpt><trkpt lat="46.45585721102318" lon="12.514694216787786"><ele>1286.0</ele><time>2026-04-06T13:41:27Z</time></trkpt><trkpt lat="46.45576539817022" lon="12.514712950385029"><ele>1286.0</ele><time>2026-04-06T13:41:28Z</time></trkpt><trkpt lat="46.455663760637975" lon="12.514687319338115"><ele>1286.0</ele><time>2026-04-06T13:41:29Z</time></trkpt><trkpt lat="46.45556648808539" lon="12.514628800308495"><ele>1286.0</ele><time>2026-04-06T13:41:30Z</time></trkpt><trkpt lat="46.455489297784595" lon="12.514535272704011"><ele>1286.0</ele><time>2026-04-06T13:41:31Z</time></trkpt><trkpt lat="46.455426212147586" lon="12.514412836418918"><ele>1291.0</ele><time>2026-04-06T13:41:32Z</time></trkpt><trkpt lat="46.455371948885265" lon="12.514276661217526"><ele>1296.0</ele><time>2026-04-06T13:41:33Z</time></trkpt><trkpt lat="46.4553215682088" lon="12.514137880968201"><ele>1301.0</ele><time>2026-04-06T13:41:34Z</time></trkpt><trkpt lat="46.45528188340861" lon="12.514018229660094"><ele>1306.0</ele><time>2026-04-06T13:41:35Z</time></trkpt><trkpt lat="46.45525782814009" lon="12.51390236414687"><ele>1311.0</ele><time>2026-04-06T13:41:36Z</time></trkpt><trkpt lat="46.45525987695511" lon="12.513774465863577"><ele>1310.0</ele><time>2026-04-06T13:41:37Z</time></trkpt><trkpt lat="46.455275401511706" lon="12.513650632752315"><ele>1309.0</ele><time>2026-04-06T13:41:38Z</time></trkpt><trkpt lat="46.45527701173079" lon="12.5135350840785"><ele>1308.0</ele><time>2026-04-06T13:41:39Z</time></trkpt><trkpt lat="46.45525646698379" lon="12.513424173638604"><ele>1307.0</ele><time>2026-04-06T13:41:40Z</time></trkpt><trkpt lat="46.455206687122164" lon="12.513326804021311"><ele>1306.0</ele><time>2026-04-06T13:41:41Z</time></trkpt><trkpt lat="46.45514107924837" lon="12.513242985855593"><ele>1305.0</ele><time>2026-04-06T13:41:42Z</time></trkpt><trkpt lat="46.45506373391707" lon="12.51316858562123"><ele>1305.0</ele><time>2026-04-06T13:41:43Z</time></trkpt><trkpt lat="46.45497705944216" lon="12.513107434319439"><ele>1305.0</ele><time>2026-04-06T13:41:44Z</time></trkpt><trkpt lat="46.45488757389088" lon="12.513072946915024"><ele>1305.0</ele><time>2026-04-06T13:41:45Z</time></trkpt><trkpt lat="46.4548034613746" lon="12.51307700459725"><ele>1305.0</ele><time>2026-04-06T13:41:46Z</time></trkpt><trkpt lat="46.45472554562412" lon="12.513123430224105"><ele>1305.0</ele><time>2026-04-06T13:41:47Z</time></trkpt><trkpt lat="46.45465362904708" lon="12.513188786404113"><ele>1305.0</ele><time>2026-04-06T13:41:48Z</time></trkpt><trkpt lat="46.454561759228405" lon="12.513237731944622"><ele>1305.8</ele><time>2026-04-06T13:41:49Z</time></trkpt><trkpt lat="46.45448628928376" lon="12.513345151265307"><ele>1306.6</ele><time>2026-04-06T13:41:50Z</time></trkpt><trkpt lat="46.45440383159107" lon="12.513446218002098"><ele>1307.4</ele><time>2026-04-06T13:41:51Z</time></trkpt><trkpt lat="46.454346110579166" lon="12.513547901634164"><ele>1308.2</ele><time>2026-04-06T13:41:52Z</time></trkpt><trkpt lat="46.454293178961024" lon="12.513664818642752"><ele>1309.0</ele><time>2026-04-06T13:41:53Z</time></trkpt><trkpt lat="46.45424521841419" lon="12.513792429567134"><ele>1309.0</ele><time>2026-04-06T13:41:54Z</time></trkpt><trkpt lat="46.45420229234481" lon="12.513924143583475"><ele>1309.0</ele><time>2026-04-06T13:41:55Z</time></trkpt><trkpt lat="46.45419875396861" lon="12.514074047198946"><ele>1309.0</ele><time>2026-04-06T13:41:56Z</time></trkpt><trkpt lat="46.45418208873418" lon="12.514221711033784"><ele>1309.0</ele><time>2026-04-06T13:41:57Z</time></trkpt><trkpt lat="46.45414880059878" lon="12.514379440851014"><ele>1309.0</ele><time>2026-04-06T13:41:58Z</time></trkpt><trkpt lat="46.45414300519792" lon="12.5145525436115"><ele>1309.4</ele><time>2026-04-06T13:41:59Z</time></trkpt><trkpt lat="46.454107690301015" lon="12.514715958385686"><ele>1309.8000000000002</ele><time>2026-04-06T13:42:00Z</time></trkpt><trkpt lat="46.454055109426335" lon="12.514851831820165"><ele>1310.1999999999998</ele><time>2026-04-06T13:42:01Z</time></trkpt><trkpt lat="46.45399426871368" lon="12.514980630071403"><ele>1310.6</ele><time>2026-04-06T13:42:02Z</time></trkpt><trkpt lat="46.45393558902144" lon="12.515105015325842"><ele>1311.0</ele><time>2026-04-06T13:42:03Z</time></trkpt><trkpt lat="46.453869622269025" lon="12.515204778445232"><ele>1311.0</ele><time>2026-04-06T13:42:04Z</time></trkpt><trkpt lat="46.453819179683094" lon="12.515322717956295"><ele>1311.0</ele><time>2026-04-06T13:42:05Z</time></trkpt><trkpt lat="46.45378580346388" lon="12.5154589132433"><ele>1311.0</ele><time>2026-04-06T13:42:06Z</time></trkpt><trkpt lat="46.453768204657905" lon="12.515591455429949"><ele>1311.0</ele><time>2026-04-06T13:42:07Z</time></trkpt><trkpt lat="46.45378915264454" lon="12.515720399277146"><ele>1311.0</ele><time>2026-04-06T13:42:08Z</time></trkpt><trkpt lat="46.45382268555797" lon="12.515834599695856"><ele>1310.1999999999998</ele><time>2026-04-06T13:42:09Z</time></trkpt><trkpt lat="46.45387936690953" lon="12.515939042004726"><ele>1309.3999999999999</ele><time>2026-04-06T13:42:10Z</time></trkpt><trkpt lat="46.45394323190622" lon="12.516035781455036"><ele>1308.6</ele><time>2026-04-06T13:42:11Z</time></trkpt><trkpt lat="46.45401963012365" lon="12.516123423647608"><ele>1307.8</ele><time>2026-04-06T13:42:12Z</time></trkpt><trkpt lat="46.45410484668454" lon="12.516193452171237"><ele>1307.0</ele><time>2026-04-06T13:42:13Z</time></trkpt><trkpt lat="46.454184457896446" lon="12.516259211856854"><ele>1304.3999999999999</ele><time>2026-04-06T13:42:14Z</time></trkpt><trkpt lat="46.45425965905806" lon="12.516336803689482"><ele>1301.8</ele><time>2026-04-06T13:42:15Z</time></trkpt><trkpt lat="46.454314584829014" lon="12.51644548282355"><ele>1299.2</ele><time>2026-04-06T13:42:16Z</time></trkpt><trkpt lat="46.45433643686229" lon="12.516582568898608"><ele>1296.6</ele><time>2026-04-06T13:42:17Z</time></trkpt><trkpt lat="46.4543178400979" lon="12.516724928095526"><ele>1294.0</ele><time>2026-04-06T13:42:18Z</time></trkpt><trkpt lat="46.45426257999162" lon="12.516843961772896"><ele>1294.0</ele><time>2026-04-06T13:42:19Z</time></trkpt><trkpt lat="46.454166492686376" lon="12.516906447959556"><ele>1294.0</ele><time>2026-04-06T13:42:20Z</time></trkpt><trkpt lat="46.45409858524856" lon="12.517015606776049"><ele>1294.0</ele><time>2026-04-06T13:42:21Z</time></trkpt><trkpt lat="46.45403652988742" lon="12.517135435979373"><ele>1294.0</ele><time>2026-04-06T13:42:22Z</time></trkpt><trkpt lat="46.454019821313146" lon="12.517288645278086"><ele>1294.0</ele><time>2026-04-06T13:42:23Z</time></trkpt><trkpt lat="46.453979625885104" lon="12.517432255859248"><ele>1294.5</ele><time>2026-04-06T13:42:24Z</time></trkpt><trkpt lat="46.45395315155083" lon="12.51759121061782"><ele>1295.0</ele><time>2026-04-06T13:42:25Z</time></trkpt><trkpt lat="46.45392141116497" lon="12.517761387306075"><ele>1295.5</ele><time>2026-04-06T13:42:26Z</time></trkpt><trkpt lat="46.45385879944072" lon="12.517917955537975"><ele>1296.0</ele><time>2026-04-06T13:42:27Z</time></trkpt><trkpt lat="46.45378874055541" lon="12.518062274248523"><ele>1293.0</ele><time>2026-04-06T13:42:28Z</time></trkpt><trkpt lat="46.453707381239546" lon="12.518188412710009"><ele>1290.0</ele><time>2026-04-06T13:42:29Z</time></trkpt><trkpt lat="46.45360830834251" lon="12.518284462544342"><ele>1287.0</ele><time>2026-04-06T13:42:30Z</time></trkpt><trkpt lat="46.45349367418731" lon="12.518350039682774"><ele>1284.0</ele><time>2026-04-06T13:42:31Z</time></trkpt><trkpt lat="46.45337128567318" lon="12.518406336508399"><ele>1284.0</ele><time>2026-04-06T13:42:32Z</time></trkpt><trkpt lat="46.45325681632919" lon="12.518462009957105"><ele>1284.0</ele><time>2026-04-06T13:42:33Z</time></trkpt><trkpt lat="46.45314382573504" lon="12.518514775830347"><ele>1284.0</ele><time>2026-04-06T13:42:33.999Z</time></trkpt><trkpt lat="46.453029984237226" lon="12.518559338893393"><ele>1284.0</ele><time>2026-04-06T13:42:34.999Z</time></trkpt><trkpt lat="46.45291573686956" lon="12.518592512681517"><ele>1282.25</ele><time>2026-04-06T13:42:35.999Z</time></trkpt><trkpt lat="46.452803756643206" lon="12.518618481250247"><ele>1280.5</ele><time>2026-04-06T13:42:36.999Z</time></trkpt><trkpt lat="46.45269406047478" lon="12.518650455885973"><ele>1278.75</ele><time>2026-04-06T13:42:37.999Z</time></trkpt><trkpt lat="46.45258968064712" lon="12.518711224957043"><ele>1277.0</ele><time>2026-04-06T13:42:38.999Z</time></trkpt><trkpt lat="46.452495923426596" lon="12.518809698810399"><ele>1277.0</ele><time>2026-04-06T13:42:39.999Z</time></trkpt><trkpt lat="46.45242787747719" lon="12.518936312815123"><ele>1277.0</ele><time>2026-04-06T13:42:40.999Z</time></trkpt><trkpt lat="46.45238300312617" lon="12.519084672746756"><ele>1277.0</ele><time>2026-04-06T13:42:41.999Z</time></trkpt><trkpt lat="46.45233427586978" lon="12.519233816433681"><ele>1277.0</ele><time>2026-04-06T13:42:42.999Z</time></trkpt><trkpt lat="46.452316063259495" lon="12.519378076101253"><ele>1277.0</ele><time>2026-04-06T13:42:43.999Z</time></trkpt><trkpt lat="46.45230001790934" lon="12.519511322982071"><ele>1276.25</ele><time>2026-04-06T13:42:44.999Z</time></trkpt><trkpt lat="46.45223039956505" lon="12.519630518890297"><ele>1275.5</ele><time>2026-04-06T13:42:45.999Z</time></trkpt><trkpt lat="46.45212776762978" lon="12.519707391667875"><ele>1274.75</ele><time>2026-04-06T13:42:46.999Z</time></trkpt><trkpt lat="46.452011185192646" lon="12.51969772066056"><ele>1274.0</ele><time>2026-04-06T13:42:47.999Z</time></trkpt><trkpt lat="46.45189360691995" lon="12.51970253266673"><ele>1274.0</ele><time>2026-04-06T13:42:48.999Z</time></trkpt><trkpt lat="46.45179475721256" lon="12.519714116208704"><ele>1274.0</ele><time>2026-04-06T13:42:49.999Z</time></trkpt><trkpt lat="46.451694701067254" lon="12.519774041025805"><ele>1274.0</ele><time>2026-04-06T13:42:50.999Z</time></trkpt><trkpt lat="46.45158989872766" lon="12.519840039263359"><ele>1274.0</ele><time>2026-04-06T13:42:51.999Z</time></trkpt><trkpt lat="46.45148334354051" lon="12.519906399962489"><ele>1274.0</ele><time>2026-04-06T13:42:52.999Z</time></trkpt><trkpt lat="46.45138826132027" lon="12.51996870845992"><ele>1274.0</ele><time>2026-04-06T13:42:53.999Z</time></trkpt><trkpt lat="46.45129849464854" lon="12.52002144237849"><ele>1274.0</ele><time>2026-04-06T13:42:54.999Z</time></trkpt><trkpt lat="46.451218030219685" lon="12.520079551823773"><ele>1274.0</ele><time>2026-04-06T13:42:55.999Z</time></trkpt><trkpt lat="46.45115376731472" lon="12.520152896693439"><ele>1274.0</ele><time>2026-04-06T13:42:56.999Z</time></trkpt><trkpt lat="46.45109211715508" lon="12.520239545099304"><ele>1274.0</ele><time>2026-04-06T13:42:57.999Z</time></trkpt><trkpt lat="46.451076470771476" lon="12.520382761390621"><ele>1267.5</ele><time>2026-04-06T13:42:58.999Z</time></trkpt><trkpt lat="46.451033251222874" lon="12.52051797735888"><ele>1261.0</ele><time>2026-04-06T13:42:59.999Z</time></trkpt><trkpt lat="46.451007715299006" lon="12.520683080657884"><ele>1254.5</ele><time>2026-04-06T13:43:00.999Z</time></trkpt><trkpt lat="46.450990476735555" lon="12.520872953419834"><ele>1248.0</ele><time>2026-04-06T13:43:01.999Z</time></trkpt><trkpt lat="46.450979778999724" lon="12.52107569905521"><ele>1249.0</ele><time>2026-04-06T13:43:02.999Z</time></trkpt><trkpt lat="46.450969881430225" lon="12.521252700781787"><ele>1250.0</ele><time>2026-04-06T13:43:03.999Z</time></trkpt><trkpt lat="46.45095854422687" lon="12.521425356764732"><ele>1251.0</ele><time>2026-04-06T13:43:04.999Z</time></trkpt><trkpt lat="46.45094566559915" lon="12.52158455771586"><ele>1252.0</ele><time>2026-04-06T13:43:05.999Z</time></trkpt><trkpt lat="46.45091598150875" lon="12.52172121310815"><ele>1252.0</ele><time>2026-04-06T13:43:06.999Z</time></trkpt><trkpt lat="46.45083905522952" lon="12.52183898071791"><ele>1252.0</ele><time>2026-04-06T13:43:07.999Z</time></trkpt><trkpt lat="46.45076488551596" lon="12.521958176067765"><ele>1252.0</ele><time>2026-04-06T13:43:08.999Z</time></trkpt><trkpt lat="46.45072502405302" lon="12.522099356946047"><ele>1252.0</ele><time>2026-04-06T13:43:09.999Z</time></trkpt><trkpt lat="46.45069024736522" lon="12.522231493783954"><ele>1252.0</ele><time>2026-04-06T13:43:10.999Z</time></trkpt><trkpt lat="46.45064776097583" lon="12.522368278473637"><ele>1252.2</ele><time>2026-04-06T13:43:11.999Z</time></trkpt><trkpt lat="46.450591123657425" lon="12.522509695291786"><ele>1252.4</ele><time>2026-04-06T13:43:12.999Z</time></trkpt><trkpt lat="46.450529972067116" lon="12.52263753597699"><ele>1252.6</ele><time>2026-04-06T13:43:13.999Z</time></trkpt><trkpt lat="46.45048410110718" lon="12.52275126674967"><ele>1252.8</ele><time>2026-04-06T13:43:14.999Z</time></trkpt><trkpt lat="46.45045076419966" lon="12.522850706583636"><ele>1253.0</ele><time>2026-04-06T13:43:15.999Z</time></trkpt><trkpt lat="46.45047008922675" lon="12.522974809724357"><ele>1253.0</ele><time>2026-04-06T13:43:16.999Z</time></trkpt><trkpt lat="46.45052949367389" lon="12.523095920466709"><ele>1253.0</ele><time>2026-04-06T13:43:17.999Z</time></trkpt><trkpt lat="46.45059113362423" lon="12.523210465499861"><ele>1253.0</ele><time>2026-04-06T13:43:18.999Z</time></trkpt><trkpt lat="46.450666184893514" lon="12.52331349712806"><ele>1253.0</ele><time>2026-04-06T13:43:19.999Z</time></trkpt><trkpt lat="46.450729790346024" lon="12.523454959976725"><ele>1253.0</ele><time>2026-04-06T13:43:20.999Z</time></trkpt><trkpt lat="46.450803261547826" lon="12.523584036559598"><ele>1253.0</ele><time>2026-04-06T13:43:21.999Z</time></trkpt><trkpt lat="46.450881978981386" lon="12.523693970636167"><ele>1253.0</ele><time>2026-04-06T13:43:22.999Z</time></trkpt><trkpt lat="46.45092768762204" lon="12.52382439907704"><ele>1253.0</ele><time>2026-04-06T13:43:23.999Z</time></trkpt><trkpt lat="46.450946319379334" lon="12.523975675597491"><ele>1253.0</ele><time>2026-04-06T13:43:24.999Z</time></trkpt><trkpt lat="46.45094816709001" lon="12.524129930992284"><ele>1253.0</ele><time>2026-04-06T13:43:25.999Z</time></trkpt><trkpt lat="46.45095675112762" lon="12.524272556135001"><ele>1250.6</ele><time>2026-04-06T13:43:27Z</time></trkpt><trkpt lat="46.4509707761601" lon="12.524402293081472"><ele>1248.1999999999998</ele><time>2026-04-06T13:43:28Z</time></trkpt><trkpt lat="46.450966476709034" lon="12.524526562021371"><ele>1245.8</ele><time>2026-04-06T13:43:29Z</time></trkpt><trkpt lat="46.45097787906413" lon="12.524644441828395"><ele>1243.3999999999999</ele><time>2026-04-06T13:43:30Z</time></trkpt><trkpt lat="46.45098904155884" lon="12.524759841916218"><ele>1241.0</ele><time>2026-04-06T13:43:31Z</time></trkpt><trkpt lat="46.451192701294026" lon="12.52485269055108"><ele>1242.8</ele><time>2026-04-06T13:43:32Z</time></trkpt><trkpt lat="46.451252667646656" lon="12.524996777280101"><ele>1244.6</ele><time>2026-04-06T13:43:33Z</time></trkpt><trkpt lat="46.45130422235045" lon="12.525143944374102"><ele>1246.4</ele><time>2026-04-06T13:43:34Z</time></trkpt><trkpt lat="46.45135376763285" lon="12.525269448590516"><ele>1248.2</ele><time>2026-04-06T13:43:35Z</time></trkpt><trkpt lat="46.4514159900354" lon="12.525358166898675"><ele>1250.0</ele><time>2026-04-06T13:43:36Z</time></trkpt><trkpt lat="46.45149260042738" lon="12.525410575049104"><ele>1250.0</ele><time>2026-04-06T13:43:37Z</time></trkpt><trkpt lat="46.45157658005146" lon="12.525432977696637"><ele>1250.0</ele><time>2026-04-06T13:43:38Z</time></trkpt><trkpt lat="46.45166707279831" lon="12.525412166229893"><ele>1250.0</ele><time>2026-04-06T13:43:39Z</time></trkpt><trkpt lat="46.451744700881775" lon="12.525354659497609"><ele>1250.0</ele><time>2026-04-06T13:43:40Z</time></trkpt><trkpt lat="46.45180956859477" lon="12.525298437727628"><ele>1250.0</ele><time>2026-04-06T13:43:41Z</time></trkpt><trkpt lat="46.451868206961024" lon="12.525262908787921"><ele>1250.0</ele><time>2026-04-06T13:43:42Z</time></trkpt><trkpt lat="46.45197429434065" lon="12.525297660786087"><ele>1250.0</ele><time>2026-04-06T13:43:44Z</time></trkpt><trkpt lat="46.451998821779526" lon="12.525389827642762"><ele>1250.0</ele><time>2026-04-06T13:43:45Z</time></trkpt><trkpt lat="46.45198309621351" lon="12.525484950450696"><ele>1250.0</ele><time>2026-04-06T13:43:46Z</time></trkpt><trkpt lat="46.45192313672219" lon="12.525548708504166"><ele>1250.0</ele><time>2026-04-06T13:43:47Z</time></trkpt><trkpt lat="46.45184330000606" lon="12.525563135258494"><ele>1250.0</ele><time>2026-04-06T13:43:48Z</time></trkpt><trkpt lat="46.45176795519844" lon="12.525559647845608"><ele>1250.0</ele><time>2026-04-06T13:43:49Z</time></trkpt><trkpt lat="46.45168121840406" lon="12.525560993409464"><ele>1246.0</ele><time>2026-04-06T13:43:50Z</time></trkpt><trkpt lat="46.451567854896176" lon="12.525564995454513"><ele>1242.0</ele><time>2026-04-06T13:43:51Z</time></trkpt><trkpt lat="46.45144863199668" lon="12.525561181072641"><ele>1238.0</ele><time>2026-04-06T13:43:52Z</time></trkpt><trkpt lat="46.45134823671124" lon="12.525522046467222"><ele>1234.0</ele><time>2026-04-06T13:43:53Z</time></trkpt><trkpt lat="46.451258317140635" lon="12.525441925908792"><ele>1230.0</ele><time>2026-04-06T13:43:54Z</time></trkpt><trkpt lat="46.45116716576844" lon="12.525328209076836"><ele>1229.0</ele><time>2026-04-06T13:43:55Z</time></trkpt><trkpt lat="46.45107212728891" lon="12.525186162663342"><ele>1228.0</ele><time>2026-04-06T13:43:56Z</time></trkpt><trkpt lat="46.450985842482154" lon="12.525069261171472"><ele>1227.0</ele><time>2026-04-06T13:43:57Z</time></trkpt><trkpt lat="46.45090920993403" lon="12.52496467060008"><ele>1226.0</ele><time>2026-04-06T13:43:58Z</time></trkpt><trkpt lat="46.4508392069331" lon="12.52486339135765"><ele>1226.0</ele><time>2026-04-06T13:43:59Z</time></trkpt><trkpt lat="46.45077503190072" lon="12.524750437601824"><ele>1226.0</ele><time>2026-04-06T13:44:00Z</time></trkpt><trkpt lat="46.45072280746041" lon="12.524613000768909"><ele>1226.0</ele><time>2026-04-06T13:44:01Z</time></trkpt><trkpt lat="46.45068173184901" lon="12.524451835727096"><ele>1226.0</ele><time>2026-04-06T13:44:02Z</time></trkpt><trkpt lat="46.45064587195168" lon="12.524288634355452"><ele>1226.0</ele><time>2026-04-06T13:44:03Z</time></trkpt><trkpt lat="46.450598859598315" lon="12.524145002722076"><ele>1223.75</ele><time>2026-04-06T13:44:04Z</time></trkpt><trkpt lat="46.45053523870965" lon="12.524011439177682"><ele>1221.5</ele><time>2026-04-06T13:44:05Z</time></trkpt><trkpt lat="46.45046398952496" lon="12.523880995439882"><ele>1219.25</ele><time>2026-04-06T13:44:06Z</time></trkpt><trkpt lat="46.45038949795303" lon="12.523749207792127"><ele>1217.0</ele><time>2026-04-06T13:44:07Z</time></trkpt><trkpt lat="46.450315102671205" lon="12.523613561204218"><ele>1217.0</ele><time>2026-04-06T13:44:08Z</time></trkpt><trkpt lat="46.450242144862905" lon="12.523475217371773"><ele>1217.0</ele><time>2026-04-06T13:44:09Z</time></trkpt><trkpt lat="46.45017168227767" lon="12.523338096524107"><ele>1217.0</ele><time>2026-04-06T13:44:10Z</time></trkpt><trkpt lat="46.450102363148794" lon="12.523193313595497"><ele>1217.0</ele><time>2026-04-06T13:44:11Z</time></trkpt><trkpt lat="46.45003305046515" lon="12.523044584982992"><ele>1217.0</ele><time>2026-04-06T13:44:12Z</time></trkpt><trkpt lat="46.44996515500386" lon="12.522916543071611"><ele>1217.0</ele><time>2026-04-06T13:44:13Z</time></trkpt><trkpt lat="46.44988670527185" lon="12.522793085081524"><ele>1217.0</ele><time>2026-04-06T13:44:14Z</time></trkpt><trkpt lat="46.449809337560005" lon="12.522690229670392"><ele>1217.0</ele><time>2026-04-06T13:44:15Z</time></trkpt><trkpt lat="46.449739013180064" lon="12.522602906705053"><ele>1217.0</ele><time>2026-04-06T13:44:16Z</time></trkpt><trkpt lat="46.449686866974666" lon="12.52251815309613"><ele>1217.6666666666667</ele><time>2026-04-06T13:44:17Z</time></trkpt><trkpt lat="46.4496541734648" lon="12.522416390559357"><ele>1218.3333333333335</ele><time>2026-04-06T13:44:18Z</time></trkpt><trkpt lat="46.44966092840352" lon="12.522306188862652"><ele>1219.0</ele><time>2026-04-06T13:44:19Z</time></trkpt><trkpt lat="46.449700860967994" lon="12.522209570328041"><ele>1219.6666666666667</ele><time>2026-04-06T13:44:20Z</time></trkpt><trkpt lat="46.44977438890096" lon="12.522136845905132"><ele>1220.3333333333333</ele><time>2026-04-06T13:44:21Z</time></trkpt><trkpt lat="46.44987426704644" lon="12.52206944299343"><ele>1221.0</ele><time>2026-04-06T13:44:22Z</time></trkpt><trkpt lat="46.4499610050916" lon="12.521959069272583"><ele>1217.75</ele><time>2026-04-06T13:44:23Z</time></trkpt><trkpt lat="46.45004925436307" lon="12.52182437930609"><ele>1214.5</ele><time>2026-04-06T13:44:24Z</time></trkpt><trkpt lat="46.45012877524153" lon="12.521698510303349"><ele>1211.25</ele><time>2026-04-06T13:44:25Z</time></trkpt><trkpt lat="46.45019213709313" lon="12.521580337066482"><ele>1208.0</ele><time>2026-04-06T13:44:26Z</time></trkpt><trkpt lat="46.450240890610516" lon="12.521447388752962"><ele>1208.0</ele><time>2026-04-06T13:44:27Z</time></trkpt><trkpt lat="46.45026694725788" lon="12.521308165676869"><ele>1208.0</ele><time>2026-04-06T13:44:28Z</time></trkpt><trkpt lat="46.45028814965858" lon="12.521183046908625"><ele>1208.0</ele><time>2026-04-06T13:44:29Z</time></trkpt><trkpt lat="46.45030664824531" lon="12.521072255188633"><ele>1208.0</ele><time>2026-04-06T13:44:30Z</time></trkpt><trkpt lat="46.45031462280782" lon="12.520971496018756"><ele>1208.0</ele><time>2026-04-06T13:44:31Z</time></trkpt><trkpt lat="46.45030145323429" lon="12.520880867744314"><ele>1208.0</ele><time>2026-04-06T13:44:32Z</time></trkpt><trkpt lat="46.45019149100943" lon="12.520784720498325"><ele>1208.0</ele><time>2026-04-06T13:44:34Z</time></trkpt><trkpt lat="46.45012427340647" lon="12.520813564440108"><ele>1208.0</ele><time>2026-04-06T13:44:34.999Z</time></trkpt><trkpt lat="46.450076177700744" lon="12.520889624134922"><ele>1208.0</ele><time>2026-04-06T13:44:35.999Z</time></trkpt><trkpt lat="46.45005940827334" lon="12.520996248272295"><ele>1208.0</ele><time>2026-04-06T13:44:36.999Z</time></trkpt><trkpt lat="46.45006147124602" lon="12.521111128923728"><ele>1208.0</ele><time>2026-04-06T13:44:37.999Z</time></trkpt><trkpt lat="46.45006392155465" lon="12.5212335045747"><ele>1208.0</ele><time>2026-04-06T13:44:38.999Z</time></trkpt><trkpt lat="46.45006014142887" lon="12.5213766010671"><ele>1208.0</ele><time>2026-04-06T13:44:39.999Z</time></trkpt><trkpt lat="46.45002987168925" lon="12.521524409351137"><ele>1208.0</ele><time>2026-04-06T13:44:40.999Z</time></trkpt><trkpt lat="46.44997243113225" lon="12.521655726065562"><ele>1208.0</ele><time>2026-04-06T13:44:41.999Z</time></trkpt><trkpt lat="46.449906233845546" lon="12.521765145273033"><ele>1208.0</ele><time>2026-04-06T13:44:42.999Z</time></trkpt><trkpt lat="46.44984211440588" lon="12.521859476415138"><ele>1208.0</ele><time>2026-04-06T13:44:43.999Z</time></trkpt><trkpt lat="46.449771350203015" lon="12.521936172501514"><ele>1208.0</ele><time>2026-04-06T13:44:44.999Z</time></trkpt><trkpt lat="46.44967998361383" lon="12.521994823785077"><ele>1208.0</ele><time>2026-04-06T13:44:45.999Z</time></trkpt><trkpt lat="46.449579279904896" lon="12.52203382308439"><ele>1208.0</ele><time>2026-04-06T13:44:46.999Z</time></trkpt><trkpt lat="46.449494778915366" lon="12.52209274336793"><ele>1208.0</ele><time>2026-04-06T13:44:47.999Z</time></trkpt><trkpt lat="46.449425819502245" lon="12.522170805999599"><ele>1208.0</ele><time>2026-04-06T13:44:48.999Z</time></trkpt><trkpt lat="46.44937735831295" lon="12.522274759371276"><ele>1203.2</ele><time>2026-04-06T13:44:49.999Z</time></trkpt><trkpt lat="46.44935583095044" lon="12.522406328612538"><ele>1198.4</ele><time>2026-04-06T13:44:50.999Z</time></trkpt><trkpt lat="46.44936432194508" lon="12.522543834680922"><ele>1193.6000000000001</ele><time>2026-04-06T13:44:51.999Z</time></trkpt><trkpt lat="46.4493894074375" lon="12.522671554564825"><ele>1188.8</ele><time>2026-04-06T13:44:52.999Z</time></trkpt><trkpt lat="46.44941286331364" lon="12.5228047964423"><ele>1184.0</ele><time>2026-04-06T13:44:53.999Z</time></trkpt><trkpt lat="46.44943908428821" lon="12.522950404947691"><ele>1183.25</ele><time>2026-04-06T13:44:54.999Z</time></trkpt><trkpt lat="46.44946858800679" lon="12.523102744464245"><ele>1182.5</ele><time>2026-04-06T13:44:55.999Z</time></trkpt><trkpt lat="46.449509973284236" lon="12.523252244090411"><ele>1181.75</ele><time>2026-04-06T13:44:56.999Z</time></trkpt><trkpt lat="46.44958060016428" lon="12.52338447744199"><ele>1181.0</ele><time>2026-04-06T13:44:57.999Z</time></trkpt><trkpt lat="46.449653714281204" lon="12.523519998559502"><ele>1186.25</ele><time>2026-04-06T13:44:58.999Z</time></trkpt><trkpt lat="46.44971983501655" lon="12.52366785734331"><ele>1191.5</ele><time>2026-04-06T13:44:59.999Z</time></trkpt><trkpt lat="46.44978882158958" lon="12.52381006453962"><ele>1196.75</ele><time>2026-04-06T13:45:00.999Z</time></trkpt><trkpt lat="46.44985253117954" lon="12.523957806816004"><ele>1202.0</ele><time>2026-04-06T13:45:01.999Z</time></trkpt><trkpt lat="46.449908660132294" lon="12.52411561200311"><ele>1202.0</ele><time>2026-04-06T13:45:02.999Z</time></trkpt><trkpt lat="46.44995225898991" lon="12.524292722166457"><ele>1202.0</ele><time>2026-04-06T13:45:03.999Z</time></trkpt><trkpt lat="46.44997796770792" lon="12.524493951385402"><ele>1202.0</ele><time>2026-04-06T13:45:04.999Z</time></trkpt><trkpt lat="46.44999926935257" lon="12.52468512482371"><ele>1202.0</ele><time>2026-04-06T13:45:05.999Z</time></trkpt><trkpt lat="46.450026942181715" lon="12.52487090995615"><ele>1198.0</ele><time>2026-04-06T13:45:06.999Z</time></trkpt><trkpt lat="46.4500646119573" lon="12.525042370787139"><ele>1194.0</ele><time>2026-04-06T13:45:07.999Z</time></trkpt><trkpt lat="46.45010219208091" lon="12.52521201179768"><ele>1190.0</ele><time>2026-04-06T13:45:08.999Z</time></trkpt><trkpt lat="46.45013330844956" lon="12.525386741509324"><ele>1186.0</ele><time>2026-04-06T13:45:09.999Z</time></trkpt><trkpt lat="46.45016515458573" lon="12.525558278580526"><ele>1184.0</ele><time>2026-04-06T13:45:10.999Z</time></trkpt><trkpt lat="46.45020217358174" lon="12.52572602015206"><ele>1182.0</ele><time>2026-04-06T13:45:11.999Z</time></trkpt><trkpt lat="46.45024102792278" lon="12.525881291269945"><ele>1180.0</ele><time>2026-04-06T13:45:12.999Z</time></trkpt><trkpt lat="46.45029245483296" lon="12.52601718280023"><ele>1178.0</ele><time>2026-04-06T13:45:13.999Z</time></trkpt><trkpt lat="46.45034780938118" lon="12.526135518167163"><ele>1176.0</ele><time>2026-04-06T13:45:14.999Z</time></trkpt><trkpt lat="46.450408247553796" lon="12.526260440463943"><ele>1174.8333333333333</ele><time>2026-04-06T13:45:15.999Z</time></trkpt><trkpt lat="46.45045836430914" lon="12.526374864897882"><ele>1173.6666666666667</ele><time>2026-04-06T13:45:16.999Z</time></trkpt><trkpt lat="46.45048810631319" lon="12.526478400723654"><ele>1172.5</ele><time>2026-04-06T13:45:17.999Z</time></trkpt><trkpt lat="46.45049332275995" lon="12.526569972332323"><ele>1171.3333333333335</ele><time>2026-04-06T13:45:18.999Z</time></trkpt><trkpt lat="46.45039838170935" lon="12.526661516416754"><ele>1170.1666666666667</ele><time>2026-04-06T13:45:20.999Z</time></trkpt><trkpt lat="46.45033587907181" lon="12.526607265706167"><ele>1169.0</ele><time>2026-04-06T13:45:21.999Z</time></trkpt><trkpt lat="46.450301039775965" lon="12.526490702686571"><ele>1169.0</ele><time>2026-04-06T13:45:22.999Z</time></trkpt><trkpt lat="46.45026971093715" lon="12.526368214050956"><ele>1169.0</ele><time>2026-04-06T13:45:23.999Z</time></trkpt><trkpt lat="46.45021698571939" lon="12.526239110818086"><ele>1169.0</ele><time>2026-04-06T13:45:24.999Z</time></trkpt><trkpt lat="46.45014799150555" lon="12.526091996420007"><ele>1169.0</ele><time>2026-04-06T13:45:25.999Z</time></trkpt><trkpt lat="46.45007695046556" lon="12.525919360452319"><ele>1170.75</ele><time>2026-04-06T13:45:26.999Z</time></trkpt><trkpt lat="46.45000530671819" lon="12.52573337811873"><ele>1172.5</ele><time>2026-04-06T13:45:27.999Z</time></trkpt><trkpt lat="46.4499340124285" lon="12.525561252220054"><ele>1174.25</ele><time>2026-04-06T13:45:28.999Z</time></trkpt><trkpt lat="46.449868036217225" lon="12.525388612019215"><ele>1176.0</ele><time>2026-04-06T13:45:29.999Z</time></trkpt><trkpt lat="46.449810756428946" lon="12.525213143650944"><ele>1178.5</ele><time>2026-04-06T13:45:30.999Z</time></trkpt><trkpt lat="46.449759572650066" lon="12.525030043247604"><ele>1181.0</ele><time>2026-04-06T13:45:31.999Z</time></trkpt><trkpt lat="46.44970251941769" lon="12.524855271424663"><ele>1183.5</ele><time>2026-04-06T13:45:33Z</time></trkpt><trkpt lat="46.44962866821639" lon="12.524701134217716"><ele>1186.0</ele><time>2026-04-06T13:45:34Z</time></trkpt><trkpt lat="46.449549671867274" lon="12.524565264060689"><ele>1181.3999999999999</ele><time>2026-04-06T13:45:35Z</time></trkpt><trkpt lat="46.449471041326696" lon="12.524438292398424"><ele>1176.8</ele><time>2026-04-06T13:45:36Z</time></trkpt><trkpt lat="46.44939778059133" lon="12.524324871522385"><ele>1172.1999999999998</ele><time>2026-04-06T13:45:37Z</time></trkpt><trkpt lat="46.449322284810265" lon="12.524217755611284"><ele>1167.6</ele><time>2026-04-06T13:45:38Z</time></trkpt><trkpt lat="46.449238714669086" lon="12.524117149234947"><ele>1163.0</ele><time>2026-04-06T13:45:39Z</time></trkpt><trkpt lat="46.44915572737493" lon="12.524020678133818"><ele>1163.0</ele><time>2026-04-06T13:45:40Z</time></trkpt><trkpt lat="46.449079465764235" lon="12.523919089506172"><ele>1163.0</ele><time>2026-04-06T13:45:41Z</time></trkpt><trkpt lat="46.449013605159244" lon="12.523785231444736"><ele>1163.0</ele><time>2026-04-06T13:45:42Z</time></trkpt><trkpt lat="46.44895171098946" lon="12.52363194009656"><ele>1163.0</ele><time>2026-04-06T13:45:43Z</time></trkpt><trkpt lat="46.44888672791525" lon="12.523469451566665"><ele>1161.8</ele><time>2026-04-06T13:45:44Z</time></trkpt><trkpt lat="46.44883405489088" lon="12.523321290217114"><ele>1160.6</ele><time>2026-04-06T13:45:45Z</time></trkpt><trkpt lat="46.448783083381905" lon="12.523166359954867"><ele>1159.4</ele><time>2026-04-06T13:45:46Z</time></trkpt><trkpt lat="46.44873506901721" lon="12.523015247546354"><ele>1158.2</ele><time>2026-04-06T13:45:47Z</time></trkpt><trkpt lat="46.44869503047846" lon="12.522880996215042"><ele>1157.0</ele><time>2026-04-06T13:45:48Z</time></trkpt><trkpt lat="46.448662690381795" lon="12.522754357138316"><ele>1157.0</ele><time>2026-04-06T13:45:49Z</time></trkpt><trkpt lat="46.44863537620448" lon="12.522628653920595"><ele>1157.0</ele><time>2026-04-06T13:45:50Z</time></trkpt><trkpt lat="46.44862484288441" lon="12.522504711039504"><ele>1157.0</ele><time>2026-04-06T13:45:51Z</time></trkpt><trkpt lat="46.44863778569242" lon="12.522384515552949"><ele>1157.0</ele><time>2026-04-06T13:45:52Z</time></trkpt><trkpt lat="46.448675477307134" lon="12.522263375877388"><ele>1157.0</ele><time>2026-04-06T13:45:53Z</time></trkpt><trkpt lat="46.44872251111759" lon="12.522140766799755"><ele>1157.0</ele><time>2026-04-06T13:45:54Z</time></trkpt><trkpt lat="46.44875720989505" lon="12.522025969039527"><ele>1156.6666666666667</ele><time>2026-04-06T13:45:55Z</time></trkpt><trkpt lat="46.448780258706954" lon="12.521914145746628"><ele>1156.3333333333335</ele><time>2026-04-06T13:45:56Z</time></trkpt><trkpt lat="46.44879141261681" lon="12.521813112544889"><ele>1156.0</ele><time>2026-04-06T13:45:57Z</time></trkpt><trkpt lat="46.44880277934239" lon="12.521722346519812"><ele>1155.6666666666667</ele><time>2026-04-06T13:45:57.999Z</time></trkpt><trkpt lat="46.448777212147135" lon="12.52155699724243"><ele>1155.3333333333333</ele><time>2026-04-06T13:45:59.999Z</time></trkpt><trkpt lat="46.44872553283511" lon="12.52150217710815"><ele>1155.0</ele><time>2026-04-06T13:46:00.999Z</time></trkpt><trkpt lat="46.448660858223725" lon="12.52149814931469"><ele>1155.0</ele><time>2026-04-06T13:46:01.999Z</time></trkpt><trkpt lat="46.448607889323156" lon="12.521566646014408"><ele>1155.0</ele><time>2026-04-06T13:46:02.999Z</time></trkpt><trkpt lat="46.44859593204095" lon="12.521677911370777"><ele>1155.0</ele><time>2026-04-06T13:46:03.999Z</time></trkpt><trkpt lat="46.44861441513215" lon="12.521788898603246"><ele>1155.0</ele><time>2026-04-06T13:46:04.999Z</time></trkpt><trkpt lat="46.44864439204873" lon="12.521886782613274"><ele>1155.0</ele><time>2026-04-06T13:46:05.999Z</time></trkpt><trkpt lat="46.44864999401157" lon="12.521995433805534"><ele>1155.0</ele><time>2026-04-06T13:46:06.999Z</time></trkpt><trkpt lat="46.44862204663741" lon="12.522108653550404"><ele>1155.3333333333333</ele><time>2026-04-06T13:46:07.999Z</time></trkpt><trkpt lat="46.44857530547234" lon="12.522211753454664"><ele>1155.6666666666667</ele><time>2026-04-06T13:46:08.999Z</time></trkpt><trkpt lat="46.44851513611617" lon="12.522295838620236"><ele>1156.0</ele><time>2026-04-06T13:46:09.999Z</time></trkpt><trkpt lat="46.44847376807202" lon="12.522393950441257"><ele>1156.3333333333335</ele><time>2026-04-06T13:46:10.999Z</time></trkpt><trkpt lat="46.448449547177056" lon="12.522521545649685"><ele>1156.6666666666667</ele><time>2026-04-06T13:46:11.999Z</time></trkpt><trkpt lat="46.44844354433421" lon="12.522660283698812"><ele>1157.0</ele><time>2026-04-06T13:46:12.999Z</time></trkpt><trkpt lat="46.44844986648429" lon="12.522806856900324"><ele>1156.8</ele><time>2026-04-06T13:46:13.999Z</time></trkpt><trkpt lat="46.448455983832716" lon="12.522960677731858"><ele>1156.6</ele><time>2026-04-06T13:46:14.999Z</time></trkpt><trkpt lat="46.44846529833168" lon="12.523126001575607"><ele>1156.3999999999999</ele><time>2026-04-06T13:46:15.999Z</time></trkpt><trkpt lat="46.44847716428042" lon="12.523294410584079"><ele>1156.2</ele><time>2026-04-06T13:46:16.999Z</time></trkpt><trkpt lat="46.44849723474324" lon="12.523452151093375"><ele>1156.0</ele><time>2026-04-06T13:46:17.999Z</time></trkpt><trkpt lat="46.44851760292017" lon="12.52360230782555"><ele>1155.25</ele><time>2026-04-06T13:46:18.999Z</time></trkpt><trkpt lat="46.448546283725555" lon="12.523757880031132"><ele>1154.5</ele><time>2026-04-06T13:46:19.999Z</time></trkpt><trkpt lat="46.448581958242286" lon="12.523915312038756"><ele>1153.75</ele><time>2026-04-06T13:46:20.999Z</time></trkpt><trkpt lat="46.448634040677724" lon="12.524067768733003"><ele>1153.0</ele><time>2026-04-06T13:46:21.999Z</time></trkpt><trkpt lat="46.44870111759326" lon="12.52421364030028"><ele>1153.0</ele><time>2026-04-06T13:46:22.999Z</time></trkpt><trkpt lat="46.448770450982856" lon="12.524361307014928"><ele>1153.0</ele><time>2026-04-06T13:46:23.999Z</time></trkpt><trkpt lat="46.448842647335354" lon="12.524513975800042"><ele>1153.0</ele><time>2026-04-06T13:46:24.999Z</time></trkpt><trkpt lat="46.44892079213152" lon="12.524676103989794"><ele>1153.0</ele><time>2026-04-06T13:46:25.999Z</time></trkpt><trkpt lat="46.448991836408446" lon="12.524846677441948"><ele>1151.5</ele><time>2026-04-06T13:46:26.999Z</time></trkpt><trkpt lat="46.449047754974586" lon="12.5250185227725"><ele>1150.0</ele><time>2026-04-06T13:46:27.999Z</time></trkpt><trkpt lat="46.449079830000315" lon="12.525193212764112"><ele>1148.5</ele><time>2026-04-06T13:46:28.999Z</time></trkpt><trkpt lat="46.449108161863315" lon="12.525379451090858"><ele>1147.0</ele><time>2026-04-06T13:46:29.999Z</time></trkpt><trkpt lat="46.44914221928549" lon="12.525563643221462"><ele>1145.0</ele><time>2026-04-06T13:46:30.999Z</time></trkpt><trkpt lat="46.44916976977482" lon="12.525737996791408"><ele>1143.0</ele><time>2026-04-06T13:46:31.999Z</time></trkpt><trkpt lat="46.44917637497113" lon="12.52591614390134"><ele>1141.0</ele><time>2026-04-06T13:46:32.999Z</time></trkpt><trkpt lat="46.44916651074165" lon="12.526100859465911"><ele>1139.0</ele><time>2026-04-06T13:46:33.999Z</time></trkpt><trkpt lat="46.44914828080857" lon="12.526280733774332"><ele>1139.0</ele><time>2026-04-06T13:46:34.999Z</time></trkpt><trkpt lat="46.44913174954538" lon="12.526473884438905"><ele>1139.0</ele><time>2026-04-06T13:46:35.999Z</time></trkpt><trkpt lat="46.44911909801609" lon="12.526680049122321"><ele>1139.0</ele><time>2026-04-06T13:46:36.999Z</time></trkpt><trkpt lat="46.44910668839987" lon="12.52687864148708"><ele>1139.0</ele><time>2026-04-06T13:46:37.999Z</time></trkpt><trkpt lat="46.449099236077174" lon="12.527084272349658"><ele>1137.25</ele><time>2026-04-06T13:46:38.999Z</time></trkpt><trkpt lat="46.449096164309765" lon="12.527279823502266"><ele>1135.5</ele><time>2026-04-06T13:46:39.999Z</time></trkpt><trkpt lat="46.449098110294784" lon="12.527458854789707"><ele>1133.75</ele><time>2026-04-06T13:46:40.999Z</time></trkpt><trkpt lat="46.44910325885536" lon="12.527645725792137"><ele>1132.0</ele><time>2026-04-06T13:46:41.999Z</time></trkpt><trkpt lat="46.449100712652466" lon="12.527840487988849"><ele>1130.25</ele><time>2026-04-06T13:46:42.999Z</time></trkpt><trkpt lat="46.44908198389022" lon="12.528034804201907"><ele>1128.5</ele><time>2026-04-06T13:46:43.999Z</time></trkpt><trkpt lat="46.449054406924915" lon="12.528225749003921"><ele>1126.75</ele><time>2026-04-06T13:46:44.999Z</time></trkpt><trkpt lat="46.4490226183261" lon="12.528400018164604"><ele>1125.0</ele><time>2026-04-06T13:46:45.999Z</time></trkpt><trkpt lat="46.448994584162776" lon="12.528565581002091"><ele>1125.0</ele><time>2026-04-06T13:46:46.999Z</time></trkpt><trkpt lat="46.44897393427952" lon="12.528720561712824"><ele>1125.0</ele><time>2026-04-06T13:46:47.999Z</time></trkpt><trkpt lat="46.44896418051464" lon="12.528868155494221"><ele>1125.0</ele><time>2026-04-06T13:46:48.999Z</time></trkpt><trkpt lat="46.44897310456695" lon="12.529011124808608"><ele>1125.0</ele><time>2026-04-06T13:46:49.999Z</time></trkpt><trkpt lat="46.44900448035121" lon="12.52914710131136"><ele>1125.0</ele><time>2026-04-06T13:46:50.999Z</time></trkpt><trkpt lat="46.44906099592384" lon="12.529253122729358"><ele>1124.2</ele><time>2026-04-06T13:46:51.999Z</time></trkpt><trkpt lat="46.44913738832527" lon="12.529321174837685"><ele>1123.4</ele><time>2026-04-06T13:46:52.999Z</time></trkpt><trkpt lat="46.44922323322928" lon="12.529352353910474"><ele>1122.6</ele><time>2026-04-06T13:46:53.999Z</time></trkpt><trkpt lat="46.44931766137383" lon="12.529332537107166"><ele>1121.8</ele><time>2026-04-06T13:46:54.999Z</time></trkpt><trkpt lat="46.449422080824995" lon="12.529287766296303"><ele>1121.0</ele><time>2026-04-06T13:46:55.999Z</time></trkpt><trkpt lat="46.449534534374166" lon="12.529247981118194"><ele>1121.2</ele><time>2026-04-06T13:46:56.999Z</time></trkpt><trkpt lat="46.44965499198601" lon="12.529206542786822"><ele>1121.3999999999999</ele><time>2026-04-06T13:46:57.999Z</time></trkpt><trkpt lat="46.44976847532851" lon="12.529162069279861"><ele>1121.6</ele><time>2026-04-06T13:46:58.999Z</time></trkpt><trkpt lat="46.44987498121638" lon="12.52912375810306"><ele>1121.8</ele><time>2026-04-06T13:46:59.999Z</time></trkpt><trkpt lat="46.44996502820783" lon="12.529087883215164"><ele>1122.0</ele><time>2026-04-06T13:47:00.999Z</time></trkpt><trkpt lat="46.45004387027571" lon="12.529060358206612"><ele>1122.0</ele><time>2026-04-06T13:47:01.999Z</time></trkpt><trkpt lat="46.450116667148684" lon="12.529059964676511"><ele>1122.0</ele><time>2026-04-06T13:47:02.999Z</time></trkpt><trkpt lat="46.450177960123646" lon="12.52910962454488"><ele>1122.0</ele><time>2026-04-06T13:47:03.999Z</time></trkpt><trkpt lat="46.450217263304296" lon="12.52920284710578"><ele>1122.0</ele><time>2026-04-06T13:47:04.999Z</time></trkpt><trkpt lat="46.45023827362172" lon="12.529304474057213"><ele>1122.0</ele><time>2026-04-06T13:47:05.999Z</time></trkpt><trkpt lat="46.450245998431974" lon="12.529401013379582"><ele>1122.0</ele><time>2026-04-06T13:47:06.999Z</time></trkpt><trkpt lat="46.45023120384712" lon="12.529501729258765"><ele>1122.0</ele><time>2026-04-06T13:47:07.999Z</time></trkpt><trkpt lat="46.45018137313348" lon="12.529602024887721"><ele>1121.4</ele><time>2026-04-06T13:47:08.999Z</time></trkpt><trkpt lat="46.45011477703387" lon="12.52968738047659"><ele>1120.8000000000002</ele><time>2026-04-06T13:47:09.999Z</time></trkpt><trkpt lat="46.45003842573857" lon="12.52976358411132"><ele>1120.2</ele><time>2026-04-06T13:47:10.999Z</time></trkpt><trkpt lat="46.449944077284066" lon="12.529825298719944"><ele>1119.6000000000001</ele><time>2026-04-06T13:47:11.999Z</time></trkpt><trkpt lat="46.44982607330713" lon="12.529877059127276"><ele>1119.0</ele><time>2026-04-06T13:47:12.999Z</time></trkpt><trkpt lat="46.44971321761874" lon="12.529943573971236"><ele>1115.5</ele><time>2026-04-06T13:47:13.999Z</time></trkpt><trkpt lat="46.44960336010241" lon="12.530040369872363"><ele>1112.0</ele><time>2026-04-06T13:47:14.999Z</time></trkpt><trkpt lat="46.44949761316962" lon="12.530164267615628"><ele>1108.5</ele><time>2026-04-06T13:47:15.999Z</time></trkpt><trkpt lat="46.44939455836452" lon="12.530285448842697"><ele>1105.0</ele><time>2026-04-06T13:47:16.999Z</time></trkpt><trkpt lat="46.44928852420217" lon="12.53038483421837"><ele>1104.4</ele><time>2026-04-06T13:47:17.999Z</time></trkpt><trkpt lat="46.449190676985594" lon="12.53046442071461"><ele>1103.8</ele><time>2026-04-06T13:47:18.999Z</time></trkpt><trkpt lat="46.449109332128316" lon="12.530551600103355"><ele>1103.2</ele><time>2026-04-06T13:47:19.999Z</time></trkpt><trkpt lat="46.4490355153148" lon="12.530657277435854"><ele>1102.6</ele><time>2026-04-06T13:47:20.999Z</time></trkpt><trkpt lat="46.44897977295247" lon="12.530785067502396"><ele>1102.0</ele><time>2026-04-06T13:47:21.999Z</time></trkpt><trkpt lat="46.448937577184545" lon="12.530920758005287"><ele>1102.0</ele><time>2026-04-06T13:47:22.999Z</time></trkpt><trkpt lat="46.448874636183305" lon="12.531046070387276"><ele>1102.0</ele><time>2026-04-06T13:47:23.999Z</time></trkpt><trkpt lat="46.44878498695284" lon="12.531150019599384"><ele>1102.0</ele><time>2026-04-06T13:47:24.999Z</time></trkpt><trkpt lat="46.448680059660106" lon="12.531234054021393"><ele>1102.0</ele><time>2026-04-06T13:47:25.999Z</time></trkpt><trkpt lat="46.44857052515971" lon="12.531324323564206"><ele>1100.5</ele><time>2026-04-06T13:47:26.999Z</time></trkpt><trkpt lat="46.44847962627384" lon="12.53143137781126"><ele>1099.0</ele><time>2026-04-06T13:47:27.999Z</time></trkpt><trkpt lat="46.44841096574579" lon="12.531561587160489"><ele>1097.5</ele><time>2026-04-06T13:47:28.999Z</time></trkpt><trkpt lat="46.44835893483864" lon="12.53170741746444"><ele>1096.0</ele><time>2026-04-06T13:47:29.999Z</time></trkpt><trkpt lat="46.44830668714399" lon="12.531856840173184"><ele>1096.0</ele><time>2026-04-06T13:47:30.999Z</time></trkpt><trkpt lat="46.44823379647073" lon="12.531991587816488"><ele>1096.0</ele><time>2026-04-06T13:47:31.999Z</time></trkpt><trkpt lat="46.448142329897884" lon="12.53209935899951"><ele>1096.0</ele><time>2026-04-06T13:47:32.999Z</time></trkpt><trkpt lat="46.44804308845368" lon="12.532205595096649"><ele>1096.0</ele><time>2026-04-06T13:47:33.999Z</time></trkpt><trkpt lat="46.447956784817954" lon="12.532339595068073"><ele>1093.25</ele><time>2026-04-06T13:47:34.999Z</time></trkpt><trkpt lat="46.447880194376054" lon="12.532488392310112"><ele>1090.5</ele><time>2026-04-06T13:47:35.999Z</time></trkpt><trkpt lat="46.44780186796005" lon="12.532640324510973"><ele>1087.75</ele><time>2026-04-06T13:47:36.999Z</time></trkpt><trkpt lat="46.44772083316003" lon="12.532790447910893"><ele>1085.0</ele><time>2026-04-06T13:47:37.999Z</time></trkpt><trkpt lat="46.447640666678794" lon="12.532936411965277"><ele>1084.0</ele><time>2026-04-06T13:47:38.999Z</time></trkpt><trkpt lat="46.447560571995425" lon="12.533084444027864"><ele>1083.0</ele><time>2026-04-06T13:47:39.999Z</time></trkpt><trkpt lat="46.447478087321024" lon="12.533233077402922"><ele>1082.0</ele><time>2026-04-06T13:47:40.999Z</time></trkpt><trkpt lat="46.447393789861565" lon="12.533382282684222"><ele>1081.0</ele><time>2026-04-06T13:47:41.999Z</time></trkpt><trkpt lat="46.44731738136006" lon="12.533533392252446"><ele>1081.0</ele><time>2026-04-06T13:47:42.999Z</time></trkpt><trkpt lat="46.44724972310269" lon="12.533685176333728"><ele>1081.0</ele><time>2026-04-06T13:47:43.999Z</time></trkpt><trkpt lat="46.447195537587135" lon="12.533840478446555"><ele>1081.0</ele><time>2026-04-06T13:47:44.999Z</time></trkpt><trkpt lat="46.4471541524887" lon="12.53400100224604"><ele>1081.0</ele><time>2026-04-06T13:47:45.999Z</time></trkpt><trkpt lat="46.44710891264641" lon="12.534160645075197"><ele>1081.0</ele><time>2026-04-06T13:47:46.999Z</time></trkpt><trkpt lat="46.44704589765242" lon="12.534310512770448"><ele>1081.0</ele><time>2026-04-06T13:47:47.999Z</time></trkpt><trkpt lat="46.44697081382959" lon="12.534454302873474"><ele>1081.0</ele><time>2026-04-06T13:47:48.999Z</time></trkpt><trkpt lat="46.44689198456577" lon="12.534594104225503"><ele>1081.0</ele><time>2026-04-06T13:47:49.999Z</time></trkpt><trkpt lat="46.44682932406747" lon="12.534745332923618"><ele>1080.0</ele><time>2026-04-06T13:47:50.999Z</time></trkpt><trkpt lat="46.446790664557234" lon="12.53490304954275"><ele>1079.0</ele><time>2026-04-06T13:47:51.999Z</time></trkpt><trkpt lat="46.44675614334798" lon="12.535072361799648"><ele>1078.0</ele><time>2026-04-06T13:47:52.999Z</time></trkpt><trkpt lat="46.446710789745964" lon="12.53523441610598"><ele>1077.0</ele><time>2026-04-06T13:47:53.999Z</time></trkpt><trkpt lat="46.44664761141095" lon="12.535392902831438"><ele>1077.0</ele><time>2026-04-06T13:47:54.999Z</time></trkpt><trkpt lat="46.44658437886241" lon="12.535546177250827"><ele>1077.0</ele><time>2026-04-06T13:47:55.999Z</time></trkpt><trkpt lat="46.44652264054416" lon="12.535693225227876"><ele>1077.0</ele><time>2026-04-06T13:47:56.999Z</time></trkpt><trkpt lat="46.44646416458" lon="12.53582820848585"><ele>1077.0</ele><time>2026-04-06T13:47:57.999Z</time></trkpt><trkpt lat="46.44640018559495" lon="12.535954053933516"><ele>1077.0</ele><time>2026-04-06T13:47:58.999Z</time></trkpt><trkpt lat="46.44632144469035" lon="12.53606458228234"><ele>1077.0</ele><time>2026-04-06T13:47:59.999Z</time></trkpt><trkpt lat="46.44623603759744" lon="12.536163558015154"><ele>1077.0</ele><time>2026-04-06T13:48:00.999Z</time></trkpt><trkpt lat="46.44617064008421" lon="12.536280622145355"><ele>1077.0</ele><time>2026-04-06T13:48:01.999Z</time></trkpt><trkpt lat="46.44612720064076" lon="12.536422837113346"><ele>1077.0</ele><time>2026-04-06T13:48:02.999Z</time></trkpt><trkpt lat="46.44608523451937" lon="12.536563630701535"><ele>1073.5</ele><time>2026-04-06T13:48:03.999Z</time></trkpt><trkpt lat="46.44602504951272" lon="12.536683601861222"><ele>1070.0</ele><time>2026-04-06T13:48:04.999Z</time></trkpt><trkpt lat="46.44594232233106" lon="12.5367828451658"><ele>1066.5</ele><time>2026-04-06T13:48:05.999Z</time></trkpt><trkpt lat="46.44583834276537" lon="12.536869608161634"><ele>1063.0</ele><time>2026-04-06T13:48:06.999Z</time></trkpt><trkpt lat="46.445724666965745" lon="12.536953359961418"><ele>1063.0</ele><time>2026-04-06T13:48:07.999Z</time></trkpt><trkpt lat="46.445607492303395" lon="12.537042997065193"><ele>1063.0</ele><time>2026-04-06T13:48:08.999Z</time></trkpt><trkpt lat="46.44548875360461" lon="12.5371333639381"><ele>1063.0</ele><time>2026-04-06T13:48:09.999Z</time></trkpt><trkpt lat="46.44535842885385" lon="12.537228859258159"><ele>1063.0</ele><time>2026-04-06T13:48:10.999Z</time></trkpt><trkpt lat="46.445225138389084" lon="12.537323474213949"><ele>1060.5</ele><time>2026-04-06T13:48:11.999Z</time></trkpt><trkpt lat="46.4450985729112" lon="12.537422527471003"><ele>1058.0</ele><time>2026-04-06T13:48:12.999Z</time></trkpt><trkpt lat="46.444979962444" lon="12.537516608186387"><ele>1055.5</ele><time>2026-04-06T13:48:13.999Z</time></trkpt><trkpt lat="46.44486343268941" lon="12.53761607296438"><ele>1053.0</ele><time>2026-04-06T13:48:14.999Z</time></trkpt><trkpt lat="46.4447580818696" lon="12.537730267986637"><ele>1053.0</ele><time>2026-04-06T13:48:15.999Z</time></trkpt><trkpt lat="46.44465872819328" lon="12.53784315724462"><ele>1053.0</ele><time>2026-04-06T13:48:16.999Z</time></trkpt><trkpt lat="46.44456634787608" lon="12.537944464280551"><ele>1053.0</ele><time>2026-04-06T13:48:17.999Z</time></trkpt><trkpt lat="46.4444824975063" lon="12.53803570189449"><ele>1053.0</ele><time>2026-04-06T13:48:18.999Z</time></trkpt><trkpt lat="46.44440785614657" lon="12.538130533214376"><ele>1053.0</ele><time>2026-04-06T13:48:19.999Z</time></trkpt><trkpt lat="46.4443533095569" lon="12.538246463051747"><ele>1052.2</ele><time>2026-04-06T13:48:20.999Z</time></trkpt><trkpt lat="46.44432035770739" lon="12.538378593944222"><ele>1051.4</ele><time>2026-04-06T13:48:21.999Z</time></trkpt><trkpt lat="46.44430638190424" lon="12.53852440958865"><ele>1050.6000000000001</ele><time>2026-04-06T13:48:22.999Z</time></trkpt><trkpt lat="46.4443018548197" lon="12.538679556624935"><ele>1049.8</ele><time>2026-04-06T13:48:23.999Z</time></trkpt><trkpt lat="46.44429965619912" lon="12.53884134204515"><ele>1049.0</ele><time>2026-04-06T13:48:24.999Z</time></trkpt><trkpt lat="46.44429894210265" lon="12.53900396488725"><ele>1049.0</ele><time>2026-04-06T13:48:25.999Z</time></trkpt><trkpt lat="46.44429404319547" lon="12.53915553742398"><ele>1049.0</ele><time>2026-04-06T13:48:26.999Z</time></trkpt><trkpt lat="46.44428447976525" lon="12.539295597502731"><ele>1049.0</ele><time>2026-04-06T13:48:27.999Z</time></trkpt><trkpt lat="46.44426206700122" lon="12.539434852135225"><ele>1049.0</ele><time>2026-04-06T13:48:28.999Z</time></trkpt><trkpt lat="46.444223146549255" lon="12.539575822512427"><ele>1049.0</ele><time>2026-04-06T13:48:29.999Z</time></trkpt><trkpt lat="46.44416679982885" lon="12.539727450841182"><ele>1049.25</ele><time>2026-04-06T13:48:30.999Z</time></trkpt><trkpt lat="46.44408683476239" lon="12.539879458568059"><ele>1049.5</ele><time>2026-04-06T13:48:31.999Z</time></trkpt><trkpt lat="46.44398954142711" lon="12.54003156143733"><ele>1049.75</ele><time>2026-04-06T13:48:32.999Z</time></trkpt><trkpt lat="46.44387634699243" lon="12.5401912732396"><ele>1050.0</ele><time>2026-04-06T13:48:33.999Z</time></trkpt><trkpt lat="46.443759838912925" lon="12.540352782257536"><ele>1047.5</ele><time>2026-04-06T13:48:34.999Z</time></trkpt><trkpt lat="46.4436443446086" lon="12.540519516930384"><ele>1045.0</ele><time>2026-04-06T13:48:35.999Z</time></trkpt><trkpt lat="46.443546852654435" lon="12.540675464287114"><ele>1042.5</ele><time>2026-04-06T13:48:36.999Z</time></trkpt><trkpt lat="46.44346715812054" lon="12.540828415335735"><ele>1040.0</ele><time>2026-04-06T13:48:37.999Z</time></trkpt><trkpt lat="46.443403162700015" lon="12.540985599602003"><ele>1040.0</ele><time>2026-04-06T13:48:38.999Z</time></trkpt><trkpt lat="46.443343151637926" lon="12.54115201277872"><ele>1040.0</ele><time>2026-04-06T13:48:39.999Z</time></trkpt><trkpt lat="46.443265874161774" lon="12.541301086916055"><ele>1040.0</ele><time>2026-04-06T13:48:40.999Z</time></trkpt><trkpt lat="46.44316822897456" lon="12.541431016457764"><ele>1040.0</ele><time>2026-04-06T13:48:41.999Z</time></trkpt><trkpt lat="46.44305045875404" lon="12.541529382691852"><ele>1039.75</ele><time>2026-04-06T13:48:42.999Z</time></trkpt><trkpt lat="46.44292318026284" lon="12.54160299235561"><ele>1039.5</ele><time>2026-04-06T13:48:43.999Z</time></trkpt><trkpt lat="46.44278450649991" lon="12.541662083743585"><ele>1039.25</ele><time>2026-04-06T13:48:44.999Z</time></trkpt><trkpt lat="46.44264282151075" lon="12.541725295691862"><ele>1039.0</ele><time>2026-04-06T13:48:45.999Z</time></trkpt><trkpt lat="46.44250042314812" lon="12.54179148426682"><ele>1039.0</ele><time>2026-04-06T13:48:46.999Z</time></trkpt><trkpt lat="46.44235418557467" lon="12.54185634688364"><ele>1039.0</ele><time>2026-04-06T13:48:47.999Z</time></trkpt><trkpt lat="46.44220943883469" lon="12.541923533166557"><ele>1039.0</ele><time>2026-04-06T13:48:48.999Z</time></trkpt><trkpt lat="46.44206584418885" lon="12.541993496278826"><ele>1038.0</ele><time>2026-04-06T13:48:49.999Z</time></trkpt><trkpt lat="46.44192647086643" lon="12.542068745470713"><ele>1037.0</ele><time>2026-04-06T13:48:50.999Z</time></trkpt><trkpt lat="46.44179253877541" lon="12.54215386128279"><ele>1036.0</ele><time>2026-04-06T13:48:51.999Z</time></trkpt><trkpt lat="46.44166341436339" lon="12.542246774428461"><ele>1035.0</ele><time>2026-04-06T13:48:52.999Z</time></trkpt><trkpt lat="46.44153106488941" lon="12.542325185638456"><ele>1035.0</ele><time>2026-04-06T13:48:53.999Z</time></trkpt><trkpt lat="46.44142044403917" lon="12.542448473232945"><ele>1035.0</ele><time>2026-04-06T13:48:54.999Z</time></trkpt><trkpt lat="46.44130718050171" lon="12.54255528225039"><ele>1035.0</ele><time>2026-04-06T13:48:55.999Z</time></trkpt><trkpt lat="46.44119471286457" lon="12.542671137143504"><ele>1035.0</ele><time>2026-04-06T13:48:56.999Z</time></trkpt><trkpt lat="46.441079024023644" lon="12.542783406253665"><ele>1035.0</ele><time>2026-04-06T13:48:57.999Z</time></trkpt><trkpt lat="46.44095239663095" lon="12.542886172520323"><ele>1035.0</ele><time>2026-04-06T13:48:58.999Z</time></trkpt><trkpt lat="46.44082259001305" lon="12.54296727065687"><ele>1035.0</ele><time>2026-04-06T13:48:59.999Z</time></trkpt><trkpt lat="46.44069400374438" lon="12.543028272381717"><ele>1035.0</ele><time>2026-04-06T13:49:00.999Z</time></trkpt><trkpt lat="46.44057721802851" lon="12.543089924004615"><ele>1035.0</ele><time>2026-04-06T13:49:01.999Z</time></trkpt><trkpt lat="46.44047049365983" lon="12.543156369458776"><ele>1035.0</ele><time>2026-04-06T13:49:02.999Z</time></trkpt><trkpt lat="46.440368315501814" lon="12.543223657779617"><ele>1035.0</ele><time>2026-04-06T13:49:03.999Z</time></trkpt><trkpt lat="46.44028246036944" lon="12.543340478663989"><ele>1035.0</ele><time>2026-04-06T13:49:04.999Z</time></trkpt><trkpt lat="46.440218909751614" lon="12.543493739904648"><ele>1034.25</ele><time>2026-04-06T13:49:05.999Z</time></trkpt><trkpt lat="46.44015956431373" lon="12.543636267703132"><ele>1033.5</ele><time>2026-04-06T13:49:06.999Z</time></trkpt><trkpt lat="46.440046056288324" lon="12.543709122600227"><ele>1032.75</ele><time>2026-04-06T13:49:07.999Z</time></trkpt><trkpt lat="46.4399279932076" lon="12.543806083123547"><ele>1032.0</ele><time>2026-04-06T13:49:08.999Z</time></trkpt><trkpt lat="46.439796422033936" lon="12.54388280184069"><ele>1032.0</ele><time>2026-04-06T13:49:09.999Z</time></trkpt><trkpt lat="46.43967386449254" lon="12.543968439279675"><ele>1032.0</ele><time>2026-04-06T13:49:10.999Z</time></trkpt><trkpt lat="46.43955877544268" lon="12.544065492293921"><ele>1032.0</ele><time>2026-04-06T13:49:11.999Z</time></trkpt><trkpt lat="46.43945459574703" lon="12.544177285175254"><ele>1032.0</ele><time>2026-04-06T13:49:12.999Z</time></trkpt><trkpt lat="46.43935590634775" lon="12.544307740001871"><ele>1035.5</ele><time>2026-04-06T13:49:13.999Z</time></trkpt><trkpt lat="46.439238907158554" lon="12.544402392427221"><ele>1039.0</ele><time>2026-04-06T13:49:14.999Z</time></trkpt><trkpt lat="46.439101918534334" lon="12.544453047095564"><ele>1042.5</ele><time>2026-04-06T13:49:15.999Z</time></trkpt><trkpt lat="46.43896240182275" lon="12.544508437335983"><ele>1046.0</ele><time>2026-04-06T13:49:16.999Z</time></trkpt><trkpt lat="46.43883506002245" lon="12.544587044298938"><ele>1040.5</ele><time>2026-04-06T13:49:17.999Z</time></trkpt><trkpt lat="46.438704812038246" lon="12.544676737901884"><ele>1035.0</ele><time>2026-04-06T13:49:18.999Z</time></trkpt><trkpt lat="46.43857196549818" lon="12.544739173613031"><ele>1029.5</ele><time>2026-04-06T13:49:19.999Z</time></trkpt><trkpt lat="46.43843348708961" lon="12.544762195243203"><ele>1024.0</ele><time>2026-04-06T13:49:20.999Z</time></trkpt><trkpt lat="46.43829019052121" lon="12.544751067842334"><ele>1024.0</ele><time>2026-04-06T13:49:21.999Z</time></trkpt><trkpt lat="46.438145456342376" lon="12.544738742791829"><ele>1024.0</ele><time>2026-04-06T13:49:22.999Z</time></trkpt><trkpt lat="46.43799438842349" lon="12.544746048653606"><ele>1024.0</ele><time>2026-04-06T13:49:23.999Z</time></trkpt><trkpt lat="46.437849959447675" lon="12.54478494425317"><ele>1024.0</ele><time>2026-04-06T13:49:24.999Z</time></trkpt><trkpt lat="46.43770670761868" lon="12.544847909354015"><ele>1019.5</ele><time>2026-04-06T13:49:25.999Z</time></trkpt><trkpt lat="46.437568091425895" lon="12.54491832255671"><ele>1015.0</ele><time>2026-04-06T13:49:26.999Z</time></trkpt><trkpt lat="46.43742352542108" lon="12.544978163440224"><ele>1010.5</ele><time>2026-04-06T13:49:27.999Z</time></trkpt><trkpt lat="46.43727657766459" lon="12.545031287497979"><ele>1006.0</ele><time>2026-04-06T13:49:28.999Z</time></trkpt><trkpt lat="46.43712927875563" lon="12.54506970670605"><ele>1003.25</ele><time>2026-04-06T13:49:29.999Z</time></trkpt><trkpt lat="46.43698443087984" lon="12.545077904948428"><ele>1000.5</ele><time>2026-04-06T13:49:30.999Z</time></trkpt><trkpt lat="46.436844305189865" lon="12.545070747438901"><ele>997.75</ele><time>2026-04-06T13:49:31.999Z</time></trkpt><trkpt lat="46.43671588855903" lon="12.54508445127165"><ele>995.0</ele><time>2026-04-06T13:49:32.999Z</time></trkpt><trkpt lat="46.4365957870622" lon="12.54511547138511"><ele>995.0</ele><time>2026-04-06T13:49:33.999Z</time></trkpt><trkpt lat="46.43647856967661" lon="12.545173636736514"><ele>995.0</ele><time>2026-04-06T13:49:34.999Z</time></trkpt><trkpt lat="46.436366999837134" lon="12.545257886557003"><ele>995.0</ele><time>2026-04-06T13:49:35.999Z</time></trkpt><trkpt lat="46.43626068869498" lon="12.545366455983428"><ele>995.0</ele><time>2026-04-06T13:49:36.999Z</time></trkpt><trkpt lat="46.43615978342652" lon="12.545505504323138"><ele>994.25</ele><time>2026-04-06T13:49:37.999Z</time></trkpt><trkpt lat="46.43606023890618" lon="12.545654916110708"><ele>993.5</ele><time>2026-04-06T13:49:38.999Z</time></trkpt><trkpt lat="46.43596039017577" lon="12.545805366486608"><ele>992.75</ele><time>2026-04-06T13:49:39.999Z</time></trkpt><trkpt lat="46.43585243473697" lon="12.54594531498586"><ele>992.0</ele><time>2026-04-06T13:49:40.999Z</time></trkpt><trkpt lat="46.435728189105184" lon="12.546053823744142"><ele>992.0</ele><time>2026-04-06T13:49:41.999Z</time></trkpt><trkpt lat="46.43559330286152" lon="12.54612431038761"><ele>992.0</ele><time>2026-04-06T13:49:42.999Z</time></trkpt><trkpt lat="46.435450115550644" lon="12.546160353003149"><ele>992.0</ele><time>2026-04-06T13:49:43.999Z</time></trkpt><trkpt lat="46.43531988724627" lon="12.546197774402115"><ele>992.0</ele><time>2026-04-06T13:49:45Z</time></trkpt><trkpt lat="46.435205675812846" lon="12.546250294233431"><ele>989.5</ele><time>2026-04-06T13:49:46Z</time></trkpt><trkpt lat="46.435091717500256" lon="12.546319324751824"><ele>987.0</ele><time>2026-04-06T13:49:47Z</time></trkpt><trkpt lat="46.43498772335959" lon="12.546418491193597"><ele>984.5</ele><time>2026-04-06T13:49:48Z</time></trkpt><trkpt lat="46.4348868249465" lon="12.546546267448146"><ele>982.0</ele><time>2026-04-06T13:49:49Z</time></trkpt><trkpt lat="46.43479254377621" lon="12.546702172600229"><ele>982.0</ele><time>2026-04-06T13:49:50Z</time></trkpt><trkpt lat="46.43469539951343" lon="12.546867583465048"><ele>982.0</ele><time>2026-04-06T13:49:51Z</time></trkpt><trkpt lat="46.434594211651934" lon="12.547035616655467"><ele>982.0</ele><time>2026-04-06T13:49:52Z</time></trkpt><trkpt lat="46.4344983695469" lon="12.547206165555409"><ele>982.0</ele><time>2026-04-06T13:49:53Z</time></trkpt><trkpt lat="46.43440961810043" lon="12.547379529058862"><ele>982.0</ele><time>2026-04-06T13:49:54Z</time></trkpt><trkpt lat="46.43433448258759" lon="12.54754922471523"><ele>982.0</ele><time>2026-04-06T13:49:55Z</time></trkpt><trkpt lat="46.43426539503918" lon="12.547720038267748"><ele>982.0</ele><time>2026-04-06T13:49:56Z</time></trkpt><trkpt lat="46.43419677389767" lon="12.547889617145753"><ele>982.0</ele><time>2026-04-06T13:49:57Z</time></trkpt><trkpt lat="46.43413701918015" lon="12.54807122183649"><ele>982.0</ele><time>2026-04-06T13:49:58Z</time></trkpt><trkpt lat="46.43408774186969" lon="12.548261633192274"><ele>982.0</ele><time>2026-04-06T13:49:59Z</time></trkpt><trkpt lat="46.43404281334839" lon="12.548455895442478"><ele>982.0</ele><time>2026-04-06T13:50:00Z</time></trkpt><trkpt lat="46.433993562959785" lon="12.548647297465005"><ele>984.0</ele><time>2026-04-06T13:50:01Z</time></trkpt><trkpt lat="46.43394207303252" lon="12.548833975095876"><ele>986.0</ele><time>2026-04-06T13:50:02Z</time></trkpt><trkpt lat="46.43388127188617" lon="12.549011247616724"><ele>988.0</ele><time>2026-04-06T13:50:03Z</time></trkpt><trkpt lat="46.43380025441088" lon="12.549183944074588"><ele>990.0</ele><time>2026-04-06T13:50:04Z</time></trkpt><trkpt lat="46.43369620328157" lon="12.54934727692705"><ele>984.0</ele><time>2026-04-06T13:50:05Z</time></trkpt><trkpt lat="46.433580695314525" lon="12.54951499540883"><ele>978.0</ele><time>2026-04-06T13:50:06Z</time></trkpt><trkpt lat="46.43345655442574" lon="12.549687983691955"><ele>972.0</ele><time>2026-04-06T13:50:07Z</time></trkpt><trkpt lat="46.433327714870465" lon="12.549860264916404"><ele>972.0</ele><time>2026-04-06T13:50:08Z</time></trkpt><trkpt lat="46.43320498874438" lon="12.550017910257"><ele>972.0</ele><time>2026-04-06T13:50:09Z</time></trkpt><trkpt lat="46.4330820778619" lon="12.550160107134255"><ele>972.0</ele><time>2026-04-06T13:50:10Z</time></trkpt><trkpt lat="46.43295595460716" lon="12.550269755292085"><ele>970.75</ele><time>2026-04-06T13:50:11Z</time></trkpt><trkpt lat="46.43282747433562" lon="12.550355917686373"><ele>969.5</ele><time>2026-04-06T13:50:12Z</time></trkpt><trkpt lat="46.43269723254363" lon="12.55042462664015"><ele>968.25</ele><time>2026-04-06T13:50:13Z</time></trkpt><trkpt lat="46.43257207898988" lon="12.550489317716904"><ele>967.0</ele><time>2026-04-06T13:50:14Z</time></trkpt><trkpt lat="46.4324599262175" lon="12.55055901167129"><ele>967.0</ele><time>2026-04-06T13:50:15Z</time></trkpt><trkpt lat="46.432341238038234" lon="12.55061078561124"><ele>967.0</ele><time>2026-04-06T13:50:16Z</time></trkpt><trkpt lat="46.43223362244661" lon="12.55070498329446"><ele>967.0</ele><time>2026-04-06T13:50:17Z</time></trkpt><trkpt lat="46.4321395482931" lon="12.550831760210276"><ele>967.0</ele><time>2026-04-06T13:50:18Z</time></trkpt><trkpt lat="46.43205681694968" lon="12.550969322100206"><ele>965.25</ele><time>2026-04-06T13:50:19Z</time></trkpt><trkpt lat="46.43198444842802" lon="12.551119608903019"><ele>963.5</ele><time>2026-04-06T13:50:20Z</time></trkpt><trkpt lat="46.43194254120216" lon="12.551293185143154"><ele>961.75</ele><time>2026-04-06T13:50:21Z</time></trkpt><trkpt lat="46.43190451440377" lon="12.551466156570408"><ele>960.0</ele><time>2026-04-06T13:50:22Z</time></trkpt><trkpt lat="46.431879516741006" lon="12.55164935690288"><ele>960.0</ele><time>2026-04-06T13:50:23Z</time></trkpt><trkpt lat="46.43187093840158" lon="12.551841994183835"><ele>960.0</ele><time>2026-04-06T13:50:24Z</time></trkpt><trkpt lat="46.431873188082925" lon="12.552049108382834"><ele>960.0</ele><time>2026-04-06T13:50:25Z</time></trkpt><trkpt lat="46.431875288406985" lon="12.55226080718013"><ele>960.0</ele><time>2026-04-06T13:50:26Z</time></trkpt><trkpt lat="46.4318798443697" lon="12.552460367083532"><ele>961.0</ele><time>2026-04-06T13:50:27Z</time></trkpt><trkpt lat="46.431880120967854" lon="12.552643872897566"><ele>962.0</ele><time>2026-04-06T13:50:28Z</time></trkpt><trkpt lat="46.43184369719936" lon="12.552808533384491"><ele>963.0</ele><time>2026-04-06T13:50:29Z</time></trkpt><trkpt lat="46.431799507671606" lon="12.552970439482186"><ele>964.0</ele><time>2026-04-06T13:50:30Z</time></trkpt><trkpt lat="46.4317105125725" lon="12.553097182881187"><ele>965.8000000000001</ele><time>2026-04-06T13:50:31Z</time></trkpt><trkpt lat="46.43160138438907" lon="12.553198594951983"><ele>967.6000000000001</ele><time>2026-04-06T13:50:32Z</time></trkpt><trkpt lat="46.43151583991078" lon="12.553288168830711"><ele>969.4</ele><time>2026-04-06T13:50:33Z</time></trkpt><trkpt lat="46.43145027915232" lon="12.553407481585515"><ele>971.2</ele><time>2026-04-06T13:50:34Z</time></trkpt><trkpt lat="46.431404337581064" lon="12.553519548641756"><ele>973.0</ele><time>2026-04-06T13:50:35Z</time></trkpt><trkpt lat="46.431366721346826" lon="12.553641045865476"><ele>975.2</ele><time>2026-04-06T13:50:36Z</time></trkpt><trkpt lat="46.431331447875614" lon="12.553753157272185"><ele>977.4</ele><time>2026-04-06T13:50:37Z</time></trkpt><trkpt lat="46.43134017536113" lon="12.553887892044093"><ele>979.6000000000001</ele><time>2026-04-06T13:50:38Z</time></trkpt><trkpt lat="46.431384182467475" lon="12.554014932474892"><ele>981.8000000000001</ele><time>2026-04-06T13:50:39Z</time></trkpt><trkpt lat="46.431414796349515" lon="12.554164118369776"><ele>984.0</ele><time>2026-04-06T13:50:40Z</time></trkpt><trkpt lat="46.43143355884338" lon="12.554334736735372"><ele>984.0</ele><time>2026-04-06T13:50:41Z</time></trkpt><trkpt lat="46.43144322051574" lon="12.554524851756666"><ele>984.0</ele><time>2026-04-06T13:50:42Z</time></trkpt><trkpt lat="46.43144910546179" lon="12.554713098049163"><ele>984.0</ele><time>2026-04-06T13:50:43Z</time></trkpt><trkpt lat="46.43146197452107" lon="12.554899400415755"><ele>984.0</ele><time>2026-04-06T13:50:44Z</time></trkpt><trkpt lat="46.43148511570988" lon="12.555075173024932"><ele>983.0</ele><time>2026-04-06T13:50:45Z</time></trkpt><trkpt lat="46.43153599049755" lon="12.555236932795454"><ele>982.0</ele><time>2026-04-06T13:50:45.999Z</time></trkpt><trkpt lat="46.431607780733344" lon="12.555386261210876"><ele>981.0</ele><time>2026-04-06T13:50:46.999Z</time></trkpt><trkpt lat="46.43168316515061" lon="12.555536968683478"><ele>980.0</ele><time>2026-04-06T13:50:47.999Z</time></trkpt><trkpt lat="46.43173966454408" lon="12.555704533573095"><ele>977.0</ele><time>2026-04-06T13:50:48.999Z</time></trkpt><trkpt lat="46.431739743445696" lon="12.555887222434764"><ele>974.0</ele><time>2026-04-06T13:50:49.999Z</time></trkpt><trkpt lat="46.43175279331393" lon="12.556074878492508"><ele>971.0</ele><time>2026-04-06T13:50:50.999Z</time></trkpt><trkpt lat="46.43178742204386" lon="12.55625401241022"><ele>968.0</ele><time>2026-04-06T13:50:51.999Z</time></trkpt><trkpt lat="46.431856239858966" lon="12.556408132834292"><ele>968.0</ele><time>2026-04-06T13:50:52.999Z</time></trkpt><trkpt lat="46.431909880066804" lon="12.5565631319088"><ele>968.0</ele><time>2026-04-06T13:50:53.999Z</time></trkpt><trkpt lat="46.43194506231163" lon="12.55671813372442"><ele>968.0</ele><time>2026-04-06T13:50:54.999Z</time></trkpt><trkpt lat="46.43195332479227" lon="12.556875950863136"><ele>968.0</ele><time>2026-04-06T13:50:55.999Z</time></trkpt><trkpt lat="46.43192572455466" lon="12.557025293341018"><ele>968.0</ele><time>2026-04-06T13:50:56.999Z</time></trkpt><trkpt lat="46.43185685196675" lon="12.557145121157046"><ele>968.0</ele><time>2026-04-06T13:50:57.999Z</time></trkpt><trkpt lat="46.4317745610711" lon="12.55724084226226"><ele>968.0</ele><time>2026-04-06T13:50:58.999Z</time></trkpt><trkpt lat="46.43167954792024" lon="12.557350492494365"><ele>968.0</ele><time>2026-04-06T13:50:59.999Z</time></trkpt><trkpt lat="46.43158067189162" lon="12.55746190604459"><ele>968.0</ele><time>2026-04-06T13:51:00.999Z</time></trkpt><trkpt lat="46.431486450469166" lon="12.557567256360358"><ele>968.0</ele><time>2026-04-06T13:51:01.999Z</time></trkpt><trkpt lat="46.43139640086773" lon="12.557655683445686"><ele>968.0</ele><time>2026-04-06T13:51:02.999Z</time></trkpt><trkpt lat="46.43130142636681" lon="12.557729414843749"><ele>968.0</ele><time>2026-04-06T13:51:03.999Z</time></trkpt><trkpt lat="46.43119854418917" lon="12.557788202411055"><ele>968.0</ele><time>2026-04-06T13:51:04.999Z</time></trkpt><trkpt lat="46.43108793350864" lon="12.557843848607629"><ele>968.0</ele><time>2026-04-06T13:51:05.999Z</time></trkpt><trkpt lat="46.43096754841774" lon="12.5578518927086"><ele>969.2</ele><time>2026-04-06T13:51:06.999Z</time></trkpt><trkpt lat="46.43085510222852" lon="12.55784977612831"><ele>970.4</ele><time>2026-04-06T13:51:07.999Z</time></trkpt><trkpt lat="46.43074909616634" lon="12.557853596538077"><ele>971.6000000000001</ele><time>2026-04-06T13:51:08.999Z</time></trkpt><trkpt lat="46.43065034556248" lon="12.557849277655741"><ele>972.8000000000001</ele><time>2026-04-06T13:51:09.999Z</time></trkpt><trkpt lat="46.43055134260353" lon="12.55789575514695"><ele>974.0</ele><time>2026-04-06T13:51:10.999Z</time></trkpt><trkpt lat="46.43046167013492" lon="12.557976644152873"><ele>972.2</ele><time>2026-04-06T13:51:11.999Z</time></trkpt><trkpt lat="46.43039499774319" lon="12.558093214904058"><ele>970.4000000000001</ele><time>2026-04-06T13:51:12.999Z</time></trkpt><trkpt lat="46.43033899843441" lon="12.558211125199838"><ele>968.6</ele><time>2026-04-06T13:51:13.999Z</time></trkpt><trkpt lat="46.43029381085793" lon="12.558355180723396"><ele>966.8</ele><time>2026-04-06T13:51:14.999Z</time></trkpt><trkpt lat="46.430247203518086" lon="12.558524649846419"><ele>965.0</ele><time>2026-04-06T13:51:15.999Z</time></trkpt><trkpt lat="46.43019027886016" lon="12.558702781836836"><ele>965.0</ele><time>2026-04-06T13:51:16.999Z</time></trkpt><trkpt lat="46.4301275609698" lon="12.55888939739259"><ele>965.0</ele><time>2026-04-06T13:51:17.999Z</time></trkpt><trkpt lat="46.430060270481135" lon="12.559080545868744"><ele>965.0</ele><time>2026-04-06T13:51:18.999Z</time></trkpt><trkpt lat="46.429992521164834" lon="12.559265006157965"><ele>965.0</ele><time>2026-04-06T13:51:19.999Z</time></trkpt><trkpt lat="46.4299246009275" lon="12.559447755610073"><ele>966.25</ele><time>2026-04-06T13:51:20.999Z</time></trkpt><trkpt lat="46.42985572621596" lon="12.559626711268882"><ele>967.5</ele><time>2026-04-06T13:51:21.999Z</time></trkpt><trkpt lat="46.429789356107634" lon="12.559799143600795"><ele>968.75</ele><time>2026-04-06T13:51:22.999Z</time></trkpt><trkpt lat="46.429709257672016" lon="12.559959928673639"><ele>970.0</ele><time>2026-04-06T13:51:23.999Z</time></trkpt><trkpt lat="46.42964091446099" lon="12.560131803762895"><ele>966.25</ele><time>2026-04-06T13:51:24.999Z</time></trkpt><trkpt lat="46.42957205397531" lon="12.560304949606481"><ele>962.5</ele><time>2026-04-06T13:51:25.999Z</time></trkpt><trkpt lat="46.42951561450424" lon="12.560488640608263"><ele>958.75</ele><time>2026-04-06T13:51:26.999Z</time></trkpt><trkpt lat="46.42943465822121" lon="12.5606568481521"><ele>955.0</ele><time>2026-04-06T13:51:27.999Z</time></trkpt><trkpt lat="46.42934010047963" lon="12.560815302383476"><ele>955.0</ele><time>2026-04-06T13:51:28.999Z</time></trkpt><trkpt lat="46.42923166546381" lon="12.560959726346278"><ele>955.0</ele><time>2026-04-06T13:51:29.999Z</time></trkpt><trkpt lat="46.4291146177709" lon="12.561093996514408"><ele>955.0</ele><time>2026-04-06T13:51:30.999Z</time></trkpt><trkpt lat="46.4289974363209" lon="12.561223572863"><ele>955.0</ele><time>2026-04-06T13:51:31.999Z</time></trkpt><trkpt lat="46.42888368665079" lon="12.561351407188228"><ele>952.5</ele><time>2026-04-06T13:51:32.999Z</time></trkpt><trkpt lat="46.4287747351711" lon="12.561475220249502"><ele>950.0</ele><time>2026-04-06T13:51:33.999Z</time></trkpt><trkpt lat="46.42867871874083" lon="12.561598375734654"><ele>947.5</ele><time>2026-04-06T13:51:34.999Z</time></trkpt><trkpt lat="46.428597048065996" lon="12.561741276410071"><ele>945.0</ele><time>2026-04-06T13:51:35.999Z</time></trkpt><trkpt lat="46.428536011410955" lon="12.56191046825535"><ele>945.75</ele><time>2026-04-06T13:51:36.999Z</time></trkpt><trkpt lat="46.428487685487205" lon="12.562097729462792"><ele>946.5</ele><time>2026-04-06T13:51:37.999Z</time></trkpt><trkpt lat="46.42842381102779" lon="12.562282641616193"><ele>947.25</ele><time>2026-04-06T13:51:38.999Z</time></trkpt><trkpt lat="46.428385288456596" lon="12.562491858310729"><ele>948.0</ele><time>2026-04-06T13:51:39.999Z</time></trkpt><trkpt lat="46.42831757972466" lon="12.562697825423673"><ele>949.6666666666667</ele><time>2026-04-06T13:51:40.999Z</time></trkpt><trkpt lat="46.42823131056289" lon="12.562908040898954"><ele>951.3333333333334</ele><time>2026-04-06T13:51:41.999Z</time></trkpt><trkpt lat="46.42813693632356" lon="12.563118485267944"><ele>953.0</ele><time>2026-04-06T13:51:42.999Z</time></trkpt><trkpt lat="46.428034427954195" lon="12.563323949010389"><ele>948.3333333333334</ele><time>2026-04-06T13:51:43.999Z</time></trkpt><trkpt lat="46.42793614102536" lon="12.563524158338815"><ele>943.6666666666667</ele><time>2026-04-06T13:51:44.999Z</time></trkpt><trkpt lat="46.42783065967971" lon="12.563704304931807"><ele>939.0</ele><time>2026-04-06T13:51:45.999Z</time></trkpt><trkpt lat="46.42773906969493" lon="12.563890066192661"><ele>939.0</ele><time>2026-04-06T13:51:46.999Z</time></trkpt><trkpt lat="46.427652039473834" lon="12.564066579232863"><ele>939.0</ele><time>2026-04-06T13:51:47.999Z</time></trkpt><trkpt lat="46.427567842651044" lon="12.56423594386379"><ele>939.0</ele><time>2026-04-06T13:51:48.999Z</time></trkpt><trkpt lat="46.42749652880016" lon="12.564407719563821"><ele>939.0</ele><time>2026-04-06T13:51:49.999Z</time></trkpt><trkpt lat="46.42740136216241" lon="12.564543186015145"><ele>941.75</ele><time>2026-04-06T13:51:51Z</time></trkpt><trkpt lat="46.42729700498782" lon="12.564660279798149"><ele>944.5</ele><time>2026-04-06T13:51:52Z</time></trkpt><trkpt lat="46.42719399564839" lon="12.5647717781539"><ele>947.25</ele><time>2026-04-06T13:51:53Z</time></trkpt><trkpt lat="46.427107357973675" lon="12.564898233404206"><ele>950.0</ele><time>2026-04-06T13:51:54Z</time></trkpt><trkpt lat="46.427026747887155" lon="12.565021225557057"><ele>946.0</ele><time>2026-04-06T13:51:55Z</time></trkpt><trkpt lat="46.426999076695026" lon="12.565183792114345"><ele>942.0</ele><time>2026-04-06T13:51:56Z</time></trkpt><trkpt lat="46.42695026673859" lon="12.565317365113744"><ele>938.0</ele><time>2026-04-06T13:51:57Z</time></trkpt><trkpt lat="46.42688044936649" lon="12.565438808569164"><ele>934.0</ele><time>2026-04-06T13:51:58Z</time></trkpt><trkpt lat="46.42679150694927" lon="12.565546120295998"><ele>930.0</ele><time>2026-04-06T13:51:59Z</time></trkpt><trkpt lat="46.426693605351254" lon="12.565653593339738"><ele>930.0</ele><time>2026-04-06T13:52:00Z</time></trkpt><trkpt lat="46.426609251659926" lon="12.565780088301889"><ele>930.0</ele><time>2026-04-06T13:52:01Z</time></trkpt><trkpt lat="46.42653772682048" lon="12.565919324005508"><ele>930.0</ele><time>2026-04-06T13:52:02Z</time></trkpt><trkpt lat="46.42647954586395" lon="12.566073311935908"><ele>930.0</ele><time>2026-04-06T13:52:03Z</time></trkpt><trkpt lat="46.426439580812044" lon="12.566239528891616"><ele>931.75</ele><time>2026-04-06T13:52:04Z</time></trkpt><trkpt lat="46.42639077309238" lon="12.566411868682666"><ele>933.5</ele><time>2026-04-06T13:52:05Z</time></trkpt><trkpt lat="46.42635830373161" lon="12.566598860240305"><ele>935.25</ele><time>2026-04-06T13:52:06Z</time></trkpt><trkpt lat="46.426336857044994" lon="12.566800590947757"><ele>937.0</ele><time>2026-04-06T13:52:07Z</time></trkpt><trkpt lat="46.426300500067946" lon="12.567005438242798"><ele>932.0</ele><time>2026-04-06T13:52:08Z</time></trkpt><trkpt lat="46.426249535286246" lon="12.567191625274193"><ele>927.0</ele><time>2026-04-06T13:52:09Z</time></trkpt><trkpt lat="46.42621459389059" lon="12.567381769646452"><ele>922.0</ele><time>2026-04-06T13:52:10Z</time></trkpt><trkpt lat="46.42617964717779" lon="12.567571942861923"><ele>917.0</ele><time>2026-04-06T13:52:11Z</time></trkpt><trkpt lat="46.42616065910305" lon="12.567765969198675"><ele>917.5</ele><time>2026-04-06T13:52:12Z</time></trkpt><trkpt lat="46.426125707999475" lon="12.567951786599496"><ele>918.0</ele><time>2026-04-06T13:52:13Z</time></trkpt><trkpt lat="46.42608476869166" lon="12.5681356335792"><ele>918.5</ele><time>2026-04-06T13:52:14Z</time></trkpt><trkpt lat="46.426040058398826" lon="12.568314483530466"><ele>919.0</ele><time>2026-04-06T13:52:15Z</time></trkpt><trkpt lat="46.4259853143443" lon="12.568485191542623"><ele>919.0</ele><time>2026-04-06T13:52:16Z</time></trkpt><trkpt lat="46.425916179432" lon="12.568640388805063"><ele>919.0</ele><time>2026-04-06T13:52:17Z</time></trkpt><trkpt lat="46.42584127635116" lon="12.568785771959877"><ele>919.0</ele><time>2026-04-06T13:52:18Z</time></trkpt><trkpt lat="46.42576923057789" lon="12.56891874718236"><ele>919.0</ele><time>2026-04-06T13:52:19Z</time></trkpt><trkpt lat="46.42570043370626" lon="12.569051838087784"><ele>919.75</ele><time>2026-04-06T13:52:20Z</time></trkpt><trkpt lat="46.42561552226269" lon="12.569167504295208"><ele>920.5</ele><time>2026-04-06T13:52:21Z</time></trkpt><trkpt lat="46.42554247915328" lon="12.569300000701658"><ele>921.25</ele><time>2026-04-06T13:52:22Z</time></trkpt><trkpt lat="46.42546649681539" lon="12.569435502574308"><ele>922.0</ele><time>2026-04-06T13:52:23Z</time></trkpt><trkpt lat="46.42540037635025" lon="12.569588871926545"><ele>920.5</ele><time>2026-04-06T13:52:24Z</time></trkpt><trkpt lat="46.42531657612993" lon="12.569737148797316"><ele>919.0</ele><time>2026-04-06T13:52:25Z</time></trkpt><trkpt lat="46.42523083347358" lon="12.569889014554711"><ele>917.5</ele><time>2026-04-06T13:52:26Z</time></trkpt><trkpt lat="46.425142831688056" lon="12.570036225621745"><ele>916.0</ele><time>2026-04-06T13:52:27Z</time></trkpt><trkpt lat="46.42505687134931" lon="12.570184085478521"><ele>916.0</ele><time>2026-04-06T13:52:28Z</time></trkpt><trkpt lat="46.42497882054862" lon="12.57033931156386"><ele>916.0</ele><time>2026-04-06T13:52:29Z</time></trkpt><trkpt lat="46.42491283667364" lon="12.570503705089163"><ele>916.0</ele><time>2026-04-06T13:52:30Z</time></trkpt><trkpt lat="46.42486418510264" lon="12.570679442788975"><ele>916.0</ele><time>2026-04-06T13:52:31Z</time></trkpt><trkpt lat="46.42483396383971" lon="12.570861407871208"><ele>916.0</ele><time>2026-04-06T13:52:32Z</time></trkpt><trkpt lat="46.4248216108391" lon="12.57104152021933"><ele>916.0</ele><time>2026-04-06T13:52:33Z</time></trkpt><trkpt lat="46.424820304027776" lon="12.571216978927401"><ele>916.0</ele><time>2026-04-06T13:52:34Z</time></trkpt><trkpt lat="46.424804905225855" lon="12.571392658759425"><ele>916.0</ele><time>2026-04-06T13:52:35Z</time></trkpt><trkpt lat="46.42480414550512" lon="12.571574607327431"><ele>916.25</ele><time>2026-04-06T13:52:36Z</time></trkpt><trkpt lat="46.42481760692467" lon="12.571760410233377"><ele>916.5</ele><time>2026-04-06T13:52:37Z</time></trkpt><trkpt lat="46.42481580667678" lon="12.571942862218156"><ele>916.75</ele><time>2026-04-06T13:52:38Z</time></trkpt><trkpt lat="46.42481640367282" lon="12.572120125722808"><ele>917.0</ele><time>2026-04-06T13:52:39Z</time></trkpt><trkpt lat="46.42481501925989" lon="12.572294766054721"><ele>917.0</ele><time>2026-04-06T13:52:40Z</time></trkpt><trkpt lat="46.42481431794433" lon="12.572471604750787"><ele>917.0</ele><time>2026-04-06T13:52:41Z</time></trkpt><trkpt lat="46.42481544553813" lon="12.57265000318614"><ele>917.0</ele><time>2026-04-06T13:52:42Z</time></trkpt><trkpt lat="46.42481396761781" lon="12.572830325330447"><ele>917.0</ele><time>2026-04-06T13:52:43Z</time></trkpt><trkpt lat="46.42481238432377" lon="12.573008674183711"><ele>917.25</ele><time>2026-04-06T13:52:44Z</time></trkpt><trkpt lat="46.424811907196926" lon="12.573186055073402"><ele>917.5</ele><time>2026-04-06T13:52:45Z</time></trkpt><trkpt lat="46.42481273689585" lon="12.573360206118462"><ele>917.75</ele><time>2026-04-06T13:52:46Z</time></trkpt><trkpt lat="46.42481261125777" lon="12.573531040950664"><ele>918.0</ele><time>2026-04-06T13:52:47Z</time></trkpt><trkpt lat="46.424810568677366" lon="12.57369631918697"><ele>918.0</ele><time>2026-04-06T13:52:48Z</time></trkpt><trkpt lat="46.424808362905694" lon="12.573858529631048"><ele>918.0</ele><time>2026-04-06T13:52:49Z</time></trkpt><trkpt lat="46.424809026711074" lon="12.574020612987132"><ele>918.0</ele><time>2026-04-06T13:52:50Z</time></trkpt><trkpt lat="46.424810509066205" lon="12.574185128064933"><ele>918.0</ele><time>2026-04-06T13:52:51Z</time></trkpt><trkpt lat="46.42480661038666" lon="12.574350793885962"><ele>918.0</ele><time>2026-04-06T13:52:52Z</time></trkpt><trkpt lat="46.42480608764137" lon="12.574514682895268"><ele>918.0</ele><time>2026-04-06T13:52:53Z</time></trkpt><trkpt lat="46.42481166731854" lon="12.574678992098923"><ele>918.0</ele><time>2026-04-06T13:52:54Z</time></trkpt><trkpt lat="46.424801953685396" lon="12.574845299642348"><ele>918.0</ele><time>2026-04-06T13:52:55Z</time></trkpt><trkpt lat="46.42480654097275" lon="12.575011782122871"><ele>917.0</ele><time>2026-04-06T13:52:56Z</time></trkpt><trkpt lat="46.42481072969095" lon="12.575180341902747"><ele>916.0</ele><time>2026-04-06T13:52:57Z</time></trkpt><trkpt lat="46.424816956706614" lon="12.575352193613435"><ele>915.0</ele><time>2026-04-06T13:52:58Z</time></trkpt><trkpt lat="46.42483767111317" lon="12.575526994687"><ele>914.0</ele><time>2026-04-06T13:52:59Z</time></trkpt><trkpt lat="46.42483994331816" lon="12.575702203217864"><ele>912.5</ele><time>2026-04-06T13:53:00Z</time></trkpt><trkpt lat="46.424838198842174" lon="12.575882785475924"><ele>911.0</ele><time>2026-04-06T13:53:01Z</time></trkpt><trkpt lat="46.42483005567108" lon="12.576068583539058"><ele>909.5</ele><time>2026-04-06T13:53:02Z</time></trkpt><trkpt lat="46.424815848180515" lon="12.576252182152368"><ele>908.0</ele><time>2026-04-06T13:53:03Z</time></trkpt><trkpt lat="46.42477992139515" lon="12.576422485214117"><ele>907.25</ele><time>2026-04-06T13:53:04Z</time></trkpt><trkpt lat="46.42476168212224" lon="12.576599831065566"><ele>906.5</ele><time>2026-04-06T13:53:05Z</time></trkpt><trkpt lat="46.42471786696342" lon="12.5767673186688"><ele>905.75</ele><time>2026-04-06T13:53:06Z</time></trkpt><trkpt lat="46.42466255681525" lon="12.57692879498036"><ele>905.0</ele><time>2026-04-06T13:53:07Z</time></trkpt><trkpt lat="46.42460001281746" lon="12.577082286273175"><ele>903.5</ele><time>2026-04-06T13:53:08Z</time></trkpt><trkpt lat="46.42453909276915" lon="12.577232896679796"><ele>902.0</ele><time>2026-04-06T13:53:09Z</time></trkpt><trkpt lat="46.42446496913721" lon="12.57736641957018"><ele>900.5</ele><time>2026-04-06T13:53:10Z</time></trkpt><trkpt lat="46.42440503821333" lon="12.57750360286601"><ele>899.0</ele><time>2026-04-06T13:53:11Z</time></trkpt><trkpt lat="46.42434917141381" lon="12.577634954546788"><ele>899.0</ele><time>2026-04-06T13:53:12Z</time></trkpt><trkpt lat="46.42429080135587" lon="12.577772192835539"><ele>899.0000000000001</ele><time>2026-04-06T13:53:13Z</time></trkpt><trkpt lat="46.4242313839675" lon="12.577912896020909"><ele>899.0000000000001</ele><time>2026-04-06T13:53:13.999Z</time></trkpt><trkpt lat="46.42417334051496" lon="12.57804995426528"><ele>899.0</ele><time>2026-04-06T13:53:14.999Z</time></trkpt><trkpt lat="46.4241228078254" lon="12.578187760655972"><ele>899.0</ele><time>2026-04-06T13:53:15.999Z</time></trkpt><trkpt lat="46.42408040716836" lon="12.57833208716783"><ele>899.0</ele><time>2026-04-06T13:53:16.999Z</time></trkpt><trkpt lat="46.42406948562397" lon="12.578493325664267"><ele>899.0000000000001</ele><time>2026-04-06T13:53:17.999Z</time></trkpt><trkpt lat="46.42404887969854" lon="12.578646793778587"><ele>899.0000000000001</ele><time>2026-04-06T13:53:18.999Z</time></trkpt><trkpt lat="46.42403042787408" lon="12.578806791494802"><ele>899.0</ele><time>2026-04-06T13:53:19.999Z</time></trkpt><trkpt lat="46.424013986538064" lon="12.5789765247718"><ele>899.0</ele><time>2026-04-06T13:53:20.999Z</time></trkpt><trkpt lat="46.423995932518245" lon="12.579152607481053"><ele>899.25</ele><time>2026-04-06T13:53:21.999Z</time></trkpt><trkpt lat="46.42398025135746" lon="12.57933401181117"><ele>899.5</ele><time>2026-04-06T13:53:22.999Z</time></trkpt><trkpt lat="46.423948872914984" lon="12.579506648200782"><ele>899.75</ele><time>2026-04-06T13:53:23.999Z</time></trkpt><trkpt lat="46.42393312671361" lon="12.579682069420784"><ele>900.0</ele><time>2026-04-06T13:53:24.999Z</time></trkpt><trkpt lat="46.423917425528536" lon="12.579856989126958"><ele>899.5</ele><time>2026-04-06T13:53:25.999Z</time></trkpt><trkpt lat="46.42390209336386" lon="12.580032917669053"><ele>899.0</ele><time>2026-04-06T13:53:26.999Z</time></trkpt><trkpt lat="46.42388732861319" lon="12.580210014902878"><ele>898.5</ele><time>2026-04-06T13:53:27.999Z</time></trkpt><trkpt lat="46.42387271639307" lon="12.580385282057318"><ele>898.0</ele><time>2026-04-06T13:53:28.999Z</time></trkpt><trkpt lat="46.423858766900864" lon="12.580552605269999"><ele>898.0</ele><time>2026-04-06T13:53:29.999Z</time></trkpt><trkpt lat="46.42385096680808" lon="12.580716784318199"><ele>898.0</ele><time>2026-04-06T13:53:30.999Z</time></trkpt><trkpt lat="46.42383837993145" lon="12.580874176978888"><ele>898.0</ele><time>2026-04-06T13:53:31.999Z</time></trkpt><trkpt lat="46.423825900469566" lon="12.58102873534313"><ele>898.0</ele><time>2026-04-06T13:53:32.999Z</time></trkpt><trkpt lat="46.42381356291498" lon="12.58117964829885"><ele>898.0</ele><time>2026-04-06T13:53:33.999Z</time></trkpt><trkpt lat="46.42381443609232" lon="12.581335132203606"><ele>896.8</ele><time>2026-04-06T13:53:34.999Z</time></trkpt><trkpt lat="46.42378885681651" lon="12.581481478756471"><ele>895.5999999999999</ele><time>2026-04-06T13:53:35.999Z</time></trkpt><trkpt lat="46.4237494652196" lon="12.581606533395709"><ele>894.4000000000001</ele><time>2026-04-06T13:53:36.999Z</time></trkpt><trkpt lat="46.42369771734019" lon="12.581719013876539"><ele>893.2</ele><time>2026-04-06T13:53:37.999Z</time></trkpt><trkpt lat="46.423633630022266" lon="12.581812542551884"><ele>892.0</ele><time>2026-04-06T13:53:38.999Z</time></trkpt><trkpt lat="46.423564582853864" lon="12.581886420340949"><ele>892.0</ele><time>2026-04-06T13:53:39.999Z</time></trkpt><trkpt lat="46.42348311219745" lon="12.58192331511376"><ele>892.0</ele><time>2026-04-06T13:53:40.999Z</time></trkpt><trkpt lat="46.42339995037011" lon="12.581950048574102"><ele>892.0</ele><time>2026-04-06T13:53:41.999Z</time></trkpt><trkpt lat="46.4233044858175" lon="12.58196311138422"><ele>892.0</ele><time>2026-04-06T13:53:42.999Z</time></trkpt><trkpt lat="46.42319218455838" lon="12.581984567879662"><ele>892.0</ele><time>2026-04-06T13:53:43.999Z</time></trkpt><trkpt lat="46.42306534788756" lon="12.582005923463985"><ele>892.0</ele><time>2026-04-06T13:53:44.999Z</time></trkpt><trkpt lat="46.42293970340396" lon="12.582028396631037"><ele>892.0</ele><time>2026-04-06T13:53:45.999Z</time></trkpt><trkpt lat="46.42281203444311" lon="12.582052354870873"><ele>892.0</ele><time>2026-04-06T13:53:46.999Z</time></trkpt><trkpt lat="46.422680219997" lon="12.582077717142722"><ele>892.0</ele><time>2026-04-06T13:53:47.999Z</time></trkpt><trkpt lat="46.42255126624161" lon="12.582104596675409"><ele>892.0</ele><time>2026-04-06T13:53:48.999Z</time></trkpt><trkpt lat="46.422422372259916" lon="12.582131463760339"><ele>892.0</ele><time>2026-04-06T13:53:49.999Z</time></trkpt><trkpt lat="46.42229317962464" lon="12.582159792716219"><ele>892.0</ele><time>2026-04-06T13:53:50.999Z</time></trkpt><trkpt lat="46.42216010256462" lon="12.5821899907598"><ele>892.0</ele><time>2026-04-06T13:53:51.999Z</time></trkpt><trkpt lat="46.42202945466564" lon="12.582219636721131"><ele>890.5</ele><time>2026-04-06T13:53:52.999Z</time></trkpt><trkpt lat="46.4218953780746" lon="12.582274973346255"><ele>889.0</ele><time>2026-04-06T13:53:53.999Z</time></trkpt><trkpt lat="46.42176540736464" lon="12.5823241677988"><ele>887.5</ele><time>2026-04-06T13:53:54.999Z</time></trkpt><trkpt lat="46.42163129491729" lon="12.582374964410798"><ele>886.0</ele><time>2026-04-06T13:53:55.999Z</time></trkpt><trkpt lat="46.42150017095475" lon="12.582424629181167"><ele>886.0</ele><time>2026-04-06T13:53:57Z</time></trkpt><trkpt lat="46.421365393123004" lon="12.582475677842833"><ele>886.0</ele><time>2026-04-06T13:53:58Z</time></trkpt><trkpt lat="46.42122794657551" lon="12.582527737331203"><ele>886.0</ele><time>2026-04-06T13:53:59Z</time></trkpt><trkpt lat="46.421080825250435" lon="12.582583453028036"><ele>886.0</ele><time>2026-04-06T13:54:00Z</time></trkpt><trkpt lat="46.42091989327918" lon="12.582643293011524"><ele>883.0</ele><time>2026-04-06T13:54:01Z</time></trkpt><trkpt lat="46.420764447827636" lon="12.58272581652044"><ele>880.0</ele><time>2026-04-06T13:54:02Z</time></trkpt><trkpt lat="46.42056650168611" lon="12.582774696130032"><ele>877.0</ele><time>2026-04-06T13:54:03Z</time></trkpt><trkpt lat="46.42037110493359" lon="12.582848099469956"><ele>877.0</ele><time>2026-04-06T13:54:04Z</time></trkpt><trkpt lat="46.42017525238201" lon="12.58296926889194"><ele>877.0</ele><time>2026-04-06T13:54:05Z</time></trkpt><trkpt lat="46.41997077209213" lon="12.583042279503552"><ele>877.0</ele><time>2026-04-06T13:54:06Z</time></trkpt><trkpt lat="46.41977156646144" lon="12.583128128295684"><ele>876.0</ele><time>2026-04-06T13:54:07Z</time></trkpt><trkpt lat="46.41957496851152" lon="12.583221781496112"><ele>875.0</ele><time>2026-04-06T13:54:08Z</time></trkpt><trkpt lat="46.41936327682969" lon="12.583297413205209"><ele>874.0</ele><time>2026-04-06T13:54:09Z</time></trkpt><trkpt lat="46.41916694001471" lon="12.583396780402165"><ele>874.0</ele><time>2026-04-06T13:54:10Z</time></trkpt><trkpt lat="46.41897910660587" lon="12.583491843923708"><ele>874.0</ele><time>2026-04-06T13:54:11Z</time></trkpt><trkpt lat="46.41880398225164" lon="12.5836011518156"><ele>874.0</ele><time>2026-04-06T13:54:12Z</time></trkpt><trkpt lat="46.41863804141178" lon="12.583683545971123"><ele>875.25</ele><time>2026-04-06T13:54:13Z</time></trkpt><trkpt lat="46.41848997627842" lon="12.58375911795445"><ele>876.5</ele><time>2026-04-06T13:54:14Z</time></trkpt><trkpt lat="46.418358684143065" lon="12.58383031624526"><ele>877.75</ele><time>2026-04-06T13:54:15Z</time></trkpt><trkpt lat="46.418246990340386" lon="12.583897742540884"><ele>879.0</ele><time>2026-04-06T13:54:16Z</time></trkpt><trkpt lat="46.418152799262906" lon="12.583964052021576"><ele>879.0</ele><time>2026-04-06T13:54:17Z</time></trkpt><trkpt lat="46.418052212945284" lon="12.583998396637158"><ele>879.0</ele><time>2026-04-06T13:54:18Z</time></trkpt><trkpt lat="46.41798417481351" lon="12.584142178893229"><ele>879.0</ele><time>2026-04-06T13:54:19Z</time></trkpt><trkpt lat="46.417896931656834" lon="12.584278856361498"><ele>879.0</ele><time>2026-04-06T13:54:20Z</time></trkpt><trkpt lat="46.417804328599125" lon="12.584422624290832"><ele>877.3333333333333</ele><time>2026-04-06T13:54:21Z</time></trkpt><trkpt lat="46.41770047026633" lon="12.584570267185134"><ele>875.6666666666666</ele><time>2026-04-06T13:54:22Z</time></trkpt><trkpt lat="46.41759515362177" lon="12.584723817619198"><ele>874.0</ele><time>2026-04-06T13:54:23Z</time></trkpt><trkpt lat="46.417483566759486" lon="12.584885797788218"><ele>874.0</ele><time>2026-04-06T13:54:24Z</time></trkpt><trkpt lat="46.41736465142614" lon="12.585064415514886"><ele>874.0</ele><time>2026-04-06T13:54:25Z</time></trkpt><trkpt lat="46.417236435592685" lon="12.585261117791479"><ele>874.0</ele><time>2026-04-06T13:54:26Z</time></trkpt><trkpt lat="46.41709812300796" lon="12.585465736091985"><ele>873.3333333333333</ele><time>2026-04-06T13:54:27Z</time></trkpt><trkpt lat="46.41696190519408" lon="12.585664717595574"><ele>872.6666666666667</ele><time>2026-04-06T13:54:28Z</time></trkpt><trkpt lat="46.41683497293577" lon="12.58584717109281"><ele>872.0</ele><time>2026-04-06T13:54:29Z</time></trkpt><trkpt lat="46.41670941294006" lon="12.586013051524407"><ele>872.0</ele><time>2026-04-06T13:54:30Z</time></trkpt><trkpt lat="46.41657651177492" lon="12.586165161626623"><ele>872.0</ele><time>2026-04-06T13:54:31Z</time></trkpt><trkpt lat="46.41643731315477" lon="12.586310259487753"><ele>872.0</ele><time>2026-04-06T13:54:32Z</time></trkpt><trkpt lat="46.416296984379706" lon="12.5864356555801"><ele>872.5</ele><time>2026-04-06T13:54:33Z</time></trkpt><trkpt lat="46.41616112360163" lon="12.586528041326426"><ele>873.0</ele><time>2026-04-06T13:54:34Z</time></trkpt><trkpt lat="46.416024766543394" lon="12.58660260793906"><ele>873.5</ele><time>2026-04-06T13:54:35Z</time></trkpt><trkpt lat="46.41588362189965" lon="12.586662125368413"><ele>874.0</ele><time>2026-04-06T13:54:36Z</time></trkpt><trkpt lat="46.41574146086934" lon="12.58671616017078"><ele>874.0</ele><time>2026-04-06T13:54:37Z</time></trkpt><trkpt lat="46.415601566985906" lon="12.586767007940914"><ele>874.0</ele><time>2026-04-06T13:54:38Z</time></trkpt><trkpt lat="46.41545712153477" lon="12.58681993548233"><ele>874.0</ele><time>2026-04-06T13:54:39Z</time></trkpt><trkpt lat="46.41531102025068" lon="12.58687751153657"><ele>874.0</ele><time>2026-04-06T13:54:40Z</time></trkpt><trkpt lat="46.41516694435867" lon="12.58692178214924"><ele>873.0</ele><time>2026-04-06T13:54:41Z</time></trkpt><trkpt lat="46.41501780107915" lon="12.586938416343639"><ele>872.0</ele><time>2026-04-06T13:54:42Z</time></trkpt><trkpt lat="46.414864703347945" lon="12.58693175369233"><ele>871.0</ele><time>2026-04-06T13:54:43Z</time></trkpt><trkpt lat="46.41471020580015" lon="12.586924558798794"><ele>872.75</ele><time>2026-04-06T13:54:44Z</time></trkpt><trkpt lat="46.41455476324887" lon="12.586917912513876"><ele>874.5</ele><time>2026-04-06T13:54:45Z</time></trkpt><trkpt lat="46.414403648131106" lon="12.586910802472982"><ele>876.25</ele><time>2026-04-06T13:54:46Z</time></trkpt><trkpt lat="46.414265813145086" lon="12.586904156975914"><ele>878.0</ele><time>2026-04-06T13:54:47Z</time></trkpt><trkpt lat="46.41413169081208" lon="12.58690078685176"><ele>878.0</ele><time>2026-04-06T13:54:48Z</time></trkpt><trkpt lat="46.41398746252699" lon="12.586916105091566"><ele>878.0</ele><time>2026-04-06T13:54:49Z</time></trkpt><trkpt lat="46.41384830902851" lon="12.58695562683514"><ele>878.0</ele><time>2026-04-06T13:54:50Z</time></trkpt><trkpt lat="46.41371919168496" lon="12.587025964856982"><ele>878.0</ele><time>2026-04-06T13:54:51Z</time></trkpt><trkpt lat="46.41359833172011" lon="12.587124562276157"><ele>882.0</ele><time>2026-04-06T13:54:52Z</time></trkpt><trkpt lat="46.41348931330474" lon="12.587243558804792"><ele>886.0</ele><time>2026-04-06T13:54:53Z</time></trkpt><trkpt lat="46.41339306826799" lon="12.587386859388873"><ele>890.0</ele><time>2026-04-06T13:54:54Z</time></trkpt><trkpt lat="46.41329582959517" lon="12.587540264638438"><ele>894.0</ele><time>2026-04-06T13:54:55Z</time></trkpt><trkpt lat="46.413190679852555" lon="12.587690910126335"><ele>894.0</ele><time>2026-04-06T13:54:56Z</time></trkpt><trkpt lat="46.41309445737197" lon="12.587837247620854"><ele>894.0</ele><time>2026-04-06T13:54:57Z</time></trkpt><trkpt lat="46.41300456820726" lon="12.587980651347264"><ele>894.0</ele><time>2026-04-06T13:54:58Z</time></trkpt><trkpt lat="46.41292518105758" lon="12.588123077823631"><ele>894.0</ele><time>2026-04-06T13:54:59Z</time></trkpt><trkpt lat="46.412863925149615" lon="12.588277937006547"><ele>893.0</ele><time>2026-04-06T13:55:00Z</time></trkpt><trkpt lat="46.41279661587698" lon="12.588436575624879"><ele>892.0</ele><time>2026-04-06T13:55:01Z</time></trkpt><trkpt lat="46.412769670259976" lon="12.588614278826604"><ele>891.0</ele><time>2026-04-06T13:55:02Z</time></trkpt><trkpt lat="46.41272943102359" lon="12.588779662318847"><ele>890.0</ele><time>2026-04-06T13:55:03Z</time></trkpt><trkpt lat="46.41269070669811" lon="12.588951586152884"><ele>890.0</ele><time>2026-04-06T13:55:04Z</time></trkpt><trkpt lat="46.41265330651232" lon="12.589121559844562"><ele>890.0</ele><time>2026-04-06T13:55:05Z</time></trkpt><trkpt lat="46.41261493159316" lon="12.589283971341375"><ele>890.0</ele><time>2026-04-06T13:55:06Z</time></trkpt><trkpt lat="46.41257235469839" lon="12.589443946466487"><ele>890.0</ele><time>2026-04-06T13:55:07Z</time></trkpt><trkpt lat="46.41251495917957" lon="12.58960484191058"><ele>891.8</ele><time>2026-04-06T13:55:08Z</time></trkpt><trkpt lat="46.412454544925005" lon="12.589759491166056"><ele>893.6</ele><time>2026-04-06T13:55:09Z</time></trkpt><trkpt lat="46.41239925663455" lon="12.589900462067664"><ele>895.4000000000001</ele><time>2026-04-06T13:55:10Z</time></trkpt><trkpt lat="46.4123487408011" lon="12.590021249168435"><ele>897.2</ele><time>2026-04-06T13:55:11Z</time></trkpt><trkpt lat="46.41230046372465" lon="12.59013396136587"><ele>899.0</ele><time>2026-04-06T13:55:12Z</time></trkpt><trkpt lat="46.41225251195104" lon="12.590249037162645"><ele>899.5000000000001</ele><time>2026-04-06T13:55:13Z</time></trkpt><trkpt lat="46.41220715897184" lon="12.590360012082702"><ele>900.0</ele><time>2026-04-06T13:55:14Z</time></trkpt><trkpt lat="46.41216258753394" lon="12.590467268779605"><ele>900.5</ele><time>2026-04-06T13:55:15Z</time></trkpt><trkpt lat="46.412118344437424" lon="12.590569984438565"><ele>901.0</ele><time>2026-04-06T13:55:16Z</time></trkpt><trkpt lat="46.4120761192603" lon="12.590670080618363"><ele>901.5000000000001</ele><time>2026-04-06T13:55:17Z</time></trkpt><trkpt lat="46.41203614042063" lon="12.590766191161139"><ele>902.0</ele><time>2026-04-06T13:55:18Z</time></trkpt><trkpt lat="46.411997919680616" lon="12.590856712687623"><ele>902.0000000000001</ele><time>2026-04-06T13:55:19Z</time></trkpt><trkpt lat="46.41196172390002" lon="12.59094357066094"><ele>902.0</ele><time>2026-04-06T13:55:19.999Z</time></trkpt><trkpt lat="46.4119274467303" lon="12.591031022924206"><ele>902.0</ele><time>2026-04-06T13:55:20.999Z</time></trkpt><trkpt lat="46.41189527422595" lon="12.591112204641506"><ele>902.0</ele><time>2026-04-06T13:55:21.999Z</time></trkpt><trkpt lat="46.411835364407786" lon="12.591245321862399"><ele>902.0000000000001</ele><time>2026-04-06T13:55:23.999Z</time></trkpt><trkpt lat="46.41176551014726" lon="12.591405220103757"><ele>902.0</ele><time>2026-04-06T13:55:25.999Z</time></trkpt><trkpt lat="46.41173136487826" lon="12.59150749321072"><ele>904.25</ele><time>2026-04-06T13:55:26.999Z</time></trkpt><trkpt lat="46.41168994380076" lon="12.591632452934787"><ele>906.5</ele><time>2026-04-06T13:55:27.999Z</time></trkpt><trkpt lat="46.41162562073436" lon="12.59178047471898"><ele>908.75</ele><time>2026-04-06T13:55:28.999Z</time></trkpt><trkpt lat="46.41154864048911" lon="12.59195728039206"><ele>911.0</ele><time>2026-04-06T13:55:29.999Z</time></trkpt><trkpt lat="46.411465189922914" lon="12.5921294159654"><ele>912.0</ele><time>2026-04-06T13:55:30.999Z</time></trkpt><trkpt lat="46.41136344769454" lon="12.592286597626577"><ele>913.0</ele><time>2026-04-06T13:55:31.999Z</time></trkpt><trkpt lat="46.41125479802672" lon="12.59245494237413"><ele>914.0</ele><time>2026-04-06T13:55:32.999Z</time></trkpt><trkpt lat="46.411127277586715" lon="12.592614343249414"><ele>914.0</ele><time>2026-04-06T13:55:33.999Z</time></trkpt><trkpt lat="46.4110262154254" lon="12.592796735111168"><ele>914.0</ele><time>2026-04-06T13:55:34.999Z</time></trkpt><trkpt lat="46.41090432873406" lon="12.592921574751111"><ele>914.0</ele><time>2026-04-06T13:55:35.999Z</time></trkpt><trkpt lat="46.41080154141782" lon="12.593045458331359"><ele>914.0</ele><time>2026-04-06T13:55:36.999Z</time></trkpt><trkpt lat="46.41069924274234" lon="12.593197692353417"><ele>915.5</ele><time>2026-04-06T13:55:37.999Z</time></trkpt><trkpt lat="46.41058848549336" lon="12.593330551142873"><ele>917.0</ele><time>2026-04-06T13:55:38.999Z</time></trkpt><trkpt lat="46.4104925562477" lon="12.593435934663534"><ele>918.5</ele><time>2026-04-06T13:55:39.999Z</time></trkpt><trkpt lat="46.41040350157924" lon="12.593526672772729"><ele>920.0</ele><time>2026-04-06T13:55:40.999Z</time></trkpt><trkpt lat="46.410329887238355" lon="12.593654336459668"><ele>919.5</ele><time>2026-04-06T13:55:41.999Z</time></trkpt><trkpt lat="46.41027561418269" lon="12.593806011835158"><ele>919.0</ele><time>2026-04-06T13:55:42.999Z</time></trkpt><trkpt lat="46.41025704541241" lon="12.594000452320076"><ele>918.5</ele><time>2026-04-06T13:55:43.999Z</time></trkpt><trkpt lat="46.4102447669599" lon="12.594219081924939"><ele>918.0</ele><time>2026-04-06T13:55:44.999Z</time></trkpt><trkpt lat="46.41023279282216" lon="12.594456819177235"><ele>916.3333333333333</ele><time>2026-04-06T13:55:45.999Z</time></trkpt><trkpt lat="46.41022465793738" lon="12.594707168350634"><ele>914.6666666666666</ele><time>2026-04-06T13:55:46.999Z</time></trkpt><trkpt lat="46.41021215549529" lon="12.594958945500167"><ele>913.0</ele><time>2026-04-06T13:55:47.999Z</time></trkpt><trkpt lat="46.41020045801069" lon="12.595219221988529"><ele>913.6666666666666</ele><time>2026-04-06T13:55:48.999Z</time></trkpt><trkpt lat="46.41018910127792" lon="12.595465666597743"><ele>914.3333333333333</ele><time>2026-04-06T13:55:49.999Z</time></trkpt><trkpt lat="46.41017805154455" lon="12.595704794404906"><ele>915.0</ele><time>2026-04-06T13:55:50.999Z</time></trkpt><trkpt lat="46.410167614873956" lon="12.595945432884301"><ele>915.3333333333333</ele><time>2026-04-06T13:55:51.999Z</time></trkpt><trkpt lat="46.4101570856721" lon="12.596188707730848"><ele>915.6666666666666</ele><time>2026-04-06T13:55:52.999Z</time></trkpt><trkpt lat="46.41014701340084" lon="12.596428641396473"><ele>916.0</ele><time>2026-04-06T13:55:53.999Z</time></trkpt><trkpt lat="46.41013639546466" lon="12.596666379066555"><ele>916.0</ele><time>2026-04-06T13:55:54.999Z</time></trkpt><trkpt lat="46.410126263156194" lon="12.596899922684953"><ele>916.0</ele><time>2026-04-06T13:55:55.999Z</time></trkpt><trkpt lat="46.410116350473025" lon="12.597132242504744"><ele>916.0</ele><time>2026-04-06T13:55:56.999Z</time></trkpt><trkpt lat="46.410101987785104" lon="12.597365907755336"><ele>914.3333333333333</ele><time>2026-04-06T13:55:57.999Z</time></trkpt><trkpt lat="46.410068854361725" lon="12.597597111342496"><ele>912.6666666666667</ele><time>2026-04-06T13:55:58.999Z</time></trkpt><trkpt lat="46.41000964882725" lon="12.59781640931254"><ele>911.0</ele><time>2026-04-06T13:55:59.999Z</time></trkpt><trkpt lat="46.40992163287953" lon="12.598018455893632"><ele>910.0</ele><time>2026-04-06T13:56:00.999Z</time></trkpt><trkpt lat="46.409810678838745" lon="12.59820412067164"><ele>909.0</ele><time>2026-04-06T13:56:01.999Z</time></trkpt><trkpt lat="46.4096941716132" lon="12.59838989593188"><ele>908.0</ele><time>2026-04-06T13:56:03Z</time></trkpt><trkpt lat="46.40957357820294" lon="12.598586755382755"><ele>906.3333333333334</ele><time>2026-04-06T13:56:04Z</time></trkpt><trkpt lat="46.409455978520896" lon="12.598777251409015"><ele>904.6666666666667</ele><time>2026-04-06T13:56:05Z</time></trkpt><trkpt lat="46.4093416646584" lon="12.598959867549125"><ele>903.0</ele><time>2026-04-06T13:56:06Z</time></trkpt><trkpt lat="46.409229925281025" lon="12.599143393819753"><ele>903.0</ele><time>2026-04-06T13:56:07Z</time></trkpt><trkpt lat="46.40912338188281" lon="12.599319271454133"><ele>903.0</ele><time>2026-04-06T13:56:08Z</time></trkpt><trkpt lat="46.409021263524764" lon="12.59948520196103"><ele>903.0</ele><time>2026-04-06T13:56:09Z</time></trkpt><trkpt lat="46.40891605475225" lon="12.599655360223716"><ele>901.6666666666667</ele><time>2026-04-06T13:56:10Z</time></trkpt><trkpt lat="46.40881268255661" lon="12.59982275504921"><ele>900.3333333333334</ele><time>2026-04-06T13:56:11Z</time></trkpt><trkpt lat="46.4087070258205" lon="12.599994568100545"><ele>899.0</ele><time>2026-04-06T13:56:12Z</time></trkpt><trkpt lat="46.40859395335468" lon="12.600175539672076"><ele>899.0</ele><time>2026-04-06T13:56:13Z</time></trkpt><trkpt lat="46.408475873079446" lon="12.600368401524207"><ele>899.0</ele><time>2026-04-06T13:56:14Z</time></trkpt><trkpt lat="46.40835093672986" lon="12.600572507681463"><ele>899.0</ele><time>2026-04-06T13:56:15Z</time></trkpt><trkpt lat="46.40822067210927" lon="12.600787910642534"><ele>899.0</ele><time>2026-04-06T13:56:16Z</time></trkpt><trkpt lat="46.40808794461597" lon="12.601005109551549"><ele>899.0</ele><time>2026-04-06T13:56:17Z</time></trkpt><trkpt lat="46.40795579745902" lon="12.601218183073323"><ele>899.0</ele><time>2026-04-06T13:56:18Z</time></trkpt><trkpt lat="46.40783029538568" lon="12.601425961669035"><ele>899.0</ele><time>2026-04-06T13:56:19Z</time></trkpt><trkpt lat="46.407690832579924" lon="12.601620268675617"><ele>899.0</ele><time>2026-04-06T13:56:20Z</time></trkpt><trkpt lat="46.40755651200816" lon="12.601840213420912"><ele>899.0</ele><time>2026-04-06T13:56:21Z</time></trkpt><trkpt lat="46.407420419288286" lon="12.602063228975922"><ele>899.0</ele><time>2026-04-06T13:56:22Z</time></trkpt><trkpt lat="46.40728025760656" lon="12.602292918971262"><ele>899.0</ele><time>2026-04-06T13:56:23Z</time></trkpt><trkpt lat="46.40713570585347" lon="12.602529001947635"><ele>899.0</ele><time>2026-04-06T13:56:24Z</time></trkpt><trkpt lat="46.40700328236887" lon="12.602780750349249"><ele>899.0</ele><time>2026-04-06T13:56:25Z</time></trkpt><trkpt lat="46.406861052548116" lon="12.603009787049833"><ele>899.0</ele><time>2026-04-06T13:56:26Z</time></trkpt><trkpt lat="46.40672316641972" lon="12.603230938113636"><ele>899.0</ele><time>2026-04-06T13:56:27Z</time></trkpt><trkpt lat="46.40659250301285" lon="12.603443804550473"><ele>899.0</ele><time>2026-04-06T13:56:28Z</time></trkpt><trkpt lat="46.40646817787003" lon="12.603645164631374"><ele>899.0</ele><time>2026-04-06T13:56:29Z</time></trkpt><trkpt lat="46.40634740671485" lon="12.603839568069425"><ele>899.0</ele><time>2026-04-06T13:56:30Z</time></trkpt><trkpt lat="46.40623199969399" lon="12.604030332674311"><ele>898.0</ele><time>2026-04-06T13:56:31Z</time></trkpt><trkpt lat="46.40611309240198" lon="12.60422921464633"><ele>897.0</ele><time>2026-04-06T13:56:32Z</time></trkpt><trkpt lat="46.405993607846774" lon="12.604420953469507"><ele>896.0</ele><time>2026-04-06T13:56:33Z</time></trkpt><trkpt lat="46.40586992436721" lon="12.60460711423196"><ele>896.0</ele><time>2026-04-06T13:56:34Z</time></trkpt><trkpt lat="46.405738959023736" lon="12.604768608783061"><ele>896.0</ele><time>2026-04-06T13:56:35Z</time></trkpt><trkpt lat="46.40559252101081" lon="12.6049167193395"><ele>896.0</ele><time>2026-04-06T13:56:36Z</time></trkpt><trkpt lat="46.40545000330044" lon="12.605052552947113"><ele>893.6666666666667</ele><time>2026-04-06T13:56:37Z</time></trkpt><trkpt lat="46.40531644740982" lon="12.605188128352237"><ele>891.3333333333333</ele><time>2026-04-06T13:56:38Z</time></trkpt><trkpt lat="46.40518385013567" lon="12.605337423409862"><ele>889.0</ele><time>2026-04-06T13:56:39Z</time></trkpt><trkpt lat="46.40506047536702" lon="12.605502809366778"><ele>888.3333333333333</ele><time>2026-04-06T13:56:40Z</time></trkpt><trkpt lat="46.40494593514419" lon="12.605673898209439"><ele>887.6666666666667</ele><time>2026-04-06T13:56:41Z</time></trkpt><trkpt lat="46.40483484992196" lon="12.605839258032233"><ele>887.0</ele><time>2026-04-06T13:56:42Z</time></trkpt><trkpt lat="46.404733113784786" lon="12.606015139282428"><ele>885.0</ele><time>2026-04-06T13:56:43Z</time></trkpt><trkpt lat="46.40464304820748" lon="12.606223043292529"><ele>883.0</ele><time>2026-04-06T13:56:44Z</time></trkpt><trkpt lat="46.404567536437455" lon="12.606469930220479"><ele>881.0</ele><time>2026-04-06T13:56:45Z</time></trkpt><trkpt lat="46.40449444917527" lon="12.606742258829968"><ele>881.0</ele><time>2026-04-06T13:56:46Z</time></trkpt><trkpt lat="46.40442268966896" lon="12.607003616167306"><ele>881.0</ele><time>2026-04-06T13:56:47Z</time></trkpt><trkpt lat="46.404345811721406" lon="12.607262829091022"><ele>881.0</ele><time>2026-04-06T13:56:48Z</time></trkpt><trkpt lat="46.40426549345494" lon="12.607529851526154"><ele>881.0</ele><time>2026-04-06T13:56:49Z</time></trkpt><trkpt lat="46.404188316071334" lon="12.607795298109712"><ele>881.0</ele><time>2026-04-06T13:56:50Z</time></trkpt><trkpt lat="46.404111829073386" lon="12.608064235750655"><ele>881.0</ele><time>2026-04-06T13:56:51Z</time></trkpt><trkpt lat="46.404039554049035" lon="12.608335360087816"><ele>881.0</ele><time>2026-04-06T13:56:52Z</time></trkpt><trkpt lat="46.40396442326586" lon="12.60860719802279"><ele>881.0</ele><time>2026-04-06T13:56:53Z</time></trkpt><trkpt lat="46.40388580876324" lon="12.60887084450432"><ele>881.0</ele><time>2026-04-06T13:56:54Z</time></trkpt><trkpt lat="46.403810844617574" lon="12.609122296325545"><ele>877.6666666666667</ele><time>2026-04-06T13:56:55Z</time></trkpt><trkpt lat="46.40375340937365" lon="12.609367499304945"><ele>874.3333333333333</ele><time>2026-04-06T13:56:56Z</time></trkpt><trkpt lat="46.403721227761594" lon="12.60962284827773"><ele>871.0</ele><time>2026-04-06T13:56:57Z</time></trkpt><trkpt lat="46.40371480298748" lon="12.609884827128095"><ele>868.3333333333333</ele><time>2026-04-06T13:56:58Z</time></trkpt><trkpt lat="46.403718011026164" lon="12.610146865585314"><ele>865.6666666666667</ele><time>2026-04-06T13:56:59Z</time></trkpt><trkpt lat="46.4036981875756" lon="12.610407913046844"><ele>863.0</ele><time>2026-04-06T13:57:00Z</time></trkpt><trkpt lat="46.40364723567038" lon="12.6106693543697"><ele>863.0</ele><time>2026-04-06T13:57:01Z</time></trkpt><trkpt lat="46.40358460402708" lon="12.610930472259149"><ele>863.0</ele><time>2026-04-06T13:57:02Z</time></trkpt><trkpt lat="46.403527611181964" lon="12.611182278672498"><ele>863.0</ele><time>2026-04-06T13:57:03Z</time></trkpt><trkpt lat="46.403474735208555" lon="12.611418539256496"><ele>863.0</ele><time>2026-04-06T13:57:04Z</time></trkpt><trkpt lat="46.403420838539894" lon="12.611630394168047"><ele>863.0</ele><time>2026-04-06T13:57:05Z</time></trkpt><trkpt lat="46.40337228408576" lon="12.611801503069012"><ele>863.0</ele><time>2026-04-06T13:57:06Z</time></trkpt><trkpt lat="46.403308678441306" lon="12.611947957930674"><ele>863.0</ele><time>2026-04-06T13:57:07Z</time></trkpt><trkpt lat="46.40321742311844" lon="12.612059124704038"><ele>865.0</ele><time>2026-04-06T13:57:08Z</time></trkpt><trkpt lat="46.4031107201291" lon="12.612150672418574"><ele>867.0</ele><time>2026-04-06T13:57:09Z</time></trkpt><trkpt lat="46.40302689952219" lon="12.612252886555188"><ele>869.0</ele><time>2026-04-06T13:57:10Z</time></trkpt><trkpt lat="46.40296727522783" lon="12.612386158127496"><ele>871.0</ele><time>2026-04-06T13:57:11Z</time></trkpt><trkpt lat="46.402966641015055" lon="12.61254756091809"><ele>865.75</ele><time>2026-04-06T13:57:12Z</time></trkpt><trkpt lat="46.40294085612197" lon="12.612698684271864"><ele>860.5</ele><time>2026-04-06T13:57:13Z</time></trkpt><trkpt lat="46.402923104856285" lon="12.612869817131466"><ele>855.25</ele><time>2026-04-06T13:57:14Z</time></trkpt><trkpt lat="46.402916101801104" lon="12.61305075532782"><ele>850.0</ele><time>2026-04-06T13:57:15Z</time></trkpt><trkpt lat="46.40288397942562" lon="12.613209701404555"><ele>849.6</ele><time>2026-04-06T13:57:15.999Z</time></trkpt><trkpt lat="46.40283060102749" lon="12.613348355355317"><ele>849.2</ele><time>2026-04-06T13:57:16.999Z</time></trkpt><trkpt lat="46.402754801980265" lon="12.613461763742423"><ele>848.8</ele><time>2026-04-06T13:57:17.999Z</time></trkpt><trkpt lat="46.40266274502759" lon="12.613542049261225"><ele>848.4</ele><time>2026-04-06T13:57:18.999Z</time></trkpt><trkpt lat="46.40255558738116" lon="12.613587581752586"><ele>848.0</ele><time>2026-04-06T13:57:19.999Z</time></trkpt><trkpt lat="46.402439091167636" lon="12.613590899261835"><ele>848.0</ele><time>2026-04-06T13:57:20.999Z</time></trkpt><trkpt lat="46.40233076691679" lon="12.613562527479903"><ele>848.0</ele><time>2026-04-06T13:57:21.999Z</time></trkpt><trkpt lat="46.4022280495516" lon="12.613541947065071"><ele>848.0</ele><time>2026-04-06T13:57:22.999Z</time></trkpt><trkpt lat="46.40213231715978" lon="12.613573590099534"><ele>848.0</ele><time>2026-04-06T13:57:23.999Z</time></trkpt><trkpt lat="46.40204699542441" lon="12.613635761412613"><ele>848.0</ele><time>2026-04-06T13:57:24.999Z</time></trkpt><trkpt lat="46.40197150858037" lon="12.613713085062967"><ele>845.0</ele><time>2026-04-06T13:57:25.999Z</time></trkpt><trkpt lat="46.40190300420596" lon="12.613805241571084"><ele>842.0</ele><time>2026-04-06T13:57:26.999Z</time></trkpt><trkpt lat="46.40182656294671" lon="12.613908407371154"><ele>839.0</ele><time>2026-04-06T13:57:27.999Z</time></trkpt><trkpt lat="46.40175325326193" lon="12.614007369451732"><ele>836.0</ele><time>2026-04-06T13:57:28.999Z</time></trkpt><trkpt lat="46.40169516663761" lon="12.614110505178115"><ele>833.0</ele><time>2026-04-06T13:57:29.999Z</time></trkpt><trkpt lat="46.40165704533522" lon="12.61423799666826"><ele>833.0</ele><time>2026-04-06T13:57:30.999Z</time></trkpt><trkpt lat="46.40165076450875" lon="12.614377180412905"><ele>833.0</ele><time>2026-04-06T13:57:31.999Z</time></trkpt><trkpt lat="46.40167376035737" lon="12.614508247286048"><ele>833.0</ele><time>2026-04-06T13:57:32.999Z</time></trkpt><trkpt lat="46.40171256630496" lon="12.614624194572963"><ele>833.0</ele><time>2026-04-06T13:57:33.999Z</time></trkpt><trkpt lat="46.40177035692335" lon="12.614720233411502"><ele>833.0</ele><time>2026-04-06T13:57:34.999Z</time></trkpt><trkpt lat="46.401837245049244" lon="12.614819638287246"><ele>833.3333333333334</ele><time>2026-04-06T13:57:35.999Z</time></trkpt><trkpt lat="46.4018961846339" lon="12.614926819925918"><ele>833.6666666666667</ele><time>2026-04-06T13:57:36.999Z</time></trkpt><trkpt lat="46.40194853292301" lon="12.615028711460846"><ele>834.0</ele><time>2026-04-06T13:57:37.999Z</time></trkpt><trkpt lat="46.401983913617364" lon="12.615130484473925"><ele>834.3333333333333</ele><time>2026-04-06T13:57:38.999Z</time></trkpt><trkpt lat="46.401991600961885" lon="12.61523959805852"><ele>834.6666666666666</ele><time>2026-04-06T13:57:39.999Z</time></trkpt><trkpt lat="46.40196453527777" lon="12.615359367599675"><ele>835.0</ele><time>2026-04-06T13:57:40.999Z</time></trkpt><trkpt lat="46.40190430491142" lon="12.615473103098894"><ele>835.0</ele><time>2026-04-06T13:57:41.999Z</time></trkpt><trkpt lat="46.40182101313752" lon="12.615588496426332"><ele>835.0</ele><time>2026-04-06T13:57:42.999Z</time></trkpt><trkpt lat="46.401732042968604" lon="12.615704566514008"><ele>835.0</ele><time>2026-04-06T13:57:43.999Z</time></trkpt><trkpt lat="46.401629322591376" lon="12.615809179643986"><ele>835.0</ele><time>2026-04-06T13:57:44.999Z</time></trkpt><trkpt lat="46.401523052806546" lon="12.615898418729822"><ele>835.0</ele><time>2026-04-06T13:57:45.999Z</time></trkpt><trkpt lat="46.401427159535636" lon="12.615993370565663"><ele>835.0</ele><time>2026-04-06T13:57:46.999Z</time></trkpt><trkpt lat="46.40134531268333" lon="12.61609459200936"><ele>835.0</ele><time>2026-04-06T13:57:47.999Z</time></trkpt><trkpt lat="46.401260908903936" lon="12.616209435397344"><ele>835.0</ele><time>2026-04-06T13:57:48.999Z</time></trkpt><trkpt lat="46.401175100212036" lon="12.616334508779733"><ele>831.5</ele><time>2026-04-06T13:57:49.999Z</time></trkpt><trkpt lat="46.40109995494776" lon="12.616477674216217"><ele>828.0</ele><time>2026-04-06T13:57:50.999Z</time></trkpt><trkpt lat="46.40103843448859" lon="12.616635635359872"><ele>824.5</ele><time>2026-04-06T13:57:51.999Z</time></trkpt><trkpt lat="46.40099228776326" lon="12.6168022457226"><ele>821.0</ele><time>2026-04-06T13:57:52.999Z</time></trkpt><trkpt lat="46.40095835013204" lon="12.616966432465418"><ele>823.0</ele><time>2026-04-06T13:57:53.999Z</time></trkpt><trkpt lat="46.400925915640016" lon="12.617125426425266"><ele>825.0</ele><time>2026-04-06T13:57:54.999Z</time></trkpt><trkpt lat="46.400895457200455" lon="12.617277600758056"><ele>827.0</ele><time>2026-04-06T13:57:55.999Z</time></trkpt><trkpt lat="46.40086255174873" lon="12.617430786416142"><ele>829.0</ele><time>2026-04-06T13:57:56.999Z</time></trkpt><trkpt lat="46.40082470766775" lon="12.617582654759712"><ele>831.0</ele><time>2026-04-06T13:57:57.999Z</time></trkpt><trkpt lat="46.400777330674885" lon="12.617727603487758"><ele>833.0</ele><time>2026-04-06T13:57:58.999Z</time></trkpt><trkpt lat="46.40071937116196" lon="12.61786379315967"><ele>835.0</ele><time>2026-04-06T13:57:59.999Z</time></trkpt><trkpt lat="46.40064656671572" lon="12.617984130675561"><ele>837.0</ele><time>2026-04-06T13:58:00.999Z</time></trkpt><trkpt lat="46.400560213426985" lon="12.618085309286755"><ele>839.0</ele><time>2026-04-06T13:58:01.999Z</time></trkpt><trkpt lat="46.40047463019652" lon="12.618165889349257"><ele>841.0</ele><time>2026-04-06T13:58:02.999Z</time></trkpt><trkpt lat="46.400407793299465" lon="12.618259888902164"><ele>835.3333333333333</ele><time>2026-04-06T13:58:03.999Z</time></trkpt><trkpt lat="46.40036028468818" lon="12.618378337802366"><ele>829.6666666666666</ele><time>2026-04-06T13:58:04.999Z</time></trkpt><trkpt lat="46.400331817503144" lon="12.618498548391413"><ele>824.0</ele><time>2026-04-06T13:58:05.999Z</time></trkpt><trkpt lat="46.400316487821186" lon="12.618615066389228"><ele>818.3333333333333</ele><time>2026-04-06T13:58:06.999Z</time></trkpt><trkpt lat="46.400312646906805" lon="12.618722368672907"><ele>812.6666666666666</ele><time>2026-04-06T13:58:07.999Z</time></trkpt><trkpt lat="46.400309631435555" lon="12.6188248598938"><ele>807.0</ele><time>2026-04-06T13:58:09Z</time></trkpt><trkpt lat="46.400299358649164" lon="12.61891675126541"><ele>807.0</ele><time>2026-04-06T13:58:10Z</time></trkpt><trkpt lat="46.4002704664178" lon="12.61906771811073"><ele>807.0</ele><time>2026-04-06T13:58:12Z</time></trkpt><trkpt lat="46.400232481564686" lon="12.619206830956639"><ele>807.0</ele><time>2026-04-06T13:58:14Z</time></trkpt><trkpt lat="46.400190162976735" lon="12.619311003410568"><ele>807.0</ele><time>2026-04-06T13:58:16Z</time></trkpt><trkpt lat="46.40013683771191" lon="12.619389484307204"><ele>807.0</ele><time>2026-04-06T13:58:18Z</time></trkpt><trkpt lat="46.400119411097556" lon="12.619479561633394"><ele>807.0</ele><time>2026-04-06T13:58:20Z</time></trkpt><trkpt lat="46.400078367696416" lon="12.619568831390488"><ele>809.1666666666666</ele><time>2026-04-06T13:58:23Z</time></trkpt><trkpt lat="46.4000521128604" lon="12.619683840444326"><ele>811.3333333333333</ele><time>2026-04-06T13:59:12Z</time></trkpt><trkpt lat="46.40001309677729" lon="12.619830940803066"><ele>813.5</ele><time>2026-04-06T13:59:13.999Z</time></trkpt><trkpt lat="46.399985002066344" lon="12.619927538101745"><ele>815.6666666666666</ele><time>2026-04-06T13:59:14.999Z</time></trkpt><trkpt lat="46.399955820295176" lon="12.620024596745633"><ele>817.8333333333333</ele><time>2026-04-06T13:59:15.999Z</time></trkpt><trkpt lat="46.3999276333642" lon="12.620115416796715"><ele>820.0</ele><time>2026-04-06T13:59:16.999Z</time></trkpt><trkpt lat="46.399899616010295" lon="12.62020787091002"><ele>819.9999999999999</ele><time>2026-04-06T13:59:17.999Z</time></trkpt><trkpt lat="46.399867252284764" lon="12.620297179634846"><ele>820.0</ele><time>2026-04-06T13:59:18.999Z</time></trkpt><trkpt lat="46.39983367490597" lon="12.620388663048761"><ele>820.0</ele><time>2026-04-06T13:59:19.999Z</time></trkpt><trkpt lat="46.39979576176899" lon="12.62047395489066"><ele>820.0</ele><time>2026-04-06T13:59:20.999Z</time></trkpt><trkpt lat="46.399753024793206" lon="12.620565707067616"><ele>819.9999999999999</ele><time>2026-04-06T13:59:21.999Z</time></trkpt><trkpt lat="46.39970284523256" lon="12.620664862019783"><ele>820.0</ele><time>2026-04-06T13:59:22.999Z</time></trkpt><trkpt lat="46.399634267204775" lon="12.620771082760928"><ele>820.6</ele><time>2026-04-06T13:59:23.999Z</time></trkpt><trkpt lat="46.39956480278313" lon="12.620880131388144"><ele>821.2</ele><time>2026-04-06T13:59:24.999Z</time></trkpt><trkpt lat="46.39949318571469" lon="12.620990582788941"><ele>821.8</ele><time>2026-04-06T13:59:25.999Z</time></trkpt><trkpt lat="46.399417387265835" lon="12.621095510197756"><ele>822.4</ele><time>2026-04-06T13:59:26.999Z</time></trkpt><trkpt lat="46.3993403567424" lon="12.621208259637429"><ele>823.0</ele><time>2026-04-06T13:59:27.999Z</time></trkpt><trkpt lat="46.39926199992074" lon="12.621328754417629"><ele>823.0</ele><time>2026-04-06T13:59:28.999Z</time></trkpt><trkpt lat="46.39918166722599" lon="12.621455872365594"><ele>823.0</ele><time>2026-04-06T13:59:29.999Z</time></trkpt><trkpt lat="46.39909700328314" lon="12.62158466323609"><ele>823.0</ele><time>2026-04-06T13:59:30.999Z</time></trkpt><trkpt lat="46.39900610270005" lon="12.621701989743316"><ele>823.0</ele><time>2026-04-06T13:59:31.999Z</time></trkpt><trkpt lat="46.39890563823106" lon="12.621801852673627"><ele>819.75</ele><time>2026-04-06T13:59:32.999Z</time></trkpt><trkpt lat="46.39879664883184" lon="12.621885550719513"><ele>816.5</ele><time>2026-04-06T13:59:33.999Z</time></trkpt><trkpt lat="46.39868402204586" lon="12.621964815366558"><ele>813.25</ele><time>2026-04-06T13:59:34.999Z</time></trkpt><trkpt lat="46.39857072283662" lon="12.622044338018513"><ele>810.0</ele><time>2026-04-06T13:59:35.999Z</time></trkpt><trkpt lat="46.39846048473229" lon="12.622115185242146"><ele>810.0</ele><time>2026-04-06T13:59:36.999Z</time></trkpt><trkpt lat="46.3983621884768" lon="12.622193670869098"><ele>810.0</ele><time>2026-04-06T13:59:37.999Z</time></trkpt><trkpt lat="46.398276390384396" lon="12.622281013731431"><ele>810.0</ele><time>2026-04-06T13:59:38.999Z</time></trkpt><trkpt lat="46.39819800024389" lon="12.622386086685673"><ele>810.0</ele><time>2026-04-06T13:59:39.999Z</time></trkpt><trkpt lat="46.39812876201175" lon="12.622507079475165"><ele>810.0</ele><time>2026-04-06T13:59:40.999Z</time></trkpt><trkpt lat="46.39806923993103" lon="12.622650405567404"><ele>810.0</ele><time>2026-04-06T13:59:41.999Z</time></trkpt><trkpt lat="46.39801445134711" lon="12.622812920791386"><ele>810.0</ele><time>2026-04-06T13:59:42.999Z</time></trkpt><trkpt lat="46.39795747977142" lon="12.622985693208637"><ele>810.0</ele><time>2026-04-06T13:59:43.999Z</time></trkpt><trkpt lat="46.397898420646094" lon="12.623164376798105"><ele>810.0</ele><time>2026-04-06T13:59:44.999Z</time></trkpt><trkpt lat="46.39784098330139" lon="12.623337607376447"><ele>805.0</ele><time>2026-04-06T13:59:45.999Z</time></trkpt><trkpt lat="46.39778787166437" lon="12.623508149509485"><ele>800.0</ele><time>2026-04-06T13:59:46.999Z</time></trkpt><trkpt lat="46.39773507750734" lon="12.623676972744589"><ele>795.0</ele><time>2026-04-06T13:59:47.999Z</time></trkpt><trkpt lat="46.397684179072996" lon="12.623842506479544"><ele>790.0</ele><time>2026-04-06T13:59:48.999Z</time></trkpt><trkpt lat="46.39763882214019" lon="12.624021310802847"><ele>790.0</ele><time>2026-04-06T13:59:49.999Z</time></trkpt><trkpt lat="46.39760089297999" lon="12.624223742956776"><ele>790.0</ele><time>2026-04-06T13:59:50.999Z</time></trkpt><trkpt lat="46.39757174471998" lon="12.624433186123627"><ele>790.0</ele><time>2026-04-06T13:59:51.999Z</time></trkpt><trkpt lat="46.39755418576115" lon="12.624639297216545"><ele>790.0</ele><time>2026-04-06T13:59:52.999Z</time></trkpt><trkpt lat="46.39755233395405" lon="12.624833417771194"><ele>791.25</ele><time>2026-04-06T13:59:53.999Z</time></trkpt><trkpt lat="46.39756554690975" lon="12.625031230409856"><ele>792.5</ele><time>2026-04-06T13:59:54.999Z</time></trkpt><trkpt lat="46.397587170568926" lon="12.62522982030698"><ele>793.75</ele><time>2026-04-06T13:59:55.999Z</time></trkpt><trkpt lat="46.3976089746652" lon="12.625419691061497"><ele>795.0</ele><time>2026-04-06T13:59:56.999Z</time></trkpt><trkpt lat="46.397620512371084" lon="12.625608041800477"><ele>795.25</ele><time>2026-04-06T13:59:57.999Z</time></trkpt><trkpt lat="46.397613523097014" lon="12.62579780165547"><ele>795.5</ele><time>2026-04-06T13:59:58.999Z</time></trkpt><trkpt lat="46.397589398767934" lon="12.625998410444248"><ele>795.75</ele><time>2026-04-06T13:59:59.999Z</time></trkpt><trkpt lat="46.397558638506396" lon="12.626209624713919"><ele>796.0</ele><time>2026-04-06T14:00:00.999Z</time></trkpt><trkpt lat="46.397520126983316" lon="12.626436764577821"><ele>796.3333333333333</ele><time>2026-04-06T14:00:01.999Z</time></trkpt><trkpt lat="46.39745375524544" lon="12.626697088013733"><ele>796.6666666666667</ele><time>2026-04-06T14:00:02.999Z</time></trkpt><trkpt lat="46.39739515261535" lon="12.627013343837655"><ele>797.0</ele><time>2026-04-06T14:00:03.999Z</time></trkpt><trkpt lat="46.397331827347074" lon="12.627362746823175"><ele>797.0</ele><time>2026-04-06T14:00:04.999Z</time></trkpt><trkpt lat="46.39726556395601" lon="12.62772692112401"><ele>797.0</ele><time>2026-04-06T14:00:05.999Z</time></trkpt><trkpt lat="46.397195578360545" lon="12.628100862873389"><ele>790.0</ele><time>2026-04-06T14:00:06.999Z</time></trkpt><trkpt lat="46.39712286148018" lon="12.628477155007056"><ele>783.0</ele><time>2026-04-06T14:00:07.999Z</time></trkpt><trkpt lat="46.39706374478615" lon="12.62884938170367"><ele>782.5</ele><time>2026-04-06T14:00:08.999Z</time></trkpt><trkpt lat="46.39699144471786" lon="12.629211384702518"><ele>782.0</ele><time>2026-04-06T14:00:09.999Z</time></trkpt><trkpt lat="46.396926207699615" lon="12.629560923870924"><ele>780.5</ele><time>2026-04-06T14:00:10.999Z</time></trkpt><trkpt lat="46.39686245067264" lon="12.62988987091453"><ele>779.0</ele><time>2026-04-06T14:00:11.999Z</time></trkpt><trkpt lat="46.39679937337064" lon="12.63021009203027"><ele>781.0</ele><time>2026-04-06T14:00:12.999Z</time></trkpt><trkpt lat="46.396738318938645" lon="12.630521546453044"><ele>783.0</ele><time>2026-04-06T14:00:13.999Z</time></trkpt><trkpt lat="46.396676260354084" lon="12.630836907191274"><ele>785.0</ele><time>2026-04-06T14:00:15Z</time></trkpt><trkpt lat="46.39661197427108" lon="12.63116266131148"><ele>785.0</ele><time>2026-04-06T14:00:16Z</time></trkpt><trkpt lat="46.39654557722362" lon="12.631500541207316"><ele>785.0</ele><time>2026-04-06T14:00:17Z</time></trkpt><trkpt lat="46.396475258248" lon="12.631849212056249"><ele>785.5</ele><time>2026-04-06T14:00:18Z</time></trkpt><trkpt lat="46.39640500564804" lon="12.632198920501759"><ele>786.0</ele><time>2026-04-06T14:00:19Z</time></trkpt><trkpt lat="46.39633821233219" lon="12.632539339120168"><ele>778.0</ele><time>2026-04-06T14:00:20Z</time></trkpt><trkpt lat="46.396271774314535" lon="12.63286980887069"><ele>770.0</ele><time>2026-04-06T14:00:21Z</time></trkpt><trkpt lat="46.39621105627672" lon="12.63318983433593"><ele>770.0</ele><time>2026-04-06T14:00:22Z</time></trkpt><trkpt lat="46.39615391005394" lon="12.633496956584105"><ele>770.0</ele><time>2026-04-06T14:00:23Z</time></trkpt><trkpt lat="46.39610917576648" lon="12.633801370297913"><ele>770.0</ele><time>2026-04-06T14:00:24Z</time></trkpt><trkpt lat="46.39608444233238" lon="12.634119987973325"><ele>773.0</ele><time>2026-04-06T14:00:25Z</time></trkpt><trkpt lat="46.39607996191454" lon="12.634454799782258"><ele>776.0</ele><time>2026-04-06T14:00:26Z</time></trkpt><trkpt lat="46.39608079047799" lon="12.6348072798732"><ele>777.0</ele><time>2026-04-06T14:00:27Z</time></trkpt><trkpt lat="46.396078557678656" lon="12.635165935920776"><ele>778.0</ele><time>2026-04-06T14:00:28Z</time></trkpt><trkpt lat="46.396064826180776" lon="12.635519051672459"><ele>780.5</ele><time>2026-04-06T14:00:29Z</time></trkpt><trkpt lat="46.396039834316326" lon="12.635850585376444"><ele>783.0</ele><time>2026-04-06T14:00:30Z</time></trkpt><trkpt lat="46.39600945330102" lon="12.63617703379866"><ele>784.6666666666667</ele><time>2026-04-06T14:00:31Z</time></trkpt><trkpt lat="46.39597849191643" lon="12.636496179884682"><ele>786.3333333333334</ele><time>2026-04-06T14:00:32Z</time></trkpt><trkpt lat="46.39594601324393" lon="12.636808327102514"><ele>788.0</ele><time>2026-04-06T14:00:33Z</time></trkpt><trkpt lat="46.395914698382065" lon="12.63710932804839"><ele>788.0</ele><time>2026-04-06T14:00:34Z</time></trkpt><trkpt lat="46.395886505289" lon="12.6373927939724"><ele>788.0</ele><time>2026-04-06T14:00:35Z</time></trkpt><trkpt lat="46.39586101524007" lon="12.637664170001228"><ele>788.0</ele><time>2026-04-06T14:00:36Z</time></trkpt><trkpt lat="46.395839826403844" lon="12.637911970338688"><ele>787.6666666666667</ele><time>2026-04-06T14:00:37Z</time></trkpt><trkpt lat="46.39582670256124" lon="12.638136448752304"><ele>787.3333333333333</ele><time>2026-04-06T14:00:38Z</time></trkpt><trkpt lat="46.395841318576274" lon="12.638363413816657"><ele>787.0</ele><time>2026-04-06T14:00:39Z</time></trkpt><trkpt lat="46.39587873832812" lon="12.638571976116829"><ele>785.75</ele><time>2026-04-06T14:00:40Z</time></trkpt><trkpt lat="46.39594622358167" lon="12.638756065578033"><ele>784.5</ele><time>2026-04-06T14:00:41Z</time></trkpt><trkpt lat="46.396036598084805" lon="12.638925471498085"><ele>783.25</ele><time>2026-04-06T14:00:42Z</time></trkpt><trkpt lat="46.39613155074661" lon="12.639098298897405"><ele>782.0</ele><time>2026-04-06T14:00:43Z</time></trkpt><trkpt lat="46.39622121611535" lon="12.639277426691281"><ele>783.3333333333334</ele><time>2026-04-06T14:00:44Z</time></trkpt><trkpt lat="46.39630721227373" lon="12.63948033027774"><ele>784.6666666666667</ele><time>2026-04-06T14:00:45Z</time></trkpt><trkpt lat="46.39639165253182" lon="12.639701614074674"><ele>786.0</ele><time>2026-04-06T14:00:46Z</time></trkpt><trkpt lat="46.39647844341735" lon="12.639936806503998"><ele>793.3333333333333</ele><time>2026-04-06T14:00:47Z</time></trkpt><trkpt lat="46.39656935843309" lon="12.640182669064915"><ele>800.6666666666666</ele><time>2026-04-06T14:00:48Z</time></trkpt><trkpt lat="46.39665917079858" lon="12.640431783824807"><ele>808.0</ele><time>2026-04-06T14:00:49Z</time></trkpt><trkpt lat="46.39673826487158" lon="12.640648256789888"><ele>808.0</ele><time>2026-04-06T14:00:50Z</time></trkpt><trkpt lat="46.39680714699187" lon="12.640840342289213"><ele>808.0</ele><time>2026-04-06T14:00:51Z</time></trkpt><trkpt lat="46.39685341276399" lon="12.641021360267848"><ele>808.0</ele><time>2026-04-06T14:00:51.999Z</time></trkpt><trkpt lat="46.39691029792939" lon="12.641179410733727"><ele>808.0</ele><time>2026-04-06T14:00:52.999Z</time></trkpt><trkpt lat="46.396961224762386" lon="12.641318416608682"><ele>808.0</ele><time>2026-04-06T14:00:53.999Z</time></trkpt><trkpt lat="46.39701500527547" lon="12.641437188360166"><ele>808.0</ele><time>2026-04-06T14:00:54.999Z</time></trkpt><trkpt lat="46.39702394723635" lon="12.641559105067575"><ele>808.0</ele><time>2026-04-06T14:00:55.999Z</time></trkpt><trkpt lat="46.39700278703894" lon="12.641680830264582"><ele>808.0</ele><time>2026-04-06T14:00:56.999Z</time></trkpt><trkpt lat="46.39695153668918" lon="12.641793925330752"><ele>808.0</ele><time>2026-04-06T14:00:57.999Z</time></trkpt><trkpt lat="46.396897746208126" lon="12.641895269236935"><ele>810.0</ele><time>2026-04-06T14:00:58.999Z</time></trkpt><trkpt lat="46.39684126675271" lon="12.642001258299384"><ele>812.0</ele><time>2026-04-06T14:00:59.999Z</time></trkpt><trkpt lat="46.39677870437082" lon="12.642093147479834"><ele>814.0</ele><time>2026-04-06T14:01:00.999Z</time></trkpt><trkpt lat="46.3966851409598" lon="12.642113134800748"><ele>816.0</ele><time>2026-04-06T14:01:01.999Z</time></trkpt><trkpt lat="46.39659235131918" lon="12.642115114589524"><ele>818.0</ele><time>2026-04-06T14:01:02.999Z</time></trkpt><trkpt lat="46.396508915240965" lon="12.642050306171125"><ele>818.0</ele><time>2026-04-06T14:01:03.999Z</time></trkpt><trkpt lat="46.39642884603785" lon="12.641969920619701"><ele>818.0</ele><time>2026-04-06T14:01:04.999Z</time></trkpt><trkpt lat="46.39634129247935" lon="12.641882622842978"><ele>818.0</ele><time>2026-04-06T14:01:05.999Z</time></trkpt><trkpt lat="46.396255074016636" lon="12.641817881813191"><ele>818.0</ele><time>2026-04-06T14:01:06.999Z</time></trkpt><trkpt lat="46.39616561813692" lon="12.641790992909602"><ele>818.0</ele><time>2026-04-06T14:01:07.999Z</time></trkpt><trkpt lat="46.39607469686761" lon="12.641802055439383"><ele>817.25</ele><time>2026-04-06T14:01:08.999Z</time></trkpt><trkpt lat="46.39598114688221" lon="12.641862530699873"><ele>816.5</ele><time>2026-04-06T14:01:09.999Z</time></trkpt><trkpt lat="46.39588856559323" lon="12.641961995934663"><ele>815.75</ele><time>2026-04-06T14:01:10.999Z</time></trkpt><trkpt lat="46.39579289062171" lon="12.642079898774847"><ele>815.0</ele><time>2026-04-06T14:01:11.999Z</time></trkpt><trkpt lat="46.39569506947109" lon="12.64222079789944"><ele>815.0</ele><time>2026-04-06T14:01:12.999Z</time></trkpt><trkpt lat="46.395601282372475" lon="12.642386726706826"><ele>815.0</ele><time>2026-04-06T14:01:13.999Z</time></trkpt><trkpt lat="46.39550334853686" lon="12.64255367191156"><ele>815.0</ele><time>2026-04-06T14:01:14.999Z</time></trkpt><trkpt lat="46.39541068249179" lon="12.642721465340621"><ele>815.0</ele><time>2026-04-06T14:01:15.999Z</time></trkpt><trkpt lat="46.39541185557105" lon="12.642973092731182"><ele>814.75</ele><time>2026-04-06T14:01:16.999Z</time></trkpt><trkpt lat="46.39538626208587" lon="12.64317574880324"><ele>814.5</ele><time>2026-04-06T14:01:17.999Z</time></trkpt><trkpt lat="46.3953800547859" lon="12.643387530051331"><ele>814.25</ele><time>2026-04-06T14:01:18.999Z</time></trkpt><trkpt lat="46.39538980954536" lon="12.6436097125964"><ele>814.0</ele><time>2026-04-06T14:01:19.999Z</time></trkpt><trkpt lat="46.395410793989406" lon="12.643840175362993"><ele>815.3333333333333</ele><time>2026-04-06T14:01:20.999Z</time></trkpt><trkpt lat="46.39543728981655" lon="12.644084118419288"><ele>816.6666666666667</ele><time>2026-04-06T14:01:21.999Z</time></trkpt><trkpt lat="46.395461691904295" lon="12.644333589718807"><ele>818.0</ele><time>2026-04-06T14:01:22.999Z</time></trkpt><trkpt lat="46.39548514014266" lon="12.644577688098824"><ele>821.0</ele><time>2026-04-06T14:01:23.999Z</time></trkpt><trkpt lat="46.3955091892976" lon="12.64481432675756"><ele>824.0</ele><time>2026-04-06T14:01:24.999Z</time></trkpt><trkpt lat="46.395538940593774" lon="12.645041540528888"><ele>827.0</ele><time>2026-04-06T14:01:25.999Z</time></trkpt><trkpt lat="46.39558626653739" lon="12.64525622951908"><ele>827.6666666666667</ele><time>2026-04-06T14:01:26.999Z</time></trkpt><trkpt lat="46.39565492333468" lon="12.645460498110836"><ele>828.3333333333333</ele><time>2026-04-06T14:01:27.999Z</time></trkpt><trkpt lat="46.395738625092115" lon="12.645640367416723"><ele>829.0</ele><time>2026-04-06T14:01:28.999Z</time></trkpt><trkpt lat="46.39584362694791" lon="12.645813303767031"><ele>829.0</ele><time>2026-04-06T14:01:29.999Z</time></trkpt><trkpt lat="46.39596443513349" lon="12.645981267732372"><ele>829.0</ele><time>2026-04-06T14:01:30.999Z</time></trkpt><trkpt lat="46.39609429327528" lon="12.646160397009819"><ele>829.0</ele><time>2026-04-06T14:01:31.999Z</time></trkpt><trkpt lat="46.396232059992485" lon="12.646349346744058"><ele>832.6666666666666</ele><time>2026-04-06T14:01:32.999Z</time></trkpt><trkpt lat="46.396371285352444" lon="12.646546152871023"><ele>836.3333333333333</ele><time>2026-04-06T14:01:33.999Z</time></trkpt><trkpt lat="46.39650232485955" lon="12.646733586511823"><ele>840.0</ele><time>2026-04-06T14:01:34.999Z</time></trkpt><trkpt lat="46.39662792369859" lon="12.64690826790402"><ele>843.3333333333333</ele><time>2026-04-06T14:01:35.999Z</time></trkpt><trkpt lat="46.39674865301505" lon="12.647080138184398"><ele>846.6666666666666</ele><time>2026-04-06T14:01:36.999Z</time></trkpt><trkpt lat="46.39686572731471" lon="12.647251576074305"><ele>850.0</ele><time>2026-04-06T14:01:37.999Z</time></trkpt><trkpt lat="46.39698675531146" lon="12.64742288467561"><ele>850.0</ele><time>2026-04-06T14:01:38.999Z</time></trkpt><trkpt lat="46.39710657886486" lon="12.647586565020125"><ele>850.0</ele><time>2026-04-06T14:01:39.999Z</time></trkpt><trkpt lat="46.39721373019587" lon="12.647735749203834"><ele>850.0</ele><time>2026-04-06T14:01:40.999Z</time></trkpt><trkpt lat="46.397307293217416" lon="12.647866856292207"><ele>850.0</ele><time>2026-04-06T14:01:41.999Z</time></trkpt><trkpt lat="46.397397433505304" lon="12.64799216224813"><ele>848.0</ele><time>2026-04-06T14:01:42.999Z</time></trkpt><trkpt lat="46.39748431530197" lon="12.6481329582551"><ele>846.0</ele><time>2026-04-06T14:01:43.999Z</time></trkpt><trkpt lat="46.3975535189327" lon="12.648303820683518"><ele>844.0</ele><time>2026-04-06T14:01:44.999Z</time></trkpt><trkpt lat="46.39759860745077" lon="12.648490046421653"><ele>842.0</ele><time>2026-04-06T14:01:45.999Z</time></trkpt><trkpt lat="46.39760788750441" lon="12.648691056600311"><ele>840.25</ele><time>2026-04-06T14:01:46.999Z</time></trkpt><trkpt lat="46.39759933803195" lon="12.648895540992106"><ele>838.5</ele><time>2026-04-06T14:01:47.999Z</time></trkpt><trkpt lat="46.397576621138136" lon="12.649103514153405"><ele>836.75</ele><time>2026-04-06T14:01:48.999Z</time></trkpt><trkpt lat="46.39754448017185" lon="12.6493239008658"><ele>835.0</ele><time>2026-04-06T14:01:49.999Z</time></trkpt><trkpt lat="46.39751655459171" lon="12.649571530717369"><ele>833.6666666666666</ele><time>2026-04-06T14:01:50.999Z</time></trkpt><trkpt lat="46.3974861010089" lon="12.649840855434707"><ele>832.3333333333333</ele><time>2026-04-06T14:01:51.999Z</time></trkpt><trkpt lat="46.397451713925555" lon="12.6501155620672"><ele>831.0</ele><time>2026-04-06T14:01:52.999Z</time></trkpt><trkpt lat="46.39741801144741" lon="12.65039070080817"><ele>831.0</ele><time>2026-04-06T14:01:53.999Z</time></trkpt><trkpt lat="46.397380940848166" lon="12.650668912264871"><ele>831.0</ele><time>2026-04-06T14:01:54.999Z</time></trkpt><trkpt lat="46.397348807146415" lon="12.650951280334452"><ele>831.0</ele><time>2026-04-06T14:01:55.999Z</time></trkpt><trkpt lat="46.39731559802571" lon="12.65124251017362"><ele>830.6666666666667</ele><time>2026-04-06T14:01:56.999Z</time></trkpt><trkpt lat="46.397276440716006" lon="12.651534660102795"><ele>830.3333333333334</ele><time>2026-04-06T14:01:57.999Z</time></trkpt><trkpt lat="46.39723214375214" lon="12.651823889951318"><ele>830.0</ele><time>2026-04-06T14:01:58.999Z</time></trkpt><trkpt lat="46.397165060591114" lon="12.652106514580952"><ele>827.3333333333334</ele><time>2026-04-06T14:01:59.999Z</time></trkpt><trkpt lat="46.39708076833623" lon="12.65239746692773"><ele>824.6666666666667</ele><time>2026-04-06T14:02:00.999Z</time></trkpt><trkpt lat="46.39699035691515" lon="12.652701941021695"><ele>822.0</ele><time>2026-04-06T14:02:01.999Z</time></trkpt><trkpt lat="46.396897032357614" lon="12.653008507910107"><ele>820.3333333333333</ele><time>2026-04-06T14:02:02.999Z</time></trkpt><trkpt lat="46.396808283839626" lon="12.653306191317531"><ele>818.6666666666666</ele><time>2026-04-06T14:02:03.999Z</time></trkpt><trkpt lat="46.396726499168125" lon="12.653606714659688"><ele>817.0</ele><time>2026-04-06T14:02:04.999Z</time></trkpt><trkpt lat="46.39665153160306" lon="12.653920196116145"><ele>815.5</ele><time>2026-04-06T14:02:05.999Z</time></trkpt><trkpt lat="46.39658878871613" lon="12.654240289350385"><ele>814.0</ele><time>2026-04-06T14:02:06.999Z</time></trkpt><trkpt lat="46.39652512041299" lon="12.654569426125153"><ele>812.0</ele><time>2026-04-06T14:02:07.999Z</time></trkpt><trkpt lat="46.39645672848333" lon="12.654896536102157"><ele>810.0</ele><time>2026-04-06T14:02:08.999Z</time></trkpt><trkpt lat="46.396391901165615" lon="12.655217876423768"><ele>809.5</ele><time>2026-04-06T14:02:09.999Z</time></trkpt><trkpt lat="46.39632693860399" lon="12.65553653046634"><ele>809.0</ele><time>2026-04-06T14:02:10.999Z</time></trkpt><trkpt lat="46.3962586624366" lon="12.65584963035514"><ele>806.0</ele><time>2026-04-06T14:02:11.999Z</time></trkpt><trkpt lat="46.39618990967578" lon="12.656161126570167"><ele>803.0</ele><time>2026-04-06T14:02:12.999Z</time></trkpt><trkpt lat="46.39612140654238" lon="12.656469533797175"><ele>800.0</ele><time>2026-04-06T14:02:13.999Z</time></trkpt><trkpt lat="46.39605519515904" lon="12.656775943916154"><ele>799.3333333333334</ele><time>2026-04-06T14:02:14.999Z</time></trkpt><trkpt lat="46.3959909825543" lon="12.657065327625702"><ele>798.6666666666667</ele><time>2026-04-06T14:02:15.999Z</time></trkpt><trkpt lat="46.39592660404928" lon="12.657337960193296"><ele>798.0</ele><time>2026-04-06T14:02:16.999Z</time></trkpt><trkpt lat="46.3958595012343" lon="12.657594692539258"><ele>800.3333333333333</ele><time>2026-04-06T14:02:17.999Z</time></trkpt><trkpt lat="46.395774065932066" lon="12.65785090851104"><ele>802.6666666666666</ele><time>2026-04-06T14:02:18.999Z</time></trkpt><trkpt lat="46.39565801466559" lon="12.658107061041672"><ele>805.0</ele><time>2026-04-06T14:02:19.999Z</time></trkpt><trkpt lat="46.39552949292437" lon="12.658332301266604"><ele>800.3333333333333</ele><time>2026-04-06T14:02:21Z</time></trkpt><trkpt lat="46.39538979857527" lon="12.65853183231263"><ele>795.6666666666667</ele><time>2026-04-06T14:02:22Z</time></trkpt><trkpt lat="46.39523036569231" lon="12.658725985233191"><ele>791.0</ele><time>2026-04-06T14:02:23Z</time></trkpt><trkpt lat="46.39506920160967" lon="12.658926138075717"><ele>791.0</ele><time>2026-04-06T14:02:24Z</time></trkpt><trkpt lat="46.39491440390404" lon="12.65913034972628"><ele>791.0</ele><time>2026-04-06T14:02:25Z</time></trkpt><trkpt lat="46.39476338211727" lon="12.659335926409"><ele>791.0</ele><time>2026-04-06T14:02:26Z</time></trkpt><trkpt lat="46.39462222165804" lon="12.659538013475515"><ele>786.6666666666667</ele><time>2026-04-06T14:02:27Z</time></trkpt><trkpt lat="46.39449733322688" lon="12.659729376051034"><ele>782.3333333333333</ele><time>2026-04-06T14:02:28Z</time></trkpt><trkpt lat="46.39438558666198" lon="12.659916261709247"><ele>778.0</ele><time>2026-04-06T14:02:29Z</time></trkpt><trkpt lat="46.39428717214633" lon="12.660096031783533"><ele>781.6666666666666</ele><time>2026-04-06T14:02:30Z</time></trkpt><trkpt lat="46.394205387639154" lon="12.660285707748837"><ele>785.3333333333333</ele><time>2026-04-06T14:02:31Z</time></trkpt><trkpt lat="46.394144991045415" lon="12.660501540860835"><ele>789.0</ele><time>2026-04-06T14:02:32Z</time></trkpt><trkpt lat="46.39410030786853" lon="12.660740798828167"><ele>789.0</ele><time>2026-04-06T14:02:33Z</time></trkpt><trkpt lat="46.3940585273632" lon="12.660976739193567"><ele>789.0</ele><time>2026-04-06T14:02:34Z</time></trkpt><trkpt lat="46.39400773978917" lon="12.661202834767009"><ele>789.0</ele><time>2026-04-06T14:02:35Z</time></trkpt><trkpt lat="46.39394473035774" lon="12.661428603187849"><ele>790.0</ele><time>2026-04-06T14:02:36Z</time></trkpt><trkpt lat="46.39385471663744" lon="12.661649480188073"><ele>791.0</ele><time>2026-04-06T14:02:37Z</time></trkpt><trkpt lat="46.39375274233326" lon="12.66186232483328"><ele>792.0</ele><time>2026-04-06T14:02:38Z</time></trkpt><trkpt lat="46.393648530021295" lon="12.662074943822255"><ele>785.3333333333333</ele><time>2026-04-06T14:02:39Z</time></trkpt><trkpt lat="46.393559037116106" lon="12.662269903665626"><ele>778.6666666666666</ele><time>2026-04-06T14:02:40Z</time></trkpt><trkpt lat="46.3934850944367" lon="12.662456268142725"><ele>772.0</ele><time>2026-04-06T14:02:41Z</time></trkpt><trkpt lat="46.3934283728354" lon="12.662661007100736"><ele>772.6666666666666</ele><time>2026-04-06T14:02:42Z</time></trkpt><trkpt lat="46.39339449057074" lon="12.66287721691964"><ele>773.3333333333333</ele><time>2026-04-06T14:02:43Z</time></trkpt><trkpt lat="46.393377506795204" lon="12.663095024052001"><ele>774.0</ele><time>2026-04-06T14:02:44Z</time></trkpt><trkpt lat="46.39337911909606" lon="12.663320626803538"><ele>774.0</ele><time>2026-04-06T14:02:45Z</time></trkpt><trkpt lat="46.39339000646167" lon="12.663567647952915"><ele>774.0</ele><time>2026-04-06T14:02:46Z</time></trkpt><trkpt lat="46.393392249462664" lon="12.663817927915076"><ele>774.0</ele><time>2026-04-06T14:02:47Z</time></trkpt><trkpt lat="46.39338646539892" lon="12.66407650853521"><ele>774.0</ele><time>2026-04-06T14:02:48Z</time></trkpt><trkpt lat="46.393370782443235" lon="12.664346612994377"><ele>774.0</ele><time>2026-04-06T14:02:49Z</time></trkpt><trkpt lat="46.393336244605294" lon="12.664614039608388"><ele>774.0</ele><time>2026-04-06T14:02:50Z</time></trkpt><trkpt lat="46.39329408971989" lon="12.664878162201392"><ele>774.3333333333333</ele><time>2026-04-06T14:02:51Z</time></trkpt><trkpt lat="46.39325978763399" lon="12.66512450259143"><ele>774.6666666666666</ele><time>2026-04-06T14:02:52Z</time></trkpt><trkpt lat="46.393235312274285" lon="12.665355662822389"><ele>775.0</ele><time>2026-04-06T14:02:53Z</time></trkpt><trkpt lat="46.39321929108383" lon="12.665596035034321"><ele>775.6666666666666</ele><time>2026-04-06T14:02:54Z</time></trkpt><trkpt lat="46.39320896168265" lon="12.665829964005752"><ele>776.3333333333333</ele><time>2026-04-06T14:02:55Z</time></trkpt><trkpt lat="46.39319742531166" lon="12.6660418210603"><ele>777.0</ele><time>2026-04-06T14:02:56Z</time></trkpt><trkpt lat="46.39318299677072" lon="12.66625232063268"><ele>776.0</ele><time>2026-04-06T14:02:57Z</time></trkpt><trkpt lat="46.393167020036934" lon="12.66645410236866"><ele>775.0</ele><time>2026-04-06T14:02:58Z</time></trkpt><trkpt lat="46.3931527433242" lon="12.666637375045184"><ele>774.0</ele><time>2026-04-06T14:02:59Z</time></trkpt><trkpt lat="46.39315183760028" lon="12.666810164804328"><ele>773.0</ele><time>2026-04-06T14:03:00Z</time></trkpt><trkpt lat="46.39317426256941" lon="12.666980450731842"><ele>771.75</ele><time>2026-04-06T14:03:01Z</time></trkpt><trkpt lat="46.39321736279595" lon="12.66713717977922"><ele>770.5</ele><time>2026-04-06T14:03:02Z</time></trkpt><trkpt lat="46.39327561942478" lon="12.667283534609908"><ele>769.25</ele><time>2026-04-06T14:03:03Z</time></trkpt><trkpt lat="46.393355161699716" lon="12.667416225033245"><ele>768.0</ele><time>2026-04-06T14:03:03.999Z</time></trkpt><trkpt lat="46.39345449978423" lon="12.667534289462923"><ele>768.0</ele><time>2026-04-06T14:03:04.999Z</time></trkpt><trkpt lat="46.39355704385488" lon="12.667650955609929"><ele>768.0</ele><time>2026-04-06T14:03:05.999Z</time></trkpt><trkpt lat="46.393641806188555" lon="12.667804468286649"><ele>768.0</ele><time>2026-04-06T14:03:06.999Z</time></trkpt><trkpt lat="46.39371542341541" lon="12.667984618462976"><ele>768.0</ele><time>2026-04-06T14:03:07.999Z</time></trkpt><trkpt lat="46.39378392198535" lon="12.668162310910407"><ele>767.75</ele><time>2026-04-06T14:03:08.999Z</time></trkpt><trkpt lat="46.39383114008147" lon="12.66835090060001"><ele>767.5</ele><time>2026-04-06T14:03:09.999Z</time></trkpt><trkpt lat="46.39385200212442" lon="12.66855333043396"><ele>767.25</ele><time>2026-04-06T14:03:10.999Z</time></trkpt><trkpt lat="46.39386302383083" lon="12.668761543398935"><ele>767.0</ele><time>2026-04-06T14:03:11.999Z</time></trkpt><trkpt lat="46.39388510581085" lon="12.668981696421044"><ele>769.6666666666666</ele><time>2026-04-06T14:03:12.999Z</time></trkpt><trkpt lat="46.393904041138555" lon="12.6692081796722"><ele>772.3333333333333</ele><time>2026-04-06T14:03:13.999Z</time></trkpt><trkpt lat="46.39392001763294" lon="12.669430597807628"><ele>775.0</ele><time>2026-04-06T14:03:14.999Z</time></trkpt><trkpt lat="46.393937723863864" lon="12.669656196179762"><ele>775.0</ele><time>2026-04-06T14:03:15.999Z</time></trkpt><trkpt lat="46.39395770489917" lon="12.669886358226714"><ele>775.0</ele><time>2026-04-06T14:03:16.999Z</time></trkpt><trkpt lat="46.39397692942291" lon="12.670115733520324"><ele>775.0</ele><time>2026-04-06T14:03:17.999Z</time></trkpt><trkpt lat="46.39399274446084" lon="12.670349323258389"><ele>775.0</ele><time>2026-04-06T14:03:18.999Z</time></trkpt><trkpt lat="46.394011255926024" lon="12.670587780160824"><ele>775.0</ele><time>2026-04-06T14:03:19.999Z</time></trkpt><trkpt lat="46.394032186809234" lon="12.67082958570206"><ele>775.0</ele><time>2026-04-06T14:03:20.999Z</time></trkpt><trkpt lat="46.39405155237646" lon="12.671073900740916"><ele>775.6666666666666</ele><time>2026-04-06T14:03:21.999Z</time></trkpt><trkpt lat="46.39406862003793" lon="12.671315054221415"><ele>776.3333333333333</ele><time>2026-04-06T14:03:22.999Z</time></trkpt><trkpt lat="46.39408807751552" lon="12.671552061233932"><ele>777.0</ele><time>2026-04-06T14:03:23.999Z</time></trkpt><trkpt lat="46.39410619641907" lon="12.671787137733933"><ele>777.3333333333333</ele><time>2026-04-06T14:03:24.999Z</time></trkpt><trkpt lat="46.39412220954096" lon="12.672022867099958"><ele>777.6666666666666</ele><time>2026-04-06T14:03:25.999Z</time></trkpt><trkpt lat="46.3941411736511" lon="12.672263606056529"><ele>778.0</ele><time>2026-04-06T14:03:26.999Z</time></trkpt><trkpt lat="46.39415914454259" lon="12.67250324220783"><ele>778.0</ele><time>2026-04-06T14:03:27.999Z</time></trkpt><trkpt lat="46.394174449295235" lon="12.672740716146064"><ele>778.0</ele><time>2026-04-06T14:03:28.999Z</time></trkpt><trkpt lat="46.39419194754089" lon="12.672973665575418"><ele>778.0</ele><time>2026-04-06T14:03:29.999Z</time></trkpt><trkpt lat="46.394208901077235" lon="12.673202011021248"><ele>778.0</ele><time>2026-04-06T14:03:30.999Z</time></trkpt><trkpt lat="46.394227390154775" lon="12.673432423666586"><ele>778.0</ele><time>2026-04-06T14:03:31.999Z</time></trkpt><trkpt lat="46.39425228839691" lon="12.673664359716037"><ele>778.0</ele><time>2026-04-06T14:03:32.999Z</time></trkpt><trkpt lat="46.39427750042585" lon="12.673890306952279"><ele>778.0</ele><time>2026-04-06T14:03:33.999Z</time></trkpt><trkpt lat="46.39430185560209" lon="12.674113734982686"><ele>778.0</ele><time>2026-04-06T14:03:34.999Z</time></trkpt><trkpt lat="46.39433192027891" lon="12.674329811686171"><ele>778.0</ele><time>2026-04-06T14:03:35.999Z</time></trkpt><trkpt lat="46.394351994009114" lon="12.67454094821832"><ele>777.6666666666666</ele><time>2026-04-06T14:03:36.999Z</time></trkpt><trkpt lat="46.39438045229868" lon="12.674746865202701"><ele>777.3333333333333</ele><time>2026-04-06T14:03:37.999Z</time></trkpt><trkpt lat="46.39442216030594" lon="12.674954638436365"><ele>777.0</ele><time>2026-04-06T14:03:38.999Z</time></trkpt><trkpt lat="46.394474974930986" lon="12.675167533869091"><ele>775.3333333333333</ele><time>2026-04-06T14:03:39.999Z</time></trkpt><trkpt lat="46.394529565160475" lon="12.675384336349845"><ele>773.6666666666666</ele><time>2026-04-06T14:03:40.999Z</time></trkpt><trkpt lat="46.39458355012618" lon="12.675613878951852"><ele>772.0</ele><time>2026-04-06T14:03:41.999Z</time></trkpt><trkpt lat="46.39464213627701" lon="12.675846792357163"><ele>772.6666666666666</ele><time>2026-04-06T14:03:42.999Z</time></trkpt><trkpt lat="46.39469687667887" lon="12.676079985564327"><ele>773.3333333333333</ele><time>2026-04-06T14:03:43.999Z</time></trkpt><trkpt lat="46.394749830617414" lon="12.676306736356024"><ele>774.0</ele><time>2026-04-06T14:03:44.999Z</time></trkpt><trkpt lat="46.39480532343084" lon="12.676533581471379"><ele>774.0</ele><time>2026-04-06T14:03:45.999Z</time></trkpt><trkpt lat="46.39486207221153" lon="12.676767129715444"><ele>774.0</ele><time>2026-04-06T14:03:46.999Z</time></trkpt><trkpt lat="46.394920366133015" lon="12.677008676026858"><ele>774.0</ele><time>2026-04-06T14:03:47.999Z</time></trkpt><trkpt lat="46.394979076090145" lon="12.67725692499876"><ele>772.6666666666667</ele><time>2026-04-06T14:03:48.999Z</time></trkpt><trkpt lat="46.39504128522655" lon="12.677508290936265"><ele>771.3333333333334</ele><time>2026-04-06T14:03:49.999Z</time></trkpt><trkpt lat="46.3951034373886" lon="12.677756800303893"><ele>770.0</ele><time>2026-04-06T14:03:50.999Z</time></trkpt><trkpt lat="46.39515948573569" lon="12.677989395580253"><ele>769.0</ele><time>2026-04-06T14:03:51.999Z</time></trkpt><trkpt lat="46.39521086190791" lon="12.67820770610322"><ele>768.0</ele><time>2026-04-06T14:03:52.999Z</time></trkpt><trkpt lat="46.3952591321083" lon="12.678407380673649"><ele>767.0</ele><time>2026-04-06T14:03:53.999Z</time></trkpt><trkpt lat="46.39530197917269" lon="12.678575815688385"><ele>766.0</ele><time>2026-04-06T14:03:54.999Z</time></trkpt><trkpt lat="46.39534099690349" lon="12.678710206895568"><ele>764.8333333333334</ele><time>2026-04-06T14:03:55.999Z</time></trkpt><trkpt lat="46.395392274804315" lon="12.678828310408852"><ele>763.6666666666667</ele><time>2026-04-06T14:03:56.999Z</time></trkpt><trkpt lat="46.39546577971594" lon="12.678887563058021"><ele>762.5</ele><time>2026-04-06T14:03:57.999Z</time></trkpt><trkpt lat="46.3955443556094" lon="12.67890513200941"><ele>761.3333333333334</ele><time>2026-04-06T14:03:58.999Z</time></trkpt><trkpt lat="46.395617297146686" lon="12.67890010136042"><ele>760.1666666666666</ele><time>2026-04-06T14:03:59.999Z</time></trkpt><trkpt lat="46.39567746014643" lon="12.678796860258382"><ele>759.0</ele><time>2026-04-06T14:04:00.999Z</time></trkpt><trkpt lat="46.395734048815214" lon="12.67869401852477"><ele>761.75</ele><time>2026-04-06T14:04:01.999Z</time></trkpt><trkpt lat="46.39579708199044" lon="12.67857737877695"><ele>764.5</ele><time>2026-04-06T14:04:02.999Z</time></trkpt><trkpt lat="46.39587537321909" lon="12.678440547524076"><ele>767.25</ele><time>2026-04-06T14:04:03.999Z</time></trkpt><trkpt lat="46.39596116857267" lon="12.67828412720993"><ele>770.0</ele><time>2026-04-06T14:04:04.999Z</time></trkpt><trkpt lat="46.3960462284932" lon="12.678130480519238"><ele>770.0</ele><time>2026-04-06T14:04:05.999Z</time></trkpt><trkpt lat="46.396122173834016" lon="12.677993468858155"><ele>770.0</ele><time>2026-04-06T14:04:06.999Z</time></trkpt><trkpt lat="46.39619266808555" lon="12.67787126841471"><ele>770.0</ele><time>2026-04-06T14:04:07.999Z</time></trkpt><trkpt lat="46.396275070703176" lon="12.677782279225246"><ele>770.0</ele><time>2026-04-06T14:04:08.999Z</time></trkpt><trkpt lat="46.396381114922725" lon="12.67773966996648"><ele>770.0</ele><time>2026-04-06T14:04:09.999Z</time></trkpt><trkpt lat="46.39648994065898" lon="12.677750653229502"><ele>766.6</ele><time>2026-04-06T14:04:10.999Z</time></trkpt><trkpt lat="46.39659483381469" lon="12.677791802507791"><ele>763.2</ele><time>2026-04-06T14:04:11.999Z</time></trkpt><trkpt lat="46.39669608584982" lon="12.677835732205605"><ele>759.8</ele><time>2026-04-06T14:04:12.999Z</time></trkpt><trkpt lat="46.396801271243916" lon="12.677870047019335"><ele>756.4</ele><time>2026-04-06T14:04:13.999Z</time></trkpt><trkpt lat="46.39690932564941" lon="12.677904596728466"><ele>753.0</ele><time>2026-04-06T14:04:14.999Z</time></trkpt><trkpt lat="46.39700814674797" lon="12.677949059103318"><ele>753.0</ele><time>2026-04-06T14:04:15.999Z</time></trkpt><trkpt lat="46.39709499590638" lon="12.678016907493294"><ele>753.0</ele><time>2026-04-06T14:04:16.999Z</time></trkpt><trkpt lat="46.39716499189064" lon="12.678127376886316"><ele>753.0</ele><time>2026-04-06T14:04:17.999Z</time></trkpt><trkpt lat="46.39720865381204" lon="12.678289064282549"><ele>753.0</ele><time>2026-04-06T14:04:18.999Z</time></trkpt><trkpt lat="46.39722445571659" lon="12.678472267230616"><ele>753.0</ele><time>2026-04-06T14:04:19.999Z</time></trkpt><trkpt lat="46.39722146615608" lon="12.678673609010264"><ele>756.6666666666666</ele><time>2026-04-06T14:04:20.999Z</time></trkpt><trkpt lat="46.397223858527305" lon="12.678889704252908"><ele>760.3333333333333</ele><time>2026-04-06T14:04:21.999Z</time></trkpt><trkpt lat="46.39723150547934" lon="12.679124382784776"><ele>764.0</ele><time>2026-04-06T14:04:22.999Z</time></trkpt><trkpt lat="46.39723931194428" lon="12.679371969316032"><ele>764.6666666666666</ele><time>2026-04-06T14:04:23.999Z</time></trkpt><trkpt lat="46.39724875167577" lon="12.679613936172212"><ele>765.3333333333334</ele><time>2026-04-06T14:04:24.999Z</time></trkpt><trkpt lat="46.397257885373484" lon="12.679853256911068"><ele>766.0</ele><time>2026-04-06T14:04:25.999Z</time></trkpt><trkpt lat="46.397257704244076" lon="12.680099379016234"><ele>766.6666666666667</ele><time>2026-04-06T14:04:27Z</time></trkpt><trkpt lat="46.39724207635481" lon="12.680359689748789"><ele>767.3333333333334</ele><time>2026-04-06T14:04:28Z</time></trkpt><trkpt lat="46.39720472974854" lon="12.680636010045848"><ele>768.0</ele><time>2026-04-06T14:04:29Z</time></trkpt><trkpt lat="46.397159889092165" lon="12.680930483696665"><ele>757.6666666666666</ele><time>2026-04-06T14:04:30Z</time></trkpt><trkpt lat="46.39712232930895" lon="12.681209174664096"><ele>747.3333333333333</ele><time>2026-04-06T14:04:31Z</time></trkpt><trkpt lat="46.39708559455832" lon="12.68147797917048"><ele>737.0</ele><time>2026-04-06T14:04:32Z</time></trkpt><trkpt lat="46.39705007710336" lon="12.681750664041777"><ele>735.3333333333333</ele><time>2026-04-06T14:04:33Z</time></trkpt><trkpt lat="46.397024821016245" lon="12.682019285715514"><ele>733.6666666666666</ele><time>2026-04-06T14:04:34Z</time></trkpt><trkpt lat="46.397013084830235" lon="12.68227622954607"><ele>732.0</ele><time>2026-04-06T14:04:35Z</time></trkpt><trkpt lat="46.397009977280774" lon="12.682529450612924"><ele>732.0</ele><time>2026-04-06T14:04:36Z</time></trkpt><trkpt lat="46.39701681981655" lon="12.682775061904797"><ele>732.0</ele><time>2026-04-06T14:04:37Z</time></trkpt><trkpt lat="46.397035667231485" lon="12.683022856321886"><ele>732.0</ele><time>2026-04-06T14:04:38Z</time></trkpt><trkpt lat="46.39707531309477" lon="12.683275489864679"><ele>732.0</ele><time>2026-04-06T14:04:39Z</time></trkpt><trkpt lat="46.397132707910835" lon="12.683526441977506"><ele>732.0</ele><time>2026-04-06T14:04:40Z</time></trkpt><trkpt lat="46.397197115470554" lon="12.68377354296081"><ele>732.0</ele><time>2026-04-06T14:04:41Z</time></trkpt><trkpt lat="46.3972622214625" lon="12.684025568159905"><ele>735.6666666666666</ele><time>2026-04-06T14:04:42Z</time></trkpt><trkpt lat="46.39733112304605" lon="12.68427934655148"><ele>739.3333333333333</ele><time>2026-04-06T14:04:43Z</time></trkpt><trkpt lat="46.397393592001656" lon="12.684537215538288"><ele>743.0</ele><time>2026-04-06T14:04:44Z</time></trkpt><trkpt lat="46.39743865264225" lon="12.684805726522843"><ele>743.0</ele><time>2026-04-06T14:04:45Z</time></trkpt><trkpt lat="46.39745418425483" lon="12.685081847440623"><ele>743.0</ele><time>2026-04-06T14:04:46Z</time></trkpt><trkpt lat="46.397449705088675" lon="12.68536037638952"><ele>743.0</ele><time>2026-04-06T14:04:47Z</time></trkpt><trkpt lat="46.39744474751657" lon="12.685611281692259"><ele>741.6666666666666</ele><time>2026-04-06T14:04:48Z</time></trkpt><trkpt lat="46.39745001994974" lon="12.685847360892865"><ele>740.3333333333334</ele><time>2026-04-06T14:04:49Z</time></trkpt><trkpt lat="46.3974661211757" lon="12.686082731956725"><ele>739.0</ele><time>2026-04-06T14:04:50Z</time></trkpt><trkpt lat="46.39749464491964" lon="12.686315543277622"><ele>738.6666666666667</ele><time>2026-04-06T14:04:51Z</time></trkpt><trkpt lat="46.39753742181808" lon="12.686540089605638"><ele>738.3333333333334</ele><time>2026-04-06T14:04:52Z</time></trkpt><trkpt lat="46.39759819231392" lon="12.686758527206772"><ele>738.0</ele><time>2026-04-06T14:04:53Z</time></trkpt><trkpt lat="46.39766838574312" lon="12.686969017138157"><ele>736.0</ele><time>2026-04-06T14:04:54Z</time></trkpt><trkpt lat="46.397752028642635" lon="12.687170619137689"><ele>734.0</ele><time>2026-04-06T14:04:55Z</time></trkpt><trkpt lat="46.39784506590035" lon="12.687368300297864"><ele>732.0</ele><time>2026-04-06T14:04:56Z</time></trkpt><trkpt lat="46.39793563374597" lon="12.687561188160181"><ele>739.6666666666666</ele><time>2026-04-06T14:04:57Z</time></trkpt><trkpt lat="46.39802294827422" lon="12.687752341736653"><ele>747.3333333333333</ele><time>2026-04-06T14:04:58Z</time></trkpt><trkpt lat="46.39810955337113" lon="12.687943812196327"><ele>755.0</ele><time>2026-04-06T14:04:59Z</time></trkpt><trkpt lat="46.39820032435295" lon="12.688138887223078"><ele>755.0</ele><time>2026-04-06T14:05:00Z</time></trkpt><trkpt lat="46.39829055361744" lon="12.688332721187374"><ele>755.0</ele><time>2026-04-06T14:05:01Z</time></trkpt><trkpt lat="46.39838640119412" lon="12.688537953134437"><ele>755.0</ele><time>2026-04-06T14:05:01.999Z</time></trkpt><trkpt lat="46.398484771316625" lon="12.68875290398691"><ele>754.6666666666666</ele><time>2026-04-06T14:05:02.999Z</time></trkpt><trkpt lat="46.39859862479223" lon="12.688999905778513"><ele>754.3333333333334</ele><time>2026-04-06T14:05:04.083Z</time></trkpt><trkpt lat="46.398707891191044" lon="12.689232896922096"><ele>754.0</ele><time>2026-04-06T14:05:05.061Z</time></trkpt><trkpt lat="46.398822851671895" lon="12.689478531486563"><ele>763.5</ele><time>2026-04-06T14:05:06.058Z</time></trkpt><trkpt lat="46.39893969461231" lon="12.689727050056117"><ele>773.0</ele><time>2026-04-06T14:05:07.059Z</time></trkpt><trkpt lat="46.3999881" lon="12.6925394"><ele>745.0</ele><time>2026-04-06T14:05:11.566Z</time></trkpt><trkpt lat="46.39661620105929" lon="12.714892251251674"><ele>745.0</ele><time>2026-04-06T14:06:24.999Z</time></trkpt><trkpt lat="46.396474294537626" lon="12.715109178153991"><ele>745.0</ele><time>2026-04-06T14:06:25.999Z</time></trkpt><trkpt lat="46.39638644082083" lon="12.715354861189638"><ele>745.0</ele><time>2026-04-06T14:06:26.999Z</time></trkpt><trkpt lat="46.39626879823179" lon="12.71551465037614"><ele>744.6666666666667</ele><time>2026-04-06T14:06:27.999Z</time></trkpt><trkpt lat="46.39613087251764" lon="12.715682019970654"><ele>744.3333333333334</ele><time>2026-04-06T14:06:28.999Z</time></trkpt><trkpt lat="46.395991050352734" lon="12.715859999718413"><ele>744.0</ele><time>2026-04-06T14:06:29.999Z</time></trkpt><trkpt lat="46.39588469834829" lon="12.716042695390273"><ele>748.6666666666666</ele><time>2026-04-06T14:06:30.999Z</time></trkpt><trkpt lat="46.39580350704492" lon="12.716234985830356"><ele>753.3333333333333</ele><time>2026-04-06T14:06:31.999Z</time></trkpt><trkpt lat="46.395751608153375" lon="12.716441897598807"><ele>758.0</ele><time>2026-04-06T14:06:33Z</time></trkpt><trkpt lat="46.39572031051976" lon="12.716643177634793"><ele>758.0</ele><time>2026-04-06T14:06:34Z</time></trkpt><trkpt lat="46.395701828636525" lon="12.716846136945867"><ele>758.0</ele><time>2026-04-06T14:06:35Z</time></trkpt><trkpt lat="46.39568319021823" lon="12.717052647531268"><ele>758.0</ele><time>2026-04-06T14:06:36Z</time></trkpt><trkpt lat="46.39565767665665" lon="12.71725793814221"><ele>758.0</ele><time>2026-04-06T14:06:37Z</time></trkpt><trkpt lat="46.3956378855819" lon="12.717474073000966"><ele>760.6666666666666</ele><time>2026-04-06T14:06:38Z</time></trkpt><trkpt lat="46.39563731320046" lon="12.71770164614944"><ele>763.3333333333334</ele><time>2026-04-06T14:06:39Z</time></trkpt><trkpt lat="46.39564553679324" lon="12.717944670860707"><ele>766.0</ele><time>2026-04-06T14:06:40Z</time></trkpt><trkpt lat="46.3956550945598" lon="12.718221658787805"><ele>767.3333333333334</ele><time>2026-04-06T14:06:41Z</time></trkpt><trkpt lat="46.39565534325114" lon="12.718473961779964"><ele>768.6666666666667</ele><time>2026-04-06T14:06:42Z</time></trkpt><trkpt lat="46.39566147677938" lon="12.718684939806362"><ele>770.0</ele><time>2026-04-06T14:06:43Z</time></trkpt><trkpt lat="46.39567866519217" lon="12.718881324812655"><ele>770.0</ele><time>2026-04-06T14:06:44Z</time></trkpt><trkpt lat="46.395716549928444" lon="12.719061903162089"><ele>770.0</ele><time>2026-04-06T14:06:45Z</time></trkpt><trkpt lat="46.395776031988866" lon="12.719223504341683"><ele>770.0</ele><time>2026-04-06T14:06:46Z</time></trkpt><trkpt lat="46.39585279250963" lon="12.719366619316363"><ele>770.0</ele><time>2026-04-06T14:06:47Z</time></trkpt><trkpt lat="46.39594516773234" lon="12.719483057175061"><ele>766.75</ele><time>2026-04-06T14:06:48Z</time></trkpt><trkpt lat="46.39604386632319" lon="12.71957397201561"><ele>763.5</ele><time>2026-04-06T14:06:49Z</time></trkpt><trkpt lat="46.39614468092511" lon="12.719650332191538"><ele>760.25</ele><time>2026-04-06T14:06:50Z</time></trkpt><trkpt lat="46.396244054760864" lon="12.719734253286854"><ele>757.0</ele><time>2026-04-06T14:06:51Z</time></trkpt><trkpt lat="46.39633317475974" lon="12.71983775482948"><ele>765.25</ele><time>2026-04-06T14:06:52Z</time></trkpt><trkpt lat="46.39640493607679" lon="12.719967234873412"><ele>773.5</ele><time>2026-04-06T14:06:53Z</time></trkpt><trkpt lat="46.396449117032745" lon="12.720121338824594"><ele>781.75</ele><time>2026-04-06T14:06:54Z</time></trkpt><trkpt lat="46.39646144463164" lon="12.720298805592765"><ele>790.0</ele><time>2026-04-06T14:06:55Z</time></trkpt><trkpt lat="46.39645105351836" lon="12.720486179432775"><ele>790.0</ele><time>2026-04-06T14:06:56Z</time></trkpt><trkpt lat="46.39644162813522" lon="12.720677860125331"><ele>790.0</ele><time>2026-04-06T14:06:57Z</time></trkpt><trkpt lat="46.39644778261042" lon="12.72087711530775"><ele>790.0</ele><time>2026-04-06T14:06:58Z</time></trkpt><trkpt lat="46.396464775368315" lon="12.721084646197568"><ele>790.0</ele><time>2026-04-06T14:06:59Z</time></trkpt><trkpt lat="46.39648581433611" lon="12.721297387736708"><ele>792.0</ele><time>2026-04-06T14:07:00Z</time></trkpt><trkpt lat="46.39648829929304" lon="12.721497612260052"><ele>794.0</ele><time>2026-04-06T14:07:00.999Z</time></trkpt><trkpt lat="46.39645895498596" lon="12.721689597136605"><ele>796.0</ele><time>2026-04-06T14:07:01.999Z</time></trkpt><trkpt lat="46.39638779069241" lon="12.72184857088798"><ele>798.0</ele><time>2026-04-06T14:07:02.999Z</time></trkpt><trkpt lat="46.39630676608999" lon="12.721975919927699"><ele>792.5999999999999</ele><time>2026-04-06T14:07:03.999Z</time></trkpt><trkpt lat="46.39623302555701" lon="12.722092981011906"><ele>787.1999999999999</ele><time>2026-04-06T14:07:04.999Z</time></trkpt><trkpt lat="46.39618962958877" lon="12.722217656472232"><ele>781.8</ele><time>2026-04-06T14:07:05.999Z</time></trkpt><trkpt lat="46.396174130431255" lon="12.722343388889762"><ele>776.4</ele><time>2026-04-06T14:07:06.999Z</time></trkpt><trkpt lat="46.3961794363807" lon="12.7224856412466"><ele>771.0</ele><time>2026-04-06T14:07:07.999Z</time></trkpt><trkpt lat="46.39620189554566" lon="12.72263588606657"><ele>772.75</ele><time>2026-04-06T14:07:08.999Z</time></trkpt><trkpt lat="46.39623365311135" lon="12.722804741408725"><ele>774.5</ele><time>2026-04-06T14:07:09.999Z</time></trkpt><trkpt lat="46.39626696307825" lon="12.722995298511854"><ele>776.25</ele><time>2026-04-06T14:07:10.999Z</time></trkpt><trkpt lat="46.39629890987008" lon="12.723195889464547"><ele>778.0</ele><time>2026-04-06T14:07:11.999Z</time></trkpt><trkpt lat="46.39631576058915" lon="12.723422443044242"><ele>780.6666666666666</ele><time>2026-04-06T14:07:12.999Z</time></trkpt><trkpt lat="46.396310419615084" lon="12.723671400331115"><ele>783.3333333333333</ele><time>2026-04-06T14:07:13.999Z</time></trkpt><trkpt lat="46.39628687054657" lon="12.72393619547647"><ele>786.0</ele><time>2026-04-06T14:07:14.999Z</time></trkpt><trkpt lat="46.39626579661287" lon="12.724184986444241"><ele>786.5</ele><time>2026-04-06T14:07:15.999Z</time></trkpt><trkpt lat="46.39626480363733" lon="12.724406755075774"><ele>787.0</ele><time>2026-04-06T14:07:16.999Z</time></trkpt><trkpt lat="46.396292691081875" lon="12.724612149641398"><ele>787.5</ele><time>2026-04-06T14:07:17.999Z</time></trkpt><trkpt lat="46.396344559932786" lon="12.72479031160499"><ele>788.0</ele><time>2026-04-06T14:07:18.999Z</time></trkpt><trkpt lat="46.396410516014676" lon="12.72495082300963"><ele>793.75</ele><time>2026-04-06T14:07:19.999Z</time></trkpt><trkpt lat="46.39645707792829" lon="12.72512541462421"><ele>799.5</ele><time>2026-04-06T14:07:20.999Z</time></trkpt><trkpt lat="46.39647098332797" lon="12.725320224467538"><ele>805.25</ele><time>2026-04-06T14:07:21.999Z</time></trkpt><trkpt lat="46.39645742083158" lon="12.725512309200733"><ele>811.0</ele><time>2026-04-06T14:07:22.999Z</time></trkpt><trkpt lat="46.39641684082348" lon="12.725678279342038"><ele>811.0</ele><time>2026-04-06T14:07:23.999Z</time></trkpt><trkpt lat="46.3963904607249" lon="12.72583113028476"><ele>811.0</ele><time>2026-04-06T14:07:24.999Z</time></trkpt><trkpt lat="46.39639075731888" lon="12.725971943487433"><ele>811.0</ele><time>2026-04-06T14:07:25.999Z</time></trkpt><trkpt lat="46.39641152429939" lon="12.726117687512842"><ele>811.0</ele><time>2026-04-06T14:07:26.999Z</time></trkpt><trkpt lat="46.39645834401398" lon="12.726262074152261"><ele>811.0</ele><time>2026-04-06T14:07:27.999Z</time></trkpt><trkpt lat="46.39652362914847" lon="12.726382022257905"><ele>811.25</ele><time>2026-04-06T14:07:28.999Z</time></trkpt><trkpt lat="46.396603191529714" lon="12.72648031160858"><ele>811.5</ele><time>2026-04-06T14:07:29.999Z</time></trkpt><trkpt lat="46.3966920672527" lon="12.726571693811339"><ele>811.75</ele><time>2026-04-06T14:07:30.999Z</time></trkpt><trkpt lat="46.396787574067936" lon="12.726670820580473"><ele>812.0</ele><time>2026-04-06T14:07:31.999Z</time></trkpt><trkpt lat="46.396874412903365" lon="12.726791569226028"><ele>812.0</ele><time>2026-04-06T14:07:32.999Z</time></trkpt><trkpt lat="46.39695697013539" lon="12.726932045968095"><ele>812.0</ele><time>2026-04-06T14:07:33.999Z</time></trkpt><trkpt lat="46.39703166756829" lon="12.727089145068533"><ele>812.0</ele><time>2026-04-06T14:07:34.999Z</time></trkpt><trkpt lat="46.39708930163359" lon="12.727261357052607"><ele>812.0</ele><time>2026-04-06T14:07:35.999Z</time></trkpt><trkpt lat="46.397115935549486" lon="12.727445688284657"><ele>812.0</ele><time>2026-04-06T14:07:36.999Z</time></trkpt><trkpt lat="46.397112059525945" lon="12.727634605229051"><ele>812.0</ele><time>2026-04-06T14:07:37.999Z</time></trkpt><trkpt lat="46.39706501020463" lon="12.727817818539343"><ele>812.0</ele><time>2026-04-06T14:07:38.999Z</time></trkpt><trkpt lat="46.39699072889997" lon="12.727980855216932"><ele>812.0</ele><time>2026-04-06T14:07:39.999Z</time></trkpt><trkpt lat="46.39690055945485" lon="12.728129102716943"><ele>814.0</ele><time>2026-04-06T14:07:40.999Z</time></trkpt><trkpt lat="46.396813380517216" lon="12.728287278167906"><ele>816.0</ele><time>2026-04-06T14:07:41.999Z</time></trkpt><trkpt lat="46.39672410447395" lon="12.728458634140445"><ele>818.0</ele><time>2026-04-06T14:07:42.999Z</time></trkpt><trkpt lat="46.39663092916149" lon="12.728624616095304"><ele>820.0</ele><time>2026-04-06T14:07:43.999Z</time></trkpt><trkpt lat="46.396547200744834" lon="12.728775708198224"><ele>822.8</ele><time>2026-04-06T14:07:44.999Z</time></trkpt><trkpt lat="46.39649573078211" lon="12.728924120388001"><ele>825.6</ele><time>2026-04-06T14:07:45.999Z</time></trkpt><trkpt lat="46.39647889936808" lon="12.729073734056751"><ele>828.4000000000001</ele><time>2026-04-06T14:07:46.999Z</time></trkpt><trkpt lat="46.39649246084508" lon="12.729230658473705"><ele>831.2</ele><time>2026-04-06T14:07:47.999Z</time></trkpt><trkpt lat="46.39652943715984" lon="12.72938711148836"><ele>834.0</ele><time>2026-04-06T14:07:48.999Z</time></trkpt><trkpt lat="46.39657697243236" lon="12.729544224099055"><ele>835.0</ele><time>2026-04-06T14:07:49.999Z</time></trkpt><trkpt lat="46.39659812461963" lon="12.72972190589286"><ele>836.0</ele><time>2026-04-06T14:07:50.999Z</time></trkpt><trkpt lat="46.396577468268845" lon="12.729894198386903"><ele>837.0</ele><time>2026-04-06T14:07:51.999Z</time></trkpt><trkpt lat="46.3965189189738" lon="12.730041714589852"><ele>838.0</ele><time>2026-04-06T14:07:52.999Z</time></trkpt><trkpt lat="46.396425239203616" lon="12.730149522985478"><ele>835.25</ele><time>2026-04-06T14:07:53.999Z</time></trkpt><trkpt lat="46.39632644667784" lon="12.730250840376035"><ele>832.5</ele><time>2026-04-06T14:07:54.999Z</time></trkpt><trkpt lat="46.39622198490328" lon="12.730362287052708"><ele>829.75</ele><time>2026-04-06T14:07:55.999Z</time></trkpt><trkpt lat="46.39611459272222" lon="12.730485753426711"><ele>827.0</ele><time>2026-04-06T14:07:56.999Z</time></trkpt><trkpt lat="46.396023989661415" lon="12.730631053909207"><ele>827.0</ele><time>2026-04-06T14:07:57.999Z</time></trkpt><trkpt lat="46.395958758850185" lon="12.730790845268722"><ele>827.0</ele><time>2026-04-06T14:07:58.999Z</time></trkpt><trkpt lat="46.39591828864369" lon="12.730960742899224"><ele>827.0</ele><time>2026-04-06T14:07:59.999Z</time></trkpt><trkpt lat="46.39589904086361" lon="12.731144279051199"><ele>827.0</ele><time>2026-04-06T14:08:00.999Z</time></trkpt><trkpt lat="46.39590178583818" lon="12.73132953728002"><ele>828.25</ele><time>2026-04-06T14:08:01.999Z</time></trkpt><trkpt lat="46.39592700793015" lon="12.731506465004992"><ele>829.5</ele><time>2026-04-06T14:08:02.999Z</time></trkpt><trkpt lat="46.39598135157485" lon="12.731665354076826"><ele>830.75</ele><time>2026-04-06T14:08:03.999Z</time></trkpt><trkpt lat="46.39605810598042" lon="12.731806002169414"><ele>832.0</ele><time>2026-04-06T14:08:04.999Z</time></trkpt><trkpt lat="46.39615164391266" lon="12.731923638681234"><ele>832.75</ele><time>2026-04-06T14:08:05.999Z</time></trkpt><trkpt lat="46.39626277646458" lon="12.73201253826351"><ele>833.5</ele><time>2026-04-06T14:08:06.999Z</time></trkpt><trkpt lat="46.396387446841935" lon="12.732059701274206"><ele>834.25</ele><time>2026-04-06T14:08:07.999Z</time></trkpt><trkpt lat="46.39651568812998" lon="12.73210429169491"><ele>835.0</ele><time>2026-04-06T14:08:08.999Z</time></trkpt><trkpt lat="46.39664576324167" lon="12.732170864004965"><ele>835.0</ele><time>2026-04-06T14:08:09.999Z</time></trkpt><trkpt lat="46.396766256594894" lon="12.732280894271053"><ele>835.0</ele><time>2026-04-06T14:08:10.999Z</time></trkpt><trkpt lat="46.39687421241789" lon="12.732430231671357"><ele>835.0</ele><time>2026-04-06T14:08:11.999Z</time></trkpt><trkpt lat="46.3969668511264" lon="12.732606111725847"><ele>835.0</ele><time>2026-04-06T14:08:12.999Z</time></trkpt><trkpt lat="46.39704713359118" lon="12.732808848942463"><ele>838.0</ele><time>2026-04-06T14:08:13.999Z</time></trkpt><trkpt lat="46.39711905919229" lon="12.73299501485338"><ele>841.0</ele><time>2026-04-06T14:08:14.999Z</time></trkpt><trkpt lat="46.39719559331327" lon="12.733190871823021"><ele>844.0</ele><time>2026-04-06T14:08:15.999Z</time></trkpt><trkpt lat="46.39727245586873" lon="12.733391048634097"><ele>842.0</ele><time>2026-04-06T14:08:16.999Z</time></trkpt><trkpt lat="46.397330073647595" lon="12.733588977530198"><ele>840.0</ele><time>2026-04-06T14:08:17.999Z</time></trkpt><trkpt lat="46.39737248982494" lon="12.733822377149448"><ele>838.0</ele><time>2026-04-06T14:08:18.999Z</time></trkpt><trkpt lat="46.3974133942215" lon="12.7340764876187"><ele>838.0</ele><time>2026-04-06T14:08:19.999Z</time></trkpt><trkpt lat="46.39746439078521" lon="12.734339836453902"><ele>838.0</ele><time>2026-04-06T14:08:20.999Z</time></trkpt><trkpt lat="46.39750724789572" lon="12.73459384709254"><ele>838.0</ele><time>2026-04-06T14:08:21.999Z</time></trkpt><trkpt lat="46.39753524613677" lon="12.73484463955979"><ele>839.0</ele><time>2026-04-06T14:08:22.999Z</time></trkpt><trkpt lat="46.3975466993852" lon="12.735090038175928"><ele>840.0</ele><time>2026-04-06T14:08:23.999Z</time></trkpt><trkpt lat="46.39755281046267" lon="12.73531666236107"><ele>841.0</ele><time>2026-04-06T14:08:24.999Z</time></trkpt><trkpt lat="46.39755803469264" lon="12.73551706806594"><ele>842.25</ele><time>2026-04-06T14:08:25.999Z</time></trkpt><trkpt lat="46.397561881129924" lon="12.7356962772368"><ele>843.5</ele><time>2026-04-06T14:08:26.999Z</time></trkpt><trkpt lat="46.397551220587545" lon="12.735853327671888"><ele>844.75</ele><time>2026-04-06T14:08:27.999Z</time></trkpt><trkpt lat="46.39751806338416" lon="12.736001510868423"><ele>846.0</ele><time>2026-04-06T14:08:28.999Z</time></trkpt><trkpt lat="46.397457889731115" lon="12.736141150959966"><ele>847.75</ele><time>2026-04-06T14:08:29.999Z</time></trkpt><trkpt lat="46.397372507967255" lon="12.736256386492192"><ele>849.5</ele><time>2026-04-06T14:08:30.999Z</time></trkpt><trkpt lat="46.397267464443125" lon="12.736329056312638"><ele>851.25</ele><time>2026-04-06T14:08:31.999Z</time></trkpt><trkpt lat="46.39715159731968" lon="12.736367801001002"><ele>853.0</ele><time>2026-04-06T14:08:32.999Z</time></trkpt><trkpt lat="46.39702866739466" lon="12.736350571271922"><ele>853.0</ele><time>2026-04-06T14:08:33.999Z</time></trkpt><trkpt lat="46.396910967474845" lon="12.73629850383222"><ele>853.0</ele><time>2026-04-06T14:08:34.999Z</time></trkpt><trkpt lat="46.396795716279264" lon="12.736253207129272"><ele>853.0</ele><time>2026-04-06T14:08:35.999Z</time></trkpt><trkpt lat="46.39667494724039" lon="12.73624240275229"><ele>853.0</ele><time>2026-04-06T14:08:36.999Z</time></trkpt><trkpt lat="46.39655045617745" lon="12.736270126831695"><ele>853.0</ele><time>2026-04-06T14:08:37.999Z</time></trkpt><trkpt lat="46.39642954195125" lon="12.736327808549234"><ele>853.0</ele><time>2026-04-06T14:08:39Z</time></trkpt><trkpt lat="46.3963166891821" lon="12.736416564977725"><ele>853.0</ele><time>2026-04-06T14:08:40Z</time></trkpt><trkpt lat="46.396218859789776" lon="12.73653126832424"><ele>853.0</ele><time>2026-04-06T14:08:41Z</time></trkpt><trkpt lat="46.396140729706794" lon="12.7366646961742"><ele>852.25</ele><time>2026-04-06T14:08:42Z</time></trkpt><trkpt lat="46.39607595510365" lon="12.736820752246485"><ele>851.5</ele><time>2026-04-06T14:08:43Z</time></trkpt><trkpt lat="46.39601185803207" lon="12.736997167010642"><ele>850.75</ele><time>2026-04-06T14:08:44Z</time></trkpt><trkpt lat="46.39593267697235" lon="12.73716513557899"><ele>850.0</ele><time>2026-04-06T14:08:45Z</time></trkpt><trkpt lat="46.395829515611844" lon="12.737305276631865"><ele>850.0</ele><time>2026-04-06T14:08:46Z</time></trkpt><trkpt lat="46.395712930316904" lon="12.737414886993696"><ele>850.0</ele><time>2026-04-06T14:08:47Z</time></trkpt><trkpt lat="46.395581522903605" lon="12.737485570919775"><ele>850.0</ele><time>2026-04-06T14:08:48Z</time></trkpt><trkpt lat="46.395437453555964" lon="12.737530715035009"><ele>850.0</ele><time>2026-04-06T14:08:49Z</time></trkpt><trkpt lat="46.395313495564395" lon="12.73757097525881"><ele>850.4</ele><time>2026-04-06T14:08:50Z</time></trkpt><trkpt lat="46.39521205996003" lon="12.737625754270223"><ele>850.8</ele><time>2026-04-06T14:08:51Z</time></trkpt><trkpt lat="46.39512758454555" lon="12.737706110706458"><ele>851.2</ele><time>2026-04-06T14:08:52Z</time></trkpt><trkpt lat="46.395048828857405" lon="12.737823195676983"><ele>851.6</ele><time>2026-04-06T14:08:53Z</time></trkpt><trkpt lat="46.394982821424634" lon="12.737957281118378"><ele>852.0</ele><time>2026-04-06T14:08:54Z</time></trkpt><trkpt lat="46.3949367397644" lon="12.738110370313278"><ele>852.0</ele><time>2026-04-06T14:08:55Z</time></trkpt><trkpt lat="46.39491120588889" lon="12.738277929633728"><ele>852.0</ele><time>2026-04-06T14:08:56Z</time></trkpt><trkpt lat="46.394918429364324" lon="12.7384547483163"><ele>852.0</ele><time>2026-04-06T14:08:57Z</time></trkpt><trkpt lat="46.3949384462093" lon="12.738622421441946"><ele>852.0</ele><time>2026-04-06T14:08:58Z</time></trkpt><trkpt lat="46.39496819533769" lon="12.738794138055189"><ele>853.75</ele><time>2026-04-06T14:08:59Z</time></trkpt><trkpt lat="46.39499921267688" lon="12.738970530358923"><ele>855.5</ele><time>2026-04-06T14:09:00Z</time></trkpt><trkpt lat="46.395028915158576" lon="12.739153456410717"><ele>857.25</ele><time>2026-04-06T14:09:01Z</time></trkpt><trkpt lat="46.39505898490817" lon="12.7393388453496"><ele>859.0</ele><time>2026-04-06T14:09:02Z</time></trkpt><trkpt lat="46.39510226315217" lon="12.739527705286958"><ele>860.25</ele><time>2026-04-06T14:09:03Z</time></trkpt><trkpt lat="46.395161424815385" lon="12.739713931755505"><ele>861.5</ele><time>2026-04-06T14:09:03.999Z</time></trkpt><trkpt lat="46.39524096744102" lon="12.739895239710586"><ele>862.75</ele><time>2026-04-06T14:09:04.999Z</time></trkpt><trkpt lat="46.39534195208017" lon="12.74006360474734"><ele>864.0</ele><time>2026-04-06T14:09:05.999Z</time></trkpt><trkpt lat="46.39545677171622" lon="12.740220204577174"><ele>866.3333333333333</ele><time>2026-04-06T14:09:06.999Z</time></trkpt><trkpt lat="46.395580867691955" lon="12.740358144991172"><ele>868.6666666666666</ele><time>2026-04-06T14:09:07.999Z</time></trkpt><trkpt lat="46.39571534913819" lon="12.740496456307065"><ele>871.0</ele><time>2026-04-06T14:09:08.999Z</time></trkpt><trkpt lat="46.3958453993635" lon="12.740644655006601"><ele>871.0</ele><time>2026-04-06T14:09:09.999Z</time></trkpt><trkpt lat="46.39595593246224" lon="12.74080008200765"><ele>871.0</ele><time>2026-04-06T14:09:10.999Z</time></trkpt><trkpt lat="46.396050249332674" lon="12.740982212928406"><ele>871.0</ele><time>2026-04-06T14:09:11.999Z</time></trkpt><trkpt lat="46.39612631379098" lon="12.741201635231779"><ele>868.0</ele><time>2026-04-06T14:09:12.999Z</time></trkpt><trkpt lat="46.39618408045617" lon="12.741442863144812"><ele>865.0</ele><time>2026-04-06T14:09:13.999Z</time></trkpt><trkpt lat="46.39622489819978" lon="12.741697844403227"><ele>862.0</ele><time>2026-04-06T14:09:14.999Z</time></trkpt><trkpt lat="46.396263372170466" lon="12.741931197744917"><ele>860.5</ele><time>2026-04-06T14:09:15.999Z</time></trkpt><trkpt lat="46.39630374777475" lon="12.742141334432379"><ele>859.0</ele><time>2026-04-06T14:09:16.999Z</time></trkpt><trkpt lat="46.39635395216501" lon="12.742336840369452"><ele>857.5</ele><time>2026-04-06T14:09:17.999Z</time></trkpt><trkpt lat="46.396422238227316" lon="12.742535484267135"><ele>856.0</ele><time>2026-04-06T14:09:18.999Z</time></trkpt><trkpt lat="46.396518103027965" lon="12.742735763451838"><ele>860.0</ele><time>2026-04-06T14:09:19.999Z</time></trkpt><trkpt lat="46.39662759706565" lon="12.742941120215063"><ele>864.0</ele><time>2026-04-06T14:09:20.999Z</time></trkpt><trkpt lat="46.39673891605845" lon="12.743139123739946"><ele>868.0</ele><time>2026-04-06T14:09:21.999Z</time></trkpt><trkpt lat="46.39684151132289" lon="12.743334051966855"><ele>868.0</ele><time>2026-04-06T14:09:22.999Z</time></trkpt><trkpt lat="46.396931249395045" lon="12.74353613038098"><ele>868.0</ele><time>2026-04-06T14:09:23.999Z</time></trkpt><trkpt lat="46.39701169459381" lon="12.743754429238182"><ele>868.0</ele><time>2026-04-06T14:09:24.999Z</time></trkpt><trkpt lat="46.397083158776915" lon="12.743981988385158"><ele>866.6666666666666</ele><time>2026-04-06T14:09:25.999Z</time></trkpt><trkpt lat="46.397157570503666" lon="12.744221239262744"><ele>865.3333333333333</ele><time>2026-04-06T14:09:26.999Z</time></trkpt><trkpt lat="46.3972356194287" lon="12.74446476099878"><ele>864.0</ele><time>2026-04-06T14:09:27.999Z</time></trkpt><trkpt lat="46.39731202491736" lon="12.744706550428358"><ele>862.3333333333333</ele><time>2026-04-06T14:09:28.999Z</time></trkpt><trkpt lat="46.39739056653512" lon="12.744947638406373"><ele>860.6666666666666</ele><time>2026-04-06T14:09:29.999Z</time></trkpt><trkpt lat="46.39747352130097" lon="12.745182959323747"><ele>859.0</ele><time>2026-04-06T14:09:30.999Z</time></trkpt><trkpt lat="46.3975623719978" lon="12.745410865069573"><ele>855.6666666666666</ele><time>2026-04-06T14:09:31.999Z</time></trkpt><trkpt lat="46.39766085983034" lon="12.745627089008247"><ele>852.3333333333333</ele><time>2026-04-06T14:09:32.999Z</time></trkpt><trkpt lat="46.39777032876125" lon="12.745838364137619"><ele>849.0</ele><time>2026-04-06T14:09:33.999Z</time></trkpt><trkpt lat="46.39788988380078" lon="12.746054323672846"><ele>851.6666666666667</ele><time>2026-04-06T14:09:34.999Z</time></trkpt><trkpt lat="46.398008236607595" lon="12.746275821427789"><ele>854.3333333333334</ele><time>2026-04-06T14:09:35.999Z</time></trkpt><trkpt lat="46.39812344714423" lon="12.746503313076929"><ele>857.0</ele><time>2026-04-06T14:09:36.999Z</time></trkpt><trkpt lat="46.39823738088084" lon="12.746736133572323"><ele>853.3333333333334</ele><time>2026-04-06T14:09:37.999Z</time></trkpt><trkpt lat="46.39835062512475" lon="12.746966721667832"><ele>849.6666666666667</ele><time>2026-04-06T14:09:38.999Z</time></trkpt><trkpt lat="46.398462748620574" lon="12.747189176794429"><ele>846.0</ele><time>2026-04-06T14:09:39.999Z</time></trkpt><trkpt lat="46.39856981154303" lon="12.747410653164993"><ele>846.0</ele><time>2026-04-06T14:09:40.999Z</time></trkpt><trkpt lat="46.39867386132004" lon="12.747629236082025"><ele>846.0</ele><time>2026-04-06T14:09:41.999Z</time></trkpt><trkpt lat="46.39877662374953" lon="12.747841634713616"><ele>846.0</ele><time>2026-04-06T14:09:42.999Z</time></trkpt><trkpt lat="46.398873203580514" lon="12.74805197408909"><ele>847.6666666666667</ele><time>2026-04-06T14:09:43.999Z</time></trkpt><trkpt lat="46.39895464606077" lon="12.748280080859477"><ele>849.3333333333334</ele><time>2026-04-06T14:09:44.999Z</time></trkpt><trkpt lat="46.3990099308165" lon="12.748536034256649"><ele>851.0</ele><time>2026-04-06T14:09:45.999Z</time></trkpt><trkpt lat="46.399032935895875" lon="12.748821435780224"><ele>847.0</ele><time>2026-04-06T14:09:46.999Z</time></trkpt><trkpt lat="46.39902881411033" lon="12.749102240315118"><ele>843.0</ele><time>2026-04-06T14:09:47.999Z</time></trkpt><trkpt lat="46.39903059654044" lon="12.749354950225314"><ele>839.0</ele><time>2026-04-06T14:09:48.999Z</time></trkpt><trkpt lat="46.39903451231877" lon="12.74960819651202"><ele>838.3333333333334</ele><time>2026-04-06T14:09:49.999Z</time></trkpt><trkpt lat="46.39903904305659" lon="12.74984597493638"><ele>837.6666666666667</ele><time>2026-04-06T14:09:50.999Z</time></trkpt><trkpt lat="46.399046870101415" lon="12.750065300750625"><ele>837.0</ele><time>2026-04-06T14:09:51.999Z</time></trkpt><trkpt lat="46.39906250769337" lon="12.750277719433008"><ele>836.0</ele><time>2026-04-06T14:09:52.999Z</time></trkpt><trkpt lat="46.399107831804514" lon="12.75049245793607"><ele>835.0</ele><time>2026-04-06T14:09:53.999Z</time></trkpt><trkpt lat="46.39918198444986" lon="12.750707627109188"><ele>834.0</ele><time>2026-04-06T14:09:54.999Z</time></trkpt><trkpt lat="46.39926647481472" lon="12.750918960007192"><ele>833.0</ele><time>2026-04-06T14:09:55.999Z</time></trkpt><trkpt lat="46.39934910156839" lon="12.751138900468984"><ele>832.0</ele><time>2026-04-06T14:09:56.999Z</time></trkpt><trkpt lat="46.39943466887258" lon="12.751366183949704"><ele>831.0</ele><time>2026-04-06T14:09:57.999Z</time></trkpt><trkpt lat="46.399519949251676" lon="12.751600472293685"><ele>831.0</ele><time>2026-04-06T14:09:58.999Z</time></trkpt><trkpt lat="46.399609152266535" lon="12.751831405692926"><ele>831.0</ele><time>2026-04-06T14:09:59.999Z</time></trkpt><trkpt lat="46.399700345791835" lon="12.752048723718405"><ele>831.0</ele><time>2026-04-06T14:10:00.999Z</time></trkpt><trkpt lat="46.399808892879925" lon="12.752248526682749"><ele>831.0</ele><time>2026-04-06T14:10:01.999Z</time></trkpt><trkpt lat="46.3999445019367" lon="12.752429860890265"><ele>831.0</ele><time>2026-04-06T14:10:02.999Z</time></trkpt><trkpt lat="46.40010267909944" lon="12.752592442833318"><ele>831.0</ele><time>2026-04-06T14:10:03.999Z</time></trkpt><trkpt lat="46.40026269462382" lon="12.752739648165894"><ele>832.3333333333333</ele><time>2026-04-06T14:10:04.999Z</time></trkpt><trkpt lat="46.400417821150896" lon="12.752889661014763"><ele>833.6666666666666</ele><time>2026-04-06T14:10:05.999Z</time></trkpt><trkpt lat="46.4005690931348" lon="12.753045054988094"><ele>835.0</ele><time>2026-04-06T14:10:06.999Z</time></trkpt><trkpt lat="46.400720146403785" lon="12.753197201251975"><ele>832.0</ele><time>2026-04-06T14:10:07.999Z</time></trkpt><trkpt lat="46.40086677187451" lon="12.753345543396938"><ele>829.0</ele><time>2026-04-06T14:10:08.999Z</time></trkpt><trkpt lat="46.40099979360186" lon="12.753481047220104"><ele>826.0</ele><time>2026-04-06T14:10:09.999Z</time></trkpt><trkpt lat="46.40113004181445" lon="12.753605784586144"><ele>826.0</ele><time>2026-04-06T14:10:10.999Z</time></trkpt><trkpt lat="46.40126598911291" lon="12.753715384762877"><ele>826.0</ele><time>2026-04-06T14:10:11.999Z</time></trkpt><trkpt lat="46.40141633437642" lon="12.753792188394085"><ele>826.0</ele><time>2026-04-06T14:10:12.999Z</time></trkpt><trkpt lat="46.401578774170886" lon="12.753871150189465"><ele>826.0</ele><time>2026-04-06T14:10:13.999Z</time></trkpt><trkpt lat="46.401763016085084" lon="12.753903651919222"><ele>826.0</ele><time>2026-04-06T14:10:14.999Z</time></trkpt><trkpt lat="46.40195444504867" lon="12.75393400902859"><ele>826.0</ele><time>2026-04-06T14:10:15.999Z</time></trkpt><trkpt lat="46.402149688751955" lon="12.753942628366055"><ele>827.3333333333333</ele><time>2026-04-06T14:10:16.999Z</time></trkpt><trkpt lat="46.40234056296735" lon="12.753973369859704"><ele>828.6666666666667</ele><time>2026-04-06T14:10:17.999Z</time></trkpt><trkpt lat="46.40252656590219" lon="12.754005079389804"><ele>830.0</ele><time>2026-04-06T14:10:18.999Z</time></trkpt><trkpt lat="46.40271578796683" lon="12.754039049649885"><ele>830.0</ele><time>2026-04-06T14:10:19.999Z</time></trkpt><trkpt lat="46.40290479339999" lon="12.75407670067886"><ele>830.0</ele><time>2026-04-06T14:10:20.999Z</time></trkpt><trkpt lat="46.40309394907293" lon="12.7541154967387"><ele>830.0</ele><time>2026-04-06T14:10:21.999Z</time></trkpt><trkpt lat="46.40328828803696" lon="12.754169609461977"><ele>830.3333333333334</ele><time>2026-04-06T14:10:22.999Z</time></trkpt><trkpt lat="46.40348877072109" lon="12.75422697526874"><ele>830.6666666666667</ele><time>2026-04-06T14:10:23.999Z</time></trkpt><trkpt lat="46.403677945191404" lon="12.75428304102991"><ele>831.0</ele><time>2026-04-06T14:10:24.999Z</time></trkpt><trkpt lat="46.403854602150226" lon="12.754329656286526"><ele>827.3333333333333</ele><time>2026-04-06T14:10:25.999Z</time></trkpt><trkpt lat="46.404025258467996" lon="12.754380481192587"><ele>823.6666666666666</ele><time>2026-04-06T14:10:26.999Z</time></trkpt><trkpt lat="46.404191749349664" lon="12.754458388250542"><ele>820.0</ele><time>2026-04-06T14:10:27.999Z</time></trkpt><trkpt lat="46.404352603307636" lon="12.754573084422507"><ele>820.0</ele><time>2026-04-06T14:10:28.999Z</time></trkpt><trkpt lat="46.40450654121643" lon="12.754737992172027"><ele>820.0</ele><time>2026-04-06T14:10:29.999Z</time></trkpt><trkpt lat="46.40463912887319" lon="12.754947453874346"><ele>820.0</ele><time>2026-04-06T14:10:30.999Z</time></trkpt><trkpt lat="46.40477179147866" lon="12.755142117521297"><ele>818.0</ele><time>2026-04-06T14:10:31.999Z</time></trkpt><trkpt lat="46.40490269376276" lon="12.755320849685479"><ele>816.0</ele><time>2026-04-06T14:10:32.999Z</time></trkpt><trkpt lat="46.405034586971965" lon="12.755501266306158"><ele>814.0</ele><time>2026-04-06T14:10:33.999Z</time></trkpt><trkpt lat="46.405173318429554" lon="12.755687595175717"><ele>814.0</ele><time>2026-04-06T14:10:34.999Z</time></trkpt><trkpt lat="46.4053146162352" lon="12.755882258539891"><ele>814.0</ele><time>2026-04-06T14:10:35.999Z</time></trkpt><trkpt lat="46.40545331998643" lon="12.75608063847813"><ele>814.0</ele><time>2026-04-06T14:10:36.999Z</time></trkpt><trkpt lat="46.40558602834647" lon="12.756281680792798"><ele>815.3333333333333</ele><time>2026-04-06T14:10:37.999Z</time></trkpt><trkpt lat="46.40570765432667" lon="12.756502581328455"><ele>816.6666666666667</ele><time>2026-04-06T14:10:38.999Z</time></trkpt><trkpt lat="46.40582030412662" lon="12.756733423451374"><ele>818.0</ele><time>2026-04-06T14:10:39.999Z</time></trkpt><trkpt lat="46.405930590836604" lon="12.756961194869358"><ele>812.3333333333334</ele><time>2026-04-06T14:10:40.999Z</time></trkpt><trkpt lat="46.40604206627937" lon="12.757195332284889"><ele>806.6666666666667</ele><time>2026-04-06T14:10:41.999Z</time></trkpt><trkpt lat="46.406159506023386" lon="12.757431293563734"><ele>801.0</ele><time>2026-04-06T14:10:42.999Z</time></trkpt><trkpt lat="46.40627579366386" lon="12.757670498636365"><ele>804.0</ele><time>2026-04-06T14:10:43.999Z</time></trkpt><trkpt lat="46.40638248917215" lon="12.757900957457752"><ele>807.0</ele><time>2026-04-06T14:10:45Z</time></trkpt><trkpt lat="46.40648477334161" lon="12.758111557375045"><ele>810.0</ele><time>2026-04-06T14:10:46Z</time></trkpt><trkpt lat="46.4065804272717" lon="12.75830798702902"><ele>810.0</ele><time>2026-04-06T14:10:47Z</time></trkpt><trkpt lat="46.40667120532732" lon="12.75849097125837"><ele>810.0</ele><time>2026-04-06T14:10:48Z</time></trkpt><trkpt lat="46.40677635300003" lon="12.758655673421606"><ele>810.0</ele><time>2026-04-06T14:10:49Z</time></trkpt><trkpt lat="46.406902310233384" lon="12.758797352085924"><ele>807.75</ele><time>2026-04-06T14:10:50Z</time></trkpt><trkpt lat="46.40703051658839" lon="12.758917139610249"><ele>805.5</ele><time>2026-04-06T14:10:51Z</time></trkpt><trkpt lat="46.40715262644317" lon="12.759026343811017"><ele>803.25</ele><time>2026-04-06T14:10:52Z</time></trkpt><trkpt lat="46.40728359402943" lon="12.759119404208105"><ele>801.0</ele><time>2026-04-06T14:10:53Z</time></trkpt><trkpt lat="46.40742384748449" lon="12.75918475677437"><ele>801.0</ele><time>2026-04-06T14:10:54Z</time></trkpt><trkpt lat="46.4075698072702" lon="12.75922603554304"><ele>801.0</ele><time>2026-04-06T14:10:55Z</time></trkpt><trkpt lat="46.40772288753594" lon="12.759257088521524"><ele>801.0</ele><time>2026-04-06T14:10:56Z</time></trkpt><trkpt lat="46.407876851818486" lon="12.759260101379468"><ele>797.0</ele><time>2026-04-06T14:10:57Z</time></trkpt><trkpt lat="46.40804466554553" lon="12.759301330568702"><ele>793.0</ele><time>2026-04-06T14:10:58Z</time></trkpt><trkpt lat="46.40819017634178" lon="12.75936320281029"><ele>789.0</ele><time>2026-04-06T14:10:59Z</time></trkpt><trkpt lat="46.408309410934805" lon="12.759464704863952"><ele>789.0</ele><time>2026-04-06T14:11:00Z</time></trkpt><trkpt lat="46.408420318070014" lon="12.75961020810129"><ele>789.0</ele><time>2026-04-06T14:11:01Z</time></trkpt><trkpt lat="46.408520960654194" lon="12.759776019852506"><ele>789.0</ele><time>2026-04-06T14:11:02Z</time></trkpt><trkpt lat="46.40861599930182" lon="12.759942010136417"><ele>789.0</ele><time>2026-04-06T14:11:03Z</time></trkpt><trkpt lat="46.40872318951047" lon="12.760119612623312"><ele>789.0</ele><time>2026-04-06T14:11:04Z</time></trkpt><trkpt lat="46.40884050188475" lon="12.760314760761384"><ele>789.0</ele><time>2026-04-06T14:11:05Z</time></trkpt><trkpt lat="46.40897084615414" lon="12.760521885277115"><ele>788.0</ele><time>2026-04-06T14:11:06Z</time></trkpt><trkpt lat="46.40911028985071" lon="12.760742888178834"><ele>787.0</ele><time>2026-04-06T14:11:07Z</time></trkpt><trkpt lat="46.409229782648254" lon="12.760935718920912"><ele>786.0</ele><time>2026-04-06T14:11:07.999Z</time></trkpt><trkpt lat="46.40934137955557" lon="12.761127548225947"><ele>780.3333333333333</ele><time>2026-04-06T14:11:08.999Z</time></trkpt><trkpt lat="46.40943836686724" lon="12.761332961666913"><ele>774.6666666666666</ele><time>2026-04-06T14:11:09.999Z</time></trkpt><trkpt lat="46.40951091473077" lon="12.761555369053733"><ele>769.0</ele><time>2026-04-06T14:11:10.999Z</time></trkpt><trkpt lat="46.40955443617321" lon="12.761790091450116"><ele>767.3333333333333</ele><time>2026-04-06T14:11:11.999Z</time></trkpt><trkpt lat="46.40957284601217" lon="12.762024332872217"><ele>765.6666666666666</ele><time>2026-04-06T14:11:12.999Z</time></trkpt><trkpt lat="46.40955472401411" lon="12.76225142127893"><ele>764.0</ele><time>2026-04-06T14:11:13.999Z</time></trkpt><trkpt lat="46.4095138701572" lon="12.76247219168534"><ele>764.0</ele><time>2026-04-06T14:11:14.999Z</time></trkpt><trkpt lat="46.40946775409455" lon="12.762666832708314"><ele>764.0</ele><time>2026-04-06T14:11:15.999Z</time></trkpt><trkpt lat="46.40944616240502" lon="12.762840929385375"><ele>764.0</ele><time>2026-04-06T14:11:16.999Z</time></trkpt><trkpt lat="46.409450413495485" lon="12.763013956107365"><ele>764.0</ele><time>2026-04-06T14:11:17.999Z</time></trkpt><trkpt lat="46.409478884946616" lon="12.763190000466079"><ele>763.25</ele><time>2026-04-06T14:11:18.999Z</time></trkpt><trkpt lat="46.40954236641555" lon="12.763352877010927"><ele>762.5</ele><time>2026-04-06T14:11:19.999Z</time></trkpt><trkpt lat="46.409617575803075" lon="12.763514672104476"><ele>761.75</ele><time>2026-04-06T14:11:20.999Z</time></trkpt><trkpt lat="46.40969843182963" lon="12.763696276391649"><ele>761.0</ele><time>2026-04-06T14:11:21.999Z</time></trkpt><trkpt lat="46.40978544918004" lon="12.763881657703026"><ele>763.0</ele><time>2026-04-06T14:11:22.999Z</time></trkpt><trkpt lat="46.40988933737618" lon="12.764050945155446"><ele>765.0</ele><time>2026-04-06T14:11:23.999Z</time></trkpt><trkpt lat="46.41001468580815" lon="12.764203754966376"><ele>767.0</ele><time>2026-04-06T14:11:24.999Z</time></trkpt><trkpt lat="46.410145988892886" lon="12.764347987597441"><ele>767.0</ele><time>2026-04-06T14:11:25.999Z</time></trkpt><trkpt lat="46.41027878670051" lon="12.7644905806028"><ele>767.0</ele><time>2026-04-06T14:11:26.999Z</time></trkpt><trkpt lat="46.41041349347787" lon="12.764641400449651"><ele>767.0</ele><time>2026-04-06T14:11:27.999Z</time></trkpt><trkpt lat="46.41055986766037" lon="12.764801816273524"><ele>767.0</ele><time>2026-04-06T14:11:28.999Z</time></trkpt><trkpt lat="46.41071210026474" lon="12.76496994515628"><ele>767.0</ele><time>2026-04-06T14:11:29.999Z</time></trkpt><trkpt lat="46.41086131846076" lon="12.765139292083218"><ele>767.0</ele><time>2026-04-06T14:11:30.999Z</time></trkpt><trkpt lat="46.41100414512813" lon="12.765297458793002"><ele>766.25</ele><time>2026-04-06T14:11:31.999Z</time></trkpt><trkpt lat="46.41113165934865" lon="12.76543900001203"><ele>765.5</ele><time>2026-04-06T14:11:32.999Z</time></trkpt><trkpt lat="46.41124872124043" lon="12.765568855598227"><ele>764.75</ele><time>2026-04-06T14:11:33.999Z</time></trkpt><trkpt lat="46.411359285319904" lon="12.765684782551844"><ele>764.0</ele><time>2026-04-06T14:11:34.999Z</time></trkpt><trkpt lat="46.41147343878921" lon="12.765766743503"><ele>764.0</ele><time>2026-04-06T14:11:35.999Z</time></trkpt><trkpt lat="46.41158867056773" lon="12.765810007116361"><ele>764.0</ele><time>2026-04-06T14:11:36.999Z</time></trkpt><trkpt lat="46.41170382830724" lon="12.765820734110715"><ele>764.0</ele><time>2026-04-06T14:11:37.999Z</time></trkpt><trkpt lat="46.41182073320251" lon="12.765800324188334"><ele>764.0</ele><time>2026-04-06T14:11:38.999Z</time></trkpt><trkpt lat="46.41193473021859" lon="12.76574907830129"><ele>764.0</ele><time>2026-04-06T14:11:39.999Z</time></trkpt><trkpt lat="46.41205365674816" lon="12.765673844322274"><ele>764.0</ele><time>2026-04-06T14:11:40.999Z</time></trkpt><trkpt lat="46.41217080297877" lon="12.765579285298145"><ele>764.0</ele><time>2026-04-06T14:11:41.999Z</time></trkpt><trkpt lat="46.4122728077533" lon="12.765465748627019"><ele>764.0</ele><time>2026-04-06T14:11:42.999Z</time></trkpt><trkpt lat="46.41235147980382" lon="12.765335921818865"><ele>763.5</ele><time>2026-04-06T14:11:43.999Z</time></trkpt><trkpt lat="46.412411285259" lon="12.76519206710661"><ele>763.0</ele><time>2026-04-06T14:11:44.999Z</time></trkpt><trkpt lat="46.412445308612334" lon="12.765039666368557"><ele>762.5</ele><time>2026-04-06T14:11:45.999Z</time></trkpt><trkpt lat="46.41246033558283" lon="12.764875321265245"><ele>762.0</ele><time>2026-04-06T14:11:46.999Z</time></trkpt><trkpt lat="46.41246756258506" lon="12.764694312854962"><ele>762.0</ele><time>2026-04-06T14:11:47.999Z</time></trkpt><trkpt lat="46.41245234417381" lon="12.764504000362866"><ele>762.0</ele><time>2026-04-06T14:11:48.999Z</time></trkpt><trkpt lat="46.41243741376294" lon="12.764317290198615"><ele>762.0</ele><time>2026-04-06T14:11:49.999Z</time></trkpt><trkpt lat="46.412429710440804" lon="12.764148078512488"><ele>762.0</ele><time>2026-04-06T14:11:50.999Z</time></trkpt><trkpt lat="46.41244931813402" lon="12.763996150590698"><ele>763.0</ele><time>2026-04-06T14:11:51.999Z</time></trkpt><trkpt lat="46.41249000144298" lon="12.76384516031063"><ele>764.0</ele><time>2026-04-06T14:11:52.999Z</time></trkpt><trkpt lat="46.412561118954706" lon="12.763701196124288"><ele>765.0</ele><time>2026-04-06T14:11:53.999Z</time></trkpt><trkpt lat="46.412655103046426" lon="12.763596363157314"><ele>766.0</ele><time>2026-04-06T14:11:54.999Z</time></trkpt><trkpt lat="46.412763504136905" lon="12.763535576627875"><ele>766.0</ele><time>2026-04-06T14:11:55.999Z</time></trkpt><trkpt lat="46.412878445808296" lon="12.763502920537265"><ele>766.0</ele><time>2026-04-06T14:11:56.999Z</time></trkpt><trkpt lat="46.41300291994074" lon="12.763489188949883"><ele>766.0</ele><time>2026-04-06T14:11:57.999Z</time></trkpt><trkpt lat="46.413129681609526" lon="12.763543083553888"><ele>766.0</ele><time>2026-04-06T14:11:58.999Z</time></trkpt><trkpt lat="46.41325571517666" lon="12.763622983027297"><ele>762.75</ele><time>2026-04-06T14:11:59.999Z</time></trkpt><trkpt lat="46.41337448811403" lon="12.763730724195648"><ele>759.5</ele><time>2026-04-06T14:12:00.999Z</time></trkpt><trkpt lat="46.41348743488702" lon="12.763876566643221"><ele>756.25</ele><time>2026-04-06T14:12:01.999Z</time></trkpt><trkpt lat="46.41358148263509" lon="12.764050591510125"><ele>753.0</ele><time>2026-04-06T14:12:02.999Z</time></trkpt><trkpt lat="46.413657783517614" lon="12.764247570133097"><ele>751.0</ele><time>2026-04-06T14:12:03.999Z</time></trkpt><trkpt lat="46.41373682105756" lon="12.764449319277144"><ele>749.0</ele><time>2026-04-06T14:12:04.999Z</time></trkpt><trkpt lat="46.413834132994985" lon="12.764634918711005"><ele>747.0</ele><time>2026-04-06T14:12:05.999Z</time></trkpt><trkpt lat="46.41394191371668" lon="12.764806937491201"><ele>747.0</ele><time>2026-04-06T14:12:06.999Z</time></trkpt><trkpt lat="46.414061741333285" lon="12.764965425506919"><ele>747.0</ele><time>2026-04-06T14:12:07.999Z</time></trkpt><trkpt lat="46.414189433078654" lon="12.76512058199271"><ele>747.0</ele><time>2026-04-06T14:12:08.999Z</time></trkpt><trkpt lat="46.41432476780636" lon="12.765284327429749"><ele>744.3333333333334</ele><time>2026-04-06T14:12:09.999Z</time></trkpt><trkpt lat="46.414455851281055" lon="12.765454582462516"><ele>741.6666666666667</ele><time>2026-04-06T14:12:10.999Z</time></trkpt><trkpt lat="46.41458073584072" lon="12.765610576000663"><ele>739.0</ele><time>2026-04-06T14:12:11.999Z</time></trkpt><trkpt lat="46.41469313997255" lon="12.765751569242994"><ele>739.0</ele><time>2026-04-06T14:12:12.999Z</time></trkpt><trkpt lat="46.41480101384437" lon="12.76588732600509"><ele>739.0</ele><time>2026-04-06T14:12:13.999Z</time></trkpt><trkpt lat="46.414906194514906" lon="12.766017348444677"><ele>739.0</ele><time>2026-04-06T14:12:14.999Z</time></trkpt><trkpt lat="46.415001481123625" lon="12.766138970870125"><ele>739.0</ele><time>2026-04-06T14:12:15.999Z</time></trkpt><trkpt lat="46.4150903783789" lon="12.76624797782776"><ele>736.4000000000001</ele><time>2026-04-06T14:12:16.999Z</time></trkpt><trkpt lat="46.41517880617803" lon="12.76635687590082"><ele>733.8</ele><time>2026-04-06T14:12:17.999Z</time></trkpt><trkpt lat="46.415247873226015" lon="12.766479226199017"><ele>731.2</ele><time>2026-04-06T14:12:18.999Z</time></trkpt><trkpt lat="46.41528611833177" lon="12.76661937697179"><ele>728.5999999999999</ele><time>2026-04-06T14:12:19.999Z</time></trkpt><trkpt lat="46.41529717085146" lon="12.7667655335915"><ele>726.0</ele><time>2026-04-06T14:12:20.999Z</time></trkpt><trkpt lat="46.415275125104856" lon="12.766914946868647"><ele>725.5999999999999</ele><time>2026-04-06T14:12:21.999Z</time></trkpt><trkpt lat="46.41521932285045" lon="12.767043399029436"><ele>725.2</ele><time>2026-04-06T14:12:22.999Z</time></trkpt><trkpt lat="46.41514517999844" lon="12.767136404167434"><ele>724.8</ele><time>2026-04-06T14:12:23.999Z</time></trkpt><trkpt lat="46.41506028658833" lon="12.767195822893695"><ele>724.4000000000001</ele><time>2026-04-06T14:12:24.999Z</time></trkpt><trkpt lat="46.41496485831152" lon="12.767216335928884"><ele>724.0</ele><time>2026-04-06T14:12:25.999Z</time></trkpt><trkpt lat="46.41487812770182" lon="12.767209593028003"><ele>724.0</ele><time>2026-04-06T14:12:26.999Z</time></trkpt><trkpt lat="46.41480946531261" lon="12.76715010270561"><ele>724.0</ele><time>2026-04-06T14:12:27.999Z</time></trkpt><trkpt lat="46.414716232976474" lon="12.767111139984717"><ele>724.0</ele><time>2026-04-06T14:12:28.999Z</time></trkpt><trkpt lat="46.41462866312551" lon="12.7670586301438"><ele>724.0</ele><time>2026-04-06T14:12:29.999Z</time></trkpt><trkpt lat="46.41453654633862" lon="12.766998675184357"><ele>724.0</ele><time>2026-04-06T14:12:30.999Z</time></trkpt><trkpt lat="46.41443732815413" lon="12.766934628890915"><ele>723.4000000000001</ele><time>2026-04-06T14:12:31.999Z</time></trkpt><trkpt lat="46.41433746622434" lon="12.766870815984154"><ele>722.8</ele><time>2026-04-06T14:12:32.999Z</time></trkpt><trkpt lat="46.4142502214118" lon="12.76681303011414"><ele>722.2</ele><time>2026-04-06T14:12:33.999Z</time></trkpt><trkpt lat="46.41416551514886" lon="12.766760627340915"><ele>721.5999999999999</ele><time>2026-04-06T14:12:34.999Z</time></trkpt><trkpt lat="46.414083091987045" lon="12.766709247828075"><ele>721.0</ele><time>2026-04-06T14:12:35.999Z</time></trkpt><trkpt lat="46.413995629894686" lon="12.766655042379886"><ele>721.0</ele><time>2026-04-06T14:12:36.999Z</time></trkpt><trkpt lat="46.413908588391024" lon="12.766595428914313"><ele>721.0</ele><time>2026-04-06T14:12:37.999Z</time></trkpt><trkpt lat="46.41382654680392" lon="12.76654400376269"><ele>721.0</ele><time>2026-04-06T14:12:38.999Z</time></trkpt><trkpt lat="46.413746969473245" lon="12.766513310276116"><ele>721.0</ele><time>2026-04-06T14:12:39.999Z</time></trkpt><trkpt lat="46.4136696824304" lon="12.766510093292325"><ele>721.0</ele><time>2026-04-06T14:12:40.999Z</time></trkpt><trkpt lat="46.413598557324946" lon="12.76652980311002"><ele>721.0</ele><time>2026-04-06T14:12:41.999Z</time></trkpt><trkpt lat="46.413535313539306" lon="12.766564878268799"><ele>721.3333333333334</ele><time>2026-04-06T14:12:42.999Z</time></trkpt><trkpt lat="46.41347965343193" lon="12.766612347098171"><ele>721.6666666666667</ele><time>2026-04-06T14:12:43.999Z</time></trkpt><trkpt lat="46.4134296688467" lon="12.766671102518059"><ele>722.0</ele><time>2026-04-06T14:12:44.999Z</time></trkpt><trkpt lat="46.41338955928423" lon="12.766746917206207"><ele>722.3333333333334</ele><time>2026-04-06T14:12:45.999Z</time></trkpt><trkpt lat="46.41334921262421" lon="12.766897981601366"><ele>722.6666666666666</ele><time>2026-04-06T14:12:47.999Z</time></trkpt><trkpt lat="46.41333571409361" lon="12.767057622932924"><ele>723.0</ele><time>2026-04-06T14:12:49.999Z</time></trkpt><trkpt lat="46.41334206607279" lon="12.767151301806376"><ele>720.8333333333334</ele><time>2026-04-06T14:12:51Z</time></trkpt><trkpt lat="46.41336821406076" lon="12.767261596797958"><ele>718.6666666666666</ele><time>2026-04-06T14:12:52Z</time></trkpt><trkpt lat="46.41340983076426" lon="12.767369502071986"><ele>716.5</ele><time>2026-04-06T14:12:53Z</time></trkpt><trkpt lat="46.4134572728116" lon="12.767455880923748"><ele>714.3333333333333</ele><time>2026-04-06T14:12:54Z</time></trkpt><trkpt lat="46.41350824503313" lon="12.76753399810075"><ele>712.1666666666666</ele><time>2026-04-06T14:12:55Z</time></trkpt><trkpt lat="46.4135674246934" lon="12.767618205079598"><ele>710.0</ele><time>2026-04-06T14:12:56Z</time></trkpt><trkpt lat="46.41362264861954" lon="12.767699680409983"><ele>709.5714285714286</ele><time>2026-04-06T14:12:57Z</time></trkpt><trkpt lat="46.413678683649096" lon="12.76778376003596"><ele>709.1428571428571</ele><time>2026-04-06T14:12:58Z</time></trkpt><trkpt lat="46.41372570293555" lon="12.767853041061732"><ele>708.7142857142858</ele><time>2026-04-06T14:12:59Z</time></trkpt><trkpt lat="46.413773503818845" lon="12.767922190984311"><ele>708.2857142857142</ele><time>2026-04-06T14:13:00Z</time></trkpt><trkpt lat="46.41381750281633" lon="12.767990129526721"><ele>707.8571428571429</ele><time>2026-04-06T14:13:01Z</time></trkpt><trkpt lat="46.413860211789036" lon="12.768062175348287"><ele>707.4285714285714</ele><time>2026-04-06T14:13:02Z</time></trkpt><trkpt lat="46.41390060940782" lon="12.768150455941308"><ele>707.0</ele><time>2026-04-06T14:13:03Z</time></trkpt><trkpt lat="46.413933732614524" lon="12.768258084779545"><ele>707.0</ele><time>2026-04-06T14:13:04Z</time></trkpt><trkpt lat="46.41396036899067" lon="12.768368128324495"><ele>707.0</ele><time>2026-04-06T14:13:05Z</time></trkpt><trkpt lat="46.41397832135384" lon="12.768491126284394"><ele>707.0</ele><time>2026-04-06T14:13:06Z</time></trkpt><trkpt lat="46.41398177598874" lon="12.768630484922374"><ele>707.0</ele><time>2026-04-06T14:13:07Z</time></trkpt><trkpt lat="46.413972410284295" lon="12.768788808904642"><ele>707.0</ele><time>2026-04-06T14:13:08Z</time></trkpt><trkpt lat="46.41394951512116" lon="12.7689524552539"><ele>707.4000000000001</ele><time>2026-04-06T14:13:09Z</time></trkpt><trkpt lat="46.41391307936554" lon="12.769109400317403"><ele>707.8000000000001</ele><time>2026-04-06T14:13:09.999Z</time></trkpt><trkpt lat="46.413869696475295" lon="12.769241144659086"><ele>708.2</ele><time>2026-04-06T14:13:10.999Z</time></trkpt><trkpt lat="46.41383089661065" lon="12.769377992864072"><ele>708.6</ele><time>2026-04-06T14:13:11.999Z</time></trkpt><trkpt lat="46.413792104107564" lon="12.769520760160828"><ele>709.0</ele><time>2026-04-06T14:13:12.999Z</time></trkpt><trkpt lat="46.41374767595317" lon="12.769671013655179"><ele>706.4000000000001</ele><time>2026-04-06T14:13:13.999Z</time></trkpt><trkpt lat="46.41370804904793" lon="12.769809688660477"><ele>703.8</ele><time>2026-04-06T14:13:14.999Z</time></trkpt><trkpt lat="46.413674111817144" lon="12.769943190468808"><ele>701.2</ele><time>2026-04-06T14:13:15.999Z</time></trkpt><trkpt lat="46.41364490225068" lon="12.770074181889854"><ele>698.5999999999999</ele><time>2026-04-06T14:13:16.999Z</time></trkpt><trkpt lat="46.41362608762917" lon="12.770207578592256"><ele>696.0</ele><time>2026-04-06T14:13:17.999Z</time></trkpt><trkpt lat="46.413614151170734" lon="12.770342910761793"><ele>696.0</ele><time>2026-04-06T14:13:18.999Z</time></trkpt><trkpt lat="46.41360853253596" lon="12.770477740368316"><ele>696.0</ele><time>2026-04-06T14:13:19.999Z</time></trkpt><trkpt lat="46.41361630844885" lon="12.77061391612564"><ele>696.0</ele><time>2026-04-06T14:13:20.999Z</time></trkpt><trkpt lat="46.413633443025304" lon="12.770749785446808"><ele>696.0</ele><time>2026-04-06T14:13:21.999Z</time></trkpt><trkpt lat="46.41365774034044" lon="12.770886258151245"><ele>696.0</ele><time>2026-04-06T14:13:22.999Z</time></trkpt><trkpt lat="46.4136904358911" lon="12.771011440441434"><ele>697.0</ele><time>2026-04-06T14:13:23.999Z</time></trkpt><trkpt lat="46.413721996623664" lon="12.771126248312498"><ele>698.0</ele><time>2026-04-06T14:13:24.999Z</time></trkpt><trkpt lat="46.413754615606365" lon="12.771231993412139"><ele>699.0</ele><time>2026-04-06T14:13:25.999Z</time></trkpt><trkpt lat="46.41378736481373" lon="12.771336287103184"><ele>700.0</ele><time>2026-04-06T14:13:26.999Z</time></trkpt><trkpt lat="46.41382696154722" lon="12.771455514537644"><ele>701.0</ele><time>2026-04-06T14:13:27.999Z</time></trkpt><trkpt lat="46.41386570837736" lon="12.771580489049542"><ele>702.0</ele><time>2026-04-06T14:13:28.999Z</time></trkpt><trkpt lat="46.413896911468534" lon="12.77170875871014"><ele>703.8</ele><time>2026-04-06T14:13:29.999Z</time></trkpt><trkpt lat="46.41392215870721" lon="12.771840300451418"><ele>705.6</ele><time>2026-04-06T14:13:30.999Z</time></trkpt><trkpt lat="46.41393839850109" lon="12.771987050086302"><ele>707.4</ele><time>2026-04-06T14:13:31.999Z</time></trkpt><trkpt lat="46.4139416906133" lon="12.7721378206908"><ele>709.1999999999999</ele><time>2026-04-06T14:13:32.999Z</time></trkpt><trkpt lat="46.413940707323626" lon="12.772302679155917"><ele>711.0</ele><time>2026-04-06T14:13:33.999Z</time></trkpt><trkpt lat="46.413931427568365" lon="12.7724771313548"><ele>711.0</ele><time>2026-04-06T14:13:34.999Z</time></trkpt><trkpt lat="46.413922809517736" lon="12.772657493283774"><ele>711.0</ele><time>2026-04-06T14:13:35.999Z</time></trkpt><trkpt lat="46.41391702599345" lon="12.772836830132595"><ele>711.0</ele><time>2026-04-06T14:13:36.999Z</time></trkpt><trkpt lat="46.41391092327288" lon="12.77300104878253"><ele>711.0</ele><time>2026-04-06T14:13:37.999Z</time></trkpt><trkpt lat="46.41390574829809" lon="12.77313758952277"><ele>708.8</ele><time>2026-04-06T14:13:38.999Z</time></trkpt><trkpt lat="46.4138989468453" lon="12.773276554470103"><ele>706.5999999999999</ele><time>2026-04-06T14:13:39.999Z</time></trkpt><trkpt lat="46.41388464219651" lon="12.773412364522853"><ele>704.4</ele><time>2026-04-06T14:13:40.999Z</time></trkpt><trkpt lat="46.41386352362454" lon="12.773539621163025"><ele>702.2</ele><time>2026-04-06T14:13:41.999Z</time></trkpt><trkpt lat="46.41383561662143" lon="12.773682900186207"><ele>700.0</ele><time>2026-04-06T14:13:42.999Z</time></trkpt><trkpt lat="46.41380913516013" lon="12.773846417942007"><ele>693.5</ele><time>2026-04-06T14:13:43.999Z</time></trkpt><trkpt lat="46.41378793069061" lon="12.77402006181989"><ele>687.0</ele><time>2026-04-06T14:13:44.999Z</time></trkpt><trkpt lat="46.41377712272267" lon="12.774210122150055"><ele>680.5</ele><time>2026-04-06T14:13:45.999Z</time></trkpt><trkpt lat="46.41378068928809" lon="12.774421347339166"><ele>674.0</ele><time>2026-04-06T14:13:46.999Z</time></trkpt><trkpt lat="46.413796074268355" lon="12.774638786191646"><ele>674.75</ele><time>2026-04-06T14:13:47.999Z</time></trkpt><trkpt lat="46.41380974956495" lon="12.774860282211268"><ele>675.5</ele><time>2026-04-06T14:13:48.999Z</time></trkpt><trkpt lat="46.41382657215021" lon="12.775063700828662"><ele>676.25</ele><time>2026-04-06T14:13:49.999Z</time></trkpt><trkpt lat="46.41383979956613" lon="12.775245861607376"><ele>677.0</ele><time>2026-04-06T14:13:50.999Z</time></trkpt><trkpt lat="46.413853967544945" lon="12.775415311769628"><ele>677.0</ele><time>2026-04-06T14:13:51.999Z</time></trkpt><trkpt lat="46.41386959962907" lon="12.775590662168835"><ele>677.0</ele><time>2026-04-06T14:13:52.999Z</time></trkpt><trkpt lat="46.41389023058355" lon="12.775766674299637"><ele>677.0</ele><time>2026-04-06T14:13:53.999Z</time></trkpt><trkpt lat="46.4139275260458" lon="12.775941389004034"><ele>677.0</ele><time>2026-04-06T14:13:54.999Z</time></trkpt><trkpt lat="46.41398860556261" lon="12.776106076549489"><ele>676.0</ele><time>2026-04-06T14:13:55.999Z</time></trkpt><trkpt lat="46.41406908863495" lon="12.77626615674818"><ele>675.0</ele><time>2026-04-06T14:13:56.999Z</time></trkpt><trkpt lat="46.414151534116385" lon="12.776424252190354"><ele>674.0</ele><time>2026-04-06T14:13:57.999Z</time></trkpt><trkpt lat="46.41421834507201" lon="12.776582802655806"><ele>673.0</ele><time>2026-04-06T14:13:58.999Z</time></trkpt><trkpt lat="46.4142764324964" lon="12.776767542813662"><ele>669.6666666666667</ele><time>2026-04-06T14:13:59.999Z</time></trkpt><trkpt lat="46.41433320014091" lon="12.776971564797545"><ele>666.3333333333334</ele><time>2026-04-06T14:14:00.999Z</time></trkpt><trkpt lat="46.41438556336831" lon="12.777186865259976"><ele>663.0</ele><time>2026-04-06T14:14:01.999Z</time></trkpt><trkpt lat="46.41442502887529" lon="12.77743323419656"><ele>663.0</ele><time>2026-04-06T14:14:02.999Z</time></trkpt><trkpt lat="46.4144758632075" lon="12.777652857805137"><ele>663.0</ele><time>2026-04-06T14:14:03.999Z</time></trkpt><trkpt lat="46.414532071674536" lon="12.777875232151926"><ele>663.0</ele><time>2026-04-06T14:14:04.999Z</time></trkpt><trkpt lat="46.41458438979813" lon="12.778062611862238"><ele>662.5</ele><time>2026-04-06T14:14:05.999Z</time></trkpt><trkpt lat="46.414648333026776" lon="12.778240853144643"><ele>662.0</ele><time>2026-04-06T14:14:06.999Z</time></trkpt><trkpt lat="46.41470360606273" lon="12.778445338525795"><ele>661.5</ele><time>2026-04-06T14:14:07.999Z</time></trkpt><trkpt lat="46.41476091641809" lon="12.778648581366127"><ele>661.0</ele><time>2026-04-06T14:14:08.999Z</time></trkpt><trkpt lat="46.41481333184675" lon="12.778837051453678"><ele>661.0</ele><time>2026-04-06T14:14:09.999Z</time></trkpt><trkpt lat="46.414852854128696" lon="12.779006478803804"><ele>661.0</ele><time>2026-04-06T14:14:10.999Z</time></trkpt><trkpt lat="46.4148738848902" lon="12.77918167958451"><ele>661.0</ele><time>2026-04-06T14:14:11.999Z</time></trkpt><trkpt lat="46.414861565637516" lon="12.779364413841751"><ele>661.0</ele><time>2026-04-06T14:14:12.999Z</time></trkpt><trkpt lat="46.414808293755044" lon="12.779533788225061"><ele>658.75</ele><time>2026-04-06T14:14:13.999Z</time></trkpt><trkpt lat="46.41471354043429" lon="12.779672211083476"><ele>656.5</ele><time>2026-04-06T14:14:14.999Z</time></trkpt><trkpt lat="46.41459858333324" lon="12.779787933620236"><ele>654.25</ele><time>2026-04-06T14:14:15.999Z</time></trkpt><trkpt lat="46.41447131785929" lon="12.779918524372558"><ele>652.0</ele><time>2026-04-06T14:14:16.999Z</time></trkpt><trkpt lat="46.41434020400391" lon="12.780062961254677"><ele>653.3333333333334</ele><time>2026-04-06T14:14:17.999Z</time></trkpt><trkpt lat="46.414200865249505" lon="12.780214893706663"><ele>654.6666666666666</ele><time>2026-04-06T14:14:18.999Z</time></trkpt><trkpt lat="46.41406566665982" lon="12.780366050144801"><ele>656.0</ele><time>2026-04-06T14:14:19.999Z</time></trkpt><trkpt lat="46.413943383390375" lon="12.780496928561723"><ele>654.75</ele><time>2026-04-06T14:14:20.999Z</time></trkpt><trkpt lat="46.41381924513063" lon="12.780614446481266"><ele>653.5</ele><time>2026-04-06T14:14:21.999Z</time></trkpt><trkpt lat="46.41369093321262" lon="12.780712457289377"><ele>652.25</ele><time>2026-04-06T14:14:22.999Z</time></trkpt><trkpt lat="46.413546778336496" lon="12.78078962984833"><ele>651.0</ele><time>2026-04-06T14:14:23.999Z</time></trkpt><trkpt lat="46.41339723939716" lon="12.780835816802982"><ele>651.0</ele><time>2026-04-06T14:14:24.999Z</time></trkpt><trkpt lat="46.41325033586033" lon="12.780877695862369"><ele>651.0</ele><time>2026-04-06T14:14:25.999Z</time></trkpt><trkpt lat="46.41311428258551" lon="12.78094357082611"><ele>651.0</ele><time>2026-04-06T14:14:26.999Z</time></trkpt><trkpt lat="46.41298976285239" lon="12.781032133724668"><ele>651.0</ele><time>2026-04-06T14:14:27.999Z</time></trkpt><trkpt lat="46.412877937828185" lon="12.781147837061747"><ele>647.5</ele><time>2026-04-06T14:14:28.999Z</time></trkpt><trkpt lat="46.412778438315556" lon="12.781285056896017"><ele>644.0</ele><time>2026-04-06T14:14:29.999Z</time></trkpt><trkpt lat="46.41269513000499" lon="12.781449173392824"><ele>640.5</ele><time>2026-04-06T14:14:30.999Z</time></trkpt><trkpt lat="46.412627946285426" lon="12.781634248298628"><ele>637.0</ele><time>2026-04-06T14:14:31.999Z</time></trkpt><trkpt lat="46.41258167025093" lon="12.781840134558031"><ele>636.0</ele><time>2026-04-06T14:14:32.999Z</time></trkpt><trkpt lat="46.41255559667834" lon="12.782067530879644"><ele>635.0</ele><time>2026-04-06T14:14:33.999Z</time></trkpt><trkpt lat="46.41254778988395" lon="12.782304502595048"><ele>634.0</ele><time>2026-04-06T14:14:34.999Z</time></trkpt><trkpt lat="46.4125358828461" lon="12.782560466874267"><ele>634.6666666666667</ele><time>2026-04-06T14:14:35.999Z</time></trkpt><trkpt lat="46.412513878350886" lon="12.782820290961467"><ele>635.3333333333334</ele><time>2026-04-06T14:14:36.999Z</time></trkpt><trkpt lat="46.41247701317295" lon="12.783074272434266"><ele>636.0</ele><time>2026-04-06T14:14:38Z</time></trkpt><trkpt lat="46.41241401633511" lon="12.783313753604359"><ele>636.6666666666666</ele><time>2026-04-06T14:14:39Z</time></trkpt><trkpt lat="46.4123500515112" lon="12.7835399053825"><ele>637.3333333333333</ele><time>2026-04-06T14:14:40Z</time></trkpt><trkpt lat="46.41229626985785" lon="12.783751370975583"><ele>638.0</ele><time>2026-04-06T14:14:41Z</time></trkpt><trkpt lat="46.41224621267629" lon="12.783944590644564"><ele>638.0</ele><time>2026-04-06T14:14:42Z</time></trkpt><trkpt lat="46.4122061410166" lon="12.784125239871653"><ele>638.0</ele><time>2026-04-06T14:14:43Z</time></trkpt><trkpt lat="46.41219672613543" lon="12.784315261000947"><ele>638.0</ele><time>2026-04-06T14:14:44Z</time></trkpt><trkpt lat="46.41221907691838" lon="12.78453044753662"><ele>638.0</ele><time>2026-04-06T14:14:45Z</time></trkpt><trkpt lat="46.412247659480116" lon="12.78472989375754"><ele>635.0</ele><time>2026-04-06T14:14:46Z</time></trkpt><trkpt lat="46.412272953793185" lon="12.784904589020954"><ele>632.0</ele><time>2026-04-06T14:14:47Z</time></trkpt><trkpt lat="46.41231911899975" lon="12.78505960851375"><ele>629.0</ele><time>2026-04-06T14:14:48Z</time></trkpt><trkpt lat="46.412398282781645" lon="12.785187510602887"><ele>626.0</ele><time>2026-04-06T14:14:49Z</time></trkpt><trkpt lat="46.41250900384032" lon="12.785294100308002"><ele>619.6666666666666</ele><time>2026-04-06T14:14:50Z</time></trkpt><trkpt lat="46.41264116530916" lon="12.785379227092495"><ele>613.3333333333334</ele><time>2026-04-06T14:14:51Z</time></trkpt><trkpt lat="46.41276492705454" lon="12.78549102384297"><ele>607.0</ele><time>2026-04-06T14:14:52Z</time></trkpt><trkpt lat="46.41288076163601" lon="12.78564925400448"><ele>607.0</ele><time>2026-04-06T14:14:53Z</time></trkpt><trkpt lat="46.412985287595426" lon="12.7858482548613"><ele>607.0</ele><time>2026-04-06T14:14:54Z</time></trkpt><trkpt lat="46.41308651708137" lon="12.786075409361464"><ele>607.0</ele><time>2026-04-06T14:14:55Z</time></trkpt><trkpt lat="46.413191461525024" lon="12.786277020625054"><ele>608.0</ele><time>2026-04-06T14:14:56Z</time></trkpt><trkpt lat="46.41329896960906" lon="12.786437869756385"><ele>609.0</ele><time>2026-04-06T14:14:57.001Z</time></trkpt><trkpt lat="46.413401303691394" lon="12.786572212232073"><ele>610.0</ele><time>2026-04-06T14:14:58.001Z</time></trkpt><trkpt lat="46.41350544193666" lon="12.78668085403339"><ele>611.0</ele><time>2026-04-06T14:14:59.001Z</time></trkpt><trkpt lat="46.41361629313558" lon="12.786747235749559"><ele>611.0</ele><time>2026-04-06T14:15:00.001Z</time></trkpt><trkpt lat="46.41373808021879" lon="12.786778112330039"><ele>611.0</ele><time>2026-04-06T14:15:01.001Z</time></trkpt><trkpt lat="46.41385752274791" lon="12.786799270734221"><ele>611.0</ele><time>2026-04-06T14:15:02.001Z</time></trkpt><trkpt lat="46.41396575156812" lon="12.7868378008905"><ele>611.0</ele><time>2026-04-06T14:15:03.001Z</time></trkpt><trkpt lat="46.41406448001674" lon="12.786906128973106"><ele>609.75</ele><time>2026-04-06T14:15:04.001Z</time></trkpt><trkpt lat="46.41415058277614" lon="12.787014618525669"><ele>608.5</ele><time>2026-04-06T14:15:05.001Z</time></trkpt><trkpt lat="46.414209529438466" lon="12.787167376681978"><ele>607.25</ele><time>2026-04-06T14:15:06.001Z</time></trkpt><trkpt lat="46.41423201673838" lon="12.787348973796668"><ele>606.0</ele><time>2026-04-06T14:15:07.001Z</time></trkpt><trkpt lat="46.41422555278549" lon="12.787525288876143"><ele>604.8</ele><time>2026-04-06T14:15:08.001Z</time></trkpt><trkpt lat="46.41421271185388" lon="12.787689456492537"><ele>603.6</ele><time>2026-04-06T14:15:09.001Z</time></trkpt><trkpt lat="46.41419864908102" lon="12.787840352764983"><ele>602.4</ele><time>2026-04-06T14:15:10.001Z</time></trkpt><trkpt lat="46.414185865147005" lon="12.78799012696467"><ele>601.2</ele><time>2026-04-06T14:15:11.001Z</time></trkpt><trkpt lat="46.41417521353445" lon="12.788140960136237"><ele>600.0</ele><time>2026-04-06T14:15:12Z</time></trkpt><trkpt lat="46.414170051766064" lon="12.788281725937475"><ele>600.0</ele><time>2026-04-06T14:15:13Z</time></trkpt><trkpt lat="46.41418213081138" lon="12.788416278241309"><ele>600.0</ele><time>2026-04-06T14:15:14Z</time></trkpt><trkpt lat="46.4142067632763" lon="12.788548815623916"><ele>600.0</ele><time>2026-04-06T14:15:15Z</time></trkpt><trkpt lat="46.414242283140666" lon="12.788672426850683"><ele>600.0</ele><time>2026-04-06T14:15:16Z</time></trkpt><trkpt lat="46.414281893124326" lon="12.788790351431741"><ele>600.0</ele><time>2026-04-06T14:15:17Z</time></trkpt><trkpt lat="46.41431938401857" lon="12.78889997749115"><ele>598.0</ele><time>2026-04-06T14:15:18Z</time></trkpt><trkpt lat="46.41436370614981" lon="12.789001724357242"><ele>596.0</ele><time>2026-04-06T14:15:19Z</time></trkpt><trkpt lat="46.414406784886" lon="12.789100335378468"><ele>594.0</ele><time>2026-04-06T14:15:20Z</time></trkpt><trkpt lat="46.41445021011629" lon="12.78920349271656"><ele>592.0</ele><time>2026-04-06T14:15:21Z</time></trkpt><trkpt lat="46.41449590847181" lon="12.78930402023307"><ele>590.0</ele><time>2026-04-06T14:15:22Z</time></trkpt><trkpt lat="46.41455780042843" lon="12.78938156493114"><ele>588.0</ele><time>2026-04-06T14:15:23Z</time></trkpt><trkpt lat="46.41463777709869" lon="12.789429148538986"><ele>588.6</ele><time>2026-04-06T14:15:24Z</time></trkpt><trkpt lat="46.41473037091609" lon="12.789420058219147"><ele>589.1999999999999</ele><time>2026-04-06T14:15:25Z</time></trkpt><trkpt lat="46.41482220324573" lon="12.789347294336523"><ele>589.8</ele><time>2026-04-06T14:15:26Z</time></trkpt><trkpt lat="46.41490617490046" lon="12.78924564900038"><ele>590.4</ele><time>2026-04-06T14:15:27Z</time></trkpt><trkpt lat="46.414967510495494" lon="12.789144058294788"><ele>591.0</ele><time>2026-04-06T14:15:28Z</time></trkpt><trkpt lat="46.41503421053344" lon="12.789056156329943"><ele>591.0</ele><time>2026-04-06T14:15:29Z</time></trkpt><trkpt lat="46.41510214119361" lon="12.78897695817998"><ele>591.0</ele><time>2026-04-06T14:15:30Z</time></trkpt><trkpt lat="46.415172314500964" lon="12.788903965475674"><ele>591.0</ele><time>2026-04-06T14:15:31Z</time></trkpt><trkpt lat="46.41524468433975" lon="12.788814968476178"><ele>591.0</ele><time>2026-04-06T14:15:32Z</time></trkpt><trkpt lat="46.41531223392717" lon="12.788730872320421"><ele>591.0</ele><time>2026-04-06T14:15:33Z</time></trkpt><trkpt lat="46.415377005551804" lon="12.788648887248607"><ele>591.0</ele><time>2026-04-06T14:15:34Z</time></trkpt><trkpt lat="46.41544888019234" lon="12.788574656865187"><ele>590.0</ele><time>2026-04-06T14:15:35Z</time></trkpt><trkpt lat="46.415500448964735" lon="12.788469154657362"><ele>589.0</ele><time>2026-04-06T14:15:36Z</time></trkpt><trkpt lat="46.415532417636676" lon="12.788356387772843"><ele>588.0</ele><time>2026-04-06T14:15:37Z</time></trkpt><trkpt lat="46.415559701439356" lon="12.788249591438639"><ele>587.0</ele><time>2026-04-06T14:15:38Z</time></trkpt><trkpt lat="46.415575226971214" lon="12.78813239062687"><ele>586.0</ele><time>2026-04-06T14:15:39Z</time></trkpt><trkpt lat="46.41562271066559" lon="12.788038504067345"><ele>585.0</ele><time>2026-04-06T14:15:40Z</time></trkpt><trkpt lat="46.415682814803546" lon="12.78796178037884"><ele>585.0</ele><time>2026-04-06T14:15:41Z</time></trkpt><trkpt lat="46.415749147670255" lon="12.787907130026772"><ele>585.0</ele><time>2026-04-06T14:15:42Z</time></trkpt><trkpt lat="46.41581044815466" lon="12.787868230502434"><ele>585.0</ele><time>2026-04-06T14:15:43Z</time></trkpt><trkpt lat="46.415880423387975" lon="12.787873766920745"><ele>585.0</ele><time>2026-04-06T14:15:44Z</time></trkpt><trkpt lat="46.41599244542908" lon="12.787863660860166"><ele>585.0</ele><time>2026-04-06T14:15:46Z</time></trkpt><trkpt lat="46.416083316625134" lon="12.78789480892003"><ele>585.0</ele><time>2026-04-06T14:15:48Z</time></trkpt><trkpt lat="46.41617692971997" lon="12.787928396915468"><ele>585.0</ele><time>2026-04-06T14:15:50Z</time></trkpt><trkpt lat="46.41626684357169" lon="12.78797450426061"><ele>585.0</ele><time>2026-04-06T14:15:52Z</time></trkpt><trkpt lat="46.41637830742746" lon="12.787992677725796"><ele>585.0</ele><time>2026-04-06T14:15:54Z</time></trkpt><trkpt lat="46.41644880764471" lon="12.788011037561919"><ele>585.0</ele><time>2026-04-06T14:15:55Z</time></trkpt><trkpt lat="46.41651911870137" lon="12.788047355339945"><ele>585.0</ele><time>2026-04-06T14:15:56Z</time></trkpt><trkpt lat="46.41659892514789" lon="12.78806555521536"><ele>585.0</ele><time>2026-04-06T14:15:57Z</time></trkpt><trkpt lat="46.41668265695999" lon="12.788085302921374"><ele>584.1666666666666</ele><time>2026-04-06T14:15:58Z</time></trkpt><trkpt lat="46.416766634783" lon="12.788119369915819"><ele>583.3333333333334</ele><time>2026-04-06T14:15:59Z</time></trkpt><trkpt lat="46.416852438333464" lon="12.788144336406898"><ele>582.5</ele><time>2026-04-06T14:16:00Z</time></trkpt><trkpt lat="46.41693902680974" lon="12.788172425234588"><ele>581.6666666666667</ele><time>2026-04-06T14:16:01Z</time></trkpt><trkpt lat="46.41702360469622" lon="12.788209762354759"><ele>580.8333333333334</ele><time>2026-04-06T14:16:02Z</time></trkpt><trkpt lat="46.4171040346196" lon="12.788261021239565"><ele>580.0</ele><time>2026-04-06T14:16:03Z</time></trkpt><trkpt lat="46.41717959323464" lon="12.788330176281361"><ele>579.5</ele><time>2026-04-06T14:16:04Z</time></trkpt><trkpt lat="46.41724914950824" lon="12.78841455101811"><ele>579.0</ele><time>2026-04-06T14:16:05Z</time></trkpt><trkpt lat="46.417308046648245" lon="12.78851264171226"><ele>578.5</ele><time>2026-04-06T14:16:06Z</time></trkpt><trkpt lat="46.417369723972655" lon="12.788604550134062"><ele>578.0</ele><time>2026-04-06T14:16:07Z</time></trkpt><trkpt lat="46.417435168624245" lon="12.788694165461992"><ele>577.5</ele><time>2026-04-06T14:16:08Z</time></trkpt><trkpt lat="46.41748792691123" lon="12.788797758386488"><ele>577.0</ele><time>2026-04-06T14:16:09Z</time></trkpt><trkpt lat="46.41752795816931" lon="12.78890429611061"><ele>576.0</ele><time>2026-04-06T14:16:10Z</time></trkpt><trkpt lat="46.417548806653855" lon="12.78902472797693"><ele>575.0</ele><time>2026-04-06T14:16:11Z</time></trkpt><trkpt lat="46.41755390676939" lon="12.789149471302844"><ele>574.0</ele><time>2026-04-06T14:16:12Z</time></trkpt><trkpt lat="46.41753996760622" lon="12.7892802116635"><ele>573.0</ele><time>2026-04-06T14:16:13Z</time></trkpt><trkpt lat="46.41750300627468" lon="12.78941921027992"><ele>572.0</ele><time>2026-04-06T14:16:14Z</time></trkpt><trkpt lat="46.41744861142717" lon="12.789562121991183"><ele>571.5</ele><time>2026-04-06T14:16:15Z</time></trkpt><trkpt lat="46.41739259306311" lon="12.789719375609128"><ele>571.0</ele><time>2026-04-06T14:16:16Z</time></trkpt><trkpt lat="46.41734144989264" lon="12.789878784699315"><ele>570.5</ele><time>2026-04-06T14:16:17Z</time></trkpt><trkpt lat="46.41729134353899" lon="12.79003050705193"><ele>570.0</ele><time>2026-04-06T14:16:18Z</time></trkpt><trkpt lat="46.417242551161664" lon="12.790176223613816"><ele>569.6</ele><time>2026-04-06T14:16:19Z</time></trkpt><trkpt lat="46.41719195107652" lon="12.790317965774811"><ele>569.2</ele><time>2026-04-06T14:16:20Z</time></trkpt><trkpt lat="46.41714163112277" lon="12.790453545273632"><ele>568.8</ele><time>2026-04-06T14:16:21Z</time></trkpt><trkpt lat="46.41709385528565" lon="12.79058056452377"><ele>568.4</ele><time>2026-04-06T14:16:22Z</time></trkpt><trkpt lat="46.41704933492705" lon="12.790699372404287"><ele>568.0</ele><time>2026-04-06T14:16:23Z</time></trkpt><trkpt lat="46.416999956558556" lon="12.790807446129993"><ele>567.6</ele><time>2026-04-06T14:16:24Z</time></trkpt><trkpt lat="46.41693192196533" lon="12.790888245274177"><ele>567.1999999999999</ele><time>2026-04-06T14:16:25Z</time></trkpt><trkpt lat="46.41684810899726" lon="12.790945344251762"><ele>566.8</ele><time>2026-04-06T14:16:26Z</time></trkpt><trkpt lat="46.41675705911491" lon="12.790964198426803"><ele>566.4</ele><time>2026-04-06T14:16:27Z</time></trkpt><trkpt lat="46.416660574446894" lon="12.79096565877919"><ele>566.0</ele><time>2026-04-06T14:16:28Z</time></trkpt><trkpt lat="46.41656598557668" lon="12.790948309712718"><ele>566.0</ele><time>2026-04-06T14:16:29Z</time></trkpt><trkpt lat="46.41648028703703" lon="12.790929859164857"><ele>566.0</ele><time>2026-04-06T14:16:30Z</time></trkpt><trkpt lat="46.416399997684906" lon="12.790918592331847"><ele>566.0</ele><time>2026-04-06T14:16:31Z</time></trkpt><trkpt lat="46.41632876606716" lon="12.790945064165669"><ele>566.0</ele><time>2026-04-06T14:16:32Z</time></trkpt><trkpt lat="46.416265041764845" lon="12.791015092617226"><ele>566.0</ele><time>2026-04-06T14:16:33Z</time></trkpt><trkpt lat="46.41622540841733" lon="12.791121529709732"><ele>566.0</ele><time>2026-04-06T14:16:34Z</time></trkpt><trkpt lat="46.416212548686836" lon="12.79124234244018"><ele>565.0</ele><time>2026-04-06T14:16:35Z</time></trkpt><trkpt lat="46.41620667765639" lon="12.791363437581456"><ele>564.0</ele><time>2026-04-06T14:16:36Z</time></trkpt><trkpt lat="46.416203058791275" lon="12.79148547655765"><ele>563.0</ele><time>2026-04-06T14:16:37Z</time></trkpt><trkpt lat="46.41620597416799" lon="12.79161072839336"><ele>562.0</ele><time>2026-04-06T14:16:38Z</time></trkpt><trkpt lat="46.41622352878203" lon="12.791733353861462"><ele>561.0</ele><time>2026-04-06T14:16:39Z</time></trkpt><trkpt lat="46.416242193226296" lon="12.791855847025278"><ele>560.0</ele><time>2026-04-06T14:16:40Z</time></trkpt><trkpt lat="46.41627578185883" lon="12.792002195064951"><ele>560.0</ele><time>2026-04-06T14:16:41Z</time></trkpt><trkpt lat="46.416309210633926" lon="12.792160503262243"><ele>560.0</ele><time>2026-04-06T14:16:42Z</time></trkpt><trkpt lat="46.41634929544246" lon="12.792296091060601"><ele>560.0</ele><time>2026-04-06T14:16:43Z</time></trkpt><trkpt lat="46.41639686152719" lon="12.792425493071459"><ele>560.0</ele><time>2026-04-06T14:16:44Z</time></trkpt><trkpt lat="46.41644584637426" lon="12.792542237626146"><ele>560.0</ele><time>2026-04-06T14:16:45Z</time></trkpt><trkpt lat="46.4164958239106" lon="12.79265256075088"><ele>560.8</ele><time>2026-04-06T14:16:46Z</time></trkpt><trkpt lat="46.41654062421412" lon="12.792777426327817"><ele>561.6</ele><time>2026-04-06T14:16:47Z</time></trkpt><trkpt lat="46.41656619144406" lon="12.792907817533695"><ele>562.4</ele><time>2026-04-06T14:16:48Z</time></trkpt><trkpt lat="46.41658234941534" lon="12.7930402010227"><ele>563.2</ele><time>2026-04-06T14:16:49Z</time></trkpt><trkpt lat="46.41658762816167" lon="12.793177041656126"><ele>564.0</ele><time>2026-04-06T14:16:50Z</time></trkpt><trkpt lat="46.416587318644105" lon="12.793317059686457"><ele>564.0</ele><time>2026-04-06T14:16:51Z</time></trkpt><trkpt lat="46.41656661181012" lon="12.79345498109743"><ele>564.0</ele><time>2026-04-06T14:16:52Z</time></trkpt><trkpt lat="46.41653278580274" lon="12.793590603097437"><ele>564.0</ele><time>2026-04-06T14:16:53Z</time></trkpt><trkpt lat="46.41649082678025" lon="12.793726512829304"><ele>564.0</ele><time>2026-04-06T14:16:54Z</time></trkpt><trkpt lat="46.41644505631327" lon="12.793862402658924"><ele>564.0</ele><time>2026-04-06T14:16:55Z</time></trkpt><trkpt lat="46.416405557436434" lon="12.793986435655825"><ele>563.4</ele><time>2026-04-06T14:16:56Z</time></trkpt><trkpt lat="46.416366553037165" lon="12.794105045104592"><ele>562.8</ele><time>2026-04-06T14:16:57Z</time></trkpt><trkpt lat="46.41633732408296" lon="12.794234146286074"><ele>562.2</ele><time>2026-04-06T14:16:58Z</time></trkpt><trkpt lat="46.41633182796398" lon="12.794375098386496"><ele>561.6</ele><time>2026-04-06T14:16:58.999Z</time></trkpt><trkpt lat="46.416348377062185" lon="12.79451140365055"><ele>561.0</ele><time>2026-04-06T14:16:59.999Z</time></trkpt><trkpt lat="46.41636395263389" lon="12.794642459048113"><ele>560.2</ele><time>2026-04-06T14:17:00.999Z</time></trkpt><trkpt lat="46.41635779987045" lon="12.79477399035637"><ele>559.4000000000001</ele><time>2026-04-06T14:17:01.999Z</time></trkpt><trkpt lat="46.41633149771958" lon="12.794906297606103"><ele>558.6</ele><time>2026-04-06T14:17:03Z</time></trkpt><trkpt lat="46.41628308494001" lon="12.795020338171971"><ele>557.8000000000001</ele><time>2026-04-06T14:17:04Z</time></trkpt><trkpt lat="46.41622043498931" lon="12.79513368567465"><ele>557.0</ele><time>2026-04-06T14:17:05Z</time></trkpt><trkpt lat="46.41614676858647" lon="12.795261597000785"><ele>556.5</ele><time>2026-04-06T14:17:06Z</time></trkpt><trkpt lat="46.41607193800682" lon="12.795417637854195"><ele>556.0</ele><time>2026-04-06T14:17:07Z</time></trkpt><trkpt lat="46.41598161955774" lon="12.795585770087792"><ele>555.5</ele><time>2026-04-06T14:17:08Z</time></trkpt><trkpt lat="46.415910327196436" lon="12.79580021965611"><ele>555.0</ele><time>2026-04-06T14:17:09Z</time></trkpt><trkpt lat="46.41582734080057" lon="12.796009727227867"><ele>555.0</ele><time>2026-04-06T14:17:10Z</time></trkpt><trkpt lat="46.41574896223384" lon="12.796207611292555"><ele>555.0</ele><time>2026-04-06T14:17:11Z</time></trkpt><trkpt lat="46.41566283700509" lon="12.796391447059484"><ele>555.0</ele><time>2026-04-06T14:17:12Z</time></trkpt><trkpt lat="46.4155651742324" lon="12.796577608827594"><ele>555.0</ele><time>2026-04-06T14:17:13Z</time></trkpt><trkpt lat="46.41547643398112" lon="12.79677043180615"><ele>555.0</ele><time>2026-04-06T14:17:14Z</time></trkpt><trkpt lat="46.415392393916555" lon="12.796961924896117"><ele>555.0</ele><time>2026-04-06T14:17:15Z</time></trkpt><trkpt lat="46.41530095535693" lon="12.797169450295405"><ele>555.0</ele><time>2026-04-06T14:17:16Z</time></trkpt><trkpt lat="46.415209219238456" lon="12.79738554143891"><ele>555.0</ele><time>2026-04-06T14:17:17Z</time></trkpt><trkpt lat="46.415113776007175" lon="12.797606528932976"><ele>555.0</ele><time>2026-04-06T14:17:18Z</time></trkpt><trkpt lat="46.415014421923196" lon="12.79782877644097"><ele>555.0</ele><time>2026-04-06T14:17:19Z</time></trkpt><trkpt lat="46.41491656541946" lon="12.79805100805422"><ele>555.0</ele><time>2026-04-06T14:17:20Z</time></trkpt><trkpt lat="46.41482325371424" lon="12.798267348033658"><ele>555.0</ele><time>2026-04-06T14:17:21Z</time></trkpt><trkpt lat="46.41473631863384" lon="12.798473157270864"><ele>552.6666666666666</ele><time>2026-04-06T14:17:22Z</time></trkpt><trkpt lat="46.41464945008445" lon="12.798670825437378"><ele>550.3333333333333</ele><time>2026-04-06T14:17:23Z</time></trkpt><trkpt lat="46.41456280254782" lon="12.7988660820102"><ele>548.0</ele><time>2026-04-06T14:17:24Z</time></trkpt><trkpt lat="46.41448189648101" lon="12.799052395648513"><ele>548.0</ele><time>2026-04-06T14:17:25Z</time></trkpt><trkpt lat="46.414404085107535" lon="12.799235365559989"><ele>548.0</ele><time>2026-04-06T14:17:26Z</time></trkpt><trkpt lat="46.4143214257676" lon="12.799405368790074"><ele>548.0</ele><time>2026-04-06T14:17:27Z</time></trkpt><trkpt lat="46.414219063349975" lon="12.799552518829518"><ele>548.0</ele><time>2026-04-06T14:17:28Z</time></trkpt><trkpt lat="46.41409318494703" lon="12.799676906770577"><ele>549.25</ele><time>2026-04-06T14:17:29Z</time></trkpt><trkpt lat="46.413962093192865" lon="12.799759398738244"><ele>550.5</ele><time>2026-04-06T14:17:30Z</time></trkpt><trkpt lat="46.413834309691524" lon="12.79980794141344"><ele>551.75</ele><time>2026-04-06T14:17:31Z</time></trkpt><trkpt lat="46.413710343059286" lon="12.799859574720408"><ele>553.0</ele><time>2026-04-06T14:17:32Z</time></trkpt><trkpt lat="46.41360032224776" lon="12.799939629346555"><ele>550.25</ele><time>2026-04-06T14:17:33Z</time></trkpt><trkpt lat="46.41350391865556" lon="12.800043363967754"><ele>547.5</ele><time>2026-04-06T14:17:34Z</time></trkpt><trkpt lat="46.41342338401215" lon="12.800174196811842"><ele>544.75</ele><time>2026-04-06T14:17:35Z</time></trkpt><trkpt lat="46.413362405735896" lon="12.800328232640984"><ele>542.0</ele><time>2026-04-06T14:17:36Z</time></trkpt><trkpt lat="46.41331351380659" lon="12.800494501493434"><ele>542.0</ele><time>2026-04-06T14:17:37Z</time></trkpt><trkpt lat="46.41327733750028" lon="12.800673587442848"><ele>542.0</ele><time>2026-04-06T14:17:38Z</time></trkpt><trkpt lat="46.41324648710064" lon="12.800867717296873"><ele>542.0</ele><time>2026-04-06T14:17:39Z</time></trkpt><trkpt lat="46.413211927767996" lon="12.801065558633717"><ele>542.0</ele><time>2026-04-06T14:17:40Z</time></trkpt><trkpt lat="46.4131871482183" lon="12.801269619747643"><ele>542.0</ele><time>2026-04-06T14:17:41Z</time></trkpt><trkpt lat="46.41318193211566" lon="12.80148174116976"><ele>542.0</ele><time>2026-04-06T14:17:42Z</time></trkpt><trkpt lat="46.413189981699645" lon="12.80168143340169"><ele>542.0</ele><time>2026-04-06T14:17:43Z</time></trkpt><trkpt lat="46.413213105687184" lon="12.801881838350129"><ele>542.0</ele><time>2026-04-06T14:17:44Z</time></trkpt><trkpt lat="46.41325629687105" lon="12.802079025309316"><ele>542.0</ele><time>2026-04-06T14:17:45Z</time></trkpt><trkpt lat="46.413310940838834" lon="12.802268323772696"><ele>542.0</ele><time>2026-04-06T14:17:46Z</time></trkpt><trkpt lat="46.41337100177066" lon="12.80245562391835"><ele>542.0</ele><time>2026-04-06T14:17:47Z</time></trkpt><trkpt lat="46.41343063804367" lon="12.802661613779371"><ele>542.0</ele><time>2026-04-06T14:17:48Z</time></trkpt><trkpt lat="46.41349197860557" lon="12.802884507644244"><ele>540.3333333333333</ele><time>2026-04-06T14:17:49Z</time></trkpt><trkpt lat="46.4135583825559" lon="12.80311028270699"><ele>538.6666666666666</ele><time>2026-04-06T14:17:50Z</time></trkpt><trkpt lat="46.41361638575757" lon="12.80331731188882"><ele>537.0</ele><time>2026-04-06T14:17:51Z</time></trkpt><trkpt lat="46.41366172747315" lon="12.803523599355927"><ele>536.5</ele><time>2026-04-06T14:17:52Z</time></trkpt><trkpt lat="46.4136843126443" lon="12.803730720295244"><ele>536.0</ele><time>2026-04-06T14:17:53Z</time></trkpt><trkpt lat="46.413681676969425" lon="12.803939656412053"><ele>535.5</ele><time>2026-04-06T14:17:54Z</time></trkpt><trkpt lat="46.413660318813996" lon="12.804150011661235"><ele>535.0</ele><time>2026-04-06T14:17:55Z</time></trkpt><trkpt lat="46.41361729466321" lon="12.804355802441666"><ele>536.5</ele><time>2026-04-06T14:17:56Z</time></trkpt><trkpt lat="46.41355020830465" lon="12.804548695770267"><ele>538.0</ele><time>2026-04-06T14:17:57Z</time></trkpt><trkpt lat="46.4134617287704" lon="12.804713735428185"><ele>539.5</ele><time>2026-04-06T14:17:58Z</time></trkpt><trkpt lat="46.41335463548181" lon="12.8048564205119"><ele>541.0</ele><time>2026-04-06T14:17:59Z</time></trkpt><trkpt lat="46.4132293043591" lon="12.804972793192245"><ele>541.0</ele><time>2026-04-06T14:18:00Z</time></trkpt><trkpt lat="46.413092968524126" lon="12.80506266380556"><ele>541.0</ele><time>2026-04-06T14:18:01Z</time></trkpt><trkpt lat="46.412950672486396" lon="12.80512347197231"><ele>541.0</ele><time>2026-04-06T14:18:02Z</time></trkpt><trkpt lat="46.41280977788277" lon="12.805181100578666"><ele>541.0</ele><time>2026-04-06T14:18:03Z</time></trkpt><trkpt lat="46.41266906534801" lon="12.805241084110381"><ele>540.0</ele><time>2026-04-06T14:18:04Z</time></trkpt><trkpt lat="46.41252474017857" lon="12.80530800725969"><ele>539.0</ele><time>2026-04-06T14:18:05Z</time></trkpt><trkpt lat="46.41237375214514" lon="12.805378326634104"><ele>538.0</ele><time>2026-04-06T14:18:06Z</time></trkpt><trkpt lat="46.41221483994038" lon="12.805434625165654"><ele>535.3333333333334</ele><time>2026-04-06T14:18:07Z</time></trkpt><trkpt lat="46.41205144279066" lon="12.805481514725528"><ele>532.6666666666666</ele><time>2026-04-06T14:18:08Z</time></trkpt><trkpt lat="46.411891600269286" lon="12.805495558429515"><ele>530.0</ele><time>2026-04-06T14:18:09Z</time></trkpt><trkpt lat="46.41172554001843" lon="12.805483557013968"><ele>530.0</ele><time>2026-04-06T14:18:10Z</time></trkpt><trkpt lat="46.4115599720523" lon="12.805472113850907"><ele>530.0</ele><time>2026-04-06T14:18:11Z</time></trkpt><trkpt lat="46.41141425496205" lon="12.805474962748201"><ele>530.0</ele><time>2026-04-06T14:18:12Z</time></trkpt><trkpt lat="46.4112787619884" lon="12.80549255018365"><ele>530.0</ele><time>2026-04-06T14:18:13Z</time></trkpt><trkpt lat="46.41114363170248" lon="12.80552196757654"><ele>529.75</ele><time>2026-04-06T14:18:14Z</time></trkpt><trkpt lat="46.41101463554964" lon="12.805570156989276"><ele>529.5</ele><time>2026-04-06T14:18:15Z</time></trkpt><trkpt lat="46.41089042972748" lon="12.805635361777947"><ele>529.25</ele><time>2026-04-06T14:18:16Z</time></trkpt><trkpt lat="46.41076883549755" lon="12.80570338040509"><ele>529.0</ele><time>2026-04-06T14:18:17Z</time></trkpt><trkpt lat="46.41064680568778" lon="12.805772615319153"><ele>529.0</ele><time>2026-04-06T14:18:18Z</time></trkpt><trkpt lat="46.41052240562023" lon="12.805835308429167"><ele>529.0</ele><time>2026-04-06T14:18:19Z</time></trkpt><trkpt lat="46.410394102493655" lon="12.805878128847846"><ele>529.0</ele><time>2026-04-06T14:18:20Z</time></trkpt><trkpt lat="46.41026425704772" lon="12.805894329401955"><ele>529.0</ele><time>2026-04-06T14:18:21Z</time></trkpt><trkpt lat="46.41013436141548" lon="12.805876198452427"><ele>528.5</ele><time>2026-04-06T14:18:22Z</time></trkpt><trkpt lat="46.41000363473381" lon="12.805834779165147"><ele>528.0</ele><time>2026-04-06T14:18:23Z</time></trkpt><trkpt lat="46.409867891224366" lon="12.80578592553609"><ele>527.5</ele><time>2026-04-06T14:18:24Z</time></trkpt><trkpt lat="46.40971859465567" lon="12.80572343935431"><ele>527.0</ele><time>2026-04-06T14:18:25Z</time></trkpt><trkpt lat="46.409565928993196" lon="12.805655525434705"><ele>526.6666666666666</ele><time>2026-04-06T14:18:26Z</time></trkpt><trkpt lat="46.40940543783529" lon="12.80558904782953"><ele>526.3333333333334</ele><time>2026-04-06T14:18:27Z</time></trkpt><trkpt lat="46.4092348203985" lon="12.805514258452087"><ele>526.0</ele><time>2026-04-06T14:18:28Z</time></trkpt><trkpt lat="46.409055176854835" lon="12.805431223970235"><ele>526.0</ele><time>2026-04-06T14:18:29Z</time></trkpt><trkpt lat="46.408867030764064" lon="12.80534864648711"><ele>526.0</ele><time>2026-04-06T14:18:30Z</time></trkpt><trkpt lat="46.408668285619484" lon="12.805262672869082"><ele>526.0</ele><time>2026-04-06T14:18:31Z</time></trkpt><trkpt lat="46.408461730017436" lon="12.805173564265242"><ele>524.3333333333334</ele><time>2026-04-06T14:18:32Z</time></trkpt><trkpt lat="46.40825502199079" lon="12.8050852234975"><ele>522.6666666666666</ele><time>2026-04-06T14:18:33Z</time></trkpt><trkpt lat="46.40805881352659" lon="12.80500340671758"><ele>521.0</ele><time>2026-04-06T14:18:34Z</time></trkpt><trkpt lat="46.40788216055531" lon="12.80492757180621"><ele>521.0</ele><time>2026-04-06T14:18:35Z</time></trkpt><trkpt lat="46.40772239805969" lon="12.804845146300634"><ele>521.0</ele><time>2026-04-06T14:18:36Z</time></trkpt><trkpt lat="46.4075727834725" lon="12.804737480812376"><ele>521.0</ele><time>2026-04-06T14:18:37Z</time></trkpt><trkpt lat="46.407423189353665" lon="12.804593318177014"><ele>521.0</ele><time>2026-04-06T14:18:38Z</time></trkpt><trkpt lat="46.40728940963782" lon="12.80440171972421"><ele>521.0</ele><time>2026-04-06T14:18:39Z</time></trkpt><trkpt lat="46.40713041900464" lon="12.804238072088726"><ele>521.0</ele><time>2026-04-06T14:18:40Z</time></trkpt><trkpt lat="46.40697159914507" lon="12.804039541873761"><ele>523.3333333333333</ele><time>2026-04-06T14:18:41Z</time></trkpt><trkpt lat="46.4068064349457" lon="12.803840814126815"><ele>525.6666666666666</ele><time>2026-04-06T14:18:42Z</time></trkpt><trkpt lat="46.40666653726737" lon="12.803665018764887"><ele>528.0</ele><time>2026-04-06T14:18:43Z</time></trkpt><trkpt lat="46.406543360807525" lon="12.80351041168664"><ele>528.0</ele><time>2026-04-06T14:18:44Z</time></trkpt><trkpt lat="46.40643150015779" lon="12.803374792400026"><ele>528.0</ele><time>2026-04-06T14:18:45Z</time></trkpt><trkpt lat="46.40633271926407" lon="12.803267163794928"><ele>528.0</ele><time>2026-04-06T14:18:46Z</time></trkpt><trkpt lat="46.40623598824522" lon="12.80319650501531"><ele>528.0</ele><time>2026-04-06T14:18:47Z</time></trkpt><trkpt lat="46.4061385002488" lon="12.803173200780138"><ele>528.8</ele><time>2026-04-06T14:18:48Z</time></trkpt><trkpt lat="46.406042092087965" lon="12.803208694272362"><ele>529.5999999999999</ele><time>2026-04-06T14:18:49Z</time></trkpt><trkpt lat="46.40595649294536" lon="12.803287011345661"><ele>530.4000000000001</ele><time>2026-04-06T14:18:50Z</time></trkpt><trkpt lat="46.40588571909707" lon="12.803397881788026"><ele>531.2</ele><time>2026-04-06T14:18:51Z</time></trkpt><trkpt lat="46.40580123487201" lon="12.80352100441705"><ele>532.0</ele><time>2026-04-06T14:18:52Z</time></trkpt><trkpt lat="46.4057123643971" lon="12.803629218540108"><ele>532.0</ele><time>2026-04-06T14:18:53Z</time></trkpt><trkpt lat="46.40562952925051" lon="12.803714011030491"><ele>532.0</ele><time>2026-04-06T14:18:54Z</time></trkpt><trkpt lat="46.40553526461611" lon="12.803759953650477"><ele>532.0</ele><time>2026-04-06T14:18:55Z</time></trkpt><trkpt lat="46.40543132030694" lon="12.803749944786357"><ele>532.0</ele><time>2026-04-06T14:18:56Z</time></trkpt><trkpt lat="46.405344330217886" lon="12.803681943412737"><ele>532.0</ele><time>2026-04-06T14:18:57Z</time></trkpt><trkpt lat="46.40528300911873" lon="12.803572768015222"><ele>529.0</ele><time>2026-04-06T14:18:58Z</time></trkpt><trkpt lat="46.40525834345088" lon="12.803419860554625"><ele>526.0</ele><time>2026-04-06T14:18:59Z</time></trkpt><trkpt lat="46.40520788975475" lon="12.80324742862386"><ele>523.0</ele><time>2026-04-06T14:19:00Z</time></trkpt><trkpt lat="46.405174160111336" lon="12.803070791337667"><ele>520.0</ele><time>2026-04-06T14:19:01Z</time></trkpt><trkpt lat="46.40514258293265" lon="12.80289933512155"><ele>520.0</ele><time>2026-04-06T14:19:02Z</time></trkpt><trkpt lat="46.405128376654645" lon="12.802739653610837"><ele>520.0</ele><time>2026-04-06T14:19:02.999Z</time></trkpt><trkpt lat="46.40514943171467" lon="12.802579089344228"><ele>520.0</ele><time>2026-04-06T14:19:03.999Z</time></trkpt><trkpt lat="46.405196205946766" lon="12.802435580701603"><ele>520.0</ele><time>2026-04-06T14:19:04.999Z</time></trkpt><trkpt lat="46.40523444975394" lon="12.80231218879111"><ele>520.0</ele><time>2026-04-06T14:19:05.999Z</time></trkpt><trkpt lat="46.40524861629757" lon="12.802189383315582"><ele>521.3333333333334</ele><time>2026-04-06T14:19:06.999Z</time></trkpt><trkpt lat="46.405232806105474" lon="12.802067716101503"><ele>522.6666666666667</ele><time>2026-04-06T14:19:07.999Z</time></trkpt><trkpt lat="46.405183098185944" lon="12.801980727626187"><ele>524.0</ele><time>2026-04-06T14:19:09Z</time></trkpt><trkpt lat="46.40512486541766" lon="12.801934229010415"><ele>525.3333333333334</ele><time>2026-04-06T14:19:10Z</time></trkpt><trkpt lat="46.40505308732058" lon="12.801916997938227"><ele>526.6666666666666</ele><time>2026-04-06T14:19:11Z</time></trkpt><trkpt lat="46.404978883572156" lon="12.801955517313807"><ele>528.0</ele><time>2026-04-06T14:19:12Z</time></trkpt><trkpt lat="46.40492467857692" lon="12.802040726644448"><ele>528.0</ele><time>2026-04-06T14:19:13Z</time></trkpt><trkpt lat="46.40489119917745" lon="12.802157405746867"><ele>528.0</ele><time>2026-04-06T14:19:14Z</time></trkpt><trkpt lat="46.40488768046962" lon="12.802290532187703"><ele>528.0</ele><time>2026-04-06T14:19:15Z</time></trkpt><trkpt lat="46.40490707807256" lon="12.80242917290539"><ele>528.0</ele><time>2026-04-06T14:19:16Z</time></trkpt><trkpt lat="46.40493385093171" lon="12.80259266855204"><ele>528.0</ele><time>2026-04-06T14:19:17Z</time></trkpt><trkpt lat="46.40496290558096" lon="12.802782537074501"><ele>525.3333333333334</ele><time>2026-04-06T14:19:18Z</time></trkpt><trkpt lat="46.40499373105396" lon="12.80300093906844"><ele>522.6666666666667</ele><time>2026-04-06T14:19:19Z</time></trkpt><trkpt lat="46.40502310232012" lon="12.803251694740174"><ele>520.0</ele><time>2026-04-06T14:19:20Z</time></trkpt><trkpt lat="46.40504943076092" lon="12.803501811020197"><ele>518.0</ele><time>2026-04-06T14:19:21Z</time></trkpt><trkpt lat="46.40507730528123" lon="12.803742616033853"><ele>516.0</ele><time>2026-04-06T14:19:22Z</time></trkpt><trkpt lat="46.40510967416818" lon="12.80396620480627"><ele>514.0</ele><time>2026-04-06T14:19:23Z</time></trkpt><trkpt lat="46.40513883424834" lon="12.804177512969067"><ele>513.0</ele><time>2026-04-06T14:19:24Z</time></trkpt><trkpt lat="46.40514920829629" lon="12.804391998615959"><ele>512.0</ele><time>2026-04-06T14:19:25Z</time></trkpt><trkpt lat="46.4051363861077" lon="12.804605315814731"><ele>511.0</ele><time>2026-04-06T14:19:26Z</time></trkpt><trkpt lat="46.40510786813535" lon="12.804816065149943"><ele>510.0</ele><time>2026-04-06T14:19:27Z</time></trkpt><trkpt lat="46.405089554143906" lon="12.805022027918506"><ele>509.5</ele><time>2026-04-06T14:19:28Z</time></trkpt><trkpt lat="46.40508522584934" lon="12.805210347811611"><ele>509.0</ele><time>2026-04-06T14:19:29Z</time></trkpt><trkpt lat="46.40509445968057" lon="12.805380191950473"><ele>508.5</ele><time>2026-04-06T14:19:30Z</time></trkpt><trkpt lat="46.40512869434983" lon="12.805529429387278"><ele>508.0</ele><time>2026-04-06T14:19:31Z</time></trkpt><trkpt lat="46.40518215163465" lon="12.80565838411259"><ele>508.0</ele><time>2026-04-06T14:19:32Z</time></trkpt><trkpt lat="46.40524939800147" lon="12.80576608603731"><ele>507.99999999999994</ele><time>2026-04-06T14:19:33Z</time></trkpt><trkpt lat="46.40532428867057" lon="12.805868166625327"><ele>507.99999999999994</ele><time>2026-04-06T14:19:34Z</time></trkpt><trkpt lat="46.4053967511096" lon="12.805994671128488"><ele>508.0</ele><time>2026-04-06T14:19:35Z</time></trkpt><trkpt lat="46.40544372484242" lon="12.806143939636351"><ele>508.0</ele><time>2026-04-06T14:19:36Z</time></trkpt><trkpt lat="46.40545883991465" lon="12.80631078978274"><ele>506.25</ele><time>2026-04-06T14:19:37Z</time></trkpt><trkpt lat="46.40545969589075" lon="12.806479713973832"><ele>504.5</ele><time>2026-04-06T14:19:38Z</time></trkpt><trkpt lat="46.405461294885896" lon="12.806651606630275"><ele>502.75</ele><time>2026-04-06T14:19:39Z</time></trkpt><trkpt lat="46.40546701369065" lon="12.806833034635602"><ele>501.0</ele><time>2026-04-06T14:19:40Z</time></trkpt><trkpt lat="46.405472997257654" lon="12.807023550210657"><ele>501.5</ele><time>2026-04-06T14:19:41Z</time></trkpt><trkpt lat="46.40546537715126" lon="12.807216593451912"><ele>502.0</ele><time>2026-04-06T14:19:42Z</time></trkpt><trkpt lat="46.405428836961384" lon="12.807406399755504"><ele>502.5</ele><time>2026-04-06T14:19:43Z</time></trkpt><trkpt lat="46.405371730420654" lon="12.807600195236521"><ele>503.0</ele><time>2026-04-06T14:19:44Z</time></trkpt><trkpt lat="46.40531476867998" lon="12.807802202249581"><ele>503.0</ele><time>2026-04-06T14:19:45Z</time></trkpt><trkpt lat="46.405254897215244" lon="12.807981529055258"><ele>503.0</ele><time>2026-04-06T14:19:46Z</time></trkpt><trkpt lat="46.405171099333614" lon="12.808126176027438"><ele>503.0</ele><time>2026-04-06T14:19:47Z</time></trkpt><trkpt lat="46.40508324730516" lon="12.808268057070006"><ele>503.0</ele><time>2026-04-06T14:19:48Z</time></trkpt><trkpt lat="46.40501922647976" lon="12.808439113084567"><ele>504.25</ele><time>2026-04-06T14:19:49Z</time></trkpt><trkpt lat="46.40497219882878" lon="12.80862251035081"><ele>505.5</ele><time>2026-04-06T14:19:50Z</time></trkpt><trkpt lat="46.40491987469294" lon="12.808812054515428"><ele>506.75</ele><time>2026-04-06T14:19:51Z</time></trkpt><trkpt lat="46.40486138184273" lon="12.80901202832624"><ele>508.0</ele><time>2026-04-06T14:19:52Z</time></trkpt><trkpt lat="46.40480655377098" lon="12.809210727514895"><ele>505.25</ele><time>2026-04-06T14:19:53Z</time></trkpt><trkpt lat="46.40475406396439" lon="12.809397874790399"><ele>502.5</ele><time>2026-04-06T14:19:54Z</time></trkpt><trkpt lat="46.40471547690824" lon="12.809577034956032"><ele>499.75</ele><time>2026-04-06T14:19:55Z</time></trkpt><trkpt lat="46.4046996409925" lon="12.809761643134582"><ele>497.0</ele><time>2026-04-06T14:19:56Z</time></trkpt><trkpt lat="46.4047103659424" lon="12.809946889602909"><ele>497.0</ele><time>2026-04-06T14:19:57Z</time></trkpt><trkpt lat="46.404735169158265" lon="12.810136578091146"><ele>497.0</ele><time>2026-04-06T14:19:58Z</time></trkpt><trkpt lat="46.40476342929701" lon="12.810334847353012"><ele>497.0</ele><time>2026-04-06T14:19:59Z</time></trkpt><trkpt lat="46.404786441107966" lon="12.810538755745688"><ele>497.0</ele><time>2026-04-06T14:20:00Z</time></trkpt><trkpt lat="46.40480246237636" lon="12.81073944828727"><ele>497.0</ele><time>2026-04-06T14:20:01Z</time></trkpt><trkpt lat="46.40480404370126" lon="12.81094004431527"><ele>497.0</ele><time>2026-04-06T14:20:02Z</time></trkpt><trkpt lat="46.404767719843406" lon="12.811131783138299"><ele>497.0</ele><time>2026-04-06T14:20:03Z</time></trkpt><trkpt lat="46.40470147710312" lon="12.811322120814488"><ele>497.0</ele><time>2026-04-06T14:20:04Z</time></trkpt><trkpt lat="46.40464789876221" lon="12.811526727779745"><ele>487.66666666666663</ele><time>2026-04-06T14:20:05Z</time></trkpt><trkpt lat="46.40462011971518" lon="12.811739657906555"><ele>478.33333333333337</ele><time>2026-04-06T14:20:06Z</time></trkpt><trkpt lat="46.404600465689434" lon="12.811954058012951"><ele>469.0</ele><time>2026-04-06T14:20:07Z</time></trkpt><trkpt lat="46.40458149001074" lon="12.812186676156614"><ele>468.33333333333337</ele><time>2026-04-06T14:20:08Z</time></trkpt><trkpt lat="46.40455365866266" lon="12.812432182342441"><ele>467.66666666666663</ele><time>2026-04-06T14:20:09Z</time></trkpt><trkpt lat="46.40451615761942" lon="12.812678249333958"><ele>467.0</ele><time>2026-04-06T14:20:10Z</time></trkpt><trkpt lat="46.40448206887986" lon="12.812902634051555"><ele>466.8</ele><time>2026-04-06T14:20:11Z</time></trkpt><trkpt lat="46.40445341359078" lon="12.813101472344899"><ele>466.6</ele><time>2026-04-06T14:20:12Z</time></trkpt><trkpt lat="46.40443265056778" lon="12.81326418566189"><ele>466.40000000000003</ele><time>2026-04-06T14:20:13Z</time></trkpt><trkpt lat="46.40442309694805" lon="12.813401703063898"><ele>466.20000000000005</ele><time>2026-04-06T14:20:14Z</time></trkpt><trkpt lat="46.40444158658256" lon="12.813525195036092"><ele>466.0</ele><time>2026-04-06T14:20:15Z</time></trkpt><trkpt lat="46.404493778544236" lon="12.813629956799462"><ele>464.4</ele><time>2026-04-06T14:20:16Z</time></trkpt><trkpt lat="46.404572639206805" lon="12.813711362990059"><ele>462.8</ele><time>2026-04-06T14:20:17Z</time></trkpt><trkpt lat="46.404669787100794" lon="12.813752001712414"><ele>461.19999999999993</ele><time>2026-04-06T14:20:18Z</time></trkpt><trkpt lat="46.40476492691278" lon="12.813770727717285"><ele>459.59999999999997</ele><time>2026-04-06T14:20:19Z</time></trkpt><trkpt lat="46.40485837854714" lon="12.813784829682646"><ele>458.0</ele><time>2026-04-06T14:20:20Z</time></trkpt><trkpt lat="46.40493699965022" lon="12.813844056388342"><ele>461.2</ele><time>2026-04-06T14:20:21Z</time></trkpt><trkpt lat="46.40497979376443" lon="12.81395976735001"><ele>464.4</ele><time>2026-04-06T14:20:22Z</time></trkpt><trkpt lat="46.40499717158438" lon="12.81409380594897"><ele>467.59999999999997</ele><time>2026-04-06T14:20:23Z</time></trkpt><trkpt lat="46.40497750754181" lon="12.81423085683282"><ele>470.79999999999995</ele><time>2026-04-06T14:20:24Z</time></trkpt><trkpt lat="46.404926825237034" lon="12.814361028739905"><ele>474.0</ele><time>2026-04-06T14:20:25Z</time></trkpt><trkpt lat="46.40487310227011" lon="12.81450413668413"><ele>474.0</ele><time>2026-04-06T14:20:26Z</time></trkpt><trkpt lat="46.404820820513585" lon="12.814671743463986"><ele>474.0</ele><time>2026-04-06T14:20:27Z</time></trkpt><trkpt lat="46.40477385290554" lon="12.814852828055656"><ele>474.0</ele><time>2026-04-06T14:20:28Z</time></trkpt><trkpt lat="46.40475119586898" lon="12.815039605206161"><ele>474.0</ele><time>2026-04-06T14:20:29Z</time></trkpt><trkpt lat="46.404759212364254" lon="12.815231177942177"><ele>472.75</ele><time>2026-04-06T14:20:30Z</time></trkpt><trkpt lat="46.40477854935508" lon="12.81543008583678"><ele>471.5</ele><time>2026-04-06T14:20:31Z</time></trkpt><trkpt lat="46.404794043842564" lon="12.81563112946968"><ele>470.25</ele><time>2026-04-06T14:20:32Z</time></trkpt><trkpt lat="46.404810120687785" lon="12.815831201480249"><ele>469.0</ele><time>2026-04-06T14:20:33Z</time></trkpt><trkpt lat="46.40481779160714" lon="12.816015839496291"><ele>468.0</ele><time>2026-04-06T14:20:34Z</time></trkpt><trkpt lat="46.404807225736675" lon="12.816181283502344"><ele>467.0</ele><time>2026-04-06T14:20:35Z</time></trkpt><trkpt lat="46.4047684964595" lon="12.816332672326864"><ele>466.0</ele><time>2026-04-06T14:20:36Z</time></trkpt><trkpt lat="46.40469127029586" lon="12.81644194546587"><ele>465.0</ele><time>2026-04-06T14:20:37Z</time></trkpt><trkpt lat="46.40462335117757" lon="12.816546623221322"><ele>464.0</ele><time>2026-04-06T14:20:38Z</time></trkpt><trkpt lat="46.404585101677036" lon="12.816675903607466"><ele>460.4</ele><time>2026-04-06T14:20:39Z</time></trkpt><trkpt lat="46.40456787326755" lon="12.816811487218041"><ele>456.79999999999995</ele><time>2026-04-06T14:20:40Z</time></trkpt><trkpt lat="46.40456075238182" lon="12.816957920576863"><ele>453.20000000000005</ele><time>2026-04-06T14:20:41Z</time></trkpt><trkpt lat="46.404560819735906" lon="12.817125568394667"><ele>449.6</ele><time>2026-04-06T14:20:42Z</time></trkpt><trkpt lat="46.40455900315222" lon="12.817316148153953"><ele>446.0</ele><time>2026-04-06T14:20:43Z</time></trkpt><trkpt lat="46.404556100771636" lon="12.81752143473775"><ele>445.5</ele><time>2026-04-06T14:20:44Z</time></trkpt><trkpt lat="46.40455294686082" lon="12.817734989697739"><ele>445.0</ele><time>2026-04-06T14:20:45Z</time></trkpt><trkpt lat="46.40455017967428" lon="12.817936726459909"><ele>444.5</ele><time>2026-04-06T14:20:46Z</time></trkpt><trkpt lat="46.40454903201746" lon="12.81813622303239"><ele>444.0</ele><time>2026-04-06T14:20:47Z</time></trkpt><trkpt lat="46.404547660403345" lon="12.818331452431735"><ele>444.0</ele><time>2026-04-06T14:20:48Z</time></trkpt><trkpt lat="46.40454869925346" lon="12.81852587019167"><ele>444.0</ele><time>2026-04-06T14:20:49Z</time></trkpt><trkpt lat="46.404548398500694" lon="12.818718673501342"><ele>444.0</ele><time>2026-04-06T14:20:50Z</time></trkpt><trkpt lat="46.40454674475101" lon="12.818910316416734"><ele>444.0</ele><time>2026-04-06T14:20:51Z</time></trkpt><trkpt lat="46.40454761922856" lon="12.819098915774198"><ele>444.0</ele><time>2026-04-06T14:20:52Z</time></trkpt><trkpt lat="46.404544995977986" lon="12.81926637525842"><ele>444.0</ele><time>2026-04-06T14:20:53Z</time></trkpt><trkpt lat="46.404521204488965" lon="12.819406746842162"><ele>444.0</ele><time>2026-04-06T14:20:54Z</time></trkpt><trkpt lat="46.40446294769196" lon="12.81951432541539"><ele>444.0</ele><time>2026-04-06T14:20:55Z</time></trkpt><trkpt lat="46.40437511191523" lon="12.819574036409852"><ele>444.0</ele><time>2026-04-06T14:20:56Z</time></trkpt><trkpt lat="46.404272465884745" lon="12.819620900998505"><ele>445.25</ele><time>2026-04-06T14:20:57Z</time></trkpt><trkpt lat="46.40416054783087" lon="12.819673452616815"><ele>446.5</ele><time>2026-04-06T14:20:58Z</time></trkpt><trkpt lat="46.4040416835603" lon="12.819733577623888"><ele>447.75</ele><time>2026-04-06T14:20:59Z</time></trkpt><trkpt lat="46.403913624127206" lon="12.819806369193056"><ele>449.0</ele><time>2026-04-06T14:21:00Z</time></trkpt><trkpt lat="46.403779842047385" lon="12.819904072055843"><ele>449.0</ele><time>2026-04-06T14:21:01Z</time></trkpt><trkpt lat="46.40364908223683" lon="12.820025264069796"><ele>449.0</ele><time>2026-04-06T14:21:02Z</time></trkpt><trkpt lat="46.40353407223128" lon="12.820179213132494"><ele>449.0</ele><time>2026-04-06T14:21:03Z</time></trkpt><trkpt lat="46.40342889679931" lon="12.820355191165158"><ele>452.0</ele><time>2026-04-06T14:21:04Z</time></trkpt><trkpt lat="46.40334150195598" lon="12.820555029221085"><ele>455.0</ele><time>2026-04-06T14:21:05Z</time></trkpt><trkpt lat="46.40327723908617" lon="12.82076608306982"><ele>458.0</ele><time>2026-04-06T14:21:06Z</time></trkpt><trkpt lat="46.40322933432937" lon="12.820980967292206"><ele>461.66666666666663</ele><time>2026-04-06T14:21:07Z</time></trkpt><trkpt lat="46.40318158687235" lon="12.821204470230297"><ele>465.33333333333337</ele><time>2026-04-06T14:21:07.999Z</time></trkpt><trkpt lat="46.403124596804396" lon="12.821436370319738"><ele>469.0</ele><time>2026-04-06T14:21:08.999Z</time></trkpt><trkpt lat="46.403056310849145" lon="12.82166309393293"><ele>466.6666666666667</ele><time>2026-04-06T14:21:09.999Z</time></trkpt><trkpt lat="46.40297222839609" lon="12.821881942439548"><ele>464.33333333333337</ele><time>2026-04-06T14:21:10.999Z</time></trkpt><trkpt lat="46.402874015061315" lon="12.8220870886072"><ele>462.0</ele><time>2026-04-06T14:21:11.999Z</time></trkpt><trkpt lat="46.40276263636849" lon="12.8222733195194"><ele>462.0</ele><time>2026-04-06T14:21:12.999Z</time></trkpt><trkpt lat="46.40264685632617" lon="12.82244211907543"><ele>462.0</ele><time>2026-04-06T14:21:13.999Z</time></trkpt><trkpt lat="46.40256114391308" lon="12.82262890933212"><ele>462.0</ele><time>2026-04-06T14:21:15Z</time></trkpt><trkpt lat="46.40250061583181" lon="12.822815978667787"><ele>463.5</ele><time>2026-04-06T14:21:16Z</time></trkpt><trkpt lat="46.40246096394558" lon="12.82299417407981"><ele>465.0</ele><time>2026-04-06T14:21:17Z</time></trkpt><trkpt lat="46.40244855787415" lon="12.823173884488993"><ele>466.5</ele><time>2026-04-06T14:21:18Z</time></trkpt><trkpt lat="46.402460263783865" lon="12.82336417419195"><ele>468.0</ele><time>2026-04-06T14:21:19Z</time></trkpt><trkpt lat="46.40248675842421" lon="12.823558856259368"><ele>469.0</ele><time>2026-04-06T14:21:20Z</time></trkpt><trkpt lat="46.40252007869679" lon="12.823757848740021"><ele>470.0</ele><time>2026-04-06T14:21:21Z</time></trkpt><trkpt lat="46.402553980278725" lon="12.823965391155644"><ele>471.0</ele><time>2026-04-06T14:21:22Z</time></trkpt><trkpt lat="46.40258982498181" lon="12.824186592241904"><ele>472.0</ele><time>2026-04-06T14:21:23Z</time></trkpt><trkpt lat="46.40262331680742" lon="12.824421293259547"><ele>473.33333333333337</ele><time>2026-04-06T14:21:24Z</time></trkpt><trkpt lat="46.40264066850144" lon="12.824666048680248"><ele>474.66666666666663</ele><time>2026-04-06T14:21:25Z</time></trkpt><trkpt lat="46.4026337854436" lon="12.824901750818526"><ele>476.0</ele><time>2026-04-06T14:21:26Z</time></trkpt><trkpt lat="46.40260459409861" lon="12.825131129190341"><ele>477.0</ele><time>2026-04-06T14:21:27Z</time></trkpt><trkpt lat="46.40255874210302" lon="12.825356899364147"><ele>478.0</ele><time>2026-04-06T14:21:28Z</time></trkpt><trkpt lat="46.40250611264505" lon="12.82558543347267"><ele>479.0</ele><time>2026-04-06T14:21:29Z</time></trkpt><trkpt lat="46.40244897070475" lon="12.82582152524349"><ele>480.0</ele><time>2026-04-06T14:21:30Z</time></trkpt><trkpt lat="46.402379416341645" lon="12.826061000920166"><ele>481.0</ele><time>2026-04-06T14:21:31Z</time></trkpt><trkpt lat="46.402302178730324" lon="12.826298115076845"><ele>482.0</ele><time>2026-04-06T14:21:32Z</time></trkpt><trkpt lat="46.40222001078262" lon="12.826521765614489"><ele>481.66666666666663</ele><time>2026-04-06T14:21:33Z</time></trkpt><trkpt lat="46.40213899260846" lon="12.82673666567117"><ele>481.33333333333337</ele><time>2026-04-06T14:21:34Z</time></trkpt><trkpt lat="46.402069718141476" lon="12.826938122770963"><ele>481.0</ele><time>2026-04-06T14:21:35Z</time></trkpt><trkpt lat="46.402020186134" lon="12.82712870728956"><ele>481.5</ele><time>2026-04-06T14:21:36Z</time></trkpt><trkpt lat="46.401998295771385" lon="12.827321413663471"><ele>482.0</ele><time>2026-04-06T14:21:37Z</time></trkpt><trkpt lat="46.40198529751576" lon="12.827531364074547"><ele>482.5</ele><time>2026-04-06T14:21:38Z</time></trkpt><trkpt lat="46.40197061457949" lon="12.82775937434746"><ele>483.0</ele><time>2026-04-06T14:21:39Z</time></trkpt><trkpt lat="46.40195381813723" lon="12.828002966912244"><ele>483.66666666666663</ele><time>2026-04-06T14:21:40Z</time></trkpt><trkpt lat="46.4019382639864" lon="12.828258396373137"><ele>484.3333333333333</ele><time>2026-04-06T14:21:41Z</time></trkpt><trkpt lat="46.40192157798422" lon="12.828514461672304"><ele>485.0</ele><time>2026-04-06T14:21:42Z</time></trkpt><trkpt lat="46.401902202763246" lon="12.828773187288622"><ele>485.0</ele><time>2026-04-06T14:21:43Z</time></trkpt><trkpt lat="46.40187656782771" lon="12.829044670837373"><ele>485.0</ele><time>2026-04-06T14:21:44Z</time></trkpt><trkpt lat="46.40184607642605" lon="12.829319305120881"><ele>485.0</ele><time>2026-04-06T14:21:45Z</time></trkpt><trkpt lat="46.40181469064777" lon="12.829601240275725"><ele>485.0</ele><time>2026-04-06T14:21:46Z</time></trkpt><trkpt lat="46.4017886927083" lon="12.829889860749697"><ele>485.0</ele><time>2026-04-06T14:21:47Z</time></trkpt><trkpt lat="46.4017691911292" lon="12.830182268841861"><ele>485.0</ele><time>2026-04-06T14:21:48Z</time></trkpt><trkpt lat="46.40175570556953" lon="12.830476808198103"><ele>483.66666666666663</ele><time>2026-04-06T14:21:49Z</time></trkpt><trkpt lat="46.40175477202269" lon="12.83077323254595"><ele>482.33333333333337</ele><time>2026-04-06T14:21:50Z</time></trkpt><trkpt lat="46.40177084878803" lon="12.831074754300037"><ele>481.0</ele><time>2026-04-06T14:21:51Z</time></trkpt><trkpt lat="46.40179624259785" lon="12.831386069936169"><ele>480.33333333333337</ele><time>2026-04-06T14:21:52Z</time></trkpt><trkpt lat="46.401826198278286" lon="12.831703471718159"><ele>479.66666666666663</ele><time>2026-04-06T14:21:53Z</time></trkpt><trkpt lat="46.40186081110344" lon="12.832028711022247"><ele>479.0</ele><time>2026-04-06T14:21:54Z</time></trkpt><trkpt lat="46.40189852209161" lon="12.832362865922075"><ele>478.5</ele><time>2026-04-06T14:21:55Z</time></trkpt><trkpt lat="46.40193845011862" lon="12.832716627147313"><ele>478.0</ele><time>2026-04-06T14:21:56Z</time></trkpt><trkpt lat="46.40197873024764" lon="12.83307692772726"><ele>478.0</ele><time>2026-04-06T14:21:57Z</time></trkpt><trkpt lat="46.40201658804399" lon="12.833429730677926"><ele>478.0</ele><time>2026-04-06T14:21:58Z</time></trkpt><trkpt lat="46.40205431820012" lon="12.833778360463391"><ele>474.0</ele><time>2026-04-06T14:21:59Z</time></trkpt><trkpt lat="46.40209579078571" lon="12.834116358628416"><ele>470.0</ele><time>2026-04-06T14:22:00Z</time></trkpt><trkpt lat="46.40213440429625" lon="12.834459923318102"><ele>478.0</ele><time>2026-04-06T14:22:01Z</time></trkpt><trkpt lat="46.40216664584784" lon="12.834813779663717"><ele>486.0</ele><time>2026-04-06T14:22:02Z</time></trkpt><trkpt lat="46.402188327022486" lon="12.835174765864366"><ele>486.0</ele><time>2026-04-06T14:22:03Z</time></trkpt><trkpt lat="46.40219941359097" lon="12.835541459153378"><ele>486.0</ele><time>2026-04-06T14:22:04Z</time></trkpt><trkpt lat="46.40220303295679" lon="12.835912941793959"><ele>487.5</ele><time>2026-04-06T14:22:05Z</time></trkpt><trkpt lat="46.402200331276596" lon="12.836290975665772"><ele>489.0</ele><time>2026-04-06T14:22:06Z</time></trkpt><trkpt lat="46.40219251349609" lon="12.836669160029633"><ele>490.0</ele><time>2026-04-06T14:22:07Z</time></trkpt><trkpt lat="46.40217462800283" lon="12.837046805443109"><ele>491.0</ele><time>2026-04-06T14:22:08Z</time></trkpt><trkpt lat="46.40215061694735" lon="12.837423938466635"><ele>477.0</ele><time>2026-04-06T14:22:09Z</time></trkpt><trkpt lat="46.402121367841055" lon="12.837803459016037"><ele>463.0</ele><time>2026-04-06T14:22:10Z</time></trkpt><trkpt lat="46.40209620916629" lon="12.838190201091528"><ele>462.5</ele><time>2026-04-06T14:22:11Z</time></trkpt><trkpt lat="46.40206822783459" lon="12.838584511515903"><ele>462.0</ele><time>2026-04-06T14:22:12Z</time></trkpt><trkpt lat="46.40204098187361" lon="12.838990455730558"><ele>463.5</ele><time>2026-04-06T14:22:13Z</time></trkpt><trkpt lat="46.402016330253886" lon="12.839405965250398"><ele>465.0</ele><time>2026-04-06T14:22:14Z</time></trkpt><trkpt lat="46.401986171837095" lon="12.839823811308541"><ele>469.0</ele><time>2026-04-06T14:22:15Z</time></trkpt><trkpt lat="46.40196217353692" lon="12.840247490224648"><ele>473.0</ele><time>2026-04-06T14:22:16Z</time></trkpt><trkpt lat="46.401943142845994" lon="12.840672579123078"><ele>474.0</ele><time>2026-04-06T14:22:17Z</time></trkpt><trkpt lat="46.40193102675496" lon="12.84110139910219"><ele>475.0</ele><time>2026-04-06T14:22:18Z</time></trkpt><trkpt lat="46.401921876263465" lon="12.841527494983383"><ele>472.0</ele><time>2026-04-06T14:22:19Z</time></trkpt><trkpt lat="46.40191441238516" lon="12.841947930398455"><ele>469.0</ele><time>2026-04-06T14:22:20Z</time></trkpt><trkpt lat="46.4019118414604" lon="12.842355588834213"><ele>465.5</ele><time>2026-04-06T14:22:21Z</time></trkpt><trkpt lat="46.40191189058096" lon="12.842757177130139"><ele>462.0</ele><time>2026-04-06T14:22:22Z</time></trkpt><trkpt lat="46.40191939141626" lon="12.843149816358075"><ele>458.5</ele><time>2026-04-06T14:22:23Z</time></trkpt><trkpt lat="46.401930378396585" lon="12.843534611128682"><ele>455.0</ele><time>2026-04-06T14:22:24Z</time></trkpt><trkpt lat="46.40194431815973" lon="12.84391719096623"><ele>453.0</ele><time>2026-04-06T14:22:25Z</time></trkpt><trkpt lat="46.40196294591328" lon="12.84430350582196"><ele>451.0</ele><time>2026-04-06T14:22:26Z</time></trkpt><trkpt lat="46.401982315620565" lon="12.844693047932937"><ele>451.0</ele><time>2026-04-06T14:22:27Z</time></trkpt><trkpt lat="46.40199971650818" lon="12.845086667712872"><ele>451.0</ele><time>2026-04-06T14:22:28Z</time></trkpt><trkpt lat="46.402017024319555" lon="12.8454802316069"><ele>447.0</ele><time>2026-04-06T14:22:29Z</time></trkpt><trkpt lat="46.40203570929822" lon="12.845875856623985"><ele>443.0</ele><time>2026-04-06T14:22:30Z</time></trkpt><trkpt lat="46.40205841387869" lon="12.84627537271103"><ele>440.5</ele><time>2026-04-06T14:22:31Z</time></trkpt><trkpt lat="46.40207886483212" lon="12.84667740739954"><ele>438.0</ele><time>2026-04-06T14:22:32Z</time></trkpt><trkpt lat="46.40210164870039" lon="12.847080734640304"><ele>438.0</ele><time>2026-04-06T14:22:33Z</time></trkpt><trkpt lat="46.40212227206819" lon="12.847479262425448"><ele>438.0</ele><time>2026-04-06T14:22:34Z</time></trkpt><trkpt lat="46.402143715005145" lon="12.847872185331383"><ele>438.5</ele><time>2026-04-06T14:22:35Z</time></trkpt><trkpt lat="46.40216453947754" lon="12.848253476953882"><ele>439.0</ele><time>2026-04-06T14:22:36Z</time></trkpt><trkpt lat="46.40218303755734" lon="12.848626362192483"><ele>449.0</ele><time>2026-04-06T14:22:37Z</time></trkpt><trkpt lat="46.40220251067048" lon="12.848992546409836"><ele>459.0</ele><time>2026-04-06T14:22:38Z</time></trkpt><trkpt lat="46.402222027664806" lon="12.849349890871697"><ele>459.0</ele><time>2026-04-06T14:22:39Z</time></trkpt><trkpt lat="46.402242850195364" lon="12.849700416540106"><ele>459.0</ele><time>2026-04-06T14:22:40Z</time></trkpt><trkpt lat="46.402268106528474" lon="12.850042614957708"><ele>459.5</ele><time>2026-04-06T14:22:41Z</time></trkpt><trkpt lat="46.4022995544121" lon="12.8503795004523"><ele>460.0</ele><time>2026-04-06T14:22:42Z</time></trkpt><trkpt lat="46.402334944827864" lon="12.85071026348771"><ele>456.0</ele><time>2026-04-06T14:22:43Z</time></trkpt><trkpt lat="46.40237304718701" lon="12.851034087907255"><ele>452.0</ele><time>2026-04-06T14:22:44Z</time></trkpt><trkpt lat="46.40241486455714" lon="12.851349120383139"><ele>448.0</ele><time>2026-04-06T14:22:45Z</time></trkpt><trkpt lat="46.40246277359115" lon="12.85165585644801"><ele>443.0</ele><time>2026-04-06T14:22:46Z</time></trkpt><trkpt lat="46.40251584864971" lon="12.85195829107799"><ele>438.0</ele><time>2026-04-06T14:22:47Z</time></trkpt><trkpt lat="46.40256803431011" lon="12.85226257106765"><ele>433.0</ele><time>2026-04-06T14:22:48Z</time></trkpt><trkpt lat="46.402624611634685" lon="12.852566257901046"><ele>432.33333333333337</ele><time>2026-04-06T14:22:49Z</time></trkpt><trkpt lat="46.40268631727875" lon="12.85286330600546"><ele>431.66666666666663</ele><time>2026-04-06T14:22:50Z</time></trkpt><trkpt lat="46.40275125156923" lon="12.853151648591215"><ele>431.0</ele><time>2026-04-06T14:22:51Z</time></trkpt><trkpt lat="46.40281951713311" lon="12.853442278954123"><ele>426.0</ele><time>2026-04-06T14:22:52Z</time></trkpt><trkpt lat="46.4028913078811" lon="12.853743287663786"><ele>421.0</ele><time>2026-04-06T14:22:53Z</time></trkpt><trkpt lat="46.402971064277246" lon="12.854061316770364"><ele>428.5</ele><time>2026-04-06T14:22:54Z</time></trkpt><trkpt lat="46.403054427792455" lon="12.854401782744379"><ele>436.0</ele><time>2026-04-06T14:22:55Z</time></trkpt><trkpt lat="46.40313383449697" lon="12.854751662878002"><ele>431.0</ele><time>2026-04-06T14:22:56Z</time></trkpt><trkpt lat="46.40322232052597" lon="12.855123495675961"><ele>426.0</ele><time>2026-04-06T14:22:57Z</time></trkpt><trkpt lat="46.4033162028317" lon="12.855527678305904"><ele>420.5</ele><time>2026-04-06T14:22:58Z</time></trkpt><trkpt lat="46.403413613639046" lon="12.855957196060874"><ele>415.0</ele><time>2026-04-06T14:22:59Z</time></trkpt><trkpt lat="46.40351297874728" lon="12.856389728568965"><ele>410.5</ele><time>2026-04-06T14:23:00Z</time></trkpt><trkpt lat="46.40360935021078" lon="12.85680961720688"><ele>406.0</ele><time>2026-04-06T14:23:01Z</time></trkpt><trkpt lat="46.40370869140635" lon="12.857244650730575"><ele>408.5</ele><time>2026-04-06T14:23:02Z</time></trkpt><trkpt lat="46.40381080680674" lon="12.857689302946662"><ele>411.0</ele><time>2026-04-06T14:23:03Z</time></trkpt><trkpt lat="46.40391431433309" lon="12.85813407093918"><ele>408.0</ele><time>2026-04-06T14:23:04Z</time></trkpt><trkpt lat="46.404015357046305" lon="12.858580312281822"><ele>405.0</ele><time>2026-04-06T14:23:05Z</time></trkpt><trkpt lat="46.404115388230814" lon="12.859021375753596"><ele>403.0</ele><time>2026-04-06T14:23:06Z</time></trkpt><trkpt lat="46.40421489980398" lon="12.859443764504018"><ele>401.0</ele><time>2026-04-06T14:23:07Z</time></trkpt><trkpt lat="46.40431285630582" lon="12.859851884928183"><ele>399.0</ele><time>2026-04-06T14:23:08Z</time></trkpt><trkpt lat="46.40441434095699" lon="12.860246728753122"><ele>397.0</ele><time>2026-04-06T14:23:08.999Z</time></trkpt><trkpt lat="46.40452871927362" lon="12.860630018840569"><ele>396.0</ele><time>2026-04-06T14:23:09.999Z</time></trkpt><trkpt lat="46.40465389192471" lon="12.861009827037483"><ele>395.0</ele><time>2026-04-06T14:23:10.999Z</time></trkpt><trkpt lat="46.40478961281158" lon="12.861381027993135"><ele>400.0</ele><time>2026-04-06T14:23:11.999Z</time></trkpt><trkpt lat="46.40493020731453" lon="12.86174935736238"><ele>405.0</ele><time>2026-04-06T14:23:12.999Z</time></trkpt><trkpt lat="46.40507694805869" lon="12.86210879313291"><ele>405.0</ele><time>2026-04-06T14:23:13.999Z</time></trkpt><trkpt lat="46.405226249847566" lon="12.862454361194027"><ele>405.0</ele><time>2026-04-06T14:23:14.999Z</time></trkpt><trkpt lat="46.40537424997373" lon="12.862792244869109"><ele>407.0</ele><time>2026-04-06T14:23:15.999Z</time></trkpt><trkpt lat="46.4055126318786" lon="12.863126968539158"><ele>409.0</ele><time>2026-04-06T14:23:16.999Z</time></trkpt><trkpt lat="46.40564198102814" lon="12.863464700404275"><ele>404.0</ele><time>2026-04-06T14:23:17.999Z</time></trkpt><trkpt lat="46.405753164468905" lon="12.863805623366058"><ele>399.0</ele><time>2026-04-06T14:23:18.999Z</time></trkpt><trkpt lat="46.40585300154866" lon="12.864151127929222"><ele>398.0</ele><time>2026-04-06T14:23:19.999Z</time></trkpt><trkpt lat="46.40594099287367" lon="12.864503321921926"><ele>397.0</ele><time>2026-04-06T14:23:21Z</time></trkpt><trkpt lat="46.4060096943557" lon="12.864859736935633"><ele>398.5</ele><time>2026-04-06T14:23:22Z</time></trkpt><trkpt lat="46.40606597069364" lon="12.865224090615433"><ele>400.0</ele><time>2026-04-06T14:23:23Z</time></trkpt><trkpt lat="46.40610850662005" lon="12.865589741190677"><ele>398.5</ele><time>2026-04-06T14:23:24Z</time></trkpt><trkpt lat="46.40613170356366" lon="12.86594948215503"><ele>397.0</ele><time>2026-04-06T14:23:25Z</time></trkpt><trkpt lat="46.40613514106148" lon="12.866299993001828"><ele>397.0</ele><time>2026-04-06T14:23:26Z</time></trkpt><trkpt lat="46.406125590158815" lon="12.866644138942863"><ele>397.0</ele><time>2026-04-06T14:23:27Z</time></trkpt><trkpt lat="46.40611402820912" lon="12.866987336843529"><ele>399.0</ele><time>2026-04-06T14:23:28Z</time></trkpt><trkpt lat="46.406097077722826" lon="12.867332884460795"><ele>401.0</ele><time>2026-04-06T14:23:29Z</time></trkpt><trkpt lat="46.406078815736684" lon="12.867668725297843"><ele>405.0</ele><time>2026-04-06T14:23:30Z</time></trkpt><trkpt lat="46.40605821187877" lon="12.867996274423833"><ele>409.0</ele><time>2026-04-06T14:23:31Z</time></trkpt><trkpt lat="46.406044998828534" lon="12.868315982201105"><ele>413.0</ele><time>2026-04-06T14:23:32Z</time></trkpt><trkpt lat="46.406038533590014" lon="12.86863352806783"><ele>413.66666666666663</ele><time>2026-04-06T14:23:33Z</time></trkpt><trkpt lat="46.40604271382786" lon="12.868951970014455"><ele>414.33333333333337</ele><time>2026-04-06T14:23:34Z</time></trkpt><trkpt lat="46.40605695240887" lon="12.869270193758851"><ele>415.0</ele><time>2026-04-06T14:23:35Z</time></trkpt><trkpt lat="46.406077839530134" lon="12.869583929786575"><ele>412.6666666666667</ele><time>2026-04-06T14:23:36Z</time></trkpt><trkpt lat="46.406114943463336" lon="12.86989624051341"><ele>410.33333333333337</ele><time>2026-04-06T14:23:37Z</time></trkpt><trkpt lat="46.406169083550594" lon="12.87020639376374"><ele>408.0</ele><time>2026-04-06T14:23:38Z</time></trkpt><trkpt lat="46.40623929203011" lon="12.870504565792103"><ele>408.33333333333337</ele><time>2026-04-06T14:23:39Z</time></trkpt><trkpt lat="46.4063213610553" lon="12.870788732356015"><ele>408.6666666666667</ele><time>2026-04-06T14:23:40Z</time></trkpt><trkpt lat="46.40641544217931" lon="12.871063009806006"><ele>409.0</ele><time>2026-04-06T14:23:41Z</time></trkpt><trkpt lat="46.40651847868956" lon="12.871328370341544"><ele>409.0</ele><time>2026-04-06T14:23:42Z</time></trkpt><trkpt lat="46.40663477817525" lon="12.871589199040583"><ele>409.0</ele><time>2026-04-06T14:23:43Z</time></trkpt><trkpt lat="46.406766686380024" lon="12.871836711543077"><ele>409.0</ele><time>2026-04-06T14:23:44Z</time></trkpt><trkpt lat="46.40690670495309" lon="12.872068848134269"><ele>407.6666666666667</ele><time>2026-04-06T14:23:45Z</time></trkpt><trkpt lat="46.40705233064885" lon="12.872290369436788"><ele>406.33333333333337</ele><time>2026-04-06T14:23:46Z</time></trkpt><trkpt lat="46.407197114505294" lon="12.872494932105987"><ele>405.0</ele><time>2026-04-06T14:23:47Z</time></trkpt><trkpt lat="46.407335746807796" lon="12.872679234203352"><ele>401.66666666666663</ele><time>2026-04-06T14:23:48Z</time></trkpt><trkpt lat="46.40747166274908" lon="12.872854435832178"><ele>398.3333333333333</ele><time>2026-04-06T14:23:49Z</time></trkpt><trkpt lat="46.407602500004835" lon="12.873029001758484"><ele>395.0</ele><time>2026-04-06T14:23:50Z</time></trkpt><trkpt lat="46.40772524798952" lon="12.873194588820848"><ele>395.0</ele><time>2026-04-06T14:23:51Z</time></trkpt><trkpt lat="46.407846473090345" lon="12.873354635410745"><ele>395.0</ele><time>2026-04-06T14:23:52Z</time></trkpt><trkpt lat="46.40797130598951" lon="12.87352135283008"><ele>395.0</ele><time>2026-04-06T14:23:53Z</time></trkpt><trkpt lat="46.4080893045475" lon="12.873681612238382"><ele>395.0</ele><time>2026-04-06T14:23:54Z</time></trkpt><trkpt lat="46.40820752393291" lon="12.873839942324526"><ele>395.0</ele><time>2026-04-06T14:23:55Z</time></trkpt><trkpt lat="46.408332863386335" lon="12.874010549536232"><ele>395.0</ele><time>2026-04-06T14:23:56Z</time></trkpt><trkpt lat="46.40845861943948" lon="12.874183566575253"><ele>394.3333333333333</ele><time>2026-04-06T14:23:57Z</time></trkpt><trkpt lat="46.40858000305147" lon="12.874346844137989"><ele>393.66666666666663</ele><time>2026-04-06T14:23:58Z</time></trkpt><trkpt lat="46.40869518978931" lon="12.874501401804876"><ele>393.0</ele><time>2026-04-06T14:23:59Z</time></trkpt><trkpt lat="46.40880642319048" lon="12.874649968003192"><ele>393.25</ele><time>2026-04-06T14:24:00Z</time></trkpt><trkpt lat="46.408919220673106" lon="12.874799190289059"><ele>393.5</ele><time>2026-04-06T14:24:01Z</time></trkpt><trkpt lat="46.40902898655407" lon="12.874943331951815"><ele>393.75</ele><time>2026-04-06T14:24:02Z</time></trkpt><trkpt lat="46.409130404293485" lon="12.875081513980643"><ele>394.0</ele><time>2026-04-06T14:24:03Z</time></trkpt><trkpt lat="46.409226897288676" lon="12.875212500332093"><ele>393.5</ele><time>2026-04-06T14:24:04Z</time></trkpt><trkpt lat="46.40932579268006" lon="12.875343126995242"><ele>393.0</ele><time>2026-04-06T14:24:05Z</time></trkpt><trkpt lat="46.40942775087695" lon="12.875476016629232"><ele>392.5</ele><time>2026-04-06T14:24:06Z</time></trkpt><trkpt lat="46.40952094533851" lon="12.875602123365876"><ele>392.0</ele><time>2026-04-06T14:24:07Z</time></trkpt><trkpt lat="46.409610162120224" lon="12.875722952250854"><ele>392.5</ele><time>2026-04-06T14:24:08Z</time></trkpt><trkpt lat="46.40969837594756" lon="12.875854417756338"><ele>393.0</ele><time>2026-04-06T14:24:09Z</time></trkpt><trkpt lat="46.409765299956305" lon="12.875995958337723"><ele>393.5</ele><time>2026-04-06T14:24:10Z</time></trkpt><trkpt lat="46.40980510659342" lon="12.876143234196599"><ele>394.0</ele><time>2026-04-06T14:24:11Z</time></trkpt><trkpt lat="46.40982216580406" lon="12.87629839730802"><ele>394.0</ele><time>2026-04-06T14:24:12Z</time></trkpt><trkpt lat="46.40981873382108" lon="12.876437794387472"><ele>394.0</ele><time>2026-04-06T14:24:13Z</time></trkpt><trkpt lat="46.409804412520536" lon="12.876558395607567"><ele>394.0</ele><time>2026-04-06T14:24:14Z</time></trkpt><trkpt lat="46.409790695888674" lon="12.876682782469851"><ele>394.0</ele><time>2026-04-06T14:24:15Z</time></trkpt><trkpt lat="46.40978099805358" lon="12.876812785126168"><ele>394.0</ele><time>2026-04-06T14:24:16Z</time></trkpt><trkpt lat="46.40976867155638" lon="12.876954530686966"><ele>394.25</ele><time>2026-04-06T14:24:17Z</time></trkpt><trkpt lat="46.409755123737646" lon="12.877122846462306"><ele>394.5</ele><time>2026-04-06T14:24:18Z</time></trkpt><trkpt lat="46.40973565099884" lon="12.877323691522774"><ele>394.75</ele><time>2026-04-06T14:24:19Z</time></trkpt><trkpt lat="46.40970689447312" lon="12.87754595898992"><ele>395.0</ele><time>2026-04-06T14:24:20Z</time></trkpt><trkpt lat="46.40966937975243" lon="12.87778180025397"><ele>394.75</ele><time>2026-04-06T14:24:21Z</time></trkpt><trkpt lat="46.40964353010931" lon="12.877997058596172"><ele>394.5</ele><time>2026-04-06T14:24:22Z</time></trkpt><trkpt lat="46.4096245089188" lon="12.878196251599443"><ele>394.25</ele><time>2026-04-06T14:24:23Z</time></trkpt><trkpt lat="46.40961936157982" lon="12.878375944045176"><ele>394.0</ele><time>2026-04-06T14:24:24Z</time></trkpt><trkpt lat="46.409622855326575" lon="12.878546024473"><ele>394.0</ele><time>2026-04-06T14:24:25Z</time></trkpt><trkpt lat="46.40964832566639" lon="12.878717018158923"><ele>394.0</ele><time>2026-04-06T14:24:26Z</time></trkpt><trkpt lat="46.409701506650954" lon="12.878895422804279"><ele>394.0</ele><time>2026-04-06T14:24:27Z</time></trkpt><trkpt lat="46.40975499851273" lon="12.879072721245592"><ele>394.0</ele><time>2026-04-06T14:24:28Z</time></trkpt><trkpt lat="46.409798509902735" lon="12.879238158334138"><ele>394.0</ele><time>2026-04-06T14:24:29Z</time></trkpt><trkpt lat="46.40984155781996" lon="12.87940623727099"><ele>394.0</ele><time>2026-04-06T14:24:30Z</time></trkpt><trkpt lat="46.409867793473516" lon="12.87959792397307"><ele>394.0</ele><time>2026-04-06T14:24:31Z</time></trkpt><trkpt lat="46.40987509902505" lon="12.87980970333964"><ele>394.0</ele><time>2026-04-06T14:24:32Z</time></trkpt><trkpt lat="46.40986959368823" lon="12.88004479241737"><ele>393.0</ele><time>2026-04-06T14:24:33Z</time></trkpt><trkpt lat="46.40986998200734" lon="12.880290891850352"><ele>392.0</ele><time>2026-04-06T14:24:34Z</time></trkpt><trkpt lat="46.409868949640305" lon="12.880544330772993"><ele>391.0</ele><time>2026-04-06T14:24:35Z</time></trkpt><trkpt lat="46.40987004458826" lon="12.880793955139152"><ele>391.6666666666667</ele><time>2026-04-06T14:24:36Z</time></trkpt><trkpt lat="46.409869469435854" lon="12.881040684418652"><ele>392.33333333333337</ele><time>2026-04-06T14:24:37Z</time></trkpt><trkpt lat="46.40986605292977" lon="12.881299539997263"><ele>393.0</ele><time>2026-04-06T14:24:38Z</time></trkpt><trkpt lat="46.40985715564233" lon="12.881549630916604"><ele>392.33333333333337</ele><time>2026-04-06T14:24:39Z</time></trkpt><trkpt lat="46.409839330676796" lon="12.8817823152441"><ele>391.6666666666667</ele><time>2026-04-06T14:24:40Z</time></trkpt><trkpt lat="46.4098190162456" lon="12.88200624177374"><ele>391.0</ele><time>2026-04-06T14:24:41Z</time></trkpt><trkpt lat="46.40980882071133" lon="12.882236872045986"><ele>391.0</ele><time>2026-04-06T14:24:42Z</time></trkpt><trkpt lat="46.40981188854663" lon="12.882467322989925"><ele>391.0</ele><time>2026-04-06T14:24:43Z</time></trkpt><trkpt lat="46.409831871122215" lon="12.882700388301602"><ele>391.0</ele><time>2026-04-06T14:24:44Z</time></trkpt><trkpt lat="46.40987381285648" lon="12.882937652274434"><ele>389.33333333333337</ele><time>2026-04-06T14:24:45Z</time></trkpt><trkpt lat="46.40991826538368" lon="12.883167331670856"><ele>387.66666666666663</ele><time>2026-04-06T14:24:46Z</time></trkpt><trkpt lat="46.40995117366918" lon="12.88339477858942"><ele>386.0</ele><time>2026-04-06T14:24:47Z</time></trkpt><trkpt lat="46.40996882053264" lon="12.883633084105403"><ele>385.66666666666663</ele><time>2026-04-06T14:24:48Z</time></trkpt><trkpt lat="46.40997286548976" lon="12.88387758886307"><ele>385.33333333333337</ele><time>2026-04-06T14:24:49Z</time></trkpt><trkpt lat="46.40997254479788" lon="12.884127899853775"><ele>385.0</ele><time>2026-04-06T14:24:50Z</time></trkpt><trkpt lat="46.4099737149537" lon="12.8843845900424"><ele>384.0</ele><time>2026-04-06T14:24:51Z</time></trkpt><trkpt lat="46.40997420972134" lon="12.884637511628746"><ele>383.0</ele><time>2026-04-06T14:24:52Z</time></trkpt><trkpt lat="46.40997397589477" lon="12.884889552002068"><ele>382.0</ele><time>2026-04-06T14:24:53Z</time></trkpt><trkpt lat="46.40997284901615" lon="12.885137368976723"><ele>381.3333333333333</ele><time>2026-04-06T14:24:54Z</time></trkpt><trkpt lat="46.40997175791771" lon="12.88538049452605"><ele>380.6666666666667</ele><time>2026-04-06T14:24:55Z</time></trkpt><trkpt lat="46.40997131588042" lon="12.885626586230257"><ele>380.0</ele><time>2026-04-06T14:24:56Z</time></trkpt><trkpt lat="46.409968103595496" lon="12.885885563650183"><ele>379.6666666666667</ele><time>2026-04-06T14:24:57Z</time></trkpt><trkpt lat="46.40996744783262" lon="12.886152986712007"><ele>379.3333333333333</ele><time>2026-04-06T14:24:58Z</time></trkpt><trkpt lat="46.40996774028165" lon="12.88642873616315"><ele>379.0</ele><time>2026-04-06T14:24:59Z</time></trkpt><trkpt lat="46.40996379101901" lon="12.886703072850356"><ele>380.0</ele><time>2026-04-06T14:25:00Z</time></trkpt><trkpt lat="46.40995514897303" lon="12.886973099406177"><ele>381.0</ele><time>2026-04-06T14:25:01Z</time></trkpt><trkpt lat="46.409941195378345" lon="12.887244676318586"><ele>382.0</ele><time>2026-04-06T14:25:02Z</time></trkpt><trkpt lat="46.40991846324609" lon="12.887510028672963"><ele>382.0</ele><time>2026-04-06T14:25:03Z</time></trkpt><trkpt lat="46.409890473212336" lon="12.88777306880648"><ele>382.0</ele><time>2026-04-06T14:25:04Z</time></trkpt><trkpt lat="46.40986443850499" lon="12.888032282561293"><ele>382.0</ele><time>2026-04-06T14:25:05Z</time></trkpt><trkpt lat="46.409844313341246" lon="12.888289046613203"><ele>381.66666666666663</ele><time>2026-04-06T14:25:06Z</time></trkpt><trkpt lat="46.409845715550524" lon="12.888548745550391"><ele>381.3333333333333</ele><time>2026-04-06T14:25:07Z</time></trkpt><trkpt lat="46.409878383898274" lon="12.888815890147368"><ele>381.0</ele><time>2026-04-06T14:25:08Z</time></trkpt><trkpt lat="46.409927180436114" lon="12.88908532851013"><ele>380.3333333333333</ele><time>2026-04-06T14:25:09Z</time></trkpt><trkpt lat="46.40997111604826" lon="12.889342566846572"><ele>379.66666666666663</ele><time>2026-04-06T14:25:10Z</time></trkpt><trkpt lat="46.41001546584842" lon="12.88959799474113"><ele>379.0</ele><time>2026-04-06T14:25:10.999Z</time></trkpt><trkpt lat="46.410063227898526" lon="12.889856580187068"><ele>378.3333333333333</ele><time>2026-04-06T14:25:11.999Z</time></trkpt><trkpt lat="46.41010197813293" lon="12.89011027522916"><ele>377.6666666666667</ele><time>2026-04-06T14:25:12.999Z</time></trkpt><trkpt lat="46.410116973956775" lon="12.890358004312823"><ele>377.0</ele><time>2026-04-06T14:25:13.999Z</time></trkpt><trkpt lat="46.41011292554952" lon="12.890595659244857"><ele>377.0</ele><time>2026-04-06T14:25:14.999Z</time></trkpt><trkpt lat="46.4100870805925" lon="12.890820678337152"><ele>377.0</ele><time>2026-04-06T14:25:15.999Z</time></trkpt><trkpt lat="46.41003149870675" lon="12.891042433979877"><ele>377.0</ele><time>2026-04-06T14:25:16.999Z</time></trkpt><trkpt lat="46.40995482608876" lon="12.891266534972857"><ele>376.0</ele><time>2026-04-06T14:25:17.999Z</time></trkpt><trkpt lat="46.40986837688637" lon="12.89147750341553"><ele>375.0</ele><time>2026-04-06T14:25:18.999Z</time></trkpt><trkpt lat="46.40978202597834" lon="12.89168223008683"><ele>374.0</ele><time>2026-04-06T14:25:19.999Z</time></trkpt><trkpt lat="46.4096994291097" lon="12.891886433921089"><ele>374.33333333333337</ele><time>2026-04-06T14:25:20.999Z</time></trkpt><trkpt lat="46.40961970576801" lon="12.892097852677653"><ele>374.6666666666667</ele><time>2026-04-06T14:25:21.999Z</time></trkpt><trkpt lat="46.40954587790217" lon="12.89231239075689"><ele>375.0</ele><time>2026-04-06T14:25:22.999Z</time></trkpt><trkpt lat="46.40948019094363" lon="12.892526060576769"><ele>375.0</ele><time>2026-04-06T14:25:23.999Z</time></trkpt><trkpt lat="46.409427248813685" lon="12.892750218404899"><ele>375.0</ele><time>2026-04-06T14:25:24.999Z</time></trkpt><trkpt lat="46.40939379165177" lon="12.89299052199933"><ele>375.0</ele><time>2026-04-06T14:25:25.999Z</time></trkpt><trkpt lat="46.40937674702968" lon="12.8932403172073"><ele>374.6666666666667</ele><time>2026-04-06T14:25:27Z</time></trkpt><trkpt lat="46.40937375355466" lon="12.893491097858128"><ele>374.33333333333337</ele><time>2026-04-06T14:25:28Z</time></trkpt><trkpt lat="46.40937831480916" lon="12.893750419820684"><ele>374.0</ele><time>2026-04-06T14:25:29Z</time></trkpt><trkpt lat="46.40939235620305" lon="12.894018511769762"><ele>374.0</ele><time>2026-04-06T14:25:30Z</time></trkpt><trkpt lat="46.40940954288958" lon="12.894303516406184"><ele>374.0</ele><time>2026-04-06T14:25:31Z</time></trkpt><trkpt lat="46.40942251951254" lon="12.894604569895774"><ele>374.0</ele><time>2026-04-06T14:25:32Z</time></trkpt><trkpt lat="46.40943911585293" lon="12.894915128871403"><ele>374.33333333333337</ele><time>2026-04-06T14:25:33Z</time></trkpt><trkpt lat="46.40945456221502" lon="12.89522516061887"><ele>374.6666666666667</ele><time>2026-04-06T14:25:34Z</time></trkpt><trkpt lat="46.40946987662313" lon="12.895519657176616"><ele>375.0</ele><time>2026-04-06T14:25:35Z</time></trkpt><trkpt lat="46.40948217383036" lon="12.895810298173348"><ele>373.6666666666667</ele><time>2026-04-06T14:25:36Z</time></trkpt><trkpt lat="46.40949607064404" lon="12.896107248083217"><ele>372.33333333333337</ele><time>2026-04-06T14:25:37Z</time></trkpt><trkpt lat="46.409510299012325" lon="12.896406704453492"><ele>371.0</ele><time>2026-04-06T14:25:38Z</time></trkpt><trkpt lat="46.40952317705567" lon="12.89669521381853"><ele>370.6666666666667</ele><time>2026-04-06T14:25:39Z</time></trkpt><trkpt lat="46.409535793229914" lon="12.896988513768287"><ele>370.3333333333333</ele><time>2026-04-06T14:25:40Z</time></trkpt><trkpt lat="46.409548979155744" lon="12.897282524005117"><ele>370.0</ele><time>2026-04-06T14:25:41Z</time></trkpt><trkpt lat="46.40956320515608" lon="12.897579781618477"><ele>370.3333333333333</ele><time>2026-04-06T14:25:42Z</time></trkpt><trkpt lat="46.40957754466308" lon="12.897875943544731"><ele>370.6666666666667</ele><time>2026-04-06T14:25:43Z</time></trkpt><trkpt lat="46.40959102893379" lon="12.898176429379586"><ele>371.0</ele><time>2026-04-06T14:25:44Z</time></trkpt><trkpt lat="46.40960499805027" lon="12.89847869507851"><ele>370.6666666666667</ele><time>2026-04-06T14:25:45Z</time></trkpt><trkpt lat="46.40962064467058" lon="12.898778850077118"><ele>370.3333333333333</ele><time>2026-04-06T14:25:46Z</time></trkpt><trkpt lat="46.40963318517099" lon="12.899079292121325"><ele>370.0</ele><time>2026-04-06T14:25:47Z</time></trkpt><trkpt lat="46.40965545999508" lon="12.899377946657737"><ele>370.66666666666663</ele><time>2026-04-06T14:25:48Z</time></trkpt><trkpt lat="46.409690021435615" lon="12.89967613831034"><ele>371.3333333333333</ele><time>2026-04-06T14:25:49Z</time></trkpt><trkpt lat="46.409733010286" lon="12.899975837412327"><ele>372.0</ele><time>2026-04-06T14:25:50Z</time></trkpt><trkpt lat="46.409777053872354" lon="12.900281379236114"><ele>372.0</ele><time>2026-04-06T14:25:51Z</time></trkpt><trkpt lat="46.409820970355135" lon="12.900595750786822"><ele>372.0</ele><time>2026-04-06T14:25:52Z</time></trkpt><trkpt lat="46.40986009982778" lon="12.90093018349922"><ele>371.0</ele><time>2026-04-06T14:25:53Z</time></trkpt><trkpt lat="46.40990265898921" lon="12.901268714395439"><ele>370.0</ele><time>2026-04-06T14:25:54Z</time></trkpt><trkpt lat="46.40994864189085" lon="12.901594449689167"><ele>370.0</ele><time>2026-04-06T14:25:55Z</time></trkpt><trkpt lat="46.4099935242078" lon="12.901909796279217"><ele>370.0</ele><time>2026-04-06T14:25:56Z</time></trkpt><trkpt lat="46.41003850163851" lon="12.902219302468458"><ele>370.0</ele><time>2026-04-06T14:25:57Z</time></trkpt><trkpt lat="46.41008120166696" lon="12.902525491554284"><ele>369.3333333333333</ele><time>2026-04-06T14:25:58Z</time></trkpt><trkpt lat="46.4101223302367" lon="12.902819988303737"><ele>368.6666666666667</ele><time>2026-04-06T14:25:59Z</time></trkpt><trkpt lat="46.410164253516086" lon="12.90311327561257"><ele>368.0</ele><time>2026-04-06T14:26:00Z</time></trkpt><trkpt lat="46.41021431410774" lon="12.90340795701692"><ele>368.0</ele><time>2026-04-06T14:26:01Z</time></trkpt><trkpt lat="46.41027303835026" lon="12.903701532164607"><ele>368.0</ele><time>2026-04-06T14:26:02Z</time></trkpt><trkpt lat="46.41034888336463" lon="12.903988881415048"><ele>368.0</ele><time>2026-04-06T14:26:03Z</time></trkpt><trkpt lat="46.41043962992829" lon="12.904279753577784"><ele>368.5</ele><time>2026-04-06T14:26:04Z</time></trkpt><trkpt lat="46.41054193482968" lon="12.904572460001232"><ele>369.0</ele><time>2026-04-06T14:26:05Z</time></trkpt><trkpt lat="46.41064828447802" lon="12.904869185956134"><ele>369.0</ele><time>2026-04-06T14:26:06Z</time></trkpt><trkpt lat="46.41074360991635" lon="12.905144334289535"><ele>369.0</ele><time>2026-04-06T14:26:07Z</time></trkpt><trkpt lat="46.41083683075173" lon="12.905400684886898"><ele>369.0</ele><time>2026-04-06T14:26:08Z</time></trkpt><trkpt lat="46.41093290299376" lon="12.90566899969874"><ele>369.0</ele><time>2026-04-06T14:26:09Z</time></trkpt><trkpt lat="46.41102859103865" lon="12.905950399605738"><ele>369.0</ele><time>2026-04-06T14:26:10Z</time></trkpt><trkpt lat="46.411128873421795" lon="12.906242951361927"><ele>369.0</ele><time>2026-04-06T14:26:11Z</time></trkpt><trkpt lat="46.41122992580189" lon="12.906547047542487"><ele>368.0</ele><time>2026-04-06T14:26:12Z</time></trkpt><trkpt lat="46.41133736639455" lon="12.906859496519774"><ele>367.0</ele><time>2026-04-06T14:26:13Z</time></trkpt><trkpt lat="46.41144728804396" lon="12.907172197440191"><ele>367.0</ele><time>2026-04-06T14:26:14Z</time></trkpt><trkpt lat="46.41155574042774" lon="12.907479107953366"><ele>367.0</ele><time>2026-04-06T14:26:15Z</time></trkpt><trkpt lat="46.41166216012227" lon="12.907775768882454"><ele>367.0</ele><time>2026-04-06T14:26:16Z</time></trkpt><trkpt lat="46.411768226724824" lon="12.908067163799949"><ele>367.0</ele><time>2026-04-06T14:26:17Z</time></trkpt><trkpt lat="46.41187227136035" lon="12.908358163877221"><ele>367.5</ele><time>2026-04-06T14:26:18Z</time></trkpt><trkpt lat="46.41197328186873" lon="12.908648704364628"><ele>368.0</ele><time>2026-04-06T14:26:19Z</time></trkpt><trkpt lat="46.41207510553302" lon="12.908941077483997"><ele>371.0</ele><time>2026-04-06T14:26:20Z</time></trkpt><trkpt lat="46.41217722575282" lon="12.909235139787434"><ele>374.0</ele><time>2026-04-06T14:26:21Z</time></trkpt><trkpt lat="46.412277581455896" lon="12.909526873879521"><ele>374.0</ele><time>2026-04-06T14:26:22Z</time></trkpt><trkpt lat="46.41238045174173" lon="12.909814412548428"><ele>374.0</ele><time>2026-04-06T14:26:23Z</time></trkpt><trkpt lat="46.412484630660316" lon="12.910101264372955"><ele>374.0</ele><time>2026-04-06T14:26:24Z</time></trkpt><trkpt lat="46.412585701507886" lon="12.910392697751828"><ele>374.0</ele><time>2026-04-06T14:26:25Z</time></trkpt><trkpt lat="46.41268573771738" lon="12.910687904324295"><ele>374.0</ele><time>2026-04-06T14:26:26Z</time></trkpt><trkpt lat="46.41278139110388" lon="12.910980421990923"><ele>374.0</ele><time>2026-04-06T14:26:27Z</time></trkpt><trkpt lat="46.41288282279896" lon="12.911272632058493"><ele>374.0</ele><time>2026-04-06T14:26:28Z</time></trkpt><trkpt lat="46.412982891413535" lon="12.911562160068435"><ele>374.0</ele><time>2026-04-06T14:26:29Z</time></trkpt><trkpt lat="46.41307727163823" lon="12.911835411356765"><ele>374.0</ele><time>2026-04-06T14:26:30Z</time></trkpt><trkpt lat="46.41316440766807" lon="12.912088358146434"><ele>374.0</ele><time>2026-04-06T14:26:31Z</time></trkpt><trkpt lat="46.41324480652916" lon="12.912322336297198"><ele>374.0</ele><time>2026-04-06T14:26:32Z</time></trkpt><trkpt lat="46.41332130635327" lon="12.9125427783426"><ele>373.0</ele><time>2026-04-06T14:26:33Z</time></trkpt><trkpt lat="46.41339983266424" lon="12.912774148782788"><ele>372.0</ele><time>2026-04-06T14:26:34Z</time></trkpt><trkpt lat="46.41347808412425" lon="12.913005946911568"><ele>371.0</ele><time>2026-04-06T14:26:35Z</time></trkpt><trkpt lat="46.41355808443369" lon="12.913236382907941"><ele>370.33333333333337</ele><time>2026-04-06T14:26:36Z</time></trkpt><trkpt lat="46.41363837833731" lon="12.913460861872775"><ele>369.6666666666667</ele><time>2026-04-06T14:26:37Z</time></trkpt><trkpt lat="46.41371521803019" lon="12.913688233353998"><ele>369.0</ele><time>2026-04-06T14:26:38Z</time></trkpt><trkpt lat="46.41379359215374" lon="12.913918350952402"><ele>369.0</ele><time>2026-04-06T14:26:39Z</time></trkpt><trkpt lat="46.413875548286015" lon="12.914153943158212"><ele>369.0</ele><time>2026-04-06T14:26:40Z</time></trkpt><trkpt lat="46.413960491829954" lon="12.9143955142897"><ele>369.0</ele><time>2026-04-06T14:26:41Z</time></trkpt><trkpt lat="46.414045360483335" lon="12.914645780134835"><ele>369.0</ele><time>2026-04-06T14:26:42Z</time></trkpt><trkpt lat="46.41413159982213" lon="12.914900720226527"><ele>369.0</ele><time>2026-04-06T14:26:43Z</time></trkpt><trkpt lat="46.414221794417855" lon="12.915157026840372"><ele>369.0</ele><time>2026-04-06T14:26:44Z</time></trkpt><trkpt lat="46.414311101084316" lon="12.915412289006381"><ele>368.3333333333333</ele><time>2026-04-06T14:26:45Z</time></trkpt><trkpt lat="46.4143996167316" lon="12.915668784611398"><ele>367.66666666666663</ele><time>2026-04-06T14:26:46Z</time></trkpt><trkpt lat="46.414482202009445" lon="12.915913826930941"><ele>367.0</ele><time>2026-04-06T14:26:47Z</time></trkpt><trkpt lat="46.414557305832524" lon="12.916137305279337"><ele>367.0</ele><time>2026-04-06T14:26:48Z</time></trkpt><trkpt lat="46.41463164152443" lon="12.916352308215043"><ele>367.0</ele><time>2026-04-06T14:26:49Z</time></trkpt><trkpt lat="46.414704872177474" lon="12.916562024109684"><ele>367.0</ele><time>2026-04-06T14:26:50Z</time></trkpt><trkpt lat="46.41477770157966" lon="12.916757850385173"><ele>367.0</ele><time>2026-04-06T14:26:51Z</time></trkpt><trkpt lat="46.41486247059303" lon="12.916944531383676"><ele>367.0</ele><time>2026-04-06T14:26:52Z</time></trkpt><trkpt lat="46.41495960877845" lon="12.917123547907778"><ele>367.0</ele><time>2026-04-06T14:26:53Z</time></trkpt><trkpt lat="46.41506498747454" lon="12.917300117355513"><ele>367.0</ele><time>2026-04-06T14:26:54Z</time></trkpt><trkpt lat="46.415178628782535" lon="12.917472448721345"><ele>367.0</ele><time>2026-04-06T14:26:55Z</time></trkpt><trkpt lat="46.4152967474766" lon="12.917637031662865"><ele>367.0</ele><time>2026-04-06T14:26:56Z</time></trkpt><trkpt lat="46.415414675601255" lon="12.917812652037899"><ele>367.3333333333333</ele><time>2026-04-06T14:26:57Z</time></trkpt><trkpt lat="46.41553510714785" lon="12.917990091759291"><ele>367.6666666666667</ele><time>2026-04-06T14:26:58Z</time></trkpt><trkpt lat="46.41565761061907" lon="12.918168616912292"><ele>368.0</ele><time>2026-04-06T14:26:59Z</time></trkpt><trkpt lat="46.41577745232868" lon="12.918344725779786"><ele>368.0</ele><time>2026-04-06T14:27:00Z</time></trkpt><trkpt lat="46.415896797196105" lon="12.918516898595582"><ele>368.0</ele><time>2026-04-06T14:27:01Z</time></trkpt><trkpt lat="46.4160103145976" lon="12.918687387780452"><ele>368.0</ele><time>2026-04-06T14:27:02Z</time></trkpt><trkpt lat="46.416122705531805" lon="12.918851608056286"><ele>368.0</ele><time>2026-04-06T14:27:03Z</time></trkpt><trkpt lat="46.4162307416975" lon="12.919009137081042"><ele>368.0</ele><time>2026-04-06T14:27:04Z</time></trkpt><trkpt lat="46.416333914292885" lon="12.919150174085448"><ele>368.0</ele><time>2026-04-06T14:27:05Z</time></trkpt><trkpt lat="46.416425545737965" lon="12.919287533383347"><ele>368.0</ele><time>2026-04-06T14:27:06Z</time></trkpt><trkpt lat="46.416511420269124" lon="12.919412443567824"><ele>367.83333333333337</ele><time>2026-04-06T14:27:07Z</time></trkpt><trkpt lat="46.4165883324233" lon="12.91952131256731"><ele>367.6666666666667</ele><time>2026-04-06T14:27:08Z</time></trkpt><trkpt lat="46.41664563521145" lon="12.919604702189497"><ele>367.5</ele><time>2026-04-06T14:27:09Z</time></trkpt><trkpt lat="46.416694722750215" lon="12.91967385534099"><ele>367.3333333333333</ele><time>2026-04-06T14:27:10Z</time></trkpt><trkpt lat="46.41677300524677" lon="12.91980509918268"><ele>367.16666666666663</ele><time>2026-04-06T14:27:12Z</time></trkpt><trkpt lat="46.416806061538686" lon="12.919892259363303"><ele>367.0</ele><time>2026-04-06T14:27:13Z</time></trkpt><trkpt lat="46.41683219290201" lon="12.919977876409726"><ele>367.0</ele><time>2026-04-06T14:27:14Z</time></trkpt><trkpt lat="46.41686041502959" lon="12.920061585125914"><ele>367.0</ele><time>2026-04-06T14:27:15Z</time></trkpt><trkpt lat="46.41688226120837" lon="12.920154153724011"><ele>367.0</ele><time>2026-04-06T14:27:15.999Z</time></trkpt><trkpt lat="46.41689531400095" lon="12.920248365036445"><ele>367.0</ele><time>2026-04-06T14:27:16.999Z</time></trkpt><trkpt lat="46.416902745296646" lon="12.920347575602383"><ele>367.0</ele><time>2026-04-06T14:27:17.999Z</time></trkpt><trkpt lat="46.41690477426345" lon="12.92045197909028"><ele>367.0</ele><time>2026-04-06T14:27:18.999Z</time></trkpt><trkpt lat="46.416895707043984" lon="12.920564738118172"><ele>367.0</ele><time>2026-04-06T14:27:19.999Z</time></trkpt><trkpt lat="46.41688079087505" lon="12.92068052592091"><ele>366.8</ele><time>2026-04-06T14:27:20.999Z</time></trkpt><trkpt lat="46.41685695393691" lon="12.920799587395527"><ele>366.6</ele><time>2026-04-06T14:27:21.999Z</time></trkpt><trkpt lat="46.41683139982305" lon="12.92092221978077"><ele>366.40000000000003</ele><time>2026-04-06T14:27:22.999Z</time></trkpt><trkpt lat="46.41680635611488" lon="12.921048853629184"><ele>366.20000000000005</ele><time>2026-04-06T14:27:23.999Z</time></trkpt><trkpt lat="46.41677932791848" lon="12.921185262826844"><ele>366.0</ele><time>2026-04-06T14:27:24.999Z</time></trkpt><trkpt lat="46.4167492172556" lon="12.921324072507554"><ele>366.0</ele><time>2026-04-06T14:27:25.999Z</time></trkpt><trkpt lat="46.41672069517305" lon="12.921466121719"><ele>366.0</ele><time>2026-04-06T14:27:26.999Z</time></trkpt><trkpt lat="46.416692086820404" lon="12.921613279892652"><ele>366.0</ele><time>2026-04-06T14:27:27.999Z</time></trkpt><trkpt lat="46.416659463998506" lon="12.92176942495805"><ele>366.0</ele><time>2026-04-06T14:27:28.999Z</time></trkpt><trkpt lat="46.416625542139826" lon="12.921927952301305"><ele>366.0</ele><time>2026-04-06T14:27:29.999Z</time></trkpt><trkpt lat="46.416595693326194" lon="12.922090010629663"><ele>366.0</ele><time>2026-04-06T14:27:30.999Z</time></trkpt><trkpt lat="46.416561398031654" lon="12.922251398925622"><ele>366.0</ele><time>2026-04-06T14:27:31.999Z</time></trkpt><trkpt lat="46.41653000077836" lon="12.922411656474155"><ele>366.0</ele><time>2026-04-06T14:27:33Z</time></trkpt><trkpt lat="46.41649593924241" lon="12.922570146555934"><ele>366.0</ele><time>2026-04-06T14:27:34Z</time></trkpt><trkpt lat="46.41646438366903" lon="12.922728085346154"><ele>366.20000000000005</ele><time>2026-04-06T14:27:35Z</time></trkpt><trkpt lat="46.4164347667024" lon="12.92288537789794"><ele>366.40000000000003</ele><time>2026-04-06T14:27:36Z</time></trkpt><trkpt lat="46.41640412796153" lon="12.923037547526498"><ele>366.6</ele><time>2026-04-06T14:27:37Z</time></trkpt><trkpt lat="46.41637937601814" lon="12.923181249893222"><ele>366.8</ele><time>2026-04-06T14:27:38Z</time></trkpt><trkpt lat="46.41635317851744" lon="12.923316349887216"><ele>367.0</ele><time>2026-04-06T14:27:39Z</time></trkpt><trkpt lat="46.416327007366796" lon="12.923450715602462"><ele>366.40000000000003</ele><time>2026-04-06T14:27:40Z</time></trkpt><trkpt lat="46.41629802715136" lon="12.923582927650527"><ele>365.8</ele><time>2026-04-06T14:27:41Z</time></trkpt><trkpt lat="46.41626859807365" lon="12.923714783792729"><ele>365.2</ele><time>2026-04-06T14:27:42Z</time></trkpt><trkpt lat="46.4162283323636" lon="12.923842039718135"><ele>364.6</ele><time>2026-04-06T14:27:43Z</time></trkpt><trkpt lat="46.41618409261052" lon="12.92396612811477"><ele>364.0</ele><time>2026-04-06T14:27:44Z</time></trkpt><trkpt lat="46.41614154732109" lon="12.92408892147344"><ele>364.0</ele><time>2026-04-06T14:27:45Z</time></trkpt><trkpt lat="46.41610011245333" lon="12.924197869649488"><ele>364.0</ele><time>2026-04-06T14:27:46Z</time></trkpt><trkpt lat="46.41605591600939" lon="12.924308002649488"><ele>364.0</ele><time>2026-04-06T14:27:47Z</time></trkpt><trkpt lat="46.41601484810556" lon="12.92442803678497"><ele>364.0</ele><time>2026-04-06T14:27:48Z</time></trkpt><trkpt lat="46.41597334536282" lon="12.924554087174325"><ele>364.0</ele><time>2026-04-06T14:27:49Z</time></trkpt><trkpt lat="46.415948164795815" lon="12.924690464161962"><ele>363.75</ele><time>2026-04-06T14:27:50Z</time></trkpt><trkpt lat="46.41592504243584" lon="12.924835593138257"><ele>363.5</ele><time>2026-04-06T14:27:51Z</time></trkpt><trkpt lat="46.41590492826829" lon="12.92499551823663"><ele>363.25</ele><time>2026-04-06T14:27:52Z</time></trkpt><trkpt lat="46.415880022590486" lon="12.925168144115833"><ele>363.0</ele><time>2026-04-06T14:27:53Z</time></trkpt><trkpt lat="46.415861232888915" lon="12.925352977019356"><ele>362.75</ele><time>2026-04-06T14:27:54Z</time></trkpt><trkpt lat="46.415826108256326" lon="12.925537244897235"><ele>362.5</ele><time>2026-04-06T14:27:55Z</time></trkpt><trkpt lat="46.415788881519106" lon="12.925728683919372"><ele>362.25</ele><time>2026-04-06T14:27:56Z</time></trkpt><trkpt lat="46.415763841253785" lon="12.925901017022374"><ele>362.0</ele><time>2026-04-06T14:27:57Z</time></trkpt><trkpt lat="46.41573831985735" lon="12.92607265486965"><ele>362.0</ele><time>2026-04-06T14:27:58Z</time></trkpt><trkpt lat="46.41572137466536" lon="12.926254107138774"><ele>362.0</ele><time>2026-04-06T14:27:59Z</time></trkpt><trkpt lat="46.41571603147422" lon="12.926448792505566"><ele>362.0</ele><time>2026-04-06T14:28:00Z</time></trkpt><trkpt lat="46.41569965333339" lon="12.92663813628355"><ele>362.0</ele><time>2026-04-06T14:28:01Z</time></trkpt><trkpt lat="46.415688925044826" lon="12.92683588569084"><ele>362.0</ele><time>2026-04-06T14:28:02Z</time></trkpt><trkpt lat="46.4156760180887" lon="12.927030012574011"><ele>362.0</ele><time>2026-04-06T14:28:03Z</time></trkpt><trkpt lat="46.415663265392325" lon="12.927224252270252"><ele>362.0</ele><time>2026-04-06T14:28:04Z</time></trkpt><trkpt lat="46.41565146555077" lon="12.927421465518037"><ele>362.0</ele><time>2026-04-06T14:28:05Z</time></trkpt><trkpt lat="46.41563956802359" lon="12.927620188518084"><ele>364.0</ele><time>2026-04-06T14:28:06Z</time></trkpt><trkpt lat="46.415624759010235" lon="12.927814815290818"><ele>366.0</ele><time>2026-04-06T14:28:07Z</time></trkpt><trkpt lat="46.4156110363096" lon="12.928008951355599"><ele>368.0</ele><time>2026-04-06T14:28:08Z</time></trkpt><trkpt lat="46.415597334522644" lon="12.928202623287493"><ele>370.0</ele><time>2026-04-06T14:28:09Z</time></trkpt><trkpt lat="46.41557991370886" lon="12.928398229890657"><ele>368.75</ele><time>2026-04-06T14:28:10Z</time></trkpt><trkpt lat="46.415556238850996" lon="12.928603680824269"><ele>367.5</ele><time>2026-04-06T14:28:11Z</time></trkpt><trkpt lat="46.415526369109934" lon="12.928815670941745"><ele>366.25</ele><time>2026-04-06T14:28:12Z</time></trkpt><trkpt lat="46.415490851384675" lon="12.929033295939577"><ele>365.0</ele><time>2026-04-06T14:28:13Z</time></trkpt><trkpt lat="46.415453998077666" lon="12.929243264660109"><ele>365.0</ele><time>2026-04-06T14:28:14Z</time></trkpt><trkpt lat="46.41541591396146" lon="12.929443043393972"><ele>365.0</ele><time>2026-04-06T14:28:15Z</time></trkpt><trkpt lat="46.41537247778439" lon="12.929638626567584"><ele>365.0</ele><time>2026-04-06T14:28:16Z</time></trkpt><trkpt lat="46.41532705434748" lon="12.929832602058388"><ele>365.0</ele><time>2026-04-06T14:28:17Z</time></trkpt><trkpt lat="46.41527994875396" lon="12.930024611283683"><ele>365.5</ele><time>2026-04-06T14:28:18Z</time></trkpt><trkpt lat="46.41522109233293" lon="12.930210254794801"><ele>366.0</ele><time>2026-04-06T14:28:19Z</time></trkpt><trkpt lat="46.41514870528099" lon="12.93038009004872"><ele>366.5</ele><time>2026-04-06T14:28:20Z</time></trkpt><trkpt lat="46.4150714225703" lon="12.9305322485268"><ele>367.0</ele><time>2026-04-06T14:28:21Z</time></trkpt><trkpt lat="46.41499488801741" lon="12.930684763873403"><ele>367.0</ele><time>2026-04-06T14:28:22Z</time></trkpt><trkpt lat="46.414920688014064" lon="12.930836465763898"><ele>367.0</ele><time>2026-04-06T14:28:23Z</time></trkpt><trkpt lat="46.41484370127482" lon="12.930982234005082"><ele>367.0</ele><time>2026-04-06T14:28:24Z</time></trkpt><trkpt lat="46.41476701870739" lon="12.931128701529746"><ele>367.0</ele><time>2026-04-06T14:28:25Z</time></trkpt><trkpt lat="46.41468918536585" lon="12.931283128850882"><ele>365.0</ele><time>2026-04-06T14:28:26Z</time></trkpt><trkpt lat="46.41460372015194" lon="12.931448432738069"><ele>363.0</ele><time>2026-04-06T14:28:27Z</time></trkpt><trkpt lat="46.41451619614428" lon="12.931623730577904"><ele>361.0</ele><time>2026-04-06T14:28:28Z</time></trkpt><trkpt lat="46.41442365820037" lon="12.931808124317584"><ele>359.0</ele><time>2026-04-06T14:28:29Z</time></trkpt><trkpt lat="46.41431660825482" lon="12.93199633339236"><ele>359.0</ele><time>2026-04-06T14:28:30Z</time></trkpt><trkpt lat="46.41419551517455" lon="12.932189499196793"><ele>359.0</ele><time>2026-04-06T14:28:31Z</time></trkpt><trkpt lat="46.414072384789584" lon="12.932383785987078"><ele>359.0</ele><time>2026-04-06T14:28:32Z</time></trkpt><trkpt lat="46.4139511283021" lon="12.932571484866102"><ele>358.6666666666667</ele><time>2026-04-06T14:28:33Z</time></trkpt><trkpt lat="46.413835149398935" lon="12.93274964225226"><ele>358.3333333333333</ele><time>2026-04-06T14:28:34Z</time></trkpt><trkpt lat="46.413726174502045" lon="12.932919389685399"><ele>358.0</ele><time>2026-04-06T14:28:35Z</time></trkpt><trkpt lat="46.41362088594235" lon="12.933093377904923"><ele>358.0</ele><time>2026-04-06T14:28:36Z</time></trkpt><trkpt lat="46.413530120338095" lon="12.933285044734639"><ele>358.0</ele><time>2026-04-06T14:28:37Z</time></trkpt><trkpt lat="46.413449445944494" lon="12.93348596948419"><ele>358.0</ele><time>2026-04-06T14:28:38Z</time></trkpt><trkpt lat="46.41337767867952" lon="12.933701699142059"><ele>358.0</ele><time>2026-04-06T14:28:39Z</time></trkpt><trkpt lat="46.41330831941437" lon="12.933927414012947"><ele>358.0</ele><time>2026-04-06T14:28:40Z</time></trkpt><trkpt lat="46.41323785345903" lon="12.93415726459155"><ele>358.0</ele><time>2026-04-06T14:28:41Z</time></trkpt><trkpt lat="46.41316998058692" lon="12.934385764201503"><ele>357.3333333333333</ele><time>2026-04-06T14:28:42Z</time></trkpt><trkpt lat="46.41310473161197" lon="12.934611516511298"><ele>356.6666666666667</ele><time>2026-04-06T14:28:43Z</time></trkpt><trkpt lat="46.41303828851136" lon="12.934832276501472"><ele>356.0</ele><time>2026-04-06T14:28:44Z</time></trkpt><trkpt lat="46.412972210358795" lon="12.935052720678337"><ele>355.6666666666667</ele><time>2026-04-06T14:28:45Z</time></trkpt><trkpt lat="46.41290787774083" lon="12.935269838396778"><ele>355.3333333333333</ele><time>2026-04-06T14:28:46Z</time></trkpt><trkpt lat="46.41284535450558" lon="12.935480530548547"><ele>355.0</ele><time>2026-04-06T14:28:47Z</time></trkpt><trkpt lat="46.41278524485228" lon="12.935686303048653"><ele>355.0</ele><time>2026-04-06T14:28:48Z</time></trkpt><trkpt lat="46.41272743884489" lon="12.93588629580216"><ele>355.0</ele><time>2026-04-06T14:28:49Z</time></trkpt><trkpt lat="46.41266916747345" lon="12.936081559357932"><ele>355.0</ele><time>2026-04-06T14:28:50Z</time></trkpt><trkpt lat="46.412613632092125" lon="12.936261515525512"><ele>355.0</ele><time>2026-04-06T14:28:51Z</time></trkpt><trkpt lat="46.412565618389344" lon="12.936430482793007"><ele>355.2</ele><time>2026-04-06T14:28:52Z</time></trkpt><trkpt lat="46.412515507891584" lon="12.936585995416504"><ele>355.4</ele><time>2026-04-06T14:28:53Z</time></trkpt><trkpt lat="46.41246628471263" lon="12.936721848766965"><ele>355.6</ele><time>2026-04-06T14:28:54Z</time></trkpt><trkpt lat="46.412416163458" lon="12.936844471593547"><ele>355.8</ele><time>2026-04-06T14:28:55Z</time></trkpt><trkpt lat="46.412364200393895" lon="12.936953209397338"><ele>356.0</ele><time>2026-04-06T14:28:56Z</time></trkpt><trkpt lat="46.41230582043269" lon="12.937058346430051"><ele>356.6</ele><time>2026-04-06T14:28:57Z</time></trkpt><trkpt lat="46.412241061153594" lon="12.9371473731177"><ele>357.20000000000005</ele><time>2026-04-06T14:28:58Z</time></trkpt><trkpt lat="46.41216185770013" lon="12.937224962891415"><ele>357.79999999999995</ele><time>2026-04-06T14:28:59Z</time></trkpt><trkpt lat="46.41206867713184" lon="12.93728459286817"><ele>358.4</ele><time>2026-04-06T14:29:00Z</time></trkpt><trkpt lat="46.41199638506645" lon="12.937358138603207"><ele>359.0</ele><time>2026-04-06T14:29:01Z</time></trkpt><trkpt lat="46.41194786040221" lon="12.937485618478018"><ele>357.6</ele><time>2026-04-06T14:29:02Z</time></trkpt><trkpt lat="46.411939312543765" lon="12.93762845308301"><ele>356.2</ele><time>2026-04-06T14:29:03Z</time></trkpt><trkpt lat="46.411958003698444" lon="12.937763782444291"><ele>354.8</ele><time>2026-04-06T14:29:04Z</time></trkpt><trkpt lat="46.41198176759496" lon="12.93791760911715"><ele>353.40000000000003</ele><time>2026-04-06T14:29:05Z</time></trkpt><trkpt lat="46.41199751716225" lon="12.938087129663955"><ele>352.0</ele><time>2026-04-06T14:29:06Z</time></trkpt><trkpt lat="46.41200812270763" lon="12.938275813367483"><ele>351.25</ele><time>2026-04-06T14:29:07Z</time></trkpt><trkpt lat="46.4120246735978" lon="12.93847434803121"><ele>350.5</ele><time>2026-04-06T14:29:08Z</time></trkpt><trkpt lat="46.41204415923206" lon="12.938675815462952"><ele>349.75</ele><time>2026-04-06T14:29:09Z</time></trkpt><trkpt lat="46.41206089687652" lon="12.938889283226386"><ele>349.0</ele><time>2026-04-06T14:29:10Z</time></trkpt><trkpt lat="46.41207605283157" lon="12.939093741229636"><ele>348.3333333333333</ele><time>2026-04-06T14:29:11Z</time></trkpt><trkpt lat="46.412093626742994" lon="12.939300569594522"><ele>347.6666666666667</ele><time>2026-04-06T14:29:12Z</time></trkpt><trkpt lat="46.41211166230049" lon="12.939526434247185"><ele>347.0</ele><time>2026-04-06T14:29:13Z</time></trkpt><trkpt lat="46.4121287531772" lon="12.9397654862638"><ele>347.0</ele><time>2026-04-06T14:29:14Z</time></trkpt><trkpt lat="46.412146984826386" lon="12.940006541628973"><ele>347.0</ele><time>2026-04-06T14:29:15Z</time></trkpt><trkpt lat="46.41216566514756" lon="12.940250804182302"><ele>347.0</ele><time>2026-04-06T14:29:16Z</time></trkpt><trkpt lat="46.41218178018522" lon="12.940493045446729"><ele>350.33333333333337</ele><time>2026-04-06T14:29:17Z</time></trkpt><trkpt lat="46.41219743202954" lon="12.940725650628444"><ele>353.6666666666667</ele><time>2026-04-06T14:29:18Z</time></trkpt><trkpt lat="46.41220891109265" lon="12.940955001871469"><ele>357.0</ele><time>2026-04-06T14:29:19Z</time></trkpt><trkpt lat="46.41222069023432" lon="12.941175074304857"><ele>357.3333333333333</ele><time>2026-04-06T14:29:19.999Z</time></trkpt><trkpt lat="46.41223511065589" lon="12.941387754498178"><ele>357.66666666666663</ele><time>2026-04-06T14:29:20.999Z</time></trkpt><trkpt lat="46.41224943994807" lon="12.941612762980574"><ele>358.0</ele><time>2026-04-06T14:29:21.999Z</time></trkpt><trkpt lat="46.41226608223346" lon="12.941840419088605"><ele>358.3333333333333</ele><time>2026-04-06T14:29:22.999Z</time></trkpt><trkpt lat="46.412283079781716" lon="12.942073911046533"><ele>358.6666666666667</ele><time>2026-04-06T14:29:23.999Z</time></trkpt><trkpt lat="46.41229929354895" lon="12.942317563306682"><ele>359.0</ele><time>2026-04-06T14:29:24.999Z</time></trkpt><trkpt lat="46.41230717196493" lon="12.942567566689844"><ele>361.33333333333337</ele><time>2026-04-06T14:29:25.999Z</time></trkpt><trkpt lat="46.41229989674061" lon="12.94282113110926"><ele>363.6666666666667</ele><time>2026-04-06T14:29:26.999Z</time></trkpt><trkpt lat="46.412262619375156" lon="12.943088170218395"><ele>366.0</ele><time>2026-04-06T14:29:27.999Z</time></trkpt><trkpt lat="46.4122086580792" lon="12.943368303770647"><ele>359.3333333333333</ele><time>2026-04-06T14:29:28.999Z</time></trkpt><trkpt lat="46.412151325263224" lon="12.943647576319217"><ele>352.66666666666663</ele><time>2026-04-06T14:29:29.999Z</time></trkpt><trkpt lat="46.41210080867822" lon="12.943890594823632"><ele>346.0</ele><time>2026-04-06T14:29:30.999Z</time></trkpt><trkpt lat="46.41204663934843" lon="12.944118787104458"><ele>346.66666666666663</ele><time>2026-04-06T14:29:31.999Z</time></trkpt><trkpt lat="46.41198294335691" lon="12.944345467290994"><ele>347.3333333333333</ele><time>2026-04-06T14:29:32.999Z</time></trkpt><trkpt lat="46.411912456955044" lon="12.944569127098468"><ele>348.0</ele><time>2026-04-06T14:29:33.999Z</time></trkpt><trkpt lat="46.41184736818497" lon="12.944778374719544"><ele>348.0</ele><time>2026-04-06T14:29:34.999Z</time></trkpt><trkpt lat="46.411780690038114" lon="12.944980565458716"><ele>348.0</ele><time>2026-04-06T14:29:35.999Z</time></trkpt><trkpt lat="46.4116982062294" lon="12.945174234394175"><ele>348.0</ele><time>2026-04-06T14:29:36.999Z</time></trkpt><trkpt lat="46.411592555121594" lon="12.945353312038609"><ele>350.6666666666667</ele><time>2026-04-06T14:29:37.999Z</time></trkpt><trkpt lat="46.411494879392826" lon="12.945543362993465"><ele>353.33333333333337</ele><time>2026-04-06T14:29:39Z</time></trkpt><trkpt lat="46.41141448353913" lon="12.94575507932843"><ele>356.0</ele><time>2026-04-06T14:29:40Z</time></trkpt><trkpt lat="46.41135053088387" lon="12.945979375610252"><ele>352.33333333333337</ele><time>2026-04-06T14:29:41Z</time></trkpt><trkpt lat="46.41130004710364" lon="12.946210224690725"><ele>348.6666666666667</ele><time>2026-04-06T14:29:42Z</time></trkpt><trkpt lat="46.41125974806254" lon="12.94644529776459"><ele>345.0</ele><time>2026-04-06T14:29:43Z</time></trkpt><trkpt lat="46.41121830728777" lon="12.94668090817809"><ele>346.3333333333333</ele><time>2026-04-06T14:29:44Z</time></trkpt><trkpt lat="46.411167166594446" lon="12.94691377401715"><ele>347.66666666666663</ele><time>2026-04-06T14:29:45Z</time></trkpt><trkpt lat="46.41109963157181" lon="12.947140598099645"><ele>349.0</ele><time>2026-04-06T14:29:46Z</time></trkpt><trkpt lat="46.41101298009453" lon="12.947370770339981"><ele>352.3333333333333</ele><time>2026-04-06T14:29:47Z</time></trkpt><trkpt lat="46.410905138856535" lon="12.947606716305748"><ele>355.6666666666667</ele><time>2026-04-06T14:29:48Z</time></trkpt><trkpt lat="46.410790317524125" lon="12.947837597566656"><ele>359.0</ele><time>2026-04-06T14:29:49Z</time></trkpt><trkpt lat="46.41068711047184" lon="12.94804241114187"><ele>359.0</ele><time>2026-04-06T14:29:50Z</time></trkpt><trkpt lat="46.41059484683283" lon="12.948228385276588"><ele>359.0</ele><time>2026-04-06T14:29:51Z</time></trkpt><trkpt lat="46.41051903401174" lon="12.94841343380475"><ele>359.0</ele><time>2026-04-06T14:29:52Z</time></trkpt><trkpt lat="46.41045667354957" lon="12.948616221680926"><ele>353.0</ele><time>2026-04-06T14:29:53Z</time></trkpt><trkpt lat="46.410410616155936" lon="12.948830338244143"><ele>347.0</ele><time>2026-04-06T14:29:54Z</time></trkpt><trkpt lat="46.41038177129732" lon="12.949052764835212"><ele>341.0</ele><time>2026-04-06T14:29:55Z</time></trkpt><trkpt lat="46.41036781742281" lon="12.949276776457786"><ele>340.6666666666667</ele><time>2026-04-06T14:29:56Z</time></trkpt><trkpt lat="46.41036376175231" lon="12.949503734335842"><ele>340.3333333333333</ele><time>2026-04-06T14:29:57Z</time></trkpt><trkpt lat="46.41036477733709" lon="12.94974349781249"><ele>340.0</ele><time>2026-04-06T14:29:58Z</time></trkpt><trkpt lat="46.4103632471539" lon="12.949983591014288"><ele>340.0</ele><time>2026-04-06T14:29:59Z</time></trkpt><trkpt lat="46.410362023553176" lon="12.950225353889195"><ele>340.0</ele><time>2026-04-06T14:30:00Z</time></trkpt><trkpt lat="46.410360974621334" lon="12.950469811243764"><ele>340.0</ele><time>2026-04-06T14:30:01Z</time></trkpt><trkpt lat="46.410359029697496" lon="12.950718675644652"><ele>341.0</ele><time>2026-04-06T14:30:02Z</time></trkpt><trkpt lat="46.410359997546955" lon="12.950976602063394"><ele>342.0</ele><time>2026-04-06T14:30:03Z</time></trkpt><trkpt lat="46.410369014490904" lon="12.951239706482392"><ele>343.0</ele><time>2026-04-06T14:30:04Z</time></trkpt><trkpt lat="46.41040422160013" lon="12.951500427730178"><ele>342.0</ele><time>2026-04-06T14:30:05Z</time></trkpt><trkpt lat="46.41045590080241" lon="12.951761583583057"><ele>341.0</ele><time>2026-04-06T14:30:06Z</time></trkpt><trkpt lat="46.41051921549758" lon="12.952024692536668"><ele>340.0</ele><time>2026-04-06T14:30:07Z</time></trkpt><trkpt lat="46.41058231598637" lon="12.952280261768063"><ele>342.3333333333333</ele><time>2026-04-06T14:30:08Z</time></trkpt><trkpt lat="46.41063789980606" lon="12.952528399018975"><ele>344.6666666666667</ele><time>2026-04-06T14:30:09Z</time></trkpt><trkpt lat="46.41068896533458" lon="12.952766494074892"><ele>347.0</ele><time>2026-04-06T14:30:10Z</time></trkpt><trkpt lat="46.410739405907776" lon="12.95299644584756"><ele>347.0</ele><time>2026-04-06T14:30:11Z</time></trkpt><trkpt lat="46.41078221618859" lon="12.953222363694113"><ele>347.0</ele><time>2026-04-06T14:30:12Z</time></trkpt><trkpt lat="46.41081271248777" lon="12.953452838847749"><ele>347.0</ele><time>2026-04-06T14:30:13Z</time></trkpt><trkpt lat="46.41083168629382" lon="12.95368584002088"><ele>346.6666666666667</ele><time>2026-04-06T14:30:14Z</time></trkpt><trkpt lat="46.4108422056407" lon="12.953923553380026"><ele>346.3333333333333</ele><time>2026-04-06T14:30:15Z</time></trkpt><trkpt lat="46.41084505741143" lon="12.954168876415135"><ele>346.0</ele><time>2026-04-06T14:30:16Z</time></trkpt><trkpt lat="46.41084431530945" lon="12.954416641443503"><ele>346.0</ele><time>2026-04-06T14:30:17Z</time></trkpt><trkpt lat="46.410847751741564" lon="12.954662896645727"><ele>346.0</ele><time>2026-04-06T14:30:18Z</time></trkpt><trkpt lat="46.410850220042306" lon="12.954904185044983"><ele>346.0</ele><time>2026-04-06T14:30:19Z</time></trkpt><trkpt lat="46.41084988265077" lon="12.955125255142582"><ele>346.0</ele><time>2026-04-06T14:30:20Z</time></trkpt><trkpt lat="46.41085112524351" lon="12.95532879795799"><ele>346.0</ele><time>2026-04-06T14:30:21Z</time></trkpt><trkpt lat="46.410851311511166" lon="12.955535258526293"><ele>346.0</ele><time>2026-04-06T14:30:22Z</time></trkpt><trkpt lat="46.41085130182945" lon="12.95573190783695"><ele>346.0</ele><time>2026-04-06T14:30:23Z</time></trkpt><trkpt lat="46.41085186038007" lon="12.95591252011825"><ele>344.25</ele><time>2026-04-06T14:30:24Z</time></trkpt><trkpt lat="46.410852182358234" lon="12.95609041971687"><ele>342.5</ele><time>2026-04-06T14:30:25Z</time></trkpt><trkpt lat="46.410854024766316" lon="12.956272515316554"><ele>340.75</ele><time>2026-04-06T14:30:26Z</time></trkpt><trkpt lat="46.410857872711944" lon="12.95645430011442"><ele>339.0</ele><time>2026-04-06T14:30:27Z</time></trkpt><trkpt lat="46.4108643703028" lon="12.956633739567984"><ele>338.75</ele><time>2026-04-06T14:30:28Z</time></trkpt><trkpt lat="46.41087046714133" lon="12.956810866257143"><ele>338.5</ele><time>2026-04-06T14:30:29Z</time></trkpt><trkpt lat="46.4108789289467" lon="12.956996209820543"><ele>338.25</ele><time>2026-04-06T14:30:30Z</time></trkpt><trkpt lat="46.4108856318951" lon="12.957184757255495"><ele>338.0</ele><time>2026-04-06T14:30:31Z</time></trkpt><trkpt lat="46.410892211424176" lon="12.957372250359503"><ele>337.75</ele><time>2026-04-06T14:30:32Z</time></trkpt><trkpt lat="46.41089920221656" lon="12.957558119150274"><ele>337.5</ele><time>2026-04-06T14:30:33Z</time></trkpt><trkpt lat="46.41090384273435" lon="12.957741571445347"><ele>337.25</ele><time>2026-04-06T14:30:34Z</time></trkpt><trkpt lat="46.41090855477786" lon="12.957925112414143"><ele>337.0</ele><time>2026-04-06T14:30:35Z</time></trkpt><trkpt lat="46.41091632674859" lon="12.958120358777107"><ele>337.0</ele><time>2026-04-06T14:30:36Z</time></trkpt><trkpt lat="46.41092602835659" lon="12.958332324711249"><ele>337.0</ele><time>2026-04-06T14:30:37Z</time></trkpt><trkpt lat="46.41093199136365" lon="12.958544897744144"><ele>337.0</ele><time>2026-04-06T14:30:38Z</time></trkpt><trkpt lat="46.41093244602355" lon="12.95875831973617"><ele>337.0</ele><time>2026-04-06T14:30:39Z</time></trkpt><trkpt lat="46.41092474163494" lon="12.958980567432192"><ele>336.3333333333333</ele><time>2026-04-06T14:30:40Z</time></trkpt><trkpt lat="46.41090296845903" lon="12.959207394016728"><ele>335.6666666666667</ele><time>2026-04-06T14:30:41Z</time></trkpt><trkpt lat="46.4108658853189" lon="12.959437330935145"><ele>335.0</ele><time>2026-04-06T14:30:42Z</time></trkpt><trkpt lat="46.4108160310676" lon="12.959672844859229"><ele>335.0</ele><time>2026-04-06T14:30:43Z</time></trkpt><trkpt lat="46.41075754770056" lon="12.959908631854315"><ele>335.0</ele><time>2026-04-06T14:30:44Z</time></trkpt><trkpt lat="46.410687108424796" lon="12.960156041041282"><ele>335.0</ele><time>2026-04-06T14:30:45Z</time></trkpt><trkpt lat="46.41061585010118" lon="12.960403500170816"><ele>336.0</ele><time>2026-04-06T14:30:46Z</time></trkpt><trkpt lat="46.4105465215833" lon="12.96065413512797"><ele>337.0</ele><time>2026-04-06T14:30:47Z</time></trkpt><trkpt lat="46.410478778717156" lon="12.960905992117405"><ele>338.0</ele><time>2026-04-06T14:30:48Z</time></trkpt><trkpt lat="46.410417819118315" lon="12.961161451704125"><ele>338.0</ele><time>2026-04-06T14:30:49Z</time></trkpt><trkpt lat="46.41037230840059" lon="12.961418815049635"><ele>338.0</ele><time>2026-04-06T14:30:50Z</time></trkpt><trkpt lat="46.41034045070206" lon="12.961677818000881"><ele>338.0</ele><time>2026-04-06T14:30:51Z</time></trkpt><trkpt lat="46.41032405292687" lon="12.961935761932585"><ele>338.0</ele><time>2026-04-06T14:30:52Z</time></trkpt><trkpt lat="46.410321868752426" lon="12.962193098866141"><ele>338.0</ele><time>2026-04-06T14:30:53Z</time></trkpt><trkpt lat="46.41033069322112" lon="12.962457564651904"><ele>338.0</ele><time>2026-04-06T14:30:54Z</time></trkpt><trkpt lat="46.41034305625455" lon="12.962727219164657"><ele>337.6666666666667</ele><time>2026-04-06T14:30:55Z</time></trkpt><trkpt lat="46.410357577190744" lon="12.962999864450872"><ele>337.3333333333333</ele><time>2026-04-06T14:30:56Z</time></trkpt><trkpt lat="46.410368640254305" lon="12.963271437212772"><ele>337.0</ele><time>2026-04-06T14:30:57Z</time></trkpt><trkpt lat="46.41037552157052" lon="12.963542379449603"><ele>337.0</ele><time>2026-04-06T14:30:58Z</time></trkpt><trkpt lat="46.41037715834371" lon="12.96381896785109"><ele>337.0</ele><time>2026-04-06T14:30:59Z</time></trkpt><trkpt lat="46.41037152086379" lon="12.96410758425353"><ele>337.0</ele><time>2026-04-06T14:31:00Z</time></trkpt><trkpt lat="46.41035982466896" lon="12.964405549884086"><ele>337.0</ele><time>2026-04-06T14:31:01Z</time></trkpt><trkpt lat="46.410341519048735" lon="12.964715577148297"><ele>337.0</ele><time>2026-04-06T14:31:02Z</time></trkpt><trkpt lat="46.41031990109139" lon="12.96502728662095"><ele>337.0</ele><time>2026-04-06T14:31:03Z</time></trkpt><trkpt lat="46.41029199609293" lon="12.965334517141384"><ele>336.3333333333333</ele><time>2026-04-06T14:31:04Z</time></trkpt><trkpt lat="46.410257563266" lon="12.965638617194038"><ele>335.6666666666667</ele><time>2026-04-06T14:31:05Z</time></trkpt><trkpt lat="46.4102197761568" lon="12.965935540693291"><ele>335.0</ele><time>2026-04-06T14:31:06Z</time></trkpt><trkpt lat="46.41017815258789" lon="12.966223957097263"><ele>335.33333333333337</ele><time>2026-04-06T14:31:07Z</time></trkpt><trkpt lat="46.4101264034756" lon="12.966500079374947"><ele>335.6666666666667</ele><time>2026-04-06T14:31:08Z</time></trkpt><trkpt lat="46.41006379000893" lon="12.96676657576756"><ele>336.0</ele><time>2026-04-06T14:31:09Z</time></trkpt><trkpt lat="46.40999824260298" lon="12.967027918575427"><ele>336.0</ele><time>2026-04-06T14:31:10Z</time></trkpt><trkpt lat="46.409929656721694" lon="12.967288697977871"><ele>336.0</ele><time>2026-04-06T14:31:11Z</time></trkpt><trkpt lat="46.409857325400864" lon="12.967546769672792"><ele>336.0</ele><time>2026-04-06T14:31:12Z</time></trkpt><trkpt lat="46.40977718983612" lon="12.96780916662937"><ele>334.6666666666667</ele><time>2026-04-06T14:31:13Z</time></trkpt><trkpt lat="46.40969560249087" lon="12.968067300176536"><ele>333.33333333333337</ele><time>2026-04-06T14:31:14Z</time></trkpt><trkpt lat="46.409617905153276" lon="12.968325582524686"><ele>332.0</ele><time>2026-04-06T14:31:15Z</time></trkpt><trkpt lat="46.40954126918995" lon="12.968582714553477"><ele>332.0</ele><time>2026-04-06T14:31:16Z</time></trkpt><trkpt lat="46.409461301857206" lon="12.968842290018756"><ele>332.0</ele><time>2026-04-06T14:31:17Z</time></trkpt><trkpt lat="46.409380901017435" lon="12.9691103211102"><ele>332.0</ele><time>2026-04-06T14:31:18Z</time></trkpt><trkpt lat="46.40929899845373" lon="12.969377324467017"><ele>333.0</ele><time>2026-04-06T14:31:19Z</time></trkpt><trkpt lat="46.40921552169012" lon="12.969645228422564"><ele>334.0</ele><time>2026-04-06T14:31:20Z</time></trkpt><trkpt lat="46.40913348925818" lon="12.969916236780252"><ele>335.0</ele><time>2026-04-06T14:31:21Z</time></trkpt><trkpt lat="46.40905240498857" lon="12.97018659772699"><ele>333.6666666666667</ele><time>2026-04-06T14:31:22Z</time></trkpt><trkpt lat="46.40896937957706" lon="12.970454924253456"><ele>332.3333333333333</ele><time>2026-04-06T14:31:23Z</time></trkpt><trkpt lat="46.40888613577729" lon="12.970719783332697"><ele>331.0</ele><time>2026-04-06T14:31:23.999Z</time></trkpt><trkpt lat="46.40880546005045" lon="12.970985268912525"><ele>331.0</ele><time>2026-04-06T14:31:24.999Z</time></trkpt><trkpt lat="46.408726972774225" lon="12.971250513199966"><ele>331.0</ele><time>2026-04-06T14:31:25.999Z</time></trkpt><trkpt lat="46.408646565486904" lon="12.971517887403477"><ele>331.0</ele><time>2026-04-06T14:31:26.999Z</time></trkpt><trkpt lat="46.40855971421729" lon="12.971798752828036"><ele>331.3333333333333</ele><time>2026-04-06T14:31:27.999Z</time></trkpt><trkpt lat="46.40847189484308" lon="12.972092327626246"><ele>331.6666666666667</ele><time>2026-04-06T14:31:28.999Z</time></trkpt><trkpt lat="46.40838373029863" lon="12.972396489722492"><ele>332.0</ele><time>2026-04-06T14:31:29.999Z</time></trkpt><trkpt lat="46.40829485489844" lon="12.97270422615518"><ele>334.0</ele><time>2026-04-06T14:31:30.999Z</time></trkpt><trkpt lat="46.408207968036585" lon="12.973014920580685"><ele>336.0</ele><time>2026-04-06T14:31:31.999Z</time></trkpt><trkpt lat="46.408124112635" lon="12.973325270814252"><ele>338.3333333333333</ele><time>2026-04-06T14:31:32.999Z</time></trkpt><trkpt lat="46.408045678853696" lon="12.973623865030598"><ele>340.66666666666663</ele><time>2026-04-06T14:31:33.999Z</time></trkpt><trkpt lat="46.40797310184496" lon="12.973915336730288"><ele>343.0</ele><time>2026-04-06T14:31:34.999Z</time></trkpt><trkpt lat="46.407902957023396" lon="12.974206614260313"><ele>337.66666666666663</ele><time>2026-04-06T14:31:35.999Z</time></trkpt><trkpt lat="46.40783792648481" lon="12.974498575316368"><ele>332.3333333333333</ele><time>2026-04-06T14:31:36.999Z</time></trkpt><trkpt lat="46.40777440593331" lon="12.974786673712568"><ele>327.0</ele><time>2026-04-06T14:31:37.999Z</time></trkpt><trkpt lat="46.40771010625787" lon="12.975069267392252"><ele>327.0</ele><time>2026-04-06T14:31:38.999Z</time></trkpt><trkpt lat="46.40764993357673" lon="12.975347749507392"><ele>327.0</ele><time>2026-04-06T14:31:39.999Z</time></trkpt><trkpt lat="46.40759599199683" lon="12.975623952224806"><ele>327.0</ele><time>2026-04-06T14:31:40.999Z</time></trkpt><trkpt lat="46.407545231515556" lon="12.975892819557316"><ele>328.0</ele><time>2026-04-06T14:31:41.999Z</time></trkpt><trkpt lat="46.40749833037894" lon="12.976158693092414"><ele>329.0</ele><time>2026-04-06T14:31:42.999Z</time></trkpt><trkpt lat="46.40745375378282" lon="12.976423763673623"><ele>330.0</ele><time>2026-04-06T14:31:43.999Z</time></trkpt><trkpt lat="46.407410037273195" lon="12.976688573459162"><ele>330.3333333333333</ele><time>2026-04-06T14:31:45Z</time></trkpt><trkpt lat="46.40736930628009" lon="12.97695214415157"><ele>330.66666666666663</ele><time>2026-04-06T14:31:46Z</time></trkpt><trkpt lat="46.40733213483734" lon="12.97720857354639"><ele>331.0</ele><time>2026-04-06T14:31:47Z</time></trkpt><trkpt lat="46.40729855777214" lon="12.977462036979214"><ele>331.3333333333333</ele><time>2026-04-06T14:31:48Z</time></trkpt><trkpt lat="46.40726810168363" lon="12.977710215983135"><ele>331.6666666666667</ele><time>2026-04-06T14:31:49Z</time></trkpt><trkpt lat="46.40723773223974" lon="12.977956423271312"><ele>332.0</ele><time>2026-04-06T14:31:50Z</time></trkpt><trkpt lat="46.40720904080199" lon="12.978203886988092"><ele>333.0</ele><time>2026-04-06T14:31:51Z</time></trkpt><trkpt lat="46.40718122170154" lon="12.978454902529304"><ele>334.0</ele><time>2026-04-06T14:31:52Z</time></trkpt><trkpt lat="46.40715342193389" lon="12.9787158190719"><ele>335.0</ele><time>2026-04-06T14:31:53Z</time></trkpt><trkpt lat="46.407127332914264" lon="12.978983608436494"><ele>332.6666666666667</ele><time>2026-04-06T14:31:54Z</time></trkpt><trkpt lat="46.4071017704013" lon="12.979254027513816"><ele>330.3333333333333</ele><time>2026-04-06T14:31:55Z</time></trkpt><trkpt lat="46.40707654114185" lon="12.97952889781341"><ele>328.0</ele><time>2026-04-06T14:31:56Z</time></trkpt><trkpt lat="46.40705072048169" lon="12.979808601189228"><ele>327.3333333333333</ele><time>2026-04-06T14:31:57Z</time></trkpt><trkpt lat="46.407023231514366" lon="12.980088953763996"><ele>326.6666666666667</ele><time>2026-04-06T14:31:58Z</time></trkpt><trkpt lat="46.40699518587561" lon="12.980371314184438"><ele>326.0</ele><time>2026-04-06T14:31:59Z</time></trkpt><trkpt lat="46.40696660741118" lon="12.98065492383791"><ele>327.33333333333337</ele><time>2026-04-06T14:32:00Z</time></trkpt><trkpt lat="46.40693956474947" lon="12.980936947576717"><ele>328.6666666666667</ele><time>2026-04-06T14:32:01Z</time></trkpt><trkpt lat="46.406912417507634" lon="12.981218299565453"><ele>330.0</ele><time>2026-04-06T14:32:02Z</time></trkpt><trkpt lat="46.406885340403676" lon="12.981499541864217"><ele>329.0</ele><time>2026-04-06T14:32:03Z</time></trkpt><trkpt lat="46.40685881937542" lon="12.98177881181874"><ele>328.0</ele><time>2026-04-06T14:32:04Z</time></trkpt><trkpt lat="46.40683195897021" lon="12.982053402227011"><ele>327.0</ele><time>2026-04-06T14:32:05Z</time></trkpt><trkpt lat="46.40680703680858" lon="12.98232128945531"><ele>327.3333333333333</ele><time>2026-04-06T14:32:06Z</time></trkpt><trkpt lat="46.40678243190882" lon="12.982584859387465"><ele>327.66666666666663</ele><time>2026-04-06T14:32:07Z</time></trkpt><trkpt lat="46.406757148095615" lon="12.982846803840552"><ele>328.0</ele><time>2026-04-06T14:32:08Z</time></trkpt><trkpt lat="46.406732027225935" lon="12.983107180939005"><ele>328.0</ele><time>2026-04-06T14:32:09Z</time></trkpt><trkpt lat="46.40670613987745" lon="12.98337003090557"><ele>328.0</ele><time>2026-04-06T14:32:10Z</time></trkpt><trkpt lat="46.40668165609371" lon="12.983631646122102"><ele>328.0</ele><time>2026-04-06T14:32:11Z</time></trkpt><trkpt lat="46.40665779315098" lon="12.983893344422372"><ele>328.0</ele><time>2026-04-06T14:32:12Z</time></trkpt><trkpt lat="46.40663306998981" lon="12.984155544935765"><ele>328.0</ele><time>2026-04-06T14:32:13Z</time></trkpt><trkpt lat="46.40660894455039" lon="12.984417218131847"><ele>328.0</ele><time>2026-04-06T14:32:14Z</time></trkpt><trkpt lat="46.40658368578185" lon="12.984676702136843"><ele>328.66666666666663</ele><time>2026-04-06T14:32:15Z</time></trkpt><trkpt lat="46.406555839768814" lon="12.984934403157776"><ele>329.3333333333333</ele><time>2026-04-06T14:32:16Z</time></trkpt><trkpt lat="46.406527091121085" lon="12.98519217734952"><ele>330.0</ele><time>2026-04-06T14:32:17Z</time></trkpt><trkpt lat="46.40649758695816" lon="12.985457046861283"><ele>331.3333333333333</ele><time>2026-04-06T14:32:18Z</time></trkpt><trkpt lat="46.40646481341739" lon="12.985719895578129"><ele>332.66666666666663</ele><time>2026-04-06T14:32:19Z</time></trkpt><trkpt lat="46.40642867429252" lon="12.985981381183505"><ele>334.0</ele><time>2026-04-06T14:32:20Z</time></trkpt><trkpt lat="46.40639022223884" lon="12.986246730463609"><ele>334.0</ele><time>2026-04-06T14:32:21Z</time></trkpt><trkpt lat="46.40635151946735" lon="12.986508833040224"><ele>334.0</ele><time>2026-04-06T14:32:22Z</time></trkpt><trkpt lat="46.40630840706292" lon="12.98676687939511"><ele>334.0</ele><time>2026-04-06T14:32:23Z</time></trkpt><trkpt lat="46.406264488921465" lon="12.987025551601585"><ele>330.3333333333333</ele><time>2026-04-06T14:32:24Z</time></trkpt><trkpt lat="46.406219248704396" lon="12.987284182026677"><ele>326.6666666666667</ele><time>2026-04-06T14:32:25Z</time></trkpt><trkpt lat="46.406175910679835" lon="12.987540555731568"><ele>323.0</ele><time>2026-04-06T14:32:26Z</time></trkpt><trkpt lat="46.406131249153304" lon="12.987792768730973"><ele>323.0</ele><time>2026-04-06T14:32:27Z</time></trkpt><trkpt lat="46.40608239164652" lon="12.988041702219197"><ele>323.0</ele><time>2026-04-06T14:32:28Z</time></trkpt><trkpt lat="46.406030718953716" lon="12.988287450401058"><ele>323.0</ele><time>2026-04-06T14:32:29Z</time></trkpt><trkpt lat="46.40597768987433" lon="12.988533420609091"><ele>322.33333333333337</ele><time>2026-04-06T14:32:30Z</time></trkpt><trkpt lat="46.405924151656876" lon="12.988779020723355"><ele>321.6666666666667</ele><time>2026-04-06T14:32:31Z</time></trkpt><trkpt lat="46.405868453882285" lon="12.989023650519032"><ele>321.0</ele><time>2026-04-06T14:32:32Z</time></trkpt><trkpt lat="46.40581223749634" lon="12.989269012954084"><ele>320.3333333333333</ele><time>2026-04-06T14:32:33Z</time></trkpt><trkpt lat="46.40575260042738" lon="12.98951420069126"><ele>319.66666666666663</ele><time>2026-04-06T14:32:34Z</time></trkpt><trkpt lat="46.40568955136242" lon="12.98975927660207"><ele>319.0</ele><time>2026-04-06T14:32:35Z</time></trkpt><trkpt lat="46.405627895528255" lon="12.990001545216236"><ele>318.66666666666663</ele><time>2026-04-06T14:32:36Z</time></trkpt><trkpt lat="46.405561612217376" lon="12.990243866494877"><ele>318.3333333333333</ele><time>2026-04-06T14:32:37Z</time></trkpt><trkpt lat="46.405493327926436" lon="12.9904853131536"><ele>318.0</ele><time>2026-04-06T14:32:38Z</time></trkpt><trkpt lat="46.405422348043395" lon="12.990731122519758"><ele>318.3333333333333</ele><time>2026-04-06T14:32:39Z</time></trkpt><trkpt lat="46.40534839699801" lon="12.990977416773307"><ele>318.66666666666663</ele><time>2026-04-06T14:32:40Z</time></trkpt><trkpt lat="46.40526928481952" lon="12.99122934881801"><ele>319.0</ele><time>2026-04-06T14:32:41Z</time></trkpt><trkpt lat="46.40518785268108" lon="12.991487942200157"><ele>318.66666666666663</ele><time>2026-04-06T14:32:42Z</time></trkpt><trkpt lat="46.40510209854697" lon="12.991750662764588"><ele>318.3333333333333</ele><time>2026-04-06T14:32:43Z</time></trkpt><trkpt lat="46.40501498062167" lon="12.992018798223068"><ele>318.0</ele><time>2026-04-06T14:32:44Z</time></trkpt><trkpt lat="46.404923683101224" lon="12.99229060811152"><ele>318.0</ele><time>2026-04-06T14:32:45Z</time></trkpt><trkpt lat="46.404827787596396" lon="12.992566151464864"><ele>318.0</ele><time>2026-04-06T14:32:46Z</time></trkpt><trkpt lat="46.40472957669625" lon="12.992842295920552"><ele>318.0</ele><time>2026-04-06T14:32:47Z</time></trkpt><trkpt lat="46.4046251701441" lon="12.993120376405356"><ele>318.3333333333333</ele><time>2026-04-06T14:32:48Z</time></trkpt><trkpt lat="46.404515814942464" lon="12.99340061534508"><ele>318.66666666666663</ele><time>2026-04-06T14:32:49Z</time></trkpt><trkpt lat="46.40440242186275" lon="12.99367747265207"><ele>319.0</ele><time>2026-04-06T14:32:50Z</time></trkpt><trkpt lat="46.40428908250965" lon="12.993947092282115"><ele>319.0</ele><time>2026-04-06T14:32:51Z</time></trkpt><trkpt lat="46.404176208104886" lon="12.994212870140272"><ele>319.0</ele><time>2026-04-06T14:32:52Z</time></trkpt><trkpt lat="46.40406107025242" lon="12.994475423605786"><ele>319.0</ele><time>2026-04-06T14:32:53Z</time></trkpt><trkpt lat="46.403944945405115" lon="12.994732073997879"><ele>319.0</ele><time>2026-04-06T14:32:54Z</time></trkpt><trkpt lat="46.403828445874545" lon="12.994983222162862"><ele>319.0</ele><time>2026-04-06T14:32:55Z</time></trkpt><trkpt lat="46.40371178685472" lon="12.995229376870485"><ele>319.0</ele><time>2026-04-06T14:32:56Z</time></trkpt><trkpt lat="46.40359453211901" lon="12.995470574841914"><ele>319.0</ele><time>2026-04-06T14:32:57Z</time></trkpt><trkpt lat="46.403477733230964" lon="12.995708570231267"><ele>319.0</ele><time>2026-04-06T14:32:58Z</time></trkpt><trkpt lat="46.40335931742853" lon="12.99594503600367"><ele>319.0</ele><time>2026-04-06T14:32:59Z</time></trkpt><trkpt lat="46.40323942416262" lon="12.9961810107535"><ele>319.3333333333333</ele><time>2026-04-06T14:33:00Z</time></trkpt><trkpt lat="46.40312037804786" lon="12.99641647158653"><ele>319.6666666666667</ele><time>2026-04-06T14:33:01Z</time></trkpt><trkpt lat="46.40300140011299" lon="12.996650370883746"><ele>320.0</ele><time>2026-04-06T14:33:02Z</time></trkpt><trkpt lat="46.40288328533661" lon="12.996884290831211"><ele>320.33333333333337</ele><time>2026-04-06T14:33:03Z</time></trkpt><trkpt lat="46.402764899966" lon="12.997117124726104"><ele>320.6666666666667</ele><time>2026-04-06T14:33:04Z</time></trkpt><trkpt lat="46.40265185037743" lon="12.997353853461282"><ele>321.0</ele><time>2026-04-06T14:33:05Z</time></trkpt><trkpt lat="46.402547241307026" lon="12.997594587132902"><ele>321.6666666666667</ele><time>2026-04-06T14:33:06Z</time></trkpt><trkpt lat="46.402451942469085" lon="12.99783731621572"><ele>322.33333333333337</ele><time>2026-04-06T14:33:07Z</time></trkpt><trkpt lat="46.40236296536027" lon="12.998082335199829"><ele>323.0</ele><time>2026-04-06T14:33:08Z</time></trkpt><trkpt lat="46.40228273105611" lon="12.998327558035394"><ele>322.0</ele><time>2026-04-06T14:33:09Z</time></trkpt><trkpt lat="46.402210225187744" lon="12.998571771809145"><ele>321.0</ele><time>2026-04-06T14:33:10Z</time></trkpt><trkpt lat="46.40214537780609" lon="12.998814069264677"><ele>320.0</ele><time>2026-04-06T14:33:11Z</time></trkpt><trkpt lat="46.402087354161075" lon="12.99905107953693"><ele>319.0</ele><time>2026-04-06T14:33:12Z</time></trkpt><trkpt lat="46.402030477079016" lon="12.999281853911116"><ele>318.0</ele><time>2026-04-06T14:33:13Z</time></trkpt><trkpt lat="46.40197679126876" lon="12.999515227358254"><ele>317.0</ele><time>2026-04-06T14:33:14Z</time></trkpt><trkpt lat="46.401924799920465" lon="12.999739906011786"><ele>317.0</ele><time>2026-04-06T14:33:15Z</time></trkpt><trkpt lat="46.401876372405056" lon="12.999952983228765"><ele>317.0</ele><time>2026-04-06T14:33:16Z</time></trkpt><trkpt lat="46.40182863861222" lon="13.000163774033947"><ele>317.0</ele><time>2026-04-06T14:33:17Z</time></trkpt><trkpt lat="46.40178620824359" lon="13.000354607419046"><ele>317.0</ele><time>2026-04-06T14:33:18Z</time></trkpt><trkpt lat="46.4017453754821" lon="13.000533386544443"><ele>317.0</ele><time>2026-04-06T14:33:19Z</time></trkpt><trkpt lat="46.401701426680354" lon="13.00072126732133"><ele>317.0</ele><time>2026-04-06T14:33:20Z</time></trkpt><trkpt lat="46.40165769590449" lon="13.000910935575671"><ele>317.0</ele><time>2026-04-06T14:33:21Z</time></trkpt><trkpt lat="46.40161434129565" lon="13.001101091681116"><ele>317.0</ele><time>2026-04-06T14:33:22Z</time></trkpt><trkpt lat="46.40157252811385" lon="13.001281350875727"><ele>317.0</ele><time>2026-04-06T14:33:23Z</time></trkpt><trkpt lat="46.401533763617394" lon="13.001442633739389"><ele>317.0</ele><time>2026-04-06T14:33:24Z</time></trkpt><trkpt lat="46.4014980784712" lon="13.001601909781108"><ele>317.0</ele><time>2026-04-06T14:33:24.999Z</time></trkpt><trkpt lat="46.40146357804294" lon="13.001761808618854"><ele>317.0</ele><time>2026-04-06T14:33:25.999Z</time></trkpt><trkpt lat="46.40143238379666" lon="13.001896646722853"><ele>317.0</ele><time>2026-04-06T14:33:26.999Z</time></trkpt><trkpt lat="46.40140196083041" lon="13.002022652579345"><ele>317.0</ele><time>2026-04-06T14:33:27.999Z</time></trkpt><trkpt lat="46.401367009487224" lon="13.002140838054746"><ele>317.0</ele><time>2026-04-06T14:33:28.999Z</time></trkpt><trkpt lat="46.40132578662388" lon="13.002254519808554"><ele>317.0</ele><time>2026-04-06T14:33:29.999Z</time></trkpt><trkpt lat="46.40127826858822" lon="13.002359912518067"><ele>317.0</ele><time>2026-04-06T14:33:30.999Z</time></trkpt><trkpt lat="46.401223778887065" lon="13.00246528313027"><ele>317.0</ele><time>2026-04-06T14:33:31.999Z</time></trkpt><trkpt lat="46.401171365536754" lon="13.002552235821186"><ele>317.0</ele><time>2026-04-06T14:33:32.999Z</time></trkpt><trkpt lat="46.40111757725289" lon="13.002623333550709"><ele>317.33333333333337</ele><time>2026-04-06T14:33:33.999Z</time></trkpt><trkpt lat="46.40105209317875" lon="13.002683909853417"><ele>317.6666666666667</ele><time>2026-04-06T14:33:34.999Z</time></trkpt><trkpt lat="46.40096987408942" lon="13.002703869325476"><ele>318.0</ele><time>2026-04-06T14:33:35.999Z</time></trkpt><trkpt lat="46.4008986286532" lon="13.002686898588147"><ele>318.3333333333333</ele><time>2026-04-06T14:33:36.999Z</time></trkpt><trkpt lat="46.40081456250208" lon="13.002733819311642"><ele>318.66666666666663</ele><time>2026-04-06T14:33:37.999Z</time></trkpt><trkpt lat="46.40072570878177" lon="13.002715412062049"><ele>319.0</ele><time>2026-04-06T14:33:38.999Z</time></trkpt><trkpt lat="46.400628959282066" lon="13.002695468687582"><ele>319.0</ele><time>2026-04-06T14:33:39.999Z</time></trkpt><trkpt lat="46.400520280080826" lon="13.002677753350232"><ele>319.0</ele><time>2026-04-06T14:33:40.999Z</time></trkpt><trkpt lat="46.40042039624512" lon="13.002661471664894"><ele>319.0</ele><time>2026-04-06T14:33:41.999Z</time></trkpt><trkpt lat="46.40034601448754" lon="13.002600998877114"><ele>319.0</ele><time>2026-04-06T14:33:42.999Z</time></trkpt><trkpt lat="46.40026856116916" lon="13.002600944392599"><ele>319.0</ele><time>2026-04-06T14:33:43.999Z</time></trkpt><trkpt lat="46.400180685038265" lon="13.002599925308237"><ele>318.59999999999997</ele><time>2026-04-06T14:33:44.999Z</time></trkpt><trkpt lat="46.40008515283666" lon="13.002613823271927"><ele>318.2</ele><time>2026-04-06T14:33:45.999Z</time></trkpt><trkpt lat="46.399997126446266" lon="13.0026385272731"><ele>317.79999999999995</ele><time>2026-04-06T14:33:46.999Z</time></trkpt><trkpt lat="46.39990920847606" lon="13.002667416648993"><ele>317.4</ele><time>2026-04-06T14:33:47.999Z</time></trkpt><trkpt lat="46.39982125749792" lon="13.002715772430818"><ele>317.0</ele><time>2026-04-06T14:33:48.999Z</time></trkpt><trkpt lat="46.399721496536465" lon="13.002804219951416"><ele>316.33333333333337</ele><time>2026-04-06T14:33:50Z</time></trkpt><trkpt lat="46.39961407006004" lon="13.002922617647743"><ele>315.6666666666667</ele><time>2026-04-06T14:33:51Z</time></trkpt><trkpt lat="46.39949752789936" lon="13.003076791324169"><ele>315.0</ele><time>2026-04-06T14:33:52Z</time></trkpt><trkpt lat="46.39936775901677" lon="13.00324586750766"><ele>315.6666666666667</ele><time>2026-04-06T14:33:53Z</time></trkpt><trkpt lat="46.399240203141225" lon="13.003417838049256"><ele>316.33333333333337</ele><time>2026-04-06T14:33:54Z</time></trkpt><trkpt lat="46.399115040386974" lon="13.003590132236987"><ele>317.0</ele><time>2026-04-06T14:33:55Z</time></trkpt><trkpt lat="46.3989920139197" lon="13.00375979639091"><ele>317.0</ele><time>2026-04-06T14:33:56Z</time></trkpt><trkpt lat="46.398868602904045" lon="13.003931296918587"><ele>317.0</ele><time>2026-04-06T14:33:57Z</time></trkpt><trkpt lat="46.39874465652842" lon="13.004107714025288"><ele>317.0</ele><time>2026-04-06T14:33:58Z</time></trkpt><trkpt lat="46.398624123373395" lon="13.004285936380334"><ele>316.0</ele><time>2026-04-06T14:33:59Z</time></trkpt><trkpt lat="46.39850214614151" lon="13.00446007848042"><ele>315.0</ele><time>2026-04-06T14:34:00Z</time></trkpt><trkpt lat="46.39839545333146" lon="13.004642693568265"><ele>314.0</ele><time>2026-04-06T14:34:01Z</time></trkpt><trkpt lat="46.39830158101505" lon="13.004853959255582"><ele>313.6666666666667</ele><time>2026-04-06T14:34:02Z</time></trkpt><trkpt lat="46.398129997936046" lon="13.005019266918962"><ele>313.3333333333333</ele><time>2026-04-06T14:34:03Z</time></trkpt><trkpt lat="46.39798496182204" lon="13.005232581885465"><ele>313.0</ele><time>2026-04-06T14:34:04Z</time></trkpt><trkpt lat="46.397838095993926" lon="13.005434875035958"><ele>313.0</ele><time>2026-04-06T14:34:05Z</time></trkpt><trkpt lat="46.397695268219074" lon="13.00563567179509"><ele>313.0</ele><time>2026-04-06T14:34:06Z</time></trkpt><trkpt lat="46.397554548082205" lon="13.00583847933622"><ele>313.0</ele><time>2026-04-06T14:34:07Z</time></trkpt><trkpt lat="46.397409405657065" lon="13.006035531696378"><ele>312.66666666666663</ele><time>2026-04-06T14:34:08Z</time></trkpt><trkpt lat="46.39725932709904" lon="13.006231424157406"><ele>312.3333333333333</ele><time>2026-04-06T14:34:09Z</time></trkpt><trkpt lat="46.397112472048846" lon="13.00643963618208"><ele>312.0</ele><time>2026-04-06T14:34:10Z</time></trkpt><trkpt lat="46.39696471643681" lon="13.006644252376853"><ele>312.6666666666667</ele><time>2026-04-06T14:34:11Z</time></trkpt><trkpt lat="46.39681003810818" lon="13.006849616062812"><ele>313.33333333333337</ele><time>2026-04-06T14:34:12Z</time></trkpt><trkpt lat="46.396653916687114" lon="13.007060744105774"><ele>314.0</ele><time>2026-04-06T14:34:13Z</time></trkpt><trkpt lat="46.396495916328355" lon="13.00727759185611"><ele>314.0</ele><time>2026-04-06T14:34:14Z</time></trkpt><trkpt lat="46.396342385255274" lon="13.007488605102228"><ele>314.0</ele><time>2026-04-06T14:34:15Z</time></trkpt><trkpt lat="46.396194784438705" lon="13.007691269229264"><ele>314.0</ele><time>2026-04-06T14:34:16Z</time></trkpt><trkpt lat="46.3960560387627" lon="13.007886880932466"><ele>312.6666666666667</ele><time>2026-04-06T14:34:17Z</time></trkpt><trkpt lat="46.39592275579038" lon="13.008071512186048"><ele>311.3333333333333</ele><time>2026-04-06T14:34:18Z</time></trkpt><trkpt lat="46.39579273251012" lon="13.00824973985317"><ele>310.0</ele><time>2026-04-06T14:34:19Z</time></trkpt><trkpt lat="46.39566620256877" lon="13.00842726508422"><ele>309.66666666666663</ele><time>2026-04-06T14:34:20Z</time></trkpt><trkpt lat="46.39554237857684" lon="13.008607736005642"><ele>309.3333333333333</ele><time>2026-04-06T14:34:21Z</time></trkpt><trkpt lat="46.39541888481581" lon="13.008796392844944"><ele>309.0</ele><time>2026-04-06T14:34:22Z</time></trkpt><trkpt lat="46.39529882215389" lon="13.008994400817027"><ele>308.3333333333333</ele><time>2026-04-06T14:34:23Z</time></trkpt><trkpt lat="46.39517886659476" lon="13.00919750727888"><ele>307.66666666666663</ele><time>2026-04-06T14:34:24Z</time></trkpt><trkpt lat="46.39506143311514" lon="13.009408673100175"><ele>307.0</ele><time>2026-04-06T14:34:25Z</time></trkpt><trkpt lat="46.394947421936735" lon="13.009626802942147"><ele>307.0</ele><time>2026-04-06T14:34:26Z</time></trkpt><trkpt lat="46.39483142107363" lon="13.00985417053221"><ele>307.0</ele><time>2026-04-06T14:34:27Z</time></trkpt><trkpt lat="46.3947159587037" lon="13.010083545691048"><ele>307.0</ele><time>2026-04-06T14:34:28Z</time></trkpt><trkpt lat="46.39459746783096" lon="13.01031652446548"><ele>307.0</ele><time>2026-04-06T14:34:29Z</time></trkpt><trkpt lat="46.394476223070036" lon="13.01055091295021"><ele>307.0</ele><time>2026-04-06T14:34:30Z</time></trkpt><trkpt lat="46.39435592648303" lon="13.010788217894781"><ele>307.0</ele><time>2026-04-06T14:34:31Z</time></trkpt><trkpt lat="46.39423684043036" lon="13.011029762835426"><ele>307.0</ele><time>2026-04-06T14:34:32Z</time></trkpt><trkpt lat="46.39411755856578" lon="13.011269939651156"><ele>307.0</ele><time>2026-04-06T14:34:33Z</time></trkpt><trkpt lat="46.393995308986284" lon="13.0115121431534"><ele>307.0</ele><time>2026-04-06T14:34:34Z</time></trkpt><trkpt lat="46.39386842441651" lon="13.011762736663368"><ele>306.5</ele><time>2026-04-06T14:34:35Z</time></trkpt><trkpt lat="46.39373130201489" lon="13.012037616859569"><ele>306.0</ele><time>2026-04-06T14:34:36Z</time></trkpt><trkpt lat="46.39357614147744" lon="13.012363060021615"><ele>306.5</ele><time>2026-04-06T14:34:37Z</time></trkpt><trkpt lat="46.3934007151452" lon="13.012718955147802"><ele>307.0</ele><time>2026-04-06T14:34:38Z</time></trkpt><trkpt lat="46.39320961387947" lon="13.01308873791464"><ele>307.0</ele><time>2026-04-06T14:34:39Z</time></trkpt><trkpt lat="46.39301850329629" lon="13.01345462308208"><ele>307.0</ele><time>2026-04-06T14:34:40Z</time></trkpt><trkpt lat="46.39283382911317" lon="13.01381889547642"><ele>305.5</ele><time>2026-04-06T14:34:41Z</time></trkpt><trkpt lat="46.39265652159743" lon="13.014171369652441"><ele>304.0</ele><time>2026-04-06T14:34:42Z</time></trkpt><trkpt lat="46.39248544995237" lon="13.014509789162686"><ele>304.0</ele><time>2026-04-06T14:34:43Z</time></trkpt><trkpt lat="46.392323290253564" lon="13.014835080378475"><ele>304.0</ele><time>2026-04-06T14:34:44Z</time></trkpt><trkpt lat="46.392163239650465" lon="13.015143020070115"><ele>303.0</ele><time>2026-04-06T14:34:45Z</time></trkpt><trkpt lat="46.392006938542984" lon="13.015440778767731"><ele>302.0</ele><time>2026-04-06T14:34:46Z</time></trkpt><trkpt lat="46.3918593983999" lon="13.015730963944847"><ele>299.5</ele><time>2026-04-06T14:34:47Z</time></trkpt><trkpt lat="46.391718136969146" lon="13.01600912838187"><ele>297.0</ele><time>2026-04-06T14:34:48Z</time></trkpt><trkpt lat="46.391581354835004" lon="13.016276191746352"><ele>297.0</ele><time>2026-04-06T14:34:49Z</time></trkpt><trkpt lat="46.391447047959716" lon="13.016535815454004"><ele>297.0</ele><time>2026-04-06T14:34:50Z</time></trkpt><trkpt lat="46.391311615145405" lon="13.016801131138696"><ele>297.0</ele><time>2026-04-06T14:34:51Z</time></trkpt><trkpt lat="46.39117311831321" lon="13.017073550666469"><ele>297.0</ele><time>2026-04-06T14:34:52Z</time></trkpt><trkpt lat="46.39103042509062" lon="13.017354711018267"><ele>298.5</ele><time>2026-04-06T14:34:53Z</time></trkpt><trkpt lat="46.390885924172586" lon="13.017639495204909"><ele>300.0</ele><time>2026-04-06T14:34:54Z</time></trkpt><trkpt lat="46.39074205451527" lon="13.017920755280501"><ele>300.0</ele><time>2026-04-06T14:34:55Z</time></trkpt><trkpt lat="46.39059990404897" lon="13.018195499414174"><ele>300.0</ele><time>2026-04-06T14:34:56Z</time></trkpt><trkpt lat="46.3904613608938" lon="13.018475133131735"><ele>299.0</ele><time>2026-04-06T14:34:57Z</time></trkpt><trkpt lat="46.39031392561704" lon="13.018782791012304"><ele>298.0</ele><time>2026-04-06T14:34:58Z</time></trkpt><trkpt lat="46.39015577634849" lon="13.019104051312624"><ele>298.5</ele><time>2026-04-06T14:34:59Z</time></trkpt><trkpt lat="46.38998844294494" lon="13.019428744980114"><ele>299.0</ele><time>2026-04-06T14:35:00Z</time></trkpt><trkpt lat="46.38982274245186" lon="13.019756197221733"><ele>297.5</ele><time>2026-04-06T14:35:01Z</time></trkpt><trkpt lat="46.389668481046684" lon="13.020081438356142"><ele>296.0</ele><time>2026-04-06T14:35:02Z</time></trkpt><trkpt lat="46.38952016908986" lon="13.020407358428093"><ele>296.0</ele><time>2026-04-06T14:35:03Z</time></trkpt><trkpt lat="46.389381518824976" lon="13.020735379447542"><ele>296.0</ele><time>2026-04-06T14:35:04Z</time></trkpt><trkpt lat="46.389251332051145" lon="13.02107135330671"><ele>296.5</ele><time>2026-04-06T14:35:05Z</time></trkpt><trkpt lat="46.38912856068549" lon="13.021418060561643"><ele>297.0</ele><time>2026-04-06T14:35:06Z</time></trkpt><trkpt lat="46.38900801232386" lon="13.021770372517603"><ele>297.0</ele><time>2026-04-06T14:35:07Z</time></trkpt><trkpt lat="46.38889629699478" lon="13.02213162534548"><ele>297.0</ele><time>2026-04-06T14:35:08Z</time></trkpt><trkpt lat="46.388802721557454" lon="13.022502172061067"><ele>296.0</ele><time>2026-04-06T14:35:09Z</time></trkpt><trkpt lat="46.38872316508832" lon="13.02284864572035"><ele>295.0</ele><time>2026-04-06T14:35:10Z</time></trkpt><trkpt lat="46.38864966816427" lon="13.02318542780853"><ele>295.0</ele><time>2026-04-06T14:35:11Z</time></trkpt><trkpt lat="46.38858295198294" lon="13.023536519753833"><ele>295.0</ele><time>2026-04-06T14:35:12Z</time></trkpt><trkpt lat="46.38853017414639" lon="13.023898439283704"><ele>295.0</ele><time>2026-04-06T14:35:13Z</time></trkpt><trkpt lat="46.388478164555295" lon="13.02427875099851"><ele>295.0</ele><time>2026-04-06T14:35:14Z</time></trkpt><trkpt lat="46.3884320055381" lon="13.024682946421972"><ele>295.5</ele><time>2026-04-06T14:35:15Z</time></trkpt><trkpt lat="46.38839288109058" lon="13.025111070872285"><ele>296.0</ele><time>2026-04-06T14:35:16Z</time></trkpt><trkpt lat="46.388353032386355" lon="13.025553294133289"><ele>296.5</ele><time>2026-04-06T14:35:17Z</time></trkpt><trkpt lat="46.38832032297977" lon="13.025988701578699"><ele>297.0</ele><time>2026-04-06T14:35:18Z</time></trkpt><trkpt lat="46.38829279422474" lon="13.026413156346043"><ele>296.5</ele><time>2026-04-06T14:35:19Z</time></trkpt><trkpt lat="46.38826379631692" lon="13.026827521940799"><ele>296.0</ele><time>2026-04-06T14:35:20Z</time></trkpt><trkpt lat="46.388237945646836" lon="13.027233633801936"><ele>295.0</ele><time>2026-04-06T14:35:21Z</time></trkpt><trkpt lat="46.38821318980634" lon="13.027631412702442"><ele>294.0</ele><time>2026-04-06T14:35:22Z</time></trkpt><trkpt lat="46.388185983454335" lon="13.028028654099714"><ele>294.0</ele><time>2026-04-06T14:35:23Z</time></trkpt><trkpt lat="46.388160017537" lon="13.028421630633714"><ele>294.0</ele><time>2026-04-06T14:35:24Z</time></trkpt><trkpt lat="46.38813536662647" lon="13.028819801156361"><ele>294.0</ele><time>2026-04-06T14:35:25Z</time></trkpt><trkpt lat="46.38810761884022" lon="13.02920439481662"><ele>294.0</ele><time>2026-04-06T14:35:26Z</time></trkpt><trkpt lat="46.388082607772695" lon="13.029553132464603"><ele>294.0</ele><time>2026-04-06T14:35:27Z</time></trkpt><trkpt lat="46.38806096134749" lon="13.029880530477795"><ele>294.0</ele><time>2026-04-06T14:35:27.999Z</time></trkpt><trkpt lat="46.388038673997066" lon="13.030210401202432"><ele>293.5</ele><time>2026-04-06T14:35:28.999Z</time></trkpt><trkpt lat="46.38801691594386" lon="13.030556329444186"><ele>293.0</ele><time>2026-04-06T14:35:29.999Z</time></trkpt><trkpt lat="46.38799387413908" lon="13.030902747240166"><ele>292.5</ele><time>2026-04-06T14:35:30.999Z</time></trkpt><trkpt lat="46.38797157003689" lon="13.031254779885478"><ele>292.0</ele><time>2026-04-06T14:35:31.999Z</time></trkpt><trkpt lat="46.38794818787975" lon="13.031610469573643"><ele>292.0</ele><time>2026-04-06T14:35:32.999Z</time></trkpt><trkpt lat="46.38792276424469" lon="13.031983676026405"><ele>292.0</ele><time>2026-04-06T14:35:33.999Z</time></trkpt><trkpt lat="46.38789744569569" lon="13.03238414190427"><ele>291.5</ele><time>2026-04-06T14:35:34.999Z</time></trkpt><trkpt lat="46.387871773540596" lon="13.0327993090317"><ele>291.0</ele><time>2026-04-06T14:35:35.999Z</time></trkpt><trkpt lat="46.38784348826177" lon="13.033224876733382"><ele>291.5</ele><time>2026-04-06T14:35:36.999Z</time></trkpt><trkpt lat="46.387812841889776" lon="13.033667163330922"><ele>292.0</ele><time>2026-04-06T14:35:37.999Z</time></trkpt><trkpt lat="46.38778183239964" lon="13.034117109075488"><ele>291.0</ele><time>2026-04-06T14:35:38.999Z</time></trkpt><trkpt lat="46.38774898327577" lon="13.034571521116913"><ele>290.0</ele><time>2026-04-06T14:35:39.999Z</time></trkpt><trkpt lat="46.38771285857559" lon="13.035024703679648"><ele>290.0</ele><time>2026-04-06T14:35:40.999Z</time></trkpt><trkpt lat="46.38767031144674" lon="13.035473683527588"><ele>290.0</ele><time>2026-04-06T14:35:41.999Z</time></trkpt><trkpt lat="46.38761818610478" lon="13.035913396324162"><ele>290.0</ele><time>2026-04-06T14:35:42.999Z</time></trkpt><trkpt lat="46.38755065713917" lon="13.036341559347306"><ele>290.0</ele><time>2026-04-06T14:35:43.999Z</time></trkpt><trkpt lat="46.38747256339968" lon="13.036749375853963"><ele>290.0</ele><time>2026-04-06T14:35:44.999Z</time></trkpt><trkpt lat="46.38737950362973" lon="13.037140273234801"><ele>290.0</ele><time>2026-04-06T14:35:45.999Z</time></trkpt><trkpt lat="46.38726417625685" lon="13.037505212708297"><ele>290.0</ele><time>2026-04-06T14:35:46.999Z</time></trkpt><trkpt lat="46.38713705015068" lon="13.037850672732848"><ele>290.0</ele><time>2026-04-06T14:35:47.999Z</time></trkpt><trkpt lat="46.387003126031686" lon="13.038165479871752"><ele>289.0</ele><time>2026-04-06T14:35:48.999Z</time></trkpt><trkpt lat="46.38685769948021" lon="13.038458502867998"><ele>288.0</ele><time>2026-04-06T14:35:49.999Z</time></trkpt><trkpt lat="46.386701017454534" lon="13.038728036683509"><ele>288.0</ele><time>2026-04-06T14:35:50.999Z</time></trkpt><trkpt lat="46.386537239161804" lon="13.038992015396298"><ele>288.0</ele><time>2026-04-06T14:35:51.999Z</time></trkpt><trkpt lat="46.38635979009703" lon="13.039241997887167"><ele>286.5</ele><time>2026-04-06T14:35:52.999Z</time></trkpt><trkpt lat="46.38617069076886" lon="13.03947641755208"><ele>285.0</ele><time>2026-04-06T14:35:53.999Z</time></trkpt><trkpt lat="46.38597292942982" lon="13.039693228653263"><ele>285.0</ele><time>2026-04-06T14:35:54.999Z</time></trkpt><trkpt lat="46.38577215933093" lon="13.03989010457742"><ele>285.0</ele><time>2026-04-06T14:35:56Z</time></trkpt><trkpt lat="46.385568123770554" lon="13.040066013445994"><ele>284.0</ele><time>2026-04-06T14:35:57Z</time></trkpt><trkpt lat="46.38535679811108" lon="13.040232366217413"><ele>283.0</ele><time>2026-04-06T14:35:58Z</time></trkpt><trkpt lat="46.385142371089806" lon="13.040386360061122"><ele>283.0</ele><time>2026-04-06T14:35:59Z</time></trkpt><trkpt lat="46.38493077062748" lon="13.04053187109204"><ele>283.0</ele><time>2026-04-06T14:36:00Z</time></trkpt><trkpt lat="46.38471559675262" lon="13.040673633712522"><ele>283.0</ele><time>2026-04-06T14:36:01Z</time></trkpt><trkpt lat="46.384496018291735" lon="13.040815593630851"><ele>283.0</ele><time>2026-04-06T14:36:02Z</time></trkpt><trkpt lat="46.38427341520829" lon="13.040958695030543"><ele>283.0</ele><time>2026-04-06T14:36:03Z</time></trkpt><trkpt lat="46.38404831831379" lon="13.041102873409736"><ele>283.0</ele><time>2026-04-06T14:36:04Z</time></trkpt><trkpt lat="46.383822352056384" lon="13.041252235741984"><ele>285.0</ele><time>2026-04-06T14:36:05Z</time></trkpt><trkpt lat="46.383597004567335" lon="13.041402383382804"><ele>287.0</ele><time>2026-04-06T14:36:06Z</time></trkpt><trkpt lat="46.38337431714463" lon="13.04155702654527"><ele>286.5</ele><time>2026-04-06T14:36:07Z</time></trkpt><trkpt lat="46.38315198381556" lon="13.041720620436204"><ele>286.0</ele><time>2026-04-06T14:36:08Z</time></trkpt><trkpt lat="46.38293342091342" lon="13.041896004780092"><ele>285.5</ele><time>2026-04-06T14:36:09Z</time></trkpt><trkpt lat="46.38271543386736" lon="13.042080563145747"><ele>285.0</ele><time>2026-04-06T14:36:10Z</time></trkpt><trkpt lat="46.38250028438419" lon="13.042275699396724"><ele>284.5</ele><time>2026-04-06T14:36:11Z</time></trkpt><trkpt lat="46.38228532906889" lon="13.042480919110472"><ele>284.0</ele><time>2026-04-06T14:36:12Z</time></trkpt><trkpt lat="46.38207234670992" lon="13.042699021586493"><ele>282.0</ele><time>2026-04-06T14:36:13Z</time></trkpt><trkpt lat="46.381860565806235" lon="13.042927741187246"><ele>280.0</ele><time>2026-04-06T14:36:14Z</time></trkpt><trkpt lat="46.38165130571186" lon="13.043160645315595"><ele>281.5</ele><time>2026-04-06T14:36:15Z</time></trkpt><trkpt lat="46.381444244796384" lon="13.043401140408452"><ele>283.0</ele><time>2026-04-06T14:36:16Z</time></trkpt><trkpt lat="46.38123854617498" lon="13.04364468882685"><ele>283.0</ele><time>2026-04-06T14:36:17Z</time></trkpt><trkpt lat="46.38103407399797" lon="13.043887249156871"><ele>283.0</ele><time>2026-04-06T14:36:18Z</time></trkpt><trkpt lat="46.38083042566086" lon="13.044130505745645"><ele>283.0</ele><time>2026-04-06T14:36:19Z</time></trkpt><trkpt lat="46.38062667963763" lon="13.04437208805777"><ele>283.0</ele><time>2026-04-06T14:36:20Z</time></trkpt><trkpt lat="46.38042457566102" lon="13.044610900807118"><ele>283.5</ele><time>2026-04-06T14:36:21Z</time></trkpt><trkpt lat="46.380224131420576" lon="13.044849168406088"><ele>284.0</ele><time>2026-04-06T14:36:22Z</time></trkpt><trkpt lat="46.380027598824796" lon="13.045086767720983"><ele>284.0</ele><time>2026-04-06T14:36:23Z</time></trkpt><trkpt lat="46.379833246555194" lon="13.045318969240187"><ele>284.0</ele><time>2026-04-06T14:36:24Z</time></trkpt><trkpt lat="46.37964161335964" lon="13.045543503048192"><ele>284.0</ele><time>2026-04-06T14:36:25Z</time></trkpt><trkpt lat="46.37945413963623" lon="13.045767301596491"><ele>284.0</ele><time>2026-04-06T14:36:26Z</time></trkpt><trkpt lat="46.37926916383957" lon="13.045988663023973"><ele>284.0</ele><time>2026-04-06T14:36:27Z</time></trkpt><trkpt lat="46.379086107846724" lon="13.046205826619774"><ele>284.0</ele><time>2026-04-06T14:36:28Z</time></trkpt><trkpt lat="46.37890589274782" lon="13.046419012601962"><ele>282.0</ele><time>2026-04-06T14:36:29Z</time></trkpt><trkpt lat="46.37872724314306" lon="13.046631633239185"><ele>280.0</ele><time>2026-04-06T14:36:30Z</time></trkpt><trkpt lat="46.37855171388349" lon="13.046841324168364"><ele>280.0</ele><time>2026-04-06T14:36:31Z</time></trkpt><trkpt lat="46.378376563144336" lon="13.04704630098525"><ele>280.0</ele><time>2026-04-06T14:36:32Z</time></trkpt><trkpt lat="46.378201443795824" lon="13.04725257602102"><ele>280.0</ele><time>2026-04-06T14:36:33Z</time></trkpt><trkpt lat="46.378024366421265" lon="13.047460825054586"><ele>280.0</ele><time>2026-04-06T14:36:34Z</time></trkpt><trkpt lat="46.377846368162146" lon="13.047670952751579"><ele>280.0</ele><time>2026-04-06T14:36:35Z</time></trkpt><trkpt lat="46.377670055106734" lon="13.047881647465662"><ele>280.0</ele><time>2026-04-06T14:36:36Z</time></trkpt><trkpt lat="46.37749386677767" lon="13.048089534998196"><ele>279.66666666666663</ele><time>2026-04-06T14:36:37Z</time></trkpt><trkpt lat="46.37731819723645" lon="13.048294862686515"><ele>279.3333333333333</ele><time>2026-04-06T14:36:38Z</time></trkpt><trkpt lat="46.37714795485735" lon="13.048500720097621"><ele>279.0</ele><time>2026-04-06T14:36:39Z</time></trkpt><trkpt lat="46.37698147357362" lon="13.048703335468138"><ele>279.0</ele><time>2026-04-06T14:36:40Z</time></trkpt><trkpt lat="46.37681283237197" lon="13.048901969844355"><ele>279.0</ele><time>2026-04-06T14:36:41Z</time></trkpt><trkpt lat="46.37664673415804" lon="13.049101160104074"><ele>279.0</ele><time>2026-04-06T14:36:42Z</time></trkpt><trkpt lat="46.37647832977115" lon="13.049299753062972"><ele>278.0</ele><time>2026-04-06T14:36:43Z</time></trkpt><trkpt lat="46.3763074283022" lon="13.049503086473843"><ele>277.0</ele><time>2026-04-06T14:36:44Z</time></trkpt><trkpt lat="46.37613303272448" lon="13.049705817705428"><ele>276.0</ele><time>2026-04-06T14:36:45Z</time></trkpt><trkpt lat="46.37596070962196" lon="13.049913454111033"><ele>277.0</ele><time>2026-04-06T14:36:46Z</time></trkpt><trkpt lat="46.37578695129845" lon="13.050119660128177"><ele>278.0</ele><time>2026-04-06T14:36:47Z</time></trkpt><trkpt lat="46.3756122509287" lon="13.050326617757959"><ele>278.0</ele><time>2026-04-06T14:36:48Z</time></trkpt><trkpt lat="46.3754380889447" lon="13.050531174345233"><ele>278.0</ele><time>2026-04-06T14:36:49Z</time></trkpt><trkpt lat="46.37526566133456" lon="13.050733686748192"><ele>278.0</ele><time>2026-04-06T14:36:50Z</time></trkpt><trkpt lat="46.37509444079219" lon="13.050937344954804"><ele>278.0</ele><time>2026-04-06T14:36:51Z</time></trkpt><trkpt lat="46.3749232418152" lon="13.051136142425655"><ele>278.0</ele><time>2026-04-06T14:36:52Z</time></trkpt><trkpt lat="46.3747511304088" lon="13.051334184251287"><ele>278.0</ele><time>2026-04-06T14:36:53Z</time></trkpt><trkpt lat="46.37458210721072" lon="13.051535160923134"><ele>278.0</ele><time>2026-04-06T14:36:54Z</time></trkpt><trkpt lat="46.37441352589262" lon="13.051731622185995"><ele>278.0</ele><time>2026-04-06T14:36:55Z</time></trkpt><trkpt lat="46.37424667705396" lon="13.051931122776283"><ele>278.0</ele><time>2026-04-06T14:36:56Z</time></trkpt><trkpt lat="46.374083329556875" lon="13.052132672669023"><ele>278.0</ele><time>2026-04-06T14:36:57Z</time></trkpt><trkpt lat="46.373918349920096" lon="13.052328573700695"><ele>278.0</ele><time>2026-04-06T14:36:58Z</time></trkpt><trkpt lat="46.37375584223794" lon="13.052528714963488"><ele>278.0</ele><time>2026-04-06T14:36:59Z</time></trkpt><trkpt lat="46.37359894212087" lon="13.052729419828012"><ele>278.0</ele><time>2026-04-06T14:37:00Z</time></trkpt><trkpt lat="46.373452859240615" lon="13.052940399115155"><ele>278.0</ele><time>2026-04-06T14:37:01Z</time></trkpt><trkpt lat="46.373311937053906" lon="13.053158174222498"><ele>278.0</ele><time>2026-04-06T14:37:02Z</time></trkpt><trkpt lat="46.37317930986002" lon="13.053387928982826"><ele>278.0</ele><time>2026-04-06T14:37:03Z</time></trkpt><trkpt lat="46.37305431534311" lon="13.053627647670252"><ele>278.0</ele><time>2026-04-06T14:37:04Z</time></trkpt><trkpt lat="46.37294102939376" lon="13.053879415779056"><ele>278.0</ele><time>2026-04-06T14:37:05Z</time></trkpt><trkpt lat="46.372820482934046" lon="13.054128228211201"><ele>277.6666666666667</ele><time>2026-04-06T14:37:06Z</time></trkpt><trkpt lat="46.37274685133808" lon="13.054409705936063"><ele>277.3333333333333</ele><time>2026-04-06T14:37:07Z</time></trkpt><trkpt lat="46.3726712907829" lon="13.054684926274073"><ele>277.0</ele><time>2026-04-06T14:37:08Z</time></trkpt><trkpt lat="46.37260732788698" lon="13.054966632184218"><ele>277.66666666666663</ele><time>2026-04-06T14:37:09Z</time></trkpt><trkpt lat="46.3725566505274" lon="13.055256631402157"><ele>278.3333333333333</ele><time>2026-04-06T14:37:10Z</time></trkpt><trkpt lat="46.37251784300964" lon="13.055555098680012"><ele>279.0</ele><time>2026-04-06T14:37:11Z</time></trkpt><trkpt lat="46.37248927065671" lon="13.055857575969656"><ele>277.3333333333333</ele><time>2026-04-06T14:37:12Z</time></trkpt><trkpt lat="46.37247547637184" lon="13.056171162596728"><ele>275.66666666666663</ele><time>2026-04-06T14:37:13Z</time></trkpt><trkpt lat="46.37247271412855" lon="13.056488058681719"><ele>274.0</ele><time>2026-04-06T14:37:14Z</time></trkpt><trkpt lat="46.372478091655374" lon="13.056811530100008"><ele>272.5</ele><time>2026-04-06T14:37:15Z</time></trkpt><trkpt lat="46.37248668167955" lon="13.057137110685714"><ele>271.0</ele><time>2026-04-06T14:37:16Z</time></trkpt><trkpt lat="46.37249962977958" lon="13.057465066324708"><ele>271.0</ele><time>2026-04-06T14:37:17Z</time></trkpt><trkpt lat="46.37251794689367" lon="13.057793523073961"><ele>271.0</ele><time>2026-04-06T14:37:18Z</time></trkpt><trkpt lat="46.37253609793991" lon="13.058122622919965"><ele>270.5</ele><time>2026-04-06T14:37:19Z</time></trkpt><trkpt lat="46.37255473858497" lon="13.05845258762661"><ele>270.0</ele><time>2026-04-06T14:37:20Z</time></trkpt><trkpt lat="46.37257287193625" lon="13.05877743394303"><ele>270.0</ele><time>2026-04-06T14:37:21Z</time></trkpt><trkpt lat="46.37259206385722" lon="13.059097080267332"><ele>270.0</ele><time>2026-04-06T14:37:22Z</time></trkpt><trkpt lat="46.37261162168003" lon="13.059404652079436"><ele>270.0</ele><time>2026-04-06T14:37:23Z</time></trkpt><trkpt lat="46.37262802244886" lon="13.05969719624985"><ele>270.0</ele><time>2026-04-06T14:37:24Z</time></trkpt><trkpt lat="46.37264564229178" lon="13.059981447146114"><ele>270.0</ele><time>2026-04-06T14:37:25Z</time></trkpt><trkpt lat="46.372661938199876" lon="13.060256655811475"><ele>270.0</ele><time>2026-04-06T14:37:26Z</time></trkpt><trkpt lat="46.372679187909114" lon="13.06052388964432"><ele>269.6666666666667</ele><time>2026-04-06T14:37:27Z</time></trkpt><trkpt lat="46.372697263888305" lon="13.060794569766522"><ele>269.33333333333337</ele><time>2026-04-06T14:37:28Z</time></trkpt><trkpt lat="46.37271212538057" lon="13.06106478483275"><ele>269.0</ele><time>2026-04-06T14:37:29Z</time></trkpt><trkpt lat="46.37272613071298" lon="13.061337724327268"><ele>269.0</ele><time>2026-04-06T14:37:30Z</time></trkpt><trkpt lat="46.37273971745622" lon="13.061613308281006"><ele>269.0</ele><time>2026-04-06T14:37:31Z</time></trkpt><trkpt lat="46.37275456163769" lon="13.06189173001381"><ele>269.0</ele><time>2026-04-06T14:37:32Z</time></trkpt><trkpt lat="46.37276713428657" lon="13.062170780697844"><ele>270.33333333333337</ele><time>2026-04-06T14:37:32.999Z</time></trkpt><trkpt lat="46.37277901027502" lon="13.062453947894987"><ele>271.6666666666667</ele><time>2026-04-06T14:37:33.999Z</time></trkpt><trkpt lat="46.37278667673366" lon="13.062741445945438"><ele>273.0</ele><time>2026-04-06T14:37:34.999Z</time></trkpt><trkpt lat="46.37279472409264" lon="13.063031422806532"><ele>273.0</ele><time>2026-04-06T14:37:35.999Z</time></trkpt><trkpt lat="46.37280093706193" lon="13.063320715922194"><ele>273.0</ele><time>2026-04-06T14:37:36.999Z</time></trkpt><trkpt lat="46.37280498640822" lon="13.063612723997307"><ele>273.0</ele><time>2026-04-06T14:37:37.999Z</time></trkpt><trkpt lat="46.37280762224819" lon="13.063907858450076"><ele>272.0</ele><time>2026-04-06T14:37:38.999Z</time></trkpt><trkpt lat="46.37280680497015" lon="13.064204417872231"><ele>271.0</ele><time>2026-04-06T14:37:39.999Z</time></trkpt><trkpt lat="46.372805133553015" lon="13.064500445247813"><ele>270.0</ele><time>2026-04-06T14:37:40.999Z</time></trkpt><trkpt lat="46.37280098333049" lon="13.0647967776187"><ele>270.0</ele><time>2026-04-06T14:37:41.999Z</time></trkpt><trkpt lat="46.37279579903429" lon="13.06509392614329"><ele>270.0</ele><time>2026-04-06T14:37:42.999Z</time></trkpt><trkpt lat="46.37278911338897" lon="13.06538994491934"><ele>270.0</ele><time>2026-04-06T14:37:43.999Z</time></trkpt><trkpt lat="46.37277831739066" lon="13.065689494580646"><ele>270.3333333333333</ele><time>2026-04-06T14:37:44.999Z</time></trkpt><trkpt lat="46.37276763041162" lon="13.065994845795428"><ele>270.66666666666663</ele><time>2026-04-06T14:37:45.999Z</time></trkpt><trkpt lat="46.37275173756634" lon="13.066305745469176"><ele>271.0</ele><time>2026-04-06T14:37:46.999Z</time></trkpt><trkpt lat="46.37273755855285" lon="13.066624299733189"><ele>271.5</ele><time>2026-04-06T14:37:47.999Z</time></trkpt><trkpt lat="46.37272037090578" lon="13.066948534805585"><ele>272.0</ele><time>2026-04-06T14:37:48.999Z</time></trkpt><trkpt lat="46.37270153007852" lon="13.067276937528893"><ele>272.0</ele><time>2026-04-06T14:37:49.999Z</time></trkpt><trkpt lat="46.37267691680013" lon="13.067606325854515"><ele>272.0</ele><time>2026-04-06T14:37:50.999Z</time></trkpt><trkpt lat="46.37265458654772" lon="13.067937484648757"><ele>272.0</ele><time>2026-04-06T14:37:51.999Z</time></trkpt><trkpt lat="46.37263163283004" lon="13.068268240398726"><ele>272.0</ele><time>2026-04-06T14:37:52.999Z</time></trkpt><trkpt lat="46.37260910715102" lon="13.068598023571951"><ele>271.0</ele><time>2026-04-06T14:37:53.999Z</time></trkpt><trkpt lat="46.37258952650491" lon="13.06892473101945"><ele>270.0</ele><time>2026-04-06T14:37:54.999Z</time></trkpt><trkpt lat="46.37256824129444" lon="13.069252481888098"><ele>269.5</ele><time>2026-04-06T14:37:55.999Z</time></trkpt><trkpt lat="46.372548670601276" lon="13.069579301177441"><ele>269.0</ele><time>2026-04-06T14:37:56.999Z</time></trkpt><trkpt lat="46.37253110120817" lon="13.069910172752882"><ele>269.0</ele><time>2026-04-06T14:37:57.999Z</time></trkpt><trkpt lat="46.3725137907614" lon="13.070243282671342"><ele>269.0</ele><time>2026-04-06T14:37:58.999Z</time></trkpt><trkpt lat="46.372503071078704" lon="13.070581707340377"><ele>269.0</ele><time>2026-04-06T14:37:59.999Z</time></trkpt><trkpt lat="46.37249186441389" lon="13.070926846566204"><ele>269.0</ele><time>2026-04-06T14:38:00.999Z</time></trkpt><trkpt lat="46.372483382547536" lon="13.071278769894553"><ele>269.0</ele><time>2026-04-06T14:38:02Z</time></trkpt><trkpt lat="46.37248024425251" lon="13.07163731408153"><ele>269.0</ele><time>2026-04-06T14:38:03Z</time></trkpt><trkpt lat="46.372476067524026" lon="13.071997440665767"><ele>269.0</ele><time>2026-04-06T14:38:04Z</time></trkpt><trkpt lat="46.37248651396607" lon="13.072360848594805"><ele>269.0</ele><time>2026-04-06T14:38:05Z</time></trkpt><trkpt lat="46.372498068039185" lon="13.0727272866537"><ele>269.0</ele><time>2026-04-06T14:38:06Z</time></trkpt><trkpt lat="46.37251415918728" lon="13.073104846388446"><ele>269.0</ele><time>2026-04-06T14:38:07Z</time></trkpt><trkpt lat="46.372535907947636" lon="13.073489338874765"><ele>269.0</ele><time>2026-04-06T14:38:08Z</time></trkpt><trkpt lat="46.37256337645624" lon="13.073877003753479"><ele>269.0</ele><time>2026-04-06T14:38:09Z</time></trkpt><trkpt lat="46.37259641913477" lon="13.074261197827589"><ele>269.0</ele><time>2026-04-06T14:38:10Z</time></trkpt><trkpt lat="46.37263493415541" lon="13.074642021174308"><ele>269.0</ele><time>2026-04-06T14:38:11Z</time></trkpt><trkpt lat="46.37267608840982" lon="13.075015857488454"><ele>269.0</ele><time>2026-04-06T14:38:12Z</time></trkpt><trkpt lat="46.37271806863444" lon="13.075380582120818"><ele>269.0</ele><time>2026-04-06T14:38:13Z</time></trkpt><trkpt lat="46.37276087623098" lon="13.075736498747526"><ele>270.5</ele><time>2026-04-06T14:38:14Z</time></trkpt><trkpt lat="46.3728034293752" lon="13.076081975249043"><ele>272.0</ele><time>2026-04-06T14:38:15Z</time></trkpt><trkpt lat="46.37284534566992" lon="13.076406135397653"><ele>272.0</ele><time>2026-04-06T14:38:16Z</time></trkpt><trkpt lat="46.37288452302659" lon="13.076708176237121"><ele>272.0</ele><time>2026-04-06T14:38:17Z</time></trkpt><trkpt lat="46.37291929693604" lon="13.076991813665511"><ele>272.0</ele><time>2026-04-06T14:38:18Z</time></trkpt><trkpt lat="46.37295186792603" lon="13.077253472643855"><ele>272.33333333333337</ele><time>2026-04-06T14:38:19Z</time></trkpt><trkpt lat="46.372977676217495" lon="13.077502238294295"><ele>272.6666666666667</ele><time>2026-04-06T14:38:20Z</time></trkpt><trkpt lat="46.372994086356044" lon="13.07775316384351"><ele>273.0</ele><time>2026-04-06T14:38:21Z</time></trkpt><trkpt lat="46.37299838308822" lon="13.078005213922493"><ele>273.0</ele><time>2026-04-06T14:38:22Z</time></trkpt><trkpt lat="46.37298655682761" lon="13.078253384407297"><ele>273.0</ele><time>2026-04-06T14:38:23Z</time></trkpt><trkpt lat="46.37296293355375" lon="13.078502207722728"><ele>273.0</ele><time>2026-04-06T14:38:24Z</time></trkpt><trkpt lat="46.372936433873726" lon="13.078747144170011"><ele>274.3333333333333</ele><time>2026-04-06T14:38:25Z</time></trkpt><trkpt lat="46.37289555465454" lon="13.078982363032681"><ele>275.66666666666663</ele><time>2026-04-06T14:38:26Z</time></trkpt><trkpt lat="46.3728459796719" lon="13.079213872205044"><ele>277.0</ele><time>2026-04-06T14:38:27Z</time></trkpt><trkpt lat="46.372786837824464" lon="13.079437290129784"><ele>278.0</ele><time>2026-04-06T14:38:28Z</time></trkpt><trkpt lat="46.372723217131984" lon="13.07966096315933"><ele>279.0</ele><time>2026-04-06T14:38:29Z</time></trkpt><trkpt lat="46.37265034193257" lon="13.07988582935408"><ele>280.0</ele><time>2026-04-06T14:38:30Z</time></trkpt><trkpt lat="46.37256091073983" lon="13.080100583015696"><ele>280.66666666666663</ele><time>2026-04-06T14:38:31Z</time></trkpt><trkpt lat="46.37248339059843" lon="13.080330856298072"><ele>281.3333333333333</ele><time>2026-04-06T14:38:32Z</time></trkpt><trkpt lat="46.37240466615308" lon="13.080562663805633"><ele>282.0</ele><time>2026-04-06T14:38:33Z</time></trkpt><trkpt lat="46.37232845120093" lon="13.080794488841045"><ele>281.3333333333333</ele><time>2026-04-06T14:38:34Z</time></trkpt><trkpt lat="46.372258821309536" lon="13.08102077576324"><ele>280.66666666666663</ele><time>2026-04-06T14:38:35Z</time></trkpt><trkpt lat="46.37219427276575" lon="13.081236552040206"><ele>280.0</ele><time>2026-04-06T14:38:36Z</time></trkpt><trkpt lat="46.37213256271325" lon="13.081448984557255"><ele>282.66666666666663</ele><time>2026-04-06T14:38:37Z</time></trkpt><trkpt lat="46.372073176811014" lon="13.081661440957687"><ele>285.3333333333333</ele><time>2026-04-06T14:38:38Z</time></trkpt><trkpt lat="46.372016578937" lon="13.081868609142958"><ele>288.0</ele><time>2026-04-06T14:38:39Z</time></trkpt><trkpt lat="46.37196116218057" lon="13.082073563055678"><ele>288.0</ele><time>2026-04-06T14:38:40Z</time></trkpt><trkpt lat="46.37190897440835" lon="13.08228172052784"><ele>288.0</ele><time>2026-04-06T14:38:41Z</time></trkpt><trkpt lat="46.371856818974805" lon="13.082489116712422"><ele>288.0</ele><time>2026-04-06T14:38:42Z</time></trkpt><trkpt lat="46.371805635533256" lon="13.082696799810893"><ele>288.0</ele><time>2026-04-06T14:38:43Z</time></trkpt><trkpt lat="46.37176879565625" lon="13.08291316118756"><ele>288.0</ele><time>2026-04-06T14:38:44Z</time></trkpt><trkpt lat="46.371717527554395" lon="13.0831172031602"><ele>288.0</ele><time>2026-04-06T14:38:45Z</time></trkpt><trkpt lat="46.37167589514766" lon="13.083322700893149"><ele>288.0</ele><time>2026-04-06T14:38:46Z</time></trkpt><trkpt lat="46.371639596321884" lon="13.083532400613272"><ele>288.0</ele><time>2026-04-06T14:38:47Z</time></trkpt><trkpt lat="46.37158843569611" lon="13.083739929547272"><ele>288.0</ele><time>2026-04-06T14:38:48Z</time></trkpt><trkpt lat="46.37157571752485" lon="13.08396424080178"><ele>288.0</ele><time>2026-04-06T14:38:49Z</time></trkpt><trkpt lat="46.371550620270696" lon="13.084186365590723"><ele>288.0</ele><time>2026-04-06T14:38:50Z</time></trkpt><trkpt lat="46.371515703953555" lon="13.08440898461716"><ele>288.0</ele><time>2026-04-06T14:38:51Z</time></trkpt><trkpt lat="46.37151959822245" lon="13.084638853012"><ele>288.0</ele><time>2026-04-06T14:38:52Z</time></trkpt><trkpt lat="46.37151357145661" lon="13.084864398019624"><ele>288.0</ele><time>2026-04-06T14:38:53Z</time></trkpt><trkpt lat="46.37151466090011" lon="13.085085948461336"><ele>288.0</ele><time>2026-04-06T14:38:54Z</time></trkpt><trkpt lat="46.37152117908741" lon="13.085299095772804"><ele>288.75</ele><time>2026-04-06T14:38:55Z</time></trkpt><trkpt lat="46.37152881594385" lon="13.085503038603523"><ele>289.5</ele><time>2026-04-06T14:38:56Z</time></trkpt><trkpt lat="46.37153773376593" lon="13.085699614867922"><ele>290.25</ele><time>2026-04-06T14:38:57Z</time></trkpt><trkpt lat="46.37154347976375" lon="13.085898278479663"><ele>291.0</ele><time>2026-04-06T14:38:58Z</time></trkpt><trkpt lat="46.37154840878821" lon="13.086087474549037"><ele>291.0</ele><time>2026-04-06T14:38:59Z</time></trkpt><trkpt lat="46.371547589917526" lon="13.086283126207087"><ele>291.0</ele><time>2026-04-06T14:39:00Z</time></trkpt><trkpt lat="46.37153701452398" lon="13.08648308606265"><ele>291.0</ele><time>2026-04-06T14:39:01Z</time></trkpt><trkpt lat="46.37152276079347" lon="13.08668307384267"><ele>291.0</ele><time>2026-04-06T14:39:02Z</time></trkpt><trkpt lat="46.37150535706022" lon="13.086883302017641"><ele>290.25</ele><time>2026-04-06T14:39:03Z</time></trkpt><trkpt lat="46.371486244574406" lon="13.087084002113269"><ele>289.5</ele><time>2026-04-06T14:39:04Z</time></trkpt><trkpt lat="46.37146348869674" lon="13.087286577441503"><ele>288.75</ele><time>2026-04-06T14:39:05Z</time></trkpt><trkpt lat="46.37144250823996" lon="13.087492033562949"><ele>288.0</ele><time>2026-04-06T14:39:06Z</time></trkpt><trkpt lat="46.37140430633252" lon="13.087694983080544"><ele>288.0</ele><time>2026-04-06T14:39:07Z</time></trkpt><trkpt lat="46.37138487538348" lon="13.087901633900717"><ele>288.0</ele><time>2026-04-06T14:39:08Z</time></trkpt><trkpt lat="46.37137048631053" lon="13.088108738728717"><ele>288.0</ele><time>2026-04-06T14:39:09Z</time></trkpt><trkpt lat="46.371362572065514" lon="13.08831639408808"><ele>288.0</ele><time>2026-04-06T14:39:10Z</time></trkpt><trkpt lat="46.37136362886093" lon="13.088518886029313"><ele>288.0</ele><time>2026-04-06T14:39:11Z</time></trkpt><trkpt lat="46.3713726082842" lon="13.088719552810916"><ele>288.0</ele><time>2026-04-06T14:39:12Z</time></trkpt><trkpt lat="46.371403962725005" lon="13.08891534967133"><ele>288.0</ele><time>2026-04-06T14:39:13Z</time></trkpt><trkpt lat="46.371429343931645" lon="13.089109777189146"><ele>288.0</ele><time>2026-04-06T14:39:14Z</time></trkpt><trkpt lat="46.371459117209476" lon="13.089299758908481"><ele>288.25</ele><time>2026-04-06T14:39:15Z</time></trkpt><trkpt lat="46.371491082874186" lon="13.08948505289512"><ele>288.5</ele><time>2026-04-06T14:39:16Z</time></trkpt><trkpt lat="46.37152878866981" lon="13.089660008395697"><ele>288.75</ele><time>2026-04-06T14:39:17Z</time></trkpt><trkpt lat="46.37157405151642" lon="13.089822047064548"><ele>289.0</ele><time>2026-04-06T14:39:18Z</time></trkpt><trkpt lat="46.37162716721576" lon="13.089975878690845"><ele>289.0</ele><time>2026-04-06T14:39:19Z</time></trkpt><trkpt lat="46.37168608021672" lon="13.090115445880167"><ele>289.0</ele><time>2026-04-06T14:39:20Z</time></trkpt><trkpt lat="46.37174539138946" lon="13.09023823703112"><ele>289.0</ele><time>2026-04-06T14:39:21Z</time></trkpt><trkpt lat="46.371801550850286" lon="13.090362206558119"><ele>289.0</ele><time>2026-04-06T14:39:22Z</time></trkpt><trkpt lat="46.37184396165616" lon="13.090493226594134"><ele>289.0</ele><time>2026-04-06T14:39:23Z</time></trkpt><trkpt lat="46.37187124558641" lon="13.090619014944517"><ele>289.0</ele><time>2026-04-06T14:39:24Z</time></trkpt><trkpt lat="46.371875978274886" lon="13.090752842913854"><ele>289.0</ele><time>2026-04-06T14:39:25Z</time></trkpt><trkpt lat="46.37186061386012" lon="13.090893967981353"><ele>289.0</ele><time>2026-04-06T14:39:26Z</time></trkpt><trkpt lat="46.37182945002459" lon="13.091028725542964"><ele>289.0</ele><time>2026-04-06T14:39:27Z</time></trkpt><trkpt lat="46.37184113307062" lon="13.09115958321164"><ele>289.0</ele><time>2026-04-06T14:39:28Z</time></trkpt><trkpt lat="46.371877633838544" lon="13.091286873621069"><ele>288.59999999999997</ele><time>2026-04-06T14:39:29Z</time></trkpt><trkpt lat="46.37191711996301" lon="13.091415636662951"><ele>288.2</ele><time>2026-04-06T14:39:30Z</time></trkpt><trkpt lat="46.371957578254175" lon="13.091549935336724"><ele>287.79999999999995</ele><time>2026-04-06T14:39:31Z</time></trkpt><trkpt lat="46.37199924326865" lon="13.091699729140435"><ele>287.4</ele><time>2026-04-06T14:39:32Z</time></trkpt><trkpt lat="46.372041715202066" lon="13.091866687397674"><ele>287.0</ele><time>2026-04-06T14:39:33Z</time></trkpt><trkpt lat="46.37208543358132" lon="13.092039704125417"><ele>286.75</ele><time>2026-04-06T14:39:34Z</time></trkpt><trkpt lat="46.372130154329696" lon="13.092215850162253"><ele>286.5</ele><time>2026-04-06T14:39:35Z</time></trkpt><trkpt lat="46.3721737222421" lon="13.092392024368523"><ele>286.25</ele><time>2026-04-06T14:39:35.999Z</time></trkpt><trkpt lat="46.37221531770167" lon="13.092562331295099"><ele>286.0</ele><time>2026-04-06T14:39:36.999Z</time></trkpt><trkpt lat="46.3722553245485" lon="13.092726125085054"><ele>286.6</ele><time>2026-04-06T14:39:37.999Z</time></trkpt><trkpt lat="46.37229203362697" lon="13.092876381801693"><ele>287.20000000000005</ele><time>2026-04-06T14:39:38.999Z</time></trkpt><trkpt lat="46.372327380572244" lon="13.09302089482834"><ele>287.79999999999995</ele><time>2026-04-06T14:39:39.999Z</time></trkpt><trkpt lat="46.37236321765835" lon="13.093170559131911"><ele>288.4</ele><time>2026-04-06T14:39:40.999Z</time></trkpt><trkpt lat="46.37240098111447" lon="13.093320810509676"><ele>289.0</ele><time>2026-04-06T14:39:41.999Z</time></trkpt><trkpt lat="46.37243835022435" lon="13.093472229907857"><ele>289.0</ele><time>2026-04-06T14:39:42.999Z</time></trkpt><trkpt lat="46.372474302822916" lon="13.09362842219968"><ele>289.0</ele><time>2026-04-06T14:39:43.999Z</time></trkpt><trkpt lat="46.37251007972759" lon="13.0937899752047"><ele>289.0</ele><time>2026-04-06T14:39:44.999Z</time></trkpt><trkpt lat="46.37254734092868" lon="13.093952117651133"><ele>289.0</ele><time>2026-04-06T14:39:45.999Z</time></trkpt><trkpt lat="46.37258651708304" lon="13.094117485672243"><ele>288.75</ele><time>2026-04-06T14:39:46.999Z</time></trkpt><trkpt lat="46.37262800415357" lon="13.094284586820562"><ele>288.5</ele><time>2026-04-06T14:39:47.999Z</time></trkpt><trkpt lat="46.372670072305525" lon="13.094457094366172"><ele>288.25</ele><time>2026-04-06T14:39:48.999Z</time></trkpt><trkpt lat="46.372714378562414" lon="13.094640066237401"><ele>288.0</ele><time>2026-04-06T14:39:49.999Z</time></trkpt><trkpt lat="46.37276073328073" lon="13.094825319146727"><ele>287.0</ele><time>2026-04-06T14:39:50.999Z</time></trkpt><trkpt lat="46.372805728789075" lon="13.095015971793803"><ele>286.0</ele><time>2026-04-06T14:39:51.999Z</time></trkpt><trkpt lat="46.372852337342096" lon="13.095209438751542"><ele>285.0</ele><time>2026-04-06T14:39:52.999Z</time></trkpt><trkpt lat="46.37289907164877" lon="13.095406386582379"><ele>284.0</ele><time>2026-04-06T14:39:53.999Z</time></trkpt><trkpt lat="46.37294950222002" lon="13.095614126628845"><ele>283.0</ele><time>2026-04-06T14:39:54.999Z</time></trkpt><trkpt lat="46.37300006840292" lon="13.095827763991965"><ele>282.0</ele><time>2026-04-06T14:39:55.999Z</time></trkpt><trkpt lat="46.37305244635684" lon="13.096042184694925"><ele>281.0</ele><time>2026-04-06T14:39:56.999Z</time></trkpt><trkpt lat="46.37310593748647" lon="13.096261906073305"><ele>283.6666666666667</ele><time>2026-04-06T14:39:57.999Z</time></trkpt><trkpt lat="46.373153279087" lon="13.096478922254247"><ele>286.3333333333333</ele><time>2026-04-06T14:39:58.999Z</time></trkpt><trkpt lat="46.37319174648912" lon="13.096707485987611"><ele>289.0</ele><time>2026-04-06T14:39:59.999Z</time></trkpt><trkpt lat="46.373220049261384" lon="13.096935838068894"><ele>289.0</ele><time>2026-04-06T14:40:00.999Z</time></trkpt><trkpt lat="46.373237896750275" lon="13.097164995245388"><ele>289.0</ele><time>2026-04-06T14:40:01.999Z</time></trkpt><trkpt lat="46.37324751407081" lon="13.097403863176714"><ele>289.0</ele><time>2026-04-06T14:40:02.999Z</time></trkpt><trkpt lat="46.37324720304471" lon="13.09765849392284"><ele>287.3333333333333</ele><time>2026-04-06T14:40:03.999Z</time></trkpt><trkpt lat="46.37324218746812" lon="13.0979235652238"><ele>285.6666666666667</ele><time>2026-04-06T14:40:04.999Z</time></trkpt><trkpt lat="46.37323237432364" lon="13.098200697399431"><ele>284.0</ele><time>2026-04-06T14:40:05.999Z</time></trkpt><trkpt lat="46.37322283781575" lon="13.098484525758328"><ele>284.0</ele><time>2026-04-06T14:40:06.999Z</time></trkpt><trkpt lat="46.37321575079756" lon="13.098764295681182"><ele>284.0</ele><time>2026-04-06T14:40:08Z</time></trkpt><trkpt lat="46.373211228443544" lon="13.099028613117948"><ele>284.0</ele><time>2026-04-06T14:40:09Z</time></trkpt><trkpt lat="46.3732154683798" lon="13.099272930898492"><ele>284.0</ele><time>2026-04-06T14:40:10Z</time></trkpt><trkpt lat="46.37323327129596" lon="13.099503646195572"><ele>284.0</ele><time>2026-04-06T14:40:11Z</time></trkpt><trkpt lat="46.37326685796335" lon="13.099725043967227"><ele>284.0</ele><time>2026-04-06T14:40:12Z</time></trkpt><trkpt lat="46.37331294051219" lon="13.099941474379794"><ele>283.75</ele><time>2026-04-06T14:40:13Z</time></trkpt><trkpt lat="46.37337234021974" lon="13.100142430798023"><ele>283.5</ele><time>2026-04-06T14:40:14Z</time></trkpt><trkpt lat="46.37344142980789" lon="13.100331983329703"><ele>283.25</ele><time>2026-04-06T14:40:15Z</time></trkpt><trkpt lat="46.3735201070766" lon="13.100510230491794"><ele>283.0</ele><time>2026-04-06T14:40:16Z</time></trkpt><trkpt lat="46.37360532891397" lon="13.100685425131188"><ele>282.66666666666663</ele><time>2026-04-06T14:40:17Z</time></trkpt><trkpt lat="46.373695924126466" lon="13.100861532066475"><ele>282.3333333333333</ele><time>2026-04-06T14:40:18Z</time></trkpt><trkpt lat="46.373786905392805" lon="13.101041064440501"><ele>282.0</ele><time>2026-04-06T14:40:19Z</time></trkpt><trkpt lat="46.373880756942924" lon="13.101220437821729"><ele>284.0</ele><time>2026-04-06T14:40:20Z</time></trkpt><trkpt lat="46.37397490946935" lon="13.101391411059751"><ele>286.0</ele><time>2026-04-06T14:40:21Z</time></trkpt><trkpt lat="46.374063239399185" lon="13.101567048715335"><ele>288.0</ele><time>2026-04-06T14:40:22Z</time></trkpt><trkpt lat="46.374149709810126" lon="13.101743744864972"><ele>288.0</ele><time>2026-04-06T14:40:23Z</time></trkpt><trkpt lat="46.37423535530909" lon="13.101924194743608"><ele>288.0</ele><time>2026-04-06T14:40:24Z</time></trkpt><trkpt lat="46.374324280461835" lon="13.102107578451427"><ele>288.0</ele><time>2026-04-06T14:40:25Z</time></trkpt><trkpt lat="46.37440652614026" lon="13.102299996847176"><ele>289.3333333333333</ele><time>2026-04-06T14:40:26Z</time></trkpt><trkpt lat="46.37449621423762" lon="13.102504567018961"><ele>290.66666666666663</ele><time>2026-04-06T14:40:27Z</time></trkpt><trkpt lat="46.37459687848016" lon="13.10270940626067"><ele>292.0</ele><time>2026-04-06T14:40:28Z</time></trkpt><trkpt lat="46.374699592827916" lon="13.102925343983284"><ele>292.0</ele><time>2026-04-06T14:40:29Z</time></trkpt><trkpt lat="46.37480520966497" lon="13.103148476476118"><ele>292.0</ele><time>2026-04-06T14:40:30Z</time></trkpt><trkpt lat="46.37491820883311" lon="13.103375917541639"><ele>292.0</ele><time>2026-04-06T14:40:31Z</time></trkpt><trkpt lat="46.375035433986874" lon="13.1036029798772"><ele>289.3333333333333</ele><time>2026-04-06T14:40:32Z</time></trkpt><trkpt lat="46.37516420304915" lon="13.103839919631941"><ele>286.6666666666667</ele><time>2026-04-06T14:40:33Z</time></trkpt><trkpt lat="46.375298068961584" lon="13.104080700563594"><ele>284.0</ele><time>2026-04-06T14:40:34Z</time></trkpt><trkpt lat="46.37543424649372" lon="13.10432617400837"><ele>283.0</ele><time>2026-04-06T14:40:35Z</time></trkpt><trkpt lat="46.375575525665845" lon="13.104574677105974"><ele>282.0</ele><time>2026-04-06T14:40:36Z</time></trkpt><trkpt lat="46.37571797000509" lon="13.10481838023204"><ele>281.0</ele><time>2026-04-06T14:40:37Z</time></trkpt><trkpt lat="46.375861083721226" lon="13.10506124485165"><ele>281.0</ele><time>2026-04-06T14:40:38Z</time></trkpt><trkpt lat="46.376004241438004" lon="13.105300571853022"><ele>281.0</ele><time>2026-04-06T14:40:39Z</time></trkpt><trkpt lat="46.37614735933867" lon="13.10553602540261"><ele>281.0</ele><time>2026-04-06T14:40:40Z</time></trkpt><trkpt lat="46.376289000626805" lon="13.105765892130112"><ele>281.6666666666667</ele><time>2026-04-06T14:40:41Z</time></trkpt><trkpt lat="46.376428450501926" lon="13.105990816146967"><ele>282.3333333333333</ele><time>2026-04-06T14:40:42Z</time></trkpt><trkpt lat="46.37656426180003" lon="13.106209897854177"><ele>283.0</ele><time>2026-04-06T14:40:43Z</time></trkpt><trkpt lat="46.3766945754361" lon="13.106427774542148"><ele>280.66666666666663</ele><time>2026-04-06T14:40:44Z</time></trkpt><trkpt lat="46.37681661907824" lon="13.106650397621669"><ele>278.3333333333333</ele><time>2026-04-06T14:40:45Z</time></trkpt><trkpt lat="46.376933240377596" lon="13.10687848197313"><ele>276.0</ele><time>2026-04-06T14:40:46Z</time></trkpt><trkpt lat="46.377040720082135" lon="13.107112736415973"><ele>276.0</ele><time>2026-04-06T14:40:47Z</time></trkpt><trkpt lat="46.37713993261302" lon="13.107355364944047"><ele>276.0</ele><time>2026-04-06T14:40:48Z</time></trkpt><trkpt lat="46.37722847258402" lon="13.107604988200753"><ele>276.0</ele><time>2026-04-06T14:40:49Z</time></trkpt><trkpt lat="46.377313214245866" lon="13.107866708431878"><ele>277.3333333333333</ele><time>2026-04-06T14:40:50Z</time></trkpt><trkpt lat="46.377395155274165" lon="13.108143895116534"><ele>278.66666666666663</ele><time>2026-04-06T14:40:51Z</time></trkpt><trkpt lat="46.377473436179294" lon="13.10844502436675"><ele>280.0</ele><time>2026-04-06T14:40:52Z</time></trkpt><trkpt lat="46.37755346203748" lon="13.108770256229976"><ele>276.0</ele><time>2026-04-06T14:40:53Z</time></trkpt><trkpt lat="46.377636450581655" lon="13.109111905984754"><ele>272.0</ele><time>2026-04-06T14:40:54Z</time></trkpt><trkpt lat="46.377729323204704" lon="13.109497956811676"><ele>268.5</ele><time>2026-04-06T14:40:55Z</time></trkpt><trkpt lat="46.377835387524854" lon="13.109913108681399"><ele>265.0</ele><time>2026-04-06T14:40:56Z</time></trkpt><trkpt lat="46.37794701821449" lon="13.11034053484835"><ele>268.0</ele><time>2026-04-06T14:40:57Z</time></trkpt><trkpt lat="46.378056426988095" lon="13.110758659607555"><ele>271.0</ele><time>2026-04-06T14:40:58Z</time></trkpt><trkpt lat="46.378166685957126" lon="13.11114245970929"><ele>271.0</ele><time>2026-04-06T14:40:59Z</time></trkpt><trkpt lat="46.378284741744544" lon="13.111490973073966"><ele>271.0</ele><time>2026-04-06T14:41:00Z</time></trkpt><trkpt lat="46.378413564918" lon="13.111801573998202"><ele>268.0</ele><time>2026-04-06T14:41:01Z</time></trkpt><trkpt lat="46.37854666539517" lon="13.11208928512164"><ele>265.0</ele><time>2026-04-06T14:41:02Z</time></trkpt><trkpt lat="46.378677376366745" lon="13.112350560491128"><ele>265.0</ele><time>2026-04-06T14:41:03Z</time></trkpt><trkpt lat="46.37881004953907" lon="13.112605293443442"><ele>265.0</ele><time>2026-04-06T14:41:04Z</time></trkpt><trkpt lat="46.37894738817535" lon="13.112860408605297"><ele>265.0</ele><time>2026-04-06T14:41:05Z</time></trkpt><trkpt lat="46.379087582131675" lon="13.113110389064854"><ele>265.3333333333333</ele><time>2026-04-06T14:41:06Z</time></trkpt><trkpt lat="46.37923099142716" lon="13.113359854257311"><ele>265.6666666666667</ele><time>2026-04-06T14:41:07Z</time></trkpt><trkpt lat="46.37937442816505" lon="13.1136061647507"><ele>266.0</ele><time>2026-04-06T14:41:08Z</time></trkpt><trkpt lat="46.37951651697226" lon="13.113842636132807"><ele>264.33333333333337</ele><time>2026-04-06T14:41:09Z</time></trkpt><trkpt lat="46.37965191657623" lon="13.114072878483988"><ele>262.6666666666667</ele><time>2026-04-06T14:41:10Z</time></trkpt><trkpt lat="46.37977986857914" lon="13.114296277877655"><ele>261.0</ele><time>2026-04-06T14:41:11Z</time></trkpt><trkpt lat="46.379906826470645" lon="13.114515266903043"><ele>262.3333333333333</ele><time>2026-04-06T14:41:12Z</time></trkpt><trkpt lat="46.38003282569327" lon="13.114733069176475"><ele>263.66666666666663</ele><time>2026-04-06T14:41:13Z</time></trkpt><trkpt lat="46.38015824788706" lon="13.114949636504193"><ele>265.0</ele><time>2026-04-06T14:41:14Z</time></trkpt><trkpt lat="46.380282287617405" lon="13.115161683943692"><ele>265.0</ele><time>2026-04-06T14:41:15Z</time></trkpt><trkpt lat="46.380404863105994" lon="13.115368701805437"><ele>265.0</ele><time>2026-04-06T14:41:16Z</time></trkpt><trkpt lat="46.38052545089983" lon="13.115575110643825"><ele>265.0</ele><time>2026-04-06T14:41:17Z</time></trkpt><trkpt lat="46.38064221158292" lon="13.115779912436068"><ele>266.0</ele><time>2026-04-06T14:41:18Z</time></trkpt><trkpt lat="46.38075914001227" lon="13.115987218138056"><ele>267.0</ele><time>2026-04-06T14:41:19Z</time></trkpt><trkpt lat="46.38087863976251" lon="13.116193604061513"><ele>268.0</ele><time>2026-04-06T14:41:20Z</time></trkpt><trkpt lat="46.380994711411155" lon="13.116392843283009"><ele>267.0</ele><time>2026-04-06T14:41:21Z</time></trkpt><trkpt lat="46.381099227404235" lon="13.11657708036809"><ele>266.0</ele><time>2026-04-06T14:41:22Z</time></trkpt><trkpt lat="46.38119670276925" lon="13.116755146830114"><ele>265.0</ele><time>2026-04-06T14:41:23Z</time></trkpt><trkpt lat="46.381285699595054" lon="13.116927674543488"><ele>266.25</ele><time>2026-04-06T14:41:24Z</time></trkpt><trkpt lat="46.38136723231482" lon="13.11709590457009"><ele>267.5</ele><time>2026-04-06T14:41:25Z</time></trkpt><trkpt lat="46.38144092214069" lon="13.11725732839459"><ele>268.75</ele><time>2026-04-06T14:41:26Z</time></trkpt><trkpt lat="46.38150645884015" lon="13.117411213993954"><ele>270.0</ele><time>2026-04-06T14:41:27Z</time></trkpt><trkpt lat="46.38156193410653" lon="13.117557113797274"><ele>270.0</ele><time>2026-04-06T14:41:28Z</time></trkpt><trkpt lat="46.381613642702824" lon="13.117700356884775"><ele>270.0</ele><time>2026-04-06T14:41:29Z</time></trkpt><trkpt lat="46.38166217192626" lon="13.117851902076131"><ele>270.0</ele><time>2026-04-06T14:41:30Z</time></trkpt><trkpt lat="46.38169805328322" lon="13.11801591966038"><ele>270.0</ele><time>2026-04-06T14:41:31Z</time></trkpt><trkpt lat="46.38170610294118" lon="13.118187329773074"><ele>268.5</ele><time>2026-04-06T14:41:32Z</time></trkpt><trkpt lat="46.38170136219234" lon="13.118361581915"><ele>267.0</ele><time>2026-04-06T14:41:33Z</time></trkpt><trkpt lat="46.38168554540805" lon="13.118545607634331"><ele>265.5</ele><time>2026-04-06T14:41:34Z</time></trkpt><trkpt lat="46.381657631067114" lon="13.118740826847937"><ele>264.0</ele><time>2026-04-06T14:41:35Z</time></trkpt><trkpt lat="46.381591952227424" lon="13.11893121048224"><ele>264.0</ele><time>2026-04-06T14:41:36Z</time></trkpt><trkpt lat="46.38156250508259" lon="13.11913810744644"><ele>264.0</ele><time>2026-04-06T14:41:37Z</time></trkpt><trkpt lat="46.381504736196376" lon="13.11933978628706"><ele>264.0</ele><time>2026-04-06T14:41:37.999Z</time></trkpt><trkpt lat="46.38144479312286" lon="13.119547272647786"><ele>264.0</ele><time>2026-04-06T14:41:38.999Z</time></trkpt><trkpt lat="46.38138600019125" lon="13.119764606109612"><ele>264.0</ele><time>2026-04-06T14:41:39.999Z</time></trkpt><trkpt lat="46.381327275062354" lon="13.119990510853228"><ele>264.0</ele><time>2026-04-06T14:41:40.999Z</time></trkpt><trkpt lat="46.38126627521996" lon="13.12021893200274"><ele>263.0</ele><time>2026-04-06T14:41:41.999Z</time></trkpt><trkpt lat="46.381212636178475" lon="13.12044164943946"><ele>262.0</ele><time>2026-04-06T14:41:42.999Z</time></trkpt><trkpt lat="46.38116374129044" lon="13.120661309279745"><ele>261.0</ele><time>2026-04-06T14:41:43.999Z</time></trkpt><trkpt lat="46.381119597117326" lon="13.12088701668877"><ele>261.0</ele><time>2026-04-06T14:41:44.999Z</time></trkpt><trkpt lat="46.381068577633556" lon="13.12111117548314"><ele>261.0</ele><time>2026-04-06T14:41:45.999Z</time></trkpt><trkpt lat="46.38099487606308" lon="13.121327095130376"><ele>261.0</ele><time>2026-04-06T14:41:46.999Z</time></trkpt><trkpt lat="46.38092144801841" lon="13.121545265184603"><ele>259.3333333333333</ele><time>2026-04-06T14:41:47.999Z</time></trkpt><trkpt lat="46.380860123252994" lon="13.121769990752789"><ele>257.66666666666663</ele><time>2026-04-06T14:41:48.999Z</time></trkpt><trkpt lat="46.380798880608694" lon="13.122000497930708"><ele>256.0</ele><time>2026-04-06T14:41:49.999Z</time></trkpt><trkpt lat="46.3807329965783" lon="13.122239322598343"><ele>255.66666666666666</ele><time>2026-04-06T14:41:50.999Z</time></trkpt><trkpt lat="46.38066415955512" lon="13.122483492098972"><ele>255.33333333333331</ele><time>2026-04-06T14:41:51.999Z</time></trkpt><trkpt lat="46.380601486393935" lon="13.122724247995698"><ele>255.0</ele><time>2026-04-06T14:41:52.999Z</time></trkpt><trkpt lat="46.38053948540734" lon="13.122958348250961"><ele>254.66666666666669</ele><time>2026-04-06T14:41:53.999Z</time></trkpt><trkpt lat="46.380479925766394" lon="13.123182412811378"><ele>254.33333333333334</ele><time>2026-04-06T14:41:54.999Z</time></trkpt><trkpt lat="46.38042257926261" lon="13.123397791434284"><ele>254.0</ele><time>2026-04-06T14:41:55.999Z</time></trkpt><trkpt lat="46.38036428424765" lon="13.12361062651648"><ele>254.0</ele><time>2026-04-06T14:41:56.999Z</time></trkpt><trkpt lat="46.38030882685149" lon="13.123819486515798"><ele>254.0</ele><time>2026-04-06T14:41:57.999Z</time></trkpt><trkpt lat="46.380254289479204" lon="13.124019304200536"><ele>254.0</ele><time>2026-04-06T14:41:58.999Z</time></trkpt><trkpt lat="46.380199265724286" lon="13.12422141328554"><ele>254.25</ele><time>2026-04-06T14:41:59.999Z</time></trkpt><trkpt lat="46.38014560571715" lon="13.124420610170075"><ele>254.5</ele><time>2026-04-06T14:42:00.999Z</time></trkpt><trkpt lat="46.38009517571169" lon="13.12461723703606"><ele>254.75</ele><time>2026-04-06T14:42:01.999Z</time></trkpt><trkpt lat="46.38004663847645" lon="13.12480907636707"><ele>255.0</ele><time>2026-04-06T14:42:02.999Z</time></trkpt><trkpt lat="46.380001439738955" lon="13.125005597814486"><ele>256.0</ele><time>2026-04-06T14:42:03.999Z</time></trkpt><trkpt lat="46.37994175627873" lon="13.125193944524803"><ele>257.0</ele><time>2026-04-06T14:42:04.999Z</time></trkpt><trkpt lat="46.37989129921438" lon="13.125385843634595"><ele>258.0</ele><time>2026-04-06T14:42:05.999Z</time></trkpt><trkpt lat="46.37985377306652" lon="13.125583974519431"><ele>259.0</ele><time>2026-04-06T14:42:06.999Z</time></trkpt><trkpt lat="46.37980301174695" lon="13.12576408386235"><ele>258.75</ele><time>2026-04-06T14:42:07.999Z</time></trkpt><trkpt lat="46.37975581187767" lon="13.125930197421946"><ele>258.5</ele><time>2026-04-06T14:42:08.999Z</time></trkpt><trkpt lat="46.37970974695746" lon="13.12608588719284"><ele>258.25</ele><time>2026-04-06T14:42:09.999Z</time></trkpt><trkpt lat="46.379668942095805" lon="13.126227229744948"><ele>258.0</ele><time>2026-04-06T14:42:10.999Z</time></trkpt><trkpt lat="46.37963021657631" lon="13.126366963058414"><ele>258.0</ele><time>2026-04-06T14:42:11.999Z</time></trkpt><trkpt lat="46.37959555163163" lon="13.126494752041076"><ele>258.0</ele><time>2026-04-06T14:42:12.999Z</time></trkpt><trkpt lat="46.37956204823224" lon="13.126610880524103"><ele>258.0</ele><time>2026-04-06T14:42:14Z</time></trkpt><trkpt lat="46.379534458036815" lon="13.126704412480613"><ele>258.0</ele><time>2026-04-06T14:42:15Z</time></trkpt><trkpt lat="46.379513543545535" lon="13.126794947193835"><ele>258.0</ele><time>2026-04-06T14:42:16Z</time></trkpt><trkpt lat="46.379462532365025" lon="13.126928780375037"><ele>258.0</ele><time>2026-04-06T14:42:18Z</time></trkpt><trkpt lat="46.3796517291892" lon="13.12710596058546"><ele>258.2</ele><time>2026-04-06T14:42:20Z</time></trkpt><trkpt lat="46.379707286688685" lon="13.12718641666745"><ele>258.4</ele><time>2026-04-06T14:42:21Z</time></trkpt><trkpt lat="46.37975756928204" lon="13.127300414200533"><ele>258.59999999999997</ele><time>2026-04-06T14:42:22Z</time></trkpt><trkpt lat="46.379795877279946" lon="13.127442951138262"><ele>258.8</ele><time>2026-04-06T14:42:23Z</time></trkpt><trkpt lat="46.37981257828715" lon="13.127605362728454"><ele>259.0</ele><time>2026-04-06T14:42:24Z</time></trkpt><trkpt lat="46.37980886612519" lon="13.127786981811527"><ele>259.0</ele><time>2026-04-06T14:42:25Z</time></trkpt><trkpt lat="46.379820080982974" lon="13.127976979994221"><ele>259.0</ele><time>2026-04-06T14:42:26Z</time></trkpt><trkpt lat="46.37976947877126" lon="13.128174570830497"><ele>259.0</ele><time>2026-04-06T14:42:27Z</time></trkpt><trkpt lat="46.379752442162655" lon="13.128367105067856"><ele>259.0</ele><time>2026-04-06T14:42:28Z</time></trkpt><trkpt lat="46.37973835322102" lon="13.128564982567566"><ele>259.3333333333333</ele><time>2026-04-06T14:42:29Z</time></trkpt><trkpt lat="46.379731322486556" lon="13.128782056493657"><ele>259.6666666666667</ele><time>2026-04-06T14:42:30Z</time></trkpt><trkpt lat="46.3797391114789" lon="13.12901663941627"><ele>260.0</ele><time>2026-04-06T14:42:31Z</time></trkpt><trkpt lat="46.379752016976994" lon="13.129263516469985"><ele>260.33333333333337</ele><time>2026-04-06T14:42:32Z</time></trkpt><trkpt lat="46.37976988037503" lon="13.129507062629155"><ele>260.6666666666667</ele><time>2026-04-06T14:42:33Z</time></trkpt><trkpt lat="46.37979328479974" lon="13.129749874455653"><ele>261.0</ele><time>2026-04-06T14:42:34Z</time></trkpt><trkpt lat="46.37982207813639" lon="13.129994924869392"><ele>261.3333333333333</ele><time>2026-04-06T14:42:35Z</time></trkpt><trkpt lat="46.37985348869843" lon="13.130236829521179"><ele>261.66666666666663</ele><time>2026-04-06T14:42:36Z</time></trkpt><trkpt lat="46.37987323864206" lon="13.130480412912812"><ele>262.0</ele><time>2026-04-06T14:42:37Z</time></trkpt><trkpt lat="46.3798813964219" lon="13.130732868898486"><ele>262.0</ele><time>2026-04-06T14:42:38Z</time></trkpt><trkpt lat="46.37988014677153" lon="13.130989454332836"><ele>262.0</ele><time>2026-04-06T14:42:39Z</time></trkpt><trkpt lat="46.37986837527992" lon="13.131242690490165"><ele>262.0</ele><time>2026-04-06T14:42:40Z</time></trkpt><trkpt lat="46.37984510373866" lon="13.131486085709417"><ele>262.3333333333333</ele><time>2026-04-06T14:42:41Z</time></trkpt><trkpt lat="46.379814879436445" lon="13.131719962973035"><ele>262.6666666666667</ele><time>2026-04-06T14:42:42Z</time></trkpt><trkpt lat="46.3797750380921" lon="13.131952230784123"><ele>263.0</ele><time>2026-04-06T14:42:43Z</time></trkpt><trkpt lat="46.37972049471305" lon="13.132177198641198"><ele>262.0</ele><time>2026-04-06T14:42:44Z</time></trkpt><trkpt lat="46.379649005873034" lon="13.132387856237646"><ele>261.0</ele><time>2026-04-06T14:42:45Z</time></trkpt><trkpt lat="46.37956578603715" lon="13.132591513711342"><ele>260.0</ele><time>2026-04-06T14:42:46Z</time></trkpt><trkpt lat="46.37946918883233" lon="13.132788825915064"><ele>260.0</ele><time>2026-04-06T14:42:47Z</time></trkpt><trkpt lat="46.37936908447629" lon="13.132968581650971"><ele>260.0</ele><time>2026-04-06T14:42:48Z</time></trkpt><trkpt lat="46.379270366487965" lon="13.13312700865167"><ele>260.0</ele><time>2026-04-06T14:42:49Z</time></trkpt><trkpt lat="46.37917876625813" lon="13.133260995618926"><ele>260.0</ele><time>2026-04-06T14:42:50Z</time></trkpt><trkpt lat="46.37909963399595" lon="13.133380167952463"><ele>260.2</ele><time>2026-04-06T14:42:51Z</time></trkpt><trkpt lat="46.3790339764299" lon="13.133479008743814"><ele>260.4</ele><time>2026-04-06T14:42:52Z</time></trkpt><trkpt lat="46.37897647734921" lon="13.133569152458453"><ele>260.6</ele><time>2026-04-06T14:42:53Z</time></trkpt><trkpt lat="46.37892242582832" lon="13.133651727383164"><ele>260.8</ele><time>2026-04-06T14:42:54Z</time></trkpt><trkpt lat="46.378860385555065" lon="13.13374164575013"><ele>261.0</ele><time>2026-04-06T14:42:55Z</time></trkpt><trkpt lat="46.37879309492775" lon="13.133859060999773"><ele>261.0</ele><time>2026-04-06T14:42:56Z</time></trkpt><trkpt lat="46.37872053889735" lon="13.133977272622651"><ele>261.0</ele><time>2026-04-06T14:42:57Z</time></trkpt><trkpt lat="46.378637168159415" lon="13.134107755601864"><ele>261.0</ele><time>2026-04-06T14:42:58Z</time></trkpt><trkpt lat="46.37854509155602" lon="13.134250627429687"><ele>261.0</ele><time>2026-04-06T14:42:59Z</time></trkpt><trkpt lat="46.37845916457076" lon="13.134415930784575"><ele>261.25</ele><time>2026-04-06T14:43:00Z</time></trkpt><trkpt lat="46.37837725056245" lon="13.134586291715395"><ele>261.5</ele><time>2026-04-06T14:43:01Z</time></trkpt><trkpt lat="46.378298818912" lon="13.134759996067125"><ele>261.75</ele><time>2026-04-06T14:43:02Z</time></trkpt><trkpt lat="46.378229791795775" lon="13.134939731475797"><ele>262.0</ele><time>2026-04-06T14:43:03Z</time></trkpt><trkpt lat="46.378163456893304" lon="13.135105506775048"><ele>262.0</ele><time>2026-04-06T14:43:04Z</time></trkpt><trkpt lat="46.378097970432115" lon="13.135270955113484"><ele>262.0</ele><time>2026-04-06T14:43:05Z</time></trkpt><trkpt lat="46.37803181026849" lon="13.135436616592163"><ele>262.0</ele><time>2026-04-06T14:43:06Z</time></trkpt><trkpt lat="46.377963235308435" lon="13.135599264511947"><ele>262.0</ele><time>2026-04-06T14:43:07Z</time></trkpt><trkpt lat="46.37788978655391" lon="13.13576064496307"><ele>262.75</ele><time>2026-04-06T14:43:08Z</time></trkpt><trkpt lat="46.37780220348277" lon="13.135910887265187"><ele>263.5</ele><time>2026-04-06T14:43:09Z</time></trkpt><trkpt lat="46.37770480742776" lon="13.136062805236703"><ele>264.25</ele><time>2026-04-06T14:43:10Z</time></trkpt><trkpt lat="46.37759664982543" lon="13.136211548980034"><ele>265.0</ele><time>2026-04-06T14:43:11Z</time></trkpt><trkpt lat="46.377480672747886" lon="13.136354261133683"><ele>265.0</ele><time>2026-04-06T14:43:12Z</time></trkpt><trkpt lat="46.377357179471204" lon="13.136491184451094"><ele>265.0</ele><time>2026-04-06T14:43:13Z</time></trkpt><trkpt lat="46.37722566266031" lon="13.13661322241335"><ele>265.0</ele><time>2026-04-06T14:43:14Z</time></trkpt><trkpt lat="46.377083735524856" lon="13.136724527247893"><ele>265.0</ele><time>2026-04-06T14:43:15Z</time></trkpt><trkpt lat="46.37693369848701" lon="13.136823472578628"><ele>265.0</ele><time>2026-04-06T14:43:16Z</time></trkpt><trkpt lat="46.376781656303336" lon="13.136906774559893"><ele>265.0</ele><time>2026-04-06T14:43:17Z</time></trkpt><trkpt lat="46.37662628167836" lon="13.136968830884605"><ele>265.0</ele><time>2026-04-06T14:43:18Z</time></trkpt><trkpt lat="46.37646314783222" lon="13.137003921467956"><ele>265.0</ele><time>2026-04-06T14:43:19Z</time></trkpt><trkpt lat="46.37629718419351" lon="13.137006171222751"><ele>265.0</ele><time>2026-04-06T14:43:20Z</time></trkpt><trkpt lat="46.37612893651475" lon="13.136991316452374"><ele>264.0</ele><time>2026-04-06T14:43:21Z</time></trkpt><trkpt lat="46.37595475427132" lon="13.136957354087924"><ele>263.0</ele><time>2026-04-06T14:43:22Z</time></trkpt><trkpt lat="46.37578330318033" lon="13.136870655788044"><ele>262.0</ele><time>2026-04-06T14:43:23Z</time></trkpt><trkpt lat="46.37559920825304" lon="13.136791801577605"><ele>261.3333333333333</ele><time>2026-04-06T14:43:24Z</time></trkpt><trkpt lat="46.37540114264348" lon="13.136727551084894"><ele>260.6666666666667</ele><time>2026-04-06T14:43:25Z</time></trkpt><trkpt lat="46.37520507178883" lon="13.136634928810611"><ele>260.0</ele><time>2026-04-06T14:43:26Z</time></trkpt><trkpt lat="46.37500218957425" lon="13.136544626206351"><ele>260.0</ele><time>2026-04-06T14:43:27Z</time></trkpt><trkpt lat="46.37479484166129" lon="13.136456931668244"><ele>260.0</ele><time>2026-04-06T14:43:28Z</time></trkpt><trkpt lat="46.3745803020485" lon="13.136363518579172"><ele>260.0</ele><time>2026-04-06T14:43:29Z</time></trkpt><trkpt lat="46.37436455571877" lon="13.136271684427362"><ele>260.0</ele><time>2026-04-06T14:43:30Z</time></trkpt><trkpt lat="46.37414903602227" lon="13.136186626320317"><ele>260.0</ele><time>2026-04-06T14:43:31Z</time></trkpt><trkpt lat="46.373935428317274" lon="13.136108855678476"><ele>260.0</ele><time>2026-04-06T14:43:32Z</time></trkpt><trkpt lat="46.37372359450855" lon="13.136038456958977"><ele>260.0</ele><time>2026-04-06T14:43:33Z</time></trkpt><trkpt lat="46.373514050032036" lon="13.135978844717318"><ele>260.0</ele><time>2026-04-06T14:43:34Z</time></trkpt><trkpt lat="46.37331188376507" lon="13.13592403466901"><ele>260.0</ele><time>2026-04-06T14:43:35Z</time></trkpt><trkpt lat="46.37311412552888" lon="13.135871382946643"><ele>263.0</ele><time>2026-04-06T14:43:36Z</time></trkpt><trkpt lat="46.372921199267225" lon="13.135826661060543"><ele>266.0</ele><time>2026-04-06T14:43:37Z</time></trkpt><trkpt lat="46.372732484963386" lon="13.135786708770837"><ele>269.0</ele><time>2026-04-06T14:43:38Z</time></trkpt><trkpt lat="46.37255121089872" lon="13.135749617754115"><ele>266.0</ele><time>2026-04-06T14:43:39Z</time></trkpt><trkpt lat="46.3723720582683" lon="13.135716662746812"><ele>263.0</ele><time>2026-04-06T14:43:40Z</time></trkpt><trkpt lat="46.372195353136576" lon="13.135689085219934"><ele>260.0</ele><time>2026-04-06T14:43:40.999Z</time></trkpt><trkpt lat="46.372018742612376" lon="13.13566412838002"><ele>260.0</ele><time>2026-04-06T14:43:41.999Z</time></trkpt><trkpt lat="46.37184723601028" lon="13.13564136176325"><ele>260.0</ele><time>2026-04-06T14:43:42.999Z</time></trkpt><trkpt lat="46.37167458317329" lon="13.135619765588855"><ele>260.0</ele><time>2026-04-06T14:43:43.999Z</time></trkpt><trkpt lat="46.37149971282634" lon="13.135603513344606"><ele>260.0</ele><time>2026-04-06T14:43:44.999Z</time></trkpt><trkpt lat="46.371326700570656" lon="13.135592395307672"><ele>260.0</ele><time>2026-04-06T14:43:45.999Z</time></trkpt><trkpt lat="46.37115422673142" lon="13.135588463157609"><ele>260.0</ele><time>2026-04-06T14:43:46.999Z</time></trkpt><trkpt lat="46.37098197666424" lon="13.135587286753049"><ele>260.0</ele><time>2026-04-06T14:43:47.999Z</time></trkpt><trkpt lat="46.37080499984767" lon="13.135585394275902"><ele>260.0</ele><time>2026-04-06T14:43:48.999Z</time></trkpt><trkpt lat="46.37062626146756" lon="13.135582357119173"><ele>260.0</ele><time>2026-04-06T14:43:49.999Z</time></trkpt><trkpt lat="46.37044187101081" lon="13.135575688451661"><ele>259.6666666666667</ele><time>2026-04-06T14:43:50.999Z</time></trkpt><trkpt lat="46.370254370140614" lon="13.135567902647356"><ele>259.3333333333333</ele><time>2026-04-06T14:43:51.999Z</time></trkpt><trkpt lat="46.370063258418234" lon="13.135561072433362"><ele>259.0</ele><time>2026-04-06T14:43:52.999Z</time></trkpt><trkpt lat="46.369869154864695" lon="13.135553317434267"><ele>257.3333333333333</ele><time>2026-04-06T14:43:53.999Z</time></trkpt><trkpt lat="46.36966994448757" lon="13.135546763577029"><ele>255.66666666666669</ele><time>2026-04-06T14:43:54.999Z</time></trkpt><trkpt lat="46.36946475022045" lon="13.135538995009123"><ele>254.0</ele><time>2026-04-06T14:43:55.999Z</time></trkpt><trkpt lat="46.36926098011633" lon="13.135527897384138"><ele>254.0</ele><time>2026-04-06T14:43:56.999Z</time></trkpt><trkpt lat="46.36905853177106" lon="13.135506930353912"><ele>254.0</ele><time>2026-04-06T14:43:57.999Z</time></trkpt><trkpt lat="46.368858979072215" lon="13.135477952885982"><ele>254.0</ele><time>2026-04-06T14:43:58.999Z</time></trkpt><trkpt lat="46.36866646501878" lon="13.135429926181489"><ele>253.66666666666669</ele><time>2026-04-06T14:43:59.999Z</time></trkpt><trkpt lat="46.36848118678993" lon="13.135363756481793"><ele>253.33333333333331</ele><time>2026-04-06T14:44:00.999Z</time></trkpt><trkpt lat="46.368287413049245" lon="13.13528942803367"><ele>253.0</ele><time>2026-04-06T14:44:01.999Z</time></trkpt><trkpt lat="46.36809236320738" lon="13.135220745862838"><ele>254.66666666666666</ele><time>2026-04-06T14:44:02.999Z</time></trkpt><trkpt lat="46.36789497331289" lon="13.135196193409458"><ele>256.3333333333333</ele><time>2026-04-06T14:44:03.999Z</time></trkpt><trkpt lat="46.367712108015205" lon="13.135124277401612"><ele>258.0</ele><time>2026-04-06T14:44:04.999Z</time></trkpt><trkpt lat="46.36751407397304" lon="13.135061118506231"><ele>258.0</ele><time>2026-04-06T14:44:05.999Z</time></trkpt><trkpt lat="46.36731865046257" lon="13.134985059393138"><ele>258.0</ele><time>2026-04-06T14:44:06.999Z</time></trkpt><trkpt lat="46.367125560969235" lon="13.134909640244503"><ele>258.0</ele><time>2026-04-06T14:44:07.999Z</time></trkpt><trkpt lat="46.3669377593206" lon="13.134834781349905"><ele>255.33333333333331</ele><time>2026-04-06T14:44:08.999Z</time></trkpt><trkpt lat="46.366756478067686" lon="13.134765186725659"><ele>252.66666666666666</ele><time>2026-04-06T14:44:09.999Z</time></trkpt><trkpt lat="46.36657334650727" lon="13.134705446143347"><ele>250.0</ele><time>2026-04-06T14:44:10.999Z</time></trkpt><trkpt lat="46.36638831125915" lon="13.13466375492014"><ele>249.66666666666666</ele><time>2026-04-06T14:44:11.999Z</time></trkpt><trkpt lat="46.36620403409726" lon="13.13464378189281"><ele>249.33333333333331</ele><time>2026-04-06T14:44:12.999Z</time></trkpt><trkpt lat="46.366021518668944" lon="13.13464298861816"><ele>249.0</ele><time>2026-04-06T14:44:13.999Z</time></trkpt><trkpt lat="46.36584205524726" lon="13.134660625457458"><ele>249.0</ele><time>2026-04-06T14:44:14.999Z</time></trkpt><trkpt lat="46.36565925365594" lon="13.134699261313626"><ele>249.0</ele><time>2026-04-06T14:44:15.999Z</time></trkpt><trkpt lat="46.36547483858967" lon="13.134753397362593"><ele>249.0</ele><time>2026-04-06T14:44:16.999Z</time></trkpt><trkpt lat="46.365289942710795" lon="13.134820560550605"><ele>248.33333333333331</ele><time>2026-04-06T14:44:17.999Z</time></trkpt><trkpt lat="46.3651030644687" lon="13.134886724972109"><ele>247.66666666666666</ele><time>2026-04-06T14:44:18.999Z</time></trkpt><trkpt lat="46.364917966746376" lon="13.134953337328364"><ele>247.0</ele><time>2026-04-06T14:44:20Z</time></trkpt><trkpt lat="46.36473438516832" lon="13.135018374094143"><ele>247.66666666666666</ele><time>2026-04-06T14:44:21Z</time></trkpt><trkpt lat="46.36454892868945" lon="13.135082484047519"><ele>248.33333333333331</ele><time>2026-04-06T14:44:22Z</time></trkpt><trkpt lat="46.3643627788506" lon="13.135148236105323"><ele>249.0</ele><time>2026-04-06T14:44:23Z</time></trkpt><trkpt lat="46.36417690908531" lon="13.135216348603482"><ele>249.0</ele><time>2026-04-06T14:44:24Z</time></trkpt><trkpt lat="46.363990450758294" lon="13.135283676680407"><ele>249.0</ele><time>2026-04-06T14:44:25Z</time></trkpt><trkpt lat="46.36379980628182" lon="13.135351788561454"><ele>249.0</ele><time>2026-04-06T14:44:26Z</time></trkpt><trkpt lat="46.36360485121797" lon="13.13542204426199"><ele>247.66666666666669</ele><time>2026-04-06T14:44:27Z</time></trkpt><trkpt lat="46.36340879640168" lon="13.13549106080322"><ele>246.33333333333334</ele><time>2026-04-06T14:44:28Z</time></trkpt><trkpt lat="46.36321216378687" lon="13.135560262086925"><ele>245.0</ele><time>2026-04-06T14:44:29Z</time></trkpt><trkpt lat="46.3630180287902" lon="13.135629664512363"><ele>245.0</ele><time>2026-04-06T14:44:30Z</time></trkpt><trkpt lat="46.3628262014402" lon="13.13569719141861"><ele>245.0</ele><time>2026-04-06T14:44:31Z</time></trkpt><trkpt lat="46.362633645428566" lon="13.135762275582088"><ele>245.0</ele><time>2026-04-06T14:44:32Z</time></trkpt><trkpt lat="46.36244026860126" lon="13.135831742494048"><ele>245.33333333333334</ele><time>2026-04-06T14:44:33Z</time></trkpt><trkpt lat="46.36224832994661" lon="13.135903513274977"><ele>245.66666666666669</ele><time>2026-04-06T14:44:34Z</time></trkpt><trkpt lat="46.36205821673519" lon="13.135974393271855"><ele>246.0</ele><time>2026-04-06T14:44:35Z</time></trkpt><trkpt lat="46.3618653225599" lon="13.136043033115579"><ele>245.0</ele><time>2026-04-06T14:44:36Z</time></trkpt><trkpt lat="46.36167210897289" lon="13.136110648327199"><ele>244.0</ele><time>2026-04-06T14:44:37Z</time></trkpt><trkpt lat="46.36147142599731" lon="13.136180512630492"><ele>243.0</ele><time>2026-04-06T14:44:38Z</time></trkpt><trkpt lat="46.361264679753" lon="13.136254841627398"><ele>242.5</ele><time>2026-04-06T14:44:39Z</time></trkpt><trkpt lat="46.3610430871271" lon="13.136335470191124"><ele>242.0</ele><time>2026-04-06T14:44:40Z</time></trkpt><trkpt lat="46.36079066718805" lon="13.136431742063746"><ele>242.5</ele><time>2026-04-06T14:44:41Z</time></trkpt><trkpt lat="46.36051189842094" lon="13.136507050467664"><ele>243.0</ele><time>2026-04-06T14:44:42Z</time></trkpt><trkpt lat="46.36021483124518" lon="13.13661216417642"><ele>243.0</ele><time>2026-04-06T14:44:43Z</time></trkpt><trkpt lat="46.35992409158233" lon="13.136719248490023"><ele>243.0</ele><time>2026-04-06T14:44:44Z</time></trkpt><trkpt lat="46.359662711685296" lon="13.136821309754932"><ele>242.5</ele><time>2026-04-06T14:44:45Z</time></trkpt><trkpt lat="46.35943113197664" lon="13.136938031124979"><ele>242.0</ele><time>2026-04-06T14:44:46Z</time></trkpt><trkpt lat="46.35921566561214" lon="13.137029001274897"><ele>242.0</ele><time>2026-04-06T14:44:47Z</time></trkpt><trkpt lat="46.3590188944283" lon="13.137114693705108"><ele>242.0</ele><time>2026-04-06T14:44:48Z</time></trkpt><trkpt lat="46.35882918051161" lon="13.137197637379911"><ele>242.0</ele><time>2026-04-06T14:44:49Z</time></trkpt><trkpt lat="46.3586229600208" lon="13.137288793163112"><ele>240.5</ele><time>2026-04-06T14:44:50Z</time></trkpt><trkpt lat="46.35840383126807" lon="13.13739001100334"><ele>239.0</ele><time>2026-04-06T14:44:51Z</time></trkpt><trkpt lat="46.35818060744289" lon="13.137494022502626"><ele>239.0</ele><time>2026-04-06T14:44:52Z</time></trkpt><trkpt lat="46.357951819268195" lon="13.137602135518666"><ele>239.0</ele><time>2026-04-06T14:44:53Z</time></trkpt><trkpt lat="46.357726539479465" lon="13.137707522861882"><ele>239.0</ele><time>2026-04-06T14:44:54Z</time></trkpt><trkpt lat="46.35750567012566" lon="13.137804297377954"><ele>239.0</ele><time>2026-04-06T14:44:55Z</time></trkpt><trkpt lat="46.35728535679271" lon="13.137906629568928"><ele>239.0</ele><time>2026-04-06T14:44:56Z</time></trkpt><trkpt lat="46.35706651047126" lon="13.13800929474797"><ele>239.0</ele><time>2026-04-06T14:44:57Z</time></trkpt><trkpt lat="46.35685031292173" lon="13.138112763187848"><ele>239.0</ele><time>2026-04-06T14:44:58Z</time></trkpt><trkpt lat="46.35663433039644" lon="13.138215718944748"><ele>239.0</ele><time>2026-04-06T14:44:59Z</time></trkpt><trkpt lat="46.356418448974175" lon="13.138320082471823"><ele>240.5</ele><time>2026-04-06T14:45:00Z</time></trkpt><trkpt lat="46.35620245529003" lon="13.138425313566533"><ele>242.0</ele><time>2026-04-06T14:45:01Z</time></trkpt><trkpt lat="46.3559844733633" lon="13.138532307008028"><ele>242.0</ele><time>2026-04-06T14:45:02Z</time></trkpt><trkpt lat="46.355763924412585" lon="13.138638443823256"><ele>242.0</ele><time>2026-04-06T14:45:03Z</time></trkpt><trkpt lat="46.35555042730589" lon="13.138738350495656"><ele>242.33333333333334</ele><time>2026-04-06T14:45:04Z</time></trkpt><trkpt lat="46.35533976099342" lon="13.138837163020373"><ele>242.66666666666669</ele><time>2026-04-06T14:45:05Z</time></trkpt><trkpt lat="46.35512439429054" lon="13.138944425498202"><ele>243.0</ele><time>2026-04-06T14:45:06Z</time></trkpt><trkpt lat="46.35488341516969" lon="13.139054491091006"><ele>243.5</ele><time>2026-04-06T14:45:07Z</time></trkpt><trkpt lat="46.35461968246823" lon="13.139212370217791"><ele>244.0</ele><time>2026-04-06T14:45:08Z</time></trkpt><trkpt lat="46.35434139268019" lon="13.139392287110342"><ele>244.0</ele><time>2026-04-06T14:45:09Z</time></trkpt><trkpt lat="46.354056041046334" lon="13.13957676547128"><ele>244.0</ele><time>2026-04-06T14:45:10Z</time></trkpt><trkpt lat="46.35377551982" lon="13.139759719926232"><ele>247.0</ele><time>2026-04-06T14:45:11Z</time></trkpt><trkpt lat="46.35350956947297" lon="13.139954403905472"><ele>250.0</ele><time>2026-04-06T14:45:12Z</time></trkpt><trkpt lat="46.35324825942242" lon="13.14012157270971"><ele>248.5</ele><time>2026-04-06T14:45:13Z</time></trkpt><trkpt lat="46.352994093144105" lon="13.140284990366562"><ele>247.0</ele><time>2026-04-06T14:45:14Z</time></trkpt><trkpt lat="46.35274614138048" lon="13.14044615828933"><ele>247.0</ele><time>2026-04-06T14:45:15Z</time></trkpt><trkpt lat="46.352502292965994" lon="13.140605609050997"><ele>247.0</ele><time>2026-04-06T14:45:16Z</time></trkpt><trkpt lat="46.352257436303034" lon="13.140768201820018"><ele>248.0</ele><time>2026-04-06T14:45:17Z</time></trkpt><trkpt lat="46.352009741931234" lon="13.140932124711144"><ele>249.0</ele><time>2026-04-06T14:45:18Z</time></trkpt><trkpt lat="46.351759751976005" lon="13.141093685867986"><ele>249.0</ele><time>2026-04-06T14:45:19Z</time></trkpt><trkpt lat="46.351505584070814" lon="13.141255866916556"><ele>249.0</ele><time>2026-04-06T14:45:20Z</time></trkpt><trkpt lat="46.35125207594498" lon="13.141416086851185"><ele>250.0</ele><time>2026-04-06T14:45:21Z</time></trkpt><trkpt lat="46.35099837567254" lon="13.141564884244517"><ele>251.0</ele><time>2026-04-06T14:45:22Z</time></trkpt><trkpt lat="46.350746742909294" lon="13.14170345670269"><ele>248.5</ele><time>2026-04-06T14:45:23Z</time></trkpt><trkpt lat="46.35049674702407" lon="13.141830183197559"><ele>246.0</ele><time>2026-04-06T14:45:24Z</time></trkpt><trkpt lat="46.35025113930791" lon="13.14194963221289"><ele>246.0</ele><time>2026-04-06T14:45:25Z</time></trkpt><trkpt lat="46.35001106305118" lon="13.142064132435644"><ele>246.0</ele><time>2026-04-06T14:45:26Z</time></trkpt><trkpt lat="46.34977996565212" lon="13.142175426172699"><ele>245.5</ele><time>2026-04-06T14:45:27Z</time></trkpt><trkpt lat="46.3495588356515" lon="13.14227575288186"><ele>245.0</ele><time>2026-04-06T14:45:28Z</time></trkpt><trkpt lat="46.34933137055976" lon="13.142354638333178"><ele>249.0</ele><time>2026-04-06T14:45:29Z</time></trkpt><trkpt lat="46.349101827054035" lon="13.142390141522124"><ele>253.0</ele><time>2026-04-06T14:45:30Z</time></trkpt><trkpt lat="46.34887344738519" lon="13.142380137332909"><ele>245.0</ele><time>2026-04-06T14:45:31Z</time></trkpt><trkpt lat="46.34864854632065" lon="13.142331338988807"><ele>237.0</ele><time>2026-04-06T14:45:32Z</time></trkpt><trkpt lat="46.34842806862267" lon="13.142250155829988"><ele>237.0</ele><time>2026-04-06T14:45:33Z</time></trkpt><trkpt lat="46.34821227500092" lon="13.14213334464486"><ele>237.0</ele><time>2026-04-06T14:45:34Z</time></trkpt><trkpt lat="46.347997089402284" lon="13.142006751318535"><ele>236.5</ele><time>2026-04-06T14:45:35Z</time></trkpt><trkpt lat="46.34777823672491" lon="13.141885167764846"><ele>236.0</ele><time>2026-04-06T14:45:36Z</time></trkpt><trkpt lat="46.347559534161235" lon="13.141765307651058"><ele>236.0</ele><time>2026-04-06T14:45:37Z</time></trkpt><trkpt lat="46.34734296373513" lon="13.141643416979731"><ele>236.0</ele><time>2026-04-06T14:45:38Z</time></trkpt><trkpt lat="46.34712848586009" lon="13.141518224060272"><ele>235.5</ele><time>2026-04-06T14:45:39Z</time></trkpt><trkpt lat="46.346913556739956" lon="13.141391666108536"><ele>235.0</ele><time>2026-04-06T14:45:40Z</time></trkpt><trkpt lat="46.34669918616311" lon="13.141269718604464"><ele>235.0</ele><time>2026-04-06T14:45:41Z</time></trkpt><trkpt lat="46.3464823325592" lon="13.141149338753035"><ele>235.0</ele><time>2026-04-06T14:45:42Z</time></trkpt><trkpt lat="46.34625156530067" lon="13.141021544933714"><ele>236.0</ele><time>2026-04-06T14:45:43Z</time></trkpt><trkpt lat="46.34601818563756" lon="13.14089126634273"><ele>237.0</ele><time>2026-04-06T14:45:44Z</time></trkpt><trkpt lat="46.345756968056726" lon="13.140747728109629"><ele>236.0</ele><time>2026-04-06T14:45:44.999Z</time></trkpt><trkpt lat="46.34547804071853" lon="13.140582508837536"><ele>235.0</ele><time>2026-04-06T14:45:45.999Z</time></trkpt><trkpt lat="46.34520022968053" lon="13.140412726554134"><ele>235.0</ele><time>2026-04-06T14:45:46.999Z</time></trkpt><trkpt lat="46.344943061693975" lon="13.140259308723532"><ele>235.0</ele><time>2026-04-06T14:45:47.999Z</time></trkpt><trkpt lat="46.34470195622165" lon="13.140120821241469"><ele>235.0</ele><time>2026-04-06T14:45:48.999Z</time></trkpt><trkpt lat="46.34447459281357" lon="13.13999057333024"><ele>235.0</ele><time>2026-04-06T14:45:49.999Z</time></trkpt><trkpt lat="46.34425766085461" lon="13.139869367955937"><ele>234.66666666666666</ele><time>2026-04-06T14:45:50.999Z</time></trkpt><trkpt lat="46.344045021220296" lon="13.13977332010234"><ele>234.33333333333331</ele><time>2026-04-06T14:45:51.999Z</time></trkpt><trkpt lat="46.343825196050354" lon="13.139709843551776"><ele>234.0</ele><time>2026-04-06T14:45:52.999Z</time></trkpt><trkpt lat="46.343611261440536" lon="13.139667831069028"><ele>233.66666666666669</ele><time>2026-04-06T14:45:53.999Z</time></trkpt><trkpt lat="46.34340458463544" lon="13.139655591518075"><ele>233.33333333333334</ele><time>2026-04-06T14:45:54.999Z</time></trkpt><trkpt lat="46.343200992525574" lon="13.139669664372047"><ele>233.0</ele><time>2026-04-06T14:45:55.999Z</time></trkpt><trkpt lat="46.34300023049411" lon="13.139681375377045"><ele>233.0</ele><time>2026-04-06T14:45:56.999Z</time></trkpt><trkpt lat="46.34279849444638" lon="13.139683342466201"><ele>233.0</ele><time>2026-04-06T14:45:57.999Z</time></trkpt><trkpt lat="46.342594964771635" lon="13.13969074100864"><ele>233.0</ele><time>2026-04-06T14:45:58.999Z</time></trkpt><trkpt lat="46.34239344186654" lon="13.139695157039366"><ele>233.0</ele><time>2026-04-06T14:45:59.999Z</time></trkpt><trkpt lat="46.34219403488361" lon="13.139698881964934"><ele>233.0</ele><time>2026-04-06T14:46:00.999Z</time></trkpt><trkpt lat="46.34199502233259" lon="13.13970923902523"><ele>233.0</ele><time>2026-04-06T14:46:01.999Z</time></trkpt><trkpt lat="46.34179396342523" lon="13.13972204781042"><ele>233.0</ele><time>2026-04-06T14:46:02.999Z</time></trkpt><trkpt lat="46.341589767906676" lon="13.139732907000285"><ele>233.0</ele><time>2026-04-06T14:46:03.999Z</time></trkpt><trkpt lat="46.341385758952114" lon="13.139739546235019"><ele>233.0</ele><time>2026-04-06T14:46:04.999Z</time></trkpt><trkpt lat="46.341185173056594" lon="13.139747657576464"><ele>233.0</ele><time>2026-04-06T14:46:05.999Z</time></trkpt><trkpt lat="46.34098508781492" lon="13.139757194839188"><ele>233.0</ele><time>2026-04-06T14:46:06.999Z</time></trkpt><trkpt lat="46.34078649778815" lon="13.139765435974091"><ele>233.0</ele><time>2026-04-06T14:46:07.999Z</time></trkpt><trkpt lat="46.34058812977558" lon="13.139774232586367"><ele>232.66666666666669</ele><time>2026-04-06T14:46:08.999Z</time></trkpt><trkpt lat="46.34039150074227" lon="13.139781268392051"><ele>232.33333333333331</ele><time>2026-04-06T14:46:09.999Z</time></trkpt><trkpt lat="46.340198595892076" lon="13.139789826810011"><ele>232.0</ele><time>2026-04-06T14:46:10.999Z</time></trkpt><trkpt lat="46.34001216218745" lon="13.139796815005095"><ele>232.0</ele><time>2026-04-06T14:46:11.999Z</time></trkpt><trkpt lat="46.3398223525189" lon="13.139804563416845"><ele>232.0</ele><time>2026-04-06T14:46:12.999Z</time></trkpt><trkpt lat="46.33962561001039" lon="13.139791080453051"><ele>232.0</ele><time>2026-04-06T14:46:13.999Z</time></trkpt><trkpt lat="46.33942565500261" lon="13.13979635528166"><ele>232.33333333333331</ele><time>2026-04-06T14:46:14.999Z</time></trkpt><trkpt lat="46.33922214120933" lon="13.139821361618088"><ele>232.66666666666669</ele><time>2026-04-06T14:46:15.999Z</time></trkpt><trkpt lat="46.339024047723235" lon="13.139808160720488"><ele>233.0</ele><time>2026-04-06T14:46:16.999Z</time></trkpt><trkpt lat="46.33883230730522" lon="13.139780180894213"><ele>233.0</ele><time>2026-04-06T14:46:17.999Z</time></trkpt><trkpt lat="46.33864725693372" lon="13.13974033201928"><ele>233.0</ele><time>2026-04-06T14:46:18.999Z</time></trkpt><trkpt lat="46.33846431295465" lon="13.139691778366451"><ele>233.0</ele><time>2026-04-06T14:46:19.999Z</time></trkpt><trkpt lat="46.338283925192506" lon="13.139632513539516"><ele>233.0</ele><time>2026-04-06T14:46:20.999Z</time></trkpt><trkpt lat="46.338105026808506" lon="13.139565228548689"><ele>233.0</ele><time>2026-04-06T14:46:21.999Z</time></trkpt><trkpt lat="46.33792961233483" lon="13.139486737755721"><ele>233.0</ele><time>2026-04-06T14:46:22.999Z</time></trkpt><trkpt lat="46.337758207658354" lon="13.139395653222934"><ele>232.33333333333334</ele><time>2026-04-06T14:46:23.999Z</time></trkpt><trkpt lat="46.33758602187689" lon="13.139294950229324"><ele>231.66666666666669</ele><time>2026-04-06T14:46:24.999Z</time></trkpt><trkpt lat="46.33741044574439" lon="13.139189301935344"><ele>231.0</ele><time>2026-04-06T14:46:26Z</time></trkpt><trkpt lat="46.337228870583836" lon="13.139083221281949"><ele>231.33333333333331</ele><time>2026-04-06T14:46:27Z</time></trkpt><trkpt lat="46.337039389696436" lon="13.13897499259364"><ele>231.66666666666666</ele><time>2026-04-06T14:46:28Z</time></trkpt><trkpt lat="46.336844976098014" lon="13.138859869085518"><ele>232.0</ele><time>2026-04-06T14:46:29Z</time></trkpt><trkpt lat="46.33664352823209" lon="13.138738340611852"><ele>232.0</ele><time>2026-04-06T14:46:30Z</time></trkpt><trkpt lat="46.33643679889054" lon="13.138612378205341"><ele>232.0</ele><time>2026-04-06T14:46:31Z</time></trkpt><trkpt lat="46.33622147399524" lon="13.138483531474312"><ele>231.5</ele><time>2026-04-06T14:46:32Z</time></trkpt><trkpt lat="46.336002161581035" lon="13.138354285074637"><ele>231.0</ele><time>2026-04-06T14:46:33Z</time></trkpt><trkpt lat="46.33578748710988" lon="13.138227259781385"><ele>230.0</ele><time>2026-04-06T14:46:34Z</time></trkpt><trkpt lat="46.3355760057189" lon="13.138103075929878"><ele>229.0</ele><time>2026-04-06T14:46:35Z</time></trkpt><trkpt lat="46.33536668217018" lon="13.137979804467808"><ele>230.33333333333331</ele><time>2026-04-06T14:46:36Z</time></trkpt><trkpt lat="46.33516542793089" lon="13.137857795363525"><ele>231.66666666666669</ele><time>2026-04-06T14:46:37Z</time></trkpt><trkpt lat="46.33497472547373" lon="13.137740927151734"><ele>233.0</ele><time>2026-04-06T14:46:38Z</time></trkpt><trkpt lat="46.334793275829746" lon="13.137629777446458"><ele>233.0</ele><time>2026-04-06T14:46:39Z</time></trkpt><trkpt lat="46.33462137590371" lon="13.137528676544946"><ele>233.0</ele><time>2026-04-06T14:46:40Z</time></trkpt><trkpt lat="46.33445952524237" lon="13.13743388943876"><ele>233.0</ele><time>2026-04-06T14:46:41Z</time></trkpt><trkpt lat="46.334310484776076" lon="13.137346360488777"><ele>233.5</ele><time>2026-04-06T14:46:42Z</time></trkpt><trkpt lat="46.33416720148243" lon="13.137274512995699"><ele>234.0</ele><time>2026-04-06T14:46:43Z</time></trkpt><trkpt lat="46.33403365194504" lon="13.137246654795245"><ele>234.5</ele><time>2026-04-06T14:46:44Z</time></trkpt><trkpt lat="46.33389964120514" lon="13.137260306161949"><ele>235.0</ele><time>2026-04-06T14:46:45Z</time></trkpt><trkpt lat="46.33375759121205" lon="13.137305473177427"><ele>233.0</ele><time>2026-04-06T14:46:46Z</time></trkpt><trkpt lat="46.33361970035966" lon="13.137379841249544"><ele>231.0</ele><time>2026-04-06T14:46:47Z</time></trkpt><trkpt lat="46.33348382392985" lon="13.137463731026516"><ele>229.0</ele><time>2026-04-06T14:46:48Z</time></trkpt><trkpt lat="46.33334086274627" lon="13.13755484144082"><ele>229.0</ele><time>2026-04-06T14:46:49Z</time></trkpt><trkpt lat="46.33320528142171" lon="13.137638641785788"><ele>229.0</ele><time>2026-04-06T14:46:50Z</time></trkpt><trkpt lat="46.33307767759649" lon="13.137722108090482"><ele>229.0</ele><time>2026-04-06T14:46:51Z</time></trkpt><trkpt lat="46.3329523260503" lon="13.137804512737048"><ele>229.0</ele><time>2026-04-06T14:46:52Z</time></trkpt><trkpt lat="46.332832225922196" lon="13.137882811079495"><ele>229.25</ele><time>2026-04-06T14:46:53Z</time></trkpt><trkpt lat="46.3327113058572" lon="13.137961132562666"><ele>229.5</ele><time>2026-04-06T14:46:54Z</time></trkpt><trkpt lat="46.33258810134969" lon="13.1380408531886"><ele>229.75</ele><time>2026-04-06T14:46:55Z</time></trkpt><trkpt lat="46.33245804612759" lon="13.138112206835945"><ele>230.0</ele><time>2026-04-06T14:46:56Z</time></trkpt><trkpt lat="46.332323200828576" lon="13.138159702039157"><ele>229.75</ele><time>2026-04-06T14:46:57Z</time></trkpt><trkpt lat="46.332183021986936" lon="13.138176662870002"><ele>229.5</ele><time>2026-04-06T14:46:58Z</time></trkpt><trkpt lat="46.332042052251786" lon="13.138170732720594"><ele>229.25</ele><time>2026-04-06T14:46:59Z</time></trkpt><trkpt lat="46.33190244444573" lon="13.138139901396189"><ele>229.0</ele><time>2026-04-06T14:47:00Z</time></trkpt><trkpt lat="46.33177578422067" lon="13.138087007832652"><ele>229.0</ele><time>2026-04-06T14:47:01Z</time></trkpt><trkpt lat="46.331680615378026" lon="13.138031430966656"><ele>228.99999999999997</ele><time>2026-04-06T14:47:02Z</time></trkpt><trkpt lat="46.33160792677815" lon="13.137982311358718"><ele>228.99999999999997</ele><time>2026-04-06T14:47:03Z</time></trkpt><trkpt lat="46.33152107146001" lon="13.137919466105693"><ele>229.0</ele><time>2026-04-06T14:47:05Z</time></trkpt><trkpt lat="46.33140851502526" lon="13.137840109327906"><ele>229.0</ele><time>2026-04-06T14:47:07Z</time></trkpt><trkpt lat="46.331316754446476" lon="13.137772030407417"><ele>228.75</ele><time>2026-04-06T14:47:08Z</time></trkpt><trkpt lat="46.331203087009015" lon="13.137687663050855"><ele>228.5</ele><time>2026-04-06T14:47:09Z</time></trkpt><trkpt lat="46.33107831831384" lon="13.137596093357338"><ele>228.25</ele><time>2026-04-06T14:47:10Z</time></trkpt><trkpt lat="46.33095675308148" lon="13.137508340597591"><ele>228.0</ele><time>2026-04-06T14:47:11Z</time></trkpt><trkpt lat="46.33083526969828" lon="13.137418163740994"><ele>228.0</ele><time>2026-04-06T14:47:12Z</time></trkpt><trkpt lat="46.330703774513005" lon="13.13731722687845"><ele>228.0</ele><time>2026-04-06T14:47:13Z</time></trkpt><trkpt lat="46.33056494761981" lon="13.13721097677474"><ele>228.0</ele><time>2026-04-06T14:47:14Z</time></trkpt><trkpt lat="46.330420822295444" lon="13.137103192625553"><ele>227.33333333333331</ele><time>2026-04-06T14:47:15Z</time></trkpt><trkpt lat="46.33027372096352" lon="13.13699066429054"><ele>226.66666666666666</ele><time>2026-04-06T14:47:16Z</time></trkpt><trkpt lat="46.330121804996814" lon="13.136876944571748"><ele>226.0</ele><time>2026-04-06T14:47:17Z</time></trkpt><trkpt lat="46.32996518151688" lon="13.136760966291313"><ele>226.0</ele><time>2026-04-06T14:47:18Z</time></trkpt><trkpt lat="46.32980635880517" lon="13.136640997482843"><ele>226.0</ele><time>2026-04-06T14:47:19Z</time></trkpt><trkpt lat="46.32964575864383" lon="13.13651487415008"><ele>226.0</ele><time>2026-04-06T14:47:20Z</time></trkpt><trkpt lat="46.32948485150356" lon="13.136383499334475"><ele>226.0</ele><time>2026-04-06T14:47:21Z</time></trkpt><trkpt lat="46.3293156189965" lon="13.136235645370217"><ele>226.0</ele><time>2026-04-06T14:47:22Z</time></trkpt><trkpt lat="46.32914564017313" lon="13.136075399697907"><ele>226.0</ele><time>2026-04-06T14:47:23Z</time></trkpt><trkpt lat="46.32897392619008" lon="13.135909452866805"><ele>225.66666666666666</ele><time>2026-04-06T14:47:24Z</time></trkpt><trkpt lat="46.328813872908775" lon="13.135758948052397"><ele>225.33333333333331</ele><time>2026-04-06T14:47:25Z</time></trkpt><trkpt lat="46.328660153724634" lon="13.135614735695011"><ele>225.0</ele><time>2026-04-06T14:47:26Z</time></trkpt><trkpt lat="46.328512170955605" lon="13.135479380121604"><ele>225.0</ele><time>2026-04-06T14:47:27Z</time></trkpt><trkpt lat="46.328372445173095" lon="13.135350928492908"><ele>225.0</ele><time>2026-04-06T14:47:28Z</time></trkpt><trkpt lat="46.32824155019559" lon="13.135227904456652"><ele>225.0</ele><time>2026-04-06T14:47:29Z</time></trkpt><trkpt lat="46.3281214079865" lon="13.135116055727558"><ele>224.75</ele><time>2026-04-06T14:47:30Z</time></trkpt><trkpt lat="46.328007733738225" lon="13.135011753455712"><ele>224.5</ele><time>2026-04-06T14:47:31Z</time></trkpt><trkpt lat="46.3278942312798" lon="13.134908465703763"><ele>224.25</ele><time>2026-04-06T14:47:32Z</time></trkpt><trkpt lat="46.327785245492784" lon="13.134807487274536"><ele>224.0</ele><time>2026-04-06T14:47:33Z</time></trkpt><trkpt lat="46.327679341576996" lon="13.13470990978588"><ele>224.0</ele><time>2026-04-06T14:47:34Z</time></trkpt><trkpt lat="46.32757154594693" lon="13.134612998128013"><ele>224.0</ele><time>2026-04-06T14:47:35Z</time></trkpt><trkpt lat="46.32746150405667" lon="13.134518680466837"><ele>224.0</ele><time>2026-04-06T14:47:36Z</time></trkpt><trkpt lat="46.327349014488" lon="13.134424302911935"><ele>224.0</ele><time>2026-04-06T14:47:37Z</time></trkpt><trkpt lat="46.32722795213232" lon="13.134314889965891"><ele>224.0</ele><time>2026-04-06T14:47:38Z</time></trkpt><trkpt lat="46.32710454975077" lon="13.134172704470295"><ele>224.0</ele><time>2026-04-06T14:47:39Z</time></trkpt><trkpt lat="46.32695352027951" lon="13.134064328157523"><ele>224.0</ele><time>2026-04-06T14:47:40Z</time></trkpt><trkpt lat="46.326806649136934" lon="13.133925674927498"><ele>224.0</ele><time>2026-04-06T14:47:41Z</time></trkpt><trkpt lat="46.326658407132726" lon="13.133783414205684"><ele>224.0</ele><time>2026-04-06T14:47:42Z</time></trkpt><trkpt lat="46.32650943592147" lon="13.133639224183172"><ele>224.0</ele><time>2026-04-06T14:47:43Z</time></trkpt><trkpt lat="46.326358869617216" lon="13.1334913149494"><ele>224.33333333333334</ele><time>2026-04-06T14:47:44Z</time></trkpt><trkpt lat="46.32620851281738" lon="13.133342555695409"><ele>224.66666666666669</ele><time>2026-04-06T14:47:45Z</time></trkpt><trkpt lat="46.326056843817256" lon="13.133195381802354"><ele>225.0</ele><time>2026-04-06T14:47:46Z</time></trkpt><trkpt lat="46.32590028635532" lon="13.133046581981345"><ele>225.0</ele><time>2026-04-06T14:47:46.999Z</time></trkpt><trkpt lat="46.32573694991789" lon="13.132893587241426"><ele>225.0</ele><time>2026-04-06T14:47:47.999Z</time></trkpt><trkpt lat="46.325573842466184" lon="13.132740929387884"><ele>225.0</ele><time>2026-04-06T14:47:48.999Z</time></trkpt><trkpt lat="46.325418943859965" lon="13.132594049613965"><ele>224.33333333333331</ele><time>2026-04-06T14:47:49.999Z</time></trkpt><trkpt lat="46.325267235517835" lon="13.1324521192819"><ele>223.66666666666666</ele><time>2026-04-06T14:47:50.999Z</time></trkpt><trkpt lat="46.32511964184219" lon="13.132311445314476"><ele>223.0</ele><time>2026-04-06T14:47:51.999Z</time></trkpt><trkpt lat="46.32496993807929" lon="13.13217013074417"><ele>223.0</ele><time>2026-04-06T14:47:52.999Z</time></trkpt><trkpt lat="46.32481919517314" lon="13.132031213572585"><ele>223.0</ele><time>2026-04-06T14:47:53.999Z</time></trkpt><trkpt lat="46.324667669167546" lon="13.13189640187002"><ele>223.0</ele><time>2026-04-06T14:47:54.999Z</time></trkpt><trkpt lat="46.32451444521558" lon="13.131771317657844"><ele>223.0</ele><time>2026-04-06T14:47:55.999Z</time></trkpt><trkpt lat="46.32435415295642" lon="13.131653080261204"><ele>223.0</ele><time>2026-04-06T14:47:56.999Z</time></trkpt><trkpt lat="46.324181651452086" lon="13.131544984923723"><ele>223.0</ele><time>2026-04-06T14:47:57.999Z</time></trkpt><trkpt lat="46.323996951724816" lon="13.131451937637724"><ele>222.66666666666666</ele><time>2026-04-06T14:47:58.999Z</time></trkpt><trkpt lat="46.3237957907466" lon="13.131371780520032"><ele>222.33333333333331</ele><time>2026-04-06T14:47:59.999Z</time></trkpt><trkpt lat="46.32357913576779" lon="13.131297787416516"><ele>222.0</ele><time>2026-04-06T14:48:00.999Z</time></trkpt><trkpt lat="46.32335703920862" lon="13.13123067470913"><ele>222.0</ele><time>2026-04-06T14:48:01.999Z</time></trkpt><trkpt lat="46.32313589113511" lon="13.13116653156563"><ele>222.0</ele><time>2026-04-06T14:48:02.999Z</time></trkpt><trkpt lat="46.322908644535" lon="13.13109915813556"><ele>221.5</ele><time>2026-04-06T14:48:03.999Z</time></trkpt><trkpt lat="46.32268065692021" lon="13.131031076672246"><ele>221.0</ele><time>2026-04-06T14:48:04.999Z</time></trkpt><trkpt lat="46.3224527535871" lon="13.13096019242467"><ele>221.5</ele><time>2026-04-06T14:48:05.999Z</time></trkpt><trkpt lat="46.32222704182665" lon="13.130892745180883"><ele>222.0</ele><time>2026-04-06T14:48:06.999Z</time></trkpt><trkpt lat="46.322003786030066" lon="13.130829834171362"><ele>222.0</ele><time>2026-04-06T14:48:07.999Z</time></trkpt><trkpt lat="46.32178332082119" lon="13.130764502662199"><ele>222.0</ele><time>2026-04-06T14:48:08.999Z</time></trkpt><trkpt lat="46.32156532198913" lon="13.130701296152191"><ele>222.0</ele><time>2026-04-06T14:48:09.999Z</time></trkpt><trkpt lat="46.32135251821198" lon="13.130639546341893"><ele>221.33333333333331</ele><time>2026-04-06T14:48:10.999Z</time></trkpt><trkpt lat="46.32113843276296" lon="13.130584971152329"><ele>220.66666666666666</ele><time>2026-04-06T14:48:11.999Z</time></trkpt><trkpt lat="46.32092266119219" lon="13.130538757104265"><ele>220.0</ele><time>2026-04-06T14:48:12.999Z</time></trkpt><trkpt lat="46.32070778043086" lon="13.130500482294039"><ele>220.0</ele><time>2026-04-06T14:48:13.999Z</time></trkpt><trkpt lat="46.32049078268257" lon="13.130471070615132"><ele>220.0</ele><time>2026-04-06T14:48:14.999Z</time></trkpt><trkpt lat="46.32027078858264" lon="13.130455759444114"><ele>220.0</ele><time>2026-04-06T14:48:15.999Z</time></trkpt><trkpt lat="46.320050202900276" lon="13.13045485491294"><ele>220.0</ele><time>2026-04-06T14:48:16.999Z</time></trkpt><trkpt lat="46.31982602602498" lon="13.130458207394637"><ele>220.0</ele><time>2026-04-06T14:48:17.999Z</time></trkpt><trkpt lat="46.319601352328476" lon="13.130460825296547"><ele>220.0</ele><time>2026-04-06T14:48:18.999Z</time></trkpt><trkpt lat="46.31937722947644" lon="13.130461826824728"><ele>220.66666666666666</ele><time>2026-04-06T14:48:19.999Z</time></trkpt><trkpt lat="46.319154044812386" lon="13.130461302335819"><ele>221.33333333333331</ele><time>2026-04-06T14:48:20.999Z</time></trkpt><trkpt lat="46.318930911820914" lon="13.130454197719384"><ele>222.0</ele><time>2026-04-06T14:48:21.999Z</time></trkpt><trkpt lat="46.31871137116088" lon="13.130433778312101"><ele>222.0</ele><time>2026-04-06T14:48:22.999Z</time></trkpt><trkpt lat="46.31849193780605" lon="13.130400484089073"><ele>222.0</ele><time>2026-04-06T14:48:23.999Z</time></trkpt><trkpt lat="46.31827678124038" lon="13.130346799504922"><ele>222.0</ele><time>2026-04-06T14:48:24.999Z</time></trkpt><trkpt lat="46.31807225655551" lon="13.130268085953073"><ele>223.66666666666669</ele><time>2026-04-06T14:48:25.999Z</time></trkpt><trkpt lat="46.3178758411727" lon="13.13017411070519"><ele>225.33333333333334</ele><time>2026-04-06T14:48:26.999Z</time></trkpt><trkpt lat="46.317686768327576" lon="13.130067936318525"><ele>227.0</ele><time>2026-04-06T14:48:27.999Z</time></trkpt><trkpt lat="46.31750102526316" lon="13.129949583899318"><ele>226.66666666666669</ele><time>2026-04-06T14:48:28.999Z</time></trkpt><trkpt lat="46.31731615412373" lon="13.129828699012855"><ele>226.33333333333331</ele><time>2026-04-06T14:48:29.999Z</time></trkpt><trkpt lat="46.31713717952862" lon="13.129710178018092"><ele>226.0</ele><time>2026-04-06T14:48:30.999Z</time></trkpt><trkpt lat="46.316965516502044" lon="13.129603401186825"><ele>226.0</ele><time>2026-04-06T14:48:32Z</time></trkpt><trkpt lat="46.31679613822443" lon="13.129495590717886"><ele>226.0</ele><time>2026-04-06T14:48:33Z</time></trkpt><trkpt lat="46.31661818867951" lon="13.12938382665822"><ele>226.0</ele><time>2026-04-06T14:48:34Z</time></trkpt><trkpt lat="46.3164451775569" lon="13.129284204565009"><ele>225.33333333333331</ele><time>2026-04-06T14:48:35Z</time></trkpt><trkpt lat="46.3162820146039" lon="13.129171677724521"><ele>224.66666666666669</ele><time>2026-04-06T14:48:36Z</time></trkpt><trkpt lat="46.316109062884195" lon="13.129111769800392"><ele>224.0</ele><time>2026-04-06T14:48:37Z</time></trkpt><trkpt lat="46.315953418272485" lon="13.129038472693093"><ele>224.0</ele><time>2026-04-06T14:48:38Z</time></trkpt><trkpt lat="46.31580246723734" lon="13.128972096175085"><ele>224.0</ele><time>2026-04-06T14:48:39Z</time></trkpt><trkpt lat="46.3156507845624" lon="13.128915599983182"><ele>224.0</ele><time>2026-04-06T14:48:40Z</time></trkpt><trkpt lat="46.31549995362805" lon="13.128863330608192"><ele>224.66666666666669</ele><time>2026-04-06T14:48:41Z</time></trkpt><trkpt lat="46.31534358496642" lon="13.128819335712194"><ele>225.33333333333331</ele><time>2026-04-06T14:48:42Z</time></trkpt><trkpt lat="46.315179983486814" lon="13.12877500484993"><ele>226.0</ele><time>2026-04-06T14:48:43Z</time></trkpt><trkpt lat="46.3150064000015" lon="13.128730351253202"><ele>226.0</ele><time>2026-04-06T14:48:44Z</time></trkpt><trkpt lat="46.314826787857086" lon="13.128693137263502"><ele>226.0</ele><time>2026-04-06T14:48:45Z</time></trkpt><trkpt lat="46.314647936628646" lon="13.128663789559313"><ele>226.0</ele><time>2026-04-06T14:48:46Z</time></trkpt><trkpt lat="46.31446536483265" lon="13.128642212616107"><ele>226.66666666666666</ele><time>2026-04-06T14:48:47Z</time></trkpt><trkpt lat="46.314280952650165" lon="13.128630138972445"><ele>227.33333333333331</ele><time>2026-04-06T14:48:48Z</time></trkpt><trkpt lat="46.3140934455799" lon="13.128622041296751"><ele>228.0</ele><time>2026-04-06T14:48:49Z</time></trkpt><trkpt lat="46.313899059758576" lon="13.128613111167077"><ele>226.66666666666669</ele><time>2026-04-06T14:48:50Z</time></trkpt><trkpt lat="46.31370400163279" lon="13.128608685317532"><ele>225.33333333333334</ele><time>2026-04-06T14:48:51Z</time></trkpt><trkpt lat="46.31351244246168" lon="13.128605056018182"><ele>224.0</ele><time>2026-04-06T14:48:52Z</time></trkpt><trkpt lat="46.3133255485351" lon="13.128595531583551"><ele>224.0</ele><time>2026-04-06T14:48:53Z</time></trkpt><trkpt lat="46.313140359561494" lon="13.128588074755214"><ele>224.0</ele><time>2026-04-06T14:48:54Z</time></trkpt><trkpt lat="46.31294936374984" lon="13.128583451751249"><ele>224.0</ele><time>2026-04-06T14:48:55Z</time></trkpt><trkpt lat="46.3127606449306" lon="13.128578575453403"><ele>224.0</ele><time>2026-04-06T14:48:56Z</time></trkpt><trkpt lat="46.31257581019755" lon="13.128570844591028"><ele>224.0</ele><time>2026-04-06T14:48:57Z</time></trkpt><trkpt lat="46.31239623676886" lon="13.128565058840383"><ele>224.0</ele><time>2026-04-06T14:48:58Z</time></trkpt><trkpt lat="46.312215212060906" lon="13.12856090216877"><ele>224.0</ele><time>2026-04-06T14:48:59Z</time></trkpt><trkpt lat="46.31202928079155" lon="13.128556062723087"><ele>224.0</ele><time>2026-04-06T14:49:00Z</time></trkpt><trkpt lat="46.311843841716296" lon="13.12855083683464"><ele>224.0</ele><time>2026-04-06T14:49:01Z</time></trkpt><trkpt lat="46.311659739283535" lon="13.12854445401986"><ele>224.0</ele><time>2026-04-06T14:49:02Z</time></trkpt><trkpt lat="46.31147826415772" lon="13.128538686900763"><ele>224.0</ele><time>2026-04-06T14:49:03Z</time></trkpt><trkpt lat="46.31130366778909" lon="13.128533396008152"><ele>224.0</ele><time>2026-04-06T14:49:04Z</time></trkpt><trkpt lat="46.311131222893245" lon="13.128526205769225"><ele>223.33333333333334</ele><time>2026-04-06T14:49:05Z</time></trkpt><trkpt lat="46.310960592169984" lon="13.128517959318557"><ele>222.66666666666669</ele><time>2026-04-06T14:49:06Z</time></trkpt><trkpt lat="46.31078469486149" lon="13.128512233954218"><ele>222.0</ele><time>2026-04-06T14:49:07Z</time></trkpt><trkpt lat="46.31060248856722" lon="13.128510643351037"><ele>221.33333333333331</ele><time>2026-04-06T14:49:08Z</time></trkpt><trkpt lat="46.3104169381002" lon="13.128507078201249"><ele>220.66666666666666</ele><time>2026-04-06T14:49:09Z</time></trkpt><trkpt lat="46.31023118554459" lon="13.128502311113078"><ele>220.0</ele><time>2026-04-06T14:49:10Z</time></trkpt><trkpt lat="46.310046918878434" lon="13.128497532880251"><ele>220.0</ele><time>2026-04-06T14:49:11Z</time></trkpt><trkpt lat="46.3098648584395" lon="13.128491362728461"><ele>220.0</ele><time>2026-04-06T14:49:12Z</time></trkpt><trkpt lat="46.30968596551384" lon="13.128484830991969"><ele>220.0</ele><time>2026-04-06T14:49:13Z</time></trkpt><trkpt lat="46.30950890236961" lon="13.128479616380638"><ele>222.0</ele><time>2026-04-06T14:49:14Z</time></trkpt><trkpt lat="46.3093343884346" lon="13.12847595304082"><ele>224.0</ele><time>2026-04-06T14:49:15Z</time></trkpt><trkpt lat="46.30915932339563" lon="13.128464503636323"><ele>226.0</ele><time>2026-04-06T14:49:16Z</time></trkpt><trkpt lat="46.30898045739802" lon="13.128437091372142"><ele>225.0</ele><time>2026-04-06T14:49:17Z</time></trkpt><trkpt lat="46.30880093770263" lon="13.128385048037481"><ele>224.0</ele><time>2026-04-06T14:49:18Z</time></trkpt><trkpt lat="46.30862188767302" lon="13.128314337983975"><ele>223.0</ele><time>2026-04-06T14:49:19Z</time></trkpt><trkpt lat="46.30845148706379" lon="13.128220322453057"><ele>223.0</ele><time>2026-04-06T14:49:20Z</time></trkpt><trkpt lat="46.308283379525136" lon="13.128115948134715"><ele>223.0</ele><time>2026-04-06T14:49:21Z</time></trkpt><trkpt lat="46.308114418413076" lon="13.127997522339557"><ele>223.0</ele><time>2026-04-06T14:49:22Z</time></trkpt><trkpt lat="46.30795042668068" lon="13.127859209109744"><ele>224.0</ele><time>2026-04-06T14:49:23Z</time></trkpt><trkpt lat="46.30778717940071" lon="13.12770496028931"><ele>225.0</ele><time>2026-04-06T14:49:24Z</time></trkpt><trkpt lat="46.30763678756861" lon="13.127532873813896"><ele>226.0</ele><time>2026-04-06T14:49:25Z</time></trkpt><trkpt lat="46.30749599343285" lon="13.127346039225513"><ele>226.0</ele><time>2026-04-06T14:49:26Z</time></trkpt><trkpt lat="46.307367907572015" lon="13.127149093273225"><ele>226.0</ele><time>2026-04-06T14:49:27Z</time></trkpt><trkpt lat="46.307251780754406" lon="13.126947879081824"><ele>226.0</ele><time>2026-04-06T14:49:28Z</time></trkpt><trkpt lat="46.307146440490754" lon="13.126752980946783"><ele>229.33333333333331</ele><time>2026-04-06T14:49:29Z</time></trkpt><trkpt lat="46.30704579240188" lon="13.12656735218313"><ele>232.66666666666669</ele><time>2026-04-06T14:49:30Z</time></trkpt><trkpt lat="46.30694257130717" lon="13.12637841987488"><ele>236.0</ele><time>2026-04-06T14:49:31Z</time></trkpt><trkpt lat="46.3068462393284" lon="13.12619927426716"><ele>236.0</ele><time>2026-04-06T14:49:32Z</time></trkpt><trkpt lat="46.30675423363495" lon="13.126022605101825"><ele>236.0</ele><time>2026-04-06T14:49:33Z</time></trkpt><trkpt lat="46.306667369265185" lon="13.125858197154084"><ele>236.0</ele><time>2026-04-06T14:49:34Z</time></trkpt><trkpt lat="46.306583734135316" lon="13.125702173157725"><ele>236.0</ele><time>2026-04-06T14:49:35Z</time></trkpt><trkpt lat="46.30650507246951" lon="13.125551321573713"><ele>238.75</ele><time>2026-04-06T14:49:36Z</time></trkpt><trkpt lat="46.30642664196093" lon="13.1254006629044"><ele>241.5</ele><time>2026-04-06T14:49:37Z</time></trkpt><trkpt lat="46.306347587943925" lon="13.125247488756816"><ele>244.25</ele><time>2026-04-06T14:49:38Z</time></trkpt><trkpt lat="46.3062694460902" lon="13.1250943441654"><ele>247.0</ele><time>2026-04-06T14:49:39Z</time></trkpt><trkpt lat="46.306189654786316" lon="13.124937802129956"><ele>242.5</ele><time>2026-04-06T14:49:40Z</time></trkpt><trkpt lat="46.30610626024644" lon="13.124777958279749"><ele>238.0</ele><time>2026-04-06T14:49:41Z</time></trkpt><trkpt lat="46.30602193673698" lon="13.124612703770199"><ele>233.5</ele><time>2026-04-06T14:49:42Z</time></trkpt><trkpt lat="46.30593655948106" lon="13.124444141160271"><ele>229.0</ele><time>2026-04-06T14:49:43Z</time></trkpt><trkpt lat="46.30586880619814" lon="13.124243853897493"><ele>232.33333333333331</ele><time>2026-04-06T14:49:44Z</time></trkpt><trkpt lat="46.30577359609881" lon="13.124054381504209"><ele>235.66666666666669</ele><time>2026-04-06T14:49:45Z</time></trkpt><trkpt lat="46.30567277660358" lon="13.12385217429083"><ele>239.0</ele><time>2026-04-06T14:49:46Z</time></trkpt><trkpt lat="46.305557652515745" lon="13.123661459498642"><ele>239.0</ele><time>2026-04-06T14:49:47Z</time></trkpt><trkpt lat="46.305456093546255" lon="13.123461638557572"><ele>239.0</ele><time>2026-04-06T14:49:48Z</time></trkpt><trkpt lat="46.305351476144295" lon="13.12326514069324"><ele>239.0</ele><time>2026-04-06T14:49:49Z</time></trkpt><trkpt lat="46.30524125293557" lon="13.123074717247885"><ele>232.66666666666669</ele><time>2026-04-06T14:49:50Z</time></trkpt><trkpt lat="46.305126547186376" lon="13.12289609841532"><ele>226.33333333333331</ele><time>2026-04-06T14:49:51Z</time></trkpt><trkpt lat="46.30500669092328" lon="13.122733217103677"><ele>220.0</ele><time>2026-04-06T14:49:52Z</time></trkpt><trkpt lat="46.30488287057376" lon="13.122577971631056"><ele>220.0</ele><time>2026-04-06T14:49:53Z</time></trkpt><trkpt lat="46.30475917101443" lon="13.122429923224635"><ele>220.0</ele><time>2026-04-06T14:49:53.999Z</time></trkpt><trkpt lat="46.30463180410406" lon="13.122289299140588"><ele>220.0</ele><time>2026-04-06T14:49:54.999Z</time></trkpt><trkpt lat="46.30450079764415" lon="13.12215374288946"><ele>218.33333333333331</ele><time>2026-04-06T14:49:55.999Z</time></trkpt><trkpt lat="46.30436782037548" lon="13.122021563623365"><ele>216.66666666666669</ele><time>2026-04-06T14:49:56.999Z</time></trkpt><trkpt lat="46.30423927301659" lon="13.12188882192342"><ele>215.0</ele><time>2026-04-06T14:49:57.999Z</time></trkpt><trkpt lat="46.304111390710545" lon="13.12175444177218"><ele>215.0</ele><time>2026-04-06T14:49:58.999Z</time></trkpt><trkpt lat="46.3039845604345" lon="13.121623484893425"><ele>215.0</ele><time>2026-04-06T14:49:59.999Z</time></trkpt><trkpt lat="46.30385850285601" lon="13.121488258315456"><ele>215.0</ele><time>2026-04-06T14:50:00.999Z</time></trkpt><trkpt lat="46.30373355394066" lon="13.121350684513047"><ele>214.66666666666669</ele><time>2026-04-06T14:50:01.999Z</time></trkpt><trkpt lat="46.30360733365878" lon="13.121216776777059"><ele>214.33333333333331</ele><time>2026-04-06T14:50:02.999Z</time></trkpt><trkpt lat="46.30347856504537" lon="13.121083801483499"><ele>214.0</ele><time>2026-04-06T14:50:03.999Z</time></trkpt><trkpt lat="46.30335000706663" lon="13.120951762676768"><ele>214.0</ele><time>2026-04-06T14:50:04.999Z</time></trkpt><trkpt lat="46.30322167827713" lon="13.120818723557596"><ele>214.0</ele><time>2026-04-06T14:50:05.999Z</time></trkpt><trkpt lat="46.30309768519851" lon="13.120686656982642"><ele>214.0</ele><time>2026-04-06T14:50:06.999Z</time></trkpt><trkpt lat="46.30297652832565" lon="13.120557655900146"><ele>214.0</ele><time>2026-04-06T14:50:07.999Z</time></trkpt><trkpt lat="46.30285518855508" lon="13.120435650880788"><ele>214.0</ele><time>2026-04-06T14:50:08.999Z</time></trkpt><trkpt lat="46.30273151176121" lon="13.120320534316072"><ele>214.0</ele><time>2026-04-06T14:50:09.999Z</time></trkpt><trkpt lat="46.302606467693096" lon="13.120209043359528"><ele>214.0</ele><time>2026-04-06T14:50:10.999Z</time></trkpt><trkpt lat="46.3024812663121" lon="13.120100313825251"><ele>214.0</ele><time>2026-04-06T14:50:11.999Z</time></trkpt><trkpt lat="46.30235213151255" lon="13.119995351882705"><ele>214.0</ele><time>2026-04-06T14:50:12.999Z</time></trkpt><trkpt lat="46.30222205956809" lon="13.119890534763087"><ele>214.0</ele><time>2026-04-06T14:50:13.999Z</time></trkpt><trkpt lat="46.30208946953754" lon="13.119785942417499"><ele>214.0</ele><time>2026-04-06T14:50:14.999Z</time></trkpt><trkpt lat="46.30195070861042" lon="13.119677955049605"><ele>212.66666666666666</ele><time>2026-04-06T14:50:15.999Z</time></trkpt><trkpt lat="46.30181062661248" lon="13.119567020102158"><ele>211.33333333333331</ele><time>2026-04-06T14:50:16.999Z</time></trkpt><trkpt lat="46.301673051646226" lon="13.11945622679177"><ele>210.0</ele><time>2026-04-06T14:50:17.999Z</time></trkpt><trkpt lat="46.301543107938386" lon="13.119355314925992"><ele>210.0</ele><time>2026-04-06T14:50:18.999Z</time></trkpt><trkpt lat="46.30141764230735" lon="13.119257786762738"><ele>210.0</ele><time>2026-04-06T14:50:19.999Z</time></trkpt><trkpt lat="46.30128852268085" lon="13.119157397995505"><ele>210.0</ele><time>2026-04-06T14:50:20.999Z</time></trkpt><trkpt lat="46.301160688840625" lon="13.119054403896294"><ele>210.0</ele><time>2026-04-06T14:50:21.999Z</time></trkpt><trkpt lat="46.301026899774484" lon="13.118949657323737"><ele>210.33333333333331</ele><time>2026-04-06T14:50:22.999Z</time></trkpt><trkpt lat="46.30089016499346" lon="13.11884328184943"><ele>210.66666666666666</ele><time>2026-04-06T14:50:23.999Z</time></trkpt><trkpt lat="46.30075334270336" lon="13.118735188187607"><ele>211.0</ele><time>2026-04-06T14:50:24.999Z</time></trkpt><trkpt lat="46.30061925864956" lon="13.118626660906372"><ele>210.5</ele><time>2026-04-06T14:50:25.999Z</time></trkpt><trkpt lat="46.30048740418929" lon="13.118525152730518"><ele>210.0</ele><time>2026-04-06T14:50:26.999Z</time></trkpt><trkpt lat="46.30036060391092" lon="13.118427136602893"><ele>209.5</ele><time>2026-04-06T14:50:27.999Z</time></trkpt><trkpt lat="46.30023758614506" lon="13.118330715160331"><ele>209.0</ele><time>2026-04-06T14:50:28.999Z</time></trkpt><trkpt lat="46.300118465296876" lon="13.11823552216226"><ele>209.0</ele><time>2026-04-06T14:50:29.999Z</time></trkpt><trkpt lat="46.29999779855335" lon="13.118139851882152"><ele>209.0</ele><time>2026-04-06T14:50:30.999Z</time></trkpt><trkpt lat="46.29987456990218" lon="13.118043306301104"><ele>209.0</ele><time>2026-04-06T14:50:31.999Z</time></trkpt><trkpt lat="46.29975087598448" lon="13.117945047433262"><ele>209.0</ele><time>2026-04-06T14:50:32.999Z</time></trkpt><trkpt lat="46.299628493898375" lon="13.117845825965263"><ele>209.0</ele><time>2026-04-06T14:50:33.999Z</time></trkpt><trkpt lat="46.29950860467827" lon="13.117746695006659"><ele>209.0</ele><time>2026-04-06T14:50:34.999Z</time></trkpt><trkpt lat="46.29938730237665" lon="13.117650711189137"><ele>209.0</ele><time>2026-04-06T14:50:35.999Z</time></trkpt><trkpt lat="46.29926433774737" lon="13.117552690339807"><ele>209.0</ele><time>2026-04-06T14:50:36.999Z</time></trkpt><trkpt lat="46.299137729646745" lon="13.117451954934289"><ele>208.66666666666669</ele><time>2026-04-06T14:50:38Z</time></trkpt><trkpt lat="46.299007471396024" lon="13.117351405073256"><ele>208.33333333333331</ele><time>2026-04-06T14:50:39Z</time></trkpt><trkpt lat="46.298877313792985" lon="13.11724627476738"><ele>208.0</ele><time>2026-04-06T14:50:40Z</time></trkpt><trkpt lat="46.29873923278518" lon="13.11713889472305"><ele>207.66666666666666</ele><time>2026-04-06T14:50:41Z</time></trkpt><trkpt lat="46.2985992846243" lon="13.117027318371905"><ele>207.33333333333331</ele><time>2026-04-06T14:50:42Z</time></trkpt><trkpt lat="46.29845895557564" lon="13.1169152062887"><ele>207.0</ele><time>2026-04-06T14:50:43Z</time></trkpt><trkpt lat="46.298316700905396" lon="13.116804277912129"><ele>207.0</ele><time>2026-04-06T14:50:44Z</time></trkpt><trkpt lat="46.29817416990183" lon="13.116690081452479"><ele>207.0</ele><time>2026-04-06T14:50:45Z</time></trkpt><trkpt lat="46.298031964815664" lon="13.116579049379187"><ele>207.0</ele><time>2026-04-06T14:50:46Z</time></trkpt><trkpt lat="46.29789191280905" lon="13.116467319803329"><ele>208.0</ele><time>2026-04-06T14:50:47Z</time></trkpt><trkpt lat="46.29775021431228" lon="13.116355933550702"><ele>209.0</ele><time>2026-04-06T14:50:48Z</time></trkpt><trkpt lat="46.29760812597921" lon="13.116246355078939"><ele>210.0</ele><time>2026-04-06T14:50:49Z</time></trkpt><trkpt lat="46.29746417727988" lon="13.116134821510684"><ele>210.0</ele><time>2026-04-06T14:50:50Z</time></trkpt><trkpt lat="46.29731890749993" lon="13.116019552684191"><ele>210.0</ele><time>2026-04-06T14:50:51Z</time></trkpt><trkpt lat="46.297173111882344" lon="13.11590195026659"><ele>210.0</ele><time>2026-04-06T14:50:52Z</time></trkpt><trkpt lat="46.29702634511623" lon="13.11578829071701"><ele>208.66666666666669</ele><time>2026-04-06T14:50:53Z</time></trkpt><trkpt lat="46.296880172448304" lon="13.115680834899186"><ele>207.33333333333334</ele><time>2026-04-06T14:50:54Z</time></trkpt><trkpt lat="46.29673330725211" lon="13.115583359238828"><ele>206.0</ele><time>2026-04-06T14:50:55Z</time></trkpt><trkpt lat="46.29658650454298" lon="13.11550270259476"><ele>206.0</ele><time>2026-04-06T14:50:56Z</time></trkpt><trkpt lat="46.29643803263468" lon="13.11543441282983"><ele>206.0</ele><time>2026-04-06T14:50:57Z</time></trkpt><trkpt lat="46.296284682212324" lon="13.115378890006106"><ele>206.0</ele><time>2026-04-06T14:50:58Z</time></trkpt><trkpt lat="46.296130352071586" lon="13.115334064071543"><ele>205.33333333333334</ele><time>2026-04-06T14:50:59Z</time></trkpt><trkpt lat="46.29597408216193" lon="13.115301439743124"><ele>204.66666666666669</ele><time>2026-04-06T14:51:00Z</time></trkpt><trkpt lat="46.29581362633248" lon="13.115280794730419"><ele>204.0</ele><time>2026-04-06T14:51:01Z</time></trkpt><trkpt lat="46.295650141945245" lon="13.115271524319336"><ele>204.33333333333331</ele><time>2026-04-06T14:51:02Z</time></trkpt><trkpt lat="46.29548418732767" lon="13.115270872987537"><ele>204.66666666666666</ele><time>2026-04-06T14:51:03Z</time></trkpt><trkpt lat="46.29531533253153" lon="13.115274151748295"><ele>205.0</ele><time>2026-04-06T14:51:04Z</time></trkpt><trkpt lat="46.295144932251254" lon="13.115279488245378"><ele>205.0</ele><time>2026-04-06T14:51:05Z</time></trkpt><trkpt lat="46.29497061778909" lon="13.115285308153512"><ele>205.0</ele><time>2026-04-06T14:51:06Z</time></trkpt><trkpt lat="46.294791803152066" lon="13.11529051547155"><ele>205.0</ele><time>2026-04-06T14:51:07Z</time></trkpt><trkpt lat="46.29460761647043" lon="13.115293755457248"><ele>204.33333333333331</ele><time>2026-04-06T14:51:08Z</time></trkpt><trkpt lat="46.29442375597148" lon="13.115295224112893"><ele>203.66666666666669</ele><time>2026-04-06T14:51:09Z</time></trkpt><trkpt lat="46.29423718642269" lon="13.115300185708495"><ele>203.0</ele><time>2026-04-06T14:51:10Z</time></trkpt><trkpt lat="46.294051582293314" lon="13.115304482963248"><ele>203.33333333333334</ele><time>2026-04-06T14:51:11Z</time></trkpt><trkpt lat="46.29386720941618" lon="13.115304260865486"><ele>203.66666666666669</ele><time>2026-04-06T14:51:12Z</time></trkpt><trkpt lat="46.29368755262036" lon="13.115297937238385"><ele>204.0</ele><time>2026-04-06T14:51:13Z</time></trkpt><trkpt lat="46.29351124997523" lon="13.115278757712284"><ele>204.0</ele><time>2026-04-06T14:51:14Z</time></trkpt><trkpt lat="46.29333954137773" lon="13.115249824983291"><ele>204.0</ele><time>2026-04-06T14:51:15Z</time></trkpt><trkpt lat="46.29316984146914" lon="13.115221670395817"><ele>204.0</ele><time>2026-04-06T14:51:16Z</time></trkpt><trkpt lat="46.29300553961873" lon="13.115188102316592"><ele>204.0</ele><time>2026-04-06T14:51:17Z</time></trkpt><trkpt lat="46.292846272520144" lon="13.115152634798795"><ele>204.0</ele><time>2026-04-06T14:51:18Z</time></trkpt><trkpt lat="46.292695830911484" lon="13.11511791329855"><ele>204.0</ele><time>2026-04-06T14:51:19Z</time></trkpt><trkpt lat="46.292549828491495" lon="13.115078337501961"><ele>204.0</ele><time>2026-04-06T14:51:20Z</time></trkpt><trkpt lat="46.29240581329402" lon="13.115045959786361"><ele>204.0</ele><time>2026-04-06T14:51:21Z</time></trkpt><trkpt lat="46.292264450423815" lon="13.115011304332674"><ele>204.0</ele><time>2026-04-06T14:51:22Z</time></trkpt><trkpt lat="46.29212145669304" lon="13.114979096931275"><ele>204.0</ele><time>2026-04-06T14:51:23Z</time></trkpt><trkpt lat="46.2919707810749" lon="13.114943240871614"><ele>203.66666666666669</ele><time>2026-04-06T14:51:24Z</time></trkpt><trkpt lat="46.291815905394714" lon="13.114905633813345"><ele>203.33333333333334</ele><time>2026-04-06T14:51:25Z</time></trkpt><trkpt lat="46.2916564200329" lon="13.11486558606075"><ele>203.0</ele><time>2026-04-06T14:51:26Z</time></trkpt><trkpt lat="46.291495417469136" lon="13.114824513852241"><ele>202.33333333333334</ele><time>2026-04-06T14:51:27Z</time></trkpt><trkpt lat="46.29132801292858" lon="13.114788243718348"><ele>201.66666666666669</ele><time>2026-04-06T14:51:28Z</time></trkpt><trkpt lat="46.29115379310592" lon="13.114747725961214"><ele>201.0</ele><time>2026-04-06T14:51:29Z</time></trkpt><trkpt lat="46.29097059191568" lon="13.114705613657636"><ele>201.0</ele><time>2026-04-06T14:51:30Z</time></trkpt><trkpt lat="46.290785206300654" lon="13.114656718847515"><ele>201.0</ele><time>2026-04-06T14:51:31Z</time></trkpt><trkpt lat="46.29060265250198" lon="13.114607651793428"><ele>201.0</ele><time>2026-04-06T14:51:32Z</time></trkpt><trkpt lat="46.29042125690933" lon="13.114548466000667"><ele>201.66666666666669</ele><time>2026-04-06T14:51:33Z</time></trkpt><trkpt lat="46.290248771640385" lon="13.114477415781986"><ele>202.33333333333334</ele><time>2026-04-06T14:51:34Z</time></trkpt><trkpt lat="46.290081391083994" lon="13.114386906588948"><ele>203.0</ele><time>2026-04-06T14:51:35Z</time></trkpt><trkpt lat="46.289916133267454" lon="13.114284821068381"><ele>202.0</ele><time>2026-04-06T14:51:36Z</time></trkpt><trkpt lat="46.28975152573406" lon="13.114176553816218"><ele>201.0</ele><time>2026-04-06T14:51:37Z</time></trkpt><trkpt lat="46.28960137633289" lon="13.114067072506877"><ele>200.0</ele><time>2026-04-06T14:51:38Z</time></trkpt><trkpt lat="46.28945972641732" lon="13.113966057407358"><ele>200.0</ele><time>2026-04-06T14:51:39Z</time></trkpt><trkpt lat="46.28932319501757" lon="13.113871330380613"><ele>200.0</ele><time>2026-04-06T14:51:40Z</time></trkpt><trkpt lat="46.28919785575431" lon="13.11378648720207"><ele>200.0</ele><time>2026-04-06T14:51:41Z</time></trkpt><trkpt lat="46.289084075226214" lon="13.113708936227727"><ele>200.0</ele><time>2026-04-06T14:51:42Z</time></trkpt><trkpt lat="46.28897748853445" lon="13.113630984242759"><ele>200.4</ele><time>2026-04-06T14:51:43Z</time></trkpt><trkpt lat="46.28887832050415" lon="13.113557586836249"><ele>200.8</ele><time>2026-04-06T14:51:44Z</time></trkpt><trkpt lat="46.28878335483396" lon="13.11349171389542"><ele>201.2</ele><time>2026-04-06T14:51:45Z</time></trkpt><trkpt lat="46.28869532227859" lon="13.113424446978627"><ele>201.6</ele><time>2026-04-06T14:51:46Z</time></trkpt><trkpt lat="46.288583602965524" lon="13.113344276962632"><ele>202.0</ele><time>2026-04-06T14:51:47Z</time></trkpt><trkpt lat="46.28846581644825" lon="13.113258637418856"><ele>201.75</ele><time>2026-04-06T14:51:48Z</time></trkpt><trkpt lat="46.28834867366696" lon="13.113173841839567"><ele>201.5</ele><time>2026-04-06T14:51:49Z</time></trkpt><trkpt lat="46.288231611973025" lon="13.11308566364657"><ele>201.25</ele><time>2026-04-06T14:51:50Z</time></trkpt><trkpt lat="46.28811562836533" lon="13.113004643288836"><ele>201.0</ele><time>2026-04-06T14:51:51Z</time></trkpt><trkpt lat="46.288000593951715" lon="13.112926045290958"><ele>201.0</ele><time>2026-04-06T14:51:52Z</time></trkpt><trkpt lat="46.28788966668193" lon="13.112842373601865"><ele>201.0</ele><time>2026-04-06T14:51:53Z</time></trkpt><trkpt lat="46.287780194351306" lon="13.112763473754551"><ele>201.0</ele><time>2026-04-06T14:51:54Z</time></trkpt><trkpt lat="46.28768128663345" lon="13.112668369967533"><ele>201.0</ele><time>2026-04-06T14:51:55Z</time></trkpt><trkpt lat="46.28757019972096" lon="13.112613972993481"><ele>201.0</ele><time>2026-04-06T14:51:55.999Z</time></trkpt><trkpt lat="46.28747016970498" lon="13.112535188726243"><ele>201.0</ele><time>2026-04-06T14:51:56.999Z</time></trkpt><trkpt lat="46.28736595410137" lon="13.112460736575057"><ele>201.0</ele><time>2026-04-06T14:51:57.999Z</time></trkpt><trkpt lat="46.2872643100793" lon="13.112384786545878"><ele>201.0</ele><time>2026-04-06T14:51:58.999Z</time></trkpt><trkpt lat="46.2871585309962" lon="13.11230494943012"><ele>200.75</ele><time>2026-04-06T14:51:59.999Z</time></trkpt><trkpt lat="46.287049516884004" lon="13.112226197061444"><ele>200.5</ele><time>2026-04-06T14:52:00.999Z</time></trkpt><trkpt lat="46.28693941746312" lon="13.112143447632617"><ele>200.25</ele><time>2026-04-06T14:52:01.999Z</time></trkpt><trkpt lat="46.286831878475965" lon="13.11206552520886"><ele>200.0</ele><time>2026-04-06T14:52:02.999Z</time></trkpt><trkpt lat="46.28672980382117" lon="13.111989423809403"><ele>200.0</ele><time>2026-04-06T14:52:03.999Z</time></trkpt><trkpt lat="46.28662685212428" lon="13.111909430756214"><ele>200.0</ele><time>2026-04-06T14:52:04.999Z</time></trkpt><trkpt lat="46.28652205642293" lon="13.111829435208879"><ele>200.0</ele><time>2026-04-06T14:52:05.999Z</time></trkpt><trkpt lat="46.28641492398815" lon="13.111748991386781"><ele>200.0</ele><time>2026-04-06T14:52:06.999Z</time></trkpt><trkpt lat="46.28631535713364" lon="13.111673224945422"><ele>200.0</ele><time>2026-04-06T14:52:07.999Z</time></trkpt><trkpt lat="46.2862142700521" lon="13.111597422076407"><ele>200.0</ele><time>2026-04-06T14:52:08.999Z</time></trkpt><trkpt lat="46.28610591943251" lon="13.111516340697785"><ele>200.0</ele><time>2026-04-06T14:52:09.999Z</time></trkpt><trkpt lat="46.285989399955405" lon="13.111428371000942"><ele>200.0</ele><time>2026-04-06T14:52:10.999Z</time></trkpt><trkpt lat="46.28587416514188" lon="13.111341870551115"><ele>200.0</ele><time>2026-04-06T14:52:11.999Z</time></trkpt><trkpt lat="46.28576066377992" lon="13.111261735458271"><ele>200.0</ele><time>2026-04-06T14:52:12.999Z</time></trkpt><trkpt lat="46.28565093459782" lon="13.11118561201527"><ele>200.0</ele><time>2026-04-06T14:52:13.999Z</time></trkpt><trkpt lat="46.285553013424185" lon="13.11111365675687"><ele>200.0</ele><time>2026-04-06T14:52:14.999Z</time></trkpt><trkpt lat="46.28545788190257" lon="13.11104098034243"><ele>199.4</ele><time>2026-04-06T14:52:15.999Z</time></trkpt><trkpt lat="46.2853663304177" lon="13.1109696808011"><ele>198.8</ele><time>2026-04-06T14:52:16.999Z</time></trkpt><trkpt lat="46.285282119084826" lon="13.110908897910036"><ele>198.2</ele><time>2026-04-06T14:52:17.999Z</time></trkpt><trkpt lat="46.2852003362272" lon="13.110852902932892"><ele>197.6</ele><time>2026-04-06T14:52:18.999Z</time></trkpt><trkpt lat="46.285112427632015" lon="13.110788313358796"><ele>197.0</ele><time>2026-04-06T14:52:19.999Z</time></trkpt><trkpt lat="46.28501810690755" lon="13.110722699237828"><ele>197.0</ele><time>2026-04-06T14:52:20.999Z</time></trkpt><trkpt lat="46.28491873653614" lon="13.110651584220763"><ele>197.0</ele><time>2026-04-06T14:52:21.999Z</time></trkpt><trkpt lat="46.28480377710186" lon="13.110570526267363"><ele>197.0</ele><time>2026-04-06T14:52:22.999Z</time></trkpt><trkpt lat="46.28467755346097" lon="13.11047647273581"><ele>197.0</ele><time>2026-04-06T14:52:23.999Z</time></trkpt><trkpt lat="46.284545172014646" lon="13.110382975612808"><ele>197.5</ele><time>2026-04-06T14:52:24.999Z</time></trkpt><trkpt lat="46.28441766982124" lon="13.110293813393186"><ele>198.0</ele><time>2026-04-06T14:52:25.999Z</time></trkpt><trkpt lat="46.284292603171174" lon="13.110209958706202"><ele>198.5</ele><time>2026-04-06T14:52:26.999Z</time></trkpt><trkpt lat="46.284174469646715" lon="13.110138706494228"><ele>199.0</ele><time>2026-04-06T14:52:27.999Z</time></trkpt><trkpt lat="46.28406635827189" lon="13.110055895779162"><ele>199.0</ele><time>2026-04-06T14:52:28.999Z</time></trkpt><trkpt lat="46.283950641533" lon="13.110033641936457"><ele>199.0</ele><time>2026-04-06T14:52:29.999Z</time></trkpt><trkpt lat="46.28384235971118" lon="13.109997186510483"><ele>199.0</ele><time>2026-04-06T14:52:30.999Z</time></trkpt><trkpt lat="46.28373623278469" lon="13.109968673127776"><ele>199.0</ele><time>2026-04-06T14:52:31.999Z</time></trkpt><trkpt lat="46.28363236490008" lon="13.109941985587582"><ele>199.0</ele><time>2026-04-06T14:52:32.999Z</time></trkpt><trkpt lat="46.28353570487005" lon="13.109921699063067"><ele>198.79999999999998</ele><time>2026-04-06T14:52:33.999Z</time></trkpt><trkpt lat="46.28345398033675" lon="13.109906618381583"><ele>198.6</ele><time>2026-04-06T14:52:34.999Z</time></trkpt><trkpt lat="46.283377603713426" lon="13.109893139825791"><ele>198.4</ele><time>2026-04-06T14:52:35.999Z</time></trkpt><trkpt lat="46.28325935029365" lon="13.109870938753536"><ele>198.2</ele><time>2026-04-06T14:52:37.999Z</time></trkpt><trkpt lat="46.28316924443871" lon="13.109855508821916"><ele>198.0</ele><time>2026-04-06T14:52:39.999Z</time></trkpt><trkpt lat="46.28308298866048" lon="13.10984079971086"><ele>197.83333333333334</ele><time>2026-04-06T14:52:41.999Z</time></trkpt><trkpt lat="46.28300427484388" lon="13.109824705921607"><ele>197.66666666666669</ele><time>2026-04-06T14:52:44Z</time></trkpt><trkpt lat="46.282932348614445" lon="13.109808027245885"><ele>197.5</ele><time>2026-04-06T14:52:47Z</time></trkpt><trkpt lat="46.282867247025806" lon="13.10979308800068"><ele>197.33333333333334</ele><time>2026-04-06T14:53:00Z</time></trkpt><trkpt lat="46.28279110107774" lon="13.109777607617959"><ele>197.16666666666669</ele><time>2026-04-06T14:53:04Z</time></trkpt><trkpt lat="46.282701128346744" lon="13.109746693615364"><ele>197.0</ele><time>2026-04-06T14:53:31Z</time></trkpt><trkpt lat="46.28263791686426" lon="13.109737342955771"><ele>197.0</ele><time>2026-04-06T14:53:32Z</time></trkpt><trkpt lat="46.28257255161191" lon="13.109728773062374"><ele>197.0</ele><time>2026-04-06T14:53:33Z</time></trkpt><trkpt lat="46.28250610626482" lon="13.109718655117014"><ele>197.0</ele><time>2026-04-06T14:53:34Z</time></trkpt><trkpt lat="46.282438045410814" lon="13.109707428966757"><ele>197.0</ele><time>2026-04-06T14:53:35Z</time></trkpt><trkpt lat="46.28237279775221" lon="13.109696317033041"><ele>197.0</ele><time>2026-04-06T14:53:36Z</time></trkpt><trkpt lat="46.28230406077478" lon="13.10968289557877"><ele>197.0</ele><time>2026-04-06T14:53:37Z</time></trkpt><trkpt lat="46.28223384727287" lon="13.109668420707791"><ele>197.0</ele><time>2026-04-06T14:53:38Z</time></trkpt><trkpt lat="46.28215259201795" lon="13.109653891724879"><ele>197.0</ele><time>2026-04-06T14:53:39Z</time></trkpt><trkpt lat="46.2820663004234" lon="13.109637797561192"><ele>197.0</ele><time>2026-04-06T14:53:40Z</time></trkpt><trkpt lat="46.281973668096164" lon="13.109619492954272"><ele>197.0</ele><time>2026-04-06T14:53:41Z</time></trkpt><trkpt lat="46.28185998069353" lon="13.109597398883079"><ele>197.0</ele><time>2026-04-06T14:53:42Z</time></trkpt><trkpt lat="46.281747765345045" lon="13.109573823166814"><ele>197.0</ele><time>2026-04-06T14:53:43Z</time></trkpt><trkpt lat="46.281636969439745" lon="13.109552112465582"><ele>197.0</ele><time>2026-04-06T14:53:44Z</time></trkpt><trkpt lat="46.28152079379711" lon="13.109532453932193"><ele>197.0</ele><time>2026-04-06T14:53:45Z</time></trkpt><trkpt lat="46.28140612102193" lon="13.109510615843309"><ele>197.0</ele><time>2026-04-06T14:53:46Z</time></trkpt><trkpt lat="46.28128737890059" lon="13.109488924046001"><ele>197.0</ele><time>2026-04-06T14:53:47Z</time></trkpt><trkpt lat="46.281164964874606" lon="13.10946719522192"><ele>197.0</ele><time>2026-04-06T14:53:48Z</time></trkpt><trkpt lat="46.281028369670125" lon="13.10944033768792"><ele>197.0</ele><time>2026-04-06T14:53:49Z</time></trkpt><trkpt lat="46.280877607708824" lon="13.10941280893876"><ele>197.0</ele><time>2026-04-06T14:53:50Z</time></trkpt><trkpt lat="46.28075156967819" lon="13.109387788846098"><ele>197.0</ele><time>2026-04-06T14:53:51Z</time></trkpt><trkpt lat="46.280637859840546" lon="13.109368705201636"><ele>196.8</ele><time>2026-04-06T14:53:52Z</time></trkpt><trkpt lat="46.28052579019681" lon="13.10935371310851"><ele>196.6</ele><time>2026-04-06T14:53:53Z</time></trkpt><trkpt lat="46.280416989649595" lon="13.109334495554926"><ele>196.4</ele><time>2026-04-06T14:53:54Z</time></trkpt><trkpt lat="46.28030932646414" lon="13.109311190147377"><ele>196.20000000000002</ele><time>2026-04-06T14:53:55Z</time></trkpt><trkpt lat="46.28020078173435" lon="13.109291486189475"><ele>196.0</ele><time>2026-04-06T14:53:56Z</time></trkpt><trkpt lat="46.280091086648255" lon="13.10927477354913"><ele>196.0</ele><time>2026-04-06T14:53:57Z</time></trkpt><trkpt lat="46.27997861532074" lon="13.109253375152894"><ele>196.0</ele><time>2026-04-06T14:53:58Z</time></trkpt><trkpt lat="46.27986357855877" lon="13.109233379796398"><ele>196.0</ele><time>2026-04-06T14:53:59Z</time></trkpt><trkpt lat="46.27974655429169" lon="13.109212546374748"><ele>196.0</ele><time>2026-04-06T14:54:00Z</time></trkpt><trkpt lat="46.27962315371195" lon="13.109192434674581"><ele>196.25</ele><time>2026-04-06T14:54:01Z</time></trkpt><trkpt lat="46.27949376967767" lon="13.109172299037755"><ele>196.5</ele><time>2026-04-06T14:54:02Z</time></trkpt><trkpt lat="46.27936135834845" lon="13.109159027740874"><ele>196.75</ele><time>2026-04-06T14:54:02.999Z</time></trkpt><trkpt lat="46.279226562056074" lon="13.109139241004709"><ele>197.0</ele><time>2026-04-06T14:54:03.999Z</time></trkpt><trkpt lat="46.27909267290211" lon="13.10911768896084"><ele>197.0</ele><time>2026-04-06T14:54:04.999Z</time></trkpt><trkpt lat="46.278957712509616" lon="13.109097196757766"><ele>197.0</ele><time>2026-04-06T14:54:05.999Z</time></trkpt><trkpt lat="46.27882352937944" lon="13.10906883167529"><ele>197.0</ele><time>2026-04-06T14:54:06.999Z</time></trkpt><trkpt lat="46.27868962596709" lon="13.109060233285055"><ele>197.0</ele><time>2026-04-06T14:54:07.999Z</time></trkpt><trkpt lat="46.27855403991058" lon="13.109038671269673"><ele>196.75</ele><time>2026-04-06T14:54:08.999Z</time></trkpt><trkpt lat="46.278421538711015" lon="13.109012753874131"><ele>196.5</ele><time>2026-04-06T14:54:09.999Z</time></trkpt><trkpt lat="46.27828216439701" lon="13.108986388530962"><ele>196.25</ele><time>2026-04-06T14:54:10.999Z</time></trkpt><trkpt lat="46.278143574756044" lon="13.108956782546388"><ele>196.0</ele><time>2026-04-06T14:54:11.999Z</time></trkpt><trkpt lat="46.27800746299209" lon="13.108930601442008"><ele>195.5</ele><time>2026-04-06T14:54:12.999Z</time></trkpt><trkpt lat="46.27787820784366" lon="13.108907737433263"><ele>195.0</ele><time>2026-04-06T14:54:13.999Z</time></trkpt><trkpt lat="46.277756311541985" lon="13.10888256576452"><ele>194.5</ele><time>2026-04-06T14:54:14.999Z</time></trkpt><trkpt lat="46.27763681566313" lon="13.108863067190677"><ele>194.0</ele><time>2026-04-06T14:54:15.999Z</time></trkpt><trkpt lat="46.277519721090485" lon="13.108844024446164"><ele>194.0</ele><time>2026-04-06T14:54:16.999Z</time></trkpt><trkpt lat="46.27740574719229" lon="13.108824299705029"><ele>194.0</ele><time>2026-04-06T14:54:17.999Z</time></trkpt><trkpt lat="46.27729686182751" lon="13.108801958574153"><ele>194.0</ele><time>2026-04-06T14:54:18.999Z</time></trkpt><trkpt lat="46.27718645548525" lon="13.108782290847104"><ele>194.0</ele><time>2026-04-06T14:54:19.999Z</time></trkpt><trkpt lat="46.27707600440681" lon="13.108763041021092"><ele>194.0</ele><time>2026-04-06T14:54:20.999Z</time></trkpt><trkpt lat="46.27696655034092" lon="13.108745269383862"><ele>194.0</ele><time>2026-04-06T14:54:21.999Z</time></trkpt><trkpt lat="46.27685926747645" lon="13.108728869734069"><ele>194.0</ele><time>2026-04-06T14:54:22.999Z</time></trkpt><trkpt lat="46.276754054599294" lon="13.108710643448118"><ele>194.0</ele><time>2026-04-06T14:54:23.999Z</time></trkpt><trkpt lat="46.27664952196304" lon="13.10868690979831"><ele>194.0</ele><time>2026-04-06T14:54:24.999Z</time></trkpt><trkpt lat="46.276546307530985" lon="13.108666424420973"><ele>194.0</ele><time>2026-04-06T14:54:25.999Z</time></trkpt><trkpt lat="46.27644333312948" lon="13.108646506667686"><ele>194.39999999999998</ele><time>2026-04-06T14:54:26.999Z</time></trkpt><trkpt lat="46.27633993136727" lon="13.108626802828763"><ele>194.8</ele><time>2026-04-06T14:54:27.999Z</time></trkpt><trkpt lat="46.276238259344304" lon="13.108607141671342"><ele>195.2</ele><time>2026-04-06T14:54:28.999Z</time></trkpt><trkpt lat="46.27613850929338" lon="13.10858553286382"><ele>195.60000000000002</ele><time>2026-04-06T14:54:29.999Z</time></trkpt><trkpt lat="46.27603689583842" lon="13.108568535270338"><ele>196.0</ele><time>2026-04-06T14:54:30.999Z</time></trkpt><trkpt lat="46.27593394847711" lon="13.108549897334319"><ele>195.99999999999997</ele><time>2026-04-06T14:54:31.999Z</time></trkpt><trkpt lat="46.27584173964687" lon="13.108534543510563"><ele>196.0</ele><time>2026-04-06T14:54:32.999Z</time></trkpt><trkpt lat="46.275757469867685" lon="13.108520405797872"><ele>196.0</ele><time>2026-04-06T14:54:33.999Z</time></trkpt><trkpt lat="46.27567872653992" lon="13.108508189068804"><ele>196.0</ele><time>2026-04-06T14:54:34.999Z</time></trkpt><trkpt lat="46.27560098836858" lon="13.108497090993904"><ele>195.99999999999997</ele><time>2026-04-06T14:54:35.999Z</time></trkpt><trkpt lat="46.2755250817472" lon="13.108483374052218"><ele>196.0</ele><time>2026-04-06T14:54:36.999Z</time></trkpt><trkpt lat="46.27544981403757" lon="13.1084688901341"><ele>195.66666666666666</ele><time>2026-04-06T14:54:37.999Z</time></trkpt><trkpt lat="46.27537534409599" lon="13.108453085334597"><ele>195.33333333333331</ele><time>2026-04-06T14:54:38.999Z</time></trkpt><trkpt lat="46.275299199249446" lon="13.108441017429282"><ele>195.0</ele><time>2026-04-06T14:54:39.999Z</time></trkpt><trkpt lat="46.27522305429981" lon="13.108428932099313"><ele>194.66666666666669</ele><time>2026-04-06T14:54:40.999Z</time></trkpt><trkpt lat="46.27514802446998" lon="13.108411408751058"><ele>194.33333333333334</ele><time>2026-04-06T14:54:41.999Z</time></trkpt><trkpt lat="46.27507294681692" lon="13.108400429703796"><ele>194.0</ele><time>2026-04-06T14:54:42.999Z</time></trkpt><trkpt lat="46.27500037201642" lon="13.108383734684267"><ele>194.00000000000003</ele><time>2026-04-06T14:54:43.999Z</time></trkpt><trkpt lat="46.274928353287315" lon="13.108370326578573"><ele>194.0</ele><time>2026-04-06T14:54:44.999Z</time></trkpt><trkpt lat="46.27485373066032" lon="13.108356369259935"><ele>194.0</ele><time>2026-04-06T14:54:45.999Z</time></trkpt><trkpt lat="46.274778012741514" lon="13.108340458240958"><ele>194.0</ele><time>2026-04-06T14:54:46.999Z</time></trkpt><trkpt lat="46.27469977533178" lon="13.108326800819407"><ele>194.00000000000003</ele><time>2026-04-06T14:54:47.999Z</time></trkpt><trkpt lat="46.27462036082824" lon="13.108313999757076"><ele>194.0</ele><time>2026-04-06T14:54:48.999Z</time></trkpt><trkpt lat="46.274543237202415" lon="13.10830131459786"><ele>193.85714285714286</ele><time>2026-04-06T14:54:50Z</time></trkpt><trkpt lat="46.27446492874811" lon="13.108284660905227"><ele>193.71428571428572</ele><time>2026-04-06T14:54:51Z</time></trkpt><trkpt lat="46.274386452242204" lon="13.10827030914537"><ele>193.57142857142858</ele><time>2026-04-06T14:54:52Z</time></trkpt><trkpt lat="46.27430866080058" lon="13.108257256545965"><ele>193.42857142857144</ele><time>2026-04-06T14:54:53Z</time></trkpt><trkpt lat="46.27423333705732" lon="13.108242704871284"><ele>193.28571428571428</ele><time>2026-04-06T14:54:54Z</time></trkpt><trkpt lat="46.27416635534076" lon="13.108229503242546"><ele>193.14285714285717</ele><time>2026-04-06T14:54:55Z</time></trkpt><trkpt lat="46.27410126280549" lon="13.10821613556467"><ele>193.0</ele><time>2026-04-06T14:54:56Z</time></trkpt><trkpt lat="46.273989944558" lon="13.108202350341822"><ele>193.0</ele><time>2026-04-06T14:54:58Z</time></trkpt><trkpt lat="46.27389480524073" lon="13.108190518611881"><ele>193.0</ele><time>2026-04-06T14:55:00Z</time></trkpt><trkpt lat="46.27380644345406" lon="13.108169541141258"><ele>193.0</ele><time>2026-04-06T14:55:02Z</time></trkpt><trkpt lat="46.27370947197632" lon="13.108144699559011"><ele>193.0</ele><time>2026-04-06T14:55:04Z</time></trkpt><trkpt lat="46.27361860823771" lon="13.1081236321723"><ele>193.0</ele><time>2026-04-06T14:55:06Z</time></trkpt><trkpt lat="46.27353788933894" lon="13.108086959822014"><ele>192.99999999999997</ele><time>2026-04-06T14:55:08Z</time></trkpt><trkpt lat="46.27347653839845" lon="13.108045727031708"><ele>193.0</ele><time>2026-04-06T14:55:10Z</time></trkpt><trkpt lat="46.27342828620847" lon="13.107981707213758"><ele>193.0</ele><time>2026-04-06T14:55:13Z</time></trkpt><trkpt lat="46.27338438199953" lon="13.107872200171684"><ele>193.0</ele><time>2026-04-06T14:55:17Z</time></trkpt><trkpt lat="46.27332236958216" lon="13.107812560859635"><ele>192.99999999999997</ele><time>2026-04-06T14:55:20Z</time></trkpt><trkpt lat="46.27324167117247" lon="13.107803473763699"><ele>193.0</ele><time>2026-04-06T14:55:22Z</time></trkpt><trkpt lat="46.27314479777511" lon="13.107890189481456"><ele>192.2</ele><time>2026-04-06T14:55:24Z</time></trkpt><trkpt lat="46.27302318266321" lon="13.107972810344332"><ele>191.4</ele><time>2026-04-06T14:55:26Z</time></trkpt><trkpt lat="46.272941092833776" lon="13.107989073681145"><ele>190.6</ele><time>2026-04-06T14:55:27Z</time></trkpt><trkpt lat="46.27285152341102" lon="13.107992076662102"><ele>189.79999999999998</ele><time>2026-04-06T14:55:28Z</time></trkpt><trkpt lat="46.27275178940171" lon="13.10798405156831"><ele>189.0</ele><time>2026-04-06T14:55:29Z</time></trkpt><trkpt lat="46.27264075678374" lon="13.107969530793362"><ele>189.0</ele><time>2026-04-06T14:55:30Z</time></trkpt><trkpt lat="46.2725387600877" lon="13.107949863143512"><ele>189.0</ele><time>2026-04-06T14:55:31Z</time></trkpt><trkpt lat="46.272441750264576" lon="13.107930888695634"><ele>189.0</ele><time>2026-04-06T14:55:32Z</time></trkpt><trkpt lat="46.272350368357856" lon="13.107914549665303"><ele>189.0</ele><time>2026-04-06T14:55:33Z</time></trkpt><trkpt lat="46.27226471943916" lon="13.107898457476894"><ele>189.0</ele><time>2026-04-06T14:55:34Z</time></trkpt><trkpt lat="46.27218302335947" lon="13.107883098270785"><ele>189.0</ele><time>2026-04-06T14:55:35Z</time></trkpt><trkpt lat="46.272100265797945" lon="13.10786614488963"><ele>189.0</ele><time>2026-04-06T14:55:36Z</time></trkpt><trkpt lat="46.27202075332714" lon="13.107848813100565"><ele>189.0</ele><time>2026-04-06T14:55:37Z</time></trkpt><trkpt lat="46.27194069938532" lon="13.107831718487367"><ele>189.0</ele><time>2026-04-06T14:55:38Z</time></trkpt><trkpt lat="46.27185771770512" lon="13.10781671477471"><ele>189.0</ele><time>2026-04-06T14:55:39Z</time></trkpt><trkpt lat="46.27177634154059" lon="13.107798633853658"><ele>189.0</ele><time>2026-04-06T14:55:40Z</time></trkpt><trkpt lat="46.27169101946517" lon="13.107783785826255"><ele>189.0</ele><time>2026-04-06T14:55:41Z</time></trkpt><trkpt lat="46.27160345546147" lon="13.107770815654431"><ele>189.0</ele><time>2026-04-06T14:55:42Z</time></trkpt><trkpt lat="46.271515981493415" lon="13.107752467173823"><ele>189.0</ele><time>2026-04-06T14:55:43Z</time></trkpt><trkpt lat="46.27142763528265" lon="13.107736048943222"><ele>189.0</ele><time>2026-04-06T14:55:44Z</time></trkpt><trkpt lat="46.2713375404706" lon="13.107720859777348"><ele>189.0</ele><time>2026-04-06T14:55:45Z</time></trkpt><trkpt lat="46.27124658082735" lon="13.10770242024267"><ele>189.0</ele><time>2026-04-06T14:55:46Z</time></trkpt><trkpt lat="46.27115455743389" lon="13.107686862385156"><ele>189.39999999999998</ele><time>2026-04-06T14:55:47Z</time></trkpt><trkpt lat="46.27106133406975" lon="13.107671327313575"><ele>189.8</ele><time>2026-04-06T14:55:48Z</time></trkpt><trkpt lat="46.270965052303985" lon="13.107651142988168"><ele>190.2</ele><time>2026-04-06T14:55:49Z</time></trkpt><trkpt lat="46.270869958259034" lon="13.107631560436737"><ele>190.60000000000002</ele><time>2026-04-06T14:55:50Z</time></trkpt><trkpt lat="46.27077001538449" lon="13.107614137324282"><ele>191.0</ele><time>2026-04-06T14:55:51Z</time></trkpt><trkpt lat="46.27066791097719" lon="13.107596008112315"><ele>191.4</ele><time>2026-04-06T14:55:52Z</time></trkpt><trkpt lat="46.270565956593266" lon="13.107576717344482"><ele>191.8</ele><time>2026-04-06T14:55:53Z</time></trkpt><trkpt lat="46.27046155270447" lon="13.10755719886389"><ele>192.20000000000002</ele><time>2026-04-06T14:55:54Z</time></trkpt><trkpt lat="46.27035853545622" lon="13.107537035777602"><ele>192.60000000000002</ele><time>2026-04-06T14:55:55Z</time></trkpt><trkpt lat="46.27025384731216" lon="13.107516375721968"><ele>193.0</ele><time>2026-04-06T14:55:56Z</time></trkpt><trkpt lat="46.27014952343056" lon="13.107496562014218"><ele>193.0</ele><time>2026-04-06T14:55:57Z</time></trkpt><trkpt lat="46.27004774963111" lon="13.107474550898326"><ele>193.0</ele><time>2026-04-06T14:55:58Z</time></trkpt><trkpt lat="46.269947817323356" lon="13.10745303020071"><ele>193.0</ele><time>2026-04-06T14:55:59Z</time></trkpt><trkpt lat="46.26984614071136" lon="13.107437630924169"><ele>193.0</ele><time>2026-04-06T14:56:00Z</time></trkpt><trkpt lat="46.26974402284969" lon="13.107420586585699"><ele>193.0</ele><time>2026-04-06T14:56:01Z</time></trkpt><trkpt lat="46.269640811051715" lon="13.107406669468629"><ele>192.2</ele><time>2026-04-06T14:56:01.999Z</time></trkpt><trkpt lat="46.269533344796734" lon="13.107393334873295"><ele>191.4</ele><time>2026-04-06T14:56:02.999Z</time></trkpt><trkpt lat="46.26942332305102" lon="13.10737967572138"><ele>190.6</ele><time>2026-04-06T14:56:03.999Z</time></trkpt><trkpt lat="46.26931182823638" lon="13.107365254512947"><ele>189.79999999999998</ele><time>2026-04-06T14:56:04.999Z</time></trkpt><trkpt lat="46.26919906400551" lon="13.107356902961161"><ele>189.0</ele><time>2026-04-06T14:56:05.999Z</time></trkpt><trkpt lat="46.26908324247253" lon="13.107353820966969"><ele>189.0</ele><time>2026-04-06T14:56:06.999Z</time></trkpt><trkpt lat="46.26896577943145" lon="13.107351700137945"><ele>189.0</ele><time>2026-04-06T14:56:07.999Z</time></trkpt><trkpt lat="46.268848170187475" lon="13.107352760236608"><ele>189.0</ele><time>2026-04-06T14:56:08.999Z</time></trkpt><trkpt lat="46.26872631625728" lon="13.10735946644792"><ele>189.0</ele><time>2026-04-06T14:56:09.999Z</time></trkpt><trkpt lat="46.26860264558144" lon="13.10737407020658"><ele>188.75</ele><time>2026-04-06T14:56:10.999Z</time></trkpt><trkpt lat="46.26847560786228" lon="13.107387759337067"><ele>188.5</ele><time>2026-04-06T14:56:11.999Z</time></trkpt><trkpt lat="46.268331114858114" lon="13.10740350847979"><ele>188.25</ele><time>2026-04-06T14:56:12.999Z</time></trkpt><trkpt lat="46.268167150147875" lon="13.107421845362797"><ele>188.0</ele><time>2026-04-06T14:56:13.999Z</time></trkpt><trkpt lat="46.26798614596163" lon="13.10744424701979"><ele>188.0</ele><time>2026-04-06T14:56:14.999Z</time></trkpt><trkpt lat="46.267794813930415" lon="13.107464872378477"><ele>188.0</ele><time>2026-04-06T14:56:15.999Z</time></trkpt><trkpt lat="46.267594399927226" lon="13.107491246768769"><ele>188.0</ele><time>2026-04-06T14:56:16.999Z</time></trkpt><trkpt lat="46.26739405886516" lon="13.10751604897706"><ele>187.33333333333331</ele><time>2026-04-06T14:56:17.999Z</time></trkpt><trkpt lat="46.26720368403381" lon="13.107536344141609"><ele>186.66666666666666</ele><time>2026-04-06T14:56:18.999Z</time></trkpt><trkpt lat="46.26702229834037" lon="13.107557354020514"><ele>186.0</ele><time>2026-04-06T14:56:19.999Z</time></trkpt><trkpt lat="46.26684554883291" lon="13.107581061078779"><ele>186.0</ele><time>2026-04-06T14:56:20.999Z</time></trkpt><trkpt lat="46.266672680573485" lon="13.107601362504472"><ele>186.0</ele><time>2026-04-06T14:56:21.999Z</time></trkpt><trkpt lat="46.26650754429526" lon="13.107617699060436"><ele>186.0</ele><time>2026-04-06T14:56:22.999Z</time></trkpt><trkpt lat="46.26634860123454" lon="13.107636339532194"><ele>186.33333333333334</ele><time>2026-04-06T14:56:23.999Z</time></trkpt><trkpt lat="46.26619663127968" lon="13.107655012928953"><ele>186.66666666666669</ele><time>2026-04-06T14:56:24.999Z</time></trkpt><trkpt lat="46.26604390581368" lon="13.107673527812798"><ele>187.0</ele><time>2026-04-06T14:56:25.999Z</time></trkpt><trkpt lat="46.26589479132929" lon="13.107693213457573"><ele>187.0</ele><time>2026-04-06T14:56:26.999Z</time></trkpt><trkpt lat="46.265746133861334" lon="13.107714195778804"><ele>187.0</ele><time>2026-04-06T14:56:27.999Z</time></trkpt><trkpt lat="46.26560103829181" lon="13.107733925128535"><ele>187.0</ele><time>2026-04-06T14:56:28.999Z</time></trkpt><trkpt lat="46.265459816730285" lon="13.107749521385735"><ele>187.0</ele><time>2026-04-06T14:56:29.999Z</time></trkpt><trkpt lat="46.26531908496941" lon="13.1077674816256"><ele>187.0</ele><time>2026-04-06T14:56:30.999Z</time></trkpt><trkpt lat="46.265180979058684" lon="13.107785309756295"><ele>187.0</ele><time>2026-04-06T14:56:31.999Z</time></trkpt><trkpt lat="46.265042788027515" lon="13.107803218412657"><ele>187.0</ele><time>2026-04-06T14:56:32.999Z</time></trkpt><trkpt lat="46.264902994424986" lon="13.107820285269996"><ele>187.0</ele><time>2026-04-06T14:56:33.999Z</time></trkpt><trkpt lat="46.26476303168864" lon="13.107839641139599"><ele>187.0</ele><time>2026-04-06T14:56:34.999Z</time></trkpt><trkpt lat="46.26461789357524" lon="13.107858262094542"><ele>187.0</ele><time>2026-04-06T14:56:35.999Z</time></trkpt><trkpt lat="46.26446626548359" lon="13.107879091007414"><ele>187.0</ele><time>2026-04-06T14:56:36.999Z</time></trkpt><trkpt lat="46.264315664722915" lon="13.107899721894327"><ele>187.0</ele><time>2026-04-06T14:56:37.999Z</time></trkpt><trkpt lat="46.26416757635723" lon="13.10791699119196"><ele>187.0</ele><time>2026-04-06T14:56:38.999Z</time></trkpt><trkpt lat="46.26403091078772" lon="13.107931680572921"><ele>187.0</ele><time>2026-04-06T14:56:39.999Z</time></trkpt><trkpt lat="46.26390342232052" lon="13.107947710981387"><ele>187.0</ele><time>2026-04-06T14:56:40.999Z</time></trkpt><trkpt lat="46.26379012664236" lon="13.107959400970763"><ele>187.0</ele><time>2026-04-06T14:56:41.999Z</time></trkpt><trkpt lat="46.26368064483006" lon="13.1079731612517"><ele>186.39999999999998</ele><time>2026-04-06T14:56:42.999Z</time></trkpt><trkpt lat="46.26357741350295" lon="13.10798733006697"><ele>185.79999999999998</ele><time>2026-04-06T14:56:43.999Z</time></trkpt><trkpt lat="46.26348357704561" lon="13.107997825725253"><ele>185.2</ele><time>2026-04-06T14:56:44.999Z</time></trkpt><trkpt lat="46.263394648325296" lon="13.1080081244615"><ele>184.6</ele><time>2026-04-06T14:56:45.999Z</time></trkpt><trkpt lat="46.26329752876937" lon="13.10801947404079"><ele>184.0</ele><time>2026-04-06T14:56:46.999Z</time></trkpt><trkpt lat="46.26318207083376" lon="13.108034154899027"><ele>184.5</ele><time>2026-04-06T14:56:47.999Z</time></trkpt><trkpt lat="46.26305358325704" lon="13.108050083822985"><ele>185.0</ele><time>2026-04-06T14:56:48.999Z</time></trkpt><trkpt lat="46.26291420660401" lon="13.108069673762765"><ele>185.5</ele><time>2026-04-06T14:56:49.999Z</time></trkpt><trkpt lat="46.262762112141594" lon="13.108089612345406"><ele>186.0</ele><time>2026-04-06T14:56:50.999Z</time></trkpt><trkpt lat="46.26260240057724" lon="13.10811004841142"><ele>186.0</ele><time>2026-04-06T14:56:51.999Z</time></trkpt><trkpt lat="46.26244324943629" lon="13.10813151977603"><ele>186.0</ele><time>2026-04-06T14:56:52.999Z</time></trkpt><trkpt lat="46.26228229650853" lon="13.108152308068513"><ele>186.0</ele><time>2026-04-06T14:56:53.999Z</time></trkpt><trkpt lat="46.26212179195675" lon="13.10817432010926"><ele>186.33333333333334</ele><time>2026-04-06T14:56:54.999Z</time></trkpt><trkpt lat="46.261959747782264" lon="13.108197982076172"><ele>186.66666666666669</ele><time>2026-04-06T14:56:56Z</time></trkpt><trkpt lat="46.26180199055012" lon="13.108219184048405"><ele>187.0</ele><time>2026-04-06T14:56:57Z</time></trkpt><trkpt lat="46.261653517197495" lon="13.108239613453838"><ele>186.66666666666669</ele><time>2026-04-06T14:56:58Z</time></trkpt><trkpt lat="46.261508928714555" lon="13.10826382539657"><ele>186.33333333333334</ele><time>2026-04-06T14:56:59Z</time></trkpt><trkpt lat="46.26135428533056" lon="13.108286603004556"><ele>186.0</ele><time>2026-04-06T14:57:00Z</time></trkpt><trkpt lat="46.26119504348997" lon="13.108302297195229"><ele>186.5</ele><time>2026-04-06T14:57:01Z</time></trkpt><trkpt lat="46.26104890408551" lon="13.10831601025599"><ele>187.0</ele><time>2026-04-06T14:57:02Z</time></trkpt><trkpt lat="46.26090508151849" lon="13.108332319296748"><ele>187.5</ele><time>2026-04-06T14:57:03Z</time></trkpt><trkpt lat="46.26075514153961" lon="13.1083492191962"><ele>188.0</ele><time>2026-04-06T14:57:04Z</time></trkpt><trkpt lat="46.260613450531054" lon="13.108363551478377"><ele>188.0</ele><time>2026-04-06T14:57:05Z</time></trkpt><trkpt lat="46.26047634600119" lon="13.108377354971271"><ele>188.0</ele><time>2026-04-06T14:57:06Z</time></trkpt><trkpt lat="46.26035152432893" lon="13.10839492178498"><ele>188.0</ele><time>2026-04-06T14:57:07Z</time></trkpt><trkpt lat="46.26022839354557" lon="13.108417637610788"><ele>188.0</ele><time>2026-04-06T14:57:08Z</time></trkpt><trkpt lat="46.26011534170141" lon="13.10844225116974"><ele>188.0</ele><time>2026-04-06T14:57:09Z</time></trkpt><trkpt lat="46.26000118336638" lon="13.1084709125505"><ele>188.0</ele><time>2026-04-06T14:57:10Z</time></trkpt><trkpt lat="46.25990380132655" lon="13.10849460688952"><ele>188.0</ele><time>2026-04-06T14:57:11Z</time></trkpt><trkpt lat="46.259810137000976" lon="13.108515517950543"><ele>188.0</ele><time>2026-04-06T14:57:12Z</time></trkpt><trkpt lat="46.25970442302045" lon="13.108534879488538"><ele>188.0</ele><time>2026-04-06T14:57:13Z</time></trkpt><trkpt lat="46.25959527315813" lon="13.108549140432249"><ele>187.5</ele><time>2026-04-06T14:57:14Z</time></trkpt><trkpt lat="46.25948437393826" lon="13.108555412418525"><ele>187.0</ele><time>2026-04-06T14:57:15Z</time></trkpt><trkpt lat="46.25937100956917" lon="13.108534277095199"><ele>186.5</ele><time>2026-04-06T14:57:16Z</time></trkpt><trkpt lat="46.259251889651026" lon="13.108490246400068"><ele>186.0</ele><time>2026-04-06T14:57:17Z</time></trkpt><trkpt lat="46.259139953731605" lon="13.108409057420205"><ele>186.0</ele><time>2026-04-06T14:57:18Z</time></trkpt><trkpt lat="46.259044909366075" lon="13.108293290577345"><ele>186.0</ele><time>2026-04-06T14:57:19Z</time></trkpt><trkpt lat="46.25896826468063" lon="13.108151240916287"><ele>186.0</ele><time>2026-04-06T14:57:20Z</time></trkpt><trkpt lat="46.25891842926606" lon="13.107980179799215"><ele>186.0</ele><time>2026-04-06T14:57:21Z</time></trkpt><trkpt lat="46.258888477287805" lon="13.107784818152956"><ele>186.66666666666666</ele><time>2026-04-06T14:57:22Z</time></trkpt><trkpt lat="46.258879398930894" lon="13.107577044489114"><ele>187.33333333333331</ele><time>2026-04-06T14:57:23Z</time></trkpt><trkpt lat="46.25887783477013" lon="13.107348718732569"><ele>188.0</ele><time>2026-04-06T14:57:24Z</time></trkpt><trkpt lat="46.258866231460594" lon="13.107093030135006"><ele>186.66666666666666</ele><time>2026-04-06T14:57:25Z</time></trkpt><trkpt lat="46.258846382729324" lon="13.106829862671583"><ele>185.33333333333334</ele><time>2026-04-06T14:57:26Z</time></trkpt><trkpt lat="46.25881231465291" lon="13.10655363910665"><ele>184.0</ele><time>2026-04-06T14:57:27Z</time></trkpt><trkpt lat="46.25876501174205" lon="13.106292220023647"><ele>183.66666666666669</ele><time>2026-04-06T14:57:28Z</time></trkpt><trkpt lat="46.258704615801115" lon="13.106030092013569"><ele>183.33333333333334</ele><time>2026-04-06T14:57:29Z</time></trkpt><trkpt lat="46.2586362771026" lon="13.10577716554093"><ele>183.0</ele><time>2026-04-06T14:57:30Z</time></trkpt><trkpt lat="46.25855799523758" lon="13.105536414399408"><ele>183.0</ele><time>2026-04-06T14:57:31Z</time></trkpt><trkpt lat="46.258472362199534" lon="13.105305305810814"><ele>183.0</ele><time>2026-04-06T14:57:32Z</time></trkpt><trkpt lat="46.258387679723896" lon="13.105074712894952"><ele>183.0</ele><time>2026-04-06T14:57:33Z</time></trkpt><trkpt lat="46.25829902717449" lon="13.10484126247121"><ele>183.66666666666666</ele><time>2026-04-06T14:57:34Z</time></trkpt><trkpt lat="46.25821408877221" lon="13.104604298094776"><ele>184.33333333333331</ele><time>2026-04-06T14:57:35Z</time></trkpt><trkpt lat="46.25813598026929" lon="13.104365142059198"><ele>185.0</ele><time>2026-04-06T14:57:36Z</time></trkpt><trkpt lat="46.2580601962018" lon="13.104122373288302"><ele>185.0</ele><time>2026-04-06T14:57:37Z</time></trkpt><trkpt lat="46.25798792459093" lon="13.103881244460693"><ele>185.0</ele><time>2026-04-06T14:57:38Z</time></trkpt><trkpt lat="46.257915860020475" lon="13.103644284885549"><ele>185.0</ele><time>2026-04-06T14:57:39Z</time></trkpt><trkpt lat="46.25784307071137" lon="13.10340637546224"><ele>185.33333333333331</ele><time>2026-04-06T14:57:40Z</time></trkpt><trkpt lat="46.25777285658469" lon="13.103169884147576"><ele>185.66666666666666</ele><time>2026-04-06T14:57:41Z</time></trkpt><trkpt lat="46.25770179250197" lon="13.102934522764427"><ele>186.0</ele><time>2026-04-06T14:57:42Z</time></trkpt><trkpt lat="46.257626129613584" lon="13.10269348438261"><ele>186.0</ele><time>2026-04-06T14:57:43Z</time></trkpt><trkpt lat="46.257550250680254" lon="13.102453518717306"><ele>186.0</ele><time>2026-04-06T14:57:44Z</time></trkpt><trkpt lat="46.25747509866555" lon="13.10221146941641"><ele>186.0</ele><time>2026-04-06T14:57:45Z</time></trkpt><trkpt lat="46.25739904703064" lon="13.101968941916304"><ele>187.33333333333334</ele><time>2026-04-06T14:57:46Z</time></trkpt><trkpt lat="46.2573219665724" lon="13.101726004292706"><ele>188.66666666666669</ele><time>2026-04-06T14:57:47Z</time></trkpt><trkpt lat="46.257241533398776" lon="13.101484165173346"><ele>190.0</ele><time>2026-04-06T14:57:48Z</time></trkpt><trkpt lat="46.25715461256435" lon="13.101239885275804"><ele>188.0</ele><time>2026-04-06T14:57:49Z</time></trkpt><trkpt lat="46.25707028215281" lon="13.100993378840645"><ele>186.0</ele><time>2026-04-06T14:57:50Z</time></trkpt><trkpt lat="46.25698557747009" lon="13.100750120075851"><ele>184.0</ele><time>2026-04-06T14:57:51Z</time></trkpt><trkpt lat="46.256900987172045" lon="13.10050426044093"><ele>184.0</ele><time>2026-04-06T14:57:52Z</time></trkpt><trkpt lat="46.25681618599309" lon="13.100254919764048"><ele>184.0</ele><time>2026-04-06T14:57:53Z</time></trkpt><trkpt lat="46.2567313030637" lon="13.100005284626155"><ele>184.0</ele><time>2026-04-06T14:57:54Z</time></trkpt><trkpt lat="46.256644485854" lon="13.099755559095474"><ele>184.0</ele><time>2026-04-06T14:57:55Z</time></trkpt><trkpt lat="46.256555582126005" lon="13.09950832807539"><ele>184.0</ele><time>2026-04-06T14:57:56Z</time></trkpt><trkpt lat="46.25646145979532" lon="13.0992532788154"><ele>184.0</ele><time>2026-04-06T14:57:57Z</time></trkpt><trkpt lat="46.25636854588582" lon="13.098989803572856"><ele>184.33333333333334</ele><time>2026-04-06T14:57:58Z</time></trkpt><trkpt lat="46.25627204432424" lon="13.098718215089315"><ele>184.66666666666666</ele><time>2026-04-06T14:57:59Z</time></trkpt><trkpt lat="46.25616975480884" lon="13.098446089515779"><ele>185.0</ele><time>2026-04-06T14:58:00Z</time></trkpt><trkpt lat="46.25605078168931" lon="13.098177074804441"><ele>184.33333333333331</ele><time>2026-04-06T14:58:01Z</time></trkpt><trkpt lat="46.25591121040738" lon="13.097926337468376"><ele>183.66666666666666</ele><time>2026-04-06T14:58:02Z</time></trkpt><trkpt lat="46.255755616952186" lon="13.097693232106414"><ele>183.0</ele><time>2026-04-06T14:58:03Z</time></trkpt><trkpt lat="46.25558930973857" lon="13.097474636753228"><ele>182.66666666666666</ele><time>2026-04-06T14:58:04Z</time></trkpt><trkpt lat="46.255412107106174" lon="13.097280002352992"><ele>182.33333333333331</ele><time>2026-04-06T14:58:05Z</time></trkpt><trkpt lat="46.255228058087106" lon="13.097116703287815"><ele>182.0</ele><time>2026-04-06T14:58:06Z</time></trkpt><trkpt lat="46.255040285274596" lon="13.096976958633872"><ele>182.0</ele><time>2026-04-06T14:58:06.999Z</time></trkpt><trkpt lat="46.254851713873514" lon="13.096856573365327"><ele>182.0</ele><time>2026-04-06T14:58:07.999Z</time></trkpt><trkpt lat="46.254665799492045" lon="13.09675556364585"><ele>182.0</ele><time>2026-04-06T14:58:08.999Z</time></trkpt><trkpt lat="46.25447708387023" lon="13.09666544579386"><ele>182.0</ele><time>2026-04-06T14:58:09.999Z</time></trkpt><trkpt lat="46.25428615798678" lon="13.096578447666197"><ele>182.0</ele><time>2026-04-06T14:58:10.999Z</time></trkpt><trkpt lat="46.25409254118676" lon="13.096488016003793"><ele>182.0</ele><time>2026-04-06T14:58:11.999Z</time></trkpt><trkpt lat="46.25389512478888" lon="13.096388971679882"><ele>182.0</ele><time>2026-04-06T14:58:12.999Z</time></trkpt><trkpt lat="46.253691480786124" lon="13.096285446964089"><ele>182.0</ele><time>2026-04-06T14:58:13.999Z</time></trkpt><trkpt lat="46.25348275504838" lon="13.09618233683284"><ele>182.0</ele><time>2026-04-06T14:58:14.999Z</time></trkpt><trkpt lat="46.25327104766571" lon="13.096081026235918"><ele>181.0</ele><time>2026-04-06T14:58:15.999Z</time></trkpt><trkpt lat="46.25305848180728" lon="13.095978973361323"><ele>180.0</ele><time>2026-04-06T14:58:16.999Z</time></trkpt><trkpt lat="46.25284467131287" lon="13.0958747320192"><ele>180.0</ele><time>2026-04-06T14:58:17.999Z</time></trkpt><trkpt lat="46.25263054525482" lon="13.09577154718517"><ele>180.0</ele><time>2026-04-06T14:58:18.999Z</time></trkpt><trkpt lat="46.25241771937175" lon="13.095669363295661"><ele>180.0</ele><time>2026-04-06T14:58:19.999Z</time></trkpt><trkpt lat="46.25220890777151" lon="13.095567784223979"><ele>180.0</ele><time>2026-04-06T14:58:20.999Z</time></trkpt><trkpt lat="46.25200316038575" lon="13.095465935871689"><ele>180.0</ele><time>2026-04-06T14:58:21.999Z</time></trkpt><trkpt lat="46.25179887106544" lon="13.095367225600508"><ele>180.0</ele><time>2026-04-06T14:58:22.999Z</time></trkpt><trkpt lat="46.25159484296579" lon="13.09527475975264"><ele>180.0</ele><time>2026-04-06T14:58:23.999Z</time></trkpt><trkpt lat="46.251393189467095" lon="13.095188472305788"><ele>180.0</ele><time>2026-04-06T14:58:24.999Z</time></trkpt><trkpt lat="46.25118986313555" lon="13.095110118626234"><ele>179.66666666666666</ele><time>2026-04-06T14:58:25.999Z</time></trkpt><trkpt lat="46.25098525783638" lon="13.095040651893246"><ele>179.33333333333331</ele><time>2026-04-06T14:58:26.999Z</time></trkpt><trkpt lat="46.250782497323364" lon="13.09497741351642"><ele>179.0</ele><time>2026-04-06T14:58:27.999Z</time></trkpt><trkpt lat="46.250576505500845" lon="13.094915897263801"><ele>179.0</ele><time>2026-04-06T14:58:28.999Z</time></trkpt><trkpt lat="46.25036473216244" lon="13.094858806711454"><ele>179.0</ele><time>2026-04-06T14:58:29.999Z</time></trkpt><trkpt lat="46.250148837262834" lon="13.094805102399402"><ele>179.0</ele><time>2026-04-06T14:58:30.999Z</time></trkpt><trkpt lat="46.24992659744719" lon="13.094751821249321"><ele>179.5</ele><time>2026-04-06T14:58:31.999Z</time></trkpt><trkpt lat="46.24969828145895" lon="13.094701461665098"><ele>180.0</ele><time>2026-04-06T14:58:32.999Z</time></trkpt><trkpt lat="46.249460436765276" lon="13.094660572529223"><ele>180.0</ele><time>2026-04-06T14:58:33.999Z</time></trkpt><trkpt lat="46.249217740750524" lon="13.094633076254697"><ele>180.0</ele><time>2026-04-06T14:58:34.999Z</time></trkpt><trkpt lat="46.24897207918273" lon="13.094613012434678"><ele>177.5</ele><time>2026-04-06T14:58:35.999Z</time></trkpt><trkpt lat="46.24872415667375" lon="13.094602647427852"><ele>175.0</ele><time>2026-04-06T14:58:36.999Z</time></trkpt><trkpt lat="46.24847438785989" lon="13.094597621083263"><ele>175.0</ele><time>2026-04-06T14:58:37.999Z</time></trkpt><trkpt lat="46.248224475276096" lon="13.09459321007019"><ele>175.0</ele><time>2026-04-06T14:58:38.999Z</time></trkpt><trkpt lat="46.2479761407722" lon="13.094594098626207"><ele>174.5</ele><time>2026-04-06T14:58:39.999Z</time></trkpt><trkpt lat="46.24773104036301" lon="13.094605527063788"><ele>174.0</ele><time>2026-04-06T14:58:40.999Z</time></trkpt><trkpt lat="46.24748932964958" lon="13.094588277618323"><ele>176.5</ele><time>2026-04-06T14:58:41.999Z</time></trkpt><trkpt lat="46.247249537342114" lon="13.094649394242094"><ele>179.0</ele><time>2026-04-06T14:58:42.999Z</time></trkpt><trkpt lat="46.247015685505126" lon="13.094677645968966"><ele>179.0</ele><time>2026-04-06T14:58:43.999Z</time></trkpt><trkpt lat="46.24678416512906" lon="13.094706497825651"><ele>179.0</ele><time>2026-04-06T14:58:44.999Z</time></trkpt><trkpt lat="46.246556837001556" lon="13.09473426032282"><ele>179.0</ele><time>2026-04-06T14:58:45.999Z</time></trkpt><trkpt lat="46.24633248509651" lon="13.094761944512438"><ele>179.0</ele><time>2026-04-06T14:58:46.999Z</time></trkpt><trkpt lat="46.24611112016011" lon="13.094791026845726"><ele>179.0</ele><time>2026-04-06T14:58:47.999Z</time></trkpt><trkpt lat="46.245890183534556" lon="13.094817953410347"><ele>179.0</ele><time>2026-04-06T14:58:48.999Z</time></trkpt><trkpt lat="46.24566462813282" lon="13.094838042511524"><ele>179.0</ele><time>2026-04-06T14:58:49.999Z</time></trkpt><trkpt lat="46.24543529585273" lon="13.09485237145561"><ele>178.5</ele><time>2026-04-06T14:58:50.999Z</time></trkpt><trkpt lat="46.24519877326144" lon="13.094853987835931"><ele>178.0</ele><time>2026-04-06T14:58:51.999Z</time></trkpt><trkpt lat="46.24495666718921" lon="13.094837376619726"><ele>177.5</ele><time>2026-04-06T14:58:52.999Z</time></trkpt><trkpt lat="46.244714019628084" lon="13.094799902612381"><ele>177.0</ele><time>2026-04-06T14:58:53.999Z</time></trkpt><trkpt lat="46.244470551302776" lon="13.094738513175718"><ele>177.0</ele><time>2026-04-06T14:58:54.999Z</time></trkpt><trkpt lat="46.24423602886782" lon="13.094663159630421"><ele>177.0</ele><time>2026-04-06T14:58:55.999Z</time></trkpt><trkpt lat="46.24401073969821" lon="13.09458304089599"><ele>178.0</ele><time>2026-04-06T14:58:56.999Z</time></trkpt><trkpt lat="46.24379165176121" lon="13.094504425060958"><ele>179.0</ele><time>2026-04-06T14:58:57.999Z</time></trkpt><trkpt lat="46.243572219116736" lon="13.094429968733193"><ele>179.0</ele><time>2026-04-06T14:58:58.999Z</time></trkpt><trkpt lat="46.24335374738006" lon="13.094363519091068"><ele>179.0</ele><time>2026-04-06T14:58:59.999Z</time></trkpt><trkpt lat="46.243133787218014" lon="13.094306937889867"><ele>179.0</ele><time>2026-04-06T14:59:00.999Z</time></trkpt><trkpt lat="46.24291321830339" lon="13.094256325380483"><ele>178.0</ele><time>2026-04-06T14:59:02Z</time></trkpt><trkpt lat="46.242692715995446" lon="13.094208961592127"><ele>177.0</ele><time>2026-04-06T14:59:03Z</time></trkpt><trkpt lat="46.242469199427816" lon="13.094163069528939"><ele>176.0</ele><time>2026-04-06T14:59:04Z</time></trkpt><trkpt lat="46.2422429569022" lon="13.094118142592967"><ele>176.33333333333331</ele><time>2026-04-06T14:59:05Z</time></trkpt><trkpt lat="46.24201919954387" lon="13.094071821984214"><ele>176.66666666666666</ele><time>2026-04-06T14:59:06Z</time></trkpt><trkpt lat="46.241800376054144" lon="13.094029833482754"><ele>177.0</ele><time>2026-04-06T14:59:07Z</time></trkpt><trkpt lat="46.241582510390074" lon="13.093991000733395"><ele>176.0</ele><time>2026-04-06T14:59:08Z</time></trkpt><trkpt lat="46.24136717415308" lon="13.093953742031271"><ele>175.0</ele><time>2026-04-06T14:59:09Z</time></trkpt><trkpt lat="46.241149568956565" lon="13.093916324013483"><ele>174.0</ele><time>2026-04-06T14:59:10Z</time></trkpt><trkpt lat="46.24092863111969" lon="13.093868757016837"><ele>174.0</ele><time>2026-04-06T14:59:11Z</time></trkpt><trkpt lat="46.24070462686812" lon="13.093814094396423"><ele>174.0</ele><time>2026-04-06T14:59:12Z</time></trkpt><trkpt lat="46.24047947732835" lon="13.09376084649952"><ele>172.5</ele><time>2026-04-06T14:59:13Z</time></trkpt><trkpt lat="46.240255579793654" lon="13.093705727087958"><ele>171.0</ele><time>2026-04-06T14:59:14Z</time></trkpt><trkpt lat="46.240033540191526" lon="13.093652020036478"><ele>171.0</ele><time>2026-04-06T14:59:15Z</time></trkpt><trkpt lat="46.2398110132162" lon="13.093595771134623"><ele>171.0</ele><time>2026-04-06T14:59:16Z</time></trkpt><trkpt lat="46.239587334190375" lon="13.093541064625574"><ele>173.0</ele><time>2026-04-06T14:59:17Z</time></trkpt><trkpt lat="46.23935941083564" lon="13.093482871235038"><ele>175.0</ele><time>2026-04-06T14:59:18Z</time></trkpt><trkpt lat="46.23911816474429" lon="13.093426628830464"><ele>173.5</ele><time>2026-04-06T14:59:19Z</time></trkpt><trkpt lat="46.23886224522323" lon="13.093363892543572"><ele>172.0</ele><time>2026-04-06T14:59:20Z</time></trkpt><trkpt lat="46.23860233904834" lon="13.09329315724606"><ele>172.0</ele><time>2026-04-06T14:59:21Z</time></trkpt><trkpt lat="46.2383392123893" lon="13.093220265352224"><ele>172.0</ele><time>2026-04-06T14:59:22Z</time></trkpt><trkpt lat="46.238078026798014" lon="13.0931517846744"><ele>172.0</ele><time>2026-04-06T14:59:23Z</time></trkpt><trkpt lat="46.23782001524309" lon="13.093088744014127"><ele>172.0</ele><time>2026-04-06T14:59:24Z</time></trkpt><trkpt lat="46.23756362890648" lon="13.093025015898792"><ele>172.0</ele><time>2026-04-06T14:59:25Z</time></trkpt><trkpt lat="46.23730677758331" lon="13.092960873908957"><ele>172.0</ele><time>2026-04-06T14:59:26Z</time></trkpt><trkpt lat="46.23705126674748" lon="13.092899204627715"><ele>171.5</ele><time>2026-04-06T14:59:27Z</time></trkpt><trkpt lat="46.236794894763854" lon="13.09282808711367"><ele>171.0</ele><time>2026-04-06T14:59:28Z</time></trkpt><trkpt lat="46.236506579706855" lon="13.092770069957746"><ele>170.0</ele><time>2026-04-06T14:59:29Z</time></trkpt><trkpt lat="46.23620153325977" lon="13.092697913121006"><ele>169.0</ele><time>2026-04-06T14:59:30Z</time></trkpt><trkpt lat="46.235874998461796" lon="13.092618577032662"><ele>169.0</ele><time>2026-04-06T14:59:31Z</time></trkpt><trkpt lat="46.235533070586484" lon="13.092532219843987"><ele>169.0</ele><time>2026-04-06T14:59:32Z</time></trkpt><trkpt lat="46.235193016242896" lon="13.092435321246217"><ele>169.0</ele><time>2026-04-06T14:59:33Z</time></trkpt><trkpt lat="46.234865944208615" lon="13.092341391870521"><ele>169.0</ele><time>2026-04-06T14:59:34Z</time></trkpt><trkpt lat="46.23455531909075" lon="13.092255109411452"><ele>169.0</ele><time>2026-04-06T14:59:35Z</time></trkpt><trkpt lat="46.23425692967346" lon="13.092177133992084"><ele>169.0</ele><time>2026-04-06T14:59:36Z</time></trkpt><trkpt lat="46.23396631062965" lon="13.092102494611588"><ele>171.5</ele><time>2026-04-06T14:59:37Z</time></trkpt><trkpt lat="46.233675661021124" lon="13.092024464326558"><ele>174.0</ele><time>2026-04-06T14:59:38Z</time></trkpt><trkpt lat="46.23339546040449" lon="13.091955823224424"><ele>173.0</ele><time>2026-04-06T14:59:39Z</time></trkpt><trkpt lat="46.23312419014706" lon="13.091883646652406"><ele>172.0</ele><time>2026-04-06T14:59:40Z</time></trkpt><trkpt lat="46.232855722247514" lon="13.091815665713746"><ele>172.0</ele><time>2026-04-06T14:59:41Z</time></trkpt><trkpt lat="46.23258429405193" lon="13.091753608414628"><ele>172.0</ele><time>2026-04-06T14:59:42Z</time></trkpt><trkpt lat="46.23231156375951" lon="13.091690415008912"><ele>170.0</ele><time>2026-04-06T14:59:43Z</time></trkpt><trkpt lat="46.23203375609928" lon="13.091622708705883"><ele>168.0</ele><time>2026-04-06T14:59:44Z</time></trkpt><trkpt lat="46.231752562330186" lon="13.091552607909483"><ele>167.5</ele><time>2026-04-06T14:59:45Z</time></trkpt><trkpt lat="46.2314693737804" lon="13.091482382575187"><ele>167.0</ele><time>2026-04-06T14:59:46Z</time></trkpt><trkpt lat="46.231186390818415" lon="13.091412680784105"><ele>167.0</ele><time>2026-04-06T14:59:47Z</time></trkpt><trkpt lat="46.230914245892464" lon="13.09134083751686"><ele>167.0</ele><time>2026-04-06T14:59:48Z</time></trkpt><trkpt lat="46.23064413327286" lon="13.091263425624353"><ele>167.5</ele><time>2026-04-06T14:59:49Z</time></trkpt><trkpt lat="46.2303710217374" lon="13.09118812513272"><ele>168.0</ele><time>2026-04-06T14:59:50Z</time></trkpt><trkpt lat="46.23009958090598" lon="13.091111683179745"><ele>168.0</ele><time>2026-04-06T14:59:51Z</time></trkpt><trkpt lat="46.2298344805805" lon="13.091032273746238"><ele>168.0</ele><time>2026-04-06T14:59:52Z</time></trkpt><trkpt lat="46.22957221555227" lon="13.090947918184874"><ele>168.0</ele><time>2026-04-06T14:59:53Z</time></trkpt><trkpt lat="46.22931222518508" lon="13.090856991468272"><ele>168.0</ele><time>2026-04-06T14:59:54Z</time></trkpt><trkpt lat="46.22905165731594" lon="13.090759627068886"><ele>168.5</ele><time>2026-04-06T14:59:55Z</time></trkpt><trkpt lat="46.22879357552014" lon="13.090656183767226"><ele>169.0</ele><time>2026-04-06T14:59:56Z</time></trkpt><trkpt lat="46.22854650085336" lon="13.090551982884651"><ele>169.0</ele><time>2026-04-06T14:59:57Z</time></trkpt><trkpt lat="46.22830282250486" lon="13.090452988547831"><ele>169.0</ele><time>2026-04-06T14:59:58Z</time></trkpt><trkpt lat="46.22805804022155" lon="13.090357989214302"><ele>167.5</ele><time>2026-04-06T14:59:59Z</time></trkpt><trkpt lat="46.227814466820206" lon="13.090264917238908"><ele>166.0</ele><time>2026-04-06T15:00:00Z</time></trkpt><trkpt lat="46.227567833265354" lon="13.090170051920078"><ele>166.0</ele><time>2026-04-06T15:00:01Z</time></trkpt><trkpt lat="46.227317386800266" lon="13.090078011726568"><ele>166.0</ele><time>2026-04-06T15:00:02Z</time></trkpt><trkpt lat="46.227063326472106" lon="13.0899910452599"><ele>165.5</ele><time>2026-04-06T15:00:03Z</time></trkpt><trkpt lat="46.22680638833359" lon="13.089903443848197"><ele>165.0</ele><time>2026-04-06T15:00:04Z</time></trkpt><trkpt lat="46.22654602651348" lon="13.089821420260272"><ele>164.5</ele><time>2026-04-06T15:00:05Z</time></trkpt><trkpt lat="46.22628265834875" lon="13.089752351374587"><ele>164.0</ele><time>2026-04-06T15:00:06Z</time></trkpt><trkpt lat="46.22601839339087" lon="13.08969687699418"><ele>164.0</ele><time>2026-04-06T15:00:07Z</time></trkpt><trkpt lat="46.22575797482301" lon="13.089650296230872"><ele>164.0</ele><time>2026-04-06T15:00:07.999Z</time></trkpt><trkpt lat="46.22550092771662" lon="13.089604648167402"><ele>165.0</ele><time>2026-04-06T15:00:08.999Z</time></trkpt><trkpt lat="46.22524712429966" lon="13.089557906673583"><ele>166.0</ele><time>2026-04-06T15:00:09.999Z</time></trkpt><trkpt lat="46.22499364011348" lon="13.089511322275147"><ele>165.5</ele><time>2026-04-06T15:00:10.999Z</time></trkpt><trkpt lat="46.224738003829955" lon="13.0894631351456"><ele>165.0</ele><time>2026-04-06T15:00:11.999Z</time></trkpt><trkpt lat="46.22448105657016" lon="13.08941419910889"><ele>165.0</ele><time>2026-04-06T15:00:12.999Z</time></trkpt><trkpt lat="46.224224554682756" lon="13.089364805746028"><ele>165.0</ele><time>2026-04-06T15:00:13.999Z</time></trkpt><trkpt lat="46.22396478298019" lon="13.089313979796678"><ele>164.5</ele><time>2026-04-06T15:00:14.999Z</time></trkpt><trkpt lat="46.22370423789921" lon="13.089264682093852"><ele>164.0</ele><time>2026-04-06T15:00:15.999Z</time></trkpt><trkpt lat="46.22344415522627" lon="13.089214025165079"><ele>164.0</ele><time>2026-04-06T15:00:16.999Z</time></trkpt><trkpt lat="46.22318497071654" lon="13.089162386409305"><ele>164.0</ele><time>2026-04-06T15:00:17.999Z</time></trkpt><trkpt lat="46.22292546397002" lon="13.089111701896064"><ele>163.5</ele><time>2026-04-06T15:00:18.999Z</time></trkpt><trkpt lat="46.222666010555386" lon="13.089061420019398"><ele>163.0</ele><time>2026-04-06T15:00:19.999Z</time></trkpt><trkpt lat="46.2224075904393" lon="13.08900609686169"><ele>162.5</ele><time>2026-04-06T15:00:20.999Z</time></trkpt><trkpt lat="46.22215543671687" lon="13.088944269884413"><ele>162.0</ele><time>2026-04-06T15:00:21.999Z</time></trkpt><trkpt lat="46.22190318367911" lon="13.088876613939755"><ele>162.0</ele><time>2026-04-06T15:00:22.999Z</time></trkpt><trkpt lat="46.22165109778326" lon="13.08880506648431"><ele>162.0</ele><time>2026-04-06T15:00:23.999Z</time></trkpt><trkpt lat="46.22139883759877" lon="13.088729981733204"><ele>163.5</ele><time>2026-04-06T15:00:24.999Z</time></trkpt><trkpt lat="46.22114594734622" lon="13.088650798245654"><ele>165.0</ele><time>2026-04-06T15:00:25.999Z</time></trkpt><trkpt lat="46.22089358252759" lon="13.088565553951165"><ele>164.5</ele><time>2026-04-06T15:00:26.999Z</time></trkpt><trkpt lat="46.22064473649211" lon="13.088472719945976"><ele>164.0</ele><time>2026-04-06T15:00:27.999Z</time></trkpt><trkpt lat="46.2203991108306" lon="13.088375018515508"><ele>164.0</ele><time>2026-04-06T15:00:28.999Z</time></trkpt><trkpt lat="46.2201547120283" lon="13.088275079763088"><ele>164.0</ele><time>2026-04-06T15:00:29.999Z</time></trkpt><trkpt lat="46.21990854924507" lon="13.088171299818544"><ele>163.0</ele><time>2026-04-06T15:00:30.999Z</time></trkpt><trkpt lat="46.21966334605452" lon="13.088066500223164"><ele>162.0</ele><time>2026-04-06T15:00:31.999Z</time></trkpt><trkpt lat="46.21941733246048" lon="13.087961893416967"><ele>162.0</ele><time>2026-04-06T15:00:32.999Z</time></trkpt><trkpt lat="46.219170302411975" lon="13.08785779047209"><ele>162.0</ele><time>2026-04-06T15:00:33.999Z</time></trkpt><trkpt lat="46.21892839075107" lon="13.087754865904857"><ele>163.5</ele><time>2026-04-06T15:00:34.999Z</time></trkpt><trkpt lat="46.218704266976935" lon="13.087657213654847"><ele>165.0</ele><time>2026-04-06T15:00:35.999Z</time></trkpt><trkpt lat="46.218492710421586" lon="13.0875691874877"><ele>165.0</ele><time>2026-04-06T15:00:36.999Z</time></trkpt><trkpt lat="46.218289784929134" lon="13.087483344119097"><ele>165.0</ele><time>2026-04-06T15:00:37.999Z</time></trkpt><trkpt lat="46.21810050493213" lon="13.087399525202882"><ele>165.0</ele><time>2026-04-06T15:00:38.999Z</time></trkpt><trkpt lat="46.21792814743544" lon="13.087323126514566"><ele>164.75</ele><time>2026-04-06T15:00:39.999Z</time></trkpt><trkpt lat="46.217783475908824" lon="13.087256150087477"><ele>164.5</ele><time>2026-04-06T15:00:40.999Z</time></trkpt><trkpt lat="46.217655095425364" lon="13.087199875813265"><ele>164.25</ele><time>2026-04-06T15:00:41.999Z</time></trkpt><trkpt lat="46.21753432048113" lon="13.08714718808587"><ele>164.0</ele><time>2026-04-06T15:00:42.999Z</time></trkpt><trkpt lat="46.217426438107694" lon="13.087084587590189"><ele>164.0</ele><time>2026-04-06T15:00:43.999Z</time></trkpt><trkpt lat="46.217337354118044" lon="13.087004213229486"><ele>164.0</ele><time>2026-04-06T15:00:44.999Z</time></trkpt><trkpt lat="46.21727304116035" lon="13.086911367577997"><ele>164.0</ele><time>2026-04-06T15:00:45.999Z</time></trkpt><trkpt lat="46.21722186507234" lon="13.086811005112446"><ele>164.0</ele><time>2026-04-06T15:00:46.999Z</time></trkpt><trkpt lat="46.217175224447985" lon="13.0867332630899"><ele>164.0</ele><time>2026-04-06T15:00:47.999Z</time></trkpt><trkpt lat="46.21711153197018" lon="13.086688284725863"><ele>164.0</ele><time>2026-04-06T15:00:48.999Z</time></trkpt><trkpt lat="46.216991481501594" lon="13.086722510226288"><ele>164.2</ele><time>2026-04-06T15:00:50.999Z</time></trkpt><trkpt lat="46.21691624169935" lon="13.0868746991716"><ele>164.39999999999998</ele><time>2026-04-06T15:00:52.999Z</time></trkpt><trkpt lat="46.21689576965632" lon="13.086979325625284"><ele>164.6</ele><time>2026-04-06T15:00:53.999Z</time></trkpt><trkpt lat="46.216854264411786" lon="13.087077578529833"><ele>164.8</ele><time>2026-04-06T15:00:54.999Z</time></trkpt><trkpt lat="46.216775087599565" lon="13.087188263387729"><ele>165.0</ele><time>2026-04-06T15:00:55.999Z</time></trkpt><trkpt lat="46.216688694177854" lon="13.08732829318255"><ele>164.33333333333334</ele><time>2026-04-06T15:00:56.999Z</time></trkpt><trkpt lat="46.21660484352232" lon="13.087498256828004"><ele>163.66666666666669</ele><time>2026-04-06T15:00:57.999Z</time></trkpt><trkpt lat="46.21652331758751" lon="13.087681097771743"><ele>163.0</ele><time>2026-04-06T15:00:58.999Z</time></trkpt><trkpt lat="46.216438125347565" lon="13.087881821883903"><ele>163.33333333333334</ele><time>2026-04-06T15:00:59.999Z</time></trkpt><trkpt lat="46.21634092208278" lon="13.088099981307911"><ele>163.66666666666666</ele><time>2026-04-06T15:01:00.999Z</time></trkpt><trkpt lat="46.216237759158346" lon="13.088330207123638"><ele>164.0</ele><time>2026-04-06T15:01:01.999Z</time></trkpt><trkpt lat="46.216140156232896" lon="13.088551013494579"><ele>164.0</ele><time>2026-04-06T15:01:02.999Z</time></trkpt><trkpt lat="46.216039644155465" lon="13.08877216414087"><ele>164.0</ele><time>2026-04-06T15:01:03.999Z</time></trkpt><trkpt lat="46.21593509643426" lon="13.089003541794131"><ele>164.0</ele><time>2026-04-06T15:01:04.999Z</time></trkpt><trkpt lat="46.21582800524987" lon="13.089245608122834"><ele>163.33333333333331</ele><time>2026-04-06T15:01:05.999Z</time></trkpt><trkpt lat="46.21571830823671" lon="13.089496884040164"><ele>162.66666666666666</ele><time>2026-04-06T15:01:07Z</time></trkpt><trkpt lat="46.21560872966361" lon="13.089744929710355"><ele>162.0</ele><time>2026-04-06T15:01:08Z</time></trkpt><trkpt lat="46.21549971829914" lon="13.08998783533358"><ele>162.0</ele><time>2026-04-06T15:01:09Z</time></trkpt><trkpt lat="46.21539232913017" lon="13.090229405848877"><ele>162.0</ele><time>2026-04-06T15:01:10Z</time></trkpt><trkpt lat="46.21528736542499" lon="13.090462830685903"><ele>162.0</ele><time>2026-04-06T15:01:11Z</time></trkpt><trkpt lat="46.21518328799793" lon="13.090699312191795"><ele>162.66666666666666</ele><time>2026-04-06T15:01:12Z</time></trkpt><trkpt lat="46.21507827589681" lon="13.090940136185887"><ele>163.33333333333331</ele><time>2026-04-06T15:01:13Z</time></trkpt><trkpt lat="46.21497292198195" lon="13.091176948487355"><ele>164.0</ele><time>2026-04-06T15:01:14Z</time></trkpt><trkpt lat="46.21486675274767" lon="13.091410193293573"><ele>164.33333333333331</ele><time>2026-04-06T15:01:15Z</time></trkpt><trkpt lat="46.214761955035435" lon="13.091645344710157"><ele>164.66666666666666</ele><time>2026-04-06T15:01:16Z</time></trkpt><trkpt lat="46.21465793822526" lon="13.091883084941696"><ele>165.0</ele><time>2026-04-06T15:01:17Z</time></trkpt><trkpt lat="46.21455209559966" lon="13.092119591297665"><ele>165.0</ele><time>2026-04-06T15:01:18Z</time></trkpt><trkpt lat="46.214442238818066" lon="13.092358610288038"><ele>165.0</ele><time>2026-04-06T15:01:19Z</time></trkpt><trkpt lat="46.214335546660635" lon="13.0925968817469"><ele>165.0</ele><time>2026-04-06T15:01:20Z</time></trkpt><trkpt lat="46.214233361029436" lon="13.092830620855965"><ele>165.66666666666666</ele><time>2026-04-06T15:01:21Z</time></trkpt><trkpt lat="46.214127170389574" lon="13.093070271192836"><ele>166.33333333333331</ele><time>2026-04-06T15:01:22Z</time></trkpt><trkpt lat="46.21401882280712" lon="13.093315691304575"><ele>167.0</ele><time>2026-04-06T15:01:23Z</time></trkpt><trkpt lat="46.2139091930624" lon="13.093562413709872"><ele>167.0</ele><time>2026-04-06T15:01:24Z</time></trkpt><trkpt lat="46.2137980763974" lon="13.093813658622837"><ele>167.0</ele><time>2026-04-06T15:01:25Z</time></trkpt><trkpt lat="46.21368546629429" lon="13.094062032803592"><ele>167.0</ele><time>2026-04-06T15:01:26Z</time></trkpt><trkpt lat="46.213570541871185" lon="13.094319657673998"><ele>167.0</ele><time>2026-04-06T15:01:27Z</time></trkpt><trkpt lat="46.21345463371877" lon="13.094583935936845"><ele>167.0</ele><time>2026-04-06T15:01:28Z</time></trkpt><trkpt lat="46.213336197207745" lon="13.094849531043272"><ele>167.0</ele><time>2026-04-06T15:01:29Z</time></trkpt><trkpt lat="46.21321571344956" lon="13.09511792803055"><ele>166.0</ele><time>2026-04-06T15:01:30Z</time></trkpt><trkpt lat="46.21309314640176" lon="13.09539173340676"><ele>165.0</ele><time>2026-04-06T15:01:31Z</time></trkpt><trkpt lat="46.21297057392067" lon="13.095671485025793"><ele>164.0</ele><time>2026-04-06T15:01:32Z</time></trkpt><trkpt lat="46.21285030153196" lon="13.095947699946084"><ele>163.0</ele><time>2026-04-06T15:01:33Z</time></trkpt><trkpt lat="46.21273198828491" lon="13.096213410983195"><ele>162.0</ele><time>2026-04-06T15:01:34Z</time></trkpt><trkpt lat="46.21261290865336" lon="13.09647324281715"><ele>161.66666666666666</ele><time>2026-04-06T15:01:35Z</time></trkpt><trkpt lat="46.212497678130404" lon="13.096729201728165"><ele>161.33333333333331</ele><time>2026-04-06T15:01:36Z</time></trkpt><trkpt lat="46.21238422254889" lon="13.096987567387435"><ele>161.0</ele><time>2026-04-06T15:01:37Z</time></trkpt><trkpt lat="46.21227359806593" lon="13.097245618019704"><ele>160.66666666666666</ele><time>2026-04-06T15:01:38Z</time></trkpt><trkpt lat="46.21215775709324" lon="13.09750371739487"><ele>160.33333333333334</ele><time>2026-04-06T15:01:39Z</time></trkpt><trkpt lat="46.21203850757511" lon="13.097770623904667"><ele>160.0</ele><time>2026-04-06T15:01:40Z</time></trkpt><trkpt lat="46.21192074195748" lon="13.098031838256372"><ele>160.0</ele><time>2026-04-06T15:01:41Z</time></trkpt><trkpt lat="46.21180300533719" lon="13.098294155004702"><ele>160.0</ele><time>2026-04-06T15:01:42Z</time></trkpt><trkpt lat="46.21168625502253" lon="13.098553749315393"><ele>160.0</ele><time>2026-04-06T15:01:43Z</time></trkpt><trkpt lat="46.21157058457234" lon="13.098812568330484"><ele>160.66666666666669</ele><time>2026-04-06T15:01:44Z</time></trkpt><trkpt lat="46.21145667497415" lon="13.099069919366125"><ele>161.33333333333334</ele><time>2026-04-06T15:01:45Z</time></trkpt><trkpt lat="46.21134197986449" lon="13.099326052711088"><ele>162.0</ele><time>2026-04-06T15:01:46Z</time></trkpt><trkpt lat="46.21123021514229" lon="13.099579296828175"><ele>162.66666666666666</ele><time>2026-04-06T15:01:47Z</time></trkpt><trkpt lat="46.211118255282145" lon="13.09983007870331"><ele>163.33333333333331</ele><time>2026-04-06T15:01:48Z</time></trkpt><trkpt lat="46.21100884759009" lon="13.1000791287513"><ele>164.0</ele><time>2026-04-06T15:01:49Z</time></trkpt><trkpt lat="46.210899072246235" lon="13.100326121130426"><ele>164.0</ele><time>2026-04-06T15:01:50Z</time></trkpt><trkpt lat="46.21078897570652" lon="13.100576162761454"><ele>164.0</ele><time>2026-04-06T15:01:51Z</time></trkpt><trkpt lat="46.210678737491726" lon="13.100821430217039"><ele>164.0</ele><time>2026-04-06T15:01:52Z</time></trkpt><trkpt lat="46.21057136922413" lon="13.10105923663861"><ele>163.33333333333331</ele><time>2026-04-06T15:01:53Z</time></trkpt><trkpt lat="46.21046559945035" lon="13.101294915848182"><ele>162.66666666666666</ele><time>2026-04-06T15:01:54Z</time></trkpt><trkpt lat="46.21036175198273" lon="13.101529183696762"><ele>162.0</ele><time>2026-04-06T15:01:55Z</time></trkpt><trkpt lat="46.210258635724436" lon="13.10176140749739"><ele>162.0</ele><time>2026-04-06T15:01:56Z</time></trkpt><trkpt lat="46.210155125165265" lon="13.101991886763797"><ele>162.0</ele><time>2026-04-06T15:01:57Z</time></trkpt><trkpt lat="46.21005097278591" lon="13.102222706275942"><ele>162.0</ele><time>2026-04-06T15:01:58Z</time></trkpt><trkpt lat="46.209947195822124" lon="13.102448301887675"><ele>162.0</ele><time>2026-04-06T15:01:59Z</time></trkpt><trkpt lat="46.2098459798183" lon="13.102675036645227"><ele>162.0</ele><time>2026-04-06T15:02:00Z</time></trkpt><trkpt lat="46.20974683869211" lon="13.10290119907458"><ele>162.0</ele><time>2026-04-06T15:02:01Z</time></trkpt><trkpt lat="46.209648916598084" lon="13.103122152125227"><ele>162.0</ele><time>2026-04-06T15:02:02Z</time></trkpt><trkpt lat="46.20955209759179" lon="13.103340417742414"><ele>162.0</ele><time>2026-04-06T15:02:03Z</time></trkpt><trkpt lat="46.20945316784603" lon="13.103559873245104"><ele>162.0</ele><time>2026-04-06T15:02:04Z</time></trkpt><trkpt lat="46.209357131134745" lon="13.103772967506444"><ele>162.0</ele><time>2026-04-06T15:02:05Z</time></trkpt><trkpt lat="46.20926428162405" lon="13.103981102711204"><ele>162.0</ele><time>2026-04-06T15:02:06Z</time></trkpt><trkpt lat="46.209175985305514" lon="13.104180831466037"><ele>162.0</ele><time>2026-04-06T15:02:07Z</time></trkpt><trkpt lat="46.20909231259229" lon="13.104371863576414"><ele>161.66666666666666</ele><time>2026-04-06T15:02:08Z</time></trkpt><trkpt lat="46.20901239173955" lon="13.104559841561974"><ele>161.33333333333331</ele><time>2026-04-06T15:02:09Z</time></trkpt><trkpt lat="46.20893527537233" lon="13.104748156758035"><ele>161.0</ele><time>2026-04-06T15:02:10Z</time></trkpt><trkpt lat="46.208861815673906" lon="13.104939753894373"><ele>161.0</ele><time>2026-04-06T15:02:11Z</time></trkpt><trkpt lat="46.2087922290862" lon="13.10513105409078"><ele>161.0</ele><time>2026-04-06T15:02:12Z</time></trkpt><trkpt lat="46.20872901984303" lon="13.105310912625308"><ele>161.0</ele><time>2026-04-06T15:02:12.999Z</time></trkpt><trkpt lat="46.20867323995106" lon="13.10547456944588"><ele>161.0</ele><time>2026-04-06T15:02:13.999Z</time></trkpt><trkpt lat="46.20862143885195" lon="13.105623607283402"><ele>162.0</ele><time>2026-04-06T15:02:14.999Z</time></trkpt><trkpt lat="46.20857514505976" lon="13.10575915981347"><ele>163.0</ele><time>2026-04-06T15:02:15.999Z</time></trkpt><trkpt lat="46.20853646412785" lon="13.105874310456912"><ele>164.0</ele><time>2026-04-06T15:02:16.999Z</time></trkpt><trkpt lat="46.20850157551372" lon="13.10597852833906"><ele>165.0</ele><time>2026-04-06T15:02:17.999Z</time></trkpt><trkpt lat="46.20847085094822" lon="13.106068538501695"><ele>166.0</ele><time>2026-04-06T15:02:18.999Z</time></trkpt><trkpt lat="46.208420428278124" lon="13.106218017356127"><ele>166.0</ele><time>2026-04-06T15:02:20.999Z</time></trkpt><trkpt lat="46.208375278937034" lon="13.106353688044281"><ele>166.0</ele><time>2026-04-06T15:02:22.999Z</time></trkpt><trkpt lat="46.20833428227882" lon="13.10647104166866"><ele>166.0</ele><time>2026-04-06T15:02:24.999Z</time></trkpt><trkpt lat="46.2082754160795" lon="13.106640915770623"><ele>166.0</ele><time>2026-04-06T15:02:26.999Z</time></trkpt><trkpt lat="46.20824068932907" lon="13.106734910265043"><ele>166.0</ele><time>2026-04-06T15:02:27.999Z</time></trkpt><trkpt lat="46.2082081095304" lon="13.106829077057732"><ele>166.60000000000002</ele><time>2026-04-06T15:02:28.999Z</time></trkpt><trkpt lat="46.208174755548214" lon="13.106931697979878"><ele>167.2</ele><time>2026-04-06T15:02:29.999Z</time></trkpt><trkpt lat="46.20813807486075" lon="13.107039950084292"><ele>167.8</ele><time>2026-04-06T15:02:30.999Z</time></trkpt><trkpt lat="46.208095555002046" lon="13.107161202280869"><ele>168.39999999999998</ele><time>2026-04-06T15:02:31.999Z</time></trkpt><trkpt lat="46.2080511798762" lon="13.10729105992555"><ele>169.0</ele><time>2026-04-06T15:02:32.999Z</time></trkpt><trkpt lat="46.208007515640574" lon="13.1074253721429"><ele>169.75</ele><time>2026-04-06T15:02:33.999Z</time></trkpt><trkpt lat="46.20796124491143" lon="13.10756504164185"><ele>170.5</ele><time>2026-04-06T15:02:34.999Z</time></trkpt><trkpt lat="46.207910198577935" lon="13.107716737193972"><ele>171.25</ele><time>2026-04-06T15:02:35.999Z</time></trkpt><trkpt lat="46.20785643812587" lon="13.107878420760114"><ele>172.0</ele><time>2026-04-06T15:02:36.999Z</time></trkpt><trkpt lat="46.20779941320198" lon="13.108050259521274"><ele>172.0</ele><time>2026-04-06T15:02:37.999Z</time></trkpt><trkpt lat="46.20773855213717" lon="13.108226368470028"><ele>172.0</ele><time>2026-04-06T15:02:38.999Z</time></trkpt><trkpt lat="46.20767345429825" lon="13.108411695585444"><ele>172.0</ele><time>2026-04-06T15:02:39.999Z</time></trkpt><trkpt lat="46.207610003402166" lon="13.108597969286652"><ele>172.0</ele><time>2026-04-06T15:02:40.999Z</time></trkpt><trkpt lat="46.207548952119566" lon="13.10877759309448"><ele>172.75</ele><time>2026-04-06T15:02:41.999Z</time></trkpt><trkpt lat="46.20748765479303" lon="13.108955960093365"><ele>173.5</ele><time>2026-04-06T15:02:42.999Z</time></trkpt><trkpt lat="46.207424789321095" lon="13.109141583465663"><ele>174.25</ele><time>2026-04-06T15:02:43.999Z</time></trkpt><trkpt lat="46.207359368450874" lon="13.109335747389178"><ele>175.0</ele><time>2026-04-06T15:02:44.999Z</time></trkpt><trkpt lat="46.20729335246355" lon="13.109532476365047"><ele>175.0</ele><time>2026-04-06T15:02:45.999Z</time></trkpt><trkpt lat="46.207225707579084" lon="13.1097339894288"><ele>175.0</ele><time>2026-04-06T15:02:46.999Z</time></trkpt><trkpt lat="46.20715412895055" lon="13.109935339313747"><ele>175.0</ele><time>2026-04-06T15:02:47.999Z</time></trkpt><trkpt lat="46.20708034595165" lon="13.110132239873337"><ele>175.33333333333334</ele><time>2026-04-06T15:02:48.999Z</time></trkpt><trkpt lat="46.207004874982665" lon="13.110331462980103"><ele>175.66666666666666</ele><time>2026-04-06T15:02:49.999Z</time></trkpt><trkpt lat="46.20692593013642" lon="13.110530827085395"><ele>176.0</ele><time>2026-04-06T15:02:50.999Z</time></trkpt><trkpt lat="46.20684455375038" lon="13.110726681874576"><ele>176.66666666666666</ele><time>2026-04-06T15:02:51.999Z</time></trkpt><trkpt lat="46.20676093747542" lon="13.110921774920447"><ele>177.33333333333334</ele><time>2026-04-06T15:02:52.999Z</time></trkpt><trkpt lat="46.2066738847203" lon="13.1111139640515"><ele>178.0</ele><time>2026-04-06T15:02:53.999Z</time></trkpt><trkpt lat="46.206585128510696" lon="13.111305706733251"><ele>178.33333333333334</ele><time>2026-04-06T15:02:54.999Z</time></trkpt><trkpt lat="46.206491320450034" lon="13.111498955885924"><ele>178.66666666666666</ele><time>2026-04-06T15:02:55.999Z</time></trkpt><trkpt lat="46.20639043864324" lon="13.111693250070589"><ele>179.0</ele><time>2026-04-06T15:02:56.999Z</time></trkpt><trkpt lat="46.20629152546316" lon="13.111881829111184"><ele>179.0</ele><time>2026-04-06T15:02:57.999Z</time></trkpt><trkpt lat="46.206194565066966" lon="13.112066742988745"><ele>179.0</ele><time>2026-04-06T15:02:58.999Z</time></trkpt><trkpt lat="46.206102654025486" lon="13.112244172994457"><ele>179.0</ele><time>2026-04-06T15:02:59.999Z</time></trkpt><trkpt lat="46.20601335820224" lon="13.112416010422198"><ele>179.0</ele><time>2026-04-06T15:03:00.999Z</time></trkpt><trkpt lat="46.20592405460472" lon="13.11258852486216"><ele>179.0</ele><time>2026-04-06T15:03:01.999Z</time></trkpt><trkpt lat="46.2058320909099" lon="13.112766699808613"><ele>179.0</ele><time>2026-04-06T15:03:02.999Z</time></trkpt><trkpt lat="46.20573772695606" lon="13.112944751949996"><ele>178.0</ele><time>2026-04-06T15:03:03.999Z</time></trkpt><trkpt lat="46.20563964719495" lon="13.113129162109393"><ele>177.0</ele><time>2026-04-06T15:03:04.999Z</time></trkpt><trkpt lat="46.20553939145222" lon="13.113320510931601"><ele>176.0</ele><time>2026-04-06T15:03:05.999Z</time></trkpt><trkpt lat="46.20543721274464" lon="13.113512629101049"><ele>176.0</ele><time>2026-04-06T15:03:06.999Z</time></trkpt><trkpt lat="46.205334211734005" lon="13.113707936173602"><ele>176.0</ele><time>2026-04-06T15:03:07.999Z</time></trkpt><trkpt lat="46.205229385942154" lon="13.113907411000763"><ele>176.0</ele><time>2026-04-06T15:03:08.999Z</time></trkpt><trkpt lat="46.20512319573814" lon="13.114108670714952"><ele>176.0</ele><time>2026-04-06T15:03:09.999Z</time></trkpt><trkpt lat="46.20501577007338" lon="13.114312804925458"><ele>176.0</ele><time>2026-04-06T15:03:10.999Z</time></trkpt><trkpt lat="46.20490770221369" lon="13.114519030300299"><ele>176.0</ele><time>2026-04-06T15:03:11.999Z</time></trkpt><trkpt lat="46.204799889692666" lon="13.114726208978968"><ele>176.0</ele><time>2026-04-06T15:03:13Z</time></trkpt><trkpt lat="46.2046909165705" lon="13.114930213370872"><ele>176.0</ele><time>2026-04-06T15:03:14Z</time></trkpt><trkpt lat="46.204580621060614" lon="13.115134917416075"><ele>176.0</ele><time>2026-04-06T15:03:15Z</time></trkpt><trkpt lat="46.20446932240797" lon="13.115339835565502"><ele>176.0</ele><time>2026-04-06T15:03:16Z</time></trkpt><trkpt lat="46.20435968970776" lon="13.115548675219564"><ele>176.0</ele><time>2026-04-06T15:03:17Z</time></trkpt><trkpt lat="46.20425055876226" lon="13.115759484737701"><ele>176.0</ele><time>2026-04-06T15:03:18Z</time></trkpt><trkpt lat="46.204139965995246" lon="13.115968794490717"><ele>176.0</ele><time>2026-04-06T15:03:19Z</time></trkpt><trkpt lat="46.20402837393411" lon="13.116177863637871"><ele>176.0</ele><time>2026-04-06T15:03:20Z</time></trkpt><trkpt lat="46.20391842217923" lon="13.116386461304588"><ele>176.0</ele><time>2026-04-06T15:03:21Z</time></trkpt><trkpt lat="46.20381077674903" lon="13.11659363488601"><ele>175.66666666666666</ele><time>2026-04-06T15:03:22Z</time></trkpt><trkpt lat="46.203705651470706" lon="13.116789191992519"><ele>175.33333333333334</ele><time>2026-04-06T15:03:23Z</time></trkpt><trkpt lat="46.20360760634575" lon="13.116969197401476"><ele>175.0</ele><time>2026-04-06T15:03:24Z</time></trkpt><trkpt lat="46.203514641860885" lon="13.117139736860734"><ele>175.0</ele><time>2026-04-06T15:03:25Z</time></trkpt><trkpt lat="46.203426753543425" lon="13.117300010146652"><ele>175.0</ele><time>2026-04-06T15:03:26Z</time></trkpt><trkpt lat="46.203344381669126" lon="13.117455389055793"><ele>175.0</ele><time>2026-04-06T15:03:27Z</time></trkpt><trkpt lat="46.20326161537121" lon="13.117612855404671"><ele>175.0</ele><time>2026-04-06T15:03:28Z</time></trkpt><trkpt lat="46.20317184010303" lon="13.117779729739782"><ele>175.0</ele><time>2026-04-06T15:03:29Z</time></trkpt><trkpt lat="46.20308693093501" lon="13.117944710071008"><ele>175.0</ele><time>2026-04-06T15:03:30Z</time></trkpt><trkpt lat="46.203010544301826" lon="13.118090955974663"><ele>175.0</ele><time>2026-04-06T15:03:31Z</time></trkpt><trkpt lat="46.20293698930364" lon="13.118226957497026"><ele>175.0</ele><time>2026-04-06T15:03:32Z</time></trkpt><trkpt lat="46.202869910570804" lon="13.118355695186352"><ele>175.16666666666669</ele><time>2026-04-06T15:03:33Z</time></trkpt><trkpt lat="46.202811723613486" lon="13.118469678313549"><ele>175.33333333333334</ele><time>2026-04-06T15:03:34Z</time></trkpt><trkpt lat="46.20275724760012" lon="13.118568128565558"><ele>175.5</ele><time>2026-04-06T15:03:35Z</time></trkpt><trkpt lat="46.202709571689134" lon="13.118650850196572"><ele>175.66666666666666</ele><time>2026-04-06T15:03:36Z</time></trkpt><trkpt lat="46.20266041738481" lon="13.118716610725473"><ele>175.83333333333331</ele><time>2026-04-06T15:03:37Z</time></trkpt><trkpt lat="46.202597057096135" lon="13.118773785554092"><ele>176.0</ele><time>2026-04-06T15:03:38Z</time></trkpt><trkpt lat="46.20252571525363" lon="13.118814362429452"><ele>176.0</ele><time>2026-04-06T15:03:39Z</time></trkpt><trkpt lat="46.20246904274516" lon="13.11886517143919"><ele>176.0</ele><time>2026-04-06T15:03:40Z</time></trkpt><trkpt lat="46.20243212382547" lon="13.118940617080133"><ele>176.0</ele><time>2026-04-06T15:03:41Z</time></trkpt><trkpt lat="46.20243082999226" lon="13.11910212432291"><ele>176.0</ele><time>2026-04-06T15:03:43Z</time></trkpt><trkpt lat="46.20250673722088" lon="13.119217937797988"><ele>176.0</ele><time>2026-04-06T15:03:45Z</time></trkpt><trkpt lat="46.202613698858336" lon="13.119307681259661"><ele>176.0</ele><time>2026-04-06T15:03:47Z</time></trkpt><trkpt lat="46.202675073444986" lon="13.119374724275291"><ele>176.0</ele><time>2026-04-06T15:03:48Z</time></trkpt><trkpt lat="46.202735206370264" lon="13.119462587502706"><ele>176.0</ele><time>2026-04-06T15:03:49Z</time></trkpt><trkpt lat="46.202797129127894" lon="13.119567358901671"><ele>176.0</ele><time>2026-04-06T15:03:50Z</time></trkpt><trkpt lat="46.20285869577449" lon="13.119682225007555"><ele>176.0</ele><time>2026-04-06T15:03:51Z</time></trkpt><trkpt lat="46.202909802718196" lon="13.119780143957144"><ele>176.0</ele><time>2026-04-06T15:03:52Z</time></trkpt><trkpt lat="46.202963933945554" lon="13.119883549545603"><ele>175.60000000000002</ele><time>2026-04-06T15:03:53Z</time></trkpt><trkpt lat="46.203036315655815" lon="13.120005879882743"><ele>175.2</ele><time>2026-04-06T15:03:54Z</time></trkpt><trkpt lat="46.20311700890715" lon="13.120143895473227"><ele>174.8</ele><time>2026-04-06T15:03:55Z</time></trkpt><trkpt lat="46.20318793569608" lon="13.120270236185386"><ele>174.39999999999998</ele><time>2026-04-06T15:03:56Z</time></trkpt><trkpt lat="46.20324601793055" lon="13.120373640669863"><ele>174.0</ele><time>2026-04-06T15:03:57Z</time></trkpt><trkpt lat="46.203297855262306" lon="13.120473089887456"><ele>174.0</ele><time>2026-04-06T15:03:58Z</time></trkpt><trkpt lat="46.20334548745387" lon="13.120561487659847"><ele>174.0</ele><time>2026-04-06T15:03:59Z</time></trkpt><trkpt lat="46.20338586920438" lon="13.12063582435068"><ele>174.0</ele><time>2026-04-06T15:04:00Z</time></trkpt><trkpt lat="46.20343794933867" lon="13.12072969549497"><ele>174.0</ele><time>2026-04-06T15:04:02Z</time></trkpt><trkpt lat="46.2034840850577" lon="13.120792059366792"><ele>174.0</ele><time>2026-04-06T15:04:04Z</time></trkpt><trkpt lat="46.20354907519214" lon="13.120761120782747"><ele>174.0</ele><time>2026-04-06T15:04:07Z</time></trkpt><trkpt lat="46.20360013734092" lon="13.120677524450635"><ele>174.0</ele><time>2026-04-06T15:04:11Z</time></trkpt><trkpt lat="46.203564345987246" lon="13.12060255192212"><ele>174.0</ele><time>2026-04-06T15:04:47.999Z</time></trkpt><trkpt lat="46.203455289269314" lon="13.120451219894264"><ele>174.0</ele><time>2026-04-06T15:07:33Z</time></trkpt><trkpt lat="46.20337544725408" lon="13.12039156420394"><ele>174.0</ele><time>2026-04-06T15:07:34Z</time></trkpt><trkpt lat="46.20330314755036" lon="13.120331899664635"><ele>174.0</ele><time>2026-04-06T15:07:35Z</time></trkpt><trkpt lat="46.20324870482947" lon="13.120274715530579"><ele>174.0</ele><time>2026-04-06T15:07:36Z</time></trkpt><trkpt lat="46.203190801791735" lon="13.12019871296762"><ele>174.0</ele><time>2026-04-06T15:07:37Z</time></trkpt><trkpt lat="46.203135294001015" lon="13.12009732172854"><ele>174.0</ele><time>2026-04-06T15:07:38Z</time></trkpt><trkpt lat="46.20308345179821" lon="13.119991740102918"><ele>174.0</ele><time>2026-04-06T15:07:39Z</time></trkpt><trkpt lat="46.20304078286141" lon="13.119923620591438"><ele>174.0</ele><time>2026-04-06T15:07:40Z</time></trkpt><trkpt lat="46.203065456376045" lon="13.11983885094802"><ele>174.0</ele><time>2026-04-06T15:07:43Z</time></trkpt><trkpt lat="46.20308303721143" lon="13.119747146558847"><ele>174.0</ele><time>2026-04-06T15:08:06Z</time></trkpt><trkpt lat="46.202993797411104" lon="13.11961662999952"><ele>174.33333333333334</ele><time>2026-04-06T15:08:08Z</time></trkpt><trkpt lat="46.20292973473164" lon="13.119507994359155"><ele>174.66666666666666</ele><time>2026-04-06T15:08:10Z</time></trkpt><trkpt lat="46.202879415622654" lon="13.1194083204363"><ele>175.0</ele><time>2026-04-06T15:08:12Z</time></trkpt><trkpt lat="46.20285616419812" lon="13.119305053650162"><ele>175.33333333333331</ele><time>2026-04-06T15:08:14Z</time></trkpt><trkpt lat="46.20286108106174" lon="13.119206811814498"><ele>175.66666666666666</ele><time>2026-04-06T15:08:16Z</time></trkpt><trkpt lat="46.2028869073335" lon="13.119069594963989"><ele>176.0</ele><time>2026-04-06T15:08:19Z</time></trkpt><trkpt lat="46.202869714953636" lon="13.11896457496689"><ele>176.0</ele><time>2026-04-06T15:08:21Z</time></trkpt><trkpt lat="46.202813991625774" lon="13.118880513933235"><ele>176.0</ele><time>2026-04-06T15:08:24Z</time></trkpt><trkpt lat="46.202821705952594" lon="13.118975990490343"><ele>176.0</ele><time>2026-04-06T15:08:59.999Z</time></trkpt><trkpt lat="46.20286855892212" lon="13.119051802957078"><ele>176.0</ele><time>2026-04-06T15:09:05.999Z</time></trkpt><trkpt lat="46.202888611818665" lon="13.119151310221392"><ele>176.0</ele><time>2026-04-06T15:09:11.999Z</time></trkpt><trkpt lat="46.202953316762276" lon="13.119199639455314"><ele>176.0</ele><time>2026-04-06T15:09:18.999Z</time></trkpt><trkpt lat="46.20301190758007" lon="13.119235269692405"><ele>176.0</ele><time>2026-04-06T15:09:24.999Z</time></trkpt></trkseg><trkseg><trkpt lat="46.2319061770707" lon="13.183345046085162"><ele>207.99999999999997</ele><time>2026-04-06T16:51:15.118Z</time></trkpt><trkpt lat="46.23188830251144" lon="13.183256057003096"><ele>208.0</ele><time>2026-04-06T16:51:45Z</time></trkpt><trkpt lat="46.23182530434919" lon="13.18324266525175"><ele>208.0</ele><time>2026-04-06T16:52:55.999Z</time></trkpt><trkpt lat="46.231796472509174" lon="13.183137439422408"><ele>208.0</ele><time>2026-04-06T16:55:26.999Z</time></trkpt><trkpt lat="46.23181044031896" lon="13.18297444403068"><ele>207.99999999999997</ele><time>2026-04-06T16:55:28.999Z</time></trkpt><trkpt lat="46.23182278387413" lon="13.182868093746103"><ele>208.0</ele><time>2026-04-06T16:55:30Z</time></trkpt><trkpt lat="46.231836274785465" lon="13.182715491492734"><ele>208.0</ele><time>2026-04-06T16:55:31Z</time></trkpt><trkpt lat="46.23185307082912" lon="13.182503573952674"><ele>208.0</ele><time>2026-04-06T16:55:32Z</time></trkpt><trkpt lat="46.231874084967856" lon="13.182241321397742"><ele>208.0</ele><time>2026-04-06T16:55:33Z</time></trkpt><trkpt lat="46.23189508010262" lon="13.181956465152068"><ele>208.0</ele><time>2026-04-06T16:55:34Z</time></trkpt><trkpt lat="46.23191492827523" lon="13.181678889256107"><ele>208.0</ele><time>2026-04-06T16:55:35Z</time></trkpt><trkpt lat="46.231937852859254" lon="13.181454617837437"><ele>208.0</ele><time>2026-04-06T16:55:36Z</time></trkpt><trkpt lat="46.23195660499527" lon="13.181258443231364"><ele>208.0</ele><time>2026-04-06T16:55:37Z</time></trkpt><trkpt lat="46.23197630076787" lon="13.181088743877199"><ele>208.0</ele><time>2026-04-06T16:55:38Z</time></trkpt><trkpt lat="46.231994448392406" lon="13.180929217183468"><ele>208.0</ele><time>2026-04-06T16:55:39Z</time></trkpt><trkpt lat="46.23201140181003" lon="13.180738898871978"><ele>208.0</ele><time>2026-04-06T16:55:40Z</time></trkpt><trkpt lat="46.23200896095061" lon="13.180549136921085"><ele>208.0</ele><time>2026-04-06T16:55:41Z</time></trkpt><trkpt lat="46.23197596672934" lon="13.180366343088526"><ele>208.0</ele><time>2026-04-06T16:55:42Z</time></trkpt><trkpt lat="46.23190609037752" lon="13.180178919998184"><ele>208.0</ele><time>2026-04-06T16:55:43Z</time></trkpt><trkpt lat="46.231810021923046" lon="13.179977271276291"><ele>208.0</ele><time>2026-04-06T16:55:44Z</time></trkpt><trkpt lat="46.23171759241654" lon="13.179774853941222"><ele>208.0</ele><time>2026-04-06T16:55:45Z</time></trkpt><trkpt lat="46.23164118711442" lon="13.17959341020149"><ele>208.0</ele><time>2026-04-06T16:55:46Z</time></trkpt><trkpt lat="46.231582120237825" lon="13.179440061289124"><ele>208.0</ele><time>2026-04-06T16:55:47Z</time></trkpt><trkpt lat="46.23153489737894" lon="13.179299194140686"><ele>208.0</ele><time>2026-04-06T16:55:48Z</time></trkpt><trkpt lat="46.23152981102317" lon="13.179126048524"><ele>207.66666666666666</ele><time>2026-04-06T16:55:49Z</time></trkpt><trkpt lat="46.23150024638477" lon="13.17893334088333"><ele>207.33333333333331</ele><time>2026-04-06T16:55:50Z</time></trkpt><trkpt lat="46.23149735283999" lon="13.178709403659298"><ele>207.0</ele><time>2026-04-06T16:55:51Z</time></trkpt><trkpt lat="46.231476152002394" lon="13.178460399915341"><ele>205.33333333333331</ele><time>2026-04-06T16:55:52Z</time></trkpt><trkpt lat="46.23145467926482" lon="13.178207773072648"><ele>203.66666666666666</ele><time>2026-04-06T16:55:53Z</time></trkpt><trkpt lat="46.23144262717084" lon="13.177992023032012"><ele>202.0</ele><time>2026-04-06T16:55:54Z</time></trkpt><trkpt lat="46.23142874276597" lon="13.177801874256865"><ele>201.25</ele><time>2026-04-06T16:55:55Z</time></trkpt><trkpt lat="46.23142156331233" lon="13.177643255451503"><ele>200.5</ele><time>2026-04-06T16:55:56Z</time></trkpt><trkpt lat="46.23140729223375" lon="13.177480050060849"><ele>199.75</ele><time>2026-04-06T16:55:57Z</time></trkpt><trkpt lat="46.23138919733323" lon="13.177310823425097"><ele>199.0</ele><time>2026-04-06T16:55:58Z</time></trkpt><trkpt lat="46.23136217942363" lon="13.17714346774326"><ele>199.0</ele><time>2026-04-06T16:55:59Z</time></trkpt><trkpt lat="46.23131447614916" lon="13.176990485804403"><ele>199.0</ele><time>2026-04-06T16:56:00Z</time></trkpt><trkpt lat="46.23127198142354" lon="13.176860850633359"><ele>199.0</ele><time>2026-04-06T16:56:01Z</time></trkpt><trkpt lat="46.23122758612807" lon="13.176737674271783"><ele>199.0</ele><time>2026-04-06T16:56:02Z</time></trkpt><trkpt lat="46.23116734267042" lon="13.17659697290322"><ele>199.0</ele><time>2026-04-06T16:56:03Z</time></trkpt><trkpt lat="46.231084130981586" lon="13.176433930099872"><ele>199.0</ele><time>2026-04-06T16:56:04Z</time></trkpt><trkpt lat="46.230977450932365" lon="13.176260736778238"><ele>199.0</ele><time>2026-04-06T16:56:05Z</time></trkpt><trkpt lat="46.23084385050914" lon="13.17607127458902"><ele>199.0</ele><time>2026-04-06T16:56:06Z</time></trkpt><trkpt lat="46.23068252718786" lon="13.175876429178329"><ele>196.5</ele><time>2026-04-06T16:56:07Z</time></trkpt><trkpt lat="46.23050298142358" lon="13.175669370574825"><ele>194.0</ele><time>2026-04-06T16:56:08Z</time></trkpt><trkpt lat="46.230331081602436" lon="13.175452066001785"><ele>194.0</ele><time>2026-04-06T16:56:09Z</time></trkpt><trkpt lat="46.230165842041735" lon="13.175227181447012"><ele>194.0</ele><time>2026-04-06T16:56:10Z</time></trkpt><trkpt lat="46.230014217001454" lon="13.175004702319907"><ele>194.0</ele><time>2026-04-06T16:56:11Z</time></trkpt><trkpt lat="46.22986849458187" lon="13.174789074565233"><ele>193.0</ele><time>2026-04-06T16:56:11.999Z</time></trkpt><trkpt lat="46.22972828319718" lon="13.174573164503476"><ele>192.0</ele><time>2026-04-06T16:56:12.999Z</time></trkpt><trkpt lat="46.22959453820199" lon="13.17437139472515"><ele>191.0</ele><time>2026-04-06T16:56:13.999Z</time></trkpt><trkpt lat="46.22947621321439" lon="13.174204108055545"><ele>191.0</ele><time>2026-04-06T16:56:14.999Z</time></trkpt><trkpt lat="46.22937435731603" lon="13.17406077277328"><ele>191.0</ele><time>2026-04-06T16:56:15.999Z</time></trkpt><trkpt lat="46.22929175356253" lon="13.173951309102828"><ele>191.0</ele><time>2026-04-06T16:56:16.999Z</time></trkpt><trkpt lat="46.229223091982696" lon="13.173861286980513"><ele>191.0</ele><time>2026-04-06T16:56:17.999Z</time></trkpt><trkpt lat="46.22916906981386" lon="13.17378247529881"><ele>191.0</ele><time>2026-04-06T16:56:18.999Z</time></trkpt><trkpt lat="46.22912355679991" lon="13.17370359728258"><ele>191.0</ele><time>2026-04-06T16:56:19.999Z</time></trkpt><trkpt lat="46.22902965332519" lon="13.173642687553668"><ele>191.0</ele><time>2026-04-06T16:56:21.999Z</time></trkpt><trkpt lat="46.22894251300989" lon="13.173788531449961"><ele>191.0</ele><time>2026-04-06T16:56:23.999Z</time></trkpt><trkpt lat="46.22891412907094" lon="13.173972338688948"><ele>191.0</ele><time>2026-04-06T16:56:24.999Z</time></trkpt><trkpt lat="46.22883893915386" lon="13.174192619645634"><ele>190.66666666666666</ele><time>2026-04-06T16:56:25.999Z</time></trkpt><trkpt lat="46.22876969307947" lon="13.174482228421974"><ele>190.33333333333334</ele><time>2026-04-06T16:56:26.999Z</time></trkpt><trkpt lat="46.22867287645999" lon="13.174794187130852"><ele>190.0</ele><time>2026-04-06T16:56:27.999Z</time></trkpt><trkpt lat="46.22855643990485" lon="13.175149454457124"><ele>190.0</ele><time>2026-04-06T16:56:28.999Z</time></trkpt><trkpt lat="46.22841771724325" lon="13.17555088975444"><ele>190.0</ele><time>2026-04-06T16:56:29.999Z</time></trkpt><trkpt lat="46.22826873441903" lon="13.175960757727674"><ele>190.0</ele><time>2026-04-06T16:56:30.999Z</time></trkpt><trkpt lat="46.22811620422079" lon="13.176364151279628"><ele>190.0</ele><time>2026-04-06T16:56:31.999Z</time></trkpt><trkpt lat="46.227968003147616" lon="13.176749504459565"><ele>190.0</ele><time>2026-04-06T16:56:32.999Z</time></trkpt><trkpt lat="46.227828680210486" lon="13.177107796586244"><ele>190.0</ele><time>2026-04-06T16:56:33.999Z</time></trkpt><trkpt lat="46.227710543816016" lon="13.177442165008722"><ele>191.0</ele><time>2026-04-06T16:56:34.999Z</time></trkpt><trkpt lat="46.2276268717083" lon="13.17777440076341"><ele>192.0</ele><time>2026-04-06T16:56:35.999Z</time></trkpt><trkpt lat="46.227578263439554" lon="13.17809450691524"><ele>192.0</ele><time>2026-04-06T16:56:36.999Z</time></trkpt><trkpt lat="46.22753795189567" lon="13.178378020693385"><ele>192.0</ele><time>2026-04-06T16:56:37.999Z</time></trkpt><trkpt lat="46.22748064769889" lon="13.178627025325566"><ele>192.0</ele><time>2026-04-06T16:56:38.999Z</time></trkpt><trkpt lat="46.22739793841416" lon="13.178838541023682"><ele>192.33333333333331</ele><time>2026-04-06T16:56:39.999Z</time></trkpt><trkpt lat="46.22728637776157" lon="13.17902630081332"><ele>192.66666666666666</ele><time>2026-04-06T16:56:40.999Z</time></trkpt><trkpt lat="46.22715323184258" lon="13.1791916705164"><ele>193.0</ele><time>2026-04-06T16:56:41.999Z</time></trkpt><trkpt lat="46.22699190176223" lon="13.179321956087774"><ele>193.0</ele><time>2026-04-06T16:56:42.999Z</time></trkpt><trkpt lat="46.22681773744444" lon="13.179427417195662"><ele>193.0</ele><time>2026-04-06T16:56:43.999Z</time></trkpt><trkpt lat="46.22662549293234" lon="13.179493367253745"><ele>193.0</ele><time>2026-04-06T16:56:44.999Z</time></trkpt><trkpt lat="46.226439463729456" lon="13.179491020290193"><ele>192.66666666666666</ele><time>2026-04-06T16:56:45.999Z</time></trkpt><trkpt lat="46.22627973522396" lon="13.179458045705132"><ele>192.33333333333331</ele><time>2026-04-06T16:56:46.999Z</time></trkpt><trkpt lat="46.226115368733325" lon="13.17940112655283"><ele>192.0</ele><time>2026-04-06T16:56:47.999Z</time></trkpt><trkpt lat="46.22593832463783" lon="13.179283520651705"><ele>192.0</ele><time>2026-04-06T16:56:48.999Z</time></trkpt><trkpt lat="46.225767628813585" lon="13.179112003420391"><ele>192.0</ele><time>2026-04-06T16:56:49.999Z</time></trkpt><trkpt lat="46.22557133852733" lon="13.178937510137859"><ele>192.0</ele><time>2026-04-06T16:56:50.999Z</time></trkpt><trkpt lat="46.22534980826286" lon="13.178765835672447"><ele>192.0</ele><time>2026-04-06T16:56:51.999Z</time></trkpt><trkpt lat="46.225127997754136" lon="13.178569764839704"><ele>192.0</ele><time>2026-04-06T16:56:52.999Z</time></trkpt><trkpt lat="46.22493250787335" lon="13.178393472282487"><ele>192.33333333333331</ele><time>2026-04-06T16:56:53.999Z</time></trkpt><trkpt lat="46.22475704464777" lon="13.17823448620861"><ele>192.66666666666666</ele><time>2026-04-06T16:56:54.999Z</time></trkpt><trkpt lat="46.22460975692914" lon="13.178101195292356"><ele>193.0</ele><time>2026-04-06T16:56:55.999Z</time></trkpt><trkpt lat="46.22449563741193" lon="13.17798997940236"><ele>192.5</ele><time>2026-04-06T16:56:56.999Z</time></trkpt><trkpt lat="46.224415277100654" lon="13.177881687206542"><ele>192.0</ele><time>2026-04-06T16:56:57.999Z</time></trkpt><trkpt lat="46.224353360828076" lon="13.177776722026186"><ele>191.5</ele><time>2026-04-06T16:56:58.999Z</time></trkpt><trkpt lat="46.22427669765588" lon="13.177663243645712"><ele>191.0</ele><time>2026-04-06T16:57:00.999Z</time></trkpt><trkpt lat="46.22411520301624" lon="13.17768276197368"><ele>191.0</ele><time>2026-04-06T16:57:02.999Z</time></trkpt><trkpt lat="46.2239898108781" lon="13.177763699303286"><ele>191.0</ele><time>2026-04-06T16:57:03.999Z</time></trkpt><trkpt lat="46.22384399663097" lon="13.177863816113723"><ele>191.0</ele><time>2026-04-06T16:57:04.999Z</time></trkpt><trkpt lat="46.2236685083182" lon="13.17797294612417"><ele>191.5</ele><time>2026-04-06T16:57:05.999Z</time></trkpt><trkpt lat="46.22346763752504" lon="13.178085783211797"><ele>192.0</ele><time>2026-04-06T16:57:06.999Z</time></trkpt><trkpt lat="46.22324757357141" lon="13.178206110882709"><ele>193.0</ele><time>2026-04-06T16:57:07.999Z</time></trkpt><trkpt lat="46.223011577493736" lon="13.17830103345554"><ele>194.0</ele><time>2026-04-06T16:57:08.999Z</time></trkpt><trkpt lat="46.222811149557764" lon="13.178417611131852"><ele>194.0</ele><time>2026-04-06T16:57:09.999Z</time></trkpt><trkpt lat="46.222630695532345" lon="13.178500419767394"><ele>194.0</ele><time>2026-04-06T16:57:10.999Z</time></trkpt><trkpt lat="46.22247403797122" lon="13.178575230141037"><ele>194.0</ele><time>2026-04-06T16:57:11.999Z</time></trkpt><trkpt lat="46.22232642883149" lon="13.178646776790716"><ele>194.0</ele><time>2026-04-06T16:57:12.999Z</time></trkpt><trkpt lat="46.222184575062556" lon="13.178717866647652"><ele>194.0</ele><time>2026-04-06T16:57:13.999Z</time></trkpt><trkpt lat="46.2220186311679" lon="13.178804691950743"><ele>194.0</ele><time>2026-04-06T16:57:14.999Z</time></trkpt><trkpt lat="46.22185027323016" lon="13.178889560842647"><ele>194.0</ele><time>2026-04-06T16:57:15.999Z</time></trkpt><trkpt lat="46.22169627989757" lon="13.178960866958926"><ele>194.0</ele><time>2026-04-06T16:57:16.999Z</time></trkpt><trkpt lat="46.22155186279062" lon="13.179024352943632"><ele>194.0</ele><time>2026-04-06T16:57:17.999Z</time></trkpt><trkpt lat="46.221414902438255" lon="13.179083183427865"><ele>194.0</ele><time>2026-04-06T16:57:18.999Z</time></trkpt><trkpt lat="46.22127685700093" lon="13.179147014526063"><ele>194.0</ele><time>2026-04-06T16:57:19.999Z</time></trkpt><trkpt lat="46.22114163411632" lon="13.179209693729367"><ele>194.0</ele><time>2026-04-06T16:57:20.999Z</time></trkpt><trkpt lat="46.22101665357836" lon="13.179267221035076"><ele>194.0</ele><time>2026-04-06T16:57:21.999Z</time></trkpt><trkpt lat="46.22092822884335" lon="13.17930971994147"><ele>194.0</ele><time>2026-04-06T16:57:22.999Z</time></trkpt><trkpt lat="46.22083583531743" lon="13.179358326965007"><ele>194.0</ele><time>2026-04-06T16:57:24.999Z</time></trkpt><trkpt lat="46.22077564651016" lon="13.179389037642803"><ele>194.0</ele><time>2026-04-06T16:57:26.999Z</time></trkpt><trkpt lat="46.22069911184797" lon="13.179441469315318"><ele>194.0</ele><time>2026-04-06T16:58:14Z</time></trkpt><trkpt lat="46.22061243401641" lon="13.179495804297028"><ele>194.0</ele><time>2026-04-06T16:58:14.999Z</time></trkpt><trkpt lat="46.220463045480166" lon="13.179560115489625"><ele>193.5</ele><time>2026-04-06T16:58:15.999Z</time></trkpt><trkpt lat="46.220256989300374" lon="13.179652709944948"><ele>193.0</ele><time>2026-04-06T16:58:16.999Z</time></trkpt><trkpt lat="46.21999107843412" lon="13.179780462523986"><ele>192.5</ele><time>2026-04-06T16:58:17.999Z</time></trkpt><trkpt lat="46.21967740039381" lon="13.179940728242205"><ele>192.0</ele><time>2026-04-06T16:58:18.999Z</time></trkpt><trkpt lat="46.21935358783842" lon="13.180102210650698"><ele>192.0</ele><time>2026-04-06T16:58:19.999Z</time></trkpt><trkpt lat="46.21906178466634" lon="13.180247041024737"><ele>192.0</ele><time>2026-04-06T16:58:20.999Z</time></trkpt><trkpt lat="46.21880231669035" lon="13.180373910807372"><ele>193.0</ele><time>2026-04-06T16:58:21.999Z</time></trkpt><trkpt lat="46.21856638651175" lon="13.180488935689617"><ele>194.0</ele><time>2026-04-06T16:58:22.999Z</time></trkpt><trkpt lat="46.21834747790544" lon="13.180593892200884"><ele>194.33333333333334</ele><time>2026-04-06T16:58:23.999Z</time></trkpt><trkpt lat="46.21813751321376" lon="13.18069703288067"><ele>194.66666666666669</ele><time>2026-04-06T16:58:24.999Z</time></trkpt><trkpt lat="46.21793180401271" lon="13.180801196613867"><ele>195.0</ele><time>2026-04-06T16:58:25.999Z</time></trkpt><trkpt lat="46.21773418235738" lon="13.180897536884496"><ele>195.0</ele><time>2026-04-06T16:58:26.999Z</time></trkpt><trkpt lat="46.217533193424835" lon="13.180995386860664"><ele>195.0</ele><time>2026-04-06T16:58:27.999Z</time></trkpt><trkpt lat="46.21732492064813" lon="13.181097326426968"><ele>195.0</ele><time>2026-04-06T16:58:28.999Z</time></trkpt><trkpt lat="46.217112660211406" lon="13.181203142178255"><ele>194.0</ele><time>2026-04-06T16:58:29.999Z</time></trkpt><trkpt lat="46.21689814235427" lon="13.181309865137203"><ele>193.0</ele><time>2026-04-06T16:58:30.999Z</time></trkpt><trkpt lat="46.21668418510594" lon="13.181413479683352"><ele>193.0</ele><time>2026-04-06T16:58:31.999Z</time></trkpt><trkpt lat="46.21647137129398" lon="13.181513505885588"><ele>193.0</ele><time>2026-04-06T16:58:32.999Z</time></trkpt><trkpt lat="46.21626033712589" lon="13.181615469188975"><ele>193.0</ele><time>2026-04-06T16:58:33.999Z</time></trkpt><trkpt lat="46.21605162157926" lon="13.181715276033156"><ele>193.0</ele><time>2026-04-06T16:58:34.999Z</time></trkpt><trkpt lat="46.21584440986257" lon="13.18181606452737"><ele>193.0</ele><time>2026-04-06T16:58:35.999Z</time></trkpt><trkpt lat="46.215636846223454" lon="13.181920966917778"><ele>193.0</ele><time>2026-04-06T16:58:36.999Z</time></trkpt><trkpt lat="46.21543169450499" lon="13.18202782766747"><ele>193.33333333333331</ele><time>2026-04-06T16:58:37.999Z</time></trkpt><trkpt lat="46.21522456579309" lon="13.18213790783831"><ele>193.66666666666669</ele><time>2026-04-06T16:58:38.999Z</time></trkpt><trkpt lat="46.215012949308196" lon="13.182253653816723"><ele>194.0</ele><time>2026-04-06T16:58:39.999Z</time></trkpt><trkpt lat="46.214799607789196" lon="13.18237774670108"><ele>194.0</ele><time>2026-04-06T16:58:40.999Z</time></trkpt><trkpt lat="46.21458252743314" lon="13.18251061698171"><ele>194.0</ele><time>2026-04-06T16:58:41.999Z</time></trkpt><trkpt lat="46.21435827654682" lon="13.182653041057439"><ele>194.0</ele><time>2026-04-06T16:58:42.999Z</time></trkpt><trkpt lat="46.21412854545816" lon="13.182800652832066"><ele>194.0</ele><time>2026-04-06T16:58:43.999Z</time></trkpt><trkpt lat="46.21388894533416" lon="13.182956724053913"><ele>195.0</ele><time>2026-04-06T16:58:44.999Z</time></trkpt><trkpt lat="46.21364624672053" lon="13.183114470111018"><ele>196.0</ele><time>2026-04-06T16:58:45.999Z</time></trkpt><trkpt lat="46.21339988155124" lon="13.183273756805773"><ele>195.5</ele><time>2026-04-06T16:58:46.999Z</time></trkpt><trkpt lat="46.21314947363935" lon="13.18343666182484"><ele>195.0</ele><time>2026-04-06T16:58:47.999Z</time></trkpt><trkpt lat="46.21289754392099" lon="13.18360157112204"><ele>195.0</ele><time>2026-04-06T16:58:48.999Z</time></trkpt><trkpt lat="46.212643317229286" lon="13.183766632834013"><ele>195.0</ele><time>2026-04-06T16:58:49.999Z</time></trkpt><trkpt lat="46.212389453374634" lon="13.183931903206055"><ele>194.0</ele><time>2026-04-06T16:58:50.999Z</time></trkpt><trkpt lat="46.212133605244816" lon="13.184098621479716"><ele>193.0</ele><time>2026-04-06T16:58:51.999Z</time></trkpt><trkpt lat="46.21187760420115" lon="13.184264832373692"><ele>193.0</ele><time>2026-04-06T16:58:52.999Z</time></trkpt><trkpt lat="46.21162191787865" lon="13.18443273304318"><ele>193.0</ele><time>2026-04-06T16:58:53.999Z</time></trkpt><trkpt lat="46.2113659623291" lon="13.184599806161208"><ele>193.0</ele><time>2026-04-06T16:58:54.999Z</time></trkpt><trkpt lat="46.21111082891711" lon="13.184764159057284"><ele>193.0</ele><time>2026-04-06T16:58:55.999Z</time></trkpt><trkpt lat="46.21085791539836" lon="13.184928957497224"><ele>193.5</ele><time>2026-04-06T16:58:56.999Z</time></trkpt><trkpt lat="46.210607390503256" lon="13.185095208038142"><ele>194.0</ele><time>2026-04-06T16:58:57.999Z</time></trkpt><trkpt lat="46.21036222603058" lon="13.185256816036468"><ele>194.0</ele><time>2026-04-06T16:58:58.999Z</time></trkpt><trkpt lat="46.210119921809664" lon="13.185415131564243"><ele>194.0</ele><time>2026-04-06T16:58:59.999Z</time></trkpt><trkpt lat="46.20988296438056" lon="13.185572523520955"><ele>194.0</ele><time>2026-04-06T16:59:00.999Z</time></trkpt><trkpt lat="46.20965120905147" lon="13.185726748077455"><ele>194.0</ele><time>2026-04-06T16:59:01.999Z</time></trkpt><trkpt lat="46.209416952610624" lon="13.185881767794848"><ele>194.0</ele><time>2026-04-06T16:59:02.999Z</time></trkpt><trkpt lat="46.20918245595843" lon="13.186037620327504"><ele>194.0</ele><time>2026-04-06T16:59:03.999Z</time></trkpt><trkpt lat="46.20895295577381" lon="13.186189428586587"><ele>195.0</ele><time>2026-04-06T16:59:04.999Z</time></trkpt><trkpt lat="46.208723004767926" lon="13.1863404965086"><ele>196.0</ele><time>2026-04-06T16:59:05.999Z</time></trkpt><trkpt lat="46.20849581608946" lon="13.186489405732907"><ele>196.0</ele><time>2026-04-06T16:59:06.999Z</time></trkpt><trkpt lat="46.208268988057746" lon="13.186639038749732"><ele>196.0</ele><time>2026-04-06T16:59:07.999Z</time></trkpt><trkpt lat="46.208040090316004" lon="13.186791243700618"><ele>195.0</ele><time>2026-04-06T16:59:08.999Z</time></trkpt><trkpt lat="46.20780986415479" lon="13.186942256500771"><ele>194.0</ele><time>2026-04-06T16:59:09.999Z</time></trkpt><trkpt lat="46.20757787532762" lon="13.187092878651343"><ele>194.0</ele><time>2026-04-06T16:59:10.999Z</time></trkpt><trkpt lat="46.20734624545933" lon="13.187243638318698"><ele>194.0</ele><time>2026-04-06T16:59:11.999Z</time></trkpt><trkpt lat="46.20711354992643" lon="13.18739682153039"><ele>194.0</ele><time>2026-04-06T16:59:12.999Z</time></trkpt><trkpt lat="46.20688037223923" lon="13.187551058180995"><ele>194.0</ele><time>2026-04-06T16:59:13.999Z</time></trkpt><trkpt lat="46.20664585175816" lon="13.187706122553703"><ele>194.0</ele><time>2026-04-06T16:59:14.999Z</time></trkpt><trkpt lat="46.20641157028495" lon="13.187861637960788"><ele>194.0</ele><time>2026-04-06T16:59:15.999Z</time></trkpt><trkpt lat="46.20617872579287" lon="13.188017421394777"><ele>194.0</ele><time>2026-04-06T16:59:16.999Z</time></trkpt><trkpt lat="46.205946707413474" lon="13.188170669819787"><ele>194.0</ele><time>2026-04-06T16:59:17.999Z</time></trkpt><trkpt lat="46.205717042041464" lon="13.188321779463125"><ele>193.0</ele><time>2026-04-06T16:59:18.999Z</time></trkpt><trkpt lat="46.20548994898093" lon="13.188472648989144"><ele>192.0</ele><time>2026-04-06T16:59:19.999Z</time></trkpt><trkpt lat="46.20526441868778" lon="13.188619013616268"><ele>192.0</ele><time>2026-04-06T16:59:20.999Z</time></trkpt><trkpt lat="46.205038058272244" lon="13.188764805921746"><ele>192.0</ele><time>2026-04-06T16:59:21.999Z</time></trkpt><trkpt lat="46.20481252078386" lon="13.188911130910515"><ele>192.0</ele><time>2026-04-06T16:59:22.999Z</time></trkpt><trkpt lat="46.20459133000068" lon="13.189060339757509"><ele>192.0</ele><time>2026-04-06T16:59:23.999Z</time></trkpt><trkpt lat="46.20437301205884" lon="13.189207380620086"><ele>192.0</ele><time>2026-04-06T16:59:24.999Z</time></trkpt><trkpt lat="46.204155068903354" lon="13.189349527685726"><ele>192.0</ele><time>2026-04-06T16:59:25.999Z</time></trkpt><trkpt lat="46.2039420581471" lon="13.189488739929224"><ele>193.0</ele><time>2026-04-06T16:59:26.999Z</time></trkpt><trkpt lat="46.203730146815296" lon="13.189624451185287"><ele>194.0</ele><time>2026-04-06T16:59:27.999Z</time></trkpt><trkpt lat="46.20351910935191" lon="13.189761237056675"><ele>195.0</ele><time>2026-04-06T16:59:28.999Z</time></trkpt><trkpt lat="46.20330815939039" lon="13.18990046250169"><ele>196.0</ele><time>2026-04-06T16:59:29.999Z</time></trkpt><trkpt lat="46.20309310423281" lon="13.190044971387996"><ele>196.0</ele><time>2026-04-06T16:59:30.999Z</time></trkpt><trkpt lat="46.202876439701946" lon="13.190190432619728"><ele>196.0</ele><time>2026-04-06T16:59:31.999Z</time></trkpt><trkpt lat="46.20266185396757" lon="13.190335295795368"><ele>196.0</ele><time>2026-04-06T16:59:32.999Z</time></trkpt><trkpt lat="46.20245282643689" lon="13.19048084549199"><ele>196.0</ele><time>2026-04-06T16:59:33.999Z</time></trkpt><trkpt lat="46.20224842279849" lon="13.190624360966465"><ele>196.66666666666666</ele><time>2026-04-06T16:59:34.999Z</time></trkpt><trkpt lat="46.20204713978921" lon="13.190763027936645"><ele>197.33333333333331</ele><time>2026-04-06T16:59:35.999Z</time></trkpt><trkpt lat="46.20184703575605" lon="13.190897365418685"><ele>198.0</ele><time>2026-04-06T16:59:36.999Z</time></trkpt><trkpt lat="46.20164966484756" lon="13.191027247394436"><ele>199.0</ele><time>2026-04-06T16:59:37.999Z</time></trkpt><trkpt lat="46.20145656694504" lon="13.19115189447545"><ele>200.0</ele><time>2026-04-06T16:59:38.999Z</time></trkpt><trkpt lat="46.201267215239994" lon="13.191275525766411"><ele>201.0</ele><time>2026-04-06T16:59:39.999Z</time></trkpt><trkpt lat="46.20108264019972" lon="13.191396919434002"><ele>201.33333333333331</ele><time>2026-04-06T16:59:40.999Z</time></trkpt><trkpt lat="46.20090579730334" lon="13.191515501241202"><ele>201.66666666666666</ele><time>2026-04-06T16:59:42Z</time></trkpt><trkpt lat="46.20073022468628" lon="13.191634744028313"><ele>202.0</ele><time>2026-04-06T16:59:43Z</time></trkpt><trkpt lat="46.20054013512839" lon="13.191767145601942"><ele>204.0</ele><time>2026-04-06T16:59:44Z</time></trkpt><trkpt lat="46.20033963193496" lon="13.191895527921321"><ele>206.0</ele><time>2026-04-06T16:59:45Z</time></trkpt><trkpt lat="46.20013979542305" lon="13.192012406941817"><ele>208.0</ele><time>2026-04-06T16:59:46Z</time></trkpt><trkpt lat="46.1999564719229" lon="13.192118025988355"><ele>207.66666666666666</ele><time>2026-04-06T16:59:47Z</time></trkpt><trkpt lat="46.19977959153938" lon="13.192206315380673"><ele>207.33333333333331</ele><time>2026-04-06T16:59:48Z</time></trkpt><trkpt lat="46.19960762110792" lon="13.192275715494004"><ele>207.0</ele><time>2026-04-06T16:59:49Z</time></trkpt><trkpt lat="46.199440443722985" lon="13.19233174147279"><ele>206.0</ele><time>2026-04-06T16:59:50Z</time></trkpt><trkpt lat="46.19926755041697" lon="13.192386709120903"><ele>205.0</ele><time>2026-04-06T16:59:51Z</time></trkpt><trkpt lat="46.19907930905444" lon="13.19244072411543"><ele>204.0</ele><time>2026-04-06T16:59:52Z</time></trkpt><trkpt lat="46.19888664231298" lon="13.19248917091232"><ele>201.66666666666669</ele><time>2026-04-06T16:59:53Z</time></trkpt><trkpt lat="46.19870355390945" lon="13.192533494806227"><ele>199.33333333333334</ele><time>2026-04-06T16:59:54Z</time></trkpt><trkpt lat="46.19853655580261" lon="13.192576983835067"><ele>197.0</ele><time>2026-04-06T16:59:55Z</time></trkpt><trkpt lat="46.198379139593115" lon="13.192619432960102"><ele>197.0</ele><time>2026-04-06T16:59:56Z</time></trkpt><trkpt lat="46.19822627416161" lon="13.192658511051375"><ele>197.0</ele><time>2026-04-06T16:59:57Z</time></trkpt><trkpt lat="46.19807878890613" lon="13.192697603500033"><ele>197.0</ele><time>2026-04-06T16:59:58Z</time></trkpt><trkpt lat="46.19792674537704" lon="13.192738600923585"><ele>196.66666666666669</ele><time>2026-04-06T16:59:59Z</time></trkpt><trkpt lat="46.19777116517495" lon="13.192779480360292"><ele>196.33333333333331</ele><time>2026-04-06T17:00:00Z</time></trkpt><trkpt lat="46.19761678396588" lon="13.192818546343073"><ele>196.0</ele><time>2026-04-06T17:00:01Z</time></trkpt><trkpt lat="46.197463444165564" lon="13.192856195245792"><ele>196.0</ele><time>2026-04-06T17:00:02Z</time></trkpt><trkpt lat="46.19731790547472" lon="13.192894102335778"><ele>196.0</ele><time>2026-04-06T17:00:03Z</time></trkpt><trkpt lat="46.19718194072058" lon="13.192929207934865"><ele>196.0</ele><time>2026-04-06T17:00:04Z</time></trkpt><trkpt lat="46.19705536757406" lon="13.192961012659364"><ele>196.0</ele><time>2026-04-06T17:00:05Z</time></trkpt><trkpt lat="46.19693983869589" lon="13.192990188242954"><ele>196.0</ele><time>2026-04-06T17:00:06Z</time></trkpt><trkpt lat="46.19683017944731" lon="13.193017668463519"><ele>196.0</ele><time>2026-04-06T17:00:07Z</time></trkpt><trkpt lat="46.19672201436588" lon="13.193047810539971"><ele>196.0</ele><time>2026-04-06T17:00:08Z</time></trkpt><trkpt lat="46.19660874208034" lon="13.193080476205903"><ele>196.0</ele><time>2026-04-06T17:00:09Z</time></trkpt><trkpt lat="46.19649531662226" lon="13.19312176154473"><ele>196.5</ele><time>2026-04-06T17:00:10Z</time></trkpt><trkpt lat="46.196380545277364" lon="13.193173410912534"><ele>197.0</ele><time>2026-04-06T17:00:11Z</time></trkpt><trkpt lat="46.1962622356574" lon="13.193232937422836"><ele>197.5</ele><time>2026-04-06T17:00:12Z</time></trkpt><trkpt lat="46.196146218238646" lon="13.19329615593006"><ele>198.0</ele><time>2026-04-06T17:00:13Z</time></trkpt><trkpt lat="46.19603297307935" lon="13.193353009575631"><ele>198.0</ele><time>2026-04-06T17:00:14Z</time></trkpt><trkpt lat="46.19591025938899" lon="13.193419868698127"><ele>198.0</ele><time>2026-04-06T17:00:15Z</time></trkpt><trkpt lat="46.19578656756337" lon="13.193487158610287"><ele>198.0</ele><time>2026-04-06T17:00:16Z</time></trkpt><trkpt lat="46.19566736479544" lon="13.193549568297191"><ele>198.0</ele><time>2026-04-06T17:00:17Z</time></trkpt><trkpt lat="46.19554737856121" lon="13.193613518608643"><ele>197.25</ele><time>2026-04-06T17:00:18Z</time></trkpt><trkpt lat="46.19542886599136" lon="13.193674880444274"><ele>196.5</ele><time>2026-04-06T17:00:19Z</time></trkpt><trkpt lat="46.19531135304414" lon="13.193734370087322"><ele>195.75</ele><time>2026-04-06T17:00:20Z</time></trkpt><trkpt lat="46.19519399415564" lon="13.193800419396801"><ele>195.0</ele><time>2026-04-06T17:00:21Z</time></trkpt><trkpt lat="46.195077359863134" lon="13.19386513615671"><ele>195.0</ele><time>2026-04-06T17:00:21.999Z</time></trkpt><trkpt lat="46.19496722963249" lon="13.193923389607503"><ele>195.0</ele><time>2026-04-06T17:00:22.999Z</time></trkpt><trkpt lat="46.19486295451166" lon="13.193979434989885"><ele>195.0</ele><time>2026-04-06T17:00:23.999Z</time></trkpt><trkpt lat="46.19476566491112" lon="13.194033154994578"><ele>195.0</ele><time>2026-04-06T17:00:24.999Z</time></trkpt><trkpt lat="46.19467067350761" lon="13.194081324079782"><ele>195.0</ele><time>2026-04-06T17:00:25.999Z</time></trkpt><trkpt lat="46.19457668448516" lon="13.194127703603119"><ele>194.66666666666666</ele><time>2026-04-06T17:00:26.999Z</time></trkpt><trkpt lat="46.194483358616445" lon="13.19417223991611"><ele>194.33333333333331</ele><time>2026-04-06T17:00:27.999Z</time></trkpt><trkpt lat="46.1943983225017" lon="13.194212572184798"><ele>194.0</ele><time>2026-04-06T17:00:28.999Z</time></trkpt><trkpt lat="46.19431901222967" lon="13.194252805704686"><ele>193.66666666666666</ele><time>2026-04-06T17:00:29.999Z</time></trkpt><trkpt lat="46.19424109474339" lon="13.194289927546437"><ele>193.33333333333331</ele><time>2026-04-06T17:00:30.999Z</time></trkpt><trkpt lat="46.19416109595396" lon="13.194332452693208"><ele>193.0</ele><time>2026-04-06T17:00:31.999Z</time></trkpt><trkpt lat="46.194080595450444" lon="13.194383237485386"><ele>192.66666666666666</ele><time>2026-04-06T17:00:32.999Z</time></trkpt><trkpt lat="46.19399793834336" lon="13.194434756327015"><ele>192.33333333333331</ele><time>2026-04-06T17:00:33.999Z</time></trkpt><trkpt lat="46.193916721092215" lon="13.19448474888914"><ele>192.0</ele><time>2026-04-06T17:00:34.999Z</time></trkpt><trkpt lat="46.19384100725677" lon="13.194529049548136"><ele>191.66666666666666</ele><time>2026-04-06T17:00:35.999Z</time></trkpt><trkpt lat="46.19376942862942" lon="13.194567037966062"><ele>191.33333333333331</ele><time>2026-04-06T17:00:36.999Z</time></trkpt><trkpt lat="46.19370494041396" lon="13.19460219460729"><ele>191.0</ele><time>2026-04-06T17:00:37.999Z</time></trkpt><trkpt lat="46.19359238639593" lon="13.194661506466323"><ele>191.0</ele><time>2026-04-06T17:00:39.999Z</time></trkpt><trkpt lat="46.19347118782069" lon="13.194714112092814"><ele>191.0</ele><time>2026-04-06T17:00:41.999Z</time></trkpt><trkpt lat="46.1934055565248" lon="13.194722152747827"><ele>191.0</ele><time>2026-04-06T17:00:42.999Z</time></trkpt><trkpt lat="46.19329436702912" lon="13.19471017885433"><ele>191.0</ele><time>2026-04-06T17:00:44.999Z</time></trkpt><trkpt lat="46.193177474296014" lon="13.194743610204094"><ele>191.0</ele><time>2026-04-06T17:00:46.999Z</time></trkpt><trkpt lat="46.19312247973148" lon="13.194817828758437"><ele>191.4</ele><time>2026-04-06T17:00:47.999Z</time></trkpt><trkpt lat="46.19306144456261" lon="13.19490410015547"><ele>191.8</ele><time>2026-04-06T17:00:48.999Z</time></trkpt><trkpt lat="46.19298975959587" lon="13.194984414693735"><ele>192.20000000000002</ele><time>2026-04-06T17:00:49.999Z</time></trkpt><trkpt lat="46.19291191864042" lon="13.195070878610819"><ele>192.60000000000002</ele><time>2026-04-06T17:00:50.999Z</time></trkpt><trkpt lat="46.19282495570031" lon="13.195158812613483"><ele>193.0</ele><time>2026-04-06T17:00:51.999Z</time></trkpt><trkpt lat="46.19273433949186" lon="13.19524456244648"><ele>193.0</ele><time>2026-04-06T17:00:52.999Z</time></trkpt><trkpt lat="46.19264019455352" lon="13.195329720049996"><ele>193.0</ele><time>2026-04-06T17:00:53.999Z</time></trkpt><trkpt lat="46.19253861657192" lon="13.195412520811345"><ele>193.0</ele><time>2026-04-06T17:00:54.999Z</time></trkpt><trkpt lat="46.192428685684156" lon="13.195495217959902"><ele>193.0</ele><time>2026-04-06T17:00:55.999Z</time></trkpt><trkpt lat="46.192318337551896" lon="13.195580753341202"><ele>192.5</ele><time>2026-04-06T17:00:56.999Z</time></trkpt><trkpt lat="46.192208100342974" lon="13.195668807514092"><ele>192.0</ele><time>2026-04-06T17:00:57.999Z</time></trkpt><trkpt lat="46.19209223306809" lon="13.195761084223657"><ele>191.5</ele><time>2026-04-06T17:00:58.999Z</time></trkpt><trkpt lat="46.19197035610494" lon="13.195852536047548"><ele>191.0</ele><time>2026-04-06T17:00:59.999Z</time></trkpt><trkpt lat="46.1918462933953" lon="13.195945834252505"><ele>191.0</ele><time>2026-04-06T17:01:00.999Z</time></trkpt><trkpt lat="46.19171918201114" lon="13.196042183584806"><ele>191.0</ele><time>2026-04-06T17:01:01.999Z</time></trkpt><trkpt lat="46.19159195758975" lon="13.196137569307453"><ele>191.0</ele><time>2026-04-06T17:01:02.999Z</time></trkpt><trkpt lat="46.19146324585242" lon="13.19623252414676"><ele>191.0</ele><time>2026-04-06T17:01:03.999Z</time></trkpt><trkpt lat="46.19133321800669" lon="13.19633137418806"><ele>190.33333333333331</ele><time>2026-04-06T17:01:04.999Z</time></trkpt><trkpt lat="46.191196545422464" lon="13.196438013470075"><ele>189.66666666666666</ele><time>2026-04-06T17:01:05.999Z</time></trkpt><trkpt lat="46.19104822255975" lon="13.196555560648452"><ele>189.0</ele><time>2026-04-06T17:01:06.999Z</time></trkpt><trkpt lat="46.19089204120893" lon="13.196680742102359"><ele>188.66666666666666</ele><time>2026-04-06T17:01:07.999Z</time></trkpt><trkpt lat="46.19072628084059" lon="13.19681094240374"><ele>188.33333333333331</ele><time>2026-04-06T17:01:08.999Z</time></trkpt><trkpt lat="46.19055424368981" lon="13.196943602065309"><ele>188.0</ele><time>2026-04-06T17:01:09.999Z</time></trkpt><trkpt lat="46.190383483543705" lon="13.197074680585054"><ele>188.0</ele><time>2026-04-06T17:01:10.999Z</time></trkpt><trkpt lat="46.1902136938824" lon="13.197206702704355"><ele>188.0</ele><time>2026-04-06T17:01:11.999Z</time></trkpt><trkpt lat="46.19004575782472" lon="13.197334705118305"><ele>188.0</ele><time>2026-04-06T17:01:12.999Z</time></trkpt><trkpt lat="46.18988042045715" lon="13.197459091916718"><ele>188.0</ele><time>2026-04-06T17:01:13.999Z</time></trkpt><trkpt lat="46.189717606885026" lon="13.197583106694106"><ele>188.0</ele><time>2026-04-06T17:01:14.999Z</time></trkpt><trkpt lat="46.189555495564576" lon="13.197709655967701"><ele>188.0</ele><time>2026-04-06T17:01:15.999Z</time></trkpt><trkpt lat="46.18938576002132" lon="13.197844203939514"><ele>188.0</ele><time>2026-04-06T17:01:16.999Z</time></trkpt><trkpt lat="46.189206462428444" lon="13.197986542459404"><ele>188.0</ele><time>2026-04-06T17:01:17.999Z</time></trkpt><trkpt lat="46.18901121445603" lon="13.198109329250595"><ele>188.0</ele><time>2026-04-06T17:01:18.999Z</time></trkpt><trkpt lat="46.18882103660819" lon="13.198255969706832"><ele>187.0</ele><time>2026-04-06T17:01:19.999Z</time></trkpt><trkpt lat="46.18864189648853" lon="13.198426838213393"><ele>186.0</ele><time>2026-04-06T17:01:20.999Z</time></trkpt><trkpt lat="46.18845793481438" lon="13.198583570864844"><ele>185.0</ele><time>2026-04-06T17:01:21.999Z</time></trkpt><trkpt lat="46.18827438340913" lon="13.198743891388256"><ele>184.66666666666666</ele><time>2026-04-06T17:01:22.999Z</time></trkpt><trkpt lat="46.1880837844334" lon="13.198888606230986"><ele>184.33333333333334</ele><time>2026-04-06T17:01:23.999Z</time></trkpt><trkpt lat="46.187899442320905" lon="13.199055421207579"><ele>184.0</ele><time>2026-04-06T17:01:24.999Z</time></trkpt><trkpt lat="46.18772095123753" lon="13.19924250946657"><ele>184.0</ele><time>2026-04-06T17:01:25.999Z</time></trkpt><trkpt lat="46.1875299281739" lon="13.199403190279185"><ele>184.0</ele><time>2026-04-06T17:01:26.999Z</time></trkpt><trkpt lat="46.18733630067219" lon="13.19955509986279"><ele>184.0</ele><time>2026-04-06T17:01:27.999Z</time></trkpt><trkpt lat="46.18714027757214" lon="13.199703351109696"><ele>184.66666666666669</ele><time>2026-04-06T17:01:28.999Z</time></trkpt><trkpt lat="46.1869458523134" lon="13.199835999932047"><ele>185.33333333333334</ele><time>2026-04-06T17:01:29.999Z</time></trkpt><trkpt lat="46.186755371484296" lon="13.199958013436673"><ele>186.0</ele><time>2026-04-06T17:01:30.999Z</time></trkpt><trkpt lat="46.18656925358887" lon="13.200072174560223"><ele>185.33333333333334</ele><time>2026-04-06T17:01:31.999Z</time></trkpt><trkpt lat="46.18638710145929" lon="13.200186509639911"><ele>184.66666666666669</ele><time>2026-04-06T17:01:32.999Z</time></trkpt><trkpt lat="46.18620790008211" lon="13.200305311595244"><ele>184.0</ele><time>2026-04-06T17:01:33.999Z</time></trkpt><trkpt lat="46.18602857694698" lon="13.20041986353758"><ele>184.0</ele><time>2026-04-06T17:01:34.999Z</time></trkpt><trkpt lat="46.185852403460416" lon="13.200533599381645"><ele>184.0</ele><time>2026-04-06T17:01:35.999Z</time></trkpt><trkpt lat="46.18568230509048" lon="13.200644193845537"><ele>184.0</ele><time>2026-04-06T17:01:36.999Z</time></trkpt><trkpt lat="46.18551611692662" lon="13.200758470977998"><ele>184.66666666666669</ele><time>2026-04-06T17:01:37.999Z</time></trkpt><trkpt lat="46.185345306459276" lon="13.200872342901981"><ele>185.33333333333334</ele><time>2026-04-06T17:01:38.999Z</time></trkpt><trkpt lat="46.185170892124454" lon="13.200988836042697"><ele>186.0</ele><time>2026-04-06T17:01:39.999Z</time></trkpt><trkpt lat="46.184994182629346" lon="13.201102731592995"><ele>185.66666666666666</ele><time>2026-04-06T17:01:40.999Z</time></trkpt><trkpt lat="46.18481541943312" lon="13.201217751799703"><ele>185.33333333333331</ele><time>2026-04-06T17:01:41.999Z</time></trkpt><trkpt lat="46.18463372651577" lon="13.20133414939388"><ele>185.0</ele><time>2026-04-06T17:01:42.999Z</time></trkpt><trkpt lat="46.18445285800345" lon="13.201449863164356"><ele>185.0</ele><time>2026-04-06T17:01:43.999Z</time></trkpt><trkpt lat="46.18427447111433" lon="13.201564312110367"><ele>185.0</ele><time>2026-04-06T17:01:44.999Z</time></trkpt><trkpt lat="46.18409823986109" lon="13.201675900497378"><ele>185.0</ele><time>2026-04-06T17:01:45.999Z</time></trkpt><trkpt lat="46.18392408056251" lon="13.20178874718849"><ele>185.0</ele><time>2026-04-06T17:01:46.999Z</time></trkpt><trkpt lat="46.18375352200031" lon="13.201898089359501"><ele>185.0</ele><time>2026-04-06T17:01:48Z</time></trkpt><trkpt lat="46.183587248056924" lon="13.202006179626753"><ele>185.0</ele><time>2026-04-06T17:01:49Z</time></trkpt><trkpt lat="46.18342593266696" lon="13.202109748526512"><ele>185.0</ele><time>2026-04-06T17:01:50Z</time></trkpt><trkpt lat="46.18327146204555" lon="13.202208708831167"><ele>185.0</ele><time>2026-04-06T17:01:51Z</time></trkpt><trkpt lat="46.18312096149272" lon="13.202303549181432"><ele>185.0</ele><time>2026-04-06T17:01:52Z</time></trkpt><trkpt lat="46.18297460844842" lon="13.202396507567075"><ele>185.0</ele><time>2026-04-06T17:01:53Z</time></trkpt><trkpt lat="46.18283787127912" lon="13.20248400721232"><ele>185.0</ele><time>2026-04-06T17:01:54Z</time></trkpt><trkpt lat="46.18270071732087" lon="13.202569582229161"><ele>185.0</ele><time>2026-04-06T17:01:55Z</time></trkpt><trkpt lat="46.18256222250321" lon="13.202659336831784"><ele>185.0</ele><time>2026-04-06T17:01:56Z</time></trkpt><trkpt lat="46.18242391798501" lon="13.202748775687304"><ele>185.0</ele><time>2026-04-06T17:01:57Z</time></trkpt><trkpt lat="46.18228717268128" lon="13.202836145484449"><ele>185.0</ele><time>2026-04-06T17:01:58Z</time></trkpt><trkpt lat="46.18215512383574" lon="13.202922832442093"><ele>185.0</ele><time>2026-04-06T17:01:59Z</time></trkpt><trkpt lat="46.182016799923886" lon="13.202987633827185"><ele>183.75</ele><time>2026-04-06T17:02:00Z</time></trkpt><trkpt lat="46.18188394583544" lon="13.203072400929997"><ele>182.5</ele><time>2026-04-06T17:02:01Z</time></trkpt><trkpt lat="46.181748265234184" lon="13.203158611938944"><ele>181.25</ele><time>2026-04-06T17:02:02Z</time></trkpt><trkpt lat="46.18161012326933" lon="13.203246451780295"><ele>180.0</ele><time>2026-04-06T17:02:03Z</time></trkpt><trkpt lat="46.1814731148112" lon="13.203333732706925"><ele>180.0</ele><time>2026-04-06T17:02:04Z</time></trkpt><trkpt lat="46.181335253714465" lon="13.20342375026089"><ele>180.0</ele><time>2026-04-06T17:02:05Z</time></trkpt><trkpt lat="46.18119707540169" lon="13.203533710449234"><ele>180.0</ele><time>2026-04-06T17:02:06Z</time></trkpt><trkpt lat="46.18103431631207" lon="13.203624085150174"><ele>180.0</ele><time>2026-04-06T17:02:07Z</time></trkpt><trkpt lat="46.180862206288474" lon="13.20372418535345"><ele>180.0</ele><time>2026-04-06T17:02:08Z</time></trkpt><trkpt lat="46.18067896382682" lon="13.203835288026733"><ele>180.0</ele><time>2026-04-06T17:02:09Z</time></trkpt><trkpt lat="46.18049266005502" lon="13.203946525561156"><ele>179.66666666666666</ele><time>2026-04-06T17:02:10Z</time></trkpt><trkpt lat="46.180309939849884" lon="13.204059767938443"><ele>179.33333333333331</ele><time>2026-04-06T17:02:11Z</time></trkpt><trkpt lat="46.18013375964628" lon="13.204168486396863"><ele>179.0</ele><time>2026-04-06T17:02:12Z</time></trkpt><trkpt lat="46.17996289076507" lon="13.20427501805612"><ele>178.0</ele><time>2026-04-06T17:02:13Z</time></trkpt><trkpt lat="46.17979357563456" lon="13.204370701465981"><ele>177.0</ele><time>2026-04-06T17:02:14Z</time></trkpt><trkpt lat="46.17962283468472" lon="13.204454081407416"><ele>176.0</ele><time>2026-04-06T17:02:15Z</time></trkpt><trkpt lat="46.17945226414502" lon="13.204519038413375"><ele>176.0</ele><time>2026-04-06T17:02:16Z</time></trkpt><trkpt lat="46.179281638490856" lon="13.204574095382995"><ele>176.0</ele><time>2026-04-06T17:02:17Z</time></trkpt><trkpt lat="46.179113970176516" lon="13.204622516887822"><ele>176.0</ele><time>2026-04-06T17:02:18Z</time></trkpt><trkpt lat="46.17895348279707" lon="13.204663216563974"><ele>176.5</ele><time>2026-04-06T17:02:19Z</time></trkpt><trkpt lat="46.17880202420943" lon="13.204699755277227"><ele>177.0</ele><time>2026-04-06T17:02:20Z</time></trkpt><trkpt lat="46.17866013070958" lon="13.204732439598322"><ele>177.5</ele><time>2026-04-06T17:02:20.999Z</time></trkpt><trkpt lat="46.178522277504335" lon="13.204764408853721"><ele>178.0</ele><time>2026-04-06T17:02:21.999Z</time></trkpt><trkpt lat="46.17838865240605" lon="13.204797584559097"><ele>178.0</ele><time>2026-04-06T17:02:22.999Z</time></trkpt><trkpt lat="46.17825508583324" lon="13.204834368797927"><ele>178.0</ele><time>2026-04-06T17:02:23.999Z</time></trkpt><trkpt lat="46.17811158043697" lon="13.204840645987318"><ele>178.0</ele><time>2026-04-06T17:02:24.999Z</time></trkpt><trkpt lat="46.177964097383544" lon="13.204870990728612"><ele>178.0</ele><time>2026-04-06T17:02:25.999Z</time></trkpt><trkpt lat="46.17781199267982" lon="13.204902286675374"><ele>178.33333333333334</ele><time>2026-04-06T17:02:26.999Z</time></trkpt><trkpt lat="46.17765659392812" lon="13.204934226643418"><ele>178.66666666666666</ele><time>2026-04-06T17:02:27.999Z</time></trkpt><trkpt lat="46.177503308770994" lon="13.20498991172942"><ele>179.0</ele><time>2026-04-06T17:02:28.999Z</time></trkpt><trkpt lat="46.177353760638624" lon="13.20502021829857"><ele>178.75</ele><time>2026-04-06T17:02:29.999Z</time></trkpt><trkpt lat="46.177207075896504" lon="13.205049927902687"><ele>178.5</ele><time>2026-04-06T17:02:30.999Z</time></trkpt><trkpt lat="46.17705969017359" lon="13.205079192218045"><ele>178.25</ele><time>2026-04-06T17:02:31.999Z</time></trkpt><trkpt lat="46.176910289255595" lon="13.205107827050787"><ele>178.0</ele><time>2026-04-06T17:02:32.999Z</time></trkpt><trkpt lat="46.17676182583819" lon="13.205137973483676"><ele>178.0</ele><time>2026-04-06T17:02:33.999Z</time></trkpt><trkpt lat="46.17661483552037" lon="13.205164524559976"><ele>178.0</ele><time>2026-04-06T17:02:34.999Z</time></trkpt><trkpt lat="46.176467642973336" lon="13.205196043800516"><ele>178.0</ele><time>2026-04-06T17:02:35.999Z</time></trkpt><trkpt lat="46.17631481744174" lon="13.20523186270286"><ele>177.66666666666669</ele><time>2026-04-06T17:02:36.999Z</time></trkpt><trkpt lat="46.176155697547564" lon="13.205266391926994"><ele>177.33333333333334</ele><time>2026-04-06T17:02:37.999Z</time></trkpt><trkpt lat="46.17598936006915" lon="13.205303144135026"><ele>177.0</ele><time>2026-04-06T17:02:38.999Z</time></trkpt><trkpt lat="46.17581844693764" lon="13.205342165002282"><ele>176.66666666666666</ele><time>2026-04-06T17:02:39.999Z</time></trkpt><trkpt lat="46.175641925505715" lon="13.205377134236253"><ele>176.33333333333331</ele><time>2026-04-06T17:02:40.999Z</time></trkpt><trkpt lat="46.1754620654658" lon="13.205412485292602"><ele>176.0</ele><time>2026-04-06T17:02:41.999Z</time></trkpt><trkpt lat="46.17527770244117" lon="13.205451650486424"><ele>176.0</ele><time>2026-04-06T17:02:42.999Z</time></trkpt><trkpt lat="46.17508998290224" lon="13.205492135856211"><ele>176.0</ele><time>2026-04-06T17:02:43.999Z</time></trkpt><trkpt lat="46.174895129731965" lon="13.20553220396242"><ele>176.0</ele><time>2026-04-06T17:02:44.999Z</time></trkpt><trkpt lat="46.17469411485566" lon="13.205571165843512"><ele>175.66666666666666</ele><time>2026-04-06T17:02:45.999Z</time></trkpt><trkpt lat="46.17448555558046" lon="13.205612343944312"><ele>175.33333333333334</ele><time>2026-04-06T17:02:46.999Z</time></trkpt><trkpt lat="46.17427503260066" lon="13.20565353368739"><ele>175.0</ele><time>2026-04-06T17:02:47.999Z</time></trkpt><trkpt lat="46.17406421109226" lon="13.205696294303392"><ele>175.0</ele><time>2026-04-06T17:02:48.999Z</time></trkpt><trkpt lat="46.17385255454734" lon="13.205738058945558"><ele>175.0</ele><time>2026-04-06T17:02:49.999Z</time></trkpt><trkpt lat="46.17364082458102" lon="13.205782643939331"><ele>175.0</ele><time>2026-04-06T17:02:50.999Z</time></trkpt><trkpt lat="46.17343179537112" lon="13.205826154764772"><ele>175.0</ele><time>2026-04-06T17:02:51.999Z</time></trkpt><trkpt lat="46.17322611923912" lon="13.205868903833464"><ele>175.0</ele><time>2026-04-06T17:02:52.999Z</time></trkpt><trkpt lat="46.173025423717014" lon="13.205910534277471"><ele>175.0</ele><time>2026-04-06T17:02:53.999Z</time></trkpt><trkpt lat="46.17282996373104" lon="13.205951774123433"><ele>175.0</ele><time>2026-04-06T17:02:54.999Z</time></trkpt><trkpt lat="46.172639269615985" lon="13.205991026049736"><ele>175.0</ele><time>2026-04-06T17:02:55.999Z</time></trkpt><trkpt lat="46.172454838265786" lon="13.20602827738394"><ele>175.0</ele><time>2026-04-06T17:02:56.999Z</time></trkpt><trkpt lat="46.1722734194164" lon="13.206067016636474"><ele>175.0</ele><time>2026-04-06T17:02:57.999Z</time></trkpt><trkpt lat="46.17209635500191" lon="13.206105583206057"><ele>175.0</ele><time>2026-04-06T17:02:58.999Z</time></trkpt><trkpt lat="46.17191991516698" lon="13.206144181445346"><ele>175.0</ele><time>2026-04-06T17:02:59.999Z</time></trkpt><trkpt lat="46.17174376877697" lon="13.206179002167419"><ele>175.0</ele><time>2026-04-06T17:03:00.999Z</time></trkpt><trkpt lat="46.171565430259506" lon="13.206213227540237"><ele>175.0</ele><time>2026-04-06T17:03:01.999Z</time></trkpt><trkpt lat="46.1713845717094" lon="13.206250400134268"><ele>175.0</ele><time>2026-04-06T17:03:02.999Z</time></trkpt><trkpt lat="46.17120548771174" lon="13.206288811683882"><ele>174.66666666666669</ele><time>2026-04-06T17:03:03.999Z</time></trkpt><trkpt lat="46.17102990787704" lon="13.2063255993633"><ele>174.33333333333334</ele><time>2026-04-06T17:03:04.999Z</time></trkpt><trkpt lat="46.17085629592925" lon="13.206361834794944"><ele>174.0</ele><time>2026-04-06T17:03:05.999Z</time></trkpt><trkpt lat="46.170683503551395" lon="13.20639656900549"><ele>173.66666666666666</ele><time>2026-04-06T17:03:06.999Z</time></trkpt><trkpt lat="46.17051156274591" lon="13.20643194352409"><ele>173.33333333333331</ele><time>2026-04-06T17:03:07.999Z</time></trkpt><trkpt lat="46.17033953185448" lon="13.206466899927564"><ele>173.0</ele><time>2026-04-06T17:03:08.999Z</time></trkpt><trkpt lat="46.17016759406854" lon="13.206502831641167"><ele>173.66666666666666</ele><time>2026-04-06T17:03:09.999Z</time></trkpt><trkpt lat="46.16999916993199" lon="13.206538089056725"><ele>174.33333333333334</ele><time>2026-04-06T17:03:10.999Z</time></trkpt><trkpt lat="46.16983228238907" lon="13.20657436323691"><ele>175.0</ele><time>2026-04-06T17:03:11.999Z</time></trkpt><trkpt lat="46.16966776107473" lon="13.206607442148092"><ele>175.0</ele><time>2026-04-06T17:03:12.999Z</time></trkpt><trkpt lat="46.16950470944719" lon="13.20663929893021"><ele>175.0</ele><time>2026-04-06T17:03:13.999Z</time></trkpt><trkpt lat="46.16934296173892" lon="13.206673441662904"><ele>175.0</ele><time>2026-04-06T17:03:14.999Z</time></trkpt><trkpt lat="46.16918390010254" lon="13.206707686236202"><ele>175.0</ele><time>2026-04-06T17:03:15.999Z</time></trkpt><trkpt lat="46.16902719777617" lon="13.206745385659595"><ele>175.0</ele><time>2026-04-06T17:03:16.999Z</time></trkpt><trkpt lat="46.1688736070309" lon="13.206787827628288"><ele>175.0</ele><time>2026-04-06T17:03:17.999Z</time></trkpt><trkpt lat="46.16872274680713" lon="13.206839667675613"><ele>175.25</ele><time>2026-04-06T17:03:18.999Z</time></trkpt><trkpt lat="46.16857976371692" lon="13.206899883665722"><ele>175.5</ele><time>2026-04-06T17:03:19.999Z</time></trkpt><trkpt lat="46.168440200790926" lon="13.206969087930565"><ele>175.75</ele><time>2026-04-06T17:03:20.999Z</time></trkpt><trkpt lat="46.168305212807596" lon="13.207044525425895"><ele>176.0</ele><time>2026-04-06T17:03:21.999Z</time></trkpt><trkpt lat="46.16817162402364" lon="13.207127268570153"><ele>175.0</ele><time>2026-04-06T17:03:22.999Z</time></trkpt><trkpt lat="46.16804163074658" lon="13.207219417987902"><ele>174.0</ele><time>2026-04-06T17:03:23.999Z</time></trkpt><trkpt lat="46.16791458696756" lon="13.20731494453177"><ele>173.0</ele><time>2026-04-06T17:03:24.999Z</time></trkpt><trkpt lat="46.16779079823362" lon="13.20741045000699"><ele>172.0</ele><time>2026-04-06T17:03:25.999Z</time></trkpt><trkpt lat="46.16767201271859" lon="13.20749912159768"><ele>172.0</ele><time>2026-04-06T17:03:26.999Z</time></trkpt><trkpt lat="46.1675631331517" lon="13.207580682015312"><ele>172.0</ele><time>2026-04-06T17:03:27.999Z</time></trkpt><trkpt lat="46.16746040828991" lon="13.20766049138532"><ele>172.0</ele><time>2026-04-06T17:03:28.999Z</time></trkpt><trkpt lat="46.167350193438836" lon="13.207742348357243"><ele>172.0</ele><time>2026-04-06T17:03:29.999Z</time></trkpt><trkpt lat="46.16723551239163" lon="13.207828106473418"><ele>171.75</ele><time>2026-04-06T17:03:30.999Z</time></trkpt><trkpt lat="46.167118207713685" lon="13.207913402287753"><ele>171.5</ele><time>2026-04-06T17:03:31.999Z</time></trkpt><trkpt lat="46.16700106849173" lon="13.207998573491475"><ele>171.25</ele><time>2026-04-06T17:03:32.999Z</time></trkpt><trkpt lat="46.16689086041004" lon="13.208082669905716"><ele>171.0</ele><time>2026-04-06T17:03:33.999Z</time></trkpt><trkpt lat="46.166785972397584" lon="13.208165011936464"><ele>170.75</ele><time>2026-04-06T17:03:34.999Z</time></trkpt><trkpt lat="46.166682694748225" lon="13.208242826166968"><ele>170.5</ele><time>2026-04-06T17:03:35.999Z</time></trkpt><trkpt lat="46.16658063075707" lon="13.20832225156263"><ele>170.25</ele><time>2026-04-06T17:03:36.999Z</time></trkpt><trkpt lat="46.16648056842461" lon="13.20840342071394"><ele>170.0</ele><time>2026-04-06T17:03:37.999Z</time></trkpt><trkpt lat="46.16638024780299" lon="13.208484232486859"><ele>170.75</ele><time>2026-04-06T17:03:38.999Z</time></trkpt><trkpt lat="46.166279485118935" lon="13.208563840112701"><ele>171.5</ele><time>2026-04-06T17:03:39.999Z</time></trkpt><trkpt lat="46.16617624958582" lon="13.208643965018235"><ele>172.25</ele><time>2026-04-06T17:03:40.999Z</time></trkpt><trkpt lat="46.166075763453776" lon="13.20872301847822"><ele>173.0</ele><time>2026-04-06T17:03:41.999Z</time></trkpt><trkpt lat="46.16598160434326" lon="13.208799050790862"><ele>173.0</ele><time>2026-04-06T17:03:42.999Z</time></trkpt><trkpt lat="46.165889135001855" lon="13.208873244336358"><ele>173.0</ele><time>2026-04-06T17:03:43.999Z</time></trkpt><trkpt lat="46.16579907590282" lon="13.208946867972092"><ele>173.0</ele><time>2026-04-06T17:03:44.999Z</time></trkpt><trkpt lat="46.16571033228933" lon="13.20901428828358"><ele>173.0</ele><time>2026-04-06T17:03:45.999Z</time></trkpt><trkpt lat="46.16564095142494" lon="13.209072877485427"><ele>173.0</ele><time>2026-04-06T17:03:46.999Z</time></trkpt><trkpt lat="46.16558025580914" lon="13.209126813804959"><ele>173.8</ele><time>2026-04-06T17:03:47.999Z</time></trkpt><trkpt lat="46.165502941881115" lon="13.209195515919342"><ele>174.60000000000002</ele><time>2026-04-06T17:03:48.999Z</time></trkpt><trkpt lat="46.16540836157774" lon="13.209263525506916"><ele>175.39999999999998</ele><time>2026-04-06T17:03:49.999Z</time></trkpt><trkpt lat="46.165304210408884" lon="13.20934182381915"><ele>176.2</ele><time>2026-04-06T17:03:50.999Z</time></trkpt><trkpt lat="46.16519662657871" lon="13.209421870768237"><ele>177.0</ele><time>2026-04-06T17:03:51.999Z</time></trkpt><trkpt lat="46.16508987115874" lon="13.209504570202784"><ele>177.0</ele><time>2026-04-06T17:03:52.999Z</time></trkpt><trkpt lat="46.164983716663855" lon="13.209587808138561"><ele>177.0</ele><time>2026-04-06T17:03:54Z</time></trkpt><trkpt lat="46.16487865660418" lon="13.209669571919726"><ele>177.0</ele><time>2026-04-06T17:03:55Z</time></trkpt><trkpt lat="46.16477458825331" lon="13.209750988537344"><ele>177.0</ele><time>2026-04-06T17:03:56Z</time></trkpt><trkpt lat="46.16467189387133" lon="13.209826404661346"><ele>178.6</ele><time>2026-04-06T17:03:57Z</time></trkpt><trkpt lat="46.164573625626176" lon="13.209898493940079"><ele>180.2</ele><time>2026-04-06T17:03:58Z</time></trkpt><trkpt lat="46.164477551454716" lon="13.209965978778508"><ele>181.8</ele><time>2026-04-06T17:03:59Z</time></trkpt><trkpt lat="46.16438278846612" lon="13.210025766153935"><ele>183.4</ele><time>2026-04-06T17:04:00Z</time></trkpt><trkpt lat="46.1642899534553" lon="13.210075565576789"><ele>185.0</ele><time>2026-04-06T17:04:01Z</time></trkpt><trkpt lat="46.16419848331893" lon="13.210124347128101"><ele>185.0</ele><time>2026-04-06T17:04:02Z</time></trkpt><trkpt lat="46.16410774332485" lon="13.210168830859532"><ele>185.0</ele><time>2026-04-06T17:04:03Z</time></trkpt><trkpt lat="46.16401633165986" lon="13.210206818828116"><ele>185.0</ele><time>2026-04-06T17:04:04Z</time></trkpt><trkpt lat="46.16392510680637" lon="13.210242732515892"><ele>185.0</ele><time>2026-04-06T17:04:05Z</time></trkpt><trkpt lat="46.163844385137764" lon="13.21027208143222"><ele>185.0</ele><time>2026-04-06T17:04:06Z</time></trkpt><trkpt lat="46.16377349882814" lon="13.210298393370769"><ele>185.0</ele><time>2026-04-06T17:04:07Z</time></trkpt><trkpt lat="46.16371217251565" lon="13.210320213386426"><ele>185.33333333333331</ele><time>2026-04-06T17:04:08Z</time></trkpt><trkpt lat="46.16361664177846" lon="13.210349181011011"><ele>185.66666666666666</ele><time>2026-04-06T17:04:10Z</time></trkpt><trkpt lat="46.16354014519709" lon="13.210372596071501"><ele>186.0</ele><time>2026-04-06T17:04:12Z</time></trkpt><trkpt lat="46.163466690524935" lon="13.21039161605325"><ele>186.33333333333334</ele><time>2026-04-06T17:04:14Z</time></trkpt><trkpt lat="46.16340022037847" lon="13.210430635146956"><ele>186.66666666666669</ele><time>2026-04-06T17:04:18Z</time></trkpt><trkpt lat="46.16330245991354" lon="13.21044287801998"><ele>187.0</ele><time>2026-04-06T17:04:20Z</time></trkpt><trkpt lat="46.163172188906636" lon="13.21048354554642"><ele>187.16666666666669</ele><time>2026-04-06T17:04:22Z</time></trkpt><trkpt lat="46.16309827738387" lon="13.210504886152178"><ele>187.33333333333334</ele><time>2026-04-06T17:04:23Z</time></trkpt><trkpt lat="46.16302307847683" lon="13.21052699218165"><ele>187.5</ele><time>2026-04-06T17:04:24Z</time></trkpt><trkpt lat="46.16295574390514" lon="13.210547093063884"><ele>187.66666666666666</ele><time>2026-04-06T17:04:25Z</time></trkpt><trkpt lat="46.16288365838694" lon="13.210572749781369"><ele>187.83333333333331</ele><time>2026-04-06T17:04:26Z</time></trkpt><trkpt lat="46.16280799124781" lon="13.210600400492794"><ele>188.0</ele><time>2026-04-06T17:04:27Z</time></trkpt><trkpt lat="46.16272585841007" lon="13.210625332608155"><ele>188.0</ele><time>2026-04-06T17:04:28Z</time></trkpt><trkpt lat="46.16263198012249" lon="13.210651729749548"><ele>188.0</ele><time>2026-04-06T17:04:28.999Z</time></trkpt><trkpt lat="46.16253905399366" lon="13.210677424797346"><ele>188.0</ele><time>2026-04-06T17:04:29.999Z</time></trkpt><trkpt lat="46.162446907310574" lon="13.21070482871106"><ele>188.0</ele><time>2026-04-06T17:04:30.999Z</time></trkpt><trkpt lat="46.162357564323955" lon="13.210732450778252"><ele>188.0</ele><time>2026-04-06T17:04:31.999Z</time></trkpt><trkpt lat="46.16227032737391" lon="13.210759185724333"><ele>188.83333333333331</ele><time>2026-04-06T17:04:32.999Z</time></trkpt><trkpt lat="46.16218301349941" lon="13.210784806710423"><ele>189.66666666666666</ele><time>2026-04-06T17:04:33.999Z</time></trkpt><trkpt lat="46.16209906720649" lon="13.210803054372201"><ele>190.5</ele><time>2026-04-06T17:04:34.999Z</time></trkpt><trkpt lat="46.16201323860696" lon="13.210806599760035"><ele>191.33333333333331</ele><time>2026-04-06T17:04:35.999Z</time></trkpt><trkpt lat="46.161928275097864" lon="13.210815507704575"><ele>192.16666666666666</ele><time>2026-04-06T17:04:36.999Z</time></trkpt><trkpt lat="46.16183796759358" lon="13.21082115519669"><ele>193.0</ele><time>2026-04-06T17:04:37.999Z</time></trkpt><trkpt lat="46.161744408453245" lon="13.210814421457972"><ele>193.0</ele><time>2026-04-06T17:04:38.999Z</time></trkpt><trkpt lat="46.16166026317933" lon="13.210792076232082"><ele>193.0</ele><time>2026-04-06T17:04:39.999Z</time></trkpt><trkpt lat="46.16157711992897" lon="13.210768475622976"><ele>193.0</ele><time>2026-04-06T17:04:40.999Z</time></trkpt><trkpt lat="46.16148903681212" lon="13.210743269646448"><ele>193.0</ele><time>2026-04-06T17:04:41.999Z</time></trkpt><trkpt lat="46.16139317584643" lon="13.210713783873153"><ele>193.0</ele><time>2026-04-06T17:04:42.999Z</time></trkpt><trkpt lat="46.16129683680873" lon="13.210683675322747"><ele>192.60000000000002</ele><time>2026-04-06T17:04:43.999Z</time></trkpt><trkpt lat="46.16120303328755" lon="13.210650969891631"><ele>192.20000000000002</ele><time>2026-04-06T17:04:44.999Z</time></trkpt><trkpt lat="46.161110550844974" lon="13.210618148453985"><ele>191.8</ele><time>2026-04-06T17:04:45.999Z</time></trkpt><trkpt lat="46.161018429186804" lon="13.210593911667843"><ele>191.4</ele><time>2026-04-06T17:04:46.999Z</time></trkpt><trkpt lat="46.160923847565996" lon="13.210580942366809"><ele>191.0</ele><time>2026-04-06T17:04:47.999Z</time></trkpt><trkpt lat="46.160831832823476" lon="13.210578726270455"><ele>191.0</ele><time>2026-04-06T17:04:48.999Z</time></trkpt><trkpt lat="46.16074242641998" lon="13.210586455805714"><ele>191.0</ele><time>2026-04-06T17:04:49.999Z</time></trkpt><trkpt lat="46.160656521326814" lon="13.21059883795496"><ele>191.0</ele><time>2026-04-06T17:04:50.999Z</time></trkpt><trkpt lat="46.160568106577855" lon="13.210620227034768"><ele>191.0</ele><time>2026-04-06T17:04:51.999Z</time></trkpt><trkpt lat="46.16048532848921" lon="13.210643978351355"><ele>191.0</ele><time>2026-04-06T17:04:52.999Z</time></trkpt><trkpt lat="46.16040701981189" lon="13.210672998619545"><ele>191.0</ele><time>2026-04-06T17:04:53.999Z</time></trkpt><trkpt lat="46.16033264248773" lon="13.21070903542726"><ele>191.16666666666666</ele><time>2026-04-06T17:04:54.999Z</time></trkpt><trkpt lat="46.160258658389104" lon="13.210753916702455"><ele>191.33333333333331</ele><time>2026-04-06T17:04:55.999Z</time></trkpt><trkpt lat="46.16018652585653" lon="13.21080333608898"><ele>191.5</ele><time>2026-04-06T17:04:56.999Z</time></trkpt><trkpt lat="46.16011622049237" lon="13.21085890396367"><ele>191.66666666666666</ele><time>2026-04-06T17:04:57.999Z</time></trkpt><trkpt lat="46.160045751306114" lon="13.210921531169753"><ele>191.83333333333334</ele><time>2026-04-06T17:04:58.999Z</time></trkpt><trkpt lat="46.159975257926625" lon="13.210991196123947"><ele>192.0</ele><time>2026-04-06T17:04:59.999Z</time></trkpt><trkpt lat="46.15991196084268" lon="13.211069685453058"><ele>192.8</ele><time>2026-04-06T17:05:00.999Z</time></trkpt><trkpt lat="46.15985038258344" lon="13.211156068609087"><ele>193.6</ele><time>2026-04-06T17:05:01.999Z</time></trkpt><trkpt lat="46.159788394024474" lon="13.21124979377694"><ele>194.4</ele><time>2026-04-06T17:05:02.999Z</time></trkpt><trkpt lat="46.15972929148643" lon="13.211354633416454"><ele>195.20000000000002</ele><time>2026-04-06T17:05:03.999Z</time></trkpt><trkpt lat="46.15967631191158" lon="13.211466111552957"><ele>196.0</ele><time>2026-04-06T17:05:04.999Z</time></trkpt><trkpt lat="46.15962299676332" lon="13.211583602258782"><ele>196.4</ele><time>2026-04-06T17:05:05.999Z</time></trkpt><trkpt lat="46.15957314752965" lon="13.21170229390216"><ele>196.8</ele><time>2026-04-06T17:05:06.999Z</time></trkpt><trkpt lat="46.15952642920475" lon="13.21182191383095"><ele>197.20000000000002</ele><time>2026-04-06T17:05:07.999Z</time></trkpt><trkpt lat="46.15948470778307" lon="13.211945329892272"><ele>197.60000000000002</ele><time>2026-04-06T17:05:08.999Z</time></trkpt><trkpt lat="46.159444375278255" lon="13.212068482876475"><ele>198.0</ele><time>2026-04-06T17:05:09.999Z</time></trkpt><trkpt lat="46.15940563105013" lon="13.212192500520409"><ele>198.0</ele><time>2026-04-06T17:05:10.999Z</time></trkpt><trkpt lat="46.159372613450316" lon="13.21231897412678"><ele>198.0</ele><time>2026-04-06T17:05:11.999Z</time></trkpt><trkpt lat="46.15934151122833" lon="13.21245373093254"><ele>198.0</ele><time>2026-04-06T17:05:12.999Z</time></trkpt><trkpt lat="46.159314635199785" lon="13.212594997700316"><ele>198.0</ele><time>2026-04-06T17:05:13.999Z</time></trkpt><trkpt lat="46.15929032590926" lon="13.212739702400606"><ele>198.0</ele><time>2026-04-06T17:05:14.999Z</time></trkpt><trkpt lat="46.15926777348871" lon="13.212886416038335"><ele>197.60000000000002</ele><time>2026-04-06T17:05:15.999Z</time></trkpt><trkpt lat="46.159246333879175" lon="13.213037568392092"><ele>197.20000000000002</ele><time>2026-04-06T17:05:16.999Z</time></trkpt><trkpt lat="46.159225764706925" lon="13.213188991891057"><ele>196.8</ele><time>2026-04-06T17:05:17.999Z</time></trkpt><trkpt lat="46.15920451049732" lon="13.213339665550855"><ele>196.4</ele><time>2026-04-06T17:05:18.999Z</time></trkpt><trkpt lat="46.159185179890486" lon="13.213483905871474"><ele>196.0</ele><time>2026-04-06T17:05:19.999Z</time></trkpt><trkpt lat="46.15916550570575" lon="13.213626967608649"><ele>195.49999999999997</ele><time>2026-04-06T17:05:20.999Z</time></trkpt><trkpt lat="46.159147091087995" lon="13.213767576422066"><ele>195.0</ele><time>2026-04-06T17:05:21.999Z</time></trkpt><trkpt lat="46.159130108346176" lon="13.213900902803541"><ele>194.5</ele><time>2026-04-06T17:05:22.999Z</time></trkpt><trkpt lat="46.15911275301975" lon="13.214027302512958"><ele>194.0</ele><time>2026-04-06T17:05:23.999Z</time></trkpt><trkpt lat="46.15909755448982" lon="13.21414357404678"><ele>193.49999999999997</ele><time>2026-04-06T17:05:24.999Z</time></trkpt><trkpt lat="46.1590811848211" lon="13.214248013904308"><ele>193.0</ele><time>2026-04-06T17:05:25.999Z</time></trkpt><trkpt lat="46.15906433788607" lon="13.214344072004929"><ele>192.99999999999997</ele><time>2026-04-06T17:05:26.999Z</time></trkpt><trkpt lat="46.159041653900196" lon="13.214485369032747"><ele>193.0</ele><time>2026-04-06T17:05:28.999Z</time></trkpt><trkpt lat="46.15902003167712" lon="13.214597910027278"><ele>193.0</ele><time>2026-04-06T17:05:30.999Z</time></trkpt><trkpt lat="46.158996066668735" lon="13.214698780998962"><ele>193.0</ele><time>2026-04-06T17:05:32.999Z</time></trkpt><trkpt lat="46.15896546609742" lon="13.21479424118198"><ele>192.99999999999997</ele><time>2026-04-06T17:05:34.999Z</time></trkpt><trkpt lat="46.1589285090805" lon="13.21487683201771"><ele>193.0</ele><time>2026-04-06T17:05:36.999Z</time></trkpt><trkpt lat="46.158885910156876" lon="13.214947501474267"><ele>192.85714285714286</ele><time>2026-04-06T17:05:39.999Z</time></trkpt><trkpt lat="46.15883386979491" lon="13.215068080711832"><ele>192.71428571428572</ele><time>2026-04-06T17:05:41.999Z</time></trkpt><trkpt lat="46.158820454166715" lon="13.215160954918613"><ele>192.57142857142856</ele><time>2026-04-06T17:05:42.999Z</time></trkpt><trkpt lat="46.158810868330576" lon="13.215255271382448"><ele>192.42857142857144</ele><time>2026-04-06T17:05:43.999Z</time></trkpt><trkpt lat="46.158797080917374" lon="13.215346691886555"><ele>192.28571428571428</ele><time>2026-04-06T17:05:44.999Z</time></trkpt><trkpt lat="46.158775088886586" lon="13.21543477961533"><ele>192.14285714285714</ele><time>2026-04-06T17:05:45.999Z</time></trkpt><trkpt lat="46.158745184771675" lon="13.215520142224394"><ele>192.0</ele><time>2026-04-06T17:05:46.999Z</time></trkpt><trkpt lat="46.15868555363526" lon="13.21566754896636"><ele>191.83333333333334</ele><time>2026-04-06T17:05:48.999Z</time></trkpt><trkpt lat="46.15865218765955" lon="13.21574967951433"><ele>191.66666666666666</ele><time>2026-04-06T17:05:49.999Z</time></trkpt><trkpt lat="46.158612885530125" lon="13.21583454280051"><ele>191.5</ele><time>2026-04-06T17:05:50.999Z</time></trkpt><trkpt lat="46.15857201026753" lon="13.215921034579686"><ele>191.33333333333331</ele><time>2026-04-06T17:05:51.999Z</time></trkpt><trkpt lat="46.15851489365482" lon="13.216076278308554"><ele>191.16666666666666</ele><time>2026-04-06T17:05:53.999Z</time></trkpt><trkpt lat="46.15848052921594" lon="13.216154963856365"><ele>191.0</ele><time>2026-04-06T17:05:54.999Z</time></trkpt><trkpt lat="46.15843391173589" lon="13.216270840913255"><ele>191.0</ele><time>2026-04-06T17:05:56.999Z</time></trkpt><trkpt lat="46.15838586642357" lon="13.216368428905747"><ele>191.0</ele><time>2026-04-06T17:05:58.999Z</time></trkpt><trkpt lat="46.15827508637788" lon="13.21645944730321"><ele>191.0</ele><time>2026-04-06T17:06:01Z</time></trkpt><trkpt lat="46.1582152450459" lon="13.216518888879218"><ele>191.0</ele><time>2026-04-06T17:06:02Z</time></trkpt><trkpt lat="46.158182503086806" lon="13.216639515191044"><ele>191.0</ele><time>2026-04-06T17:06:03Z</time></trkpt><trkpt lat="46.15816273233401" lon="13.216815561800654"><ele>189.75</ele><time>2026-04-06T17:06:04Z</time></trkpt><trkpt lat="46.15810491628818" lon="13.216971460864944"><ele>188.5</ele><time>2026-04-06T17:06:05Z</time></trkpt><trkpt lat="46.15801635923082" lon="13.217112687037861"><ele>187.25</ele><time>2026-04-06T17:06:06Z</time></trkpt><trkpt lat="46.15792561091957" lon="13.217251835600242"><ele>186.0</ele><time>2026-04-06T17:06:07Z</time></trkpt><trkpt lat="46.157821303398705" lon="13.217400680026904"><ele>186.0</ele><time>2026-04-06T17:06:08Z</time></trkpt><trkpt lat="46.15770951725256" lon="13.217545844251005"><ele>186.0</ele><time>2026-04-06T17:06:09Z</time></trkpt><trkpt lat="46.15759264616504" lon="13.217675296002081"><ele>186.0</ele><time>2026-04-06T17:06:10Z</time></trkpt><trkpt lat="46.157478958421606" lon="13.217796823617897"><ele>186.0</ele><time>2026-04-06T17:06:11Z</time></trkpt><trkpt lat="46.15736007131501" lon="13.217905797398755"><ele>186.0</ele><time>2026-04-06T17:06:12Z</time></trkpt><trkpt lat="46.157234162822874" lon="13.218005282011639"><ele>186.0</ele><time>2026-04-06T17:06:13Z</time></trkpt><trkpt lat="46.157103215815546" lon="13.21810095264723"><ele>186.0</ele><time>2026-04-06T17:06:14Z</time></trkpt><trkpt lat="46.1569686160841" lon="13.218184493620576"><ele>186.0</ele><time>2026-04-06T17:06:15Z</time></trkpt><trkpt lat="46.156830109027744" lon="13.218250596732828"><ele>185.5</ele><time>2026-04-06T17:06:16Z</time></trkpt><trkpt lat="46.156689267323856" lon="13.218302634644246"><ele>185.0</ele><time>2026-04-06T17:06:17Z</time></trkpt><trkpt lat="46.15654567963727" lon="13.218347311509907"><ele>184.5</ele><time>2026-04-06T17:06:18Z</time></trkpt><trkpt lat="46.156397068955066" lon="13.218387704852987"><ele>184.0</ele><time>2026-04-06T17:06:19Z</time></trkpt><trkpt lat="46.15624752563384" lon="13.218423369858026"><ele>183.75</ele><time>2026-04-06T17:06:20Z</time></trkpt><trkpt lat="46.156103626865395" lon="13.218457519445794"><ele>183.5</ele><time>2026-04-06T17:06:21Z</time></trkpt><trkpt lat="46.15596352320925" lon="13.218495116905155"><ele>183.25</ele><time>2026-04-06T17:06:22Z</time></trkpt><trkpt lat="46.15582547846557" lon="13.218533964035032"><ele>183.0</ele><time>2026-04-06T17:06:23Z</time></trkpt><trkpt lat="46.15569038561078" lon="13.218566157020794"><ele>182.66666666666666</ele><time>2026-04-06T17:06:24Z</time></trkpt><trkpt lat="46.155549509864" lon="13.218595501100117"><ele>182.33333333333331</ele><time>2026-04-06T17:06:25Z</time></trkpt><trkpt lat="46.15539903265706" lon="13.21862901169888"><ele>182.0</ele><time>2026-04-06T17:06:26Z</time></trkpt><trkpt lat="46.15523433920855" lon="13.218668700196213"><ele>182.0</ele><time>2026-04-06T17:06:27Z</time></trkpt><trkpt lat="46.15505694198086" lon="13.218706761722657"><ele>182.0</ele><time>2026-04-06T17:06:28Z</time></trkpt><trkpt lat="46.15487428068271" lon="13.218721651858171"><ele>182.0</ele><time>2026-04-06T17:06:29Z</time></trkpt><trkpt lat="46.15468721502933" lon="13.218758977685814"><ele>181.0</ele><time>2026-04-06T17:06:30Z</time></trkpt><trkpt lat="46.15449849795323" lon="13.218796633005692"><ele>180.0</ele><time>2026-04-06T17:06:31Z</time></trkpt><trkpt lat="46.15431082913856" lon="13.218834724280224"><ele>179.0</ele><time>2026-04-06T17:06:32Z</time></trkpt><trkpt lat="46.15413148752965" lon="13.218894017435483"><ele>179.0</ele><time>2026-04-06T17:06:33Z</time></trkpt><trkpt lat="46.153971178005634" lon="13.218919750531876"><ele>179.0</ele><time>2026-04-06T17:06:34Z</time></trkpt><trkpt lat="46.153825184798414" lon="13.218945710226143"><ele>179.0</ele><time>2026-04-06T17:06:35Z</time></trkpt><trkpt lat="46.153694641752075" lon="13.21897037508102"><ele>179.0</ele><time>2026-04-06T17:06:35.999Z</time></trkpt><trkpt lat="46.15356069000826" lon="13.218996159897921"><ele>179.0</ele><time>2026-04-06T17:06:36.999Z</time></trkpt><trkpt lat="46.15342096041816" lon="13.219025979810782"><ele>179.0</ele><time>2026-04-06T17:06:37.999Z</time></trkpt><trkpt lat="46.15328756016925" lon="13.219052218483709"><ele>179.0</ele><time>2026-04-06T17:06:38.999Z</time></trkpt><trkpt lat="46.15316801830857" lon="13.21907745913604"><ele>179.0</ele><time>2026-04-06T17:06:39.999Z</time></trkpt><trkpt lat="46.15305430825593" lon="13.21910071621651"><ele>178.5</ele><time>2026-04-06T17:06:40.999Z</time></trkpt><trkpt lat="46.15294259927186" lon="13.21912559617782"><ele>178.0</ele><time>2026-04-06T17:06:41.999Z</time></trkpt><trkpt lat="46.15282889040133" lon="13.21915031578248"><ele>177.5</ele><time>2026-04-06T17:06:42.999Z</time></trkpt><trkpt lat="46.1527130034247" lon="13.219177769107612"><ele>177.0</ele><time>2026-04-06T17:06:43.999Z</time></trkpt><trkpt lat="46.15259582123025" lon="13.219197465883267"><ele>177.0</ele><time>2026-04-06T17:06:44.999Z</time></trkpt><trkpt lat="46.1524771108823" lon="13.219219257088834"><ele>177.0</ele><time>2026-04-06T17:06:45.999Z</time></trkpt><trkpt lat="46.15235776759086" lon="13.21924374283904"><ele>177.0</ele><time>2026-04-06T17:06:46.999Z</time></trkpt><trkpt lat="46.15223599439946" lon="13.219272930660509"><ele>177.0</ele><time>2026-04-06T17:06:47.999Z</time></trkpt><trkpt lat="46.152108536465434" lon="13.219298452026674"><ele>177.0</ele><time>2026-04-06T17:06:48.999Z</time></trkpt><trkpt lat="46.15197863674176" lon="13.21932398522422"><ele>177.0</ele><time>2026-04-06T17:06:49.999Z</time></trkpt><trkpt lat="46.15185052458026" lon="13.219346183885534"><ele>177.0</ele><time>2026-04-06T17:06:50.999Z</time></trkpt><trkpt lat="46.151721279492754" lon="13.219371912604656"><ele>177.0</ele><time>2026-04-06T17:06:51.999Z</time></trkpt><trkpt lat="46.15158807158088" lon="13.21939794175308"><ele>176.75</ele><time>2026-04-06T17:06:52.999Z</time></trkpt><trkpt lat="46.15145304467904" lon="13.219424220921109"><ele>176.5</ele><time>2026-04-06T17:06:53.999Z</time></trkpt><trkpt lat="46.1513114926435" lon="13.219451872551168"><ele>176.25</ele><time>2026-04-06T17:06:54.999Z</time></trkpt><trkpt lat="46.151163061798414" lon="13.21948208405009"><ele>176.0</ele><time>2026-04-06T17:06:55.999Z</time></trkpt><trkpt lat="46.15100868370397" lon="13.219518386850897"><ele>176.0</ele><time>2026-04-06T17:06:56.999Z</time></trkpt><trkpt lat="46.15084937651354" lon="13.21955426682092"><ele>176.0</ele><time>2026-04-06T17:06:57.999Z</time></trkpt><trkpt lat="46.15068524505268" lon="13.219584184607097"><ele>176.0</ele><time>2026-04-06T17:06:58.999Z</time></trkpt><trkpt lat="46.150517934733735" lon="13.219613007274965"><ele>175.66666666666666</ele><time>2026-04-06T17:06:59.999Z</time></trkpt><trkpt lat="46.15034117955327" lon="13.219652541407289"><ele>175.33333333333334</ele><time>2026-04-06T17:07:00.999Z</time></trkpt><trkpt lat="46.150156116758346" lon="13.219693077508293"><ele>175.0</ele><time>2026-04-06T17:07:01.999Z</time></trkpt><trkpt lat="46.14996176871337" lon="13.219733792894486"><ele>174.66666666666669</ele><time>2026-04-06T17:07:02.999Z</time></trkpt><trkpt lat="46.1497652731864" lon="13.219772841804291"><ele>174.33333333333334</ele><time>2026-04-06T17:07:03.999Z</time></trkpt><trkpt lat="46.14956737722087" lon="13.219813913438772"><ele>174.0</ele><time>2026-04-06T17:07:04.999Z</time></trkpt><trkpt lat="46.14936906409407" lon="13.219852078644065"><ele>173.66666666666666</ele><time>2026-04-06T17:07:05.999Z</time></trkpt><trkpt lat="46.14917491777883" lon="13.219898140411532"><ele>173.33333333333331</ele><time>2026-04-06T17:07:06.999Z</time></trkpt><trkpt lat="46.14898316252035" lon="13.219942516764295"><ele>173.0</ele><time>2026-04-06T17:07:07.999Z</time></trkpt><trkpt lat="46.14879454619523" lon="13.219983212578374"><ele>173.0</ele><time>2026-04-06T17:07:08.999Z</time></trkpt><trkpt lat="46.14860227743492" lon="13.220032128650422"><ele>173.0</ele><time>2026-04-06T17:07:09.999Z</time></trkpt><trkpt lat="46.148405807524846" lon="13.220077907301043"><ele>173.0</ele><time>2026-04-06T17:07:10.999Z</time></trkpt><trkpt lat="46.148206578836266" lon="13.220116868636882"><ele>172.0</ele><time>2026-04-06T17:07:11.999Z</time></trkpt><trkpt lat="46.148004223621065" lon="13.220158421954237"><ele>171.0</ele><time>2026-04-06T17:07:12.999Z</time></trkpt><trkpt lat="46.14780244982431" lon="13.220199165180443"><ele>170.0</ele><time>2026-04-06T17:07:13.999Z</time></trkpt><trkpt lat="46.14760002389252" lon="13.220240070792784"><ele>170.0</ele><time>2026-04-06T17:07:14.999Z</time></trkpt><trkpt lat="46.14739910817091" lon="13.220279740878533"><ele>170.0</ele><time>2026-04-06T17:07:15.999Z</time></trkpt><trkpt lat="46.14719956366763" lon="13.220321661425094"><ele>170.0</ele><time>2026-04-06T17:07:16.999Z</time></trkpt><trkpt lat="46.147001581045465" lon="13.220363458998252"><ele>170.0</ele><time>2026-04-06T17:07:17.999Z</time></trkpt><trkpt lat="46.14680776740842" lon="13.220402792179142"><ele>170.0</ele><time>2026-04-06T17:07:18.999Z</time></trkpt><trkpt lat="46.14661710062197" lon="13.220442588646662"><ele>170.0</ele><time>2026-04-06T17:07:19.999Z</time></trkpt><trkpt lat="46.14642984758672" lon="13.220479492378622"><ele>170.0</ele><time>2026-04-06T17:07:20.999Z</time></trkpt><trkpt lat="46.146247802207846" lon="13.220516579154213"><ele>170.0</ele><time>2026-04-06T17:07:21.999Z</time></trkpt><trkpt lat="46.146072332858516" lon="13.22055316507676"><ele>170.0</ele><time>2026-04-06T17:07:22.999Z</time></trkpt><trkpt lat="46.14590621031133" lon="13.220590919337312"><ele>170.0</ele><time>2026-04-06T17:07:23.999Z</time></trkpt><trkpt lat="46.145747157747614" lon="13.220626720060258"><ele>170.0</ele><time>2026-04-06T17:07:24.999Z</time></trkpt><trkpt lat="46.145596143765" lon="13.220657823972932"><ele>170.0</ele><time>2026-04-06T17:07:25.999Z</time></trkpt><trkpt lat="46.14544691180897" lon="13.220685760680416"><ele>169.75</ele><time>2026-04-06T17:07:26.999Z</time></trkpt><trkpt lat="46.145303920467185" lon="13.22071586360589"><ele>169.5</ele><time>2026-04-06T17:07:27.999Z</time></trkpt><trkpt lat="46.14517182352979" lon="13.22074426247593"><ele>169.25</ele><time>2026-04-06T17:07:28.999Z</time></trkpt><trkpt lat="46.14505366428847" lon="13.220762305302333"><ele>169.0</ele><time>2026-04-06T17:07:29.999Z</time></trkpt><trkpt lat="46.144945154752115" lon="13.22077700001583"><ele>169.16666666666669</ele><time>2026-04-06T17:07:30.999Z</time></trkpt><trkpt lat="46.14485511884063" lon="13.220784330692592"><ele>169.33333333333334</ele><time>2026-04-06T17:07:31.999Z</time></trkpt><trkpt lat="46.14477369424868" lon="13.220777539376824"><ele>169.5</ele><time>2026-04-06T17:07:32.999Z</time></trkpt><trkpt lat="46.14469138682143" lon="13.220754291123239"><ele>169.66666666666666</ele><time>2026-04-06T17:07:33.999Z</time></trkpt><trkpt lat="46.14460791993414" lon="13.220711766114166"><ele>169.83333333333331</ele><time>2026-04-06T17:07:34.999Z</time></trkpt><trkpt lat="46.14452739475531" lon="13.220663628871797"><ele>170.0</ele><time>2026-04-06T17:07:35.999Z</time></trkpt><trkpt lat="46.14444740134164" lon="13.220643141069685"><ele>170.25</ele><time>2026-04-06T17:07:36.999Z</time></trkpt><trkpt lat="46.14436390557164" lon="13.220659836119188"><ele>170.5</ele><time>2026-04-06T17:07:37.999Z</time></trkpt><trkpt lat="46.14427616614006" lon="13.220723914715833"><ele>170.75</ele><time>2026-04-06T17:07:38.999Z</time></trkpt><trkpt lat="46.144158211051646" lon="13.220831594469745"><ele>171.0</ele><time>2026-04-06T17:07:39.999Z</time></trkpt><trkpt lat="46.14402610986707" lon="13.220941002774087"><ele>172.0</ele><time>2026-04-06T17:07:40.999Z</time></trkpt><trkpt lat="46.14384554660883" lon="13.220963241055468"><ele>173.0</ele><time>2026-04-06T17:07:41.999Z</time></trkpt><trkpt lat="46.14366190224005" lon="13.220997609576704"><ele>174.0</ele><time>2026-04-06T17:07:42.999Z</time></trkpt><trkpt lat="46.143472476026034" lon="13.221052787839323"><ele>174.0</ele><time>2026-04-06T17:07:43.999Z</time></trkpt><trkpt lat="46.14327327279977" lon="13.2211055524224"><ele>174.0</ele><time>2026-04-06T17:07:44.999Z</time></trkpt><trkpt lat="46.1430664324949" lon="13.221149940511717"><ele>174.0</ele><time>2026-04-06T17:07:45.999Z</time></trkpt><trkpt lat="46.14285582206746" lon="13.22119554656952"><ele>170.66666666666666</ele><time>2026-04-06T17:07:46.999Z</time></trkpt><trkpt lat="46.142642052065334" lon="13.2212405774986"><ele>167.33333333333331</ele><time>2026-04-06T17:07:47.999Z</time></trkpt><trkpt lat="46.14243446396457" lon="13.221282430195696"><ele>164.0</ele><time>2026-04-06T17:07:48.999Z</time></trkpt><trkpt lat="46.142224980391134" lon="13.221330983803906"><ele>163.66666666666666</ele><time>2026-04-06T17:07:49.999Z</time></trkpt><trkpt lat="46.14201367726911" lon="13.221377927818914"><ele>163.33333333333334</ele><time>2026-04-06T17:07:50.999Z</time></trkpt><trkpt lat="46.14180271781837" lon="13.221421660262724"><ele>163.0</ele><time>2026-04-06T17:07:51.999Z</time></trkpt><trkpt lat="46.141595650008554" lon="13.221464081180509"><ele>163.33333333333334</ele><time>2026-04-06T17:07:52.999Z</time></trkpt><trkpt lat="46.14139342140977" lon="13.221506740432845"><ele>163.66666666666666</ele><time>2026-04-06T17:07:53.999Z</time></trkpt><trkpt lat="46.14119302553732" lon="13.22154742872926"><ele>164.0</ele><time>2026-04-06T17:07:54.999Z</time></trkpt><trkpt lat="46.14099393613859" lon="13.221589538146947"><ele>164.0</ele><time>2026-04-06T17:07:55.999Z</time></trkpt><trkpt lat="46.14079528408687" lon="13.221631540560045"><ele>164.0</ele><time>2026-04-06T17:07:56.999Z</time></trkpt><trkpt lat="46.14059870524838" lon="13.221671345555844"><ele>164.0</ele><time>2026-04-06T17:07:57.999Z</time></trkpt><trkpt lat="46.140401212313535" lon="13.22171188715268"><ele>163.33333333333331</ele><time>2026-04-06T17:07:58.999Z</time></trkpt><trkpt lat="46.140205333715684" lon="13.221751302596209"><ele>162.66666666666666</ele><time>2026-04-06T17:07:59.999Z</time></trkpt><trkpt lat="46.1400100599" lon="13.22179126403799"><ele>162.0</ele><time>2026-04-06T17:08:00.999Z</time></trkpt><trkpt lat="46.139817282145586" lon="13.221831667818389"><ele>162.0</ele><time>2026-04-06T17:08:01.999Z</time></trkpt><trkpt lat="46.13962642236057" lon="13.221870228786312"><ele>162.0</ele><time>2026-04-06T17:08:02.999Z</time></trkpt><trkpt lat="46.13943632980735" lon="13.22190749566261"><ele>162.0</ele><time>2026-04-06T17:08:03.999Z</time></trkpt><trkpt lat="46.13924954754212" lon="13.221947385381082"><ele>162.0</ele><time>2026-04-06T17:08:04.999Z</time></trkpt><trkpt lat="46.139066551336384" lon="13.221987046081953"><ele>162.0</ele><time>2026-04-06T17:08:06Z</time></trkpt><trkpt lat="46.13888593141139" lon="13.22202502617221"><ele>162.0</ele><time>2026-04-06T17:08:07Z</time></trkpt><trkpt lat="46.13870703333086" lon="13.222061812432964"><ele>160.33333333333334</ele><time>2026-04-06T17:08:08Z</time></trkpt><trkpt lat="46.138534206660886" lon="13.222095991672434"><ele>158.66666666666669</ele><time>2026-04-06T17:08:09Z</time></trkpt><trkpt lat="46.13837765615907" lon="13.22212731560027"><ele>157.0</ele><time>2026-04-06T17:08:10Z</time></trkpt><trkpt lat="46.13822926118706" lon="13.222156906651646"><ele>157.4</ele><time>2026-04-06T17:08:11Z</time></trkpt><trkpt lat="46.138098082110446" lon="13.222183137856714"><ele>157.79999999999998</ele><time>2026-04-06T17:08:12Z</time></trkpt><trkpt lat="46.13797786601341" lon="13.222206146368196"><ele>158.2</ele><time>2026-04-06T17:08:13Z</time></trkpt><trkpt lat="46.137879668919105" lon="13.222222513079613"><ele>158.6</ele><time>2026-04-06T17:08:14Z</time></trkpt><trkpt lat="46.13779195547803" lon="13.22223482046721"><ele>159.0</ele><time>2026-04-06T17:08:15Z</time></trkpt><trkpt lat="46.13770882946773" lon="13.222244513037216"><ele>159.0</ele><time>2026-04-06T17:08:16Z</time></trkpt><trkpt lat="46.13763223072683" lon="13.222248735247863"><ele>159.0</ele><time>2026-04-06T17:08:17Z</time></trkpt><trkpt lat="46.13755818755041" lon="13.22224983418702"><ele>159.0</ele><time>2026-04-06T17:08:18Z</time></trkpt><trkpt lat="46.13747904662924" lon="13.222238412686513"><ele>159.0</ele><time>2026-04-06T17:08:19Z</time></trkpt><trkpt lat="46.137400080119306" lon="13.222211346330212"><ele>159.0</ele><time>2026-04-06T17:08:20Z</time></trkpt><trkpt lat="46.13731628582111" lon="13.222192937718619"><ele>159.0</ele><time>2026-04-06T17:08:21Z</time></trkpt><trkpt lat="46.13722694551655" lon="13.222212522378282"><ele>159.2</ele><time>2026-04-06T17:08:22Z</time></trkpt><trkpt lat="46.13713807420786" lon="13.222261871178409"><ele>159.4</ele><time>2026-04-06T17:08:23Z</time></trkpt><trkpt lat="46.13704191593765" lon="13.222328590530473"><ele>159.6</ele><time>2026-04-06T17:08:24Z</time></trkpt><trkpt lat="46.13693642604744" lon="13.222383952217815"><ele>159.8</ele><time>2026-04-06T17:08:25Z</time></trkpt><trkpt lat="46.136816742233265" lon="13.222425659170739"><ele>160.0</ele><time>2026-04-06T17:08:26Z</time></trkpt><trkpt lat="46.13668388138906" lon="13.222467068978263"><ele>160.33333333333334</ele><time>2026-04-06T17:08:27Z</time></trkpt><trkpt lat="46.136538772187144" lon="13.22250358851449"><ele>160.66666666666666</ele><time>2026-04-06T17:08:28Z</time></trkpt><trkpt lat="46.1363873992446" lon="13.22254074718499"><ele>161.0</ele><time>2026-04-06T17:08:29Z</time></trkpt><trkpt lat="46.13623809956635" lon="13.222576106474017"><ele>161.0</ele><time>2026-04-06T17:08:30Z</time></trkpt><trkpt lat="46.1360837794761" lon="13.222608761639925"><ele>161.0</ele><time>2026-04-06T17:08:31Z</time></trkpt><trkpt lat="46.13593171496377" lon="13.222640675340335"><ele>161.0</ele><time>2026-04-06T17:08:32Z</time></trkpt><trkpt lat="46.13578608746291" lon="13.22267076879654"><ele>160.75</ele><time>2026-04-06T17:08:33Z</time></trkpt><trkpt lat="46.13564706768452" lon="13.222698275351176"><ele>160.5</ele><time>2026-04-06T17:08:34Z</time></trkpt><trkpt lat="46.135509404829556" lon="13.222726688239945"><ele>160.25</ele><time>2026-04-06T17:08:35Z</time></trkpt><trkpt lat="46.135375330864875" lon="13.222756147716288"><ele>160.0</ele><time>2026-04-06T17:08:36Z</time></trkpt><trkpt lat="46.1352442325011" lon="13.222784863828668"><ele>160.0</ele><time>2026-04-06T17:08:36.999Z</time></trkpt><trkpt lat="46.13511267252447" lon="13.222809398184966"><ele>160.0</ele><time>2026-04-06T17:08:37.999Z</time></trkpt><trkpt lat="46.134979978252375" lon="13.22283678892498"><ele>160.0</ele><time>2026-04-06T17:08:38.999Z</time></trkpt><trkpt lat="46.13484697096218" lon="13.222867854713112"><ele>160.0</ele><time>2026-04-06T17:08:39.999Z</time></trkpt><trkpt lat="46.13471379115452" lon="13.222897580276761"><ele>160.25</ele><time>2026-04-06T17:08:40.999Z</time></trkpt><trkpt lat="46.13458004169533" lon="13.222928946614115"><ele>160.5</ele><time>2026-04-06T17:08:41.999Z</time></trkpt><trkpt lat="46.13444365554221" lon="13.22296257633965"><ele>160.75</ele><time>2026-04-06T17:08:42.999Z</time></trkpt><trkpt lat="46.134301586546066" lon="13.22299434620786"><ele>161.0</ele><time>2026-04-06T17:08:43.999Z</time></trkpt><trkpt lat="46.13416072974481" lon="13.223026605584607"><ele>160.25</ele><time>2026-04-06T17:08:44.999Z</time></trkpt><trkpt lat="46.13402040554197" lon="13.223058414151174"><ele>159.5</ele><time>2026-04-06T17:08:45.999Z</time></trkpt><trkpt lat="46.13387547262075" lon="13.22308940150466"><ele>158.75</ele><time>2026-04-06T17:08:46.999Z</time></trkpt><trkpt lat="46.133726358324154" lon="13.22312209733815"><ele>158.0</ele><time>2026-04-06T17:08:47.999Z</time></trkpt><trkpt lat="46.13356153712685" lon="13.223165836571164"><ele>158.0</ele><time>2026-04-06T17:08:48.999Z</time></trkpt><trkpt lat="46.13336113950682" lon="13.223190998771093"><ele>158.0</ele><time>2026-04-06T17:08:49.999Z</time></trkpt><trkpt lat="46.13314470112323" lon="13.223256234004852"><ele>158.0</ele><time>2026-04-06T17:08:50.999Z</time></trkpt><trkpt lat="46.1329221764571" lon="13.22329583051132"><ele>157.33333333333331</ele><time>2026-04-06T17:08:51.999Z</time></trkpt><trkpt lat="46.132699692107686" lon="13.223336225297356"><ele>156.66666666666666</ele><time>2026-04-06T17:08:52.999Z</time></trkpt><trkpt lat="46.132484161179285" lon="13.223379963972283"><ele>156.0</ele><time>2026-04-06T17:08:53.999Z</time></trkpt><trkpt lat="46.13227653900296" lon="13.223423682474401"><ele>156.0</ele><time>2026-04-06T17:08:54.999Z</time></trkpt><trkpt lat="46.13207589562245" lon="13.22346472889415"><ele>156.0</ele><time>2026-04-06T17:08:55.999Z</time></trkpt><trkpt lat="46.13188185279105" lon="13.22350814122148"><ele>156.0</ele><time>2026-04-06T17:08:56.999Z</time></trkpt><trkpt lat="46.1316879970109" lon="13.223555393030345"><ele>155.66666666666666</ele><time>2026-04-06T17:08:57.999Z</time></trkpt><trkpt lat="46.13149584698031" lon="13.223597822754284"><ele>155.33333333333331</ele><time>2026-04-06T17:08:58.999Z</time></trkpt><trkpt lat="46.13130311883031" lon="13.223636919491822"><ele>155.0</ele><time>2026-04-06T17:08:59.999Z</time></trkpt><trkpt lat="46.13111224460821" lon="13.223673879181836"><ele>155.0</ele><time>2026-04-06T17:09:00.999Z</time></trkpt><trkpt lat="46.13092465749982" lon="13.22371137203889"><ele>155.0</ele><time>2026-04-06T17:09:01.999Z</time></trkpt><trkpt lat="46.13074122552414" lon="13.223746518139391"><ele>155.0</ele><time>2026-04-06T17:09:02.999Z</time></trkpt><trkpt lat="46.13056774683938" lon="13.223782536946606"><ele>155.0</ele><time>2026-04-06T17:09:03.999Z</time></trkpt><trkpt lat="46.13039650491329" lon="13.223819835146399"><ele>155.0</ele><time>2026-04-06T17:09:04.999Z</time></trkpt><trkpt lat="46.13021284250251" lon="13.223861456407699"><ele>155.0</ele><time>2026-04-06T17:09:05.999Z</time></trkpt><trkpt lat="46.13002729035415" lon="13.2239022818629"><ele>153.33333333333331</ele><time>2026-04-06T17:09:06.999Z</time></trkpt><trkpt lat="46.129863680694186" lon="13.223934216947653"><ele>151.66666666666666</ele><time>2026-04-06T17:09:07.999Z</time></trkpt><trkpt lat="46.12971064989373" lon="13.223950946102711"><ele>150.0</ele><time>2026-04-06T17:09:08.999Z</time></trkpt><trkpt lat="46.12957857857414" lon="13.223931769279286"><ele>150.0</ele><time>2026-04-06T17:09:09.999Z</time></trkpt><trkpt lat="46.12946393131124" lon="13.223882107999142"><ele>150.0</ele><time>2026-04-06T17:09:10.999Z</time></trkpt><trkpt lat="46.12935881979555" lon="13.223843826993173"><ele>150.0</ele><time>2026-04-06T17:09:11.999Z</time></trkpt><trkpt lat="46.1292567744213" lon="13.223871655367937"><ele>150.0</ele><time>2026-04-06T17:09:12.999Z</time></trkpt><trkpt lat="46.12914457706693" lon="13.223959687627216"><ele>150.33333333333334</ele><time>2026-04-06T17:09:13.999Z</time></trkpt><trkpt lat="46.12900873094406" lon="13.224046884609102"><ele>150.66666666666669</ele><time>2026-04-06T17:09:14.999Z</time></trkpt><trkpt lat="46.12884448818403" lon="13.224106562372139"><ele>151.0</ele><time>2026-04-06T17:09:15.999Z</time></trkpt><trkpt lat="46.12866615643169" lon="13.224152219066145"><ele>151.0</ele><time>2026-04-06T17:09:16.999Z</time></trkpt><trkpt lat="46.12847600395458" lon="13.224191242326292"><ele>151.0</ele><time>2026-04-06T17:09:17.999Z</time></trkpt><trkpt lat="46.128295038785964" lon="13.224230871169095"><ele>151.0</ele><time>2026-04-06T17:09:18.999Z</time></trkpt><trkpt lat="46.128133025130026" lon="13.224265685334853"><ele>151.33333333333334</ele><time>2026-04-06T17:09:19.999Z</time></trkpt><trkpt lat="46.12797730537922" lon="13.224298448332364"><ele>151.66666666666666</ele><time>2026-04-06T17:09:20.999Z</time></trkpt><trkpt lat="46.127829584109804" lon="13.224329481716042"><ele>152.0</ele><time>2026-04-06T17:09:21.999Z</time></trkpt><trkpt lat="46.12768800872378" lon="13.224359228137281"><ele>152.0</ele><time>2026-04-06T17:09:22.999Z</time></trkpt><trkpt lat="46.1275456130567" lon="13.224388364144987"><ele>152.0</ele><time>2026-04-06T17:09:23.999Z</time></trkpt><trkpt lat="46.12740498013016" lon="13.22441719643009"><ele>152.0</ele><time>2026-04-06T17:09:24.999Z</time></trkpt><trkpt lat="46.12726831708324" lon="13.224444770475978"><ele>152.0</ele><time>2026-04-06T17:09:25.999Z</time></trkpt><trkpt lat="46.12713618538171" lon="13.224469819706556"><ele>151.75</ele><time>2026-04-06T17:09:26.999Z</time></trkpt><trkpt lat="46.1270101220515" lon="13.224497085222632"><ele>151.5</ele><time>2026-04-06T17:09:27.999Z</time></trkpt><trkpt lat="46.12688670264417" lon="13.224523056109378"><ele>151.25</ele><time>2026-04-06T17:09:28.999Z</time></trkpt><trkpt lat="46.12676193080368" lon="13.224548831676145"><ele>151.0</ele><time>2026-04-06T17:09:29.999Z</time></trkpt><trkpt lat="46.12663514837604" lon="13.224573944439378"><ele>150.25</ele><time>2026-04-06T17:09:30.999Z</time></trkpt><trkpt lat="46.12650694521492" lon="13.224601458944983"><ele>149.5</ele><time>2026-04-06T17:09:31.999Z</time></trkpt><trkpt lat="46.126382830828085" lon="13.22462807805434"><ele>148.75</ele><time>2026-04-06T17:09:32.999Z</time></trkpt><trkpt lat="46.12626852562153" lon="13.22465078385105"><ele>148.0</ele><time>2026-04-06T17:09:33.999Z</time></trkpt><trkpt lat="46.12615352488083" lon="13.224673865041199"><ele>148.0</ele><time>2026-04-06T17:09:34.999Z</time></trkpt><trkpt lat="46.126036243261524" lon="13.224696280001094"><ele>148.0</ele><time>2026-04-06T17:09:35.999Z</time></trkpt><trkpt lat="46.125917957231344" lon="13.224710150078048"><ele>148.0</ele><time>2026-04-06T17:09:36.999Z</time></trkpt><trkpt lat="46.1258168969266" lon="13.224712633046904"><ele>148.0</ele><time>2026-04-06T17:09:37.999Z</time></trkpt><trkpt lat="46.12572294805044" lon="13.22470620419976"><ele>148.0</ele><time>2026-04-06T17:09:38.999Z</time></trkpt><trkpt lat="46.12563115607906" lon="13.224691131295558"><ele>148.25</ele><time>2026-04-06T17:09:39.999Z</time></trkpt><trkpt lat="46.125529573949805" lon="13.224701811657308"><ele>148.5</ele><time>2026-04-06T17:09:40.999Z</time></trkpt><trkpt lat="46.12542042413619" lon="13.224762121222382"><ele>148.75</ele><time>2026-04-06T17:09:41.999Z</time></trkpt><trkpt lat="46.125298125645195" lon="13.224828275852616"><ele>149.0</ele><time>2026-04-06T17:09:42.999Z</time></trkpt><trkpt lat="46.12515972409332" lon="13.224866163171734"><ele>149.0</ele><time>2026-04-06T17:09:43.999Z</time></trkpt><trkpt lat="46.12500584806731" lon="13.224887262859236"><ele>149.0</ele><time>2026-04-06T17:09:44.999Z</time></trkpt><trkpt lat="46.124837453802144" lon="13.224917764204216"><ele>149.0</ele><time>2026-04-06T17:09:45.999Z</time></trkpt><trkpt lat="46.12466025153479" lon="13.224959264932679"><ele>148.0</ele><time>2026-04-06T17:09:46.999Z</time></trkpt><trkpt lat="46.12448164460922" lon="13.224996322673112"><ele>147.0</ele><time>2026-04-06T17:09:47.999Z</time></trkpt><trkpt lat="46.12430422310572" lon="13.225031165015544"><ele>146.0</ele><time>2026-04-06T17:09:48.999Z</time></trkpt><trkpt lat="46.12412936653446" lon="13.225062130178436"><ele>146.0</ele><time>2026-04-06T17:09:49.999Z</time></trkpt><trkpt lat="46.12395457057679" lon="13.225084571337577"><ele>146.0</ele><time>2026-04-06T17:09:50.999Z</time></trkpt><trkpt lat="46.12378618375038" lon="13.225132997182964"><ele>146.0</ele><time>2026-04-06T17:09:51.999Z</time></trkpt><trkpt lat="46.12361434278056" lon="13.225090911922642"><ele>146.0</ele><time>2026-04-06T17:09:52.999Z</time></trkpt><trkpt lat="46.12345023768767" lon="13.225079838867744"><ele>146.0</ele><time>2026-04-06T17:09:53.999Z</time></trkpt><trkpt lat="46.12328480775791" lon="13.225059083140426"><ele>146.0</ele><time>2026-04-06T17:09:54.999Z</time></trkpt><trkpt lat="46.12311592927955" lon="13.225030873546388"><ele>145.66666666666666</ele><time>2026-04-06T17:09:55.999Z</time></trkpt><trkpt lat="46.122946322815466" lon="13.2249878703593"><ele>145.33333333333334</ele><time>2026-04-06T17:09:56.999Z</time></trkpt><trkpt lat="46.12278154066041" lon="13.224935696835526"><ele>145.0</ele><time>2026-04-06T17:09:57.999Z</time></trkpt><trkpt lat="46.122623869080726" lon="13.224872439253954"><ele>144.33333333333334</ele><time>2026-04-06T17:09:58.999Z</time></trkpt><trkpt lat="46.122468885632465" lon="13.224800679935584"><ele>143.66666666666666</ele><time>2026-04-06T17:09:59.999Z</time></trkpt><trkpt lat="46.12230978167453" lon="13.224715458844178"><ele>143.0</ele><time>2026-04-06T17:10:00.999Z</time></trkpt><trkpt lat="46.12215015686843" lon="13.224620716594567"><ele>142.66666666666666</ele><time>2026-04-06T17:10:01.999Z</time></trkpt><trkpt lat="46.12199312122497" lon="13.224516276546966"><ele>142.33333333333334</ele><time>2026-04-06T17:10:02.999Z</time></trkpt><trkpt lat="46.12184016968091" lon="13.224399182327517"><ele>142.0</ele><time>2026-04-06T17:10:03.999Z</time></trkpt><trkpt lat="46.121691025866895" lon="13.22427566687406"><ele>141.66666666666669</ele><time>2026-04-06T17:10:04.999Z</time></trkpt><trkpt lat="46.121539236152245" lon="13.224143120632297"><ele>141.33333333333334</ele><time>2026-04-06T17:10:05.999Z</time></trkpt><trkpt lat="46.12138559978486" lon="13.22400768488706"><ele>141.0</ele><time>2026-04-06T17:10:06.999Z</time></trkpt><trkpt lat="46.12123691546507" lon="13.223878905100223"><ele>141.0</ele><time>2026-04-06T17:10:07.999Z</time></trkpt><trkpt lat="46.121098508270194" lon="13.223757336261368"><ele>141.0</ele><time>2026-04-06T17:10:08.999Z</time></trkpt><trkpt lat="46.120966844554054" lon="13.223644788434012"><ele>141.0</ele><time>2026-04-06T17:10:09.999Z</time></trkpt><trkpt lat="46.120839906738624" lon="13.22353693256368"><ele>141.66666666666666</ele><time>2026-04-06T17:10:10.999Z</time></trkpt><trkpt lat="46.12071301550549" lon="13.223425192800518"><ele>142.33333333333331</ele><time>2026-04-06T17:10:12Z</time></trkpt><trkpt lat="46.12058435591533" lon="13.223311169693492"><ele>143.0</ele><time>2026-04-06T17:10:13Z</time></trkpt><trkpt lat="46.12045277906352" lon="13.223194643439854"><ele>142.66666666666666</ele><time>2026-04-06T17:10:14Z</time></trkpt><trkpt lat="46.120320386451084" lon="13.22307473846609"><ele>142.33333333333334</ele><time>2026-04-06T17:10:15Z</time></trkpt><trkpt lat="46.12018373444789" lon="13.222951041892882"><ele>142.0</ele><time>2026-04-06T17:10:16Z</time></trkpt><trkpt lat="46.12004561545164" lon="13.222824546510271"><ele>142.0</ele><time>2026-04-06T17:10:17Z</time></trkpt><trkpt lat="46.11990285700366" lon="13.222677388949991"><ele>142.0</ele><time>2026-04-06T17:10:18Z</time></trkpt><trkpt lat="46.119751956999615" lon="13.222525641705513"><ele>142.0</ele><time>2026-04-06T17:10:19Z</time></trkpt><trkpt lat="46.119592446023375" lon="13.222373048800014"><ele>142.0</ele><time>2026-04-06T17:10:20Z</time></trkpt><trkpt lat="46.11942036732855" lon="13.222213806209023"><ele>142.0</ele><time>2026-04-06T17:10:21Z</time></trkpt><trkpt lat="46.119227858072676" lon="13.222031840034484"><ele>142.0</ele><time>2026-04-06T17:10:22Z</time></trkpt><trkpt lat="46.11902976570191" lon="13.22184119463893"><ele>142.0</ele><time>2026-04-06T17:10:23Z</time></trkpt><trkpt lat="46.118824977232066" lon="13.221639409262453"><ele>142.0</ele><time>2026-04-06T17:10:24Z</time></trkpt><trkpt lat="46.11861487346434" lon="13.221427317753067"><ele>141.5</ele><time>2026-04-06T17:10:25Z</time></trkpt><trkpt lat="46.11839984233272" lon="13.221209970588447"><ele>141.0</ele><time>2026-04-06T17:10:26Z</time></trkpt><trkpt lat="46.11818642329052" lon="13.220988616986538"><ele>141.0</ele><time>2026-04-06T17:10:27Z</time></trkpt><trkpt lat="46.11797404727431" lon="13.220759630900801"><ele>141.0</ele><time>2026-04-06T17:10:28Z</time></trkpt><trkpt lat="46.117761994717966" lon="13.220534548743593"><ele>141.0</ele><time>2026-04-06T17:10:29Z</time></trkpt><trkpt lat="46.11755153386251" lon="13.220320508455991"><ele>141.0</ele><time>2026-04-06T17:10:30Z</time></trkpt><trkpt lat="46.11734141877187" lon="13.220108991357307"><ele>140.5</ele><time>2026-04-06T17:10:31Z</time></trkpt><trkpt lat="46.11713035394044" lon="13.219895590388187"><ele>140.0</ele><time>2026-04-06T17:10:32Z</time></trkpt><trkpt lat="46.116921749261316" lon="13.219683210655367"><ele>140.0</ele><time>2026-04-06T17:10:33Z</time></trkpt><trkpt lat="46.116713595352216" lon="13.219472488810954"><ele>140.0</ele><time>2026-04-06T17:10:34Z</time></trkpt><trkpt lat="46.11650734605819" lon="13.219259700593138"><ele>140.0</ele><time>2026-04-06T17:10:35Z</time></trkpt><trkpt lat="46.116301523312174" lon="13.219047968228626"><ele>140.0</ele><time>2026-04-06T17:10:36Z</time></trkpt><trkpt lat="46.11609551085971" lon="13.21883943119079"><ele>140.5</ele><time>2026-04-06T17:10:37Z</time></trkpt><trkpt lat="46.115889705103974" lon="13.21863028933886"><ele>141.0</ele><time>2026-04-06T17:10:38Z</time></trkpt><trkpt lat="46.11568384435606" lon="13.218419130562733"><ele>140.0</ele><time>2026-04-06T17:10:38.999Z</time></trkpt><trkpt lat="46.115478221063874" lon="13.218201015573484"><ele>139.0</ele><time>2026-04-06T17:10:39.999Z</time></trkpt><trkpt lat="46.11527229735529" lon="13.21797336184717"><ele>139.0</ele><time>2026-04-06T17:10:40.999Z</time></trkpt><trkpt lat="46.11506866642039" lon="13.21773798256102"><ele>139.0</ele><time>2026-04-06T17:10:41.999Z</time></trkpt><trkpt lat="46.114868110451454" lon="13.217492335817312"><ele>139.5</ele><time>2026-04-06T17:10:42.999Z</time></trkpt><trkpt lat="46.114672319481116" lon="13.217235210809383"><ele>140.0</ele><time>2026-04-06T17:10:43.999Z</time></trkpt><trkpt lat="46.11448088036196" lon="13.21696690378615"><ele>140.0</ele><time>2026-04-06T17:10:44.999Z</time></trkpt><trkpt lat="46.11429004215175" lon="13.216689378464386"><ele>140.0</ele><time>2026-04-06T17:10:45.999Z</time></trkpt><trkpt lat="46.11409969702119" lon="13.216401648438364"><ele>139.5</ele><time>2026-04-06T17:10:46.999Z</time></trkpt><trkpt lat="46.11391231240105" lon="13.216102030807281"><ele>139.0</ele><time>2026-04-06T17:10:47.999Z</time></trkpt><trkpt lat="46.11373399141669" lon="13.21579780568314"><ele>139.0</ele><time>2026-04-06T17:10:48.999Z</time></trkpt><trkpt lat="46.11356135933853" lon="13.215486671914284"><ele>139.0</ele><time>2026-04-06T17:10:49.999Z</time></trkpt><trkpt lat="46.11339459282536" lon="13.215171463779168"><ele>138.0</ele><time>2026-04-06T17:10:50.999Z</time></trkpt><trkpt lat="46.113235818411596" lon="13.214850262564214"><ele>137.0</ele><time>2026-04-06T17:10:51.999Z</time></trkpt><trkpt lat="46.11308131761431" lon="13.214528875837859"><ele>137.0</ele><time>2026-04-06T17:10:52.999Z</time></trkpt><trkpt lat="46.11293432910262" lon="13.214204634433859"><ele>137.0</ele><time>2026-04-06T17:10:53.999Z</time></trkpt><trkpt lat="46.112793394951346" lon="13.213882598831065"><ele>137.0</ele><time>2026-04-06T17:10:54.999Z</time></trkpt><trkpt lat="46.11265852335655" lon="13.213560139664281"><ele>137.0</ele><time>2026-04-06T17:10:55.999Z</time></trkpt><trkpt lat="46.11252706173056" lon="13.213239410695286"><ele>136.5</ele><time>2026-04-06T17:10:56.999Z</time></trkpt><trkpt lat="46.112394919303405" lon="13.212921474873871"><ele>136.0</ele><time>2026-04-06T17:10:57.999Z</time></trkpt><trkpt lat="46.1122638708979" lon="13.212609907572606"><ele>136.5</ele><time>2026-04-06T17:10:58.999Z</time></trkpt><trkpt lat="46.112131584513676" lon="13.212292993890507"><ele>137.0</ele><time>2026-04-06T17:10:59.999Z</time></trkpt><trkpt lat="46.111998631569534" lon="13.211975406064434"><ele>137.0</ele><time>2026-04-06T17:11:00.999Z</time></trkpt><trkpt lat="46.11186470384299" lon="13.211654775986029"><ele>137.0</ele><time>2026-04-06T17:11:01.999Z</time></trkpt><trkpt lat="46.111730347043455" lon="13.211335164256406"><ele>136.0</ele><time>2026-04-06T17:11:02.999Z</time></trkpt><trkpt lat="46.111595194448554" lon="13.211012525208059"><ele>135.0</ele><time>2026-04-06T17:11:03.999Z</time></trkpt><trkpt lat="46.111460342697896" lon="13.210688612049404"><ele>134.5</ele><time>2026-04-06T17:11:04.999Z</time></trkpt><trkpt lat="46.111325263854084" lon="13.21036000957643"><ele>134.0</ele><time>2026-04-06T17:11:05.999Z</time></trkpt><trkpt lat="46.111187741148605" lon="13.210036457335383"><ele>132.5</ele><time>2026-04-06T17:11:06.999Z</time></trkpt><trkpt lat="46.11105010625855" lon="13.209713716151212"><ele>131.0</ele><time>2026-04-06T17:11:07.999Z</time></trkpt><trkpt lat="46.11090972133708" lon="13.209398314689727"><ele>131.0</ele><time>2026-04-06T17:11:08.999Z</time></trkpt><trkpt lat="46.110765041100294" lon="13.20906660799611"><ele>131.0</ele><time>2026-04-06T17:11:09.999Z</time></trkpt><trkpt lat="46.1106211549875" lon="13.208731016348288"><ele>131.0</ele><time>2026-04-06T17:11:10.999Z</time></trkpt><trkpt lat="46.1104772020041" lon="13.208393023106014"><ele>131.0</ele><time>2026-04-06T17:11:11.999Z</time></trkpt><trkpt lat="46.110334394292586" lon="13.208050559601883"><ele>131.0</ele><time>2026-04-06T17:11:12.999Z</time></trkpt><trkpt lat="46.11019500980973" lon="13.207703455715606"><ele>131.0</ele><time>2026-04-06T17:11:13.999Z</time></trkpt><trkpt lat="46.11006484298456" lon="13.207350965268807"><ele>131.5</ele><time>2026-04-06T17:11:14.999Z</time></trkpt><trkpt lat="46.109940757907474" lon="13.206990800267913"><ele>132.0</ele><time>2026-04-06T17:11:15.999Z</time></trkpt><trkpt lat="46.10982251952653" lon="13.20662752576731"><ele>131.5</ele><time>2026-04-06T17:11:16.999Z</time></trkpt><trkpt lat="46.10970801403644" lon="13.206260022121556"><ele>131.0</ele><time>2026-04-06T17:11:17.999Z</time></trkpt><trkpt lat="46.10959450322631" lon="13.20589233416104"><ele>130.5</ele><time>2026-04-06T17:11:18.999Z</time></trkpt><trkpt lat="46.10947921926961" lon="13.205531982760787"><ele>130.0</ele><time>2026-04-06T17:11:19.999Z</time></trkpt><trkpt lat="46.10936078139972" lon="13.205175695118237"><ele>128.5</ele><time>2026-04-06T17:11:20.999Z</time></trkpt><trkpt lat="46.109242772635085" lon="13.204825004083311"><ele>127.0</ele><time>2026-04-06T17:11:21.999Z</time></trkpt><trkpt lat="46.10912263686292" lon="13.204481195787583"><ele>128.0</ele><time>2026-04-06T17:11:22.999Z</time></trkpt><trkpt lat="46.10899650383618" lon="13.204145985012506"><ele>129.0</ele><time>2026-04-06T17:11:23.999Z</time></trkpt><trkpt lat="46.10886532639639" lon="13.20382463017049"><ele>129.0</ele><time>2026-04-06T17:11:24.999Z</time></trkpt><trkpt lat="46.10873825487223" lon="13.20352168377403"><ele>129.0</ele><time>2026-04-06T17:11:25.999Z</time></trkpt><trkpt lat="46.108620512086794" lon="13.203240136320046"><ele>129.33333333333334</ele><time>2026-04-06T17:11:26.999Z</time></trkpt><trkpt lat="46.108509804289376" lon="13.202975552729892"><ele>129.66666666666669</ele><time>2026-04-06T17:11:27.999Z</time></trkpt><trkpt lat="46.10840067801976" lon="13.20273045163743"><ele>130.0</ele><time>2026-04-06T17:11:28.999Z</time></trkpt><trkpt lat="46.1082764264071" lon="13.202499036742859"><ele>129.66666666666669</ele><time>2026-04-06T17:11:29.999Z</time></trkpt><trkpt lat="46.10813613201535" lon="13.202288568892666"><ele>129.33333333333334</ele><time>2026-04-06T17:11:30.999Z</time></trkpt><trkpt lat="46.1079752919015" lon="13.202094287405876"><ele>129.0</ele><time>2026-04-06T17:11:31.999Z</time></trkpt><trkpt lat="46.10779785882051" lon="13.20192781804178"><ele>129.0</ele><time>2026-04-06T17:11:32.999Z</time></trkpt><trkpt lat="46.107609718811375" lon="13.201784984444712"><ele>129.0</ele><time>2026-04-06T17:11:33.999Z</time></trkpt><trkpt lat="46.10740852809072" lon="13.201674997760044"><ele>129.0</ele><time>2026-04-06T17:11:34.999Z</time></trkpt><trkpt lat="46.107196150235325" lon="13.201598592014994"><ele>128.5</ele><time>2026-04-06T17:11:35.999Z</time></trkpt><trkpt lat="46.106974445477945" lon="13.201563779436443"><ele>128.0</ele><time>2026-04-06T17:11:36.999Z</time></trkpt><trkpt lat="46.10674754581981" lon="13.201570185686473"><ele>127.5</ele><time>2026-04-06T17:11:37.999Z</time></trkpt><trkpt lat="46.10651362846181" lon="13.201617919430113"><ele>127.0</ele><time>2026-04-06T17:11:38.999Z</time></trkpt><trkpt lat="46.10627257394626" lon="13.201670560170097"><ele>127.0</ele><time>2026-04-06T17:11:39.999Z</time></trkpt><trkpt lat="46.1060262962758" lon="13.201691515044164"><ele>127.0</ele><time>2026-04-06T17:11:40.999Z</time></trkpt><trkpt lat="46.10576757530975" lon="13.201686545754763"><ele>127.5</ele><time>2026-04-06T17:11:41.999Z</time></trkpt><trkpt lat="46.10550452826096" lon="13.201654432680902"><ele>128.0</ele><time>2026-04-06T17:11:42.999Z</time></trkpt><trkpt lat="46.105240149678465" lon="13.201604325377335"><ele>128.0</ele><time>2026-04-06T17:11:43.999Z</time></trkpt><trkpt lat="46.10497261241395" lon="13.201534691475038"><ele>128.0</ele><time>2026-04-06T17:11:44.999Z</time></trkpt><trkpt lat="46.104700685769835" lon="13.201438839879481"><ele>127.5</ele><time>2026-04-06T17:11:45.999Z</time></trkpt><trkpt lat="46.1044275701849" lon="13.201322583063883"><ele>127.0</ele><time>2026-04-06T17:11:46.999Z</time></trkpt><trkpt lat="46.104152050021206" lon="13.201193518803068"><ele>126.5</ele><time>2026-04-06T17:11:47.999Z</time></trkpt><trkpt lat="46.10387403288144" lon="13.20105999360351"><ele>126.0</ele><time>2026-04-06T17:11:48.999Z</time></trkpt><trkpt lat="46.103597037172655" lon="13.20092783391481"><ele>126.0</ele><time>2026-04-06T17:11:49.999Z</time></trkpt><trkpt lat="46.103323716641015" lon="13.200799857476568"><ele>126.0</ele><time>2026-04-06T17:11:50.999Z</time></trkpt><trkpt lat="46.10305642045899" lon="13.200674186959759"><ele>124.5</ele><time>2026-04-06T17:11:51.999Z</time></trkpt><trkpt lat="46.10279069455946" lon="13.200550775003975"><ele>123.0</ele><time>2026-04-06T17:11:52.999Z</time></trkpt><trkpt lat="46.10252777379319" lon="13.200426462081603"><ele>123.0</ele><time>2026-04-06T17:11:53.999Z</time></trkpt><trkpt lat="46.102265793171476" lon="13.200301938530675"><ele>123.0</ele><time>2026-04-06T17:11:54.999Z</time></trkpt><trkpt lat="46.10200485385397" lon="13.200179754658588"><ele>123.0</ele><time>2026-04-06T17:11:55.999Z</time></trkpt><trkpt lat="46.10174288777324" lon="13.200059443423546"><ele>123.0</ele><time>2026-04-06T17:11:56.999Z</time></trkpt><trkpt lat="46.10148215555627" lon="13.199943463227315"><ele>124.0</ele><time>2026-04-06T17:11:57.999Z</time></trkpt><trkpt lat="46.101223227529104" lon="13.199831136430324"><ele>125.0</ele><time>2026-04-06T17:11:58.999Z</time></trkpt><trkpt lat="46.10096675552243" lon="13.199713350958039"><ele>124.0</ele><time>2026-04-06T17:11:59.999Z</time></trkpt><trkpt lat="46.100714970047704" lon="13.199592873453886"><ele>123.0</ele><time>2026-04-06T17:12:00.999Z</time></trkpt><trkpt lat="46.10046553234252" lon="13.199473202104732"><ele>123.0</ele><time>2026-04-06T17:12:01.999Z</time></trkpt><trkpt lat="46.100216545644884" lon="13.199357065308087"><ele>123.0</ele><time>2026-04-06T17:12:02.999Z</time></trkpt><trkpt lat="46.099969154511626" lon="13.199238999433984"><ele>122.0</ele><time>2026-04-06T17:12:03.999Z</time></trkpt><trkpt lat="46.09971991045633" lon="13.199121772342286"><ele>121.0</ele><time>2026-04-06T17:12:04.999Z</time></trkpt><trkpt lat="46.09947163737373" lon="13.199002700878129"><ele>121.5</ele><time>2026-04-06T17:12:05.999Z</time></trkpt><trkpt lat="46.09922096719711" lon="13.198883436946806"><ele>122.0</ele><time>2026-04-06T17:12:06.999Z</time></trkpt><trkpt lat="46.09896864935797" lon="13.19876331628806"><ele>122.5</ele><time>2026-04-06T17:12:07.999Z</time></trkpt><trkpt lat="46.098715269436255" lon="13.198644016529121"><ele>123.0</ele><time>2026-04-06T17:12:08.999Z</time></trkpt><trkpt lat="46.09846001249044" lon="13.198523895471283"><ele>123.5</ele><time>2026-04-06T17:12:09.999Z</time></trkpt><trkpt lat="46.098204054377305" lon="13.198399592963785"><ele>124.0</ele><time>2026-04-06T17:12:10.999Z</time></trkpt><trkpt lat="46.09794739680734" lon="13.198275558705891"><ele>123.5</ele><time>2026-04-06T17:12:11.999Z</time></trkpt><trkpt lat="46.09769058781602" lon="13.198152227342051"><ele>123.0</ele><time>2026-04-06T17:12:12.999Z</time></trkpt><trkpt lat="46.09743369367887" lon="13.198018694216854"><ele>121.5</ele><time>2026-04-06T17:12:13.999Z</time></trkpt><trkpt lat="46.09717751006313" lon="13.197881970408798"><ele>120.0</ele><time>2026-04-06T17:12:14.999Z</time></trkpt><trkpt lat="46.09691957973661" lon="13.197749308919665"><ele>120.0</ele><time>2026-04-06T17:12:15.999Z</time></trkpt><trkpt lat="46.096661875314275" lon="13.197625007845515"><ele>120.0</ele><time>2026-04-06T17:12:16.999Z</time></trkpt><trkpt lat="46.096389097727" lon="13.19757865891843"><ele>121.0</ele><time>2026-04-06T17:12:18Z</time></trkpt><trkpt lat="46.09613886179338" lon="13.197460832675608"><ele>122.0</ele><time>2026-04-06T17:12:19Z</time></trkpt><trkpt lat="46.09589688238733" lon="13.19734689561766"><ele>121.5</ele><time>2026-04-06T17:12:20Z</time></trkpt><trkpt lat="46.09566002342916" lon="13.19723536982129"><ele>121.0</ele><time>2026-04-06T17:12:21Z</time></trkpt><trkpt lat="46.09542865207424" lon="13.197122011239912"><ele>121.0</ele><time>2026-04-06T17:12:22Z</time></trkpt><trkpt lat="46.09521668257885" lon="13.19693433846977"><ele>121.0</ele><time>2026-04-06T17:12:23Z</time></trkpt><trkpt lat="46.09499006446503" lon="13.196825088268328"><ele>121.0</ele><time>2026-04-06T17:12:24Z</time></trkpt><trkpt lat="46.094764934297665" lon="13.19671793363938"><ele>121.0</ele><time>2026-04-06T17:12:25Z</time></trkpt><trkpt lat="46.09453879538955" lon="13.196612819923915"><ele>121.0</ele><time>2026-04-06T17:12:26Z</time></trkpt><trkpt lat="46.09431608918152" lon="13.19650809332315"><ele>121.0</ele><time>2026-04-06T17:12:27Z</time></trkpt><trkpt lat="46.0940961050857" lon="13.19640133586334"><ele>120.0</ele><time>2026-04-06T17:12:28Z</time></trkpt><trkpt lat="46.093875237304985" lon="13.196296620790042"><ele>119.0</ele><time>2026-04-06T17:12:29Z</time></trkpt><trkpt lat="46.09365454581382" lon="13.196191644004806"><ele>119.0</ele><time>2026-04-06T17:12:30Z</time></trkpt><trkpt lat="46.09343723129661" lon="13.196086925380506"><ele>119.0</ele><time>2026-04-06T17:12:31Z</time></trkpt><trkpt lat="46.09321989102145" lon="13.195984248668152"><ele>120.0</ele><time>2026-04-06T17:12:32Z</time></trkpt><trkpt lat="46.093002796977125" lon="13.195882663093167"><ele>121.0</ele><time>2026-04-06T17:12:33Z</time></trkpt><trkpt lat="46.09278878478844" lon="13.195781442639811"><ele>121.0</ele><time>2026-04-06T17:12:34Z</time></trkpt><trkpt lat="46.092576627561144" lon="13.1956782405089"><ele>121.0</ele><time>2026-04-06T17:12:35Z</time></trkpt><trkpt lat="46.09236408943015" lon="13.19557611801334"><ele>121.0</ele><time>2026-04-06T17:12:36Z</time></trkpt><trkpt lat="46.09215108775585" lon="13.195476534187023"><ele>120.33333333333334</ele><time>2026-04-06T17:12:37Z</time></trkpt><trkpt lat="46.09193894023502" lon="13.195376642238124"><ele>119.66666666666666</ele><time>2026-04-06T17:12:38Z</time></trkpt><trkpt lat="46.09172537254936" lon="13.19527722765662"><ele>119.0</ele><time>2026-04-06T17:12:39Z</time></trkpt><trkpt lat="46.09151153228171" lon="13.195175665687614"><ele>119.0</ele><time>2026-04-06T17:12:40Z</time></trkpt><trkpt lat="46.091296705132" lon="13.195072255099188"><ele>119.0</ele><time>2026-04-06T17:12:41Z</time></trkpt><trkpt lat="46.09108147538402" lon="13.194968800876953"><ele>119.0</ele><time>2026-04-06T17:12:41.999Z</time></trkpt><trkpt lat="46.090864858414264" lon="13.194867421153942"><ele>119.0</ele><time>2026-04-06T17:12:42.999Z</time></trkpt><trkpt lat="46.09064895324713" lon="13.194762172599942"><ele>119.5</ele><time>2026-04-06T17:12:43.999Z</time></trkpt><trkpt lat="46.09043336207977" lon="13.194658323045072"><ele>120.0</ele><time>2026-04-06T17:12:44.999Z</time></trkpt><trkpt lat="46.09021787235514" lon="13.194556300415766"><ele>120.0</ele><time>2026-04-06T17:12:45.999Z</time></trkpt><trkpt lat="46.09000741697902" lon="13.194457835379303"><ele>120.0</ele><time>2026-04-06T17:12:46.999Z</time></trkpt><trkpt lat="46.089805928142994" lon="13.194363944607215"><ele>120.0</ele><time>2026-04-06T17:12:47.999Z</time></trkpt><trkpt lat="46.08961333906836" lon="13.194269224952219"><ele>119.66666666666666</ele><time>2026-04-06T17:12:48.999Z</time></trkpt><trkpt lat="46.089425427699254" lon="13.194177529352702"><ele>119.33333333333333</ele><time>2026-04-06T17:12:49.999Z</time></trkpt><trkpt lat="46.089241365427924" lon="13.194090251143896"><ele>119.0</ele><time>2026-04-06T17:12:50.999Z</time></trkpt><trkpt lat="46.0890601414119" lon="13.194003071505369"><ele>118.66666666666666</ele><time>2026-04-06T17:12:51.999Z</time></trkpt><trkpt lat="46.088880151560545" lon="13.193917102673026"><ele>118.33333333333334</ele><time>2026-04-06T17:12:52.999Z</time></trkpt><trkpt lat="46.088700639827" lon="13.193830069731286"><ele>118.0</ele><time>2026-04-06T17:12:53.999Z</time></trkpt><trkpt lat="46.08852005017798" lon="13.193743510520704"><ele>118.0</ele><time>2026-04-06T17:12:54.999Z</time></trkpt><trkpt lat="46.088337969813566" lon="13.193657247313057"><ele>118.0</ele><time>2026-04-06T17:12:55.999Z</time></trkpt><trkpt lat="46.08815326031009" lon="13.193569809567594"><ele>118.0</ele><time>2026-04-06T17:12:56.999Z</time></trkpt><trkpt lat="46.08796509597319" lon="13.193481905682857"><ele>118.0</ele><time>2026-04-06T17:12:57.999Z</time></trkpt><trkpt lat="46.08776474545726" lon="13.193399073410053"><ele>118.0</ele><time>2026-04-06T17:12:58.999Z</time></trkpt><trkpt lat="46.08755817749059" lon="13.19331384234161"><ele>118.0</ele><time>2026-04-06T17:12:59.999Z</time></trkpt><trkpt lat="46.087340413202384" lon="13.19320663567056"><ele>117.0</ele><time>2026-04-06T17:13:00.999Z</time></trkpt><trkpt lat="46.08711278552374" lon="13.193096005636948"><ele>116.0</ele><time>2026-04-06T17:13:01.999Z</time></trkpt><trkpt lat="46.0868767803978" lon="13.19298368440756"><ele>116.0</ele><time>2026-04-06T17:13:02.999Z</time></trkpt><trkpt lat="46.08663490794122" lon="13.192864371922841"><ele>116.0</ele><time>2026-04-06T17:13:03.999Z</time></trkpt><trkpt lat="46.086398560886984" lon="13.192746077914167"><ele>114.5</ele><time>2026-04-06T17:13:04.999Z</time></trkpt><trkpt lat="46.08616431949142" lon="13.192627152355325"><ele>113.0</ele><time>2026-04-06T17:13:05.999Z</time></trkpt><trkpt lat="46.08593413017559" lon="13.192513512891187"><ele>113.5</ele><time>2026-04-06T17:13:06.999Z</time></trkpt><trkpt lat="46.08570676214166" lon="13.1924038513338"><ele>114.0</ele><time>2026-04-06T17:13:07.999Z</time></trkpt><trkpt lat="46.08548489135954" lon="13.192297740692714"><ele>114.66666666666666</ele><time>2026-04-06T17:13:08.999Z</time></trkpt><trkpt lat="46.08527454785749" lon="13.19219559696659"><ele>115.33333333333333</ele><time>2026-04-06T17:13:09.999Z</time></trkpt><trkpt lat="46.08507168312938" lon="13.19209642295304"><ele>116.0</ele><time>2026-04-06T17:13:10.999Z</time></trkpt><trkpt lat="46.08487571720893" lon="13.191999951226407"><ele>116.33333333333333</ele><time>2026-04-06T17:13:11.999Z</time></trkpt><trkpt lat="46.08468158961741" lon="13.19190780549586"><ele>116.66666666666666</ele><time>2026-04-06T17:13:12.999Z</time></trkpt><trkpt lat="46.08448869357944" lon="13.191817334925513"><ele>117.0</ele><time>2026-04-06T17:13:13.999Z</time></trkpt><trkpt lat="46.08429697586849" lon="13.191725677210558"><ele>117.0</ele><time>2026-04-06T17:13:14.999Z</time></trkpt><trkpt lat="46.08409771715078" lon="13.191630281167656"><ele>117.0</ele><time>2026-04-06T17:13:15.999Z</time></trkpt><trkpt lat="46.08389349074152" lon="13.191540088361796"><ele>117.0</ele><time>2026-04-06T17:13:16.999Z</time></trkpt><trkpt lat="46.083679162104445" lon="13.19146101152171"><ele>117.0</ele><time>2026-04-06T17:13:17.999Z</time></trkpt><trkpt lat="46.08345695602428" lon="13.19138586098834"><ele>117.0</ele><time>2026-04-06T17:13:18.999Z</time></trkpt><trkpt lat="46.08322536737298" lon="13.191315358855235"><ele>116.5</ele><time>2026-04-06T17:13:19.999Z</time></trkpt><trkpt lat="46.082979638939335" lon="13.19125353248569"><ele>116.0</ele><time>2026-04-06T17:13:20.999Z</time></trkpt><trkpt lat="46.08271620219166" lon="13.191200957392049"><ele>115.0</ele><time>2026-04-06T17:13:21.999Z</time></trkpt><trkpt lat="46.0824293993767" lon="13.191161247605717"><ele>114.0</ele><time>2026-04-06T17:13:22.999Z</time></trkpt><trkpt lat="46.082122672864195" lon="13.191131795434362"><ele>114.0</ele><time>2026-04-06T17:13:23.999Z</time></trkpt><trkpt lat="46.081803142952445" lon="13.1911105233049"><ele>114.0</ele><time>2026-04-06T17:13:24.999Z</time></trkpt><trkpt lat="46.08148893264963" lon="13.191090014752943"><ele>112.5</ele><time>2026-04-06T17:13:25.999Z</time></trkpt><trkpt lat="46.081175380882016" lon="13.191079263480738"><ele>111.0</ele><time>2026-04-06T17:13:26.999Z</time></trkpt><trkpt lat="46.08086294010833" lon="13.191089784761457"><ele>108.0</ele><time>2026-04-06T17:13:27.999Z</time></trkpt><trkpt lat="46.080554527369145" lon="13.191124600531877"><ele>105.0</ele><time>2026-04-06T17:13:28.999Z</time></trkpt><trkpt lat="46.08025274118352" lon="13.191187730801085"><ele>105.0</ele><time>2026-04-06T17:13:29.999Z</time></trkpt><trkpt lat="46.07996318953588" lon="13.191292646794192"><ele>105.0</ele><time>2026-04-06T17:13:30.999Z</time></trkpt><trkpt lat="46.07968104638602" lon="13.191413233104957"><ele>105.5</ele><time>2026-04-06T17:13:31.999Z</time></trkpt><trkpt lat="46.07940642050363" lon="13.19155103607141"><ele>106.0</ele><time>2026-04-06T17:13:32.999Z</time></trkpt><trkpt lat="46.079136414392096" lon="13.191708387082707"><ele>108.0</ele><time>2026-04-06T17:13:33.999Z</time></trkpt><trkpt lat="46.07887227306699" lon="13.191883794257228"><ele>110.0</ele><time>2026-04-06T17:13:34.999Z</time></trkpt><trkpt lat="46.07861366416858" lon="13.192079488175217"><ele>110.0</ele><time>2026-04-06T17:13:35.999Z</time></trkpt><trkpt lat="46.07836521453958" lon="13.19229440286858"><ele>110.0</ele><time>2026-04-06T17:13:36.999Z</time></trkpt><trkpt lat="46.07812104377101" lon="13.19251931211431"><ele>109.5</ele><time>2026-04-06T17:13:37.999Z</time></trkpt><trkpt lat="46.077876078293066" lon="13.192749823290917"><ele>109.0</ele><time>2026-04-06T17:13:38.999Z</time></trkpt><trkpt lat="46.07763102654602" lon="13.19297838844516"><ele>110.0</ele><time>2026-04-06T17:13:39.999Z</time></trkpt><trkpt lat="46.07738796409538" lon="13.193208498848668"><ele>111.0</ele><time>2026-04-06T17:13:40.999Z</time></trkpt><trkpt lat="46.077145524033604" lon="13.193441358343215"><ele>111.0</ele><time>2026-04-06T17:13:41.999Z</time></trkpt><trkpt lat="46.07690186924177" lon="13.193672545249953"><ele>111.0</ele><time>2026-04-06T17:13:42.999Z</time></trkpt><trkpt lat="46.076658012806824" lon="13.193909959717868"><ele>112.5</ele><time>2026-04-06T17:13:43.999Z</time></trkpt><trkpt lat="46.076418113244046" lon="13.194147604606593"><ele>114.0</ele><time>2026-04-06T17:13:44.999Z</time></trkpt><trkpt lat="46.07618171197445" lon="13.19438222042716"><ele>114.0</ele><time>2026-04-06T17:13:45.999Z</time></trkpt><trkpt lat="46.07594696881106" lon="13.194614719701832"><ele>114.0</ele><time>2026-04-06T17:13:46.999Z</time></trkpt><trkpt lat="46.07571609158726" lon="13.19484853523536"><ele>113.0</ele><time>2026-04-06T17:13:47.999Z</time></trkpt><trkpt lat="46.07548861453163" lon="13.195083626126888"><ele>112.0</ele><time>2026-04-06T17:13:48.999Z</time></trkpt><trkpt lat="46.07525762957315" lon="13.195304149212374"><ele>112.0</ele><time>2026-04-06T17:13:49.999Z</time></trkpt><trkpt lat="46.07502137246281" lon="13.195503967435338"><ele>112.0</ele><time>2026-04-06T17:13:50.999Z</time></trkpt><trkpt lat="46.074780153559885" lon="13.195681522103413"><ele>111.0</ele><time>2026-04-06T17:13:51.999Z</time></trkpt><trkpt lat="46.07453955762742" lon="13.19583750305422"><ele>110.0</ele><time>2026-04-06T17:13:52.999Z</time></trkpt><trkpt lat="46.07429667577006" lon="13.195979713173836"><ele>110.5</ele><time>2026-04-06T17:13:53.999Z</time></trkpt><trkpt lat="46.07405842334551" lon="13.196110275089978"><ele>111.0</ele><time>2026-04-06T17:13:54.999Z</time></trkpt><trkpt lat="46.073824294304416" lon="13.196230172445983"><ele>111.0</ele><time>2026-04-06T17:13:55.999Z</time></trkpt><trkpt lat="46.073591381214726" lon="13.196334380298861"><ele>111.0</ele><time>2026-04-06T17:13:56.999Z</time></trkpt><trkpt lat="46.07335196557653" lon="13.196424900870085"><ele>111.5</ele><time>2026-04-06T17:13:57.999Z</time></trkpt><trkpt lat="46.07310545368477" lon="13.196506987937951"><ele>112.0</ele><time>2026-04-06T17:13:58.999Z</time></trkpt><trkpt lat="46.072862089506394" lon="13.196573876635345"><ele>112.0</ele><time>2026-04-06T17:13:59.999Z</time></trkpt><trkpt lat="46.07260008726341" lon="13.19663178627303"><ele>112.0</ele><time>2026-04-06T17:14:00.999Z</time></trkpt><trkpt lat="46.07230382859124" lon="13.196687730096448"><ele>110.5</ele><time>2026-04-06T17:14:01.999Z</time></trkpt><trkpt lat="46.07198374645949" lon="13.196734132367268"><ele>109.0</ele><time>2026-04-06T17:14:02.999Z</time></trkpt><trkpt lat="46.0716678760949" lon="13.196778320772198"><ele>108.0</ele><time>2026-04-06T17:14:03.999Z</time></trkpt><trkpt lat="46.07135825339753" lon="13.196811283891893"><ele>107.0</ele><time>2026-04-06T17:14:04.999Z</time></trkpt><trkpt lat="46.07105141580259" lon="13.19685469667743"><ele>107.0</ele><time>2026-04-06T17:14:05.999Z</time></trkpt><trkpt lat="46.07075605166637" lon="13.196896335742473"><ele>107.0</ele><time>2026-04-06T17:14:06.999Z</time></trkpt><trkpt lat="46.070465673465655" lon="13.196934651114594"><ele>107.0</ele><time>2026-04-06T17:14:07.999Z</time></trkpt><trkpt lat="46.07017499801425" lon="13.196974687575207"><ele>107.0</ele><time>2026-04-06T17:14:08.999Z</time></trkpt><trkpt lat="46.0698848890537" lon="13.197013991379285"><ele>108.0</ele><time>2026-04-06T17:14:09.999Z</time></trkpt><trkpt lat="46.06959595988169" lon="13.1970487132253"><ele>109.0</ele><time>2026-04-06T17:14:10.999Z</time></trkpt><trkpt lat="46.06930536553003" lon="13.197087375099231"><ele>108.5</ele><time>2026-04-06T17:14:11.999Z</time></trkpt><trkpt lat="46.0690172362747" lon="13.19712531194808"><ele>108.0</ele><time>2026-04-06T17:14:12.999Z</time></trkpt><trkpt lat="46.06873186738098" lon="13.197164495034995"><ele>108.0</ele><time>2026-04-06T17:14:13.999Z</time></trkpt><trkpt lat="46.068449619395174" lon="13.197202874955417"><ele>108.0</ele><time>2026-04-06T17:14:14.999Z</time></trkpt><trkpt lat="46.068167326806815" lon="13.197241932684323"><ele>108.0</ele><time>2026-04-06T17:14:15.999Z</time></trkpt><trkpt lat="46.067884117728866" lon="13.197280236221658"><ele>108.0</ele><time>2026-04-06T17:14:16.999Z</time></trkpt><trkpt lat="46.06760162463024" lon="13.197313746342012"><ele>107.5</ele><time>2026-04-06T17:14:17.999Z</time></trkpt><trkpt lat="46.06731799284911" lon="13.19735009543434"><ele>107.0</ele><time>2026-04-06T17:14:18.999Z</time></trkpt><trkpt lat="46.06703293182394" lon="13.197388304498563"><ele>107.0</ele><time>2026-04-06T17:14:19.999Z</time></trkpt><trkpt lat="46.06674747197569" lon="13.197424802513387"><ele>107.0</ele><time>2026-04-06T17:14:20.999Z</time></trkpt><trkpt lat="46.0664615492412" lon="13.197460800801348"><ele>106.0</ele><time>2026-04-06T17:14:21.999Z</time></trkpt><trkpt lat="46.066173674477966" lon="13.197497756314645"><ele>105.0</ele><time>2026-04-06T17:14:22.999Z</time></trkpt><trkpt lat="46.06588311080112" lon="13.197533869170586"><ele>105.5</ele><time>2026-04-06T17:14:24Z</time></trkpt><trkpt lat="46.06559109541335" lon="13.197573571683245"><ele>106.0</ele><time>2026-04-06T17:14:25Z</time></trkpt><trkpt lat="46.065296545475384" lon="13.197610967274171"><ele>106.0</ele><time>2026-04-06T17:14:26Z</time></trkpt><trkpt lat="46.06499866040186" lon="13.197647718987431"><ele>106.0</ele><time>2026-04-06T17:14:27Z</time></trkpt><trkpt lat="46.064693494269726" lon="13.197689336082096"><ele>105.5</ele><time>2026-04-06T17:14:28Z</time></trkpt><trkpt lat="46.064380620694294" lon="13.197731076404185"><ele>105.0</ele><time>2026-04-06T17:14:29Z</time></trkpt><trkpt lat="46.06405841935075" lon="13.197771111546869"><ele>105.0</ele><time>2026-04-06T17:14:30Z</time></trkpt><trkpt lat="46.063733341503024" lon="13.197815343865603"><ele>105.0</ele><time>2026-04-06T17:14:31Z</time></trkpt><trkpt lat="46.063404469217964" lon="13.197859795382445"><ele>104.0</ele><time>2026-04-06T17:14:32Z</time></trkpt><trkpt lat="46.06308000353761" lon="13.197902687706991"><ele>103.0</ele><time>2026-04-06T17:14:33Z</time></trkpt><trkpt lat="46.062755623222756" lon="13.197945053333585"><ele>101.0</ele><time>2026-04-06T17:14:34Z</time></trkpt><trkpt lat="46.06243193489373" lon="13.197987793276209"><ele>99.0</ele><time>2026-04-06T17:14:35Z</time></trkpt><trkpt lat="46.06210776848334" lon="13.198031289030808"><ele>99.0</ele><time>2026-04-06T17:14:36Z</time></trkpt><trkpt lat="46.061788488856024" lon="13.19807414855573"><ele>99.0</ele><time>2026-04-06T17:14:37Z</time></trkpt><trkpt lat="46.06146908178763" lon="13.198116198370661"><ele>100.5</ele><time>2026-04-06T17:14:38Z</time></trkpt><trkpt lat="46.06115296780657" lon="13.198157776708696"><ele>102.0</ele><time>2026-04-06T17:14:39Z</time></trkpt><trkpt lat="46.06083891147858" lon="13.198197598764253"><ele>104.0</ele><time>2026-04-06T17:14:40Z</time></trkpt><trkpt lat="46.06052365879224" lon="13.198245597196465"><ele>106.0</ele><time>2026-04-06T17:14:41Z</time></trkpt><trkpt lat="46.06020914843749" lon="13.19830590051986"><ele>106.0</ele><time>2026-04-06T17:14:42Z</time></trkpt><trkpt lat="46.05989897726661" lon="13.19837755050931"><ele>106.0</ele><time>2026-04-06T17:14:43Z</time></trkpt><trkpt lat="46.05959189208437" lon="13.198459141523909"><ele>106.0</ele><time>2026-04-06T17:14:44Z</time></trkpt><trkpt lat="46.059288501967586" lon="13.198553163429494"><ele>106.0</ele><time>2026-04-06T17:14:45Z</time></trkpt><trkpt lat="46.05898630703587" lon="13.19865408665735"><ele>105.0</ele><time>2026-04-06T17:14:46Z</time></trkpt><trkpt lat="46.05868578879212" lon="13.198770203258702"><ele>104.0</ele><time>2026-04-06T17:14:46.999Z</time></trkpt><trkpt lat="46.058387133594664" lon="13.198892806722203"><ele>104.0</ele><time>2026-04-06T17:14:47.999Z</time></trkpt><trkpt lat="46.058092933702284" lon="13.199021892745083"><ele>104.0</ele><time>2026-04-06T17:14:48.999Z</time></trkpt><trkpt lat="46.05779961439447" lon="13.199157941656152"><ele>104.0</ele><time>2026-04-06T17:14:49.999Z</time></trkpt><trkpt lat="46.057509713385144" lon="13.199306727724851"><ele>104.0</ele><time>2026-04-06T17:14:50.999Z</time></trkpt><trkpt lat="46.05722256576497" lon="13.199468692295339"><ele>104.0</ele><time>2026-04-06T17:14:51.999Z</time></trkpt><trkpt lat="46.05693918643301" lon="13.199647862058123"><ele>104.0</ele><time>2026-04-06T17:14:52.999Z</time></trkpt><trkpt lat="46.0566591183242" lon="13.199834826565803"><ele>104.5</ele><time>2026-04-06T17:14:53.999Z</time></trkpt><trkpt lat="46.05638314051968" lon="13.200027936738131"><ele>105.0</ele><time>2026-04-06T17:14:54.999Z</time></trkpt><trkpt lat="46.05610566810899" lon="13.200223985769592"><ele>105.0</ele><time>2026-04-06T17:14:55.999Z</time></trkpt><trkpt lat="46.055831092400375" lon="13.20042448543234"><ele>105.0</ele><time>2026-04-06T17:14:56.999Z</time></trkpt><trkpt lat="46.05555992850721" lon="13.200626364900923"><ele>102.5</ele><time>2026-04-06T17:14:57.999Z</time></trkpt><trkpt lat="46.05529247731359" lon="13.200824381324223"><ele>100.0</ele><time>2026-04-06T17:14:58.999Z</time></trkpt><trkpt lat="46.05502844655278" lon="13.20101725977137"><ele>99.5</ele><time>2026-04-06T17:14:59.999Z</time></trkpt><trkpt lat="46.05476605065868" lon="13.201209004433412"><ele>99.0</ele><time>2026-04-06T17:15:00.999Z</time></trkpt><trkpt lat="46.0545025359077" lon="13.201400246604429"><ele>99.5</ele><time>2026-04-06T17:15:01.999Z</time></trkpt><trkpt lat="46.05424145869272" lon="13.201591871481183"><ele>100.0</ele><time>2026-04-06T17:15:02.999Z</time></trkpt><trkpt lat="46.053980613064155" lon="13.20178414257367"><ele>101.0</ele><time>2026-04-06T17:15:03.999Z</time></trkpt><trkpt lat="46.053722700038996" lon="13.201971616285839"><ele>102.0</ele><time>2026-04-06T17:15:04.999Z</time></trkpt><trkpt lat="46.053468507382135" lon="13.20215805136749"><ele>101.0</ele><time>2026-04-06T17:15:05.999Z</time></trkpt><trkpt lat="46.05322149836722" lon="13.202339575441519"><ele>100.0</ele><time>2026-04-06T17:15:06.999Z</time></trkpt><trkpt lat="46.05297643908734" lon="13.202518897256653"><ele>100.0</ele><time>2026-04-06T17:15:07.999Z</time></trkpt><trkpt lat="46.05273251624954" lon="13.202697184638849"><ele>100.0</ele><time>2026-04-06T17:15:08.999Z</time></trkpt><trkpt lat="46.05248966719127" lon="13.202874410743819"><ele>99.5</ele><time>2026-04-06T17:15:09.999Z</time></trkpt><trkpt lat="46.05224495496481" lon="13.203050380810009"><ele>99.0</ele><time>2026-04-06T17:15:10.999Z</time></trkpt><trkpt lat="46.05200186058532" lon="13.20322528374387"><ele>97.5</ele><time>2026-04-06T17:15:11.999Z</time></trkpt><trkpt lat="46.051760173781894" lon="13.203403026186344"><ele>96.0</ele><time>2026-04-06T17:15:12.999Z</time></trkpt><trkpt lat="46.051515040988896" lon="13.203583606435545"><ele>94.5</ele><time>2026-04-06T17:15:13.999Z</time></trkpt><trkpt lat="46.05126923895366" lon="13.20376167552301"><ele>93.0</ele><time>2026-04-06T17:15:14.999Z</time></trkpt><trkpt lat="46.05102045816336" lon="13.20394350038691"><ele>94.0</ele><time>2026-04-06T17:15:15.999Z</time></trkpt><trkpt lat="46.050767787918375" lon="13.20412888014265"><ele>95.0</ele><time>2026-04-06T17:15:16.999Z</time></trkpt><trkpt lat="46.05051150366861" lon="13.204316210807388"><ele>95.0</ele><time>2026-04-06T17:15:17.999Z</time></trkpt><trkpt lat="46.05025425578284" lon="13.204501504014035"><ele>95.0</ele><time>2026-04-06T17:15:18.999Z</time></trkpt><trkpt lat="46.04999571110404" lon="13.204690108168686"><ele>93.5</ele><time>2026-04-06T17:15:19.999Z</time></trkpt><trkpt lat="46.04973827254538" lon="13.2048830944532"><ele>92.0</ele><time>2026-04-06T17:15:20.999Z</time></trkpt><trkpt lat="46.04947989295187" lon="13.205076111233241"><ele>92.0</ele><time>2026-04-06T17:15:21.999Z</time></trkpt><trkpt lat="46.04921940929065" lon="13.20527116690615"><ele>92.0</ele><time>2026-04-06T17:15:22.999Z</time></trkpt><trkpt lat="46.04896478071811" lon="13.2054728772072"><ele>91.0</ele><time>2026-04-06T17:15:23.999Z</time></trkpt><trkpt lat="46.048713891823176" lon="13.20568403397956"><ele>90.0</ele><time>2026-04-06T17:15:24.999Z</time></trkpt><trkpt lat="46.04846637911123" lon="13.205901116735609"><ele>93.0</ele><time>2026-04-06T17:15:25.999Z</time></trkpt><trkpt lat="46.048227045057125" lon="13.20612730444179"><ele>96.0</ele><time>2026-04-06T17:15:26.999Z</time></trkpt><trkpt lat="46.0479985608285" lon="13.206362007031421"><ele>94.0</ele><time>2026-04-06T17:15:27.999Z</time></trkpt><trkpt lat="46.04777255519356" lon="13.206611896078543"><ele>92.0</ele><time>2026-04-06T17:15:28.999Z</time></trkpt><trkpt lat="46.04754908046446" lon="13.206875172123825"><ele>93.5</ele><time>2026-04-06T17:15:29.999Z</time></trkpt><trkpt lat="46.04732976751326" lon="13.207146775123421"><ele>95.0</ele><time>2026-04-06T17:15:30.999Z</time></trkpt><trkpt lat="46.04711140744402" lon="13.207429163607436"><ele>95.0</ele><time>2026-04-06T17:15:31.999Z</time></trkpt><trkpt lat="46.046890822585596" lon="13.207714448613732"><ele>95.0</ele><time>2026-04-06T17:15:32.999Z</time></trkpt><trkpt lat="46.04667416874754" lon="13.207999656209658"><ele>95.5</ele><time>2026-04-06T17:15:33.999Z</time></trkpt><trkpt lat="46.04645561159787" lon="13.208287000577304"><ele>96.0</ele><time>2026-04-06T17:15:34.999Z</time></trkpt><trkpt lat="46.04623586173181" lon="13.208571562194484"><ele>96.0</ele><time>2026-04-06T17:15:35.999Z</time></trkpt><trkpt lat="46.0460072982826" lon="13.208849654664991"><ele>96.0</ele><time>2026-04-06T17:15:36.999Z</time></trkpt><trkpt lat="46.04576811163317" lon="13.209111996583047"><ele>96.5</ele><time>2026-04-06T17:15:37.999Z</time></trkpt><trkpt lat="46.04552163943079" lon="13.209359773178495"><ele>97.0</ele><time>2026-04-06T17:15:38.999Z</time></trkpt><trkpt lat="46.04526893743627" lon="13.209593170020051"><ele>97.0</ele><time>2026-04-06T17:15:39.999Z</time></trkpt><trkpt lat="46.045011453367174" lon="13.209808768717636"><ele>97.0</ele><time>2026-04-06T17:15:40.999Z</time></trkpt><trkpt lat="46.04474992810783" lon="13.21000834658048"><ele>95.0</ele><time>2026-04-06T17:15:41.999Z</time></trkpt><trkpt lat="46.04448392707167" lon="13.210195708721304"><ele>93.0</ele><time>2026-04-06T17:15:42.999Z</time></trkpt><trkpt lat="46.044216802325856" lon="13.210371580918764"><ele>90.5</ele><time>2026-04-06T17:15:43.999Z</time></trkpt><trkpt lat="46.04394964240339" lon="13.210536369127391"><ele>88.0</ele><time>2026-04-06T17:15:44.999Z</time></trkpt><trkpt lat="46.043681955757684" lon="13.21068702744474"><ele>88.0</ele><time>2026-04-06T17:15:45.999Z</time></trkpt><trkpt lat="46.04341520183231" lon="13.210818571914404"><ele>88.0</ele><time>2026-04-06T17:15:46.999Z</time></trkpt><trkpt lat="46.04314674266201" lon="13.210928440778943"><ele>89.0</ele><time>2026-04-06T17:15:47.999Z</time></trkpt><trkpt lat="46.04287683761418" lon="13.210998881392001"><ele>90.0</ele><time>2026-04-06T17:15:48.999Z</time></trkpt><trkpt lat="46.042606954256826" lon="13.211037736046801"><ele>90.5</ele><time>2026-04-06T17:15:49.999Z</time></trkpt><trkpt lat="46.04234261017307" lon="13.211031530943977"><ele>91.0</ele><time>2026-04-06T17:15:50.999Z</time></trkpt><trkpt lat="46.042082541628325" lon="13.210989088174951"><ele>91.0</ele><time>2026-04-06T17:15:51.999Z</time></trkpt><trkpt lat="46.04182228340793" lon="13.210926600233773"><ele>91.0</ele><time>2026-04-06T17:15:52.999Z</time></trkpt><trkpt lat="46.04158186815681" lon="13.210853484630116"><ele>90.5</ele><time>2026-04-06T17:15:53.999Z</time></trkpt><trkpt lat="46.04135215736621" lon="13.2107784373786"><ele>90.0</ele><time>2026-04-06T17:15:54.999Z</time></trkpt><trkpt lat="46.041121608281735" lon="13.21071554096632"><ele>90.0</ele><time>2026-04-06T17:15:55.999Z</time></trkpt><trkpt lat="46.04089338834345" lon="13.210672923940537"><ele>90.0</ele><time>2026-04-06T17:15:56.999Z</time></trkpt><trkpt lat="46.04066927538174" lon="13.210656178536212"><ele>88.66666666666667</ele><time>2026-04-06T17:15:57.999Z</time></trkpt><trkpt lat="46.040446454801874" lon="13.210663579229406"><ele>87.33333333333334</ele><time>2026-04-06T17:15:58.999Z</time></trkpt><trkpt lat="46.040227815386146" lon="13.210701563419503"><ele>86.0</ele><time>2026-04-06T17:15:59.999Z</time></trkpt><trkpt lat="46.04001768113654" lon="13.210787311747875"><ele>86.0</ele><time>2026-04-06T17:16:00.999Z</time></trkpt><trkpt lat="46.03981349013816" lon="13.210906824689161"><ele>86.0</ele><time>2026-04-06T17:16:01.999Z</time></trkpt><trkpt lat="46.039620010690534" lon="13.211070225459505"><ele>86.0</ele><time>2026-04-06T17:16:02.999Z</time></trkpt><trkpt lat="46.03943868217325" lon="13.211275674903545"><ele>86.0</ele><time>2026-04-06T17:16:03.999Z</time></trkpt><trkpt lat="46.039263861649644" lon="13.211512737392031"><ele>86.0</ele><time>2026-04-06T17:16:04.999Z</time></trkpt><trkpt lat="46.039090889150486" lon="13.211782292619944"><ele>86.0</ele><time>2026-04-06T17:16:05.999Z</time></trkpt><trkpt lat="46.038913674298996" lon="13.21206936826852"><ele>86.0</ele><time>2026-04-06T17:16:06.999Z</time></trkpt><trkpt lat="46.038740235783415" lon="13.212346481879816"><ele>88.0</ele><time>2026-04-06T17:16:07.999Z</time></trkpt><trkpt lat="46.038573091146226" lon="13.212599239741442"><ele>90.0</ele><time>2026-04-06T17:16:08.999Z</time></trkpt><trkpt lat="46.0384133230579" lon="13.212817730897854"><ele>89.33333333333333</ele><time>2026-04-06T17:16:09.999Z</time></trkpt><trkpt lat="46.03824939847535" lon="13.213019761420366"><ele>88.66666666666666</ele><time>2026-04-06T17:16:10.999Z</time></trkpt><trkpt lat="46.03807656944012" lon="13.213190843972631"><ele>88.0</ele><time>2026-04-06T17:16:11.999Z</time></trkpt><trkpt lat="46.03789025239267" lon="13.213329652294554"><ele>88.0</ele><time>2026-04-06T17:16:12.999Z</time></trkpt><trkpt lat="46.0376835862779" lon="13.213423175296693"><ele>88.0</ele><time>2026-04-06T17:16:13.999Z</time></trkpt><trkpt lat="46.037462822628555" lon="13.213496586640696"><ele>88.0</ele><time>2026-04-06T17:16:14.999Z</time></trkpt><trkpt lat="46.03722671267375" lon="13.213536885067668"><ele>87.5</ele><time>2026-04-06T17:16:15.999Z</time></trkpt><trkpt lat="46.03697958172373" lon="13.213536818613125"><ele>87.0</ele><time>2026-04-06T17:16:16.999Z</time></trkpt><trkpt lat="46.0367248539763" lon="13.2134832431982"><ele>88.0</ele><time>2026-04-06T17:16:17.999Z</time></trkpt><trkpt lat="46.03646723667768" lon="13.213404508290033"><ele>89.0</ele><time>2026-04-06T17:16:18.999Z</time></trkpt><trkpt lat="46.036205675903325" lon="13.213293606001825"><ele>89.0</ele><time>2026-04-06T17:16:19.999Z</time></trkpt><trkpt lat="46.03594137194081" lon="13.213170172864675"><ele>89.0</ele><time>2026-04-06T17:16:20.999Z</time></trkpt><trkpt lat="46.035666146068905" lon="13.213043592836183"><ele>87.5</ele><time>2026-04-06T17:16:21.999Z</time></trkpt><trkpt lat="46.03538757668132" lon="13.2129311089806"><ele>86.0</ele><time>2026-04-06T17:16:22.999Z</time></trkpt><trkpt lat="46.03510785902623" lon="13.212839525637612"><ele>86.0</ele><time>2026-04-06T17:16:23.999Z</time></trkpt><trkpt lat="46.03482928176736" lon="13.212775281681692"><ele>86.0</ele><time>2026-04-06T17:16:24.999Z</time></trkpt><trkpt lat="46.034549921307985" lon="13.212735934408773"><ele>86.0</ele><time>2026-04-06T17:16:25.999Z</time></trkpt><trkpt lat="46.034259077131" lon="13.212769803709334"><ele>86.0</ele><time>2026-04-06T17:16:26.999Z</time></trkpt><trkpt lat="46.033968208909" lon="13.212794137451354"><ele>86.5</ele><time>2026-04-06T17:16:27.999Z</time></trkpt><trkpt lat="46.0336771434743" lon="13.212818870858772"><ele>87.0</ele><time>2026-04-06T17:16:29Z</time></trkpt><trkpt lat="46.03338697362299" lon="13.212840093967188"><ele>86.5</ele><time>2026-04-06T17:16:30Z</time></trkpt><trkpt lat="46.033094929322" lon="13.21285697120123"><ele>86.0</ele><time>2026-04-06T17:16:31Z</time></trkpt><trkpt lat="46.03280107458414" lon="13.212874109213416"><ele>86.0</ele><time>2026-04-06T17:16:32Z</time></trkpt><trkpt lat="46.03250887578196" lon="13.212892522641946"><ele>86.0</ele><time>2026-04-06T17:16:33Z</time></trkpt><trkpt lat="46.03221922489906" lon="13.21291261590073"><ele>86.0</ele><time>2026-04-06T17:16:34Z</time></trkpt><trkpt lat="46.03193339446558" lon="13.21293047627396"><ele>86.0</ele><time>2026-04-06T17:16:35Z</time></trkpt><trkpt lat="46.03164887760544" lon="13.21294785366161"><ele>85.5</ele><time>2026-04-06T17:16:36Z</time></trkpt><trkpt lat="46.03136679549325" lon="13.212960882636004"><ele>85.0</ele><time>2026-04-06T17:16:37Z</time></trkpt><trkpt lat="46.03108929463912" lon="13.212963780901696"><ele>85.0</ele><time>2026-04-06T17:16:38Z</time></trkpt><trkpt lat="46.030810103067445" lon="13.212965773828122"><ele>85.0</ele><time>2026-04-06T17:16:39Z</time></trkpt><trkpt lat="46.03053581536049" lon="13.212974315303708"><ele>84.5</ele><time>2026-04-06T17:16:40Z</time></trkpt><trkpt lat="46.03026817386334" lon="13.212986837868867"><ele>84.0</ele><time>2026-04-06T17:16:41Z</time></trkpt><trkpt lat="46.0300074390665" lon="13.212999857260474"><ele>82.5</ele><time>2026-04-06T17:16:42Z</time></trkpt><trkpt lat="46.02974921700497" lon="13.213008634598978"><ele>81.0</ele><time>2026-04-06T17:16:43Z</time></trkpt><trkpt lat="46.029490959085315" lon="13.213018078113596"><ele>81.0</ele><time>2026-04-06T17:16:44Z</time></trkpt><trkpt lat="46.02923058306585" lon="13.213027729745589"><ele>81.0</ele><time>2026-04-06T17:16:45Z</time></trkpt><trkpt lat="46.02896619044255" lon="13.213032621653733"><ele>82.0</ele><time>2026-04-06T17:16:46Z</time></trkpt><trkpt lat="46.02869956697547" lon="13.2130272884808"><ele>83.0</ele><time>2026-04-06T17:16:47Z</time></trkpt><trkpt lat="46.02843082361208" lon="13.213014153183781"><ele>81.5</ele><time>2026-04-06T17:16:48Z</time></trkpt><trkpt lat="46.02816173145357" lon="13.212995533270677"><ele>80.0</ele><time>2026-04-06T17:16:48.999Z</time></trkpt><trkpt lat="46.02789627420795" lon="13.212970471351674"><ele>80.0</ele><time>2026-04-06T17:16:49.999Z</time></trkpt><trkpt lat="46.027638757326045" lon="13.212926557894864"><ele>80.0</ele><time>2026-04-06T17:16:50.999Z</time></trkpt><trkpt lat="46.027384400312094" lon="13.21287713703966"><ele>78.5</ele><time>2026-04-06T17:16:51.999Z</time></trkpt><trkpt lat="46.02712981815254" lon="13.21282863925591"><ele>77.0</ele><time>2026-04-06T17:16:52.999Z</time></trkpt><trkpt lat="46.026877860809314" lon="13.21277875991116"><ele>77.5</ele><time>2026-04-06T17:16:53.999Z</time></trkpt><trkpt lat="46.02662769748626" lon="13.212732180352663"><ele>78.0</ele><time>2026-04-06T17:16:54.999Z</time></trkpt><trkpt lat="46.02638060230266" lon="13.212689194250357"><ele>78.0</ele><time>2026-04-06T17:16:55.999Z</time></trkpt><trkpt lat="46.02613135186353" lon="13.212652298160851"><ele>78.0</ele><time>2026-04-06T17:16:56.999Z</time></trkpt><trkpt lat="46.025879868827175" lon="13.212620978904935"><ele>78.0</ele><time>2026-04-06T17:16:57.999Z</time></trkpt><trkpt lat="46.02562537528375" lon="13.21259542497501"><ele>78.0</ele><time>2026-04-06T17:16:58.999Z</time></trkpt><trkpt lat="46.0253680356054" lon="13.212579672836473"><ele>78.0</ele><time>2026-04-06T17:16:59.999Z</time></trkpt><trkpt lat="46.02510838908881" lon="13.212568560125858"><ele>78.0</ele><time>2026-04-06T17:17:00.999Z</time></trkpt><trkpt lat="46.02484627703708" lon="13.212567351511547"><ele>78.5</ele><time>2026-04-06T17:17:01.999Z</time></trkpt><trkpt lat="46.02458265426464" lon="13.21258088406635"><ele>79.0</ele><time>2026-04-06T17:17:02.999Z</time></trkpt><trkpt lat="46.02431889398275" lon="13.212609339446363"><ele>79.0</ele><time>2026-04-06T17:17:03.999Z</time></trkpt><trkpt lat="46.024055895444036" lon="13.21266327521145"><ele>79.0</ele><time>2026-04-06T17:17:04.999Z</time></trkpt><trkpt lat="46.023794265040415" lon="13.212746825494722"><ele>79.0</ele><time>2026-04-06T17:17:05.999Z</time></trkpt><trkpt lat="46.0235343526003" lon="13.212842794772659"><ele>79.0</ele><time>2026-04-06T17:17:06.999Z</time></trkpt><trkpt lat="46.02328135988034" lon="13.212957007351543"><ele>79.5</ele><time>2026-04-06T17:17:07.999Z</time></trkpt><trkpt lat="46.02304951366603" lon="13.213083597413732"><ele>80.0</ele><time>2026-04-06T17:17:08.999Z</time></trkpt><trkpt lat="46.022839571444145" lon="13.2132177386453"><ele>80.0</ele><time>2026-04-06T17:17:09.999Z</time></trkpt><trkpt lat="46.02263746835968" lon="13.213362886562837"><ele>80.0</ele><time>2026-04-06T17:17:10.999Z</time></trkpt><trkpt lat="46.02243580660479" lon="13.213522973570319"><ele>80.5</ele><time>2026-04-06T17:17:11.999Z</time></trkpt><trkpt lat="46.02223784276902" lon="13.21368926372825"><ele>81.0</ele><time>2026-04-06T17:17:12.999Z</time></trkpt><trkpt lat="46.02204551032059" lon="13.213858594892237"><ele>81.33333333333333</ele><time>2026-04-06T17:17:13.999Z</time></trkpt><trkpt lat="46.021855763287554" lon="13.214026259010678"><ele>81.66666666666666</ele><time>2026-04-06T17:17:14.999Z</time></trkpt><trkpt lat="46.021662359013156" lon="13.214190761835015"><ele>82.0</ele><time>2026-04-06T17:17:15.999Z</time></trkpt><trkpt lat="46.02146256289926" lon="13.214359710565867"><ele>81.0</ele><time>2026-04-06T17:17:16.999Z</time></trkpt><trkpt lat="46.02125952964592" lon="13.214531050220414"><ele>80.0</ele><time>2026-04-06T17:17:17.999Z</time></trkpt><trkpt lat="46.0210527988436" lon="13.21470562815866"><ele>79.5</ele><time>2026-04-06T17:17:18.999Z</time></trkpt><trkpt lat="46.020837550226844" lon="13.21488909879624"><ele>79.0</ele><time>2026-04-06T17:17:19.999Z</time></trkpt><trkpt lat="46.02061578965738" lon="13.215075164634156"><ele>79.0</ele><time>2026-04-06T17:17:20.999Z</time></trkpt><trkpt lat="46.02039360194008" lon="13.21526302630009"><ele>79.0</ele><time>2026-04-06T17:17:21.999Z</time></trkpt><trkpt lat="46.02017010155217" lon="13.215458171975701"><ele>79.0</ele><time>2026-04-06T17:17:22.999Z</time></trkpt><trkpt lat="46.01994364888859" lon="13.21565410868185"><ele>79.0</ele><time>2026-04-06T17:17:23.999Z</time></trkpt><trkpt lat="46.01971165432818" lon="13.215866071690758"><ele>79.0</ele><time>2026-04-06T17:17:24.999Z</time></trkpt><trkpt lat="46.019472969720425" lon="13.216096778192767"><ele>79.0</ele><time>2026-04-06T17:17:25.999Z</time></trkpt><trkpt lat="46.019228959297905" lon="13.216330025782476"><ele>80.0</ele><time>2026-04-06T17:17:26.999Z</time></trkpt><trkpt lat="46.01898761368828" lon="13.216569150271475"><ele>81.0</ele><time>2026-04-06T17:17:27.999Z</time></trkpt><trkpt lat="46.018752254680635" lon="13.216817250764073"><ele>81.0</ele><time>2026-04-06T17:17:28.999Z</time></trkpt><trkpt lat="46.018525959338646" lon="13.217080121028962"><ele>81.0</ele><time>2026-04-06T17:17:29.999Z</time></trkpt><trkpt lat="46.018308050795696" lon="13.217353305406588"><ele>81.5</ele><time>2026-04-06T17:17:30.999Z</time></trkpt><trkpt lat="46.018116404759034" lon="13.217636930695965"><ele>82.0</ele><time>2026-04-06T17:17:31.999Z</time></trkpt><trkpt lat="46.01794912306307" lon="13.217936815478414"><ele>82.0</ele><time>2026-04-06T17:17:32.999Z</time></trkpt><trkpt lat="46.017795709723345" lon="13.218254662791367"><ele>82.0</ele><time>2026-04-06T17:17:33.999Z</time></trkpt><trkpt lat="46.01765180835591" lon="13.21858585989649"><ele>82.0</ele><time>2026-04-06T17:17:34.999Z</time></trkpt><trkpt lat="46.01752122638764" lon="13.218921942427672"><ele>82.0</ele><time>2026-04-06T17:17:35.999Z</time></trkpt><trkpt lat="46.017403000190875" lon="13.219267759792976"><ele>81.0</ele><time>2026-04-06T17:17:36.999Z</time></trkpt><trkpt lat="46.017300860031085" lon="13.2196276629577"><ele>80.0</ele><time>2026-04-06T17:17:37.999Z</time></trkpt><trkpt lat="46.01721411797824" lon="13.22000708345575"><ele>79.0</ele><time>2026-04-06T17:17:38.999Z</time></trkpt><trkpt lat="46.01713266359251" lon="13.220408913677597"><ele>78.0</ele><time>2026-04-06T17:17:39.999Z</time></trkpt><trkpt lat="46.01704043897278" lon="13.220820401077745"><ele>78.0</ele><time>2026-04-06T17:17:40.999Z</time></trkpt><trkpt lat="46.0169426787738" lon="13.221234927674828"><ele>78.0</ele><time>2026-04-06T17:17:41.999Z</time></trkpt><trkpt lat="46.0168429537656" lon="13.221647152459711"><ele>78.0</ele><time>2026-04-06T17:17:42.999Z</time></trkpt><trkpt lat="46.01674412671614" lon="13.222054120660857"><ele>78.0</ele><time>2026-04-06T17:17:43.999Z</time></trkpt><trkpt lat="46.016647905395864" lon="13.22244952858506"><ele>79.0</ele><time>2026-04-06T17:17:44.999Z</time></trkpt><trkpt lat="46.01654673207016" lon="13.222813499006737"><ele>80.0</ele><time>2026-04-06T17:17:45.999Z</time></trkpt><trkpt lat="46.016433405187115" lon="13.22315766649745"><ele>80.5</ele><time>2026-04-06T17:17:46.999Z</time></trkpt><trkpt lat="46.01631125542014" lon="13.223491183037359"><ele>81.0</ele><time>2026-04-06T17:17:47.999Z</time></trkpt><trkpt lat="46.01617692946826" lon="13.223806955859265"><ele>80.5</ele><time>2026-04-06T17:17:48.999Z</time></trkpt><trkpt lat="46.0160308673014" lon="13.224103964553192"><ele>80.0</ele><time>2026-04-06T17:17:49.999Z</time></trkpt><trkpt lat="46.0158811168787" lon="13.224374205710175"><ele>80.0</ele><time>2026-04-06T17:17:50.999Z</time></trkpt><trkpt lat="46.015733626219934" lon="13.224617997383707"><ele>80.0</ele><time>2026-04-06T17:17:51.999Z</time></trkpt><trkpt lat="46.01558648733239" lon="13.224822803107683"><ele>80.0</ele><time>2026-04-06T17:17:52.999Z</time></trkpt><trkpt lat="46.01543897829426" lon="13.225001210035673"><ele>80.0</ele><time>2026-04-06T17:17:53.999Z</time></trkpt><trkpt lat="46.015287900336254" lon="13.225152047648656"><ele>80.0</ele><time>2026-04-06T17:17:54.999Z</time></trkpt><trkpt lat="46.01513122117873" lon="13.225283841319103"><ele>80.0</ele><time>2026-04-06T17:17:55.999Z</time></trkpt><trkpt lat="46.014987846928165" lon="13.225404037251897"><ele>79.33333333333334</ele><time>2026-04-06T17:17:56.999Z</time></trkpt><trkpt lat="46.01485444948399" lon="13.225491945164714"><ele>78.66666666666667</ele><time>2026-04-06T17:17:57.999Z</time></trkpt><trkpt lat="46.01473494291364" lon="13.225595021015796"><ele>78.0</ele><time>2026-04-06T17:17:58.999Z</time></trkpt><trkpt lat="46.01457116754892" lon="13.225560049537533"><ele>78.0</ele><time>2026-04-06T17:17:59.999Z</time></trkpt><trkpt lat="46.01443875641163" lon="13.225529563238327"><ele>78.0</ele><time>2026-04-06T17:18:00.999Z</time></trkpt><trkpt lat="46.01429687912081" lon="13.225450379445348"><ele>78.0</ele><time>2026-04-06T17:18:01.999Z</time></trkpt><trkpt lat="46.01418028153144" lon="13.22531434125834"><ele>78.0</ele><time>2026-04-06T17:18:02.999Z</time></trkpt><trkpt lat="46.014093051355815" lon="13.225135417116464"><ele>77.66666666666667</ele><time>2026-04-06T17:18:03.999Z</time></trkpt><trkpt lat="46.01403446325436" lon="13.224935016160648"><ele>77.33333333333334</ele><time>2026-04-06T17:18:04.999Z</time></trkpt><trkpt lat="46.014023055607595" lon="13.224711752219164"><ele>77.0</ele><time>2026-04-06T17:18:05.999Z</time></trkpt><trkpt lat="46.014043502025146" lon="13.224491876145372"><ele>77.0</ele><time>2026-04-06T17:18:06.999Z</time></trkpt><trkpt lat="46.01411152836321" lon="13.22428784314319"><ele>77.0</ele><time>2026-04-06T17:18:07.999Z</time></trkpt><trkpt lat="46.01420968285555" lon="13.224116580362704"><ele>77.0</ele><time>2026-04-06T17:18:08.999Z</time></trkpt><trkpt lat="46.01433700931655" lon="13.223989039301596"><ele>77.66666666666667</ele><time>2026-04-06T17:18:09.999Z</time></trkpt><trkpt lat="46.014484192050624" lon="13.223907219169606"><ele>78.33333333333333</ele><time>2026-04-06T17:18:10.999Z</time></trkpt><trkpt lat="46.014645268361505" lon="13.223898311057228"><ele>79.0</ele><time>2026-04-06T17:18:11.999Z</time></trkpt><trkpt lat="46.01480442250221" lon="13.223949687139521"><ele>78.66666666666666</ele><time>2026-04-06T17:18:12.999Z</time></trkpt><trkpt lat="46.0149509105627" lon="13.224058633963814"><ele>78.33333333333333</ele><time>2026-04-06T17:18:13.999Z</time></trkpt><trkpt lat="46.015086813476636" lon="13.224218959795365"><ele>78.0</ele><time>2026-04-06T17:18:14.999Z</time></trkpt><trkpt lat="46.01522578147696" lon="13.22441099420364"><ele>79.0</ele><time>2026-04-06T17:18:15.999Z</time></trkpt><trkpt lat="46.01536716638584" lon="13.224659728358576"><ele>80.0</ele><time>2026-04-06T17:18:16.999Z</time></trkpt><trkpt lat="46.01550364517692" lon="13.224945066158496"><ele>80.0</ele><time>2026-04-06T17:18:17.999Z</time></trkpt><trkpt lat="46.015638950417404" lon="13.225266201200977"><ele>80.0</ele><time>2026-04-06T17:18:18.999Z</time></trkpt><trkpt lat="46.01578727228438" lon="13.225621687763638"><ele>80.5</ele><time>2026-04-06T17:18:19.999Z</time></trkpt><trkpt lat="46.015944227278446" lon="13.225990489027136"><ele>81.0</ele><time>2026-04-06T17:18:20.999Z</time></trkpt><trkpt lat="46.01610420950504" lon="13.226367010527733"><ele>81.0</ele><time>2026-04-06T17:18:21.999Z</time></trkpt><trkpt lat="46.01626281345215" lon="13.2267421027859"><ele>81.0</ele><time>2026-04-06T17:18:22.999Z</time></trkpt><trkpt lat="46.01641992410914" lon="13.227111498263923"><ele>81.0</ele><time>2026-04-06T17:18:23.999Z</time></trkpt><trkpt lat="46.01657314196562" lon="13.227478569634098"><ele>81.0</ele><time>2026-04-06T17:18:24.999Z</time></trkpt><trkpt lat="46.016721242239825" lon="13.227841881548025"><ele>80.0</ele><time>2026-04-06T17:18:25.999Z</time></trkpt><trkpt lat="46.016861116077685" lon="13.228209796148656"><ele>79.0</ele><time>2026-04-06T17:18:26.999Z</time></trkpt><trkpt lat="46.016996134757484" lon="13.228577920598783"><ele>79.0</ele><time>2026-04-06T17:18:27.999Z</time></trkpt><trkpt lat="46.01712307957981" lon="13.228948148954517"><ele>79.0</ele><time>2026-04-06T17:18:28.999Z</time></trkpt><trkpt lat="46.01723765428534" lon="13.229326267181651"><ele>78.5</ele><time>2026-04-06T17:18:29.999Z</time></trkpt><trkpt lat="46.01733998284416" lon="13.229717553055288"><ele>78.0</ele><time>2026-04-06T17:18:30.999Z</time></trkpt><trkpt lat="46.01742881165117" lon="13.23011374548013"><ele>78.0</ele><time>2026-04-06T17:18:31.999Z</time></trkpt><trkpt lat="46.0175058815774" lon="13.230512988904248"><ele>78.0</ele><time>2026-04-06T17:18:32.999Z</time></trkpt><trkpt lat="46.01756903375681" lon="13.230913231930124"><ele>78.0</ele><time>2026-04-06T17:18:33.998Z</time></trkpt><trkpt lat="46.0176255393418" lon="13.23131212215274"><ele>78.0</ele><time>2026-04-06T17:18:35Z</time></trkpt><trkpt lat="46.01767814875923" lon="13.231713549264047"><ele>78.0</ele><time>2026-04-06T17:18:36Z</time></trkpt><trkpt lat="46.017725769473216" lon="13.2321239460766"><ele>78.0</ele><time>2026-04-06T17:18:37Z</time></trkpt><trkpt lat="46.0177649340818" lon="13.232542625904854"><ele>78.0</ele><time>2026-04-06T17:18:38Z</time></trkpt><trkpt lat="46.01779208265151" lon="13.232966441232827"><ele>78.0</ele><time>2026-04-06T17:18:39Z</time></trkpt><trkpt lat="46.01780015374554" lon="13.233390229180316"><ele>78.0</ele><time>2026-04-06T17:18:40Z</time></trkpt><trkpt lat="46.01779342625737" lon="13.233816476487736"><ele>78.0</ele><time>2026-04-06T17:18:41Z</time></trkpt><trkpt lat="46.0177770860138" lon="13.234243515136589"><ele>78.0</ele><time>2026-04-06T17:18:42Z</time></trkpt><trkpt lat="46.0177510547686" lon="13.234666631815744"><ele>78.0</ele><time>2026-04-06T17:18:43Z</time></trkpt><trkpt lat="46.01771501623108" lon="13.235086397214305"><ele>78.0</ele><time>2026-04-06T17:18:44Z</time></trkpt><trkpt lat="46.017671612976706" lon="13.235504713470466"><ele>78.0</ele><time>2026-04-06T17:18:45Z</time></trkpt><trkpt lat="46.017617701456935" lon="13.23591820230515"><ele>78.5</ele><time>2026-04-06T17:18:46Z</time></trkpt><trkpt lat="46.017552840798245" lon="13.236325317755782"><ele>79.0</ele><time>2026-04-06T17:18:47Z</time></trkpt><trkpt lat="46.01747574310174" lon="13.236727536430585"><ele>78.0</ele><time>2026-04-06T17:18:48Z</time></trkpt><trkpt lat="46.017395374946005" lon="13.237129751639735"><ele>77.0</ele><time>2026-04-06T17:18:49Z</time></trkpt><trkpt lat="46.017318817149835" lon="13.23752969443788"><ele>77.0</ele><time>2026-04-06T17:18:50Z</time></trkpt><trkpt lat="46.017245872085866" lon="13.237934742510511"><ele>77.0</ele><time>2026-04-06T17:18:51Z</time></trkpt><trkpt lat="46.01717043453266" lon="13.23833893954998"><ele>77.0</ele><time>2026-04-06T17:18:51.999Z</time></trkpt><trkpt lat="46.017094785874114" lon="13.238742688653414"><ele>77.0</ele><time>2026-04-06T17:18:52.999Z</time></trkpt><trkpt lat="46.01702028884558" lon="13.239145579229875"><ele>76.5</ele><time>2026-04-06T17:18:53.999Z</time></trkpt><trkpt lat="46.01694530070837" lon="13.239546815237782"><ele>76.0</ele><time>2026-04-06T17:18:54.999Z</time></trkpt><trkpt lat="46.01687067502656" lon="13.239957153841507"><ele>76.0</ele><time>2026-04-06T17:18:55.999Z</time></trkpt><trkpt lat="46.016794165212374" lon="13.240393615104816"><ele>76.0</ele><time>2026-04-06T17:18:56.999Z</time></trkpt><trkpt lat="46.01670911073534" lon="13.24085167639731"><ele>77.0</ele><time>2026-04-06T17:18:57.999Z</time></trkpt><trkpt lat="46.016619533196824" lon="13.241324817570796"><ele>78.0</ele><time>2026-04-06T17:18:58.999Z</time></trkpt><trkpt lat="46.016528643666256" lon="13.241799898871902"><ele>78.0</ele><time>2026-04-06T17:18:59.999Z</time></trkpt><trkpt lat="46.01643938868476" lon="13.242266519917193"><ele>78.0</ele><time>2026-04-06T17:19:00.999Z</time></trkpt><trkpt lat="46.01635267510749" lon="13.242732245703566"><ele>77.5</ele><time>2026-04-06T17:19:01.999Z</time></trkpt><trkpt lat="46.01626555313217" lon="13.24319372878403"><ele>77.0</ele><time>2026-04-06T17:19:02.999Z</time></trkpt><trkpt lat="46.016178393627506" lon="13.243649995773051"><ele>77.5</ele><time>2026-04-06T17:19:03.999Z</time></trkpt><trkpt lat="46.016094491563635" lon="13.244100928479249"><ele>78.0</ele><time>2026-04-06T17:19:04.999Z</time></trkpt><trkpt lat="46.016013213342234" lon="13.244546783742841"><ele>76.5</ele><time>2026-04-06T17:19:05.999Z</time></trkpt><trkpt lat="46.01593182835704" lon="13.244984471294142"><ele>75.0</ele><time>2026-04-06T17:19:06.999Z</time></trkpt><trkpt lat="46.01585122578427" lon="13.245406619942486"><ele>77.5</ele><time>2026-04-06T17:19:07.999Z</time></trkpt><trkpt lat="46.015776831447326" lon="13.245824029955946"><ele>80.0</ele><time>2026-04-06T17:19:08.999Z</time></trkpt><trkpt lat="46.015711482078686" lon="13.246235762892644"><ele>78.5</ele><time>2026-04-06T17:19:09.999Z</time></trkpt><trkpt lat="46.01565012716449" lon="13.246641871895697"><ele>77.0</ele><time>2026-04-06T17:19:10.999Z</time></trkpt><trkpt lat="46.0155918004418" lon="13.247047054777322"><ele>75.0</ele><time>2026-04-06T17:19:11.999Z</time></trkpt><trkpt lat="46.01553922444134" lon="13.24744939604126"><ele>73.0</ele><time>2026-04-06T17:19:12.999Z</time></trkpt><trkpt lat="46.01549136104605" lon="13.247849742853035"><ele>74.0</ele><time>2026-04-06T17:19:13.999Z</time></trkpt><trkpt lat="46.01544817954912" lon="13.24824605411284"><ele>75.0</ele><time>2026-04-06T17:19:14.999Z</time></trkpt><trkpt lat="46.01541590175542" lon="13.248637095058841"><ele>75.5</ele><time>2026-04-06T17:19:15.999Z</time></trkpt><trkpt lat="46.01539182133202" lon="13.249028624106991"><ele>76.0</ele><time>2026-04-06T17:19:16.999Z</time></trkpt><trkpt lat="46.015372216056505" lon="13.249417783730667"><ele>76.5</ele><time>2026-04-06T17:19:17.999Z</time></trkpt><trkpt lat="46.01535745658987" lon="13.249808120646122"><ele>77.0</ele><time>2026-04-06T17:19:18.999Z</time></trkpt><trkpt lat="46.01534782802123" lon="13.250196666985268"><ele>77.0</ele><time>2026-04-06T17:19:19.999Z</time></trkpt><trkpt lat="46.01534290903399" lon="13.250585439178863"><ele>77.0</ele><time>2026-04-06T17:19:20.999Z</time></trkpt><trkpt lat="46.015344973440996" lon="13.250975906033046"><ele>76.0</ele><time>2026-04-06T17:19:21.999Z</time></trkpt><trkpt lat="46.01534715486239" lon="13.25136570356581"><ele>75.0</ele><time>2026-04-06T17:19:22.999Z</time></trkpt><trkpt lat="46.01536825418836" lon="13.25175435762543"><ele>75.0</ele><time>2026-04-06T17:19:23.999Z</time></trkpt><trkpt lat="46.0153900862301" lon="13.252137586880451"><ele>75.0</ele><time>2026-04-06T17:19:24.999Z</time></trkpt><trkpt lat="46.01541961408369" lon="13.252519498765567"><ele>75.5</ele><time>2026-04-06T17:19:25.999Z</time></trkpt><trkpt lat="46.015453258387296" lon="13.25290093291653"><ele>76.0</ele><time>2026-04-06T17:19:26.999Z</time></trkpt><trkpt lat="46.01549344096468" lon="13.25327991129171"><ele>76.5</ele><time>2026-04-06T17:19:27.999Z</time></trkpt><trkpt lat="46.01553987563907" lon="13.253657260029943"><ele>77.0</ele><time>2026-04-06T17:19:28.999Z</time></trkpt><trkpt lat="46.015592530150286" lon="13.254034130017892"><ele>76.0</ele><time>2026-04-06T17:19:29.999Z</time></trkpt><trkpt lat="46.01565248001562" lon="13.254408710900917"><ele>75.0</ele><time>2026-04-06T17:19:30.999Z</time></trkpt><trkpt lat="46.01571753423169" lon="13.254782660877817"><ele>75.5</ele><time>2026-04-06T17:19:31.999Z</time></trkpt><trkpt lat="46.01578892607471" lon="13.255154858419438"><ele>76.0</ele><time>2026-04-06T17:19:32.999Z</time></trkpt><trkpt lat="46.01586581420617" lon="13.255524324189873"><ele>75.0</ele><time>2026-04-06T17:19:33.999Z</time></trkpt><trkpt lat="46.015950500720386" lon="13.255891694577533"><ele>74.0</ele><time>2026-04-06T17:19:34.999Z</time></trkpt><trkpt lat="46.01604134541529" lon="13.256254537409452"><ele>75.5</ele><time>2026-04-06T17:19:35.999Z</time></trkpt><trkpt lat="46.016135645767626" lon="13.25661939592671"><ele>77.0</ele><time>2026-04-06T17:19:36.999Z</time></trkpt><trkpt lat="46.01623288613193" lon="13.25698209612179"><ele>77.5</ele><time>2026-04-06T17:19:37.999Z</time></trkpt><trkpt lat="46.01633755898378" lon="13.257343255652343"><ele>78.0</ele><time>2026-04-06T17:19:38.999Z</time></trkpt><trkpt lat="46.01644483970722" lon="13.25770293203917"><ele>78.0</ele><time>2026-04-06T17:19:39.999Z</time></trkpt><trkpt lat="46.01655573515566" lon="13.25806034537631"><ele>78.0</ele><time>2026-04-06T17:19:40.999Z</time></trkpt><trkpt lat="46.01666876213124" lon="13.258408697388631"><ele>78.5</ele><time>2026-04-06T17:19:41.999Z</time></trkpt><trkpt lat="46.0167839433734" lon="13.25875012416477"><ele>79.0</ele><time>2026-04-06T17:19:42.999Z</time></trkpt><trkpt lat="46.016901793293385" lon="13.259086026296972"><ele>79.5</ele><time>2026-04-06T17:19:43.999Z</time></trkpt><trkpt lat="46.01701853580417" lon="13.259417684776789"><ele>80.0</ele><time>2026-04-06T17:19:44.999Z</time></trkpt><trkpt lat="46.01713416098943" lon="13.259744911685775"><ele>79.5</ele><time>2026-04-06T17:19:45.999Z</time></trkpt><trkpt lat="46.01725362571291" lon="13.260068673609206"><ele>79.0</ele><time>2026-04-06T17:19:46.999Z</time></trkpt><trkpt lat="46.01737595044695" lon="13.260391582998352"><ele>78.5</ele><time>2026-04-06T17:19:47.999Z</time></trkpt><trkpt lat="46.01749457552815" lon="13.260713666595962"><ele>78.0</ele><time>2026-04-06T17:19:48.999Z</time></trkpt><trkpt lat="46.01761280474682" lon="13.261034071874985"><ele>78.0</ele><time>2026-04-06T17:19:49.999Z</time></trkpt><trkpt lat="46.01773335716694" lon="13.26135019926709"><ele>78.0</ele><time>2026-04-06T17:19:50.999Z</time></trkpt><trkpt lat="46.0178492607332" lon="13.261662152321996"><ele>78.0</ele><time>2026-04-06T17:19:51.999Z</time></trkpt><trkpt lat="46.01796295504243" lon="13.261968727839733"><ele>78.0</ele><time>2026-04-06T17:19:52.999Z</time></trkpt><trkpt lat="46.018078995115864" lon="13.262275127807648"><ele>79.0</ele><time>2026-04-06T17:19:53.999Z</time></trkpt><trkpt lat="46.018196317302646" lon="13.262579693581888"><ele>80.0</ele><time>2026-04-06T17:19:54.999Z</time></trkpt><trkpt lat="46.018309613752734" lon="13.262882490023204"><ele>80.0</ele><time>2026-04-06T17:19:55.999Z</time></trkpt><trkpt lat="46.01842081250416" lon="13.263179837414429"><ele>80.0</ele><time>2026-04-06T17:19:56.999Z</time></trkpt><trkpt lat="46.01852804258935" lon="13.26346981037435"><ele>80.0</ele><time>2026-04-06T17:19:57.999Z</time></trkpt><trkpt lat="46.018634514248326" lon="13.263751929785666"><ele>80.0</ele><time>2026-04-06T17:19:58.999Z</time></trkpt><trkpt lat="46.018735888676794" lon="13.26402376935127"><ele>80.0</ele><time>2026-04-06T17:19:59.999Z</time></trkpt><trkpt lat="46.01882944012881" lon="13.264281101328589"><ele>80.33333333333334</ele><time>2026-04-06T17:20:00.999Z</time></trkpt><trkpt lat="46.018937100284525" lon="13.26451830894799"><ele>80.66666666666667</ele><time>2026-04-06T17:20:01.999Z</time></trkpt><trkpt lat="46.019026982921964" lon="13.264758905441255"><ele>81.0</ele><time>2026-04-06T17:20:02.999Z</time></trkpt><trkpt lat="46.01911541462186" lon="13.265000551169972"><ele>80.66666666666667</ele><time>2026-04-06T17:20:03.999Z</time></trkpt><trkpt lat="46.0191477484888" lon="13.26529034454857"><ele>80.33333333333334</ele><time>2026-04-06T17:20:04.999Z</time></trkpt><trkpt lat="46.01921772547359" lon="13.265551133847312"><ele>80.0</ele><time>2026-04-06T17:20:05.999Z</time></trkpt><trkpt lat="46.01927720465503" lon="13.265793418766451"><ele>79.66666666666667</ele><time>2026-04-06T17:20:06.999Z</time></trkpt><trkpt lat="46.01933191009379" lon="13.266013699372708"><ele>79.33333333333333</ele><time>2026-04-06T17:20:07.999Z</time></trkpt><trkpt lat="46.01938190510158" lon="13.26622097279903"><ele>79.0</ele><time>2026-04-06T17:20:08.999Z</time></trkpt><trkpt lat="46.01942681941929" lon="13.26642065725987"><ele>79.6</ele><time>2026-04-06T17:20:09.999Z</time></trkpt><trkpt lat="46.01946808925141" lon="13.266605894538806"><ele>80.2</ele><time>2026-04-06T17:20:10.999Z</time></trkpt><trkpt lat="46.01950115503398" lon="13.266768575889037"><ele>80.8</ele><time>2026-04-06T17:20:11.999Z</time></trkpt><trkpt lat="46.01951470041768" lon="13.266906402661771"><ele>81.39999999999999</ele><time>2026-04-06T17:20:12.999Z</time></trkpt><trkpt lat="46.01950326553467" lon="13.267030903335977"><ele>82.0</ele><time>2026-04-06T17:20:13.999Z</time></trkpt><trkpt lat="46.019487782495005" lon="13.267150309356069"><ele>82.0</ele><time>2026-04-06T17:20:14.999Z</time></trkpt><trkpt lat="46.019435765978216" lon="13.267255016680103"><ele>82.0</ele><time>2026-04-06T17:20:15.999Z</time></trkpt><trkpt lat="46.01937488589825" lon="13.267366883397388"><ele>82.0</ele><time>2026-04-06T17:20:16.999Z</time></trkpt><trkpt lat="46.01933527315707" lon="13.267497319832566"><ele>82.0</ele><time>2026-04-06T17:20:17.999Z</time></trkpt><trkpt lat="46.019266523399466" lon="13.267629567401855"><ele>82.0</ele><time>2026-04-06T17:20:18.999Z</time></trkpt><trkpt lat="46.0191896078468" lon="13.267777833298663"><ele>81.75</ele><time>2026-04-06T17:20:19.999Z</time></trkpt><trkpt lat="46.019124047409065" lon="13.267945547151935"><ele>81.5</ele><time>2026-04-06T17:20:20.999Z</time></trkpt><trkpt lat="46.019079661829664" lon="13.268130489032751"><ele>81.25</ele><time>2026-04-06T17:20:21.999Z</time></trkpt><trkpt lat="46.01905799620227" lon="13.268332477432045"><ele>81.0</ele><time>2026-04-06T17:20:22.999Z</time></trkpt><trkpt lat="46.01899936152971" lon="13.268531027148436"><ele>81.0</ele><time>2026-04-06T17:20:23.999Z</time></trkpt><trkpt lat="46.01893183740502" lon="13.268711187199724"><ele>81.0</ele><time>2026-04-06T17:20:24.999Z</time></trkpt><trkpt lat="46.01883080187071" lon="13.268863532991345"><ele>81.0</ele><time>2026-04-06T17:20:25.999Z</time></trkpt><trkpt lat="46.01870398269469" lon="13.268987325388599"><ele>81.0</ele><time>2026-04-06T17:20:26.999Z</time></trkpt><trkpt lat="46.01853118392459" lon="13.269040831172408"><ele>81.0</ele><time>2026-04-06T17:20:27.999Z</time></trkpt><trkpt lat="46.018346942348835" lon="13.26909490047159"><ele>81.0</ele><time>2026-04-06T17:20:28.999Z</time></trkpt><trkpt lat="46.01814563259359" lon="13.269154278243638"><ele>81.0</ele><time>2026-04-06T17:20:29.999Z</time></trkpt><trkpt lat="46.01792936550088" lon="13.269214072104473"><ele>80.5</ele><time>2026-04-06T17:20:30.999Z</time></trkpt><trkpt lat="46.01769759299092" lon="13.269278797901428"><ele>80.0</ele><time>2026-04-06T17:20:31.999Z</time></trkpt><trkpt lat="46.01745777515119" lon="13.269346658033154"><ele>80.0</ele><time>2026-04-06T17:20:32.999Z</time></trkpt><trkpt lat="46.01721473907647" lon="13.269412983079507"><ele>80.0</ele><time>2026-04-06T17:20:33.999Z</time></trkpt><trkpt lat="46.01697403405002" lon="13.26947836578965"><ele>80.0</ele><time>2026-04-06T17:20:34.999Z</time></trkpt><trkpt lat="46.016733317597804" lon="13.269544902341446"><ele>80.0</ele><time>2026-04-06T17:20:35.999Z</time></trkpt><trkpt lat="46.01649155749029" lon="13.269612351913967"><ele>79.5</ele><time>2026-04-06T17:20:36.999Z</time></trkpt><trkpt lat="46.016249156360665" lon="13.269680317291606"><ele>79.0</ele><time>2026-04-06T17:20:37.998Z</time></trkpt><trkpt lat="46.016007080115045" lon="13.269749297163546"><ele>79.0</ele><time>2026-04-06T17:20:38.998Z</time></trkpt><trkpt lat="46.0157641734565" lon="13.269823481918067"><ele>79.0</ele><time>2026-04-06T17:20:39.998Z</time></trkpt><trkpt lat="46.01549993527267" lon="13.269912675685926"><ele>79.0</ele><time>2026-04-06T17:20:41Z</time></trkpt><trkpt lat="46.015194222614355" lon="13.269999187392806"><ele>79.0</ele><time>2026-04-06T17:20:42Z</time></trkpt><trkpt lat="46.01487029239324" lon="13.270068750405377"><ele>78.5</ele><time>2026-04-06T17:20:43Z</time></trkpt><trkpt lat="46.01457894846423" lon="13.270139239987087"><ele>78.0</ele><time>2026-04-06T17:20:44Z</time></trkpt><trkpt lat="46.014312899983864" lon="13.270213027252492"><ele>77.66666666666667</ele><time>2026-04-06T17:20:45Z</time></trkpt><trkpt lat="46.014071937722655" lon="13.270281585232581"><ele>77.33333333333334</ele><time>2026-04-06T17:20:46Z</time></trkpt><trkpt lat="46.013873284444784" lon="13.270329333031494"><ele>77.0</ele><time>2026-04-06T17:20:47Z</time></trkpt><trkpt lat="46.0137005647425" lon="13.270360249632033"><ele>77.0</ele><time>2026-04-06T17:20:48Z</time></trkpt><trkpt lat="46.01354622203479" lon="13.270369091266398"><ele>77.0</ele><time>2026-04-06T17:20:49Z</time></trkpt><trkpt lat="46.0134031670864" lon="13.270351410038977"><ele>77.0</ele><time>2026-04-06T17:20:50Z</time></trkpt><trkpt lat="46.013270334561646" lon="13.270275213026082"><ele>77.0</ele><time>2026-04-06T17:20:51Z</time></trkpt><trkpt lat="46.01314272296941" lon="13.270150831446426"><ele>76.25</ele><time>2026-04-06T17:20:52Z</time></trkpt><trkpt lat="46.01301505644042" lon="13.270052880764341"><ele>75.5</ele><time>2026-04-06T17:20:53Z</time></trkpt><trkpt lat="46.01288024335274" lon="13.26999474324436"><ele>74.75</ele><time>2026-04-06T17:20:54Z</time></trkpt><trkpt lat="46.01274298616757" lon="13.269996804654328"><ele>74.0</ele><time>2026-04-06T17:20:55Z</time></trkpt><trkpt lat="46.0126125432931" lon="13.2700708476843"><ele>74.0</ele><time>2026-04-06T17:20:56Z</time></trkpt><trkpt lat="46.01249937586806" lon="13.270207390950675"><ele>74.0</ele><time>2026-04-06T17:20:57Z</time></trkpt><trkpt lat="46.012417439121336" lon="13.27037797094604"><ele>74.0</ele><time>2026-04-06T17:20:57.999Z</time></trkpt><trkpt lat="46.01237859409848" lon="13.270575112251466"><ele>74.0</ele><time>2026-04-06T17:20:58.999Z</time></trkpt><trkpt lat="46.012393839949226" lon="13.27078927565074"><ele>74.33333333333334</ele><time>2026-04-06T17:20:59.999Z</time></trkpt><trkpt lat="46.012454841193005" lon="13.27099151342835"><ele>74.66666666666667</ele><time>2026-04-06T17:21:00.999Z</time></trkpt><trkpt lat="46.012563235936256" lon="13.271160368998592"><ele>75.0</ele><time>2026-04-06T17:21:01.999Z</time></trkpt><trkpt lat="46.012680656927984" lon="13.271328063069413"><ele>75.33333333333333</ele><time>2026-04-06T17:21:02.999Z</time></trkpt><trkpt lat="46.01277476597297" lon="13.271521126003986"><ele>75.66666666666666</ele><time>2026-04-06T17:21:04Z</time></trkpt><trkpt lat="46.01287445713793" lon="13.271733123041216"><ele>76.0</ele><time>2026-04-06T17:21:05Z</time></trkpt><trkpt lat="46.01287488143007" lon="13.272029936514041"><ele>76.66666666666666</ele><time>2026-04-06T17:21:06Z</time></trkpt><trkpt lat="46.01286795282405" lon="13.27232442112254"><ele>77.33333333333333</ele><time>2026-04-06T17:21:07Z</time></trkpt><trkpt lat="46.01284925321" lon="13.272657535769893"><ele>78.0</ele><time>2026-04-06T17:21:08Z</time></trkpt><trkpt lat="46.01283659543627" lon="13.273025501455498"><ele>77.5</ele><time>2026-04-06T17:21:09Z</time></trkpt><trkpt lat="46.01282363378809" lon="13.273388146984772"><ele>77.0</ele><time>2026-04-06T17:21:10Z</time></trkpt><trkpt lat="46.01280180112475" lon="13.273718440479493"><ele>77.33333333333334</ele><time>2026-04-06T17:21:11Z</time></trkpt><trkpt lat="46.01275605128372" lon="13.27400790155052"><ele>77.66666666666667</ele><time>2026-04-06T17:21:12Z</time></trkpt><trkpt lat="46.0126721052143" lon="13.274269332216631"><ele>78.0</ele><time>2026-04-06T17:21:13Z</time></trkpt><trkpt lat="46.01255915970686" lon="13.274513587298646"><ele>77.66666666666667</ele><time>2026-04-06T17:21:14Z</time></trkpt><trkpt lat="46.01241879642721" lon="13.27472816035933"><ele>77.33333333333334</ele><time>2026-04-06T17:21:15Z</time></trkpt><trkpt lat="46.012244865191725" lon="13.274911999439754"><ele>77.0</ele><time>2026-04-06T17:21:16Z</time></trkpt><trkpt lat="46.012052427120906" lon="13.27509353601167"><ele>76.5</ele><time>2026-04-06T17:21:17Z</time></trkpt><trkpt lat="46.011848346766335" lon="13.275285063684995"><ele>76.0</ele><time>2026-04-06T17:21:18Z</time></trkpt><trkpt lat="46.011637750116506" lon="13.275478875599777"><ele>76.0</ele><time>2026-04-06T17:21:19Z</time></trkpt><trkpt lat="46.0114230965245" lon="13.275677420615402"><ele>76.0</ele><time>2026-04-06T17:21:20Z</time></trkpt><trkpt lat="46.01120724317773" lon="13.275882387940358"><ele>76.0</ele><time>2026-04-06T17:21:21Z</time></trkpt><trkpt lat="46.01099617253171" lon="13.276092398805703"><ele>76.0</ele><time>2026-04-06T17:21:22Z</time></trkpt><trkpt lat="46.01079549970726" lon="13.276304483311906"><ele>75.0</ele><time>2026-04-06T17:21:23Z</time></trkpt><trkpt lat="46.01060388919347" lon="13.276523170144133"><ele>74.0</ele><time>2026-04-06T17:21:24Z</time></trkpt><trkpt lat="46.010426587044826" lon="13.276752836114007"><ele>74.0</ele><time>2026-04-06T17:21:25Z</time></trkpt><trkpt lat="46.01025120514155" lon="13.276974541124353"><ele>74.0</ele><time>2026-04-06T17:21:26Z</time></trkpt><trkpt lat="46.01006704437337" lon="13.27716145266289"><ele>75.0</ele><time>2026-04-06T17:21:27Z</time></trkpt><trkpt lat="46.0098674964162" lon="13.27731822654976"><ele>76.0</ele><time>2026-04-06T17:21:28Z</time></trkpt><trkpt lat="46.00965808051507" lon="13.277458034348289"><ele>76.0</ele><time>2026-04-06T17:21:29Z</time></trkpt><trkpt lat="46.009456059663215" lon="13.277583531527062"><ele>76.0</ele><time>2026-04-06T17:21:30Z</time></trkpt><trkpt lat="46.009271023367475" lon="13.277696224203439"><ele>76.0</ele><time>2026-04-06T17:21:31Z</time></trkpt><trkpt lat="46.0091048686655" lon="13.27780278119178"><ele>76.0</ele><time>2026-04-06T17:21:32Z</time></trkpt><trkpt lat="46.00895383949599" lon="13.277898887920706"><ele>76.0</ele><time>2026-04-06T17:21:33Z</time></trkpt><trkpt lat="46.008816772368135" lon="13.277994693226645"><ele>76.0</ele><time>2026-04-06T17:21:34Z</time></trkpt><trkpt lat="46.008689693775246" lon="13.278115261316158"><ele>76.0</ele><time>2026-04-06T17:21:35Z</time></trkpt><trkpt lat="46.00857153282363" lon="13.278276098237988"><ele>76.0</ele><time>2026-04-06T17:21:36Z</time></trkpt><trkpt lat="46.00848142251452" lon="13.278493809623058"><ele>76.0</ele><time>2026-04-06T17:21:37Z</time></trkpt><trkpt lat="46.00841122270632" lon="13.278743057687016"><ele>75.0</ele><time>2026-04-06T17:21:38Z</time></trkpt><trkpt lat="46.00836984569225" lon="13.279044164281977"><ele>74.0</ele><time>2026-04-06T17:21:39Z</time></trkpt><trkpt lat="46.00834808908107" lon="13.279377707635428"><ele>73.0</ele><time>2026-04-06T17:21:40Z</time></trkpt><trkpt lat="46.00832659292801" lon="13.279734434316488"><ele>73.0</ele><time>2026-04-06T17:21:41Z</time></trkpt><trkpt lat="46.00827749927183" lon="13.280097746845984"><ele>73.0</ele><time>2026-04-06T17:21:42Z</time></trkpt><trkpt lat="46.008193388570355" lon="13.280463618585388"><ele>73.0</ele><time>2026-04-06T17:21:43Z</time></trkpt><trkpt lat="46.00807347589883" lon="13.280827841878319"><ele>73.0</ele><time>2026-04-06T17:21:44Z</time></trkpt><trkpt lat="46.00792717028239" lon="13.281197517688689"><ele>73.5</ele><time>2026-04-06T17:21:45Z</time></trkpt><trkpt lat="46.00776144834585" lon="13.281592775211244"><ele>74.0</ele><time>2026-04-06T17:21:46Z</time></trkpt><trkpt lat="46.007594713052235" lon="13.281995065656512"><ele>72.5</ele><time>2026-04-06T17:21:47Z</time></trkpt><trkpt lat="46.007420914219715" lon="13.282407323231501"><ele>71.0</ele><time>2026-04-06T17:21:48Z</time></trkpt><trkpt lat="46.007245289850665" lon="13.282826303552753"><ele>71.0</ele><time>2026-04-06T17:21:49Z</time></trkpt><trkpt lat="46.00707338083413" lon="13.283234135593009"><ele>71.0</ele><time>2026-04-06T17:21:50Z</time></trkpt><trkpt lat="46.006911300496924" lon="13.283626123525062"><ele>70.5</ele><time>2026-04-06T17:21:51Z</time></trkpt><trkpt lat="46.00675795523864" lon="13.283987294618122"><ele>70.0</ele><time>2026-04-06T17:21:52Z</time></trkpt><trkpt lat="46.006601698782546" lon="13.284321580676153"><ele>70.0</ele><time>2026-04-06T17:21:53Z</time></trkpt><trkpt lat="46.00642226808763" lon="13.284637868522118"><ele>70.0</ele><time>2026-04-06T17:21:54Z</time></trkpt><trkpt lat="46.00621313470081" lon="13.284930321989162"><ele>70.0</ele><time>2026-04-06T17:21:55Z</time></trkpt><trkpt lat="46.00598151987923" lon="13.285224363040303"><ele>70.0</ele><time>2026-04-06T17:21:56Z</time></trkpt><trkpt lat="46.0057484304938" lon="13.285536484658053"><ele>70.0</ele><time>2026-04-06T17:21:57Z</time></trkpt><trkpt lat="46.00551491063297" lon="13.285848950169473"><ele>70.0</ele><time>2026-04-06T17:21:58Z</time></trkpt><trkpt lat="46.0052848811244" lon="13.286160014123562"><ele>70.0</ele><time>2026-04-06T17:21:59Z</time></trkpt><trkpt lat="46.00506317863119" lon="13.28646478791312"><ele>70.0</ele><time>2026-04-06T17:22:00Z</time></trkpt><trkpt lat="46.00485113637979" lon="13.286774078002184"><ele>69.0</ele><time>2026-04-06T17:22:01Z</time></trkpt><trkpt lat="46.004646671218886" lon="13.287090812346584"><ele>68.0</ele><time>2026-04-06T17:22:02Z</time></trkpt><trkpt lat="46.00444820288987" lon="13.287421650242823"><ele>68.0</ele><time>2026-04-06T17:22:03Z</time></trkpt><trkpt lat="46.0042454022053" lon="13.287766603399687"><ele>68.0</ele><time>2026-04-06T17:22:04Z</time></trkpt><trkpt lat="46.004036930885825" lon="13.288117689001687"><ele>68.5</ele><time>2026-04-06T17:22:05Z</time></trkpt><trkpt lat="46.003820601547694" lon="13.288483019778932"><ele>69.0</ele><time>2026-04-06T17:22:06Z</time></trkpt><trkpt lat="46.0035947593507" lon="13.288865749350327"><ele>68.0</ele><time>2026-04-06T17:22:07Z</time></trkpt><trkpt lat="46.003360267477476" lon="13.28926227811378"><ele>67.0</ele><time>2026-04-06T17:22:08Z</time></trkpt><trkpt lat="46.00314614329776" lon="13.289623627463564"><ele>67.0</ele><time>2026-04-06T17:22:09Z</time></trkpt><trkpt lat="46.00294473919192" lon="13.289964539832917"><ele>67.0</ele><time>2026-04-06T17:22:10Z</time></trkpt><trkpt lat="46.00274670524124" lon="13.29028513908442"><ele>67.0</ele><time>2026-04-06T17:22:11Z</time></trkpt><trkpt lat="46.002545567962855" lon="13.29058621872225"><ele>67.0</ele><time>2026-04-06T17:22:12Z</time></trkpt><trkpt lat="46.002327120773" lon="13.290864558779944"><ele>68.0</ele><time>2026-04-06T17:22:13Z</time></trkpt><trkpt lat="46.00209526937005" lon="13.29113208756922"><ele>69.0</ele><time>2026-04-06T17:22:14Z</time></trkpt><trkpt lat="46.00185555027352" lon="13.291410160775618"><ele>68.5</ele><time>2026-04-06T17:22:15Z</time></trkpt><trkpt lat="46.001614480100045" lon="13.291684639637753"><ele>68.0</ele><time>2026-04-06T17:22:16Z</time></trkpt><trkpt lat="46.00138593768553" lon="13.291942350398857"><ele>68.0</ele><time>2026-04-06T17:22:17Z</time></trkpt><trkpt lat="46.00117900429827" lon="13.292182009808286"><ele>68.0</ele><time>2026-04-06T17:22:18Z</time></trkpt><trkpt lat="46.0009824575662" lon="13.292408522870915"><ele>67.5</ele><time>2026-04-06T17:22:19Z</time></trkpt><trkpt lat="46.00080548802159" lon="13.292613869789436"><ele>67.0</ele><time>2026-04-06T17:22:20Z</time></trkpt><trkpt lat="46.00064092057249" lon="13.292834053232527"><ele>67.0</ele><time>2026-04-06T17:22:21Z</time></trkpt><trkpt lat="46.00049102880994" lon="13.293085858423026"><ele>67.0</ele><time>2026-04-06T17:22:22Z</time></trkpt><trkpt lat="46.000364108196955" lon="13.293377689859595"><ele>67.5</ele><time>2026-04-06T17:22:23Z</time></trkpt><trkpt lat="46.00025828872744" lon="13.2936986765835"><ele>68.0</ele><time>2026-04-06T17:22:24Z</time></trkpt><trkpt lat="46.00017150241241" lon="13.294060882820995"><ele>67.0</ele><time>2026-04-06T17:22:25Z</time></trkpt><trkpt lat="46.000096885351" lon="13.29445740170438"><ele>66.0</ele><time>2026-04-06T17:22:26Z</time></trkpt><trkpt lat="46.00001167004095" lon="13.294883131037011"><ele>65.5</ele><time>2026-04-06T17:22:27Z</time></trkpt><trkpt lat="45.9999225587924" lon="13.295308934695354"><ele>65.0</ele><time>2026-04-06T17:22:28Z</time></trkpt><trkpt lat="45.99983954950438" lon="13.295703210953205"><ele>66.0</ele><time>2026-04-06T17:22:29Z</time></trkpt><trkpt lat="45.99976074526132" lon="13.29607486206301"><ele>67.0</ele><time>2026-04-06T17:22:30Z</time></trkpt><trkpt lat="45.999689240130614" lon="13.296418409267975"><ele>67.0</ele><time>2026-04-06T17:22:31Z</time></trkpt><trkpt lat="45.9996201730824" lon="13.296742704087807"><ele>67.0</ele><time>2026-04-06T17:22:32Z</time></trkpt><trkpt lat="45.99955449257948" lon="13.297041241948357"><ele>66.33333333333333</ele><time>2026-04-06T17:22:33Z</time></trkpt><trkpt lat="45.99949316464176" lon="13.297322397184452"><ele>65.66666666666667</ele><time>2026-04-06T17:22:34Z</time></trkpt><trkpt lat="45.99943284003328" lon="13.29758464197829"><ele>65.0</ele><time>2026-04-06T17:22:35Z</time></trkpt><trkpt lat="45.99937207578728" lon="13.297830762058632"><ele>65.66666666666667</ele><time>2026-04-06T17:22:36Z</time></trkpt><trkpt lat="45.9993115940673" lon="13.298085886581466"><ele>66.33333333333333</ele><time>2026-04-06T17:22:37Z</time></trkpt><trkpt lat="45.99924923570457" lon="13.298362250623262"><ele>67.0</ele><time>2026-04-06T17:22:38Z</time></trkpt><trkpt lat="45.999188273895136" lon="13.298626660498746"><ele>66.66666666666666</ele><time>2026-04-06T17:22:39Z</time></trkpt><trkpt lat="45.99912758627241" lon="13.29888268519907"><ele>66.33333333333333</ele><time>2026-04-06T17:22:40Z</time></trkpt><trkpt lat="45.99907376514288" lon="13.299127091115063"><ele>66.0</ele><time>2026-04-06T17:22:41Z</time></trkpt><trkpt lat="45.99902642263163" lon="13.299350254774154"><ele>66.25</ele><time>2026-04-06T17:22:42Z</time></trkpt><trkpt lat="45.99897967035391" lon="13.299558766443722"><ele>66.5</ele><time>2026-04-06T17:22:43Z</time></trkpt><trkpt lat="45.99893179132988" lon="13.299750768517187"><ele>66.75</ele><time>2026-04-06T17:22:44Z</time></trkpt><trkpt lat="45.998865544732574" lon="13.299935106692114"><ele>67.0</ele><time>2026-04-06T17:22:44.999Z</time></trkpt><trkpt lat="45.99877444183478" lon="13.300120308046317"><ele>67.0</ele><time>2026-04-06T17:22:45.999Z</time></trkpt><trkpt lat="45.99866920455243" lon="13.300308194415813"><ele>67.0</ele><time>2026-04-06T17:22:47.001Z</time></trkpt><trkpt lat="45.998572280398136" lon="13.300505139419602"><ele>67.0</ele><time>2026-04-06T17:22:48.001Z</time></trkpt><trkpt lat="45.998493517917304" lon="13.300729302881406"><ele>67.66666666666666</ele><time>2026-04-06T17:22:49.001Z</time></trkpt><trkpt lat="45.99843990087306" lon="13.300989089749168"><ele>68.33333333333333</ele><time>2026-04-06T17:22:50.001Z</time></trkpt><trkpt lat="45.998395278068436" lon="13.301262136267129"><ele>69.0</ele><time>2026-04-06T17:22:51.001Z</time></trkpt><trkpt lat="45.99835003197283" lon="13.301544634930275"><ele>68.66666666666667</ele><time>2026-04-06T17:22:52.001Z</time></trkpt><trkpt lat="45.99830420405698" lon="13.301822529067438"><ele>68.33333333333334</ele><time>2026-04-06T17:22:53.001Z</time></trkpt><trkpt lat="45.99825333986842" lon="13.302081971951113"><ele>68.0</ele><time>2026-04-06T17:22:54.001Z</time></trkpt><trkpt lat="45.9982024577077" lon="13.302311172031674"><ele>67.75</ele><time>2026-04-06T17:22:55.001Z</time></trkpt><trkpt lat="45.99815603161549" lon="13.302522292096768"><ele>67.5</ele><time>2026-04-06T17:22:56.001Z</time></trkpt><trkpt lat="45.9981158579047" lon="13.302706131995022"><ele>67.25</ele><time>2026-04-06T17:22:57.001Z</time></trkpt><trkpt lat="45.99807965818686" lon="13.302872098857884"><ele>67.0</ele><time>2026-04-06T17:22:58.001Z</time></trkpt><trkpt lat="45.998042355103216" lon="13.303020291541971"><ele>67.25</ele><time>2026-04-06T17:22:59.001Z</time></trkpt><trkpt lat="45.99799638932079" lon="13.303157265526902"><ele>67.5</ele><time>2026-04-06T17:23:00.001Z</time></trkpt><trkpt lat="45.997921097799484" lon="13.303270711406949"><ele>67.75</ele><time>2026-04-06T17:23:01.001Z</time></trkpt><trkpt lat="45.99781544409786" lon="13.303325873403235"><ele>68.0</ele><time>2026-04-06T17:23:02Z</time></trkpt><trkpt lat="45.99769148974672" lon="13.303327366723178"><ele>68.0</ele><time>2026-04-06T17:23:03Z</time></trkpt><trkpt lat="45.99754334409786" lon="13.303292140590118"><ele>68.0</ele><time>2026-04-06T17:23:04Z</time></trkpt><trkpt lat="45.9973829848395" lon="13.303268587018678"><ele>68.0</ele><time>2026-04-06T17:23:05Z</time></trkpt><trkpt lat="45.99723017475155" lon="13.30321093908244"><ele>67.33333333333334</ele><time>2026-04-06T17:23:06Z</time></trkpt><trkpt lat="45.997089332611935" lon="13.303117670445138"><ele>66.66666666666667</ele><time>2026-04-06T17:23:07Z</time></trkpt><trkpt lat="45.99695685485552" lon="13.302981278433963"><ele>66.0</ele><time>2026-04-06T17:23:08Z</time></trkpt><trkpt lat="45.996817333163584" lon="13.302850823339694"><ele>66.75</ele><time>2026-04-06T17:23:09Z</time></trkpt><trkpt lat="45.9966649685668" lon="13.302763388887666"><ele>67.5</ele><time>2026-04-06T17:23:10Z</time></trkpt><trkpt lat="45.99652839830101" lon="13.302714210516015"><ele>68.25</ele><time>2026-04-06T17:23:11Z</time></trkpt><trkpt lat="45.996397473492635" lon="13.302688257987658"><ele>69.0</ele><time>2026-04-06T17:23:12Z</time></trkpt><trkpt lat="45.99627464133674" lon="13.30268700325582"><ele>69.0</ele><time>2026-04-06T17:23:13Z</time></trkpt><trkpt lat="45.99617561507942" lon="13.30269938958756"><ele>69.0</ele><time>2026-04-06T17:23:14Z</time></trkpt><trkpt lat="45.99608727681957" lon="13.302694475725824"><ele>69.0</ele><time>2026-04-06T17:23:15Z</time></trkpt><trkpt lat="45.99601405028875" lon="13.30268324361868"><ele>69.0</ele><time>2026-04-06T17:23:16Z</time></trkpt><trkpt lat="45.995952143552415" lon="13.302721084064354"><ele>69.0</ele><time>2026-04-06T17:23:17Z</time></trkpt><trkpt lat="45.995914603127304" lon="13.302816050704772"><ele>69.0</ele><time>2026-04-06T17:23:18Z</time></trkpt><trkpt lat="45.9958870448536" lon="13.302954934419667"><ele>68.25</ele><time>2026-04-06T17:23:19Z</time></trkpt><trkpt lat="45.99583081916229" lon="13.303115554341787"><ele>67.5</ele><time>2026-04-06T17:23:20Z</time></trkpt><trkpt lat="45.995790937229756" lon="13.303291170566853"><ele>66.75</ele><time>2026-04-06T17:23:21Z</time></trkpt><trkpt lat="45.99579102406194" lon="13.303499947007143"><ele>66.0</ele><time>2026-04-06T17:23:22Z</time></trkpt><trkpt lat="45.99579843789303" lon="13.303721835140141"><ele>66.0</ele><time>2026-04-06T17:23:23Z</time></trkpt><trkpt lat="45.99580278628365" lon="13.303955800216524"><ele>66.0</ele><time>2026-04-06T17:23:24Z</time></trkpt><trkpt lat="45.99580606035347" lon="13.30418786508294"><ele>66.0</ele><time>2026-04-06T17:23:25Z</time></trkpt><trkpt lat="45.99581192309347" lon="13.30441399040628"><ele>66.0</ele><time>2026-04-06T17:23:26Z</time></trkpt><trkpt lat="45.99581125702847" lon="13.30462118952597"><ele>66.0</ele><time>2026-04-06T17:23:27Z</time></trkpt><trkpt lat="45.99581268424367" lon="13.30479123410636"><ele>66.0</ele><time>2026-04-06T17:23:28Z</time></trkpt><trkpt lat="45.99582039409871" lon="13.304938031367952"><ele>66.0</ele><time>2026-04-06T17:23:29Z</time></trkpt><trkpt lat="45.99581863612795" lon="13.30506147844003"><ele>66.2</ele><time>2026-04-06T17:23:30Z</time></trkpt><trkpt lat="45.99579542242479" lon="13.305155620321369"><ele>66.39999999999999</ele><time>2026-04-06T17:23:31Z</time></trkpt><trkpt lat="45.99574378808059" lon="13.305216591369218"><ele>66.6</ele><time>2026-04-06T17:23:32Z</time></trkpt><trkpt lat="45.99564932506687" lon="13.305250093453969"><ele>66.8</ele><time>2026-04-06T17:23:33Z</time></trkpt><trkpt lat="45.99552592528317" lon="13.305285437571822"><ele>67.0</ele><time>2026-04-06T17:23:34Z</time></trkpt><trkpt lat="45.99537630353751" lon="13.305339435624102"><ele>67.0</ele><time>2026-04-06T17:23:35Z</time></trkpt><trkpt lat="45.99520829675206" lon="13.305396208342831"><ele>67.0</ele><time>2026-04-06T17:23:36Z</time></trkpt><trkpt lat="45.99504020279509" lon="13.305468845125759"><ele>67.0</ele><time>2026-04-06T17:23:37Z</time></trkpt><trkpt lat="45.99488396817685" lon="13.305571977042044"><ele>67.0</ele><time>2026-04-06T17:23:38Z</time></trkpt><trkpt lat="45.99473505338859" lon="13.305695231470136"><ele>67.0</ele><time>2026-04-06T17:23:39Z</time></trkpt><trkpt lat="45.99459318278989" lon="13.305846003063895"><ele>67.0</ele><time>2026-04-06T17:23:40Z</time></trkpt><trkpt lat="45.9944452993552" lon="13.305987329745477"><ele>67.0</ele><time>2026-04-06T17:23:41Z</time></trkpt><trkpt lat="45.994289169172106" lon="13.306094224408028"><ele>67.0</ele><time>2026-04-06T17:23:42Z</time></trkpt><trkpt lat="45.99412862122111" lon="13.306194509459027"><ele>67.0</ele><time>2026-04-06T17:23:43Z</time></trkpt><trkpt lat="45.993961299205296" lon="13.306282817262723"><ele>67.0</ele><time>2026-04-06T17:23:44Z</time></trkpt><trkpt lat="45.993790819066" lon="13.306367692661285"><ele>67.0</ele><time>2026-04-06T17:23:45Z</time></trkpt><trkpt lat="45.99362926600791" lon="13.306481559189802"><ele>67.0</ele><time>2026-04-06T17:23:46Z</time></trkpt><trkpt lat="45.99348308593858" lon="13.306634671971253"><ele>67.0</ele><time>2026-04-06T17:23:47Z</time></trkpt><trkpt lat="45.993343116973584" lon="13.306802231516112"><ele>67.0</ele><time>2026-04-06T17:23:48Z</time></trkpt><trkpt lat="45.9931992596864" lon="13.306957804024735"><ele>67.0</ele><time>2026-04-06T17:23:49Z</time></trkpt><trkpt lat="45.99306889098159" lon="13.307090751280944"><ele>67.0</ele><time>2026-04-06T17:23:50Z</time></trkpt><trkpt lat="45.99294027421943" lon="13.307185286004342"><ele>67.0</ele><time>2026-04-06T17:23:51Z</time></trkpt><trkpt lat="45.99278007088449" lon="13.307229557988931"><ele>67.0</ele><time>2026-04-06T17:23:52Z</time></trkpt><trkpt lat="45.992595588070394" lon="13.3072179263662"><ele>66.66666666666666</ele><time>2026-04-06T17:23:53Z</time></trkpt><trkpt lat="45.99239748465283" lon="13.307190043483377"><ele>66.33333333333333</ele><time>2026-04-06T17:23:54Z</time></trkpt><trkpt lat="45.99219429087768" lon="13.307194445264548"><ele>66.0</ele><time>2026-04-06T17:23:55Z</time></trkpt><trkpt lat="45.991985671458856" lon="13.307213257617247"><ele>66.0</ele><time>2026-04-06T17:23:56Z</time></trkpt><trkpt lat="45.99178186240382" lon="13.307258929591097"><ele>66.0</ele><time>2026-04-06T17:23:57Z</time></trkpt><trkpt lat="45.99158311532762" lon="13.307365329501465"><ele>66.0</ele><time>2026-04-06T17:23:58Z</time></trkpt><trkpt lat="45.99138643228547" lon="13.307511210430624"><ele>65.0</ele><time>2026-04-06T17:23:59Z</time></trkpt><trkpt lat="45.991191628447595" lon="13.307700892369139"><ele>64.0</ele><time>2026-04-06T17:24:00Z</time></trkpt><trkpt lat="45.99098688892639" lon="13.30789850294784"><ele>63.0</ele><time>2026-04-06T17:24:01Z</time></trkpt><trkpt lat="45.990776918969345" lon="13.308092801951064"><ele>62.0</ele><time>2026-04-06T17:24:02Z</time></trkpt><trkpt lat="45.990557447647504" lon="13.308283941858097"><ele>62.0</ele><time>2026-04-06T17:24:03Z</time></trkpt><trkpt lat="45.99032967448881" lon="13.308469504890363"><ele>62.0</ele><time>2026-04-06T17:24:04Z</time></trkpt><trkpt lat="45.9900975840932" lon="13.308652288836143"><ele>62.0</ele><time>2026-04-06T17:24:05Z</time></trkpt><trkpt lat="45.9898633873247" lon="13.308840120457717"><ele>62.0</ele><time>2026-04-06T17:24:06Z</time></trkpt><trkpt lat="45.98963025900317" lon="13.309037750601567"><ele>62.0</ele><time>2026-04-06T17:24:07Z</time></trkpt><trkpt lat="45.98939902670072" lon="13.309241447684023"><ele>62.0</ele><time>2026-04-06T17:24:08Z</time></trkpt><trkpt lat="45.98916788419423" lon="13.30944096207821"><ele>62.0</ele><time>2026-04-06T17:24:09Z</time></trkpt><trkpt lat="45.988937956429005" lon="13.309635543900852"><ele>62.0</ele><time>2026-04-06T17:24:10Z</time></trkpt><trkpt lat="45.98871266742691" lon="13.30982377525786"><ele>61.5</ele><time>2026-04-06T17:24:11Z</time></trkpt><trkpt lat="45.98849012948599" lon="13.310013587147235"><ele>61.0</ele><time>2026-04-06T17:24:12Z</time></trkpt><trkpt lat="45.9882698709172" lon="13.310207662583997"><ele>61.0</ele><time>2026-04-06T17:24:13Z</time></trkpt><trkpt lat="45.988056248220445" lon="13.310405261309517"><ele>61.0</ele><time>2026-04-06T17:24:14Z</time></trkpt><trkpt lat="45.987843791888984" lon="13.310604450546624"><ele>62.5</ele><time>2026-04-06T17:24:15Z</time></trkpt><trkpt lat="45.98763216567505" lon="13.310804119689191"><ele>64.0</ele><time>2026-04-06T17:24:16Z</time></trkpt><trkpt lat="45.98741799805388" lon="13.311009076608213"><ele>64.0</ele><time>2026-04-06T17:24:17Z</time></trkpt><trkpt lat="45.987200031250694" lon="13.311215180357197"><ele>64.0</ele><time>2026-04-06T17:24:18Z</time></trkpt><trkpt lat="45.98697982564294" lon="13.311423325362462"><ele>63.5</ele><time>2026-04-06T17:24:19Z</time></trkpt><trkpt lat="45.98675882481314" lon="13.311631911411125"><ele>63.0</ele><time>2026-04-06T17:24:20Z</time></trkpt><trkpt lat="45.98653590526147" lon="13.311840721159815"><ele>62.0</ele><time>2026-04-06T17:24:21Z</time></trkpt><trkpt lat="45.98631709797361" lon="13.312042212413257"><ele>61.0</ele><time>2026-04-06T17:24:22Z</time></trkpt><trkpt lat="45.986102464621126" lon="13.312236568891578"><ele>61.5</ele><time>2026-04-06T17:24:23Z</time></trkpt><trkpt lat="45.985893695287594" lon="13.312410992555108"><ele>62.0</ele><time>2026-04-06T17:24:24Z</time></trkpt><trkpt lat="45.98568777738605" lon="13.312555493820419"><ele>62.0</ele><time>2026-04-06T17:24:25Z</time></trkpt><trkpt lat="45.98548641526" lon="13.312664261084102"><ele>62.0</ele><time>2026-04-06T17:24:26Z</time></trkpt><trkpt lat="45.98529269169918" lon="13.31276133823321"><ele>62.0</ele><time>2026-04-06T17:24:27Z</time></trkpt><trkpt lat="45.985113149961194" lon="13.312859099159251"><ele>62.0</ele><time>2026-04-06T17:24:28Z</time></trkpt><trkpt lat="45.984947178797796" lon="13.312954233185494"><ele>62.0</ele><time>2026-04-06T17:24:29Z</time></trkpt><trkpt lat="45.984783817946294" lon="13.313065514560565"><ele>62.0</ele><time>2026-04-06T17:24:30Z</time></trkpt><trkpt lat="45.98461930987576" lon="13.313200561345676"><ele>61.333333333333336</ele><time>2026-04-06T17:24:31Z</time></trkpt><trkpt lat="45.98446228618628" lon="13.313350102348158"><ele>60.66666666666667</ele><time>2026-04-06T17:24:32Z</time></trkpt><trkpt lat="45.98431290513927" lon="13.313516093987605"><ele>60.0</ele><time>2026-04-06T17:24:33Z</time></trkpt><trkpt lat="45.9841779897263" lon="13.313705173076448"><ele>60.0</ele><time>2026-04-06T17:24:34Z</time></trkpt><trkpt lat="45.98405057503868" lon="13.313899131845401"><ele>60.0</ele><time>2026-04-06T17:24:35Z</time></trkpt><trkpt lat="45.98392369419017" lon="13.31409288962514"><ele>60.0</ele><time>2026-04-06T17:24:36Z</time></trkpt><trkpt lat="45.983789060489855" lon="13.314278815357174"><ele>60.33333333333333</ele><time>2026-04-06T17:24:37Z</time></trkpt><trkpt lat="45.983643161151356" lon="13.314439711876556"><ele>60.666666666666664</ele><time>2026-04-06T17:24:38Z</time></trkpt><trkpt lat="45.983486653768566" lon="13.314582981078992"><ele>61.0</ele><time>2026-04-06T17:24:39Z</time></trkpt><trkpt lat="45.983332839094516" lon="13.31471432459331"><ele>60.33333333333333</ele><time>2026-04-06T17:24:40Z</time></trkpt><trkpt lat="45.98318050938956" lon="13.31483656536231"><ele>59.66666666666667</ele><time>2026-04-06T17:24:41Z</time></trkpt><trkpt lat="45.983034318393706" lon="13.314952391668948"><ele>59.0</ele><time>2026-04-06T17:24:42Z</time></trkpt><trkpt lat="45.982903321554495" lon="13.315059186430965"><ele>59.0</ele><time>2026-04-06T17:24:43Z</time></trkpt><trkpt lat="45.98278897319331" lon="13.315149737805863"><ele>59.0</ele><time>2026-04-06T17:24:44Z</time></trkpt><trkpt lat="45.98268309921383" lon="13.315229014936909"><ele>59.0</ele><time>2026-04-06T17:24:45Z</time></trkpt><trkpt lat="45.98257542204361" lon="13.315306993360611"><ele>59.0</ele><time>2026-04-06T17:24:46Z</time></trkpt><trkpt lat="45.982461604318964" lon="13.315388824561303"><ele>59.0</ele><time>2026-04-06T17:24:46.999Z</time></trkpt><trkpt lat="45.98234704352209" lon="13.31547732805789"><ele>59.0</ele><time>2026-04-06T17:24:47.999Z</time></trkpt><trkpt lat="45.98222819619053" lon="13.31556688250007"><ele>59.0</ele><time>2026-04-06T17:24:48.999Z</time></trkpt><trkpt lat="45.98210224828339" lon="13.315658489578581"><ele>59.0</ele><time>2026-04-06T17:24:49.999Z</time></trkpt><trkpt lat="45.98197075676973" lon="13.315745589513929"><ele>59.0</ele><time>2026-04-06T17:24:50.999Z</time></trkpt><trkpt lat="45.98183743285999" lon="13.315832329852267"><ele>59.0</ele><time>2026-04-06T17:24:51.999Z</time></trkpt><trkpt lat="45.981699065876334" lon="13.31592377946321"><ele>59.0</ele><time>2026-04-06T17:24:53Z</time></trkpt><trkpt lat="45.981554788017185" lon="13.316021436704714"><ele>59.0</ele><time>2026-04-06T17:24:54Z</time></trkpt><trkpt lat="45.98140197578722" lon="13.316125232493027"><ele>59.0</ele><time>2026-04-06T17:24:55Z</time></trkpt><trkpt lat="45.98124145362084" lon="13.31623372544153"><ele>59.0</ele><time>2026-04-06T17:24:56Z</time></trkpt><trkpt lat="45.98107494794849" lon="13.316353183075003"><ele>59.0</ele><time>2026-04-06T17:24:57Z</time></trkpt><trkpt lat="45.980906920145166" lon="13.316490092039603"><ele>59.0</ele><time>2026-04-06T17:24:58Z</time></trkpt><trkpt lat="45.98074023442062" lon="13.316644916131995"><ele>59.0</ele><time>2026-04-06T17:24:59Z</time></trkpt><trkpt lat="45.98057215274162" lon="13.316797910642691"><ele>59.0</ele><time>2026-04-06T17:25:00Z</time></trkpt><trkpt lat="45.98040074787212" lon="13.3169423419032"><ele>59.0</ele><time>2026-04-06T17:25:01Z</time></trkpt><trkpt lat="45.98022584219968" lon="13.31707578511096"><ele>59.0</ele><time>2026-04-06T17:25:02Z</time></trkpt><trkpt lat="45.98004887192549" lon="13.317211986550705"><ele>59.0</ele><time>2026-04-06T17:25:03Z</time></trkpt><trkpt lat="45.97987425576785" lon="13.317350346441744"><ele>59.0</ele><time>2026-04-06T17:25:04Z</time></trkpt><trkpt lat="45.979702641442955" lon="13.317483989723547"><ele>59.0</ele><time>2026-04-06T17:25:05Z</time></trkpt><trkpt lat="45.979530908697214" lon="13.317608423039685"><ele>59.0</ele><time>2026-04-06T17:25:06Z</time></trkpt><trkpt lat="45.979356927644" lon="13.317717865237352"><ele>59.0</ele><time>2026-04-06T17:25:07Z</time></trkpt><trkpt lat="45.979190256536256" lon="13.317800820592954"><ele>59.0</ele><time>2026-04-06T17:25:08Z</time></trkpt><trkpt lat="45.97903622456002" lon="13.317874093951296"><ele>58.75</ele><time>2026-04-06T17:25:09Z</time></trkpt><trkpt lat="45.97888992058846" lon="13.317960801746645"><ele>58.5</ele><time>2026-04-06T17:25:10Z</time></trkpt><trkpt lat="45.97875675672872" lon="13.318060364689963"><ele>58.25</ele><time>2026-04-06T17:25:11Z</time></trkpt><trkpt lat="45.9786409505184" lon="13.318164159184017"><ele>58.0</ele><time>2026-04-06T17:25:12Z</time></trkpt><trkpt lat="45.978537062588074" lon="13.318269940466438"><ele>58.0</ele><time>2026-04-06T17:25:13Z</time></trkpt><trkpt lat="45.97843368995172" lon="13.318377703376273"><ele>58.0</ele><time>2026-04-06T17:25:14Z</time></trkpt><trkpt lat="45.97832891320896" lon="13.318484839908836"><ele>58.0</ele><time>2026-04-06T17:25:15Z</time></trkpt><trkpt lat="45.97822742103764" lon="13.318590511360831"><ele>58.0</ele><time>2026-04-06T17:25:16Z</time></trkpt><trkpt lat="45.9781335138055" lon="13.318687904418905"><ele>58.2</ele><time>2026-04-06T17:25:17Z</time></trkpt><trkpt lat="45.97804676171901" lon="13.318776734084555"><ele>58.4</ele><time>2026-04-06T17:25:18Z</time></trkpt><trkpt lat="45.97796382373381" lon="13.318858720083574"><ele>58.60000000000001</ele><time>2026-04-06T17:25:19Z</time></trkpt><trkpt lat="45.97787666906243" lon="13.31893874150957"><ele>58.800000000000004</ele><time>2026-04-06T17:25:20Z</time></trkpt><trkpt lat="45.977791133922175" lon="13.31901928227212"><ele>59.0</ele><time>2026-04-06T17:25:21Z</time></trkpt><trkpt lat="45.97770617017787" lon="13.319098573583814"><ele>59.2</ele><time>2026-04-06T17:25:22Z</time></trkpt><trkpt lat="45.977617141007364" lon="13.319178082760256"><ele>59.400000000000006</ele><time>2026-04-06T17:25:23Z</time></trkpt><trkpt lat="45.9775265762441" lon="13.31925256068542"><ele>59.6</ele><time>2026-04-06T17:25:24Z</time></trkpt><trkpt lat="45.977436981719784" lon="13.319326846975859"><ele>59.8</ele><time>2026-04-06T17:25:25Z</time></trkpt><trkpt lat="45.97734780884537" lon="13.319403496872537"><ele>60.0</ele><time>2026-04-06T17:25:26Z</time></trkpt><trkpt lat="45.977247601666015" lon="13.319486176194074"><ele>59.5</ele><time>2026-04-06T17:25:27Z</time></trkpt><trkpt lat="45.97713237896635" lon="13.319573928216721"><ele>59.0</ele><time>2026-04-06T17:25:28Z</time></trkpt><trkpt lat="45.97700303026686" lon="13.319670173901589"><ele>58.5</ele><time>2026-04-06T17:25:29Z</time></trkpt><trkpt lat="45.97685414240959" lon="13.319774010809052"><ele>58.0</ele><time>2026-04-06T17:25:30Z</time></trkpt><trkpt lat="45.97669291193331" lon="13.319882036960822"><ele>57.666666666666664</ele><time>2026-04-06T17:25:31Z</time></trkpt><trkpt lat="45.976515074092454" lon="13.32000318903957"><ele>57.33333333333333</ele><time>2026-04-06T17:25:32Z</time></trkpt><trkpt lat="45.97632268965409" lon="13.320129972198"><ele>57.0</ele><time>2026-04-06T17:25:33Z</time></trkpt><trkpt lat="45.97612019857864" lon="13.320252583653808"><ele>57.0</ele><time>2026-04-06T17:25:34Z</time></trkpt><trkpt lat="45.97590842722224" lon="13.320363457160651"><ele>57.0</ele><time>2026-04-06T17:25:35Z</time></trkpt><trkpt lat="45.97570625864975" lon="13.320467778097813"><ele>57.0</ele><time>2026-04-06T17:25:36Z</time></trkpt><trkpt lat="45.975534352763674" lon="13.320559323786481"><ele>57.5</ele><time>2026-04-06T17:25:37Z</time></trkpt><trkpt lat="45.97538048066803" lon="13.32064167288134"><ele>58.0</ele><time>2026-04-06T17:25:38Z</time></trkpt><trkpt lat="45.97524441130626" lon="13.320712871650624"><ele>58.5</ele><time>2026-04-06T17:25:39Z</time></trkpt><trkpt lat="45.97514888567655" lon="13.320762999158056"><ele>59.0</ele><time>2026-04-06T17:25:40Z</time></trkpt><trkpt lat="45.97506665623826" lon="13.320796023493626"><ele>59.00000000000001</ele><time>2026-04-06T17:25:41Z</time></trkpt><trkpt lat="45.974984628091505" lon="13.320806797491219"><ele>59.0</ele><time>2026-04-06T17:25:42Z</time></trkpt><trkpt lat="45.97489979676134" lon="13.320785102974027"><ele>59.0</ele><time>2026-04-06T17:25:43Z</time></trkpt><trkpt lat="45.97482890383602" lon="13.320776728586125"><ele>59.0</ele><time>2026-04-06T17:25:44Z</time></trkpt><trkpt lat="45.974767807403566" lon="13.320811782225647"><ele>59.00000000000001</ele><time>2026-04-06T17:25:45Z</time></trkpt><trkpt lat="45.974718864812516" lon="13.320891331641755"><ele>59.0</ele><time>2026-04-06T17:25:46Z</time></trkpt><trkpt lat="45.97468207727002" lon="13.321010855215356"><ele>59.0</ele><time>2026-04-06T17:25:47Z</time></trkpt><trkpt lat="45.97462141963174" lon="13.321149254884249"><ele>59.0</ele><time>2026-04-06T17:25:48Z</time></trkpt><trkpt lat="45.97456178377871" lon="13.32131977368029"><ele>59.0</ele><time>2026-04-06T17:25:49Z</time></trkpt><trkpt lat="45.974515487421066" lon="13.32152696332386"><ele>59.0</ele><time>2026-04-06T17:25:50Z</time></trkpt><trkpt lat="45.97447340053652" lon="13.321755545431337"><ele>58.66666666666667</ele><time>2026-04-06T17:25:51Z</time></trkpt><trkpt lat="45.974440265478776" lon="13.321976215618632"><ele>58.33333333333333</ele><time>2026-04-06T17:25:52Z</time></trkpt><trkpt lat="45.97442426258925" lon="13.32219201217816"><ele>58.0</ele><time>2026-04-06T17:25:53Z</time></trkpt><trkpt lat="45.97443738534806" lon="13.322401123109708"><ele>58.0</ele><time>2026-04-06T17:25:54Z</time></trkpt><trkpt lat="45.974476868238206" lon="13.322611584328644"><ele>58.0</ele><time>2026-04-06T17:25:55Z</time></trkpt><trkpt lat="45.974537907354176" lon="13.32281870472539"><ele>58.0</ele><time>2026-04-06T17:25:56Z</time></trkpt><trkpt lat="45.97459729260552" lon="13.323030612721347"><ele>58.0</ele><time>2026-04-06T17:25:57Z</time></trkpt><trkpt lat="45.97467215817395" lon="13.323254276469966"><ele>58.0</ele><time>2026-04-06T17:25:58Z</time></trkpt><trkpt lat="45.97475371621939" lon="13.323505234811124"><ele>58.0</ele><time>2026-04-06T17:25:59Z</time></trkpt><trkpt lat="45.974837574207314" lon="13.323778104769357"><ele>58.0</ele><time>2026-04-06T17:26:00Z</time></trkpt><trkpt lat="45.97492586804255" lon="13.324052129131358"><ele>58.0</ele><time>2026-04-06T17:26:01Z</time></trkpt><trkpt lat="45.97501381441144" lon="13.324322947446817"><ele>58.0</ele><time>2026-04-06T17:26:02Z</time></trkpt><trkpt lat="45.975094984918684" lon="13.32458031083093"><ele>57.666666666666664</ele><time>2026-04-06T17:26:03Z</time></trkpt><trkpt lat="45.975174010428255" lon="13.324832497550348"><ele>57.33333333333333</ele><time>2026-04-06T17:26:04Z</time></trkpt><trkpt lat="45.975234204213486" lon="13.32508947992453"><ele>57.0</ele><time>2026-04-06T17:26:05Z</time></trkpt><trkpt lat="45.97529858604104" lon="13.325331669188257"><ele>57.0</ele><time>2026-04-06T17:26:06Z</time></trkpt><trkpt lat="45.975368460674815" lon="13.325568167580313"><ele>57.0</ele><time>2026-04-06T17:26:07Z</time></trkpt><trkpt lat="45.975434431379405" lon="13.32580821362174"><ele>57.0</ele><time>2026-04-06T17:26:08Z</time></trkpt><trkpt lat="45.97550304524238" lon="13.326055534288708"><ele>57.0</ele><time>2026-04-06T17:26:09Z</time></trkpt><trkpt lat="45.97557082256379" lon="13.326299314193692"><ele>57.0</ele><time>2026-04-06T17:26:10Z</time></trkpt><trkpt lat="45.9756402318214" lon="13.326538475639017"><ele>57.0</ele><time>2026-04-06T17:26:11Z</time></trkpt><trkpt lat="45.975701636712564" lon="13.326753484594049"><ele>57.400000000000006</ele><time>2026-04-06T17:26:12Z</time></trkpt><trkpt lat="45.97575297305056" lon="13.326934259565379"><ele>57.800000000000004</ele><time>2026-04-06T17:26:13Z</time></trkpt><trkpt lat="45.975793707317905" lon="13.327096734497106"><ele>58.2</ele><time>2026-04-06T17:26:14Z</time></trkpt><trkpt lat="45.97581916254349" lon="13.327234313049654"><ele>58.6</ele><time>2026-04-06T17:26:15Z</time></trkpt><trkpt lat="45.97582334670344" lon="13.327362675433209"><ele>59.0</ele><time>2026-04-06T17:26:16Z</time></trkpt><trkpt lat="45.97580234416793" lon="13.327491880512968"><ele>59.2</ele><time>2026-04-06T17:26:17Z</time></trkpt><trkpt lat="45.975768134431846" lon="13.327635245902998"><ele>59.400000000000006</ele><time>2026-04-06T17:26:18Z</time></trkpt><trkpt lat="45.97568209045657" lon="13.327743442768115"><ele>59.6</ele><time>2026-04-06T17:26:19Z</time></trkpt><trkpt lat="45.975577124834224" lon="13.327777409455395"><ele>59.8</ele><time>2026-04-06T17:26:20Z</time></trkpt><trkpt lat="45.975490139875625" lon="13.327851297600331"><ele>60.0</ele><time>2026-04-06T17:26:21Z</time></trkpt><trkpt lat="45.97537566949782" lon="13.327820684230609"><ele>60.0</ele><time>2026-04-06T17:26:22Z</time></trkpt><trkpt lat="45.97530491684777" lon="13.327842262746742"><ele>60.0</ele><time>2026-04-06T17:26:23Z</time></trkpt><trkpt lat="45.9751059982394" lon="13.32793145417752"><ele>60.0</ele><time>2026-04-06T17:26:33Z</time></trkpt><trkpt lat="45.97502236674967" lon="13.327996139555129"><ele>60.0</ele><time>2026-04-06T17:26:34Z</time></trkpt><trkpt lat="45.974913808801475" lon="13.32806392716744"><ele>59.0</ele><time>2026-04-06T17:26:35Z</time></trkpt><trkpt lat="45.97478504778662" lon="13.328144651128879"><ele>58.0</ele><time>2026-04-06T17:26:36Z</time></trkpt><trkpt lat="45.974638740835225" lon="13.328249316258661"><ele>57.0</ele><time>2026-04-06T17:26:37Z</time></trkpt><trkpt lat="45.97447198397915" lon="13.328364021119405"><ele>57.0</ele><time>2026-04-06T17:26:38Z</time></trkpt><trkpt lat="45.9742888892219" lon="13.32848203959426"><ele>57.0</ele><time>2026-04-06T17:26:39Z</time></trkpt><trkpt lat="45.974098257642154" lon="13.328609157232126"><ele>57.0</ele><time>2026-04-06T17:26:40Z</time></trkpt><trkpt lat="45.97390683093186" lon="13.328741467549287"><ele>56.66666666666667</ele><time>2026-04-06T17:26:41Z</time></trkpt><trkpt lat="45.97372271407578" lon="13.328864415687837"><ele>56.333333333333336</ele><time>2026-04-06T17:26:42Z</time></trkpt><trkpt lat="45.97354254139843" lon="13.328983665105623"><ele>56.0</ele><time>2026-04-06T17:26:43Z</time></trkpt><trkpt lat="45.97336807467229" lon="13.329101222262853"><ele>55.333333333333336</ele><time>2026-04-06T17:26:44Z</time></trkpt><trkpt lat="45.97319968734031" lon="13.329215540917676"><ele>54.66666666666667</ele><time>2026-04-06T17:26:45Z</time></trkpt><trkpt lat="45.97303572880107" lon="13.329328431900185"><ele>54.0</ele><time>2026-04-06T17:26:46Z</time></trkpt><trkpt lat="45.972880853019134" lon="13.329432000411629"><ele>54.0</ele><time>2026-04-06T17:26:47Z</time></trkpt><trkpt lat="45.972742620976376" lon="13.32952602820541"><ele>54.0</ele><time>2026-04-06T17:26:48Z</time></trkpt><trkpt lat="45.972617402700145" lon="13.3296123508026"><ele>54.0</ele><time>2026-04-06T17:26:48.999Z</time></trkpt><trkpt lat="45.972500060907585" lon="13.329693776743918"><ele>54.0</ele><time>2026-04-06T17:26:49.999Z</time></trkpt><trkpt lat="45.97239148737987" lon="13.329768214937133"><ele>54.5</ele><time>2026-04-06T17:26:50.999Z</time></trkpt><trkpt lat="45.97228419480599" lon="13.329840290242288"><ele>55.0</ele><time>2026-04-06T17:26:51.999Z</time></trkpt><trkpt lat="45.972177058068226" lon="13.329913983020115"><ele>55.5</ele><time>2026-04-06T17:26:52.999Z</time></trkpt><trkpt lat="45.9720630134856" lon="13.329990850999687"><ele>56.0</ele><time>2026-04-06T17:26:53.999Z</time></trkpt><trkpt lat="45.971949216044" lon="13.33006873899557"><ele>56.0</ele><time>2026-04-06T17:26:54.999Z</time></trkpt><trkpt lat="45.97182720728733" lon="13.33015007005145"><ele>56.0</ele><time>2026-04-06T17:26:55.999Z</time></trkpt><trkpt lat="45.97170034435585" lon="13.330227758011375"><ele>56.0</ele><time>2026-04-06T17:26:56.999Z</time></trkpt><trkpt lat="45.97156506837381" lon="13.330300852767254"><ele>56.0</ele><time>2026-04-06T17:26:57.999Z</time></trkpt><trkpt lat="45.971413096046064" lon="13.330366480921553"><ele>55.66666666666667</ele><time>2026-04-06T17:26:59Z</time></trkpt><trkpt lat="45.97124768953006" lon="13.330420938487771"><ele>55.33333333333333</ele><time>2026-04-06T17:27:00Z</time></trkpt><trkpt lat="45.971096880030906" lon="13.330464340732737"><ele>55.0</ele><time>2026-04-06T17:27:01Z</time></trkpt><trkpt lat="45.97096584011787" lon="13.330502406040635"><ele>54.83333333333333</ele><time>2026-04-06T17:27:02Z</time></trkpt><trkpt lat="45.970850176898274" lon="13.330536718285723"><ele>54.666666666666664</ele><time>2026-04-06T17:27:03Z</time></trkpt><trkpt lat="45.97075238883577" lon="13.330563280749601"><ele>54.5</ele><time>2026-04-06T17:27:04Z</time></trkpt><trkpt lat="45.97068253962296" lon="13.330580934566848"><ele>54.33333333333333</ele><time>2026-04-06T17:27:05Z</time></trkpt><trkpt lat="45.97061513822897" lon="13.330599865155273"><ele>54.166666666666664</ele><time>2026-04-06T17:27:06Z</time></trkpt><trkpt lat="45.970541884592905" lon="13.330619574981986"><ele>54.0</ele><time>2026-04-06T17:27:07Z</time></trkpt><trkpt lat="45.97045401550023" lon="13.330640090947401"><ele>54.0</ele><time>2026-04-06T17:27:08Z</time></trkpt><trkpt lat="45.97033538914066" lon="13.330677180679816"><ele>54.0</ele><time>2026-04-06T17:27:09Z</time></trkpt><trkpt lat="45.97017939218383" lon="13.330719282273217"><ele>54.0</ele><time>2026-04-06T17:27:10Z</time></trkpt><trkpt lat="45.96997940968031" lon="13.330769861336703"><ele>53.5</ele><time>2026-04-06T17:27:11Z</time></trkpt><trkpt lat="45.96973860449155" lon="13.3308308790773"><ele>53.0</ele><time>2026-04-06T17:27:12Z</time></trkpt><trkpt lat="45.96947378529766" lon="13.330901898998953"><ele>53.0</ele><time>2026-04-06T17:27:13Z</time></trkpt><trkpt lat="45.969196581609665" lon="13.3309714858269"><ele>53.0</ele><time>2026-04-06T17:27:14Z</time></trkpt><trkpt lat="45.96891205428787" lon="13.331045938842898"><ele>53.0</ele><time>2026-04-06T17:27:15Z</time></trkpt><trkpt lat="45.96862428127244" lon="13.331121664120769"><ele>53.0</ele><time>2026-04-06T17:27:16Z</time></trkpt><trkpt lat="45.968339699862334" lon="13.331196609018228"><ele>54.0</ele><time>2026-04-06T17:27:17Z</time></trkpt><trkpt lat="45.96806137478814" lon="13.331269269132207"><ele>55.0</ele><time>2026-04-06T17:27:18Z</time></trkpt><trkpt lat="45.96778962940071" lon="13.331342230334316"><ele>53.5</ele><time>2026-04-06T17:27:19Z</time></trkpt><trkpt lat="45.967524021412125" lon="13.331409285246684"><ele>52.0</ele><time>2026-04-06T17:27:20Z</time></trkpt><trkpt lat="45.967265337181445" lon="13.33147319244196"><ele>52.0</ele><time>2026-04-06T17:27:21Z</time></trkpt><trkpt lat="45.96700842838962" lon="13.331537440951369"><ele>52.0</ele><time>2026-04-06T17:27:22Z</time></trkpt><trkpt lat="45.966752879320055" lon="13.331602654706403"><ele>51.5</ele><time>2026-04-06T17:27:23Z</time></trkpt><trkpt lat="45.966499707869424" lon="13.3316684934748"><ele>51.0</ele><time>2026-04-06T17:27:24Z</time></trkpt><trkpt lat="45.96625005880919" lon="13.331739278576693"><ele>51.0</ele><time>2026-04-06T17:27:25Z</time></trkpt><trkpt lat="45.9660068964134" lon="13.33182648796952"><ele>51.0</ele><time>2026-04-06T17:27:26Z</time></trkpt><trkpt lat="45.96577211675697" lon="13.33193237516287"><ele>51.0</ele><time>2026-04-06T17:27:27Z</time></trkpt><trkpt lat="45.965540373381984" lon="13.332065619981327"><ele>51.0</ele><time>2026-04-06T17:27:28Z</time></trkpt><trkpt lat="45.965305414513224" lon="13.332212152610728"><ele>51.0</ele><time>2026-04-06T17:27:29Z</time></trkpt><trkpt lat="45.965066038951356" lon="13.332364002318391"><ele>51.0</ele><time>2026-04-06T17:27:30Z</time></trkpt><trkpt lat="45.96482369915806" lon="13.332516176516396"><ele>51.5</ele><time>2026-04-06T17:27:31Z</time></trkpt><trkpt lat="45.96457668936827" lon="13.332670706538343"><ele>52.0</ele><time>2026-04-06T17:27:32Z</time></trkpt><trkpt lat="45.964327739410734" lon="13.33282479878731"><ele>50.5</ele><time>2026-04-06T17:27:33Z</time></trkpt><trkpt lat="45.96407708210756" lon="13.332978360814788"><ele>49.0</ele><time>2026-04-06T17:27:34Z</time></trkpt><trkpt lat="45.96382352726178" lon="13.333134037615329"><ele>49.0</ele><time>2026-04-06T17:27:35Z</time></trkpt><trkpt lat="45.96357030235903" lon="13.333296595969603"><ele>49.0</ele><time>2026-04-06T17:27:36Z</time></trkpt><trkpt lat="45.9633155769477" lon="13.333457683828554"><ele>49.0</ele><time>2026-04-06T17:27:37Z</time></trkpt><trkpt lat="45.9630646666235" lon="13.333614058711628"><ele>49.0</ele><time>2026-04-06T17:27:38Z</time></trkpt><trkpt lat="45.96281756844334" lon="13.333768264922746"><ele>49.0</ele><time>2026-04-06T17:27:39Z</time></trkpt><trkpt lat="45.96257716853803" lon="13.333918955901362"><ele>49.0</ele><time>2026-04-06T17:27:40Z</time></trkpt><trkpt lat="45.96234457189695" lon="13.334069116057945"><ele>48.0</ele><time>2026-04-06T17:27:41Z</time></trkpt><trkpt lat="45.96211738368707" lon="13.334215318557934"><ele>47.0</ele><time>2026-04-06T17:27:42Z</time></trkpt><trkpt lat="45.96189379817673" lon="13.334353988070749"><ele>47.5</ele><time>2026-04-06T17:27:43Z</time></trkpt><trkpt lat="45.96167155787771" lon="13.334488805676939"><ele>48.0</ele><time>2026-04-06T17:27:44Z</time></trkpt><trkpt lat="45.961445561748086" lon="13.334614903313991"><ele>47.5</ele><time>2026-04-06T17:27:45Z</time></trkpt><trkpt lat="45.961215457427926" lon="13.334723461240278"><ele>47.0</ele><time>2026-04-06T17:27:46Z</time></trkpt><trkpt lat="45.96097926025988" lon="13.334811661441"><ele>48.0</ele><time>2026-04-06T17:27:47Z</time></trkpt><trkpt lat="45.96073761472079" lon="13.33487974176429"><ele>49.0</ele><time>2026-04-06T17:27:48Z</time></trkpt><trkpt lat="45.96049586925326" lon="13.334947682867474"><ele>49.0</ele><time>2026-04-06T17:27:49Z</time></trkpt><trkpt lat="45.960254774569705" lon="13.335022211396272"><ele>49.0</ele><time>2026-04-06T17:27:50Z</time></trkpt><trkpt lat="45.96001312618656" lon="13.335094793648036"><ele>47.5</ele><time>2026-04-06T17:27:51Z</time></trkpt><trkpt lat="45.959771250537166" lon="13.335165061735871"><ele>46.0</ele><time>2026-04-06T17:27:52Z</time></trkpt><trkpt lat="45.95952889450456" lon="13.3352348890894"><ele>46.0</ele><time>2026-04-06T17:27:53Z</time></trkpt><trkpt lat="45.95928742902498" lon="13.335304829031735"><ele>46.0</ele><time>2026-04-06T17:27:54Z</time></trkpt><trkpt lat="45.95904492504548" lon="13.335377639283271"><ele>45.5</ele><time>2026-04-06T17:27:55Z</time></trkpt><trkpt lat="45.95880231718997" lon="13.33544797633181"><ele>45.0</ele><time>2026-04-06T17:27:56Z</time></trkpt><trkpt lat="45.9585606039815" lon="13.335526563884466"><ele>46.0</ele><time>2026-04-06T17:27:57Z</time></trkpt><trkpt lat="45.95832263702693" lon="13.33562460549135"><ele>47.0</ele><time>2026-04-06T17:27:58Z</time></trkpt><trkpt lat="45.95809053767735" lon="13.335743538727726"><ele>47.0</ele><time>2026-04-06T17:27:59Z</time></trkpt><trkpt lat="45.95786478888785" lon="13.335877658603646"><ele>47.0</ele><time>2026-04-06T17:28:00Z</time></trkpt><trkpt lat="45.957642441696166" lon="13.336010940520241"><ele>47.5</ele><time>2026-04-06T17:28:01Z</time></trkpt><trkpt lat="45.95742195220913" lon="13.336142290936502"><ele>48.0</ele><time>2026-04-06T17:28:02Z</time></trkpt><trkpt lat="45.957213603016655" lon="13.336275442859801"><ele>48.0</ele><time>2026-04-06T17:28:03Z</time></trkpt><trkpt lat="45.95701910552734" lon="13.336416558472576"><ele>48.0</ele><time>2026-04-06T17:28:04Z</time></trkpt><trkpt lat="45.95683142037933" lon="13.33656024200575"><ele>48.0</ele><time>2026-04-06T17:28:05Z</time></trkpt><trkpt lat="45.95664431586847" lon="13.33670119762864"><ele>47.666666666666664</ele><time>2026-04-06T17:28:06Z</time></trkpt><trkpt lat="45.95645352610376" lon="13.3368376253974"><ele>47.33333333333333</ele><time>2026-04-06T17:28:07Z</time></trkpt><trkpt lat="45.956259939383614" lon="13.336971323521638"><ele>47.0</ele><time>2026-04-06T17:28:08Z</time></trkpt><trkpt lat="45.95606584945766" lon="13.337106724409747"><ele>47.0</ele><time>2026-04-06T17:28:09Z</time></trkpt><trkpt lat="45.95586929341813" lon="13.337242840947814"><ele>47.0</ele><time>2026-04-06T17:28:10Z</time></trkpt><trkpt lat="45.9556711479082" lon="13.337380753009706"><ele>47.0</ele><time>2026-04-06T17:28:11Z</time></trkpt><trkpt lat="45.955471984243395" lon="13.337518585413994"><ele>47.0</ele><time>2026-04-06T17:28:12Z</time></trkpt><trkpt lat="45.95527253663748" lon="13.337654758295985"><ele>47.0</ele><time>2026-04-06T17:28:13Z</time></trkpt><trkpt lat="45.955075068768146" lon="13.337790894906279"><ele>47.0</ele><time>2026-04-06T17:28:14Z</time></trkpt><trkpt lat="45.95488160741946" lon="13.337925200936871"><ele>46.33333333333333</ele><time>2026-04-06T17:28:15Z</time></trkpt><trkpt lat="45.954690348783664" lon="13.338059402838882"><ele>45.666666666666664</ele><time>2026-04-06T17:28:16Z</time></trkpt><trkpt lat="45.95450262027874" lon="13.338191645163512"><ele>45.0</ele><time>2026-04-06T17:28:17Z</time></trkpt><trkpt lat="45.9543150278769" lon="13.338322015977788"><ele>45.666666666666664</ele><time>2026-04-06T17:28:18Z</time></trkpt><trkpt lat="45.954128414969574" lon="13.338452409122072"><ele>46.33333333333333</ele><time>2026-04-06T17:28:19Z</time></trkpt><trkpt lat="45.95394469916324" lon="13.338580790152806"><ele>47.0</ele><time>2026-04-06T17:28:20Z</time></trkpt><trkpt lat="45.95376057228706" lon="13.33871036970353"><ele>47.0</ele><time>2026-04-06T17:28:21Z</time></trkpt><trkpt lat="45.95357809321268" lon="13.33883688646158"><ele>47.0</ele><time>2026-04-06T17:28:22Z</time></trkpt><trkpt lat="45.95339475992924" lon="13.33896304851081"><ele>47.0</ele><time>2026-04-06T17:28:23Z</time></trkpt><trkpt lat="45.953209932382414" lon="13.339089198295097"><ele>47.0</ele><time>2026-04-06T17:28:24Z</time></trkpt><trkpt lat="45.95302585258813" lon="13.339214663356845"><ele>47.0</ele><time>2026-04-06T17:28:25Z</time></trkpt><trkpt lat="45.95284294242608" lon="13.339340659570574"><ele>47.0</ele><time>2026-04-06T17:28:26Z</time></trkpt><trkpt lat="45.952659442882506" lon="13.339468256181584"><ele>47.33333333333333</ele><time>2026-04-06T17:28:27Z</time></trkpt><trkpt lat="45.952473886984365" lon="13.339595025799687"><ele>47.666666666666664</ele><time>2026-04-06T17:28:28Z</time></trkpt><trkpt lat="45.95228525447523" lon="13.33972378716227"><ele>48.0</ele><time>2026-04-06T17:28:29Z</time></trkpt><trkpt lat="45.95209440026382" lon="13.339854699227843"><ele>47.333333333333336</ele><time>2026-04-06T17:28:30Z</time></trkpt><trkpt lat="45.951903762198235" lon="13.339988447156736"><ele>46.66666666666667</ele><time>2026-04-06T17:28:31Z</time></trkpt><trkpt lat="45.95171599233341" lon="13.34012165688106"><ele>46.0</ele><time>2026-04-06T17:28:32Z</time></trkpt><trkpt lat="45.95152840474126" lon="13.340256113219384"><ele>46.0</ele><time>2026-04-06T17:28:33Z</time></trkpt><trkpt lat="45.95134191930442" lon="13.340390041344719"><ele>46.0</ele><time>2026-04-06T17:28:34Z</time></trkpt><trkpt lat="45.95115841556013" lon="13.340533136936259"><ele>46.0</ele><time>2026-04-06T17:28:35Z</time></trkpt><trkpt lat="45.95098051628569" lon="13.340682328308445"><ele>46.0</ele><time>2026-04-06T17:28:36Z</time></trkpt><trkpt lat="45.95080810161191" lon="13.340842760821898"><ele>46.0</ele><time>2026-04-06T17:28:37Z</time></trkpt><trkpt lat="45.950637794803555" lon="13.341007199969052"><ele>46.0</ele><time>2026-04-06T17:28:38Z</time></trkpt><trkpt lat="45.950470049995126" lon="13.341176987486449"><ele>46.0</ele><time>2026-04-06T17:28:39Z</time></trkpt><trkpt lat="45.950304097305214" lon="13.34134935912137"><ele>46.0</ele><time>2026-04-06T17:28:40Z</time></trkpt><trkpt lat="45.950140735047256" lon="13.34152369168527"><ele>46.0</ele><time>2026-04-06T17:28:41Z</time></trkpt><trkpt lat="45.949990328927434" lon="13.341685625824164"><ele>45.66666666666667</ele><time>2026-04-06T17:28:42Z</time></trkpt><trkpt lat="45.949854185265266" lon="13.341831212268753"><ele>45.333333333333336</ele><time>2026-04-06T17:28:43Z</time></trkpt><trkpt lat="45.949729908276765" lon="13.341968042707158"><ele>45.0</ele><time>2026-04-06T17:28:44Z</time></trkpt><trkpt lat="45.94960979637597" lon="13.342112359563549"><ele>45.0</ele><time>2026-04-06T17:28:45Z</time></trkpt><trkpt lat="45.94946239114687" lon="13.342291529511499"><ele>45.0</ele><time>2026-04-06T17:28:46Z</time></trkpt><trkpt lat="45.949303990376784" lon="13.34250651673854"><ele>45.0</ele><time>2026-04-06T17:28:47Z</time></trkpt><trkpt lat="45.94914310300528" lon="13.34277103813837"><ele>44.0</ele><time>2026-04-06T17:28:48Z</time></trkpt><trkpt lat="45.948977966701925" lon="13.343070623711132"><ele>43.0</ele><time>2026-04-06T17:28:49Z</time></trkpt><trkpt lat="45.948811516721015" lon="13.343390356071414"><ele>43.0</ele><time>2026-04-06T17:28:50Z</time></trkpt><trkpt lat="45.948642364111556" lon="13.343714688405415"><ele>43.0</ele><time>2026-04-06T17:28:51Z</time></trkpt><trkpt lat="45.94847557753325" lon="13.344032087231547"><ele>43.5</ele><time>2026-04-06T17:28:51.999Z</time></trkpt><trkpt lat="45.94831537922473" lon="13.344336962400224"><ele>44.0</ele><time>2026-04-06T17:28:52.999Z</time></trkpt><trkpt lat="45.948164110358555" lon="13.344628719203792"><ele>43.0</ele><time>2026-04-06T17:28:53.999Z</time></trkpt><trkpt lat="45.9480238470509" lon="13.344903860972924"><ele>42.0</ele><time>2026-04-06T17:28:54.999Z</time></trkpt><trkpt lat="45.94789576651752" lon="13.345156880378429"><ele>42.0</ele><time>2026-04-06T17:28:55.999Z</time></trkpt><trkpt lat="45.94777594051228" lon="13.34538908244911"><ele>42.0</ele><time>2026-04-06T17:28:56.999Z</time></trkpt><trkpt lat="45.947659008649666" lon="13.345606764312015"><ele>42.0</ele><time>2026-04-06T17:28:57.999Z</time></trkpt><trkpt lat="45.94753944674345" lon="13.345810868550842"><ele>41.666666666666664</ele><time>2026-04-06T17:28:58.999Z</time></trkpt><trkpt lat="45.9474053793368" lon="13.345994293265084"><ele>41.33333333333333</ele><time>2026-04-06T17:28:59.999Z</time></trkpt><trkpt lat="45.94725737457076" lon="13.346150666760257"><ele>41.0</ele><time>2026-04-06T17:29:00.999Z</time></trkpt><trkpt lat="45.947098731965205" lon="13.346285744606744"><ele>41.33333333333333</ele><time>2026-04-06T17:29:01.999Z</time></trkpt><trkpt lat="45.946935809944236" lon="13.346402493664232"><ele>41.666666666666664</ele><time>2026-04-06T17:29:02.999Z</time></trkpt><trkpt lat="45.94675947446554" lon="13.346505409720724"><ele>42.0</ele><time>2026-04-06T17:29:03.999Z</time></trkpt><trkpt lat="45.94654971931196" lon="13.346625527846024"><ele>42.0</ele><time>2026-04-06T17:29:05Z</time></trkpt><trkpt lat="45.94629555077911" lon="13.34674917494228"><ele>42.0</ele><time>2026-04-06T17:29:06Z</time></trkpt><trkpt lat="45.94598725232193" lon="13.346874872351446"><ele>41.5</ele><time>2026-04-06T17:29:07Z</time></trkpt><trkpt lat="45.94565999566645" lon="13.347029055360172"><ele>41.0</ele><time>2026-04-06T17:29:08Z</time></trkpt><trkpt lat="45.9453249600992" lon="13.347196790046137"><ele>41.5</ele><time>2026-04-06T17:29:09Z</time></trkpt><trkpt lat="45.94498347236432" lon="13.34736288836104"><ele>42.0</ele><time>2026-04-06T17:29:10Z</time></trkpt><trkpt lat="45.94464884426594" lon="13.347521812851262"><ele>42.0</ele><time>2026-04-06T17:29:11Z</time></trkpt><trkpt lat="45.94432789804024" lon="13.347671908752144"><ele>42.0</ele><time>2026-04-06T17:29:12Z</time></trkpt><trkpt lat="45.94402460359571" lon="13.347816923235717"><ele>42.0</ele><time>2026-04-06T17:29:13Z</time></trkpt><trkpt lat="45.94373896692996" lon="13.34795698271882"><ele>42.0</ele><time>2026-04-06T17:29:14Z</time></trkpt><trkpt lat="45.94347302216801" lon="13.348087978432549"><ele>41.5</ele><time>2026-04-06T17:29:15Z</time></trkpt><trkpt lat="45.94322350607924" lon="13.348210071206378"><ele>41.0</ele><time>2026-04-06T17:29:16Z</time></trkpt><trkpt lat="45.94299136353049" lon="13.348323750455181"><ele>41.0</ele><time>2026-04-06T17:29:17Z</time></trkpt><trkpt lat="45.94277753288404" lon="13.348427517828652"><ele>41.0</ele><time>2026-04-06T17:29:18Z</time></trkpt><trkpt lat="45.94257422157318" lon="13.34853192401598"><ele>41.0</ele><time>2026-04-06T17:29:19Z</time></trkpt><trkpt lat="45.942385800447994" lon="13.348654414263564"><ele>41.0</ele><time>2026-04-06T17:29:20Z</time></trkpt><trkpt lat="45.9422148119049" lon="13.348815223954542"><ele>41.0</ele><time>2026-04-06T17:29:21Z</time></trkpt><trkpt lat="45.942054457850354" lon="13.349008079624232"><ele>41.0</ele><time>2026-04-06T17:29:22Z</time></trkpt><trkpt lat="45.941913675702686" lon="13.349232432992551"><ele>40.33333333333333</ele><time>2026-04-06T17:29:23Z</time></trkpt><trkpt lat="45.94179406266558" lon="13.349491851450356"><ele>39.666666666666664</ele><time>2026-04-06T17:29:24Z</time></trkpt><trkpt lat="45.94170702391466" lon="13.34978798629756"><ele>39.0</ele><time>2026-04-06T17:29:25Z</time></trkpt><trkpt lat="45.94164245901616" lon="13.350116208701936"><ele>39.0</ele><time>2026-04-06T17:29:26Z</time></trkpt><trkpt lat="45.94158208285845" lon="13.35047571423288"><ele>39.0</ele><time>2026-04-06T17:29:27Z</time></trkpt><trkpt lat="45.94151546071507" lon="13.350865303333835"><ele>39.5</ele><time>2026-04-06T17:29:28Z</time></trkpt><trkpt lat="45.94143922855236" lon="13.351283567834146"><ele>40.0</ele><time>2026-04-06T17:29:29Z</time></trkpt><trkpt lat="45.94136538302377" lon="13.351715936572486"><ele>40.0</ele><time>2026-04-06T17:29:30Z</time></trkpt><trkpt lat="45.94129388546135" lon="13.352164756241635"><ele>40.0</ele><time>2026-04-06T17:29:31Z</time></trkpt><trkpt lat="45.941218230933416" lon="13.352615046312158"><ele>39.5</ele><time>2026-04-06T17:29:32Z</time></trkpt><trkpt lat="45.941144695144516" lon="13.353054328303193"><ele>39.0</ele><time>2026-04-06T17:29:33Z</time></trkpt><trkpt lat="45.94106819717161" lon="13.353474520576901"><ele>39.0</ele><time>2026-04-06T17:29:34Z</time></trkpt><trkpt lat="45.94097666794422" lon="13.35387291585892"><ele>39.0</ele><time>2026-04-06T17:29:35Z</time></trkpt><trkpt lat="45.94086066287844" lon="13.35424983765964"><ele>38.5</ele><time>2026-04-06T17:29:36Z</time></trkpt><trkpt lat="45.940715364043434" lon="13.354618106179867"><ele>38.0</ele><time>2026-04-06T17:29:37Z</time></trkpt><trkpt lat="45.940568703392195" lon="13.35497109115652"><ele>38.0</ele><time>2026-04-06T17:29:38Z</time></trkpt><trkpt lat="45.94043397136636" lon="13.355290391435366"><ele>38.0</ele><time>2026-04-06T17:29:39Z</time></trkpt><trkpt lat="45.94030743367667" lon="13.355583303459996"><ele>38.5</ele><time>2026-04-06T17:29:40Z</time></trkpt><trkpt lat="45.940165078502865" lon="13.35586081450147"><ele>39.0</ele><time>2026-04-06T17:29:41Z</time></trkpt><trkpt lat="45.94000143587056" lon="13.356105737912596"><ele>39.0</ele><time>2026-04-06T17:29:42Z</time></trkpt><trkpt lat="45.93981050870376" lon="13.356320736503186"><ele>39.0</ele><time>2026-04-06T17:29:43Z</time></trkpt><trkpt lat="45.93960117433187" lon="13.356523105344378"><ele>39.0</ele><time>2026-04-06T17:29:44Z</time></trkpt><trkpt lat="45.93939875663137" lon="13.356742455270695"><ele>39.0</ele><time>2026-04-06T17:29:45Z</time></trkpt><trkpt lat="45.93920557824501" lon="13.356983623945471"><ele>38.5</ele><time>2026-04-06T17:29:46Z</time></trkpt><trkpt lat="45.93903421805335" lon="13.357259292332467"><ele>38.0</ele><time>2026-04-06T17:29:47Z</time></trkpt><trkpt lat="45.93887653187771" lon="13.35757437150095"><ele>38.0</ele><time>2026-04-06T17:29:48Z</time></trkpt><trkpt lat="45.93873184733627" lon="13.35793813647923"><ele>38.0</ele><time>2026-04-06T17:29:49Z</time></trkpt><trkpt lat="45.93859977348381" lon="13.358343819137133"><ele>38.0</ele><time>2026-04-06T17:29:50Z</time></trkpt><trkpt lat="45.93846795134279" lon="13.358774955659113"><ele>38.0</ele><time>2026-04-06T17:29:51Z</time></trkpt><trkpt lat="45.93832302188484" lon="13.359210138582654"><ele>38.0</ele><time>2026-04-06T17:29:52Z</time></trkpt><trkpt lat="45.938180133460605" lon="13.35963782411674"><ele>38.0</ele><time>2026-04-06T17:29:53Z</time></trkpt><trkpt lat="45.93804423190637" lon="13.360054971029712"><ele>38.0</ele><time>2026-04-06T17:29:54Z</time></trkpt><trkpt lat="45.93792065235289" lon="13.360462580070884"><ele>38.0</ele><time>2026-04-06T17:29:55Z</time></trkpt><trkpt lat="45.937815805709846" lon="13.36087089910187"><ele>38.0</ele><time>2026-04-06T17:29:56Z</time></trkpt><trkpt lat="45.937731085792315" lon="13.36128318971171"><ele>38.0</ele><time>2026-04-06T17:29:57Z</time></trkpt><trkpt lat="45.93765788972271" lon="13.3616805857192"><ele>38.0</ele><time>2026-04-06T17:29:58Z</time></trkpt><trkpt lat="45.93758704322615" lon="13.362045565084154"><ele>38.0</ele><time>2026-04-06T17:29:59Z</time></trkpt><trkpt lat="45.93751833532852" lon="13.362389917054655"><ele>38.0</ele><time>2026-04-06T17:30:00Z</time></trkpt><trkpt lat="45.937455643591704" lon="13.362708217208281"><ele>38.0</ele><time>2026-04-06T17:30:01Z</time></trkpt><trkpt lat="45.93739806769274" lon="13.36300326108955"><ele>38.0</ele><time>2026-04-06T17:30:02Z</time></trkpt><trkpt lat="45.93734649641347" lon="13.363275397073577"><ele>38.0</ele><time>2026-04-06T17:30:03Z</time></trkpt><trkpt lat="45.937299539089544" lon="13.363525577550467"><ele>38.0</ele><time>2026-04-06T17:30:04Z</time></trkpt><trkpt lat="45.93725167859425" lon="13.363752138016569"><ele>38.0</ele><time>2026-04-06T17:30:05Z</time></trkpt><trkpt lat="45.93719534118784" lon="13.363966821140533"><ele>39.0</ele><time>2026-04-06T17:30:06Z</time></trkpt><trkpt lat="45.93711472979205" lon="13.364163981587032"><ele>40.0</ele><time>2026-04-06T17:30:07Z</time></trkpt><trkpt lat="45.93701049819841" lon="13.364343635514079"><ele>41.0</ele><time>2026-04-06T17:30:08Z</time></trkpt><trkpt lat="45.93688702582945" lon="13.364497507997564"><ele>41.0</ele><time>2026-04-06T17:30:09Z</time></trkpt><trkpt lat="45.93675635969044" lon="13.364626724606914"><ele>41.0</ele><time>2026-04-06T17:30:10Z</time></trkpt><trkpt lat="45.93661284645167" lon="13.36472439920746"><ele>41.0</ele><time>2026-04-06T17:30:11Z</time></trkpt><trkpt lat="45.93645274239605" lon="13.36478802791399"><ele>40.0</ele><time>2026-04-06T17:30:12Z</time></trkpt><trkpt lat="45.93628381584446" lon="13.364823662259433"><ele>39.0</ele><time>2026-04-06T17:30:13Z</time></trkpt><trkpt lat="45.936117202533744" lon="13.364837347054927"><ele>38.0</ele><time>2026-04-06T17:30:14Z</time></trkpt><trkpt lat="45.93595373476049" lon="13.364867741606133"><ele>37.33333333333333</ele><time>2026-04-06T17:30:15Z</time></trkpt><trkpt lat="45.93579628361206" lon="13.364900966781988"><ele>36.666666666666664</ele><time>2026-04-06T17:30:16Z</time></trkpt><trkpt lat="45.935634461588144" lon="13.364927114777458"><ele>36.0</ele><time>2026-04-06T17:30:17Z</time></trkpt><trkpt lat="45.935462780977666" lon="13.36496141378705"><ele>36.0</ele><time>2026-04-06T17:30:18Z</time></trkpt><trkpt lat="45.93528748609356" lon="13.364994805935728"><ele>36.0</ele><time>2026-04-06T17:30:19Z</time></trkpt><trkpt lat="45.93511427804581" lon="13.365023817022381"><ele>36.0</ele><time>2026-04-06T17:30:20Z</time></trkpt><trkpt lat="45.934944472561334" lon="13.365052908931428"><ele>36.333333333333336</ele><time>2026-04-06T17:30:21Z</time></trkpt><trkpt lat="45.934775486279314" lon="13.365083506671906"><ele>36.66666666666667</ele><time>2026-04-06T17:30:22Z</time></trkpt><trkpt lat="45.9346036798295" lon="13.365113848929422"><ele>37.0</ele><time>2026-04-06T17:30:23Z</time></trkpt><trkpt lat="45.93442266514811" lon="13.365147485395315"><ele>37.0</ele><time>2026-04-06T17:30:24Z</time></trkpt><trkpt lat="45.934232753613" lon="13.365183015388046"><ele>37.0</ele><time>2026-04-06T17:30:25Z</time></trkpt><trkpt lat="45.93404419406431" lon="13.36521649813222"><ele>37.0</ele><time>2026-04-06T17:30:26Z</time></trkpt><trkpt lat="45.93385533160989" lon="13.365249119470588"><ele>37.0</ele><time>2026-04-06T17:30:27Z</time></trkpt><trkpt lat="45.93365828381573" lon="13.365284920343452"><ele>37.0</ele><time>2026-04-06T17:30:28Z</time></trkpt><trkpt lat="45.93343901003593" lon="13.365338080376535"><ele>37.0</ele><time>2026-04-06T17:30:29Z</time></trkpt><trkpt lat="45.933154526949984" lon="13.365366507969497"><ele>36.0</ele><time>2026-04-06T17:30:30Z</time></trkpt><trkpt lat="45.93283204977828" lon="13.365437545483855"><ele>35.0</ele><time>2026-04-06T17:30:31Z</time></trkpt><trkpt lat="45.932497872530824" lon="13.365488308203444"><ele>36.0</ele><time>2026-04-06T17:30:32Z</time></trkpt><trkpt lat="45.93216723979042" lon="13.365573502652053"><ele>37.0</ele><time>2026-04-06T17:30:33Z</time></trkpt><trkpt lat="45.931845530158085" lon="13.365679329954249"><ele>36.0</ele><time>2026-04-06T17:30:34Z</time></trkpt><trkpt lat="45.93153211086727" lon="13.365810230781722"><ele>35.0</ele><time>2026-04-06T17:30:35Z</time></trkpt><trkpt lat="45.93123079911754" lon="13.365949937869882"><ele>35.0</ele><time>2026-04-06T17:30:36Z</time></trkpt><trkpt lat="45.93094112716368" lon="13.36607787816467"><ele>35.0</ele><time>2026-04-06T17:30:37Z</time></trkpt><trkpt lat="45.930660710793155" lon="13.366200182154026"><ele>35.0</ele><time>2026-04-06T17:30:38Z</time></trkpt><trkpt lat="45.93039223888094" lon="13.366320597938437"><ele>35.0</ele><time>2026-04-06T17:30:39Z</time></trkpt><trkpt lat="45.93013391508684" lon="13.366439201006939"><ele>35.0</ele><time>2026-04-06T17:30:40Z</time></trkpt><trkpt lat="45.929878850776305" lon="13.366551838218626"><ele>35.0</ele><time>2026-04-06T17:30:41Z</time></trkpt><trkpt lat="45.92962714680396" lon="13.366661429622988"><ele>35.0</ele><time>2026-04-06T17:30:42Z</time></trkpt><trkpt lat="45.929378888089516" lon="13.366771504302307"><ele>35.0</ele><time>2026-04-06T17:30:43Z</time></trkpt><trkpt lat="45.929134299390405" lon="13.36688142928624"><ele>34.5</ele><time>2026-04-06T17:30:44Z</time></trkpt><trkpt lat="45.92889042004278" lon="13.366991691066099"><ele>34.0</ele><time>2026-04-06T17:30:45Z</time></trkpt><trkpt lat="45.92864868728211" lon="13.367098938088821"><ele>34.0</ele><time>2026-04-06T17:30:46Z</time></trkpt><trkpt lat="45.92840873445922" lon="13.367209050091233"><ele>34.0</ele><time>2026-04-06T17:30:47Z</time></trkpt><trkpt lat="45.92817318324859" lon="13.36732791618958"><ele>34.0</ele><time>2026-04-06T17:30:48Z</time></trkpt><trkpt lat="45.927945525327814" lon="13.367473290043534"><ele>34.0</ele><time>2026-04-06T17:30:49Z</time></trkpt><trkpt lat="45.92772303470566" lon="13.367640940463703"><ele>34.0</ele><time>2026-04-06T17:30:50Z</time></trkpt><trkpt lat="45.927501536536624" lon="13.36782985895322"><ele>34.0</ele><time>2026-04-06T17:30:51Z</time></trkpt><trkpt lat="45.92728023764163" lon="13.368036182203376"><ele>34.0</ele><time>2026-04-06T17:30:52Z</time></trkpt><trkpt lat="45.92705371888107" lon="13.36824951764673"><ele>34.0</ele><time>2026-04-06T17:30:53Z</time></trkpt><trkpt lat="45.92682152742213" lon="13.368467706402434"><ele>34.0</ele><time>2026-04-06T17:30:53.999Z</time></trkpt><trkpt lat="45.926585003294484" lon="13.368689222942677"><ele>34.0</ele><time>2026-04-06T17:30:54.999Z</time></trkpt><trkpt lat="45.92634030000557" lon="13.36891352088252"><ele>34.0</ele><time>2026-04-06T17:30:55.999Z</time></trkpt><trkpt lat="45.92608863593002" lon="13.369143963982392"><ele>34.0</ele><time>2026-04-06T17:30:56.999Z</time></trkpt><trkpt lat="45.925826652006094" lon="13.369380555266345"><ele>34.0</ele><time>2026-04-06T17:30:57.999Z</time></trkpt><trkpt lat="45.92555109375279" lon="13.369624590178482"><ele>34.0</ele><time>2026-04-06T17:30:58.999Z</time></trkpt><trkpt lat="45.925264499921305" lon="13.369875736363817"><ele>33.5</ele><time>2026-04-06T17:30:59.999Z</time></trkpt><trkpt lat="45.924968878560726" lon="13.370133502133289"><ele>33.0</ele><time>2026-04-06T17:31:00.999Z</time></trkpt><trkpt lat="45.92467722635663" lon="13.370389097634064"><ele>33.0</ele><time>2026-04-06T17:31:01.999Z</time></trkpt><trkpt lat="45.92439082344604" lon="13.37064181530457"><ele>33.0</ele><time>2026-04-06T17:31:02.999Z</time></trkpt><trkpt lat="45.924109198014726" lon="13.3708906383397"><ele>33.0</ele><time>2026-04-06T17:31:03.999Z</time></trkpt><trkpt lat="45.92383433637844" lon="13.371131819210722"><ele>33.0</ele><time>2026-04-06T17:31:04.999Z</time></trkpt><trkpt lat="45.923566534334164" lon="13.37136670512665"><ele>33.0</ele><time>2026-04-06T17:31:05.999Z</time></trkpt><trkpt lat="45.92330731307763" lon="13.371593363625216"><ele>33.0</ele><time>2026-04-06T17:31:06.999Z</time></trkpt><trkpt lat="45.923060046477154" lon="13.371809834312357"><ele>33.0</ele><time>2026-04-06T17:31:07.999Z</time></trkpt><trkpt lat="45.922828215883236" lon="13.37201573366833"><ele>33.0</ele><time>2026-04-06T17:31:08.999Z</time></trkpt><trkpt lat="45.92261312014687" lon="13.372208071785861"><ele>33.333333333333336</ele><time>2026-04-06T17:31:10Z</time></trkpt><trkpt lat="45.92241966463379" lon="13.372379160609094"><ele>33.66666666666667</ele><time>2026-04-06T17:31:11Z</time></trkpt><trkpt lat="45.922243311369066" lon="13.37253334219793"><ele>34.0</ele><time>2026-04-06T17:31:12Z</time></trkpt><trkpt lat="45.92208573592925" lon="13.37267330976563"><ele>34.0</ele><time>2026-04-06T17:31:13Z</time></trkpt><trkpt lat="45.92194971212103" lon="13.372789295377357"><ele>34.0</ele><time>2026-04-06T17:31:14Z</time></trkpt><trkpt lat="45.92182707633906" lon="13.372881562766322"><ele>34.0</ele><time>2026-04-06T17:31:15Z</time></trkpt><trkpt lat="45.92171721139101" lon="13.372938754790704"><ele>34.0</ele><time>2026-04-06T17:31:16Z</time></trkpt><trkpt lat="45.92161872120063" lon="13.372989567112331"><ele>34.0</ele><time>2026-04-06T17:31:17Z</time></trkpt><trkpt lat="45.921501728525236" lon="13.372985622003004"><ele>34.0</ele><time>2026-04-06T17:31:18Z</time></trkpt><trkpt lat="45.921402926444124" lon="13.373059231683468"><ele>34.0</ele><time>2026-04-06T17:31:19Z</time></trkpt><trkpt lat="45.921315104643654" lon="13.373194944429775"><ele>34.0</ele><time>2026-04-06T17:31:20Z</time></trkpt><trkpt lat="45.921208680881605" lon="13.373370490874336"><ele>33.333333333333336</ele><time>2026-04-06T17:31:21Z</time></trkpt><trkpt lat="45.92106164386421" lon="13.37354388902331"><ele>32.666666666666664</ele><time>2026-04-06T17:31:22Z</time></trkpt><trkpt lat="45.920876819350816" lon="13.3737186757581"><ele>32.0</ele><time>2026-04-06T17:31:23Z</time></trkpt><trkpt lat="45.92066997141757" lon="13.37389280898711"><ele>32.0</ele><time>2026-04-06T17:31:24Z</time></trkpt><trkpt lat="45.920443202254106" lon="13.374089262609534"><ele>32.0</ele><time>2026-04-06T17:31:25Z</time></trkpt><trkpt lat="45.920214032040015" lon="13.37431058230507"><ele>31.5</ele><time>2026-04-06T17:31:26Z</time></trkpt><trkpt lat="45.91998152938737" lon="13.374547640741316"><ele>31.0</ele><time>2026-04-06T17:31:27Z</time></trkpt><trkpt lat="45.91974985190413" lon="13.374788712916036"><ele>31.0</ele><time>2026-04-06T17:31:28Z</time></trkpt><trkpt lat="45.919525254248754" lon="13.375019247669162"><ele>31.0</ele><time>2026-04-06T17:31:29Z</time></trkpt><trkpt lat="45.91932480927899" lon="13.375221051651291"><ele>31.0</ele><time>2026-04-06T17:31:30Z</time></trkpt><trkpt lat="45.91912763126125" lon="13.375404808381552"><ele>31.0</ele><time>2026-04-06T17:31:31Z</time></trkpt><trkpt lat="45.91892406310904" lon="13.375562354764245"><ele>31.5</ele><time>2026-04-06T17:31:32Z</time></trkpt><trkpt lat="45.91871069113277" lon="13.375691794338032"><ele>32.0</ele><time>2026-04-06T17:31:33Z</time></trkpt><trkpt lat="45.918482172925586" lon="13.375786378393999"><ele>32.0</ele><time>2026-04-06T17:31:34Z</time></trkpt><trkpt lat="45.91824219000014" lon="13.375844738267464"><ele>32.0</ele><time>2026-04-06T17:31:35Z</time></trkpt><trkpt lat="45.91799426853577" lon="13.375894091308501"><ele>32.0</ele><time>2026-04-06T17:31:36Z</time></trkpt><trkpt lat="45.91773239107401" lon="13.375939719836882"><ele>32.0</ele><time>2026-04-06T17:31:37Z</time></trkpt><trkpt lat="45.917472137449636" lon="13.375987166018248"><ele>31.0</ele><time>2026-04-06T17:31:38Z</time></trkpt><trkpt lat="45.917219715827194" lon="13.376037180596319"><ele>30.0</ele><time>2026-04-06T17:31:39Z</time></trkpt><trkpt lat="45.916973283745605" lon="13.376083603466888"><ele>31.5</ele><time>2026-04-06T17:31:40Z</time></trkpt><trkpt lat="45.91673454043717" lon="13.37611422285407"><ele>33.0</ele><time>2026-04-06T17:31:41Z</time></trkpt><trkpt lat="45.91650825075237" lon="13.376131567330205"><ele>33.0</ele><time>2026-04-06T17:31:42Z</time></trkpt><trkpt lat="45.916288077449515" lon="13.376139598051251"><ele>33.0</ele><time>2026-04-06T17:31:43Z</time></trkpt><trkpt lat="45.91607123118064" lon="13.376142728418317"><ele>33.0</ele><time>2026-04-06T17:31:44Z</time></trkpt><trkpt lat="45.91585636307471" lon="13.37615003147212"><ele>33.333333333333336</ele><time>2026-04-06T17:31:45Z</time></trkpt><trkpt lat="45.915642161814205" lon="13.376170034952164"><ele>33.66666666666667</ele><time>2026-04-06T17:31:46Z</time></trkpt><trkpt lat="45.9154281589515" lon="13.37620177439212"><ele>34.0</ele><time>2026-04-06T17:31:47Z</time></trkpt><trkpt lat="45.9152153404457" lon="13.376236084822256"><ele>33.333333333333336</ele><time>2026-04-06T17:31:48Z</time></trkpt><trkpt lat="45.915004404903044" lon="13.376270435099627"><ele>32.666666666666664</ele><time>2026-04-06T17:31:49Z</time></trkpt><trkpt lat="45.91479502398119" lon="13.376304123906849"><ele>32.0</ele><time>2026-04-06T17:31:50Z</time></trkpt><trkpt lat="45.91458968323086" lon="13.376337450527041"><ele>32.33333333333333</ele><time>2026-04-06T17:31:51Z</time></trkpt><trkpt lat="45.91438697354274" lon="13.376378224502677"><ele>32.666666666666664</ele><time>2026-04-06T17:31:52Z</time></trkpt><trkpt lat="45.91418913908955" lon="13.376429851467474"><ele>33.0</ele><time>2026-04-06T17:31:53Z</time></trkpt><trkpt lat="45.91399566281865" lon="13.376497191056158"><ele>33.0</ele><time>2026-04-06T17:31:54Z</time></trkpt><trkpt lat="45.913807670668" lon="13.376578065131943"><ele>33.0</ele><time>2026-04-06T17:31:55Z</time></trkpt><trkpt lat="45.91362567340982" lon="13.376660125261003"><ele>33.0</ele><time>2026-04-06T17:31:56Z</time></trkpt><trkpt lat="45.91344947598502" lon="13.376722835729884"><ele>33.333333333333336</ele><time>2026-04-06T17:31:57Z</time></trkpt><trkpt lat="45.9132871241484" lon="13.376773224149101"><ele>33.66666666666667</ele><time>2026-04-06T17:31:58Z</time></trkpt><trkpt lat="45.91313055713405" lon="13.376836118902894"><ele>34.0</ele><time>2026-04-06T17:31:59Z</time></trkpt><trkpt lat="45.91297648352178" lon="13.37693777885491"><ele>34.0</ele><time>2026-04-06T17:32:00Z</time></trkpt><trkpt lat="45.9128233625752" lon="13.377086651571975"><ele>34.0</ele><time>2026-04-06T17:32:01Z</time></trkpt><trkpt lat="45.91265697331807" lon="13.377266515667706"><ele>34.0</ele><time>2026-04-06T17:32:02Z</time></trkpt><trkpt lat="45.9124718759574" lon="13.37746275485287"><ele>33.0</ele><time>2026-04-06T17:32:03Z</time></trkpt><trkpt lat="45.91226595867815" lon="13.377674996789679"><ele>32.0</ele><time>2026-04-06T17:32:04Z</time></trkpt><trkpt lat="45.91205083852518" lon="13.377898773161384"><ele>31.5</ele><time>2026-04-06T17:32:05Z</time></trkpt><trkpt lat="45.91184941522353" lon="13.378104173529678"><ele>31.0</ele><time>2026-04-06T17:32:06Z</time></trkpt><trkpt lat="45.91165275757647" lon="13.378281781868328"><ele>31.0</ele><time>2026-04-06T17:32:07Z</time></trkpt><trkpt lat="45.911445492232446" lon="13.37843010869081"><ele>31.0</ele><time>2026-04-06T17:32:08Z</time></trkpt><trkpt lat="45.91122216724442" lon="13.378541288653313"><ele>31.0</ele><time>2026-04-06T17:32:09Z</time></trkpt><trkpt lat="45.9109811967022" lon="13.378622601818204"><ele>31.0</ele><time>2026-04-06T17:32:10Z</time></trkpt><trkpt lat="45.910726993008005" lon="13.378664909958534"><ele>30.5</ele><time>2026-04-06T17:32:11Z</time></trkpt><trkpt lat="45.91046002177986" lon="13.378669270872756"><ele>30.0</ele><time>2026-04-06T17:32:12Z</time></trkpt><trkpt lat="45.91016689474344" lon="13.378641170232868"><ele>29.0</ele><time>2026-04-06T17:32:13Z</time></trkpt><trkpt lat="45.909850511146665" lon="13.37862003862154"><ele>28.0</ele><time>2026-04-06T17:32:14Z</time></trkpt><trkpt lat="45.90951469786126" lon="13.378616871249493"><ele>28.5</ele><time>2026-04-06T17:32:15Z</time></trkpt><trkpt lat="45.90917765062007" lon="13.378638092295558"><ele>29.0</ele><time>2026-04-06T17:32:16Z</time></trkpt><trkpt lat="45.908850848705086" lon="13.378673914819993"><ele>29.0</ele><time>2026-04-06T17:32:17Z</time></trkpt><trkpt lat="45.9085292888045" lon="13.378726329655604"><ele>29.0</ele><time>2026-04-06T17:32:18Z</time></trkpt><trkpt lat="45.908213367833355" lon="13.37879642524365"><ele>29.0</ele><time>2026-04-06T17:32:19Z</time></trkpt><trkpt lat="45.90790546557933" lon="13.378881809458138"><ele>29.0</ele><time>2026-04-06T17:32:20Z</time></trkpt><trkpt lat="45.90760677599127" lon="13.378992692495459"><ele>29.0</ele><time>2026-04-06T17:32:21Z</time></trkpt><trkpt lat="45.90730805728591" lon="13.379119474481485"><ele>29.0</ele><time>2026-04-06T17:32:22Z</time></trkpt><trkpt lat="45.907008199397914" lon="13.379237048811822"><ele>29.0</ele><time>2026-04-06T17:32:23Z</time></trkpt><trkpt lat="45.90670640873294" lon="13.37931880335904"><ele>29.0</ele><time>2026-04-06T17:32:24Z</time></trkpt><trkpt lat="45.9063989732886" lon="13.379367312751265"><ele>29.0</ele><time>2026-04-06T17:32:25Z</time></trkpt><trkpt lat="45.906089118446744" lon="13.37940352395259"><ele>29.0</ele><time>2026-04-06T17:32:26Z</time></trkpt><trkpt lat="45.90578251990683" lon="13.379437577001788"><ele>28.5</ele><time>2026-04-06T17:32:27Z</time></trkpt><trkpt lat="45.905477379256595" lon="13.379469430934048"><ele>28.0</ele><time>2026-04-06T17:32:28Z</time></trkpt><trkpt lat="45.905173517588324" lon="13.379508392826263"><ele>27.0</ele><time>2026-04-06T17:32:29Z</time></trkpt><trkpt lat="45.904874257681044" lon="13.37954836137484"><ele>26.0</ele><time>2026-04-06T17:32:30Z</time></trkpt><trkpt lat="45.904577467192176" lon="13.379590678735328"><ele>26.0</ele><time>2026-04-06T17:32:31Z</time></trkpt><trkpt lat="45.90428229764078" lon="13.379645552909135"><ele>26.0</ele><time>2026-04-06T17:32:32Z</time></trkpt><trkpt lat="45.903986540541474" lon="13.37971166831684"><ele>26.5</ele><time>2026-04-06T17:32:33Z</time></trkpt><trkpt lat="45.90368333383055" lon="13.379779519599929"><ele>27.0</ele><time>2026-04-06T17:32:34Z</time></trkpt><trkpt lat="45.903376020187196" lon="13.379846764826386"><ele>27.0</ele><time>2026-04-06T17:32:35Z</time></trkpt><trkpt lat="45.90306262165228" lon="13.379915922644244"><ele>27.0</ele><time>2026-04-06T17:32:36Z</time></trkpt><trkpt lat="45.90274308260059" lon="13.379986215137068"><ele>26.5</ele><time>2026-04-06T17:32:37Z</time></trkpt><trkpt lat="45.90241712781258" lon="13.380058292631992"><ele>26.0</ele><time>2026-04-06T17:32:38Z</time></trkpt><trkpt lat="45.902093367500235" lon="13.380130213610956"><ele>26.0</ele><time>2026-04-06T17:32:39Z</time></trkpt><trkpt lat="45.90177747797333" lon="13.380193485002124"><ele>26.0</ele><time>2026-04-06T17:32:40Z</time></trkpt><trkpt lat="45.90146684582687" lon="13.380246323048638"><ele>26.0</ele><time>2026-04-06T17:32:41Z</time></trkpt><trkpt lat="45.901163848900296" lon="13.38028798223548"><ele>26.0</ele><time>2026-04-06T17:32:42Z</time></trkpt><trkpt lat="45.900857137807165" lon="13.380324728656035"><ele>26.0</ele><time>2026-04-06T17:32:43Z</time></trkpt><trkpt lat="45.90055276885432" lon="13.380366363320357"><ele>26.0</ele><time>2026-04-06T17:32:44Z</time></trkpt><trkpt lat="45.900260032107155" lon="13.380408709900175"><ele>26.0</ele><time>2026-04-06T17:32:45Z</time></trkpt><trkpt lat="45.899988593649525" lon="13.380449008888718"><ele>26.0</ele><time>2026-04-06T17:32:46Z</time></trkpt><trkpt lat="45.899734248108366" lon="13.380493890483002"><ele>26.0</ele><time>2026-04-06T17:32:47Z</time></trkpt><trkpt lat="45.89949846268688" lon="13.38054196530179"><ele>26.0</ele><time>2026-04-06T17:32:48Z</time></trkpt><trkpt lat="45.899281483648615" lon="13.38059780821991"><ele>25.333333333333332</ele><time>2026-04-06T17:32:49Z</time></trkpt><trkpt lat="45.89908510383752" lon="13.380653652486668"><ele>24.666666666666664</ele><time>2026-04-06T17:32:50Z</time></trkpt><trkpt lat="45.89890791898861" lon="13.38071487099708"><ele>24.0</ele><time>2026-04-06T17:32:51Z</time></trkpt><trkpt lat="45.89873762336729" lon="13.380779802594564"><ele>24.0</ele><time>2026-04-06T17:32:52Z</time></trkpt><trkpt lat="45.89857048188788" lon="13.380848120181527"><ele>24.0</ele><time>2026-04-06T17:32:53Z</time></trkpt><trkpt lat="45.89840474419024" lon="13.38091622060891"><ele>24.0</ele><time>2026-04-06T17:32:54Z</time></trkpt><trkpt lat="45.898240273853695" lon="13.380979129753134"><ele>24.666666666666664</ele><time>2026-04-06T17:32:55Z</time></trkpt><trkpt lat="45.898077475116054" lon="13.381035564157077"><ele>25.333333333333332</ele><time>2026-04-06T17:32:55.999Z</time></trkpt><trkpt lat="45.89791365139448" lon="13.381100157928856"><ele>26.0</ele><time>2026-04-06T17:32:56.999Z</time></trkpt><trkpt lat="45.897751704213825" lon="13.381171496633309"><ele>26.0</ele><time>2026-04-06T17:32:57.999Z</time></trkpt><trkpt lat="45.897587270736324" lon="13.381239409197066"><ele>26.0</ele><time>2026-04-06T17:32:58.999Z</time></trkpt><trkpt lat="45.89741953071013" lon="13.381305974975614"><ele>26.0</ele><time>2026-04-06T17:32:59.999Z</time></trkpt><trkpt lat="45.89724812864458" lon="13.381378865700308"><ele>26.0</ele><time>2026-04-06T17:33:00.999Z</time></trkpt><trkpt lat="45.89707643067911" lon="13.38145252206146"><ele>26.0</ele><time>2026-04-06T17:33:01.999Z</time></trkpt><trkpt lat="45.89690416784875" lon="13.381526004781799"><ele>26.0</ele><time>2026-04-06T17:33:02.999Z</time></trkpt><trkpt lat="45.896733674255685" lon="13.381600909329158"><ele>26.0</ele><time>2026-04-06T17:33:03.999Z</time></trkpt><trkpt lat="45.896569078567495" lon="13.381679662427967"><ele>26.0</ele><time>2026-04-06T17:33:04.999Z</time></trkpt><trkpt lat="45.896410996677496" lon="13.38175349116704"><ele>26.0</ele><time>2026-04-06T17:33:05.999Z</time></trkpt><trkpt lat="45.89627311384487" lon="13.381816147264315"><ele>26.0</ele><time>2026-04-06T17:33:06.999Z</time></trkpt><trkpt lat="45.89615545752745" lon="13.381871204526854"><ele>26.0</ele><time>2026-04-06T17:33:07.999Z</time></trkpt><trkpt lat="45.896053968218986" lon="13.381920015257867"><ele>26.0</ele><time>2026-04-06T17:33:08.999Z</time></trkpt><trkpt lat="45.89596361614435" lon="13.381960887623563"><ele>26.0</ele><time>2026-04-06T17:33:09.999Z</time></trkpt><trkpt lat="45.89588593440068" lon="13.38199431744771"><ele>26.0</ele><time>2026-04-06T17:33:10.999Z</time></trkpt><trkpt lat="45.895795621708395" lon="13.382019414880675"><ele>26.142857142857142</ele><time>2026-04-06T17:33:12.999Z</time></trkpt><trkpt lat="45.8957825930874" lon="13.381927790931774"><ele>26.28571428571429</ele><time>2026-04-06T17:33:16Z</time></trkpt><trkpt lat="45.89579717224452" lon="13.381833454800807"><ele>26.42857142857143</ele><time>2026-04-06T17:33:18Z</time></trkpt><trkpt lat="45.89582029285145" lon="13.381728420972328"><ele>26.57142857142857</ele><time>2026-04-06T17:33:20Z</time></trkpt><trkpt lat="45.895842387243164" lon="13.381623482206258"><ele>26.714285714285715</ele><time>2026-04-06T17:33:22Z</time></trkpt><trkpt lat="45.89586509093196" lon="13.381517724611571"><ele>26.857142857142858</ele><time>2026-04-06T17:33:24Z</time></trkpt><trkpt lat="45.89588796512013" lon="13.381412738926558"><ele>27.0</ele><time>2026-04-06T17:33:26Z</time></trkpt><trkpt lat="45.89589462996549" lon="13.381317390656552"><ele>25.0</ele><time>2026-04-06T17:33:28Z</time></trkpt><trkpt lat="45.89598969267788" lon="13.381301828451978"><ele>26.0</ele><time>2026-04-06T17:33:31Z</time></trkpt><trkpt lat="45.89605433654263" lon="13.381280802665723"><ele>26.0</ele><time>2026-04-06T17:33:33Z</time></trkpt><trkpt lat="45.896136852782064" lon="13.381242397336955"><ele>26.0</ele><time>2026-04-06T17:33:36Z</time></trkpt></trkseg></trk></gpx>